<?xml version="1.0" encoding="UTF-8" standalone="no" ?>
<gpx xmlns="http://www.topografix.com/GPX/1/1" xmlns:xsi="http://www.w3.org/2001/XMLSchema-instance" xsi:schemaLocation="http://www.topografix.com/GPX/1/1 http://www.topografix.com/GPX/1/1/gpx.xsd" version="1.1" creator="VisuGPX - https://www.visugpx.com">
  <metadata>
    <name>Mazeres \ Montastruc </name>
  </metadata>
  <trk>
    <name><![CDATA[Mazeres \ Montastruc 18.04.2021 15:39]]></name>
    <trkseg>
      <trkpt lat="43.06964" lon="0.54513">
        <ele>486.755266</ele>
        <time>2021-04-18T07:26:28.175Z</time>
      </trkpt>
      <trkpt lat="43.06965" lon="0.54501">
        <ele>486.755266</ele>
        <time>2021-04-18T07:26:34.171Z</time>
      </trkpt>
      <trkpt lat="43.06972" lon="0.5449">
        <ele>486.755266</ele>
        <time>2021-04-18T07:26:39.160Z</time>
      </trkpt>
      <trkpt lat="43.06978" lon="0.54479">
        <ele>486.755266</ele>
        <time>2021-04-18T07:26:43.180Z</time>
      </trkpt>
      <trkpt lat="43.06985" lon="0.5447">
        <ele>486.755266</ele>
        <time>2021-04-18T07:26:48.176Z</time>
      </trkpt>
      <trkpt lat="43.06995" lon="0.5447">
        <ele>486.755266</ele>
        <time>2021-04-18T07:26:52.166Z</time>
      </trkpt>
      <trkpt lat="43.07004" lon="0.54469">
        <ele>486.755266</ele>
        <time>2021-04-18T07:26:55.185Z</time>
      </trkpt>
      <trkpt lat="43.07016" lon="0.54466">
        <ele>486.755266</ele>
        <time>2021-04-18T07:26:59.179Z</time>
      </trkpt>
      <trkpt lat="43.07027" lon="0.54461">
        <ele>486.755266</ele>
        <time>2021-04-18T07:27:03.177Z</time>
      </trkpt>
      <trkpt lat="43.07035" lon="0.54454">
        <ele>486.793658</ele>
        <time>2021-04-18T07:27:06.165Z</time>
      </trkpt>
      <trkpt lat="43.07038" lon="0.54442">
        <ele>487.052741</ele>
        <time>2021-04-18T07:27:09.156Z</time>
      </trkpt>
      <trkpt lat="43.0704" lon="0.5443">
        <ele>487.300301</ele>
        <time>2021-04-18T07:27:12.189Z</time>
      </trkpt>
      <trkpt lat="43.07049" lon="0.54424">
        <ele>487.556733</ele>
        <time>2021-04-18T07:27:16.170Z</time>
      </trkpt>
      <trkpt lat="43.0706" lon="0.54426">
        <ele>487.861594</ele>
        <time>2021-04-18T07:27:19.170Z</time>
      </trkpt>
      <trkpt lat="43.07069" lon="0.54424">
        <ele>488.119269</ele>
        <time>2021-04-18T07:27:22.174Z</time>
      </trkpt>
      <trkpt lat="43.07079" lon="0.54424">
        <ele>488.380924</ele>
        <time>2021-04-18T07:27:26.164Z</time>
      </trkpt>
      <trkpt lat="43.07089" lon="0.54424">
        <ele>488.642579</ele>
        <time>2021-04-18T07:27:30.175Z</time>
      </trkpt>
      <trkpt lat="43.07098" lon="0.54426">
        <ele>488.903465</ele>
        <time>2021-04-18T07:27:37.183Z</time>
      </trkpt>
      <trkpt lat="43.07105" lon="0.54414">
        <ele>489.205992</ele>
        <time>2021-04-18T07:27:42.163Z</time>
      </trkpt>
      <trkpt lat="43.07105" lon="0.544">
        <ele>489.480475</ele>
        <time>2021-04-18T07:27:45.201Z</time>
      </trkpt>
      <trkpt lat="43.07105" lon="0.54386">
        <ele>489.756397</ele>
        <time>2021-04-18T07:27:48.160Z</time>
      </trkpt>
      <trkpt lat="43.07107" lon="0.54371">
        <ele>490.065021</ele>
        <time>2021-04-18T07:27:52.178Z</time>
      </trkpt>
      <trkpt lat="43.07109" lon="0.54356">
        <ele>490.369508</ele>
        <time>2021-04-18T07:27:55.157Z</time>
      </trkpt>
      <trkpt lat="43.0711" lon="0.54342">
        <ele>490.633195</ele>
        <time>2021-04-18T07:27:58.187Z</time>
      </trkpt>
      <trkpt lat="43.07115" lon="0.5433">
        <ele>490.910928</ele>
        <time>2021-04-18T07:28:01.162Z</time>
      </trkpt>
      <trkpt lat="43.07121" lon="0.54319">
        <ele>491.186599</ele>
        <time>2021-04-18T07:28:04.206Z</time>
      </trkpt>
      <trkpt lat="43.07126" lon="0.54305">
        <ele>491.496628</ele>
        <time>2021-04-18T07:28:07.178Z</time>
      </trkpt>
      <trkpt lat="43.07131" lon="0.54291">
        <ele>491.447175</ele>
        <time>2021-04-18T07:28:10.214Z</time>
      </trkpt>
      <trkpt lat="43.07137" lon="0.54279">
        <ele>491.232283</ele>
        <time>2021-04-18T07:28:13.171Z</time>
      </trkpt>
      <trkpt lat="43.07142" lon="0.54265">
        <ele>490.993261</ele>
        <time>2021-04-18T07:28:16.160Z</time>
      </trkpt>
      <trkpt lat="43.07148" lon="0.54255">
        <ele>490.784452</ele>
        <time>2021-04-18T07:28:19.204Z</time>
      </trkpt>
      <trkpt lat="43.07158" lon="0.54248">
        <ele>490.561384</ele>
        <time>2021-04-18T07:28:22.167Z</time>
      </trkpt>
      <trkpt lat="43.07166" lon="0.54242">
        <ele>490.357614</ele>
        <time>2021-04-18T07:28:25.207Z</time>
      </trkpt>
      <trkpt lat="43.07175" lon="0.54235">
        <ele>490.144889</ele>
        <time>2021-04-18T07:28:28.171Z</time>
      </trkpt>
      <trkpt lat="43.07183" lon="0.54229">
        <ele>489.947441</ele>
        <time>2021-04-18T07:28:31.177Z</time>
      </trkpt>
      <trkpt lat="43.07192" lon="0.54225">
        <ele>489.752266</ele>
        <time>2021-04-18T07:28:34.166Z</time>
      </trkpt>
      <trkpt lat="43.07201" lon="0.54221">
        <ele>489.55098</ele>
        <time>2021-04-18T07:28:37.183Z</time>
      </trkpt>
      <trkpt lat="43.07211" lon="0.54216">
        <ele>489.326782</ele>
        <time>2021-04-18T07:28:40.179Z</time>
      </trkpt>
      <trkpt lat="43.07221" lon="0.54214">
        <ele>489.108779</ele>
        <time>2021-04-18T07:28:43.176Z</time>
      </trkpt>
      <trkpt lat="43.07232" lon="0.54212">
        <ele>488.884045</ele>
        <time>2021-04-18T07:28:46.168Z</time>
      </trkpt>
      <trkpt lat="43.07242" lon="0.5421">
        <ele>488.653257</ele>
        <time>2021-04-18T07:28:49.179Z</time>
      </trkpt>
      <trkpt lat="43.07254" lon="0.54207">
        <ele>488.406734</ele>
        <time>2021-04-18T07:28:52.186Z</time>
      </trkpt>
      <trkpt lat="43.07265" lon="0.54203">
        <ele>488.163892</ele>
        <time>2021-04-18T07:28:55.186Z</time>
      </trkpt>
      <trkpt lat="43.07276" lon="0.54199">
        <ele>487.922694</ele>
        <time>2021-04-18T07:28:58.219Z</time>
      </trkpt>
      <trkpt lat="43.07287" lon="0.54195">
        <ele>487.91044</ele>
        <time>2021-04-18T07:29:01.206Z</time>
      </trkpt>
      <trkpt lat="43.073" lon="0.54194">
        <ele>488.140931</ele>
        <time>2021-04-18T07:29:04.189Z</time>
      </trkpt>
      <trkpt lat="43.07311" lon="0.54192">
        <ele>488.342463</ele>
        <time>2021-04-18T07:29:07.168Z</time>
      </trkpt>
      <trkpt lat="43.07322" lon="0.54195">
        <ele>488.547685</ele>
        <time>2021-04-18T07:29:10.164Z</time>
      </trkpt>
      <trkpt lat="43.0733" lon="0.542">
        <ele>488.714017</ele>
        <time>2021-04-18T07:29:12.170Z</time>
      </trkpt>
      <trkpt lat="43.07342" lon="0.54206">
        <ele>488.952029</ele>
        <time>2021-04-18T07:29:15.184Z</time>
      </trkpt>
      <trkpt lat="43.07355" lon="0.54209">
        <ele>489.176976</ele>
        <time>2021-04-18T07:29:18.186Z</time>
      </trkpt>
      <trkpt lat="43.07367" lon="0.5421">
        <ele>489.401881</ele>
        <time>2021-04-18T07:29:21.184Z</time>
      </trkpt>
      <trkpt lat="43.07379" lon="0.5421">
        <ele>489.628533</ele>
        <time>2021-04-18T07:29:24.175Z</time>
      </trkpt>
      <trkpt lat="43.07391" lon="0.5421">
        <ele>489.842535</ele>
        <time>2021-04-18T07:29:27.183Z</time>
      </trkpt>
      <trkpt lat="43.074" lon="0.54209">
        <ele>490.012561</ele>
        <time>2021-04-18T07:29:30.208Z</time>
      </trkpt>
      <trkpt lat="43.0741" lon="0.54208">
        <ele>490.197936</ele>
        <time>2021-04-18T07:29:33.181Z</time>
      </trkpt>
      <trkpt lat="43.07421" lon="0.54205">
        <ele>490.389459</ele>
        <time>2021-04-18T07:29:36.161Z</time>
      </trkpt>
      <trkpt lat="43.0743" lon="0.542">
        <ele>490.568147</ele>
        <time>2021-04-18T07:29:39.181Z</time>
      </trkpt>
      <trkpt lat="43.07438" lon="0.54193">
        <ele>490.744901</ele>
        <time>2021-04-18T07:29:42.213Z</time>
      </trkpt>
      <trkpt lat="43.07447" lon="0.54187">
        <ele>490.92413</ele>
        <time>2021-04-18T07:29:45.210Z</time>
      </trkpt>
      <trkpt lat="43.07457" lon="0.54182">
        <ele>491.126428</ele>
        <time>2021-04-18T07:29:49.212Z</time>
      </trkpt>
      <trkpt lat="43.07467" lon="0.54177">
        <ele>491.320496</ele>
        <time>2021-04-18T07:29:53.186Z</time>
      </trkpt>
      <trkpt lat="43.07476" lon="0.54172">
        <ele>491.496433</ele>
        <time>2021-04-18T07:29:57.178Z</time>
      </trkpt>
      <trkpt lat="43.07484" lon="0.54166">
        <ele>491.679553</ele>
        <time>2021-04-18T07:30:01.179Z</time>
      </trkpt>
      <trkpt lat="43.07492" lon="0.54159">
        <ele>491.853534</ele>
        <time>2021-04-18T07:30:05.189Z</time>
      </trkpt>
      <trkpt lat="43.07498" lon="0.54149">
        <ele>492.021456</ele>
        <time>2021-04-18T07:30:09.175Z</time>
      </trkpt>
      <trkpt lat="43.07502" lon="0.54137">
        <ele>492.206706</ele>
        <time>2021-04-18T07:30:13.207Z</time>
      </trkpt>
      <trkpt lat="43.07506" lon="0.54123">
        <ele>492.399048</ele>
        <time>2021-04-18T07:30:18.184Z</time>
      </trkpt>
      <trkpt lat="43.07511" lon="0.5411">
        <ele>492.60424</ele>
        <time>2021-04-18T07:30:23.170Z</time>
      </trkpt>
      <trkpt lat="43.07514" lon="0.54098">
        <ele>492.774765</ele>
        <time>2021-04-18T07:30:27.167Z</time>
      </trkpt>
      <trkpt lat="43.07518" lon="0.54084">
        <ele>492.970316</ele>
        <time>2021-04-18T07:30:31.180Z</time>
      </trkpt>
      <trkpt lat="43.07523" lon="0.5407">
        <ele>493.183175</ele>
        <time>2021-04-18T07:30:36.171Z</time>
      </trkpt>
      <trkpt lat="43.07527" lon="0.54056">
        <ele>493.383567</ele>
        <time>2021-04-18T07:30:40.210Z</time>
      </trkpt>
      <trkpt lat="43.07528" lon="0.54042">
        <ele>493.568039</ele>
        <time>2021-04-18T07:30:44.178Z</time>
      </trkpt>
      <trkpt lat="43.0753" lon="0.5403">
        <ele>493.735013</ele>
        <time>2021-04-18T07:30:47.179Z</time>
      </trkpt>
      <trkpt lat="43.07535" lon="0.54015">
        <ele>493.956024</ele>
        <time>2021-04-18T07:30:51.185Z</time>
      </trkpt>
      <trkpt lat="43.07538" lon="0.54004">
        <ele>494.127599</ele>
        <time>2021-04-18T07:30:54.173Z</time>
      </trkpt>
      <trkpt lat="43.07543" lon="0.53992">
        <ele>494.301293</ele>
        <time>2021-04-18T07:30:57.158Z</time>
      </trkpt>
      <trkpt lat="43.07547" lon="0.53981">
        <ele>494.627599</ele>
        <time>2021-04-18T07:31:00.186Z</time>
      </trkpt>
      <trkpt lat="43.07553" lon="0.53968">
        <ele>495.39734</ele>
        <time>2021-04-18T07:31:04.181Z</time>
      </trkpt>
      <trkpt lat="43.07559" lon="0.53955">
        <ele>496.11949</ele>
        <time>2021-04-18T07:31:08.177Z</time>
      </trkpt>
      <trkpt lat="43.07564" lon="0.53943">
        <ele>496.786576</ele>
        <time>2021-04-18T07:31:12.178Z</time>
      </trkpt>
      <trkpt lat="43.07569" lon="0.5393">
        <ele>497.473866</ele>
        <time>2021-04-18T07:31:16.178Z</time>
      </trkpt>
      <trkpt lat="43.07572" lon="0.53919">
        <ele>498.095993</ele>
        <time>2021-04-18T07:31:20.179Z</time>
      </trkpt>
      <trkpt lat="43.07575" lon="0.53907">
        <ele>498.692197</ele>
        <time>2021-04-18T07:31:24.177Z</time>
      </trkpt>
      <trkpt lat="43.07579" lon="0.53895">
        <ele>499.321406</ele>
        <time>2021-04-18T07:31:28.207Z</time>
      </trkpt>
      <trkpt lat="43.07584" lon="0.53882">
        <ele>500.019808</ele>
        <time>2021-04-18T07:31:33.209Z</time>
      </trkpt>
      <trkpt lat="43.07589" lon="0.53871">
        <ele>500.64815</ele>
        <time>2021-04-18T07:31:38.166Z</time>
      </trkpt>
      <trkpt lat="43.07595" lon="0.53861">
        <ele>501.322946</ele>
        <time>2021-04-18T07:31:43.151Z</time>
      </trkpt>
      <trkpt lat="43.076" lon="0.53849">
        <ele>501.963011</ele>
        <time>2021-04-18T07:31:48.166Z</time>
      </trkpt>
      <trkpt lat="43.07604" lon="0.53837">
        <ele>502.610879</ele>
        <time>2021-04-18T07:31:54.192Z</time>
      </trkpt>
      <trkpt lat="43.07608" lon="0.53824">
        <ele>503.264202</ele>
        <time>2021-04-18T07:31:59.162Z</time>
      </trkpt>
      <trkpt lat="43.07611" lon="0.53811">
        <ele>503.942574</ele>
        <time>2021-04-18T07:32:04.159Z</time>
      </trkpt>
      <trkpt lat="43.07612" lon="0.53799">
        <ele>504.564434</ele>
        <time>2021-04-18T07:32:09.172Z</time>
      </trkpt>
      <trkpt lat="43.07612" lon="0.53786">
        <ele>505.1847</ele>
        <time>2021-04-18T07:32:13.167Z</time>
      </trkpt>
      <trkpt lat="43.07611" lon="0.53772">
        <ele>505.873226</ele>
        <time>2021-04-18T07:32:17.161Z</time>
      </trkpt>
      <trkpt lat="43.07609" lon="0.53759">
        <ele>506.505805</ele>
        <time>2021-04-18T07:32:21.215Z</time>
      </trkpt>
      <trkpt lat="43.07608" lon="0.53745">
        <ele>507.24932</ele>
        <time>2021-04-18T07:32:26.173Z</time>
      </trkpt>
      <trkpt lat="43.07607" lon="0.53732">
        <ele>507.886011</ele>
        <time>2021-04-18T07:32:30.156Z</time>
      </trkpt>
      <trkpt lat="43.07608" lon="0.53719">
        <ele>508.54572</ele>
        <time>2021-04-18T07:32:34.179Z</time>
      </trkpt>
      <trkpt lat="43.07615" lon="0.53709">
        <ele>509.251802</ele>
        <time>2021-04-18T07:32:39.159Z</time>
      </trkpt>
      <trkpt lat="43.07624" lon="0.53707">
        <ele>509.891397</ele>
        <time>2021-04-18T07:32:44.169Z</time>
      </trkpt>
      <trkpt lat="43.07633" lon="0.53708">
        <ele>510.535021</ele>
        <time>2021-04-18T07:32:48.176Z</time>
      </trkpt>
      <trkpt lat="43.07641" lon="0.53715">
        <ele>511.204817</ele>
        <time>2021-04-18T07:32:52.151Z</time>
      </trkpt>
      <trkpt lat="43.07643" lon="0.53729">
        <ele>511.946229</ele>
        <time>2021-04-18T07:32:57.165Z</time>
      </trkpt>
      <trkpt lat="43.07642" lon="0.53742">
        <ele>512.604091</ele>
        <time>2021-04-18T07:33:02.176Z</time>
      </trkpt>
      <trkpt lat="43.07646" lon="0.53755">
        <ele>513.320052</ele>
        <time>2021-04-18T07:33:07.172Z</time>
      </trkpt>
      <trkpt lat="43.07655" lon="0.53763">
        <ele>514.047449</ele>
        <time>2021-04-18T07:33:12.180Z</time>
      </trkpt>
      <trkpt lat="43.07664" lon="0.53758">
        <ele>514.716054</ele>
        <time>2021-04-18T07:33:17.171Z</time>
      </trkpt>
      <trkpt lat="43.07673" lon="0.53754">
        <ele>515.432391</ele>
        <time>2021-04-18T07:33:22.181Z</time>
      </trkpt>
      <trkpt lat="43.07684" lon="0.53752">
        <ele>516.179064</ele>
        <time>2021-04-18T07:33:28.157Z</time>
      </trkpt>
      <trkpt lat="43.07693" lon="0.53749">
        <ele>516.824804</ele>
        <time>2021-04-18T07:33:33.164Z</time>
      </trkpt>
      <trkpt lat="43.07702" lon="0.53746">
        <ele>517.505929</ele>
        <time>2021-04-18T07:33:38.171Z</time>
      </trkpt>
      <trkpt lat="43.07714" lon="0.53742">
        <ele>518.31115</ele>
        <time>2021-04-18T07:33:42.187Z</time>
      </trkpt>
      <trkpt lat="43.07725" lon="0.5374">
        <ele>519.019691</ele>
        <time>2021-04-18T07:33:46.176Z</time>
      </trkpt>
      <trkpt lat="43.07734" lon="0.53736">
        <ele>519.408675</ele>
        <time>2021-04-18T07:33:50.186Z</time>
      </trkpt>
      <trkpt lat="43.07744" lon="0.53731">
        <ele>519.846805</ele>
        <time>2021-04-18T07:33:54.181Z</time>
      </trkpt>
      <trkpt lat="43.07754" lon="0.53726">
        <ele>520.2734</ele>
        <time>2021-04-18T07:33:58.208Z</time>
      </trkpt>
      <trkpt lat="43.07765" lon="0.53721">
        <ele>520.728233</ele>
        <time>2021-04-18T07:34:02.174Z</time>
      </trkpt>
      <trkpt lat="43.07774" lon="0.53715">
        <ele>521.16392</ele>
        <time>2021-04-18T07:34:06.201Z</time>
      </trkpt>
      <trkpt lat="43.07784" lon="0.53709">
        <ele>521.589722</ele>
        <time>2021-04-18T07:34:10.179Z</time>
      </trkpt>
      <trkpt lat="43.07793" lon="0.53703">
        <ele>521.982261</ele>
        <time>2021-04-18T07:34:14.176Z</time>
      </trkpt>
      <trkpt lat="43.07803" lon="0.53697">
        <ele>522.425754</ele>
        <time>2021-04-18T07:34:19.186Z</time>
      </trkpt>
      <trkpt lat="43.07812" lon="0.53693">
        <ele>522.81293</ele>
        <time>2021-04-18T07:34:23.181Z</time>
      </trkpt>
      <trkpt lat="43.07821" lon="0.53688">
        <ele>523.225908</ele>
        <time>2021-04-18T07:34:28.179Z</time>
      </trkpt>
      <trkpt lat="43.0783" lon="0.53683">
        <ele>523.610978</ele>
        <time>2021-04-18T07:34:32.178Z</time>
      </trkpt>
      <trkpt lat="43.07839" lon="0.53677">
        <ele>524.002254</ele>
        <time>2021-04-18T07:34:36.175Z</time>
      </trkpt>
      <trkpt lat="43.07847" lon="0.53671">
        <ele>524.397063</ele>
        <time>2021-04-18T07:34:40.183Z</time>
      </trkpt>
      <trkpt lat="43.07855" lon="0.53664">
        <ele>524.80018</ele>
        <time>2021-04-18T07:34:44.185Z</time>
      </trkpt>
      <trkpt lat="43.07864" lon="0.53656">
        <ele>525.211745</ele>
        <time>2021-04-18T07:34:48.188Z</time>
      </trkpt>
      <trkpt lat="43.07873" lon="0.53649">
        <ele>525.627037</ele>
        <time>2021-04-18T07:34:52.177Z</time>
      </trkpt>
      <trkpt lat="43.07881" lon="0.53641">
        <ele>526.043492</ele>
        <time>2021-04-18T07:34:56.171Z</time>
      </trkpt>
      <trkpt lat="43.07889" lon="0.53634">
        <ele>526.477101</ele>
        <time>2021-04-18T07:35:00.185Z</time>
      </trkpt>
      <trkpt lat="43.07896" lon="0.53627">
        <ele>526.939601</ele>
        <time>2021-04-18T07:35:04.200Z</time>
      </trkpt>
      <trkpt lat="43.07904" lon="0.5362">
        <ele>527.431541</ele>
        <time>2021-04-18T07:35:08.195Z</time>
      </trkpt>
      <trkpt lat="43.07913" lon="0.53611">
        <ele>527.984613</ele>
        <time>2021-04-18T07:35:13.202Z</time>
      </trkpt>
      <trkpt lat="43.07921" lon="0.53602">
        <ele>528.520113</ele>
        <time>2021-04-18T07:35:18.179Z</time>
      </trkpt>
      <trkpt lat="43.0793" lon="0.53594">
        <ele>529.075113</ele>
        <time>2021-04-18T07:35:23.168Z</time>
      </trkpt>
      <trkpt lat="43.07938" lon="0.53586">
        <ele>529.554462</ele>
        <time>2021-04-18T07:35:27.168Z</time>
      </trkpt>
      <trkpt lat="43.07946" lon="0.53579">
        <ele>530.023368</ele>
        <time>2021-04-18T07:35:31.209Z</time>
      </trkpt>
      <trkpt lat="43.07954" lon="0.53573">
        <ele>530.522499</ele>
        <time>2021-04-18T07:35:35.179Z</time>
      </trkpt>
      <trkpt lat="43.07963" lon="0.53565">
        <ele>531.060732</ele>
        <time>2021-04-18T07:35:39.171Z</time>
      </trkpt>
      <trkpt lat="43.07972" lon="0.53556">
        <ele>531.598913</ele>
        <time>2021-04-18T07:35:43.216Z</time>
      </trkpt>
      <trkpt lat="43.0798" lon="0.53549">
        <ele>532.116898</ele>
        <time>2021-04-18T07:35:47.163Z</time>
      </trkpt>
      <trkpt lat="43.07989" lon="0.53543">
        <ele>532.597836</ele>
        <time>2021-04-18T07:35:51.185Z</time>
      </trkpt>
      <trkpt lat="43.07998" lon="0.53536">
        <ele>533.123645</ele>
        <time>2021-04-18T07:35:55.195Z</time>
      </trkpt>
      <trkpt lat="43.08007" lon="0.53529">
        <ele>533.657795</ele>
        <time>2021-04-18T07:35:59.166Z</time>
      </trkpt>
      <trkpt lat="43.08015" lon="0.5352">
        <ele>534.20018</ele>
        <time>2021-04-18T07:36:03.174Z</time>
      </trkpt>
      <trkpt lat="43.08024" lon="0.53513">
        <ele>534.696536</ele>
        <time>2021-04-18T07:36:07.172Z</time>
      </trkpt>
      <trkpt lat="43.08032" lon="0.53504">
        <ele>535.256213</ele>
        <time>2021-04-18T07:36:12.182Z</time>
      </trkpt>
      <trkpt lat="43.08041" lon="0.53498">
        <ele>535.631447</ele>
        <time>2021-04-18T07:36:16.199Z</time>
      </trkpt>
      <trkpt lat="43.08049" lon="0.53491">
        <ele>535.9706</ele>
        <time>2021-04-18T07:36:20.223Z</time>
      </trkpt>
      <trkpt lat="43.08057" lon="0.53483">
        <ele>536.313412</ele>
        <time>2021-04-18T07:36:24.169Z</time>
      </trkpt>
      <trkpt lat="43.08066" lon="0.53475">
        <ele>536.687669</ele>
        <time>2021-04-18T07:36:28.177Z</time>
      </trkpt>
      <trkpt lat="43.08075" lon="0.53465">
        <ele>537.076206</ele>
        <time>2021-04-18T07:36:32.178Z</time>
      </trkpt>
      <trkpt lat="43.08083" lon="0.53455">
        <ele>537.456971</ele>
        <time>2021-04-18T07:36:36.183Z</time>
      </trkpt>
      <trkpt lat="43.0809" lon="0.53445">
        <ele>537.814632</ele>
        <time>2021-04-18T07:36:40.182Z</time>
      </trkpt>
      <trkpt lat="43.08098" lon="0.53435">
        <ele>538.181382</ele>
        <time>2021-04-18T07:36:44.212Z</time>
      </trkpt>
      <trkpt lat="43.08106" lon="0.53424">
        <ele>538.564787</ele>
        <time>2021-04-18T07:36:48.190Z</time>
      </trkpt>
      <trkpt lat="43.08114" lon="0.53415">
        <ele>538.934502</ele>
        <time>2021-04-18T07:36:52.195Z</time>
      </trkpt>
      <trkpt lat="43.08122" lon="0.53404">
        <ele>539.336728</ele>
        <time>2021-04-18T07:36:56.185Z</time>
      </trkpt>
      <trkpt lat="43.08131" lon="0.53393">
        <ele>539.759419</ele>
        <time>2021-04-18T07:37:00.184Z</time>
      </trkpt>
      <trkpt lat="43.08139" lon="0.53383">
        <ele>540.118999</ele>
        <time>2021-04-18T07:37:03.206Z</time>
      </trkpt>
      <trkpt lat="43.08146" lon="0.53372">
        <ele>540.494243</ele>
        <time>2021-04-18T07:37:06.223Z</time>
      </trkpt>
      <trkpt lat="43.08154" lon="0.53362">
        <ele>540.875903</ele>
        <time>2021-04-18T07:37:09.178Z</time>
      </trkpt>
      <trkpt lat="43.08162" lon="0.53352">
        <ele>541.246506</ele>
        <time>2021-04-18T07:37:12.206Z</time>
      </trkpt>
      <trkpt lat="43.08169" lon="0.53343">
        <ele>541.588002</ele>
        <time>2021-04-18T07:37:15.183Z</time>
      </trkpt>
      <trkpt lat="43.08176" lon="0.53333">
        <ele>541.532075</ele>
        <time>2021-04-18T07:37:18.185Z</time>
      </trkpt>
      <trkpt lat="43.08183" lon="0.53323">
        <ele>541.41954</ele>
        <time>2021-04-18T07:37:21.160Z</time>
      </trkpt>
      <trkpt lat="43.08191" lon="0.53312">
        <ele>541.290358</ele>
        <time>2021-04-18T07:37:25.183Z</time>
      </trkpt>
      <trkpt lat="43.082" lon="0.53301">
        <ele>541.157763</ele>
        <time>2021-04-18T07:37:29.173Z</time>
      </trkpt>
      <trkpt lat="43.08206" lon="0.53291">
        <ele>541.05146</ele>
        <time>2021-04-18T07:37:32.206Z</time>
      </trkpt>
      <trkpt lat="43.08213" lon="0.53281">
        <ele>540.940226</ele>
        <time>2021-04-18T07:37:35.174Z</time>
      </trkpt>
      <trkpt lat="43.0822" lon="0.53271">
        <ele>540.822228</ele>
        <time>2021-04-18T07:37:38.187Z</time>
      </trkpt>
      <trkpt lat="43.08227" lon="0.53262">
        <ele>540.716263</ele>
        <time>2021-04-18T07:37:41.187Z</time>
      </trkpt>
      <trkpt lat="43.08234" lon="0.53253">
        <ele>540.609888</ele>
        <time>2021-04-18T07:37:44.186Z</time>
      </trkpt>
      <trkpt lat="43.08242" lon="0.53241">
        <ele>540.473767</ele>
        <time>2021-04-18T07:37:48.185Z</time>
      </trkpt>
      <trkpt lat="43.08249" lon="0.53231">
        <ele>540.36449</ele>
        <time>2021-04-18T07:37:51.203Z</time>
      </trkpt>
      <trkpt lat="43.08256" lon="0.53222">
        <ele>540.257994</ele>
        <time>2021-04-18T07:37:54.216Z</time>
      </trkpt>
      <trkpt lat="43.08263" lon="0.53212">
        <ele>540.143304</ele>
        <time>2021-04-18T07:37:57.215Z</time>
      </trkpt>
      <trkpt lat="43.0827" lon="0.53202">
        <ele>540.032331</ele>
        <time>2021-04-18T07:38:00.165Z</time>
      </trkpt>
      <trkpt lat="43.08276" lon="0.53193">
        <ele>539.927778</ele>
        <time>2021-04-18T07:38:03.182Z</time>
      </trkpt>
      <trkpt lat="43.08285" lon="0.53183">
        <ele>539.80353</ele>
        <time>2021-04-18T07:38:07.183Z</time>
      </trkpt>
      <trkpt lat="43.08291" lon="0.53174">
        <ele>539.703071</ele>
        <time>2021-04-18T07:38:10.161Z</time>
      </trkpt>
      <trkpt lat="43.08296" lon="0.53163">
        <ele>539.595683</ele>
        <time>2021-04-18T07:38:13.167Z</time>
      </trkpt>
      <trkpt lat="43.08298" lon="0.53148">
        <ele>539.457954</ele>
        <time>2021-04-18T07:38:17.169Z</time>
      </trkpt>
      <trkpt lat="43.08301" lon="0.53134">
        <ele>539.325689</ele>
        <time>2021-04-18T07:38:21.185Z</time>
      </trkpt>
      <trkpt lat="43.08302" lon="0.53117">
        <ele>539.17933</ele>
        <time>2021-04-18T07:38:25.159Z</time>
      </trkpt>
      <trkpt lat="43.08304" lon="0.53104">
        <ele>539.062632</ele>
        <time>2021-04-18T07:38:28.175Z</time>
      </trkpt>
      <trkpt lat="43.08306" lon="0.53091">
        <ele>538.942814</ele>
        <time>2021-04-18T07:38:31.180Z</time>
      </trkpt>
      <trkpt lat="43.08308" lon="0.53076">
        <ele>538.802403</ele>
        <time>2021-04-18T07:38:34.157Z</time>
      </trkpt>
      <trkpt lat="43.08309" lon="0.53057">
        <ele>538.634466</ele>
        <time>2021-04-18T07:38:37.177Z</time>
      </trkpt>
      <trkpt lat="43.0831" lon="0.53044">
        <ele>538.520684</ele>
        <time>2021-04-18T07:38:39.198Z</time>
      </trkpt>
      <trkpt lat="43.0831" lon="0.53032">
        <ele>538.409844</ele>
        <time>2021-04-18T07:38:41.178Z</time>
      </trkpt>
      <trkpt lat="43.08312" lon="0.53015">
        <ele>538.258916</ele>
        <time>2021-04-18T07:38:44.187Z</time>
      </trkpt>
      <trkpt lat="43.08312" lon="0.52999">
        <ele>538.117715</ele>
        <time>2021-04-18T07:38:47.193Z</time>
      </trkpt>
      <trkpt lat="43.08312" lon="0.52984">
        <ele>537.981006</ele>
        <time>2021-04-18T07:38:50.183Z</time>
      </trkpt>
      <trkpt lat="43.08312" lon="0.5297">
        <ele>537.853253</ele>
        <time>2021-04-18T07:38:53.185Z</time>
      </trkpt>
      <trkpt lat="43.08311" lon="0.52956">
        <ele>537.730805</ele>
        <time>2021-04-18T07:38:56.175Z</time>
      </trkpt>
      <trkpt lat="43.0831" lon="0.52942">
        <ele>537.600436</ele>
        <time>2021-04-18T07:38:59.185Z</time>
      </trkpt>
      <trkpt lat="43.08309" lon="0.52925">
        <ele>537.45529</ele>
        <time>2021-04-18T07:39:02.198Z</time>
      </trkpt>
      <trkpt lat="43.08309" lon="0.52909">
        <ele>537.584087</ele>
        <time>2021-04-18T07:39:05.179Z</time>
      </trkpt>
      <trkpt lat="43.08308" lon="0.52894">
        <ele>537.795032</ele>
        <time>2021-04-18T07:39:08.168Z</time>
      </trkpt>
      <trkpt lat="43.08307" lon="0.52878">
        <ele>538.000934</ele>
        <time>2021-04-18T07:39:11.179Z</time>
      </trkpt>
      <trkpt lat="43.08305" lon="0.52861">
        <ele>538.238095</ele>
        <time>2021-04-18T07:39:14.185Z</time>
      </trkpt>
      <trkpt lat="43.08303" lon="0.52849">
        <ele>538.403538</ele>
        <time>2021-04-18T07:39:16.178Z</time>
      </trkpt>
      <trkpt lat="43.083" lon="0.52832">
        <ele>538.63144</ele>
        <time>2021-04-18T07:39:19.211Z</time>
      </trkpt>
      <trkpt lat="43.08296" lon="0.52817">
        <ele>538.859997</ele>
        <time>2021-04-18T07:39:22.226Z</time>
      </trkpt>
      <trkpt lat="43.08292" lon="0.528">
        <ele>539.093617</ele>
        <time>2021-04-18T07:39:25.173Z</time>
      </trkpt>
      <trkpt lat="43.08287" lon="0.52784">
        <ele>539.325344</ele>
        <time>2021-04-18T07:39:28.229Z</time>
      </trkpt>
      <trkpt lat="43.08283" lon="0.5277">
        <ele>539.539686</ele>
        <time>2021-04-18T07:39:31.169Z</time>
      </trkpt>
      <trkpt lat="43.08279" lon="0.52755">
        <ele>539.744857</ele>
        <time>2021-04-18T07:39:34.185Z</time>
      </trkpt>
      <trkpt lat="43.08276" lon="0.52741">
        <ele>539.93895</ele>
        <time>2021-04-18T07:39:37.209Z</time>
      </trkpt>
      <trkpt lat="43.08273" lon="0.52729">
        <ele>540.110792</ele>
        <time>2021-04-18T07:39:40.178Z</time>
      </trkpt>
      <trkpt lat="43.08271" lon="0.52716">
        <ele>540.286508</ele>
        <time>2021-04-18T07:39:43.180Z</time>
      </trkpt>
      <trkpt lat="43.0827" lon="0.52703">
        <ele>540.470585</ele>
        <time>2021-04-18T07:39:46.183Z</time>
      </trkpt>
      <trkpt lat="43.08268" lon="0.52688">
        <ele>540.679469</ele>
        <time>2021-04-18T07:39:49.178Z</time>
      </trkpt>
      <trkpt lat="43.08265" lon="0.52673">
        <ele>540.950681</ele>
        <time>2021-04-18T07:39:52.176Z</time>
      </trkpt>
      <trkpt lat="43.08264" lon="0.52658">
        <ele>541.232935</ele>
        <time>2021-04-18T07:39:55.208Z</time>
      </trkpt>
      <trkpt lat="43.08263" lon="0.52643">
        <ele>541.516024</ele>
        <time>2021-04-18T07:39:58.224Z</time>
      </trkpt>
      <trkpt lat="43.08262" lon="0.52628">
        <ele>541.803418</ele>
        <time>2021-04-18T07:40:01.177Z</time>
      </trkpt>
      <trkpt lat="43.08261" lon="0.52613">
        <ele>542.094156</ele>
        <time>2021-04-18T07:40:05.199Z</time>
      </trkpt>
      <trkpt lat="43.08261" lon="0.52597">
        <ele>542.410798</ele>
        <time>2021-04-18T07:40:09.163Z</time>
      </trkpt>
      <trkpt lat="43.08261" lon="0.52583">
        <ele>542.675639</ele>
        <time>2021-04-18T07:40:12.190Z</time>
      </trkpt>
      <trkpt lat="43.0826" lon="0.52568">
        <ele>542.961877</ele>
        <time>2021-04-18T07:40:15.203Z</time>
      </trkpt>
      <trkpt lat="43.0826" lon="0.52554">
        <ele>543.24266</ele>
        <time>2021-04-18T07:40:18.179Z</time>
      </trkpt>
      <trkpt lat="43.08258" lon="0.52538">
        <ele>543.536665</ele>
        <time>2021-04-18T07:40:21.189Z</time>
      </trkpt>
      <trkpt lat="43.08257" lon="0.52522">
        <ele>543.855436</ele>
        <time>2021-04-18T07:40:24.214Z</time>
      </trkpt>
      <trkpt lat="43.08255" lon="0.52506">
        <ele>544.163816</ele>
        <time>2021-04-18T07:40:27.177Z</time>
      </trkpt>
      <trkpt lat="43.08254" lon="0.5249">
        <ele>544.467946</ele>
        <time>2021-04-18T07:40:30.188Z</time>
      </trkpt>
      <trkpt lat="43.08253" lon="0.52474">
        <ele>544.783764</ele>
        <time>2021-04-18T07:40:33.185Z</time>
      </trkpt>
      <trkpt lat="43.08253" lon="0.52457">
        <ele>545.106548</ele>
        <time>2021-04-18T07:40:36.184Z</time>
      </trkpt>
      <trkpt lat="43.08252" lon="0.52441">
        <ele>545.417478</ele>
        <time>2021-04-18T07:40:39.184Z</time>
      </trkpt>
      <trkpt lat="43.08253" lon="0.52423">
        <ele>545.721178</ele>
        <time>2021-04-18T07:40:42.181Z</time>
      </trkpt>
      <trkpt lat="43.08252" lon="0.52405">
        <ele>546.012761</ele>
        <time>2021-04-18T07:40:45.172Z</time>
      </trkpt>
      <trkpt lat="43.08253" lon="0.52388">
        <ele>546.28159</ele>
        <time>2021-04-18T07:40:48.181Z</time>
      </trkpt>
      <trkpt lat="43.08253" lon="0.52372">
        <ele>546.537345</ele>
        <time>2021-04-18T07:40:51.211Z</time>
      </trkpt>
      <trkpt lat="43.08252" lon="0.52358">
        <ele>546.770941</ele>
        <time>2021-04-18T07:40:54.189Z</time>
      </trkpt>
      <trkpt lat="43.08252" lon="0.52344">
        <ele>547.000607</ele>
        <time>2021-04-18T07:40:57.188Z</time>
      </trkpt>
      <trkpt lat="43.08252" lon="0.52329">
        <ele>547.24655</ele>
        <time>2021-04-18T07:41:00.186Z</time>
      </trkpt>
      <trkpt lat="43.08253" lon="0.52312">
        <ele>547.522389</ele>
        <time>2021-04-18T07:41:03.226Z</time>
      </trkpt>
      <trkpt lat="43.08253" lon="0.52295">
        <ele>547.800943</ele>
        <time>2021-04-18T07:41:06.177Z</time>
      </trkpt>
      <trkpt lat="43.08254" lon="0.52279">
        <ele>548.06689</ele>
        <time>2021-04-18T07:41:09.175Z</time>
      </trkpt>
      <trkpt lat="43.08254" lon="0.52262">
        <ele>548.33424</ele>
        <time>2021-04-18T07:41:12.167Z</time>
      </trkpt>
      <trkpt lat="43.08254" lon="0.52247">
        <ele>548.58344</ele>
        <time>2021-04-18T07:41:15.177Z</time>
      </trkpt>
      <trkpt lat="43.08254" lon="0.5223">
        <ele>548.857399</ele>
        <time>2021-04-18T07:41:18.184Z</time>
      </trkpt>
      <trkpt lat="43.08253" lon="0.52217">
        <ele>549.066845</ele>
        <time>2021-04-18T07:41:20.178Z</time>
      </trkpt>
      <trkpt lat="43.08252" lon="0.522">
        <ele>549.355834</ele>
        <time>2021-04-18T07:41:23.177Z</time>
      </trkpt>
      <trkpt lat="43.08251" lon="0.52183">
        <ele>549.398163</ele>
        <time>2021-04-18T07:41:26.193Z</time>
      </trkpt>
      <trkpt lat="43.08251" lon="0.52167">
        <ele>549.268722</ele>
        <time>2021-04-18T07:41:29.180Z</time>
      </trkpt>
      <trkpt lat="43.08251" lon="0.52154">
        <ele>549.1635</ele>
        <time>2021-04-18T07:41:32.171Z</time>
      </trkpt>
      <trkpt lat="43.08251" lon="0.5214">
        <ele>549.056712</ele>
        <time>2021-04-18T07:41:35.177Z</time>
      </trkpt>
      <trkpt lat="43.08251" lon="0.52128">
        <ele>548.952351</ele>
        <time>2021-04-18T07:41:38.184Z</time>
      </trkpt>
      <trkpt lat="43.08251" lon="0.52114">
        <ele>548.840708</ele>
        <time>2021-04-18T07:41:41.181Z</time>
      </trkpt>
      <trkpt lat="43.08251" lon="0.52099">
        <ele>548.725016</ele>
        <time>2021-04-18T07:41:44.169Z</time>
      </trkpt>
      <trkpt lat="43.0825" lon="0.52086">
        <ele>548.618754</ele>
        <time>2021-04-18T07:41:47.220Z</time>
      </trkpt>
      <trkpt lat="43.0825" lon="0.52072">
        <ele>548.503854</ele>
        <time>2021-04-18T07:41:50.181Z</time>
      </trkpt>
      <trkpt lat="43.08249" lon="0.52058">
        <ele>548.386179</ele>
        <time>2021-04-18T07:41:53.192Z</time>
      </trkpt>
      <trkpt lat="43.08248" lon="0.5204">
        <ele>548.242969</ele>
        <time>2021-04-18T07:41:56.167Z</time>
      </trkpt>
      <trkpt lat="43.08249" lon="0.52027">
        <ele>548.14101</ele>
        <time>2021-04-18T07:41:58.178Z</time>
      </trkpt>
      <trkpt lat="43.08249" lon="0.52009">
        <ele>547.992698</ele>
        <time>2021-04-18T07:42:01.207Z</time>
      </trkpt>
      <trkpt lat="43.0825" lon="0.51992">
        <ele>547.850206</ele>
        <time>2021-04-18T07:42:04.187Z</time>
      </trkpt>
      <trkpt lat="43.0825" lon="0.51975">
        <ele>547.719915</ele>
        <time>2021-04-18T07:42:07.173Z</time>
      </trkpt>
      <trkpt lat="43.08252" lon="0.51959">
        <ele>547.586202</ele>
        <time>2021-04-18T07:42:10.165Z</time>
      </trkpt>
      <trkpt lat="43.08253" lon="0.51945">
        <ele>547.50543</ele>
        <time>2021-04-18T07:42:13.183Z</time>
      </trkpt>
      <trkpt lat="43.08254" lon="0.51928">
        <ele>547.69902</ele>
        <time>2021-04-18T07:42:16.173Z</time>
      </trkpt>
      <trkpt lat="43.08256" lon="0.5191">
        <ele>547.904282</ele>
        <time>2021-04-18T07:42:19.182Z</time>
      </trkpt>
      <trkpt lat="43.08258" lon="0.51893">
        <ele>548.095036</ele>
        <time>2021-04-18T07:42:22.177Z</time>
      </trkpt>
      <trkpt lat="43.08259" lon="0.51878">
        <ele>548.270786</ele>
        <time>2021-04-18T07:42:25.225Z</time>
      </trkpt>
      <trkpt lat="43.0826" lon="0.51863">
        <ele>548.439316</ele>
        <time>2021-04-18T07:42:28.161Z</time>
      </trkpt>
      <trkpt lat="43.08261" lon="0.51849">
        <ele>548.599931</ele>
        <time>2021-04-18T07:42:31.187Z</time>
      </trkpt>
      <trkpt lat="43.08262" lon="0.51835">
        <ele>548.761975</ele>
        <time>2021-04-18T07:42:34.184Z</time>
      </trkpt>
      <trkpt lat="43.08263" lon="0.5182">
        <ele>548.928533</ele>
        <time>2021-04-18T07:42:37.184Z</time>
      </trkpt>
      <trkpt lat="43.08263" lon="0.51805">
        <ele>549.099007</ele>
        <time>2021-04-18T07:42:40.189Z</time>
      </trkpt>
      <trkpt lat="43.08264" lon="0.5179">
        <ele>549.26702</ele>
        <time>2021-04-18T07:42:43.180Z</time>
      </trkpt>
      <trkpt lat="43.08265" lon="0.51775">
        <ele>549.440074</ele>
        <time>2021-04-18T07:42:46.191Z</time>
      </trkpt>
      <trkpt lat="43.08265" lon="0.51759">
        <ele>549.617272</ele>
        <time>2021-04-18T07:42:50.185Z</time>
      </trkpt>
      <trkpt lat="43.08266" lon="0.51746">
        <ele>549.766448</ele>
        <time>2021-04-18T07:42:53.208Z</time>
      </trkpt>
      <trkpt lat="43.08266" lon="0.5173">
        <ele>549.953849</ele>
        <time>2021-04-18T07:42:56.193Z</time>
      </trkpt>
      <trkpt lat="43.08267" lon="0.51716">
        <ele>550.115019</ele>
        <time>2021-04-18T07:42:59.181Z</time>
      </trkpt>
      <trkpt lat="43.08267" lon="0.51701">
        <ele>550.280841</ele>
        <time>2021-04-18T07:43:02.167Z</time>
      </trkpt>
      <trkpt lat="43.08269" lon="0.51686">
        <ele>550.598473</ele>
        <time>2021-04-18T07:43:05.195Z</time>
      </trkpt>
      <trkpt lat="43.0827" lon="0.51672">
        <ele>550.871197</ele>
        <time>2021-04-18T07:43:07.216Z</time>
      </trkpt>
      <trkpt lat="43.0827" lon="0.51659">
        <ele>551.156028</ele>
        <time>2021-04-18T07:43:09.200Z</time>
      </trkpt>
      <trkpt lat="43.08271" lon="0.51646">
        <ele>551.412105</ele>
        <time>2021-04-18T07:43:11.210Z</time>
      </trkpt>
      <trkpt lat="43.08271" lon="0.51628">
        <ele>551.778724</ele>
        <time>2021-04-18T07:43:14.209Z</time>
      </trkpt>
      <trkpt lat="43.08272" lon="0.5161">
        <ele>552.146146</ele>
        <time>2021-04-18T07:43:17.213Z</time>
      </trkpt>
      <trkpt lat="43.08273" lon="0.51593">
        <ele>552.503596</ele>
        <time>2021-04-18T07:43:20.203Z</time>
      </trkpt>
      <trkpt lat="43.08274" lon="0.51578">
        <ele>552.804294</ele>
        <time>2021-04-18T07:43:23.188Z</time>
      </trkpt>
      <trkpt lat="43.08277" lon="0.51563">
        <ele>553.12746</ele>
        <time>2021-04-18T07:43:26.166Z</time>
      </trkpt>
      <trkpt lat="43.08277" lon="0.51545">
        <ele>553.48447</ele>
        <time>2021-04-18T07:43:29.186Z</time>
      </trkpt>
      <trkpt lat="43.08278" lon="0.51529">
        <ele>553.812904</ele>
        <time>2021-04-18T07:43:32.210Z</time>
      </trkpt>
      <trkpt lat="43.08279" lon="0.51513">
        <ele>554.150788</ele>
        <time>2021-04-18T07:43:35.187Z</time>
      </trkpt>
      <trkpt lat="43.0828" lon="0.51497">
        <ele>554.477182</ele>
        <time>2021-04-18T07:43:38.180Z</time>
      </trkpt>
      <trkpt lat="43.08281" lon="0.51481">
        <ele>554.802019</ele>
        <time>2021-04-18T07:43:41.176Z</time>
      </trkpt>
      <trkpt lat="43.08282" lon="0.51465">
        <ele>555.125729</ele>
        <time>2021-04-18T07:43:44.177Z</time>
      </trkpt>
      <trkpt lat="43.08283" lon="0.51449">
        <ele>555.213889</ele>
        <time>2021-04-18T07:43:47.177Z</time>
      </trkpt>
      <trkpt lat="43.08284" lon="0.51433">
        <ele>554.969338</ele>
        <time>2021-04-18T07:43:50.191Z</time>
      </trkpt>
      <trkpt lat="43.08284" lon="0.51416">
        <ele>554.715578</ele>
        <time>2021-04-18T07:43:53.197Z</time>
      </trkpt>
      <trkpt lat="43.08286" lon="0.51401">
        <ele>554.48527</ele>
        <time>2021-04-18T07:43:56.187Z</time>
      </trkpt>
      <trkpt lat="43.08286" lon="0.51386">
        <ele>554.248587</ele>
        <time>2021-04-18T07:43:59.184Z</time>
      </trkpt>
      <trkpt lat="43.08286" lon="0.5137">
        <ele>554.016367</ele>
        <time>2021-04-18T07:44:02.174Z</time>
      </trkpt>
      <trkpt lat="43.08287" lon="0.51355">
        <ele>553.781117</ele>
        <time>2021-04-18T07:44:05.180Z</time>
      </trkpt>
      <trkpt lat="43.08287" lon="0.5134">
        <ele>553.556671</ele>
        <time>2021-04-18T07:44:08.186Z</time>
      </trkpt>
      <trkpt lat="43.08288" lon="0.51326">
        <ele>553.345084</ele>
        <time>2021-04-18T07:44:11.189Z</time>
      </trkpt>
      <trkpt lat="43.08289" lon="0.5131">
        <ele>553.10356</ele>
        <time>2021-04-18T07:44:14.185Z</time>
      </trkpt>
      <trkpt lat="43.0829" lon="0.51295">
        <ele>552.868501</ele>
        <time>2021-04-18T07:44:17.183Z</time>
      </trkpt>
      <trkpt lat="43.08291" lon="0.51279">
        <ele>552.63425</ele>
        <time>2021-04-18T07:44:20.208Z</time>
      </trkpt>
      <trkpt lat="43.08291" lon="0.51261">
        <ele>552.359775</ele>
        <time>2021-04-18T07:44:23.192Z</time>
      </trkpt>
      <trkpt lat="43.08291" lon="0.51249">
        <ele>552.170197</ele>
        <time>2021-04-18T07:44:25.186Z</time>
      </trkpt>
      <trkpt lat="43.0829" lon="0.51236">
        <ele>551.982077</ele>
        <time>2021-04-18T07:44:27.177Z</time>
      </trkpt>
      <trkpt lat="43.08289" lon="0.51218">
        <ele>551.707818</ele>
        <time>2021-04-18T07:44:30.211Z</time>
      </trkpt>
      <trkpt lat="43.08288" lon="0.51201">
        <ele>551.401441</ele>
        <time>2021-04-18T07:44:33.178Z</time>
      </trkpt>
      <trkpt lat="43.08287" lon="0.51183">
        <ele>551.072037</ele>
        <time>2021-04-18T07:44:36.173Z</time>
      </trkpt>
      <trkpt lat="43.08285" lon="0.51165">
        <ele>550.73428</ele>
        <time>2021-04-18T07:44:39.172Z</time>
      </trkpt>
      <trkpt lat="43.08284" lon="0.51148">
        <ele>550.395242</ele>
        <time>2021-04-18T07:44:42.192Z</time>
      </trkpt>
      <trkpt lat="43.08282" lon="0.5113">
        <ele>550.059028</ele>
        <time>2021-04-18T07:44:45.203Z</time>
      </trkpt>
      <trkpt lat="43.08281" lon="0.51117">
        <ele>549.822925</ele>
        <time>2021-04-18T07:44:47.177Z</time>
      </trkpt>
      <trkpt lat="43.08281" lon="0.51105">
        <ele>549.583246</ele>
        <time>2021-04-18T07:44:49.188Z</time>
      </trkpt>
      <trkpt lat="43.0828" lon="0.51092">
        <ele>549.347607</ele>
        <time>2021-04-18T07:44:51.189Z</time>
      </trkpt>
      <trkpt lat="43.0828" lon="0.51075">
        <ele>549.02331</ele>
        <time>2021-04-18T07:44:54.175Z</time>
      </trkpt>
      <trkpt lat="43.0828" lon="0.51058">
        <ele>548.712555</ele>
        <time>2021-04-18T07:44:57.185Z</time>
      </trkpt>
      <trkpt lat="43.0828" lon="0.51042">
        <ele>548.395898</ele>
        <time>2021-04-18T07:45:00.204Z</time>
      </trkpt>
      <trkpt lat="43.08281" lon="0.51025">
        <ele>548.082208</ele>
        <time>2021-04-18T07:45:03.182Z</time>
      </trkpt>
      <trkpt lat="43.08282" lon="0.51008">
        <ele>547.765632</ele>
        <time>2021-04-18T07:45:06.181Z</time>
      </trkpt>
      <trkpt lat="43.08285" lon="0.50991">
        <ele>547.431636</ele>
        <time>2021-04-18T07:45:09.181Z</time>
      </trkpt>
      <trkpt lat="43.08287" lon="0.50975">
        <ele>547.126374</ele>
        <time>2021-04-18T07:45:12.171Z</time>
      </trkpt>
      <trkpt lat="43.08291" lon="0.50959">
        <ele>547.029684</ele>
        <time>2021-04-18T07:45:15.178Z</time>
      </trkpt>
      <trkpt lat="43.08295" lon="0.50942">
        <ele>547.227265</ele>
        <time>2021-04-18T07:45:18.177Z</time>
      </trkpt>
      <trkpt lat="43.08299" lon="0.50925">
        <ele>547.413012</ele>
        <time>2021-04-18T07:45:21.210Z</time>
      </trkpt>
      <trkpt lat="43.08301" lon="0.50911">
        <ele>547.573823</ele>
        <time>2021-04-18T07:45:24.183Z</time>
      </trkpt>
      <trkpt lat="43.08305" lon="0.50896">
        <ele>547.752979</ele>
        <time>2021-04-18T07:45:27.184Z</time>
      </trkpt>
      <trkpt lat="43.0831" lon="0.50878">
        <ele>547.963866</ele>
        <time>2021-04-18T07:45:30.177Z</time>
      </trkpt>
      <trkpt lat="43.08312" lon="0.50863">
        <ele>548.124219</ele>
        <time>2021-04-18T07:45:32.183Z</time>
      </trkpt>
      <trkpt lat="43.08314" lon="0.5085">
        <ele>548.275952</ele>
        <time>2021-04-18T07:45:34.203Z</time>
      </trkpt>
      <trkpt lat="43.08317" lon="0.50832">
        <ele>548.474769</ele>
        <time>2021-04-18T07:45:37.213Z</time>
      </trkpt>
      <trkpt lat="43.08319" lon="0.50819">
        <ele>548.622737</ele>
        <time>2021-04-18T07:45:39.191Z</time>
      </trkpt>
      <trkpt lat="43.08322" lon="0.50806">
        <ele>548.768876</ele>
        <time>2021-04-18T07:45:41.175Z</time>
      </trkpt>
      <trkpt lat="43.08324" lon="0.50794">
        <ele>548.90734</ele>
        <time>2021-04-18T07:45:43.191Z</time>
      </trkpt>
      <trkpt lat="43.08327" lon="0.50782">
        <ele>549.046235</ele>
        <time>2021-04-18T07:45:45.177Z</time>
      </trkpt>
      <trkpt lat="43.0833" lon="0.50765">
        <ele>549.24185</ele>
        <time>2021-04-18T07:45:48.194Z</time>
      </trkpt>
      <trkpt lat="43.08332" lon="0.50752">
        <ele>549.381158</ele>
        <time>2021-04-18T07:45:50.190Z</time>
      </trkpt>
      <trkpt lat="43.08333" lon="0.5074">
        <ele>549.51868</ele>
        <time>2021-04-18T07:45:52.213Z</time>
      </trkpt>
      <trkpt lat="43.08335" lon="0.50723">
        <ele>549.664391</ele>
        <time>2021-04-18T07:45:55.185Z</time>
      </trkpt>
      <trkpt lat="43.08336" lon="0.50706">
        <ele>549.707046</ele>
        <time>2021-04-18T07:45:58.218Z</time>
      </trkpt>
      <trkpt lat="43.08337" lon="0.50689">
        <ele>549.751713</ele>
        <time>2021-04-18T07:46:01.187Z</time>
      </trkpt>
      <trkpt lat="43.08338" lon="0.50677">
        <ele>549.783938</ele>
        <time>2021-04-18T07:46:03.177Z</time>
      </trkpt>
      <trkpt lat="43.08338" lon="0.50665">
        <ele>549.8164</ele>
        <time>2021-04-18T07:46:05.177Z</time>
      </trkpt>
      <trkpt lat="43.08337" lon="0.50647">
        <ele>549.863099</ele>
        <time>2021-04-18T07:46:08.185Z</time>
      </trkpt>
      <trkpt lat="43.08336" lon="0.50631">
        <ele>549.904755</ele>
        <time>2021-04-18T07:46:11.177Z</time>
      </trkpt>
      <trkpt lat="43.08333" lon="0.50616">
        <ele>549.945613</ele>
        <time>2021-04-18T07:46:14.165Z</time>
      </trkpt>
      <trkpt lat="43.0833" lon="0.50601">
        <ele>549.987064</ele>
        <time>2021-04-18T07:46:17.189Z</time>
      </trkpt>
      <trkpt lat="43.08328" lon="0.50584">
        <ele>550.029693</ele>
        <time>2021-04-18T07:46:20.192Z</time>
      </trkpt>
      <trkpt lat="43.08328" lon="0.50569">
        <ele>550.070301</ele>
        <time>2021-04-18T07:46:23.161Z</time>
      </trkpt>
      <trkpt lat="43.08329" lon="0.50555">
        <ele>550.106718</ele>
        <time>2021-04-18T07:46:26.185Z</time>
      </trkpt>
      <trkpt lat="43.08331" lon="0.5054">
        <ele>550.146706</ele>
        <time>2021-04-18T07:46:29.179Z</time>
      </trkpt>
      <trkpt lat="43.08333" lon="0.50525">
        <ele>550.187775</ele>
        <time>2021-04-18T07:46:32.218Z</time>
      </trkpt>
      <trkpt lat="43.08335" lon="0.5051">
        <ele>550.22661</ele>
        <time>2021-04-18T07:46:35.181Z</time>
      </trkpt>
      <trkpt lat="43.08338" lon="0.50496">
        <ele>550.263835</ele>
        <time>2021-04-18T07:46:38.182Z</time>
      </trkpt>
      <trkpt lat="43.0834" lon="0.5048">
        <ele>550.376873</ele>
        <time>2021-04-18T07:46:41.164Z</time>
      </trkpt>
      <trkpt lat="43.08344" lon="0.50465">
        <ele>550.670351</ele>
        <time>2021-04-18T07:46:44.184Z</time>
      </trkpt>
      <trkpt lat="43.08348" lon="0.5045">
        <ele>550.96197</ele>
        <time>2021-04-18T07:46:47.214Z</time>
      </trkpt>
      <trkpt lat="43.08354" lon="0.50436">
        <ele>551.2451</ele>
        <time>2021-04-18T07:46:50.180Z</time>
      </trkpt>
      <trkpt lat="43.08359" lon="0.50423">
        <ele>551.511648</ele>
        <time>2021-04-18T07:46:53.181Z</time>
      </trkpt>
      <trkpt lat="43.08364" lon="0.50408">
        <ele>551.796759</ele>
        <time>2021-04-18T07:46:56.191Z</time>
      </trkpt>
      <trkpt lat="43.08368" lon="0.50393">
        <ele>552.094065</ele>
        <time>2021-04-18T07:46:59.187Z</time>
      </trkpt>
      <trkpt lat="43.08372" lon="0.50378">
        <ele>552.388002</ele>
        <time>2021-04-18T07:47:02.183Z</time>
      </trkpt>
      <trkpt lat="43.08375" lon="0.50361">
        <ele>552.689797</ele>
        <time>2021-04-18T07:47:05.159Z</time>
      </trkpt>
      <trkpt lat="43.08377" lon="0.50345">
        <ele>552.980213</ele>
        <time>2021-04-18T07:47:08.190Z</time>
      </trkpt>
      <trkpt lat="43.08378" lon="0.50329">
        <ele>553.275657</ele>
        <time>2021-04-18T07:47:11.207Z</time>
      </trkpt>
      <trkpt lat="43.08379" lon="0.50312">
        <ele>553.585947</ele>
        <time>2021-04-18T07:47:14.184Z</time>
      </trkpt>
      <trkpt lat="43.0838" lon="0.50294">
        <ele>553.917167</ele>
        <time>2021-04-18T07:47:17.187Z</time>
      </trkpt>
      <trkpt lat="43.08381" lon="0.5028">
        <ele>554.153569</ele>
        <time>2021-04-18T07:47:19.185Z</time>
      </trkpt>
      <trkpt lat="43.08382" lon="0.50268">
        <ele>554.386856</ele>
        <time>2021-04-18T07:47:21.185Z</time>
      </trkpt>
      <trkpt lat="43.08383" lon="0.5025">
        <ele>554.700383</ele>
        <time>2021-04-18T07:47:24.212Z</time>
      </trkpt>
      <trkpt lat="43.08383" lon="0.50234">
        <ele>554.541864</ele>
        <time>2021-04-18T07:47:27.185Z</time>
      </trkpt>
      <trkpt lat="43.08384" lon="0.50217">
        <ele>554.337097</ele>
        <time>2021-04-18T07:47:30.178Z</time>
      </trkpt>
      <trkpt lat="43.08387" lon="0.50201">
        <ele>554.132364</ele>
        <time>2021-04-18T07:47:33.223Z</time>
      </trkpt>
      <trkpt lat="43.0839" lon="0.50182">
        <ele>553.90527</ele>
        <time>2021-04-18T07:47:36.192Z</time>
      </trkpt>
      <trkpt lat="43.0839" lon="0.50168">
        <ele>553.736752</ele>
        <time>2021-04-18T07:47:38.183Z</time>
      </trkpt>
      <trkpt lat="43.08389" lon="0.50153">
        <ele>553.552988</ele>
        <time>2021-04-18T07:47:40.162Z</time>
      </trkpt>
      <trkpt lat="43.08386" lon="0.50138">
        <ele>553.363414</ele>
        <time>2021-04-18T07:47:42.181Z</time>
      </trkpt>
      <trkpt lat="43.08382" lon="0.50123">
        <ele>553.176086</ele>
        <time>2021-04-18T07:47:44.170Z</time>
      </trkpt>
      <trkpt lat="43.08378" lon="0.50109">
        <ele>552.992729</ele>
        <time>2021-04-18T07:47:46.194Z</time>
      </trkpt>
      <trkpt lat="43.08375" lon="0.50094">
        <ele>552.797938</ele>
        <time>2021-04-18T07:47:48.181Z</time>
      </trkpt>
      <trkpt lat="43.08371" lon="0.50078">
        <ele>552.60085</ele>
        <time>2021-04-18T07:47:50.191Z</time>
      </trkpt>
      <trkpt lat="43.08367" lon="0.50064">
        <ele>552.412831</ele>
        <time>2021-04-18T07:47:52.180Z</time>
      </trkpt>
      <trkpt lat="43.08364" lon="0.50049">
        <ele>552.224364</ele>
        <time>2021-04-18T07:47:54.213Z</time>
      </trkpt>
      <trkpt lat="43.0836" lon="0.50034">
        <ele>552.033011</ele>
        <time>2021-04-18T07:47:56.196Z</time>
      </trkpt>
      <trkpt lat="43.08357" lon="0.50019">
        <ele>551.843945</ele>
        <time>2021-04-18T07:47:58.186Z</time>
      </trkpt>
      <trkpt lat="43.08355" lon="0.50004">
        <ele>551.738843</ele>
        <time>2021-04-18T07:48:00.176Z</time>
      </trkpt>
      <trkpt lat="43.08354" lon="0.4999">
        <ele>551.722723</ele>
        <time>2021-04-18T07:48:02.186Z</time>
      </trkpt>
      <trkpt lat="43.08354" lon="0.49978">
        <ele>551.707955</ele>
        <time>2021-04-18T07:48:04.173Z</time>
      </trkpt>
      <trkpt lat="43.08355" lon="0.4996">
        <ele>551.68681</ele>
        <time>2021-04-18T07:48:07.174Z</time>
      </trkpt>
      <trkpt lat="43.08357" lon="0.49943">
        <ele>551.666224</ele>
        <time>2021-04-18T07:48:10.167Z</time>
      </trkpt>
      <trkpt lat="43.08359" lon="0.49926">
        <ele>551.646537</ele>
        <time>2021-04-18T07:48:13.194Z</time>
      </trkpt>
      <trkpt lat="43.08361" lon="0.49909">
        <ele>551.626497</ele>
        <time>2021-04-18T07:48:16.184Z</time>
      </trkpt>
      <trkpt lat="43.08364" lon="0.49894">
        <ele>551.607894</ele>
        <time>2021-04-18T07:48:19.180Z</time>
      </trkpt>
      <trkpt lat="43.08366" lon="0.49879">
        <ele>551.590423</ele>
        <time>2021-04-18T07:48:22.217Z</time>
      </trkpt>
      <trkpt lat="43.08368" lon="0.49865">
        <ele>551.574278</ele>
        <time>2021-04-18T07:48:25.200Z</time>
      </trkpt>
      <trkpt lat="43.08368" lon="0.49852">
        <ele>551.558287</ele>
        <time>2021-04-18T07:48:28.174Z</time>
      </trkpt>
      <trkpt lat="43.08369" lon="0.49839">
        <ele>551.542904</ele>
        <time>2021-04-18T07:48:31.178Z</time>
      </trkpt>
      <trkpt lat="43.0837" lon="0.49826">
        <ele>551.528067</ele>
        <time>2021-04-18T07:48:34.180Z</time>
      </trkpt>
      <trkpt lat="43.08372" lon="0.49811">
        <ele>551.509497</ele>
        <time>2021-04-18T07:48:38.186Z</time>
      </trkpt>
      <trkpt lat="43.08373" lon="0.49798">
        <ele>551.494348</ele>
        <time>2021-04-18T07:48:41.198Z</time>
      </trkpt>
      <trkpt lat="43.08374" lon="0.49784">
        <ele>551.478263</ele>
        <time>2021-04-18T07:48:44.185Z</time>
      </trkpt>
      <trkpt lat="43.08375" lon="0.49771">
        <ele>551.463371</ele>
        <time>2021-04-18T07:48:47.188Z</time>
      </trkpt>
      <trkpt lat="43.08375" lon="0.49759">
        <ele>551.887289</ele>
        <time>2021-04-18T07:48:50.174Z</time>
      </trkpt>
      <trkpt lat="43.08374" lon="0.49744">
        <ele>552.663287</ele>
        <time>2021-04-18T07:48:54.199Z</time>
      </trkpt>
      <trkpt lat="43.08372" lon="0.49731">
        <ele>553.356024</ele>
        <time>2021-04-18T07:48:58.183Z</time>
      </trkpt>
      <trkpt lat="43.08369" lon="0.49717">
        <ele>554.133436</ele>
        <time>2021-04-18T07:49:02.217Z</time>
      </trkpt>
      <trkpt lat="43.08365" lon="0.49702">
        <ele>554.955636</ele>
        <time>2021-04-18T07:49:06.185Z</time>
      </trkpt>
      <trkpt lat="43.08361" lon="0.49689">
        <ele>555.694318</ele>
        <time>2021-04-18T07:49:09.187Z</time>
      </trkpt>
      <trkpt lat="43.08356" lon="0.49676">
        <ele>556.468791</ele>
        <time>2021-04-18T07:49:12.233Z</time>
      </trkpt>
      <trkpt lat="43.0835" lon="0.49664">
        <ele>557.198853</ele>
        <time>2021-04-18T07:49:15.185Z</time>
      </trkpt>
      <trkpt lat="43.08345" lon="0.49651">
        <ele>558.008923</ele>
        <time>2021-04-18T07:49:19.163Z</time>
      </trkpt>
      <trkpt lat="43.08339" lon="0.49636">
        <ele>558.853398</ele>
        <time>2021-04-18T07:49:23.164Z</time>
      </trkpt>
      <trkpt lat="43.08333" lon="0.49624">
        <ele>559.621923</ele>
        <time>2021-04-18T07:49:26.186Z</time>
      </trkpt>
      <trkpt lat="43.08327" lon="0.4961">
        <ele>560.487235</ele>
        <time>2021-04-18T07:49:29.236Z</time>
      </trkpt>
      <trkpt lat="43.08323" lon="0.49595">
        <ele>561.30944</ele>
        <time>2021-04-18T07:49:32.174Z</time>
      </trkpt>
      <trkpt lat="43.08323" lon="0.49582">
        <ele>562.009945</ele>
        <time>2021-04-18T07:49:35.165Z</time>
      </trkpt>
      <trkpt lat="43.08325" lon="0.49569">
        <ele>562.712937</ele>
        <time>2021-04-18T07:49:38.168Z</time>
      </trkpt>
      <trkpt lat="43.08327" lon="0.49556">
        <ele>563.388236</ele>
        <time>2021-04-18T07:49:41.208Z</time>
      </trkpt>
      <trkpt lat="43.08331" lon="0.49542">
        <ele>564.171326</ele>
        <time>2021-04-18T07:49:44.185Z</time>
      </trkpt>
      <trkpt lat="43.08335" lon="0.49528">
        <ele>564.346846</ele>
        <time>2021-04-18T07:49:47.177Z</time>
      </trkpt>
      <trkpt lat="43.0834" lon="0.49515">
        <ele>564.372789</ele>
        <time>2021-04-18T07:49:50.174Z</time>
      </trkpt>
      <trkpt lat="43.08344" lon="0.49501">
        <ele>564.400303</ele>
        <time>2021-04-18T07:49:53.177Z</time>
      </trkpt>
      <trkpt lat="43.08349" lon="0.49487">
        <ele>564.427141</ele>
        <time>2021-04-18T07:49:56.185Z</time>
      </trkpt>
      <trkpt lat="43.08354" lon="0.49473">
        <ele>564.45376</ele>
        <time>2021-04-18T07:49:59.193Z</time>
      </trkpt>
      <trkpt lat="43.08359" lon="0.4946">
        <ele>564.479137</ele>
        <time>2021-04-18T07:50:02.187Z</time>
      </trkpt>
      <trkpt lat="43.08364" lon="0.49448">
        <ele>564.503251</ele>
        <time>2021-04-18T07:50:05.184Z</time>
      </trkpt>
      <trkpt lat="43.0837" lon="0.49435">
        <ele>564.529883</ele>
        <time>2021-04-18T07:50:08.215Z</time>
      </trkpt>
      <trkpt lat="43.08375" lon="0.49422">
        <ele>564.555877</ele>
        <time>2021-04-18T07:50:11.180Z</time>
      </trkpt>
      <trkpt lat="43.08381" lon="0.49408">
        <ele>564.58432</ele>
        <time>2021-04-18T07:50:14.190Z</time>
      </trkpt>
      <trkpt lat="43.08388" lon="0.49393">
        <ele>564.615883</ele>
        <time>2021-04-18T07:50:17.183Z</time>
      </trkpt>
      <trkpt lat="43.08394" lon="0.49377">
        <ele>564.646556</ele>
        <time>2021-04-18T07:50:20.194Z</time>
      </trkpt>
      <trkpt lat="43.08398" lon="0.49366">
        <ele>564.668214</ele>
        <time>2021-04-18T07:50:22.194Z</time>
      </trkpt>
      <trkpt lat="43.08405" lon="0.49351">
        <ele>564.699838</ele>
        <time>2021-04-18T07:50:25.224Z</time>
      </trkpt>
      <trkpt lat="43.08409" lon="0.49339">
        <ele>564.72242</ele>
        <time>2021-04-18T07:50:27.212Z</time>
      </trkpt>
      <trkpt lat="43.08414" lon="0.49328">
        <ele>564.7447</ele>
        <time>2021-04-18T07:50:29.195Z</time>
      </trkpt>
      <trkpt lat="43.08421" lon="0.49313">
        <ele>564.772191</ele>
        <time>2021-04-18T07:50:32.199Z</time>
      </trkpt>
      <trkpt lat="43.08428" lon="0.49298">
        <ele>564.796874</ele>
        <time>2021-04-18T07:50:35.196Z</time>
      </trkpt>
      <trkpt lat="43.08433" lon="0.49285">
        <ele>564.81849</ele>
        <time>2021-04-18T07:50:38.187Z</time>
      </trkpt>
      <trkpt lat="43.08439" lon="0.49271">
        <ele>564.841271</ele>
        <time>2021-04-18T07:50:41.184Z</time>
      </trkpt>
      <trkpt lat="43.08445" lon="0.49257">
        <ele>564.864504</ele>
        <time>2021-04-18T07:50:44.194Z</time>
      </trkpt>
      <trkpt lat="43.08451" lon="0.49244">
        <ele>564.886198</ele>
        <time>2021-04-18T07:50:47.220Z</time>
      </trkpt>
      <trkpt lat="43.08456" lon="0.49231">
        <ele>564.907631</ele>
        <time>2021-04-18T07:50:50.185Z</time>
      </trkpt>
      <trkpt lat="43.08462" lon="0.49217">
        <ele>564.929726</ele>
        <time>2021-04-18T07:50:53.188Z</time>
      </trkpt>
      <trkpt lat="43.08469" lon="0.49201">
        <ele>564.956793</ele>
        <time>2021-04-18T07:50:57.193Z</time>
      </trkpt>
      <trkpt lat="43.08475" lon="0.49187">
        <ele>564.979844</ele>
        <time>2021-04-18T07:51:00.197Z</time>
      </trkpt>
      <trkpt lat="43.0848" lon="0.49176">
        <ele>564.997495</ele>
        <time>2021-04-18T07:51:02.184Z</time>
      </trkpt>
      <trkpt lat="43.08486" lon="0.49166">
        <ele>565.016294</ele>
        <time>2021-04-18T07:51:04.184Z</time>
      </trkpt>
      <trkpt lat="43.08492" lon="0.49156">
        <ele>565.0342</ele>
        <time>2021-04-18T07:51:06.187Z</time>
      </trkpt>
      <trkpt lat="43.08499" lon="0.49147">
        <ele>565.05285</ele>
        <time>2021-04-18T07:51:08.177Z</time>
      </trkpt>
      <trkpt lat="43.08509" lon="0.49136">
        <ele>565.078876</ele>
        <time>2021-04-18T07:51:11.185Z</time>
      </trkpt>
      <trkpt lat="43.0852" lon="0.49125">
        <ele>565.104227</ele>
        <time>2021-04-18T07:51:14.183Z</time>
      </trkpt>
      <trkpt lat="43.08527" lon="0.4911">
        <ele>564.619928</ele>
        <time>2021-04-18T07:51:17.164Z</time>
      </trkpt>
      <trkpt lat="43.08532" lon="0.49094">
        <ele>564.130575</ele>
        <time>2021-04-18T07:51:20.167Z</time>
      </trkpt>
      <trkpt lat="43.08535" lon="0.4908">
        <ele>563.70954</ele>
        <time>2021-04-18T07:51:23.176Z</time>
      </trkpt>
      <trkpt lat="43.08539" lon="0.49067">
        <ele>563.283675</ele>
        <time>2021-04-18T07:51:26.187Z</time>
      </trkpt>
      <trkpt lat="43.08543" lon="0.49053">
        <ele>562.85871</ele>
        <time>2021-04-18T07:51:29.190Z</time>
      </trkpt>
      <trkpt lat="43.08547" lon="0.49038">
        <ele>562.413942</ele>
        <time>2021-04-18T07:51:32.177Z</time>
      </trkpt>
      <trkpt lat="43.0855" lon="0.49024">
        <ele>561.971695</ele>
        <time>2021-04-18T07:51:35.211Z</time>
      </trkpt>
      <trkpt lat="43.08554" lon="0.49008">
        <ele>561.50114</ele>
        <time>2021-04-18T07:51:38.217Z</time>
      </trkpt>
      <trkpt lat="43.08558" lon="0.48992">
        <ele>561.011818</ele>
        <time>2021-04-18T07:51:41.210Z</time>
      </trkpt>
      <trkpt lat="43.08562" lon="0.48976">
        <ele>560.522123</ele>
        <time>2021-04-18T07:51:44.188Z</time>
      </trkpt>
      <trkpt lat="43.08565" lon="0.48961">
        <ele>560.060226</ele>
        <time>2021-04-18T07:51:47.188Z</time>
      </trkpt>
      <trkpt lat="43.08569" lon="0.48947">
        <ele>559.631358</ele>
        <time>2021-04-18T07:51:50.189Z</time>
      </trkpt>
      <trkpt lat="43.08572" lon="0.48933">
        <ele>559.213674</ele>
        <time>2021-04-18T07:51:53.180Z</time>
      </trkpt>
      <trkpt lat="43.08576" lon="0.48919">
        <ele>558.779767</ele>
        <time>2021-04-18T07:51:56.185Z</time>
      </trkpt>
      <trkpt lat="43.08579" lon="0.48904">
        <ele>558.338308</ele>
        <time>2021-04-18T07:51:59.216Z</time>
      </trkpt>
      <trkpt lat="43.08582" lon="0.4889">
        <ele>558.064896</ele>
        <time>2021-04-18T07:52:02.174Z</time>
      </trkpt>
      <trkpt lat="43.08586" lon="0.48875">
        <ele>558.257769</ele>
        <time>2021-04-18T07:52:05.197Z</time>
      </trkpt>
      <trkpt lat="43.08589" lon="0.4886">
        <ele>558.456084</ele>
        <time>2021-04-18T07:52:08.179Z</time>
      </trkpt>
      <trkpt lat="43.08592" lon="0.48846">
        <ele>558.643458</ele>
        <time>2021-04-18T07:52:11.217Z</time>
      </trkpt>
      <trkpt lat="43.08595" lon="0.48832">
        <ele>558.825406</ele>
        <time>2021-04-18T07:52:14.215Z</time>
      </trkpt>
      <trkpt lat="43.08597" lon="0.48818">
        <ele>559.008964</ele>
        <time>2021-04-18T07:52:17.178Z</time>
      </trkpt>
      <trkpt lat="43.086" lon="0.48804">
        <ele>559.193757</ele>
        <time>2021-04-18T07:52:20.182Z</time>
      </trkpt>
      <trkpt lat="43.08603" lon="0.48789">
        <ele>559.386747</ele>
        <time>2021-04-18T07:52:23.192Z</time>
      </trkpt>
      <trkpt lat="43.08608" lon="0.48773">
        <ele>559.61191</ele>
        <time>2021-04-18T07:52:26.197Z</time>
      </trkpt>
      <trkpt lat="43.08614" lon="0.48757">
        <ele>559.82946</ele>
        <time>2021-04-18T07:52:29.164Z</time>
      </trkpt>
      <trkpt lat="43.08618" lon="0.48743">
        <ele>560.025375</ele>
        <time>2021-04-18T07:52:32.186Z</time>
      </trkpt>
      <trkpt lat="43.08623" lon="0.48729">
        <ele>560.210705</ele>
        <time>2021-04-18T07:52:35.203Z</time>
      </trkpt>
      <trkpt lat="43.08627" lon="0.48716">
        <ele>560.396883</ele>
        <time>2021-04-18T07:52:38.201Z</time>
      </trkpt>
      <trkpt lat="43.08632" lon="0.48703">
        <ele>560.580803</ele>
        <time>2021-04-18T07:52:41.186Z</time>
      </trkpt>
      <trkpt lat="43.08638" lon="0.4869">
        <ele>560.77463</ele>
        <time>2021-04-18T07:52:44.170Z</time>
      </trkpt>
      <trkpt lat="43.08644" lon="0.48676">
        <ele>560.978675</ele>
        <time>2021-04-18T07:52:47.193Z</time>
      </trkpt>
      <trkpt lat="43.0865" lon="0.48662">
        <ele>561.186315</ele>
        <time>2021-04-18T07:52:50.166Z</time>
      </trkpt>
      <trkpt lat="43.08656" lon="0.48649">
        <ele>561.418817</ele>
        <time>2021-04-18T07:52:53.191Z</time>
      </trkpt>
      <trkpt lat="43.08663" lon="0.48635">
        <ele>561.653519</ele>
        <time>2021-04-18T07:52:56.209Z</time>
      </trkpt>
      <trkpt lat="43.08669" lon="0.48622">
        <ele>561.882642</ele>
        <time>2021-04-18T07:52:59.204Z</time>
      </trkpt>
      <trkpt lat="43.08676" lon="0.48609">
        <ele>562.116238</ele>
        <time>2021-04-18T07:53:02.177Z</time>
      </trkpt>
      <trkpt lat="43.08682" lon="0.48596">
        <ele>562.344138</ele>
        <time>2021-04-18T07:53:05.178Z</time>
      </trkpt>
      <trkpt lat="43.08688" lon="0.48582">
        <ele>562.573843</ele>
        <time>2021-04-18T07:53:08.196Z</time>
      </trkpt>
      <trkpt lat="43.08695" lon="0.48569">
        <ele>562.80489</ele>
        <time>2021-04-18T07:53:11.176Z</time>
      </trkpt>
      <trkpt lat="43.08702" lon="0.48556">
        <ele>563.042977</ele>
        <time>2021-04-18T07:53:14.191Z</time>
      </trkpt>
      <trkpt lat="43.0871" lon="0.48543">
        <ele>563.282831</ele>
        <time>2021-04-18T07:53:17.178Z</time>
      </trkpt>
      <trkpt lat="43.08716" lon="0.48532">
        <ele>563.49873</ele>
        <time>2021-04-18T07:53:20.163Z</time>
      </trkpt>
      <trkpt lat="43.08725" lon="0.48525">
        <ele>563.693351</ele>
        <time>2021-04-18T07:53:23.160Z</time>
      </trkpt>
      <trkpt lat="43.08735" lon="0.48525">
        <ele>563.900184</ele>
        <time>2021-04-18T07:53:27.165Z</time>
      </trkpt>
      <trkpt lat="43.08727" lon="0.48517">
        <ele>564.098786</ele>
        <time>2021-04-18T07:53:34.168Z</time>
      </trkpt>
      <trkpt lat="43.08725" lon="0.48503">
        <ele>564.313065</ele>
        <time>2021-04-18T07:53:37.160Z</time>
      </trkpt>
      <trkpt lat="43.0873" lon="0.48492">
        <ele>564.497693</ele>
        <time>2021-04-18T07:53:39.207Z</time>
      </trkpt>
      <trkpt lat="43.08735" lon="0.48482">
        <ele>564.679531</ele>
        <time>2021-04-18T07:53:41.164Z</time>
      </trkpt>
      <trkpt lat="43.08742" lon="0.48469">
        <ele>564.589369</ele>
        <time>2021-04-18T07:53:44.184Z</time>
      </trkpt>
      <trkpt lat="43.08747" lon="0.48457">
        <ele>564.488136</ele>
        <time>2021-04-18T07:53:47.178Z</time>
      </trkpt>
      <trkpt lat="43.08752" lon="0.48445">
        <ele>564.389239</ele>
        <time>2021-04-18T07:53:50.181Z</time>
      </trkpt>
      <trkpt lat="43.08756" lon="0.48432">
        <ele>564.28691</ele>
        <time>2021-04-18T07:53:53.214Z</time>
      </trkpt>
      <trkpt lat="43.08761" lon="0.48418">
        <ele>564.17481</ele>
        <time>2021-04-18T07:53:56.190Z</time>
      </trkpt>
      <trkpt lat="43.08767" lon="0.48406">
        <ele>564.069186</ele>
        <time>2021-04-18T07:53:59.185Z</time>
      </trkpt>
      <trkpt lat="43.08773" lon="0.48392">
        <ele>563.94965</ele>
        <time>2021-04-18T07:54:02.212Z</time>
      </trkpt>
      <trkpt lat="43.0878" lon="0.48379">
        <ele>563.834102</ele>
        <time>2021-04-18T07:54:05.200Z</time>
      </trkpt>
      <trkpt lat="43.08787" lon="0.48368">
        <ele>563.724813</ele>
        <time>2021-04-18T07:54:08.227Z</time>
      </trkpt>
      <trkpt lat="43.08794" lon="0.48356">
        <ele>563.612495</ele>
        <time>2021-04-18T07:54:11.194Z</time>
      </trkpt>
      <trkpt lat="43.08801" lon="0.48343">
        <ele>563.496935</ele>
        <time>2021-04-18T07:54:14.179Z</time>
      </trkpt>
      <trkpt lat="43.08808" lon="0.48329">
        <ele>563.370786</ele>
        <time>2021-04-18T07:54:17.210Z</time>
      </trkpt>
      <trkpt lat="43.08814" lon="0.48315">
        <ele>563.257718</ele>
        <time>2021-04-18T07:54:20.159Z</time>
      </trkpt>
      <trkpt lat="43.08819" lon="0.48301">
        <ele>563.140979</ele>
        <time>2021-04-18T07:54:23.213Z</time>
      </trkpt>
      <trkpt lat="43.08825" lon="0.48287">
        <ele>563.022955</ele>
        <time>2021-04-18T07:54:26.189Z</time>
      </trkpt>
      <trkpt lat="43.08831" lon="0.48274">
        <ele>562.914435</ele>
        <time>2021-04-18T07:54:29.184Z</time>
      </trkpt>
      <trkpt lat="43.08837" lon="0.4826">
        <ele>563.093268</ele>
        <time>2021-04-18T07:54:32.166Z</time>
      </trkpt>
      <trkpt lat="43.08843" lon="0.48248">
        <ele>563.275018</ele>
        <time>2021-04-18T07:54:35.167Z</time>
      </trkpt>
      <trkpt lat="43.08851" lon="0.48236">
        <ele>563.461914</ele>
        <time>2021-04-18T07:54:38.186Z</time>
      </trkpt>
      <trkpt lat="43.08858" lon="0.48225">
        <ele>563.637793</ele>
        <time>2021-04-18T07:54:41.191Z</time>
      </trkpt>
      <trkpt lat="43.08865" lon="0.48216">
        <ele>563.798349</ele>
        <time>2021-04-18T07:54:44.181Z</time>
      </trkpt>
      <trkpt lat="43.08875" lon="0.48204">
        <ele>564.008521</ele>
        <time>2021-04-18T07:54:47.187Z</time>
      </trkpt>
      <trkpt lat="43.08882" lon="0.48195">
        <ele>564.166684</ele>
        <time>2021-04-18T07:54:49.208Z</time>
      </trkpt>
      <trkpt lat="43.08888" lon="0.48185">
        <ele>564.326457</ele>
        <time>2021-04-18T07:54:51.176Z</time>
      </trkpt>
      <trkpt lat="43.08895" lon="0.48174">
        <ele>564.494217</ele>
        <time>2021-04-18T07:54:54.172Z</time>
      </trkpt>
      <trkpt lat="43.08902" lon="0.48163">
        <ele>564.676049</ele>
        <time>2021-04-18T07:54:58.194Z</time>
      </trkpt>
      <trkpt lat="43.08908" lon="0.48152">
        <ele>564.837484</ele>
        <time>2021-04-18T07:55:01.189Z</time>
      </trkpt>
      <trkpt lat="43.08914" lon="0.48141">
        <ele>565.002768</ele>
        <time>2021-04-18T07:55:04.167Z</time>
      </trkpt>
      <trkpt lat="43.0892" lon="0.4813">
        <ele>565.168049</ele>
        <time>2021-04-18T07:55:07.174Z</time>
      </trkpt>
      <trkpt lat="43.08927" lon="0.48117">
        <ele>565.356497</ele>
        <time>2021-04-18T07:55:10.168Z</time>
      </trkpt>
      <trkpt lat="43.08933" lon="0.48106">
        <ele>565.521831</ele>
        <time>2021-04-18T07:55:13.211Z</time>
      </trkpt>
      <trkpt lat="43.0894" lon="0.48095">
        <ele>565.703267</ele>
        <time>2021-04-18T07:55:17.175Z</time>
      </trkpt>
      <trkpt lat="43.08948" lon="0.48084">
        <ele>565.8205</ele>
        <time>2021-04-18T07:55:20.175Z</time>
      </trkpt>
      <trkpt lat="43.08956" lon="0.48072">
        <ele>565.558219</ele>
        <time>2021-04-18T07:55:23.196Z</time>
      </trkpt>
      <trkpt lat="43.08964" lon="0.48063">
        <ele>565.359255</ele>
        <time>2021-04-18T07:55:25.179Z</time>
      </trkpt>
      <trkpt lat="43.08971" lon="0.48055">
        <ele>565.160687</ele>
        <time>2021-04-18T07:55:27.181Z</time>
      </trkpt>
      <trkpt lat="43.08979" lon="0.48047">
        <ele>564.963025</ele>
        <time>2021-04-18T07:55:29.210Z</time>
      </trkpt>
      <trkpt lat="43.08987" lon="0.4804">
        <ele>564.75725</ele>
        <time>2021-04-18T07:55:31.185Z</time>
      </trkpt>
      <trkpt lat="43.08996" lon="0.48034">
        <ele>564.552533</ele>
        <time>2021-04-18T07:55:33.184Z</time>
      </trkpt>
      <trkpt lat="43.09008" lon="0.48027">
        <ele>564.273546</ele>
        <time>2021-04-18T07:55:36.177Z</time>
      </trkpt>
      <trkpt lat="43.09021" lon="0.4802">
        <ele>563.990383</ele>
        <time>2021-04-18T07:55:39.186Z</time>
      </trkpt>
      <trkpt lat="43.09029" lon="0.48011">
        <ele>563.777114</ele>
        <time>2021-04-18T07:55:41.164Z</time>
      </trkpt>
      <trkpt lat="43.09034" lon="0.47999">
        <ele>563.567007</ele>
        <time>2021-04-18T07:55:43.176Z</time>
      </trkpt>
      <trkpt lat="43.09036" lon="0.47987">
        <ele>563.379565</ele>
        <time>2021-04-18T07:55:45.166Z</time>
      </trkpt>
      <trkpt lat="43.09039" lon="0.47971">
        <ele>563.122453</ele>
        <time>2021-04-18T07:55:48.234Z</time>
      </trkpt>
      <trkpt lat="43.09044" lon="0.47956">
        <ele>562.881196</ele>
        <time>2021-04-18T07:55:51.162Z</time>
      </trkpt>
      <trkpt lat="43.09049" lon="0.47943">
        <ele>562.653293</ele>
        <time>2021-04-18T07:55:54.195Z</time>
      </trkpt>
      <trkpt lat="43.09054" lon="0.4793">
        <ele>562.432537</ele>
        <time>2021-04-18T07:55:57.184Z</time>
      </trkpt>
      <trkpt lat="43.0906" lon="0.47916">
        <ele>562.186432</ele>
        <time>2021-04-18T07:56:00.180Z</time>
      </trkpt>
      <trkpt lat="43.09066" lon="0.47901">
        <ele>562.475856</ele>
        <time>2021-04-18T07:56:03.186Z</time>
      </trkpt>
      <trkpt lat="43.0907" lon="0.47885">
        <ele>562.952468</ele>
        <time>2021-04-18T07:56:06.180Z</time>
      </trkpt>
      <trkpt lat="43.09069" lon="0.47868">
        <ele>563.437356</ele>
        <time>2021-04-18T07:56:09.158Z</time>
      </trkpt>
      <trkpt lat="43.09064" lon="0.47854">
        <ele>563.905076</ele>
        <time>2021-04-18T07:56:12.164Z</time>
      </trkpt>
      <trkpt lat="43.09058" lon="0.47842">
        <ele>564.311683</ele>
        <time>2021-04-18T07:56:15.214Z</time>
      </trkpt>
      <trkpt lat="43.09053" lon="0.47828">
        <ele>564.762456</ele>
        <time>2021-04-18T07:56:19.181Z</time>
      </trkpt>
      <trkpt lat="43.0905" lon="0.47816">
        <ele>565.116234</ele>
        <time>2021-04-18T07:56:22.170Z</time>
      </trkpt>
      <trkpt lat="43.09047" lon="0.47803">
        <ele>565.520312</ele>
        <time>2021-04-18T07:56:25.179Z</time>
      </trkpt>
      <trkpt lat="43.09042" lon="0.47789">
        <ele>565.959012</ele>
        <time>2021-04-18T07:56:28.184Z</time>
      </trkpt>
      <trkpt lat="43.09035" lon="0.47774">
        <ele>566.468324</ele>
        <time>2021-04-18T07:56:31.183Z</time>
      </trkpt>
      <trkpt lat="43.09031" lon="0.47762">
        <ele>566.854332</ele>
        <time>2021-04-18T07:56:33.177Z</time>
      </trkpt>
      <trkpt lat="43.09026" lon="0.47746">
        <ele>567.354163</ele>
        <time>2021-04-18T07:56:36.188Z</time>
      </trkpt>
      <trkpt lat="43.09021" lon="0.47736">
        <ele>567.712193</ele>
        <time>2021-04-18T07:56:38.182Z</time>
      </trkpt>
      <trkpt lat="43.09017" lon="0.47724">
        <ele>568.091653</ele>
        <time>2021-04-18T07:56:40.191Z</time>
      </trkpt>
      <trkpt lat="43.09012" lon="0.47713">
        <ele>568.464184</ele>
        <time>2021-04-18T07:56:42.191Z</time>
      </trkpt>
      <trkpt lat="43.09006" lon="0.47697">
        <ele>568.955386</ele>
        <time>2021-04-18T07:56:45.181Z</time>
      </trkpt>
      <trkpt lat="43.09004" lon="0.47681">
        <ele>569.368442</ele>
        <time>2021-04-18T07:56:48.201Z</time>
      </trkpt>
      <trkpt lat="43.09004" lon="0.47668">
        <ele>569.625742</ele>
        <time>2021-04-18T07:56:50.180Z</time>
      </trkpt>
      <trkpt lat="43.09006" lon="0.47655">
        <ele>569.900032</ele>
        <time>2021-04-18T07:56:52.173Z</time>
      </trkpt>
      <trkpt lat="43.0901" lon="0.47643">
        <ele>570.158327</ele>
        <time>2021-04-18T07:56:54.181Z</time>
      </trkpt>
      <trkpt lat="43.09017" lon="0.47631">
        <ele>570.48074</ele>
        <time>2021-04-18T07:56:57.161Z</time>
      </trkpt>
      <trkpt lat="43.09021" lon="0.47619">
        <ele>570.753036</ele>
        <time>2021-04-18T07:56:59.174Z</time>
      </trkpt>
      <trkpt lat="43.09025" lon="0.47604">
        <ele>571.056029</ele>
        <time>2021-04-18T07:57:01.216Z</time>
      </trkpt>
      <trkpt lat="43.09026" lon="0.4759">
        <ele>571.344303</ele>
        <time>2021-04-18T07:57:03.168Z</time>
      </trkpt>
      <trkpt lat="43.09027" lon="0.47575">
        <ele>571.66007</ele>
        <time>2021-04-18T07:57:06.162Z</time>
      </trkpt>
      <trkpt lat="43.09026" lon="0.47561">
        <ele>571.936716</ele>
        <time>2021-04-18T07:57:09.154Z</time>
      </trkpt>
      <trkpt lat="43.09026" lon="0.47545">
        <ele>572.263303</ele>
        <time>2021-04-18T07:57:12.182Z</time>
      </trkpt>
      <trkpt lat="43.09026" lon="0.47528">
        <ele>572.616075</ele>
        <time>2021-04-18T07:57:15.183Z</time>
      </trkpt>
      <trkpt lat="43.09025" lon="0.47511">
        <ele>572.950905</ele>
        <time>2021-04-18T07:57:18.187Z</time>
      </trkpt>
      <trkpt lat="43.09024" lon="0.47494">
        <ele>573.300939</ele>
        <time>2021-04-18T07:57:21.183Z</time>
      </trkpt>
      <trkpt lat="43.09023" lon="0.47477">
        <ele>573.651544</ele>
        <time>2021-04-18T07:57:24.177Z</time>
      </trkpt>
      <trkpt lat="43.09022" lon="0.4746">
        <ele>573.988019</ele>
        <time>2021-04-18T07:57:27.218Z</time>
      </trkpt>
      <trkpt lat="43.09024" lon="0.47445">
        <ele>574.001855</ele>
        <time>2021-04-18T07:57:30.176Z</time>
      </trkpt>
      <trkpt lat="43.09027" lon="0.47429">
        <ele>573.547844</ele>
        <time>2021-04-18T07:57:33.165Z</time>
      </trkpt>
      <trkpt lat="43.09032" lon="0.47414">
        <ele>573.105305</ele>
        <time>2021-04-18T07:57:36.182Z</time>
      </trkpt>
      <trkpt lat="43.09036" lon="0.474">
        <ele>572.663027</ele>
        <time>2021-04-18T07:57:39.183Z</time>
      </trkpt>
      <trkpt lat="43.09041" lon="0.47386">
        <ele>572.236385</ele>
        <time>2021-04-18T07:57:42.177Z</time>
      </trkpt>
      <trkpt lat="43.09044" lon="0.47372">
        <ele>571.820528</ele>
        <time>2021-04-18T07:57:45.186Z</time>
      </trkpt>
      <trkpt lat="43.0905" lon="0.47357">
        <ele>571.359479</ele>
        <time>2021-04-18T07:57:48.215Z</time>
      </trkpt>
      <trkpt lat="43.09055" lon="0.47344">
        <ele>570.942867</ele>
        <time>2021-04-18T07:57:51.187Z</time>
      </trkpt>
      <trkpt lat="43.09059" lon="0.47329">
        <ele>570.47822</ele>
        <time>2021-04-18T07:57:54.193Z</time>
      </trkpt>
      <trkpt lat="43.09062" lon="0.47311">
        <ele>569.978998</ele>
        <time>2021-04-18T07:57:57.186Z</time>
      </trkpt>
      <trkpt lat="43.09064" lon="0.47294">
        <ele>569.486861</ele>
        <time>2021-04-18T07:58:00.217Z</time>
      </trkpt>
      <trkpt lat="43.09067" lon="0.47278">
        <ele>569.020418</ele>
        <time>2021-04-18T07:58:03.174Z</time>
      </trkpt>
      <trkpt lat="43.0907" lon="0.47262">
        <ele>568.554845</ele>
        <time>2021-04-18T07:58:06.224Z</time>
      </trkpt>
      <trkpt lat="43.09074" lon="0.47247">
        <ele>568.112569</ele>
        <time>2021-04-18T07:58:09.182Z</time>
      </trkpt>
      <trkpt lat="43.09078" lon="0.47233">
        <ele>567.681855</ele>
        <time>2021-04-18T07:58:12.187Z</time>
      </trkpt>
      <trkpt lat="43.09083" lon="0.47218">
        <ele>567.266644</ele>
        <time>2021-04-18T07:58:15.187Z</time>
      </trkpt>
      <trkpt lat="43.09087" lon="0.47201">
        <ele>567.182173</ele>
        <time>2021-04-18T07:58:18.180Z</time>
      </trkpt>
      <trkpt lat="43.09091" lon="0.47183">
        <ele>567.09292</ele>
        <time>2021-04-18T07:58:21.199Z</time>
      </trkpt>
      <trkpt lat="43.09095" lon="0.47166">
        <ele>567.004401</ele>
        <time>2021-04-18T07:58:24.184Z</time>
      </trkpt>
      <trkpt lat="43.09099" lon="0.4715">
        <ele>566.920304</ele>
        <time>2021-04-18T07:58:27.180Z</time>
      </trkpt>
      <trkpt lat="43.09102" lon="0.47134">
        <ele>566.840361</ele>
        <time>2021-04-18T07:58:30.191Z</time>
      </trkpt>
      <trkpt lat="43.09105" lon="0.47118">
        <ele>566.762307</ele>
        <time>2021-04-18T07:58:33.180Z</time>
      </trkpt>
      <trkpt lat="43.09107" lon="0.47103">
        <ele>566.683584</ele>
        <time>2021-04-18T07:58:36.211Z</time>
      </trkpt>
      <trkpt lat="43.09109" lon="0.47087">
        <ele>566.604038</ele>
        <time>2021-04-18T07:58:39.184Z</time>
      </trkpt>
      <trkpt lat="43.09112" lon="0.4707">
        <ele>566.52283</ele>
        <time>2021-04-18T07:58:42.179Z</time>
      </trkpt>
      <trkpt lat="43.09115" lon="0.47054">
        <ele>566.441584</ele>
        <time>2021-04-18T07:58:45.194Z</time>
      </trkpt>
      <trkpt lat="43.09116" lon="0.47037">
        <ele>566.358174</ele>
        <time>2021-04-18T07:58:48.184Z</time>
      </trkpt>
      <trkpt lat="43.09118" lon="0.4702">
        <ele>566.272352</ele>
        <time>2021-04-18T07:58:51.202Z</time>
      </trkpt>
      <trkpt lat="43.0912" lon="0.47003">
        <ele>566.189906</ele>
        <time>2021-04-18T07:58:54.181Z</time>
      </trkpt>
      <trkpt lat="43.09122" lon="0.46987">
        <ele>566.109846</ele>
        <time>2021-04-18T07:58:57.190Z</time>
      </trkpt>
      <trkpt lat="43.09124" lon="0.46969">
        <ele>566.126446</ele>
        <time>2021-04-18T07:59:00.185Z</time>
      </trkpt>
      <trkpt lat="43.09127" lon="0.46952">
        <ele>566.207713</ele>
        <time>2021-04-18T07:59:03.185Z</time>
      </trkpt>
      <trkpt lat="43.09131" lon="0.46935">
        <ele>566.287488</ele>
        <time>2021-04-18T07:59:06.191Z</time>
      </trkpt>
      <trkpt lat="43.09133" lon="0.46919">
        <ele>566.366108</ele>
        <time>2021-04-18T07:59:09.189Z</time>
      </trkpt>
      <trkpt lat="43.09135" lon="0.46902">
        <ele>566.444605</ele>
        <time>2021-04-18T07:59:12.180Z</time>
      </trkpt>
      <trkpt lat="43.09138" lon="0.46885">
        <ele>566.522202</ele>
        <time>2021-04-18T07:59:15.212Z</time>
      </trkpt>
      <trkpt lat="43.09141" lon="0.46867">
        <ele>566.606279</ele>
        <time>2021-04-18T07:59:18.185Z</time>
      </trkpt>
      <trkpt lat="43.09142" lon="0.46855">
        <ele>566.662781</ele>
        <time>2021-04-18T07:59:20.216Z</time>
      </trkpt>
      <trkpt lat="43.09145" lon="0.46837">
        <ele>566.747305</ele>
        <time>2021-04-18T07:59:23.184Z</time>
      </trkpt>
      <trkpt lat="43.09146" lon="0.46824">
        <ele>566.806405</ele>
        <time>2021-04-18T07:59:25.220Z</time>
      </trkpt>
      <trkpt lat="43.09147" lon="0.46812">
        <ele>566.864725</ele>
        <time>2021-04-18T07:59:27.188Z</time>
      </trkpt>
      <trkpt lat="43.09147" lon="0.46795">
        <ele>566.93993</ele>
        <time>2021-04-18T07:59:30.190Z</time>
      </trkpt>
      <trkpt lat="43.09147" lon="0.46781">
        <ele>567.006926</ele>
        <time>2021-04-18T07:59:33.190Z</time>
      </trkpt>
      <trkpt lat="43.09148" lon="0.46767">
        <ele>567.072285</ele>
        <time>2021-04-18T07:59:36.173Z</time>
      </trkpt>
      <trkpt lat="43.09148" lon="0.4675">
        <ele>567.146122</ele>
        <time>2021-04-18T07:59:39.223Z</time>
      </trkpt>
      <trkpt lat="43.09149" lon="0.46734">
        <ele>567.220965</ele>
        <time>2021-04-18T07:59:42.174Z</time>
      </trkpt>
      <trkpt lat="43.0915" lon="0.46722">
        <ele>567.275712</ele>
        <time>2021-04-18T07:59:44.187Z</time>
      </trkpt>
      <trkpt lat="43.0915" lon="0.46708">
        <ele>567.33437</ele>
        <time>2021-04-18T07:59:46.214Z</time>
      </trkpt>
      <trkpt lat="43.0915" lon="0.46696">
        <ele>567.389847</ele>
        <time>2021-04-18T07:59:48.193Z</time>
      </trkpt>
      <trkpt lat="43.0915" lon="0.46679">
        <ele>567.461599</ele>
        <time>2021-04-18T07:59:51.218Z</time>
      </trkpt>
      <trkpt lat="43.0915" lon="0.46666">
        <ele>567.520257</ele>
        <time>2021-04-18T07:59:54.178Z</time>
      </trkpt>
      <trkpt lat="43.09151" lon="0.4665">
        <ele>567.593526</ele>
        <time>2021-04-18T07:59:57.193Z</time>
      </trkpt>
      <trkpt lat="43.09153" lon="0.46633">
        <ele>567.668186</ele>
        <time>2021-04-18T08:00:00.186Z</time>
      </trkpt>
      <trkpt lat="43.09155" lon="0.46619">
        <ele>567.732394</ele>
        <time>2021-04-18T08:00:03.178Z</time>
      </trkpt>
      <trkpt lat="43.09158" lon="0.466">
        <ele>567.81446</ele>
        <time>2021-04-18T08:00:06.185Z</time>
      </trkpt>
      <trkpt lat="43.09158" lon="0.46587">
        <ele>567.871011</ele>
        <time>2021-04-18T08:00:08.216Z</time>
      </trkpt>
      <trkpt lat="43.09159" lon="0.46575">
        <ele>567.927407</ele>
        <time>2021-04-18T08:00:10.207Z</time>
      </trkpt>
      <trkpt lat="43.09159" lon="0.46557">
        <ele>568.005764</ele>
        <time>2021-04-18T08:00:13.235Z</time>
      </trkpt>
      <trkpt lat="43.09162" lon="0.46544">
        <ele>568.066764</ele>
        <time>2021-04-18T08:00:16.169Z</time>
      </trkpt>
      <trkpt lat="43.09172" lon="0.46537">
        <ele>568.133871</ele>
        <time>2021-04-18T08:00:19.164Z</time>
      </trkpt>
      <trkpt lat="43.09181" lon="0.46532">
        <ele>568.194208</ele>
        <time>2021-04-18T08:00:22.180Z</time>
      </trkpt>
      <trkpt lat="43.09192" lon="0.46525">
        <ele>568.262029</ele>
        <time>2021-04-18T08:00:26.179Z</time>
      </trkpt>
      <trkpt lat="43.09203" lon="0.46521">
        <ele>568.74894</ele>
        <time>2021-04-18T08:00:30.182Z</time>
      </trkpt>
      <trkpt lat="43.09215" lon="0.46516">
        <ele>569.487408</ele>
        <time>2021-04-18T08:00:34.181Z</time>
      </trkpt>
      <trkpt lat="43.09226" lon="0.46512">
        <ele>570.213949</ele>
        <time>2021-04-18T08:00:38.178Z</time>
      </trkpt>
      <trkpt lat="43.09236" lon="0.46507">
        <ele>570.902316</ele>
        <time>2021-04-18T08:00:42.178Z</time>
      </trkpt>
      <trkpt lat="43.09246" lon="0.46502">
        <ele>571.555058</ele>
        <time>2021-04-18T08:00:46.200Z</time>
      </trkpt>
      <trkpt lat="43.09256" lon="0.46498">
        <ele>572.232895</ele>
        <time>2021-04-18T08:00:50.184Z</time>
      </trkpt>
      <trkpt lat="43.09267" lon="0.46494">
        <ele>572.914787</ele>
        <time>2021-04-18T08:00:54.185Z</time>
      </trkpt>
      <trkpt lat="43.09277" lon="0.46489">
        <ele>573.591221</ele>
        <time>2021-04-18T08:00:58.200Z</time>
      </trkpt>
      <trkpt lat="43.09287" lon="0.46485">
        <ele>574.244324</ele>
        <time>2021-04-18T08:01:02.184Z</time>
      </trkpt>
      <trkpt lat="43.09298" lon="0.46482">
        <ele>574.928731</ele>
        <time>2021-04-18T08:01:06.217Z</time>
      </trkpt>
      <trkpt lat="43.09309" lon="0.46476">
        <ele>575.656813</ele>
        <time>2021-04-18T08:01:10.176Z</time>
      </trkpt>
      <trkpt lat="43.0932" lon="0.46472">
        <ele>576.398059</ele>
        <time>2021-04-18T08:01:14.226Z</time>
      </trkpt>
      <trkpt lat="43.09329" lon="0.4647">
        <ele>576.966492</ele>
        <time>2021-04-18T08:01:17.185Z</time>
      </trkpt>
      <trkpt lat="43.09341" lon="0.46468">
        <ele>577.685576</ele>
        <time>2021-04-18T08:01:21.185Z</time>
      </trkpt>
      <trkpt lat="43.09351" lon="0.46468">
        <ele>578.330154</ele>
        <time>2021-04-18T08:01:25.176Z</time>
      </trkpt>
      <trkpt lat="43.09362" lon="0.46469">
        <ele>579.037521</ele>
        <time>2021-04-18T08:01:29.190Z</time>
      </trkpt>
      <trkpt lat="43.09372" lon="0.46471">
        <ele>579.704939</ele>
        <time>2021-04-18T08:01:33.188Z</time>
      </trkpt>
      <trkpt lat="43.09382" lon="0.46474">
        <ele>580.425966</ele>
        <time>2021-04-18T08:01:37.188Z</time>
      </trkpt>
      <trkpt lat="43.09392" lon="0.46475">
        <ele>581.14384</ele>
        <time>2021-04-18T08:01:41.212Z</time>
      </trkpt>
      <trkpt lat="43.09403" lon="0.46476">
        <ele>581.903406</ele>
        <time>2021-04-18T08:01:45.169Z</time>
      </trkpt>
      <trkpt lat="43.09412" lon="0.46478">
        <ele>582.627685</ele>
        <time>2021-04-18T08:01:49.185Z</time>
      </trkpt>
      <trkpt lat="43.09421" lon="0.46481">
        <ele>583.275934</ele>
        <time>2021-04-18T08:01:53.219Z</time>
      </trkpt>
      <trkpt lat="43.09432" lon="0.46484">
        <ele>584.097129</ele>
        <time>2021-04-18T08:01:58.207Z</time>
      </trkpt>
      <trkpt lat="43.09442" lon="0.46486">
        <ele>584.80631</ele>
        <time>2021-04-18T08:02:02.186Z</time>
      </trkpt>
      <trkpt lat="43.09452" lon="0.46488">
        <ele>585.489539</ele>
        <time>2021-04-18T08:02:06.197Z</time>
      </trkpt>
      <trkpt lat="43.09462" lon="0.46488">
        <ele>586.254124</ele>
        <time>2021-04-18T08:02:10.178Z</time>
      </trkpt>
      <trkpt lat="43.09472" lon="0.46489">
        <ele>586.995268</ele>
        <time>2021-04-18T08:02:14.175Z</time>
      </trkpt>
      <trkpt lat="43.09482" lon="0.46491">
        <ele>587.694899</ele>
        <time>2021-04-18T08:02:18.183Z</time>
      </trkpt>
      <trkpt lat="43.09492" lon="0.46491">
        <ele>588.401782</ele>
        <time>2021-04-18T08:02:22.216Z</time>
      </trkpt>
      <trkpt lat="43.09501" lon="0.4649">
        <ele>589.062893</ele>
        <time>2021-04-18T08:02:26.173Z</time>
      </trkpt>
      <trkpt lat="43.09511" lon="0.46485">
        <ele>589.852824</ele>
        <time>2021-04-18T08:02:31.174Z</time>
      </trkpt>
      <trkpt lat="43.0952" lon="0.46478">
        <ele>590.590505</ele>
        <time>2021-04-18T08:02:36.159Z</time>
      </trkpt>
      <trkpt lat="43.09529" lon="0.46469">
        <ele>591.373781</ele>
        <time>2021-04-18T08:02:41.191Z</time>
      </trkpt>
      <trkpt lat="43.09534" lon="0.46456">
        <ele>592.176439</ele>
        <time>2021-04-18T08:02:46.194Z</time>
      </trkpt>
      <trkpt lat="43.09538" lon="0.46443">
        <ele>592.780349</ele>
        <time>2021-04-18T08:02:50.179Z</time>
      </trkpt>
      <trkpt lat="43.09542" lon="0.46431">
        <ele>593.219921</ele>
        <time>2021-04-18T08:02:54.170Z</time>
      </trkpt>
      <trkpt lat="43.09548" lon="0.4642">
        <ele>593.665912</ele>
        <time>2021-04-18T08:02:58.172Z</time>
      </trkpt>
      <trkpt lat="43.09552" lon="0.46409">
        <ele>594.110829</ele>
        <time>2021-04-18T08:03:02.181Z</time>
      </trkpt>
      <trkpt lat="43.09557" lon="0.46395">
        <ele>594.624507</ele>
        <time>2021-04-18T08:03:07.188Z</time>
      </trkpt>
      <trkpt lat="43.09561" lon="0.46383">
        <ele>595.069408</ele>
        <time>2021-04-18T08:03:11.194Z</time>
      </trkpt>
      <trkpt lat="43.09566" lon="0.46372">
        <ele>595.497654</ele>
        <time>2021-04-18T08:03:15.217Z</time>
      </trkpt>
      <trkpt lat="43.09572" lon="0.46361">
        <ele>595.976522</ele>
        <time>2021-04-18T08:03:19.164Z</time>
      </trkpt>
      <trkpt lat="43.0958" lon="0.46349">
        <ele>596.525289</ele>
        <time>2021-04-18T08:03:23.214Z</time>
      </trkpt>
      <trkpt lat="43.09588" lon="0.46338">
        <ele>597.063198</ele>
        <time>2021-04-18T08:03:27.195Z</time>
      </trkpt>
      <trkpt lat="43.09597" lon="0.46328">
        <ele>597.564551</ele>
        <time>2021-04-18T08:03:31.217Z</time>
      </trkpt>
      <trkpt lat="43.09605" lon="0.46319">
        <ele>598.052686</ele>
        <time>2021-04-18T08:03:35.195Z</time>
      </trkpt>
      <trkpt lat="43.09613" lon="0.46311">
        <ele>598.525362</ele>
        <time>2021-04-18T08:03:39.178Z</time>
      </trkpt>
      <trkpt lat="43.09621" lon="0.46303">
        <ele>598.998345</ele>
        <time>2021-04-18T08:03:43.171Z</time>
      </trkpt>
      <trkpt lat="43.09628" lon="0.46294">
        <ele>599.430381</ele>
        <time>2021-04-18T08:03:47.171Z</time>
      </trkpt>
      <trkpt lat="43.09635" lon="0.46284">
        <ele>599.902688</ele>
        <time>2021-04-18T08:03:51.200Z</time>
      </trkpt>
      <trkpt lat="43.0964" lon="0.46272">
        <ele>600.376528</ele>
        <time>2021-04-18T08:03:55.194Z</time>
      </trkpt>
      <trkpt lat="43.09645" lon="0.4626">
        <ele>600.84674</ele>
        <time>2021-04-18T08:03:59.187Z</time>
      </trkpt>
      <trkpt lat="43.0965" lon="0.46248">
        <ele>601.655032</ele>
        <time>2021-04-18T08:04:03.224Z</time>
      </trkpt>
      <trkpt lat="43.09655" lon="0.46236">
        <ele>602.525543</ele>
        <time>2021-04-18T08:04:07.181Z</time>
      </trkpt>
      <trkpt lat="43.09659" lon="0.46224">
        <ele>603.345303</ele>
        <time>2021-04-18T08:04:11.183Z</time>
      </trkpt>
      <trkpt lat="43.09665" lon="0.46212">
        <ele>604.205103</ele>
        <time>2021-04-18T08:04:15.188Z</time>
      </trkpt>
      <trkpt lat="43.0967" lon="0.46201">
        <ele>605.043183</ele>
        <time>2021-04-18T08:04:19.224Z</time>
      </trkpt>
      <trkpt lat="43.09676" lon="0.46191">
        <ele>605.866791</ele>
        <time>2021-04-18T08:04:23.186Z</time>
      </trkpt>
      <trkpt lat="43.09683" lon="0.46181">
        <ele>606.69847</ele>
        <time>2021-04-18T08:04:27.174Z</time>
      </trkpt>
      <trkpt lat="43.09693" lon="0.46175">
        <ele>607.595896</ele>
        <time>2021-04-18T08:04:32.209Z</time>
      </trkpt>
      <trkpt lat="43.09703" lon="0.4617">
        <ele>608.542094</ele>
        <time>2021-04-18T08:04:37.167Z</time>
      </trkpt>
      <trkpt lat="43.09711" lon="0.46161">
        <ele>609.341838</ele>
        <time>2021-04-18T08:04:41.171Z</time>
      </trkpt>
      <trkpt lat="43.09716" lon="0.46151">
        <ele>610.114793</ele>
        <time>2021-04-18T08:04:45.198Z</time>
      </trkpt>
      <trkpt lat="43.0972" lon="0.4614">
        <ele>610.904924</ele>
        <time>2021-04-18T08:04:49.180Z</time>
      </trkpt>
      <trkpt lat="43.09724" lon="0.46128">
        <ele>611.723068</ele>
        <time>2021-04-18T08:04:53.166Z</time>
      </trkpt>
      <trkpt lat="43.09729" lon="0.46115">
        <ele>612.634202</ele>
        <time>2021-04-18T08:04:57.185Z</time>
      </trkpt>
      <trkpt lat="43.09735" lon="0.46102">
        <ele>613.573993</ele>
        <time>2021-04-18T08:05:01.182Z</time>
      </trkpt>
      <trkpt lat="43.0974" lon="0.46088">
        <ele>614.495505</ele>
        <time>2021-04-18T08:05:05.185Z</time>
      </trkpt>
      <trkpt lat="43.09744" lon="0.46075">
        <ele>615.399194</ele>
        <time>2021-04-18T08:05:09.209Z</time>
      </trkpt>
      <trkpt lat="43.09749" lon="0.46061">
        <ele>616.189633</ele>
        <time>2021-04-18T08:05:13.217Z</time>
      </trkpt>
      <trkpt lat="43.09753" lon="0.46048">
        <ele>616.556512</ele>
        <time>2021-04-18T08:05:17.183Z</time>
      </trkpt>
      <trkpt lat="43.09757" lon="0.46035">
        <ele>616.912209</ele>
        <time>2021-04-18T08:05:21.203Z</time>
      </trkpt>
      <trkpt lat="43.09761" lon="0.46023">
        <ele>617.252189</ele>
        <time>2021-04-18T08:05:25.178Z</time>
      </trkpt>
      <trkpt lat="43.09765" lon="0.4601">
        <ele>617.618585</ele>
        <time>2021-04-18T08:05:29.193Z</time>
      </trkpt>
      <trkpt lat="43.0977" lon="0.45996">
        <ele>618.017608</ele>
        <time>2021-04-18T08:05:33.203Z</time>
      </trkpt>
      <trkpt lat="43.09775" lon="0.45983">
        <ele>618.41177</ele>
        <time>2021-04-18T08:05:37.177Z</time>
      </trkpt>
      <trkpt lat="43.09779" lon="0.4597">
        <ele>618.77344</ele>
        <time>2021-04-18T08:05:41.177Z</time>
      </trkpt>
      <trkpt lat="43.09784" lon="0.45958">
        <ele>619.124704</ele>
        <time>2021-04-18T08:05:45.187Z</time>
      </trkpt>
      <trkpt lat="43.09791" lon="0.45948">
        <ele>619.477771</ele>
        <time>2021-04-18T08:05:49.246Z</time>
      </trkpt>
      <trkpt lat="43.09798" lon="0.45939">
        <ele>619.826261</ele>
        <time>2021-04-18T08:05:53.203Z</time>
      </trkpt>
      <trkpt lat="43.09807" lon="0.45932">
        <ele>620.2004</ele>
        <time>2021-04-18T08:05:58.219Z</time>
      </trkpt>
      <trkpt lat="43.09817" lon="0.45926">
        <ele>620.57488</ele>
        <time>2021-04-18T08:06:03.218Z</time>
      </trkpt>
      <trkpt lat="43.09827" lon="0.45921">
        <ele>620.945763</ele>
        <time>2021-04-18T08:06:08.188Z</time>
      </trkpt>
      <trkpt lat="43.09837" lon="0.45917">
        <ele>621.303978</ele>
        <time>2021-04-18T08:06:13.185Z</time>
      </trkpt>
      <trkpt lat="43.09845" lon="0.45913">
        <ele>621.629711</ele>
        <time>2021-04-18T08:06:17.162Z</time>
      </trkpt>
      <trkpt lat="43.09855" lon="0.45909">
        <ele>621.984039</ele>
        <time>2021-04-18T08:06:22.172Z</time>
      </trkpt>
      <trkpt lat="43.09866" lon="0.45906">
        <ele>622.38828</ele>
        <time>2021-04-18T08:06:27.220Z</time>
      </trkpt>
      <trkpt lat="43.09876" lon="0.45901">
        <ele>622.914372</ele>
        <time>2021-04-18T08:06:31.180Z</time>
      </trkpt>
      <trkpt lat="43.09885" lon="0.45897">
        <ele>623.397375</ele>
        <time>2021-04-18T08:06:35.176Z</time>
      </trkpt>
      <trkpt lat="43.09894" lon="0.45893">
        <ele>623.867032</ele>
        <time>2021-04-18T08:06:39.188Z</time>
      </trkpt>
      <trkpt lat="43.09903" lon="0.45887">
        <ele>624.367116</ele>
        <time>2021-04-18T08:06:43.165Z</time>
      </trkpt>
      <trkpt lat="43.09912" lon="0.45881">
        <ele>624.888245</ele>
        <time>2021-04-18T08:06:47.171Z</time>
      </trkpt>
      <trkpt lat="43.09922" lon="0.45872">
        <ele>625.484697</ele>
        <time>2021-04-18T08:06:51.183Z</time>
      </trkpt>
      <trkpt lat="43.09931" lon="0.45864">
        <ele>626.053971</ele>
        <time>2021-04-18T08:06:55.185Z</time>
      </trkpt>
      <trkpt lat="43.0994" lon="0.45858">
        <ele>626.580704</ele>
        <time>2021-04-18T08:06:59.180Z</time>
      </trkpt>
      <trkpt lat="43.0995" lon="0.45853">
        <ele>627.109062</ele>
        <time>2021-04-18T08:07:03.171Z</time>
      </trkpt>
      <trkpt lat="43.0996" lon="0.45851">
        <ele>627.602718</ele>
        <time>2021-04-18T08:07:07.181Z</time>
      </trkpt>
      <trkpt lat="43.0997" lon="0.4585">
        <ele>628.131074</ele>
        <time>2021-04-18T08:07:11.174Z</time>
      </trkpt>
      <trkpt lat="43.09981" lon="0.45851">
        <ele>628.680929</ele>
        <time>2021-04-18T08:07:15.180Z</time>
      </trkpt>
      <trkpt lat="43.09992" lon="0.45855">
        <ele>629.297406</ele>
        <time>2021-04-18T08:07:19.221Z</time>
      </trkpt>
      <trkpt lat="43.10002" lon="0.45859">
        <ele>629.818407</ele>
        <time>2021-04-18T08:07:23.178Z</time>
      </trkpt>
      <trkpt lat="43.10011" lon="0.45859">
        <ele>630.283164</ele>
        <time>2021-04-18T08:07:27.168Z</time>
      </trkpt>
      <trkpt lat="43.10019" lon="0.4585">
        <ele>630.82996</ele>
        <time>2021-04-18T08:07:31.165Z</time>
      </trkpt>
      <trkpt lat="43.10024" lon="0.45836">
        <ele>631.393272</ele>
        <time>2021-04-18T08:07:35.209Z</time>
      </trkpt>
      <trkpt lat="43.10027" lon="0.45823">
        <ele>631.385539</ele>
        <time>2021-04-18T08:07:38.196Z</time>
      </trkpt>
      <trkpt lat="43.1003" lon="0.4581">
        <ele>631.006355</ele>
        <time>2021-04-18T08:07:41.183Z</time>
      </trkpt>
      <trkpt lat="43.10033" lon="0.45799">
        <ele>630.640972</ele>
        <time>2021-04-18T08:07:44.183Z</time>
      </trkpt>
      <trkpt lat="43.10037" lon="0.45785">
        <ele>630.220954</ele>
        <time>2021-04-18T08:07:48.215Z</time>
      </trkpt>
      <trkpt lat="43.10042" lon="0.45771">
        <ele>629.779867</ele>
        <time>2021-04-18T08:07:52.194Z</time>
      </trkpt>
      <trkpt lat="43.10046" lon="0.45759">
        <ele>629.372716</ele>
        <time>2021-04-18T08:07:56.170Z</time>
      </trkpt>
      <trkpt lat="43.1005" lon="0.45746">
        <ele>628.985036</ele>
        <time>2021-04-18T08:08:00.181Z</time>
      </trkpt>
      <trkpt lat="43.10053" lon="0.45734">
        <ele>628.614206</ele>
        <time>2021-04-18T08:08:04.169Z</time>
      </trkpt>
      <trkpt lat="43.10058" lon="0.45721">
        <ele>628.166726</ele>
        <time>2021-04-18T08:08:10.163Z</time>
      </trkpt>
      <trkpt lat="43.10062" lon="0.45708">
        <ele>627.772697</ele>
        <time>2021-04-18T08:08:13.204Z</time>
      </trkpt>
      <trkpt lat="43.10064" lon="0.45694">
        <ele>627.360916</ele>
        <time>2021-04-18T08:08:16.199Z</time>
      </trkpt>
      <trkpt lat="43.10067" lon="0.45679">
        <ele>626.913408</ele>
        <time>2021-04-18T08:08:20.177Z</time>
      </trkpt>
      <trkpt lat="43.10069" lon="0.45667">
        <ele>626.542039</ele>
        <time>2021-04-18T08:08:23.224Z</time>
      </trkpt>
      <trkpt lat="43.10071" lon="0.45654">
        <ele>626.166513</ele>
        <time>2021-04-18T08:08:26.214Z</time>
      </trkpt>
      <trkpt lat="43.10073" lon="0.45642">
        <ele>625.793108</ele>
        <time>2021-04-18T08:08:29.184Z</time>
      </trkpt>
      <trkpt lat="43.10076" lon="0.45627">
        <ele>625.341662</ele>
        <time>2021-04-18T08:08:33.187Z</time>
      </trkpt>
      <trkpt lat="43.10081" lon="0.45612">
        <ele>624.886665</ele>
        <time>2021-04-18T08:08:37.190Z</time>
      </trkpt>
      <trkpt lat="43.10085" lon="0.456">
        <ele>624.485797</ele>
        <time>2021-04-18T08:08:40.186Z</time>
      </trkpt>
      <trkpt lat="43.10089" lon="0.45587">
        <ele>624.565812</ele>
        <time>2021-04-18T08:08:43.197Z</time>
      </trkpt>
      <trkpt lat="43.10092" lon="0.45575">
        <ele>624.672275</ele>
        <time>2021-04-18T08:08:46.186Z</time>
      </trkpt>
      <trkpt lat="43.10095" lon="0.45563">
        <ele>624.778738</ele>
        <time>2021-04-18T08:08:49.211Z</time>
      </trkpt>
      <trkpt lat="43.10098" lon="0.45551">
        <ele>624.881767</ele>
        <time>2021-04-18T08:08:52.183Z</time>
      </trkpt>
      <trkpt lat="43.10102" lon="0.45538">
        <ele>624.994336</ele>
        <time>2021-04-18T08:08:55.223Z</time>
      </trkpt>
      <trkpt lat="43.10105" lon="0.45524">
        <ele>625.111317</ele>
        <time>2021-04-18T08:08:58.197Z</time>
      </trkpt>
      <trkpt lat="43.10108" lon="0.45511">
        <ele>625.217223</ele>
        <time>2021-04-18T08:09:01.188Z</time>
      </trkpt>
      <trkpt lat="43.1011" lon="0.45499">
        <ele>625.320108</ele>
        <time>2021-04-18T08:09:04.185Z</time>
      </trkpt>
      <trkpt lat="43.10112" lon="0.45487">
        <ele>625.424571</ele>
        <time>2021-04-18T08:09:07.178Z</time>
      </trkpt>
      <trkpt lat="43.10114" lon="0.45474">
        <ele>625.530124</ele>
        <time>2021-04-18T08:09:10.218Z</time>
      </trkpt>
      <trkpt lat="43.10116" lon="0.45461">
        <ele>625.636825</ele>
        <time>2021-04-18T08:09:13.173Z</time>
      </trkpt>
      <trkpt lat="43.10117" lon="0.45448">
        <ele>625.741175</ele>
        <time>2021-04-18T08:09:16.191Z</time>
      </trkpt>
      <trkpt lat="43.10119" lon="0.45436">
        <ele>625.84329</ele>
        <time>2021-04-18T08:09:19.185Z</time>
      </trkpt>
      <trkpt lat="43.10121" lon="0.45423">
        <ele>625.949334</ele>
        <time>2021-04-18T08:09:22.184Z</time>
      </trkpt>
      <trkpt lat="43.10123" lon="0.4541">
        <ele>626.056429</ele>
        <time>2021-04-18T08:09:25.184Z</time>
      </trkpt>
      <trkpt lat="43.10125" lon="0.45398">
        <ele>626.159731</ele>
        <time>2021-04-18T08:09:28.197Z</time>
      </trkpt>
      <trkpt lat="43.10126" lon="0.45386">
        <ele>626.261847</ele>
        <time>2021-04-18T08:09:31.208Z</time>
      </trkpt>
      <trkpt lat="43.10128" lon="0.45373">
        <ele>626.361751</ele>
        <time>2021-04-18T08:09:34.179Z</time>
      </trkpt>
      <trkpt lat="43.10129" lon="0.4536">
        <ele>626.486485</ele>
        <time>2021-04-18T08:09:37.180Z</time>
      </trkpt>
      <trkpt lat="43.1013" lon="0.45345">
        <ele>626.745027</ele>
        <time>2021-04-18T08:09:40.180Z</time>
      </trkpt>
      <trkpt lat="43.1013" lon="0.45332">
        <ele>626.99062</ele>
        <time>2021-04-18T08:09:43.185Z</time>
      </trkpt>
      <trkpt lat="43.1013" lon="0.45318">
        <ele>627.236151</ele>
        <time>2021-04-18T08:09:46.183Z</time>
      </trkpt>
      <trkpt lat="43.10131" lon="0.45304">
        <ele>627.488961</ele>
        <time>2021-04-18T08:09:49.184Z</time>
      </trkpt>
      <trkpt lat="43.1013" lon="0.45291">
        <ele>627.731035</ele>
        <time>2021-04-18T08:09:52.186Z</time>
      </trkpt>
      <trkpt lat="43.1013" lon="0.45278">
        <ele>627.962195</ele>
        <time>2021-04-18T08:09:55.211Z</time>
      </trkpt>
      <trkpt lat="43.10131" lon="0.45265">
        <ele>628.201735</ele>
        <time>2021-04-18T08:09:58.188Z</time>
      </trkpt>
      <trkpt lat="43.10132" lon="0.45252">
        <ele>628.434095</ele>
        <time>2021-04-18T08:10:01.174Z</time>
      </trkpt>
      <trkpt lat="43.10133" lon="0.4524">
        <ele>628.660212</ele>
        <time>2021-04-18T08:10:04.179Z</time>
      </trkpt>
      <trkpt lat="43.10134" lon="0.45224">
        <ele>628.940686</ele>
        <time>2021-04-18T08:10:08.185Z</time>
      </trkpt>
      <trkpt lat="43.10133" lon="0.45209">
        <ele>629.211844</ele>
        <time>2021-04-18T08:10:12.162Z</time>
      </trkpt>
      <trkpt lat="43.10134" lon="0.45197">
        <ele>629.437957</ele>
        <time>2021-04-18T08:10:15.186Z</time>
      </trkpt>
      <trkpt lat="43.10135" lon="0.45183">
        <ele>629.679849</ele>
        <time>2021-04-18T08:10:18.196Z</time>
      </trkpt>
      <trkpt lat="43.10136" lon="0.4517">
        <ele>629.928368</ele>
        <time>2021-04-18T08:10:21.191Z</time>
      </trkpt>
      <trkpt lat="43.10137" lon="0.45157">
        <ele>630.164886</ele>
        <time>2021-04-18T08:10:24.195Z</time>
      </trkpt>
      <trkpt lat="43.10139" lon="0.45144">
        <ele>630.393937</ele>
        <time>2021-04-18T08:10:27.194Z</time>
      </trkpt>
      <trkpt lat="43.10139" lon="0.45131">
        <ele>630.626901</ele>
        <time>2021-04-18T08:10:30.179Z</time>
      </trkpt>
      <trkpt lat="43.1014" lon="0.45118">
        <ele>630.860808</ele>
        <time>2021-04-18T08:10:33.179Z</time>
      </trkpt>
      <trkpt lat="43.1014" lon="0.45102">
        <ele>630.848065</ele>
        <time>2021-04-18T08:10:37.169Z</time>
      </trkpt>
      <trkpt lat="43.10141" lon="0.45089">
        <ele>630.78617</ele>
        <time>2021-04-18T08:10:40.177Z</time>
      </trkpt>
      <trkpt lat="43.10142" lon="0.45076">
        <ele>630.724058</ele>
        <time>2021-04-18T08:10:43.177Z</time>
      </trkpt>
      <trkpt lat="43.10143" lon="0.45063">
        <ele>630.664435</ele>
        <time>2021-04-18T08:10:46.191Z</time>
      </trkpt>
      <trkpt lat="43.10144" lon="0.45047">
        <ele>630.586591</ele>
        <time>2021-04-18T08:10:50.174Z</time>
      </trkpt>
      <trkpt lat="43.10145" lon="0.45034">
        <ele>630.523597</ele>
        <time>2021-04-18T08:10:53.197Z</time>
      </trkpt>
      <trkpt lat="43.10146" lon="0.45021">
        <ele>630.462022</ele>
        <time>2021-04-18T08:10:56.217Z</time>
      </trkpt>
      <trkpt lat="43.10147" lon="0.45007">
        <ele>630.39693</ele>
        <time>2021-04-18T08:10:59.186Z</time>
      </trkpt>
      <trkpt lat="43.10148" lon="0.44993">
        <ele>630.328309</ele>
        <time>2021-04-18T08:11:02.185Z</time>
      </trkpt>
      <trkpt lat="43.10148" lon="0.44979">
        <ele>630.260636</ele>
        <time>2021-04-18T08:11:05.212Z</time>
      </trkpt>
      <trkpt lat="43.10149" lon="0.44966">
        <ele>630.197642</ele>
        <time>2021-04-18T08:11:08.196Z</time>
      </trkpt>
      <trkpt lat="43.1015" lon="0.44953">
        <ele>630.137736</ele>
        <time>2021-04-18T08:11:11.189Z</time>
      </trkpt>
      <trkpt lat="43.10152" lon="0.44941">
        <ele>630.078383</ele>
        <time>2021-04-18T08:11:14.175Z</time>
      </trkpt>
      <trkpt lat="43.10152" lon="0.44926">
        <ele>630.009236</ele>
        <time>2021-04-18T08:11:18.183Z</time>
      </trkpt>
      <trkpt lat="43.10154" lon="0.4491">
        <ele>629.930617</ele>
        <time>2021-04-18T08:11:22.227Z</time>
      </trkpt>
      <trkpt lat="43.10155" lon="0.44897">
        <ele>629.869515</ele>
        <time>2021-04-18T08:11:25.178Z</time>
      </trkpt>
      <trkpt lat="43.10155" lon="0.44883">
        <ele>629.804812</ele>
        <time>2021-04-18T08:11:28.185Z</time>
      </trkpt>
      <trkpt lat="43.10156" lon="0.44869">
        <ele>629.749989</ele>
        <time>2021-04-18T08:11:31.164Z</time>
      </trkpt>
      <trkpt lat="43.10156" lon="0.44854">
        <ele>629.840855</ele>
        <time>2021-04-18T08:11:34.181Z</time>
      </trkpt>
      <trkpt lat="43.10157" lon="0.4484">
        <ele>629.929801</ele>
        <time>2021-04-18T08:11:37.185Z</time>
      </trkpt>
      <trkpt lat="43.10157" lon="0.44826">
        <ele>630.018908</ele>
        <time>2021-04-18T08:11:40.175Z</time>
      </trkpt>
      <trkpt lat="43.10158" lon="0.44812">
        <ele>630.105913</ele>
        <time>2021-04-18T08:11:43.176Z</time>
      </trkpt>
      <trkpt lat="43.10158" lon="0.44797">
        <ele>630.196044</ele>
        <time>2021-04-18T08:11:46.206Z</time>
      </trkpt>
      <trkpt lat="43.10159" lon="0.44783">
        <ele>630.285089</ele>
        <time>2021-04-18T08:11:49.173Z</time>
      </trkpt>
      <trkpt lat="43.10159" lon="0.44769">
        <ele>630.374706</ele>
        <time>2021-04-18T08:11:52.208Z</time>
      </trkpt>
      <trkpt lat="43.10159" lon="0.44755">
        <ele>630.460425</ele>
        <time>2021-04-18T08:11:55.203Z</time>
      </trkpt>
      <trkpt lat="43.10159" lon="0.44741">
        <ele>630.548168</ele>
        <time>2021-04-18T08:11:58.197Z</time>
      </trkpt>
      <trkpt lat="43.1016" lon="0.44727">
        <ele>630.640394</ele>
        <time>2021-04-18T08:12:01.165Z</time>
      </trkpt>
      <trkpt lat="43.10161" lon="0.44712">
        <ele>630.730195</ele>
        <time>2021-04-18T08:12:04.183Z</time>
      </trkpt>
      <trkpt lat="43.10162" lon="0.44699">
        <ele>630.813847</ele>
        <time>2021-04-18T08:12:07.165Z</time>
      </trkpt>
      <trkpt lat="43.10163" lon="0.44685">
        <ele>630.90204</ele>
        <time>2021-04-18T08:12:10.170Z</time>
      </trkpt>
      <trkpt lat="43.10164" lon="0.4467">
        <ele>630.993442</ele>
        <time>2021-04-18T08:12:13.173Z</time>
      </trkpt>
      <trkpt lat="43.10165" lon="0.44656">
        <ele>631.08332</ele>
        <time>2021-04-18T08:12:16.177Z</time>
      </trkpt>
      <trkpt lat="43.10166" lon="0.44642">
        <ele>631.171417</ele>
        <time>2021-04-18T08:12:19.175Z</time>
      </trkpt>
      <trkpt lat="43.10167" lon="0.44628">
        <ele>631.260232</ele>
        <time>2021-04-18T08:12:22.166Z</time>
      </trkpt>
      <trkpt lat="43.10167" lon="0.44614">
        <ele>631.428805</ele>
        <time>2021-04-18T08:12:25.186Z</time>
      </trkpt>
      <trkpt lat="43.10168" lon="0.446">
        <ele>631.619544</ele>
        <time>2021-04-18T08:12:28.185Z</time>
      </trkpt>
      <trkpt lat="43.10169" lon="0.44586">
        <ele>631.804398</ele>
        <time>2021-04-18T08:12:31.190Z</time>
      </trkpt>
      <trkpt lat="43.10169" lon="0.44572">
        <ele>631.991903</ele>
        <time>2021-04-18T08:12:34.189Z</time>
      </trkpt>
      <trkpt lat="43.10169" lon="0.44559">
        <ele>632.172967</ele>
        <time>2021-04-18T08:12:37.186Z</time>
      </trkpt>
      <trkpt lat="43.1017" lon="0.44545">
        <ele>632.362685</ele>
        <time>2021-04-18T08:12:40.181Z</time>
      </trkpt>
      <trkpt lat="43.10172" lon="0.44531">
        <ele>632.549805</ele>
        <time>2021-04-18T08:12:43.208Z</time>
      </trkpt>
      <trkpt lat="43.10172" lon="0.44517">
        <ele>632.735934</ele>
        <time>2021-04-18T08:12:46.192Z</time>
      </trkpt>
      <trkpt lat="43.10172" lon="0.44503">
        <ele>632.927528</ele>
        <time>2021-04-18T08:12:49.183Z</time>
      </trkpt>
      <trkpt lat="43.10172" lon="0.4449">
        <ele>633.105565</ele>
        <time>2021-04-18T08:12:52.186Z</time>
      </trkpt>
      <trkpt lat="43.10173" lon="0.44476">
        <ele>633.287976</ele>
        <time>2021-04-18T08:12:55.171Z</time>
      </trkpt>
      <trkpt lat="43.10172" lon="0.44463">
        <ele>633.471992</ele>
        <time>2021-04-18T08:12:58.188Z</time>
      </trkpt>
      <trkpt lat="43.10172" lon="0.44449">
        <ele>633.658258</ele>
        <time>2021-04-18T08:13:01.217Z</time>
      </trkpt>
      <trkpt lat="43.10173" lon="0.44435">
        <ele>633.839925</ele>
        <time>2021-04-18T08:13:04.169Z</time>
      </trkpt>
      <trkpt lat="43.10173" lon="0.44422">
        <ele>634.017962</ele>
        <time>2021-04-18T08:13:07.187Z</time>
      </trkpt>
      <trkpt lat="43.10174" lon="0.44409">
        <ele>634.20097</ele>
        <time>2021-04-18T08:13:10.210Z</time>
      </trkpt>
      <trkpt lat="43.10174" lon="0.44394">
        <ele>634.404656</ele>
        <time>2021-04-18T08:13:13.189Z</time>
      </trkpt>
      <trkpt lat="43.10174" lon="0.44379">
        <ele>634.604296</ele>
        <time>2021-04-18T08:13:16.184Z</time>
      </trkpt>
      <trkpt lat="43.10173" lon="0.44364">
        <ele>634.850789</ele>
        <time>2021-04-18T08:13:19.218Z</time>
      </trkpt>
      <trkpt lat="43.10173" lon="0.44349">
        <ele>635.079676</ele>
        <time>2021-04-18T08:13:22.205Z</time>
      </trkpt>
      <trkpt lat="43.10173" lon="0.44335">
        <ele>635.319786</ele>
        <time>2021-04-18T08:13:25.223Z</time>
      </trkpt>
      <trkpt lat="43.10173" lon="0.4432">
        <ele>635.553462</ele>
        <time>2021-04-18T08:13:28.197Z</time>
      </trkpt>
      <trkpt lat="43.10173" lon="0.44306">
        <ele>635.78222</ele>
        <time>2021-04-18T08:13:31.219Z</time>
      </trkpt>
      <trkpt lat="43.10172" lon="0.44292">
        <ele>636.0126</ele>
        <time>2021-04-18T08:13:34.185Z</time>
      </trkpt>
      <trkpt lat="43.10172" lon="0.44278">
        <ele>636.23537</ele>
        <time>2021-04-18T08:13:37.197Z</time>
      </trkpt>
      <trkpt lat="43.10172" lon="0.44264">
        <ele>636.472455</ele>
        <time>2021-04-18T08:13:40.199Z</time>
      </trkpt>
      <trkpt lat="43.10172" lon="0.44249">
        <ele>636.704457</ele>
        <time>2021-04-18T08:13:43.182Z</time>
      </trkpt>
      <trkpt lat="43.10173" lon="0.44235">
        <ele>636.929971</ele>
        <time>2021-04-18T08:13:46.215Z</time>
      </trkpt>
      <trkpt lat="43.10173" lon="0.44222">
        <ele>637.152242</ele>
        <time>2021-04-18T08:13:49.209Z</time>
      </trkpt>
      <trkpt lat="43.10173" lon="0.44208">
        <ele>637.371224</ele>
        <time>2021-04-18T08:13:52.174Z</time>
      </trkpt>
      <trkpt lat="43.10172" lon="0.44195">
        <ele>637.587145</ele>
        <time>2021-04-18T08:13:55.178Z</time>
      </trkpt>
      <trkpt lat="43.10172" lon="0.44183">
        <ele>637.78686</ele>
        <time>2021-04-18T08:13:58.221Z</time>
      </trkpt>
      <trkpt lat="43.10173" lon="0.4417">
        <ele>637.992015</ele>
        <time>2021-04-18T08:14:01.157Z</time>
      </trkpt>
      <trkpt lat="43.10177" lon="0.44155">
        <ele>638.253339</ele>
        <time>2021-04-18T08:14:05.159Z</time>
      </trkpt>
      <trkpt lat="43.1018" lon="0.44143">
        <ele>638.457602</ele>
        <time>2021-04-18T08:14:08.178Z</time>
      </trkpt>
      <trkpt lat="43.10183" lon="0.4413">
        <ele>638.611213</ele>
        <time>2021-04-18T08:14:11.156Z</time>
      </trkpt>
      <trkpt lat="43.10185" lon="0.44116">
        <ele>638.642946</ele>
        <time>2021-04-18T08:14:14.184Z</time>
      </trkpt>
      <trkpt lat="43.10188" lon="0.44102">
        <ele>638.675105</ele>
        <time>2021-04-18T08:14:17.188Z</time>
      </trkpt>
      <trkpt lat="43.10191" lon="0.44088">
        <ele>638.708092</ele>
        <time>2021-04-18T08:14:20.181Z</time>
      </trkpt>
      <trkpt lat="43.10193" lon="0.44074">
        <ele>638.740041</ele>
        <time>2021-04-18T08:14:23.179Z</time>
      </trkpt>
      <trkpt lat="43.10196" lon="0.4406">
        <ele>638.770912</ele>
        <time>2021-04-18T08:14:26.215Z</time>
      </trkpt>
      <trkpt lat="43.10198" lon="0.44046">
        <ele>638.802085</ele>
        <time>2021-04-18T08:14:29.206Z</time>
      </trkpt>
      <trkpt lat="43.102" lon="0.44033">
        <ele>638.833171</ele>
        <time>2021-04-18T08:14:32.213Z</time>
      </trkpt>
      <trkpt lat="43.10202" lon="0.44019">
        <ele>638.864226</ele>
        <time>2021-04-18T08:14:35.188Z</time>
      </trkpt>
      <trkpt lat="43.10205" lon="0.44005">
        <ele>638.896325</ele>
        <time>2021-04-18T08:14:38.184Z</time>
      </trkpt>
      <trkpt lat="43.10207" lon="0.43991">
        <ele>638.928852</ele>
        <time>2021-04-18T08:14:41.212Z</time>
      </trkpt>
      <trkpt lat="43.10209" lon="0.43977">
        <ele>638.959969</ele>
        <time>2021-04-18T08:14:44.184Z</time>
      </trkpt>
      <trkpt lat="43.10211" lon="0.43964">
        <ele>638.989392</ele>
        <time>2021-04-18T08:14:47.189Z</time>
      </trkpt>
      <trkpt lat="43.10213" lon="0.4395">
        <ele>639.020628</ele>
        <time>2021-04-18T08:14:50.170Z</time>
      </trkpt>
      <trkpt lat="43.10215" lon="0.43937">
        <ele>639.04967</ele>
        <time>2021-04-18T08:14:53.189Z</time>
      </trkpt>
      <trkpt lat="43.10217" lon="0.43921">
        <ele>639.085702</ele>
        <time>2021-04-18T08:14:57.178Z</time>
      </trkpt>
      <trkpt lat="43.10221" lon="0.43906">
        <ele>639.120714</ele>
        <time>2021-04-18T08:15:01.171Z</time>
      </trkpt>
      <trkpt lat="43.10225" lon="0.4389">
        <ele>639.285352</ele>
        <time>2021-04-18T08:15:05.185Z</time>
      </trkpt>
      <trkpt lat="43.10227" lon="0.43877">
        <ele>639.596382</ele>
        <time>2021-04-18T08:15:08.184Z</time>
      </trkpt>
      <trkpt lat="43.1023" lon="0.43865">
        <ele>639.914369</ele>
        <time>2021-04-18T08:15:11.190Z</time>
      </trkpt>
      <trkpt lat="43.10234" lon="0.43852">
        <ele>640.25294</ele>
        <time>2021-04-18T08:15:14.179Z</time>
      </trkpt>
      <trkpt lat="43.10237" lon="0.4384">
        <ele>640.556149</ele>
        <time>2021-04-18T08:15:17.219Z</time>
      </trkpt>
      <trkpt lat="43.10241" lon="0.43826">
        <ele>640.923101</ele>
        <time>2021-04-18T08:15:21.235Z</time>
      </trkpt>
      <trkpt lat="43.10244" lon="0.43811">
        <ele>641.302949</ele>
        <time>2021-04-18T08:15:25.220Z</time>
      </trkpt>
      <trkpt lat="43.10246" lon="0.43796">
        <ele>641.663951</ele>
        <time>2021-04-18T08:15:29.190Z</time>
      </trkpt>
      <trkpt lat="43.1025" lon="0.43781">
        <ele>642.059154</ele>
        <time>2021-04-18T08:15:33.209Z</time>
      </trkpt>
      <trkpt lat="43.10252" lon="0.43767">
        <ele>642.385795</ele>
        <time>2021-04-18T08:15:36.166Z</time>
      </trkpt>
      <trkpt lat="43.10254" lon="0.43754">
        <ele>642.707411</ele>
        <time>2021-04-18T08:15:39.187Z</time>
      </trkpt>
      <trkpt lat="43.10256" lon="0.43742">
        <ele>643.012088</ele>
        <time>2021-04-18T08:15:42.181Z</time>
      </trkpt>
      <trkpt lat="43.10258" lon="0.4373">
        <ele>643.312795</ele>
        <time>2021-04-18T08:15:45.184Z</time>
      </trkpt>
      <trkpt lat="43.1026" lon="0.43715">
        <ele>643.685106</ele>
        <time>2021-04-18T08:15:49.228Z</time>
      </trkpt>
      <trkpt lat="43.10261" lon="0.43701">
        <ele>644.026326</ele>
        <time>2021-04-18T08:15:53.218Z</time>
      </trkpt>
      <trkpt lat="43.10262" lon="0.43686">
        <ele>644.385199</ele>
        <time>2021-04-18T08:15:57.187Z</time>
      </trkpt>
      <trkpt lat="43.10264" lon="0.4367">
        <ele>644.764671</ele>
        <time>2021-04-18T08:16:01.217Z</time>
      </trkpt>
      <trkpt lat="43.10266" lon="0.43655">
        <ele>645.123955</ele>
        <time>2021-04-18T08:16:05.184Z</time>
      </trkpt>
      <trkpt lat="43.10268" lon="0.4364">
        <ele>645.298392</ele>
        <time>2021-04-18T08:16:09.183Z</time>
      </trkpt>
      <trkpt lat="43.10269" lon="0.43624">
        <ele>645.471758</ele>
        <time>2021-04-18T08:16:13.182Z</time>
      </trkpt>
      <trkpt lat="43.1027" lon="0.43609">
        <ele>645.647024</ele>
        <time>2021-04-18T08:16:17.190Z</time>
      </trkpt>
      <trkpt lat="43.10271" lon="0.43596">
        <ele>645.789764</ele>
        <time>2021-04-18T08:16:20.183Z</time>
      </trkpt>
      <trkpt lat="43.10271" lon="0.43584">
        <ele>645.929923</ele>
        <time>2021-04-18T08:16:23.186Z</time>
      </trkpt>
      <trkpt lat="43.10272" lon="0.43568">
        <ele>646.108408</ele>
        <time>2021-04-18T08:16:27.179Z</time>
      </trkpt>
      <trkpt lat="43.10271" lon="0.43555">
        <ele>646.251773</ele>
        <time>2021-04-18T08:16:30.180Z</time>
      </trkpt>
      <trkpt lat="43.10272" lon="0.43543">
        <ele>646.392983</ele>
        <time>2021-04-18T08:16:33.171Z</time>
      </trkpt>
      <trkpt lat="43.10274" lon="0.4353">
        <ele>646.53899</ele>
        <time>2021-04-18T08:16:36.185Z</time>
      </trkpt>
      <trkpt lat="43.10275" lon="0.43517">
        <ele>646.687294</ele>
        <time>2021-04-18T08:16:39.188Z</time>
      </trkpt>
      <trkpt lat="43.10276" lon="0.43503">
        <ele>646.844536</ele>
        <time>2021-04-18T08:16:42.217Z</time>
      </trkpt>
      <trkpt lat="43.10277" lon="0.4349">
        <ele>646.996052</ele>
        <time>2021-04-18T08:16:45.183Z</time>
      </trkpt>
      <trkpt lat="43.10278" lon="0.43476">
        <ele>647.148796</ele>
        <time>2021-04-18T08:16:48.182Z</time>
      </trkpt>
      <trkpt lat="43.10278" lon="0.43464">
        <ele>647.288818</ele>
        <time>2021-04-18T08:16:51.182Z</time>
      </trkpt>
      <trkpt lat="43.10278" lon="0.43451">
        <ele>647.433352</ele>
        <time>2021-04-18T08:16:54.180Z</time>
      </trkpt>
      <trkpt lat="43.10279" lon="0.43438">
        <ele>647.578019</ele>
        <time>2021-04-18T08:16:57.179Z</time>
      </trkpt>
      <trkpt lat="43.1028" lon="0.43426">
        <ele>647.71851</ele>
        <time>2021-04-18T08:17:00.182Z</time>
      </trkpt>
      <trkpt lat="43.1028" lon="0.43413">
        <ele>647.862514</ele>
        <time>2021-04-18T08:17:03.190Z</time>
      </trkpt>
      <trkpt lat="43.10281" lon="0.43398">
        <ele>648.106564</ele>
        <time>2021-04-18T08:17:07.185Z</time>
      </trkpt>
      <trkpt lat="43.10283" lon="0.43385">
        <ele>648.330693</ele>
        <time>2021-04-18T08:17:11.183Z</time>
      </trkpt>
      <trkpt lat="43.10285" lon="0.43372">
        <ele>648.541296</ele>
        <time>2021-04-18T08:17:14.180Z</time>
      </trkpt>
      <trkpt lat="43.10285" lon="0.4336">
        <ele>648.750786</ele>
        <time>2021-04-18T08:17:17.187Z</time>
      </trkpt>
      <trkpt lat="43.10285" lon="0.43347">
        <ele>648.957555</ele>
        <time>2021-04-18T08:17:20.195Z</time>
      </trkpt>
      <trkpt lat="43.10286" lon="0.43332">
        <ele>649.206533</ele>
        <time>2021-04-18T08:17:24.184Z</time>
      </trkpt>
      <trkpt lat="43.10286" lon="0.43319">
        <ele>649.424372</ele>
        <time>2021-04-18T08:17:27.183Z</time>
      </trkpt>
      <trkpt lat="43.10286" lon="0.43306">
        <ele>649.650761</ele>
        <time>2021-04-18T08:17:30.204Z</time>
      </trkpt>
      <trkpt lat="43.10286" lon="0.43292">
        <ele>649.875213</ele>
        <time>2021-04-18T08:17:33.186Z</time>
      </trkpt>
      <trkpt lat="43.10286" lon="0.43278">
        <ele>650.106483</ele>
        <time>2021-04-18T08:17:36.170Z</time>
      </trkpt>
      <trkpt lat="43.10286" lon="0.43264">
        <ele>650.342737</ele>
        <time>2021-04-18T08:17:39.168Z</time>
      </trkpt>
      <trkpt lat="43.10285" lon="0.4325">
        <ele>650.574231</ele>
        <time>2021-04-18T08:17:42.194Z</time>
      </trkpt>
      <trkpt lat="43.10285" lon="0.43237">
        <ele>650.800747</ele>
        <time>2021-04-18T08:17:45.189Z</time>
      </trkpt>
      <trkpt lat="43.10283" lon="0.43224">
        <ele>651.011717</ele>
        <time>2021-04-18T08:17:48.189Z</time>
      </trkpt>
      <trkpt lat="43.10283" lon="0.43208">
        <ele>651.27156</ele>
        <time>2021-04-18T08:17:52.175Z</time>
      </trkpt>
      <trkpt lat="43.10283" lon="0.43193">
        <ele>651.531073</ele>
        <time>2021-04-18T08:17:56.177Z</time>
      </trkpt>
      <trkpt lat="43.10283" lon="0.4318">
        <ele>651.74086</ele>
        <time>2021-04-18T08:17:59.172Z</time>
      </trkpt>
      <trkpt lat="43.10282" lon="0.43167">
        <ele>651.955917</ele>
        <time>2021-04-18T08:18:02.194Z</time>
      </trkpt>
      <trkpt lat="43.10281" lon="0.43154">
        <ele>652.007645</ele>
        <time>2021-04-18T08:18:05.183Z</time>
      </trkpt>
      <trkpt lat="43.10282" lon="0.43142">
        <ele>652.040136</ele>
        <time>2021-04-18T08:18:08.198Z</time>
      </trkpt>
      <trkpt lat="43.10281" lon="0.43129">
        <ele>652.073192</ele>
        <time>2021-04-18T08:18:11.188Z</time>
      </trkpt>
      <trkpt lat="43.10281" lon="0.43117">
        <ele>652.105653</ele>
        <time>2021-04-18T08:18:14.183Z</time>
      </trkpt>
      <trkpt lat="43.10281" lon="0.43104">
        <ele>652.138363</ele>
        <time>2021-04-18T08:18:17.219Z</time>
      </trkpt>
      <trkpt lat="43.1028" lon="0.43088">
        <ele>652.180531</ele>
        <time>2021-04-18T08:18:21.180Z</time>
      </trkpt>
      <trkpt lat="43.10279" lon="0.43075">
        <ele>652.214538</ele>
        <time>2021-04-18T08:18:24.178Z</time>
      </trkpt>
      <trkpt lat="43.10279" lon="0.43062">
        <ele>652.248828</ele>
        <time>2021-04-18T08:18:27.204Z</time>
      </trkpt>
      <trkpt lat="43.10279" lon="0.43045">
        <ele>652.290875</ele>
        <time>2021-04-18T08:18:31.208Z</time>
      </trkpt>
      <trkpt lat="43.10279" lon="0.43032">
        <ele>652.325921</ele>
        <time>2021-04-18T08:18:34.188Z</time>
      </trkpt>
      <trkpt lat="43.10279" lon="0.43018">
        <ele>652.362273</ele>
        <time>2021-04-18T08:18:37.201Z</time>
      </trkpt>
      <trkpt lat="43.10278" lon="0.43004">
        <ele>652.3974</ele>
        <time>2021-04-18T08:18:40.179Z</time>
      </trkpt>
      <trkpt lat="43.10278" lon="0.42992">
        <ele>652.429891</ele>
        <time>2021-04-18T08:18:43.159Z</time>
      </trkpt>
      <trkpt lat="43.10277" lon="0.42979">
        <ele>652.463908</ele>
        <time>2021-04-18T08:18:46.187Z</time>
      </trkpt>
      <trkpt lat="43.10277" lon="0.42965">
        <ele>652.499271</ele>
        <time>2021-04-18T08:18:49.184Z</time>
      </trkpt>
      <trkpt lat="43.10277" lon="0.42952">
        <ele>652.534079</ele>
        <time>2021-04-18T08:18:52.183Z</time>
      </trkpt>
      <trkpt lat="43.10277" lon="0.42938">
        <ele>652.570676</ele>
        <time>2021-04-18T08:18:55.185Z</time>
      </trkpt>
      <trkpt lat="43.10277" lon="0.42924">
        <ele>652.607028</ele>
        <time>2021-04-18T08:18:58.185Z</time>
      </trkpt>
      <trkpt lat="43.10278" lon="0.42911">
        <ele>652.866988</ele>
        <time>2021-04-18T08:19:01.210Z</time>
      </trkpt>
      <trkpt lat="43.10279" lon="0.42898">
        <ele>653.234551</ele>
        <time>2021-04-18T08:19:04.198Z</time>
      </trkpt>
      <trkpt lat="43.10279" lon="0.42885">
        <ele>653.585126</ele>
        <time>2021-04-18T08:19:07.208Z</time>
      </trkpt>
      <trkpt lat="43.10278" lon="0.4287">
        <ele>654.024315</ele>
        <time>2021-04-18T08:19:11.185Z</time>
      </trkpt>
      <trkpt lat="43.10276" lon="0.42855">
        <ele>654.426811</ele>
        <time>2021-04-18T08:19:14.218Z</time>
      </trkpt>
      <trkpt lat="43.10275" lon="0.42839">
        <ele>654.868389</ele>
        <time>2021-04-18T08:19:17.193Z</time>
      </trkpt>
      <trkpt lat="43.10274" lon="0.42825">
        <ele>655.264944</ele>
        <time>2021-04-18T08:19:20.159Z</time>
      </trkpt>
      <trkpt lat="43.10275" lon="0.42808">
        <ele>655.735889</ele>
        <time>2021-04-18T08:19:23.179Z</time>
      </trkpt>
      <trkpt lat="43.10274" lon="0.42793">
        <ele>656.167278</ele>
        <time>2021-04-18T08:19:26.193Z</time>
      </trkpt>
      <trkpt lat="43.10274" lon="0.42778">
        <ele>656.590444</ele>
        <time>2021-04-18T08:19:29.177Z</time>
      </trkpt>
      <trkpt lat="43.10272" lon="0.42762">
        <ele>657.022695</ele>
        <time>2021-04-18T08:19:32.178Z</time>
      </trkpt>
      <trkpt lat="43.10271" lon="0.4275">
        <ele>657.382628</ele>
        <time>2021-04-18T08:19:35.217Z</time>
      </trkpt>
      <trkpt lat="43.10268" lon="0.42736">
        <ele>657.780561</ele>
        <time>2021-04-18T08:19:38.175Z</time>
      </trkpt>
      <trkpt lat="43.10265" lon="0.42721">
        <ele>658.197781</ele>
        <time>2021-04-18T08:19:41.184Z</time>
      </trkpt>
      <trkpt lat="43.10261" lon="0.42707">
        <ele>658.621164</ele>
        <time>2021-04-18T08:19:44.186Z</time>
      </trkpt>
      <trkpt lat="43.10258" lon="0.42693">
        <ele>659.024004</ele>
        <time>2021-04-18T08:19:47.178Z</time>
      </trkpt>
      <trkpt lat="43.10255" lon="0.42677">
        <ele>659.459738</ele>
        <time>2021-04-18T08:19:50.210Z</time>
      </trkpt>
      <trkpt lat="43.10254" lon="0.42661">
        <ele>659.233229</ele>
        <time>2021-04-18T08:19:52.229Z</time>
      </trkpt>
      <trkpt lat="43.10253" lon="0.42646">
        <ele>659.021283</ele>
        <time>2021-04-18T08:19:54.184Z</time>
      </trkpt>
      <trkpt lat="43.10252" lon="0.42632">
        <ele>658.822134</ele>
        <time>2021-04-18T08:19:56.221Z</time>
      </trkpt>
      <trkpt lat="43.10251" lon="0.42616">
        <ele>658.584715</ele>
        <time>2021-04-18T08:19:59.187Z</time>
      </trkpt>
      <trkpt lat="43.10249" lon="0.42601">
        <ele>658.366043</ele>
        <time>2021-04-18T08:20:02.184Z</time>
      </trkpt>
      <trkpt lat="43.10247" lon="0.42585">
        <ele>658.135091</ele>
        <time>2021-04-18T08:20:05.185Z</time>
      </trkpt>
      <trkpt lat="43.10244" lon="0.42568">
        <ele>657.892381</ele>
        <time>2021-04-18T08:20:08.166Z</time>
      </trkpt>
      <trkpt lat="43.10242" lon="0.42552">
        <ele>657.660801</ele>
        <time>2021-04-18T08:20:11.210Z</time>
      </trkpt>
      <trkpt lat="43.10239" lon="0.42538">
        <ele>657.443991</ele>
        <time>2021-04-18T08:20:14.186Z</time>
      </trkpt>
      <trkpt lat="43.10237" lon="0.42525">
        <ele>657.253978</ele>
        <time>2021-04-18T08:20:17.203Z</time>
      </trkpt>
      <trkpt lat="43.10235" lon="0.4251">
        <ele>657.043283</ele>
        <time>2021-04-18T08:20:20.178Z</time>
      </trkpt>
      <trkpt lat="43.10234" lon="0.42495">
        <ele>656.83077</ele>
        <time>2021-04-18T08:20:23.188Z</time>
      </trkpt>
      <trkpt lat="43.10231" lon="0.42483">
        <ele>656.646417</ele>
        <time>2021-04-18T08:20:26.172Z</time>
      </trkpt>
      <trkpt lat="43.10228" lon="0.42468">
        <ele>656.427213</ele>
        <time>2021-04-18T08:20:30.189Z</time>
      </trkpt>
      <trkpt lat="43.10227" lon="0.42455">
        <ele>656.237126</ele>
        <time>2021-04-18T08:20:33.223Z</time>
      </trkpt>
      <trkpt lat="43.10225" lon="0.42441">
        <ele>656.030737</ele>
        <time>2021-04-18T08:20:36.185Z</time>
      </trkpt>
      <trkpt lat="43.10222" lon="0.42426">
        <ele>656.07796</ele>
        <time>2021-04-18T08:20:39.197Z</time>
      </trkpt>
      <trkpt lat="43.10219" lon="0.4241">
        <ele>656.276963</ele>
        <time>2021-04-18T08:20:42.165Z</time>
      </trkpt>
      <trkpt lat="43.10216" lon="0.42396">
        <ele>656.457941</ele>
        <time>2021-04-18T08:20:45.185Z</time>
      </trkpt>
      <trkpt lat="43.10215" lon="0.42382">
        <ele>656.631568</ele>
        <time>2021-04-18T08:20:48.181Z</time>
      </trkpt>
      <trkpt lat="43.10213" lon="0.42368">
        <ele>656.807369</ele>
        <time>2021-04-18T08:20:51.176Z</time>
      </trkpt>
      <trkpt lat="43.10211" lon="0.42353">
        <ele>656.991113</ele>
        <time>2021-04-18T08:20:54.156Z</time>
      </trkpt>
      <trkpt lat="43.10209" lon="0.42339">
        <ele>657.162591</ele>
        <time>2021-04-18T08:20:57.191Z</time>
      </trkpt>
      <trkpt lat="43.10208" lon="0.42326">
        <ele>657.325196</ele>
        <time>2021-04-18T08:21:00.187Z</time>
      </trkpt>
      <trkpt lat="43.10206" lon="0.42313">
        <ele>657.484038</ele>
        <time>2021-04-18T08:21:03.217Z</time>
      </trkpt>
      <trkpt lat="43.10204" lon="0.423">
        <ele>657.652821</ele>
        <time>2021-04-18T08:21:06.215Z</time>
      </trkpt>
      <trkpt lat="43.10203" lon="0.42286">
        <ele>657.826398</ele>
        <time>2021-04-18T08:21:09.181Z</time>
      </trkpt>
      <trkpt lat="43.10201" lon="0.42271">
        <ele>658.008108</ele>
        <time>2021-04-18T08:21:12.186Z</time>
      </trkpt>
      <trkpt lat="43.10198" lon="0.42257">
        <ele>658.190883</ele>
        <time>2021-04-18T08:21:15.188Z</time>
      </trkpt>
      <trkpt lat="43.10195" lon="0.42244">
        <ele>658.360274</ele>
        <time>2021-04-18T08:21:18.188Z</time>
      </trkpt>
      <trkpt lat="43.10194" lon="0.42228">
        <ele>658.559843</ele>
        <time>2021-04-18T08:21:22.207Z</time>
      </trkpt>
      <trkpt lat="43.10193" lon="0.42214">
        <ele>658.72123</ele>
        <time>2021-04-18T08:21:25.222Z</time>
      </trkpt>
      <trkpt lat="43.10191" lon="0.42202">
        <ele>658.879815</ele>
        <time>2021-04-18T08:21:28.192Z</time>
      </trkpt>
      <trkpt lat="43.10189" lon="0.42188">
        <ele>658.917881</ele>
        <time>2021-04-18T08:21:31.207Z</time>
      </trkpt>
      <trkpt lat="43.10189" lon="0.42174">
        <ele>658.797081</ele>
        <time>2021-04-18T08:21:34.162Z</time>
      </trkpt>
      <trkpt lat="43.10187" lon="0.42161">
        <ele>658.683351</ele>
        <time>2021-04-18T08:21:37.204Z</time>
      </trkpt>
      <trkpt lat="43.10185" lon="0.42145">
        <ele>658.550041</ele>
        <time>2021-04-18T08:21:41.160Z</time>
      </trkpt>
      <trkpt lat="43.10184" lon="0.4213">
        <ele>658.421908</ele>
        <time>2021-04-18T08:21:44.180Z</time>
      </trkpt>
      <trkpt lat="43.10181" lon="0.42118">
        <ele>658.310811</ele>
        <time>2021-04-18T08:21:46.165Z</time>
      </trkpt>
      <trkpt lat="43.10178" lon="0.421">
        <ele>658.159088</ele>
        <time>2021-04-18T08:21:49.187Z</time>
      </trkpt>
      <trkpt lat="43.10176" lon="0.42088">
        <ele>658.046978</ele>
        <time>2021-04-18T08:21:51.190Z</time>
      </trkpt>
      <trkpt lat="43.10172" lon="0.42071">
        <ele>657.895478</ele>
        <time>2021-04-18T08:21:54.215Z</time>
      </trkpt>
      <trkpt lat="43.10169" lon="0.42056">
        <ele>657.763424</ele>
        <time>2021-04-18T08:21:57.160Z</time>
      </trkpt>
      <trkpt lat="43.10166" lon="0.42041">
        <ele>657.633308</ele>
        <time>2021-04-18T08:22:00.182Z</time>
      </trkpt>
      <trkpt lat="43.10164" lon="0.42026">
        <ele>657.50129</ele>
        <time>2021-04-18T08:22:03.187Z</time>
      </trkpt>
      <trkpt lat="43.10163" lon="0.42011">
        <ele>657.375264</ele>
        <time>2021-04-18T08:22:06.216Z</time>
      </trkpt>
      <trkpt lat="43.10163" lon="0.41998">
        <ele>657.257282</ele>
        <time>2021-04-18T08:22:09.204Z</time>
      </trkpt>
      <trkpt lat="43.10164" lon="0.41984">
        <ele>657.138744</ele>
        <time>2021-04-18T08:22:12.185Z</time>
      </trkpt>
      <trkpt lat="43.10164" lon="0.41969">
        <ele>657.009652</ele>
        <time>2021-04-18T08:22:15.184Z</time>
      </trkpt>
      <trkpt lat="43.10164" lon="0.41952">
        <ele>656.868615</ele>
        <time>2021-04-18T08:22:18.184Z</time>
      </trkpt>
      <trkpt lat="43.10163" lon="0.41936">
        <ele>656.83236</ele>
        <time>2021-04-18T08:22:21.181Z</time>
      </trkpt>
      <trkpt lat="43.1016" lon="0.4192">
        <ele>656.797293</ele>
        <time>2021-04-18T08:22:24.164Z</time>
      </trkpt>
      <trkpt lat="43.10155" lon="0.41904">
        <ele>656.76143</ele>
        <time>2021-04-18T08:22:27.179Z</time>
      </trkpt>
      <trkpt lat="43.1015" lon="0.4189">
        <ele>656.727831</ele>
        <time>2021-04-18T08:22:30.176Z</time>
      </trkpt>
      <trkpt lat="43.10145" lon="0.41876">
        <ele>656.693</ele>
        <time>2021-04-18T08:22:33.184Z</time>
      </trkpt>
      <trkpt lat="43.1014" lon="0.41861">
        <ele>656.658166</ele>
        <time>2021-04-18T08:22:36.181Z</time>
      </trkpt>
      <trkpt lat="43.10134" lon="0.41848">
        <ele>656.625776</ele>
        <time>2021-04-18T08:22:39.177Z</time>
      </trkpt>
      <trkpt lat="43.10129" lon="0.41834">
        <ele>656.591605</ele>
        <time>2021-04-18T08:22:42.221Z</time>
      </trkpt>
      <trkpt lat="43.10123" lon="0.41821">
        <ele>656.55895</ele>
        <time>2021-04-18T08:22:45.187Z</time>
      </trkpt>
      <trkpt lat="43.10118" lon="0.41807">
        <ele>656.525201</ele>
        <time>2021-04-18T08:22:48.195Z</time>
      </trkpt>
      <trkpt lat="43.10112" lon="0.41793">
        <ele>656.490557</ele>
        <time>2021-04-18T08:22:51.183Z</time>
      </trkpt>
      <trkpt lat="43.10106" lon="0.41779">
        <ele>656.456198</ele>
        <time>2021-04-18T08:22:54.177Z</time>
      </trkpt>
      <trkpt lat="43.10101" lon="0.41765">
        <ele>656.42253</ele>
        <time>2021-04-18T08:22:57.192Z</time>
      </trkpt>
      <trkpt lat="43.10096" lon="0.41752">
        <ele>656.39212</ele>
        <time>2021-04-18T08:23:00.183Z</time>
      </trkpt>
      <trkpt lat="43.1009" lon="0.41741">
        <ele>656.361932</ele>
        <time>2021-04-18T08:23:03.155Z</time>
      </trkpt>
      <trkpt lat="43.10083" lon="0.4173">
        <ele>656.411691</ele>
        <time>2021-04-18T08:23:06.189Z</time>
      </trkpt>
      <trkpt lat="43.10073" lon="0.41718">
        <ele>656.702206</ele>
        <time>2021-04-18T08:23:09.181Z</time>
      </trkpt>
      <trkpt lat="43.10067" lon="0.41708">
        <ele>656.921516</ele>
        <time>2021-04-18T08:23:11.230Z</time>
      </trkpt>
      <trkpt lat="43.10062" lon="0.41695">
        <ele>657.157036</ele>
        <time>2021-04-18T08:23:13.183Z</time>
      </trkpt>
      <trkpt lat="43.10058" lon="0.41681">
        <ele>657.40409</ele>
        <time>2021-04-18T08:23:15.193Z</time>
      </trkpt>
      <trkpt lat="43.10055" lon="0.41667">
        <ele>657.646326</ele>
        <time>2021-04-18T08:23:17.220Z</time>
      </trkpt>
      <trkpt lat="43.10052" lon="0.41654">
        <ele>657.881755</ele>
        <time>2021-04-18T08:23:19.209Z</time>
      </trkpt>
      <trkpt lat="43.10048" lon="0.41641">
        <ele>658.109185</ele>
        <time>2021-04-18T08:23:21.186Z</time>
      </trkpt>
      <trkpt lat="43.10045" lon="0.41629">
        <ele>658.322642</ele>
        <time>2021-04-18T08:23:23.165Z</time>
      </trkpt>
      <trkpt lat="43.10041" lon="0.41613">
        <ele>658.594391</ele>
        <time>2021-04-18T08:23:26.173Z</time>
      </trkpt>
      <trkpt lat="43.10039" lon="0.41599">
        <ele>658.83737</ele>
        <time>2021-04-18T08:23:29.177Z</time>
      </trkpt>
      <trkpt lat="43.10036" lon="0.41583">
        <ele>659.102295</ele>
        <time>2021-04-18T08:23:32.191Z</time>
      </trkpt>
      <trkpt lat="43.10032" lon="0.41568">
        <ele>659.377835</ele>
        <time>2021-04-18T08:23:35.182Z</time>
      </trkpt>
      <trkpt lat="43.10027" lon="0.41552">
        <ele>659.664219</ele>
        <time>2021-04-18T08:23:38.217Z</time>
      </trkpt>
      <trkpt lat="43.10021" lon="0.41536">
        <ele>659.950997</ele>
        <time>2021-04-18T08:23:41.230Z</time>
      </trkpt>
      <trkpt lat="43.10016" lon="0.41521">
        <ele>660.220112</ele>
        <time>2021-04-18T08:23:44.220Z</time>
      </trkpt>
      <trkpt lat="43.10011" lon="0.41506">
        <ele>660.540833</ele>
        <time>2021-04-18T08:23:47.171Z</time>
      </trkpt>
      <trkpt lat="43.10006" lon="0.41492">
        <ele>660.950435</ele>
        <time>2021-04-18T08:23:50.190Z</time>
      </trkpt>
      <trkpt lat="43.10001" lon="0.41478">
        <ele>661.340362</ele>
        <time>2021-04-18T08:23:53.192Z</time>
      </trkpt>
      <trkpt lat="43.09996" lon="0.41464">
        <ele>661.712971</ele>
        <time>2021-04-18T08:23:56.187Z</time>
      </trkpt>
      <trkpt lat="43.09992" lon="0.41452">
        <ele>662.069021</ele>
        <time>2021-04-18T08:23:59.210Z</time>
      </trkpt>
      <trkpt lat="43.09987" lon="0.41439">
        <ele>662.433362</ele>
        <time>2021-04-18T08:24:02.181Z</time>
      </trkpt>
      <trkpt lat="43.09982" lon="0.41425">
        <ele>662.811394</ele>
        <time>2021-04-18T08:24:05.185Z</time>
      </trkpt>
      <trkpt lat="43.09977" lon="0.41413">
        <ele>663.174183</ele>
        <time>2021-04-18T08:24:08.203Z</time>
      </trkpt>
      <trkpt lat="43.09974" lon="0.41398">
        <ele>663.543758</ele>
        <time>2021-04-18T08:24:11.204Z</time>
      </trkpt>
      <trkpt lat="43.09973" lon="0.41384">
        <ele>663.91174</ele>
        <time>2021-04-18T08:24:14.165Z</time>
      </trkpt>
      <trkpt lat="43.09979" lon="0.41369">
        <ele>664.337887</ele>
        <time>2021-04-18T08:24:17.168Z</time>
      </trkpt>
      <trkpt lat="43.09987" lon="0.41356">
        <ele>664.770187</ele>
        <time>2021-04-18T08:24:20.181Z</time>
      </trkpt>
      <trkpt lat="43.09995" lon="0.41343">
        <ele>665.196426</ele>
        <time>2021-04-18T08:24:23.161Z</time>
      </trkpt>
      <trkpt lat="43.10001" lon="0.41334">
        <ele>665.509147</ele>
        <time>2021-04-18T08:24:25.185Z</time>
      </trkpt>
      <trkpt lat="43.10008" lon="0.41324">
        <ele>665.848827</ele>
        <time>2021-04-18T08:24:27.195Z</time>
      </trkpt>
      <trkpt lat="43.10015" lon="0.41313">
        <ele>666.216009</ele>
        <time>2021-04-18T08:24:29.181Z</time>
      </trkpt>
      <trkpt lat="43.10021" lon="0.41302">
        <ele>666.5605</ele>
        <time>2021-04-18T08:24:31.192Z</time>
      </trkpt>
      <trkpt lat="43.10027" lon="0.41292">
        <ele>666.628546</ele>
        <time>2021-04-18T08:24:33.163Z</time>
      </trkpt>
      <trkpt lat="43.10033" lon="0.41282">
        <ele>666.650907</ele>
        <time>2021-04-18T08:24:35.216Z</time>
      </trkpt>
      <trkpt lat="43.10039" lon="0.41273">
        <ele>666.672513</ele>
        <time>2021-04-18T08:24:37.179Z</time>
      </trkpt>
      <trkpt lat="43.10046" lon="0.41263">
        <ele>666.69627</ele>
        <time>2021-04-18T08:24:40.221Z</time>
      </trkpt>
      <trkpt lat="43.10055" lon="0.41251">
        <ele>666.726269</ele>
        <time>2021-04-18T08:24:43.184Z</time>
      </trkpt>
      <trkpt lat="43.10062" lon="0.4124">
        <ele>666.75093</ele>
        <time>2021-04-18T08:24:45.178Z</time>
      </trkpt>
      <trkpt lat="43.10069" lon="0.41229">
        <ele>666.776648</ele>
        <time>2021-04-18T08:24:47.223Z</time>
      </trkpt>
      <trkpt lat="43.10075" lon="0.4122">
        <ele>666.798542</ele>
        <time>2021-04-18T08:24:49.219Z</time>
      </trkpt>
      <trkpt lat="43.10082" lon="0.41211">
        <ele>666.82083</ele>
        <time>2021-04-18T08:24:52.192Z</time>
      </trkpt>
      <trkpt lat="43.10092" lon="0.412">
        <ele>666.851411</ele>
        <time>2021-04-18T08:24:55.207Z</time>
      </trkpt>
      <trkpt lat="43.10099" lon="0.4119">
        <ele>666.875945</ele>
        <time>2021-04-18T08:24:57.215Z</time>
      </trkpt>
      <trkpt lat="43.1011" lon="0.41185">
        <ele>666.903764</ele>
        <time>2021-04-18T08:24:59.204Z</time>
      </trkpt>
      <trkpt lat="43.10116" lon="0.4117">
        <ele>666.931528</ele>
        <time>2021-04-18T08:25:01.157Z</time>
      </trkpt>
      <trkpt lat="43.10119" lon="0.41156">
        <ele>666.957471</ele>
        <time>2021-04-18T08:25:03.182Z</time>
      </trkpt>
      <trkpt lat="43.10127" lon="0.41148">
        <ele>666.981966</ele>
        <time>2021-04-18T08:25:06.177Z</time>
      </trkpt>
      <trkpt lat="43.10135" lon="0.41139">
        <ele>667.005921</ele>
        <time>2021-04-18T08:25:09.185Z</time>
      </trkpt>
      <trkpt lat="43.10143" lon="0.41128">
        <ele>667.03346</ele>
        <time>2021-04-18T08:25:12.183Z</time>
      </trkpt>
      <trkpt lat="43.1015" lon="0.41118">
        <ele>666.786274</ele>
        <time>2021-04-18T08:25:15.214Z</time>
      </trkpt>
      <trkpt lat="43.10159" lon="0.41107">
        <ele>666.414544</ele>
        <time>2021-04-18T08:25:18.184Z</time>
      </trkpt>
      <trkpt lat="43.10169" lon="0.41094">
        <ele>665.987618</ele>
        <time>2021-04-18T08:25:21.212Z</time>
      </trkpt>
      <trkpt lat="43.10177" lon="0.41081">
        <ele>665.580194</ele>
        <time>2021-04-18T08:25:24.208Z</time>
      </trkpt>
      <trkpt lat="43.10185" lon="0.41068">
        <ele>665.199922</ele>
        <time>2021-04-18T08:25:27.195Z</time>
      </trkpt>
      <trkpt lat="43.10193" lon="0.41056">
        <ele>664.837419</ele>
        <time>2021-04-18T08:25:30.187Z</time>
      </trkpt>
      <trkpt lat="43.10201" lon="0.41044">
        <ele>664.47188</ele>
        <time>2021-04-18T08:25:33.174Z</time>
      </trkpt>
      <trkpt lat="43.10208" lon="0.41032">
        <ele>664.112742</ele>
        <time>2021-04-18T08:25:36.192Z</time>
      </trkpt>
      <trkpt lat="43.10216" lon="0.41021">
        <ele>663.755709</ele>
        <time>2021-04-18T08:25:39.176Z</time>
      </trkpt>
      <trkpt lat="43.10224" lon="0.41009">
        <ele>663.402459</ele>
        <time>2021-04-18T08:25:42.197Z</time>
      </trkpt>
      <trkpt lat="43.10232" lon="0.40998">
        <ele>663.033115</ele>
        <time>2021-04-18T08:25:45.174Z</time>
      </trkpt>
      <trkpt lat="43.1024" lon="0.40985">
        <ele>662.657973</ele>
        <time>2021-04-18T08:25:48.184Z</time>
      </trkpt>
      <trkpt lat="43.10248" lon="0.40973">
        <ele>662.276969</ele>
        <time>2021-04-18T08:25:51.185Z</time>
      </trkpt>
      <trkpt lat="43.10256" lon="0.40961">
        <ele>661.911428</ele>
        <time>2021-04-18T08:25:54.201Z</time>
      </trkpt>
      <trkpt lat="43.10264" lon="0.40949">
        <ele>661.535461</ele>
        <time>2021-04-18T08:25:57.222Z</time>
      </trkpt>
      <trkpt lat="43.10272" lon="0.40937">
        <ele>661.489919</ele>
        <time>2021-04-18T08:26:00.224Z</time>
      </trkpt>
      <trkpt lat="43.1028" lon="0.40926">
        <ele>661.571008</ele>
        <time>2021-04-18T08:26:03.186Z</time>
      </trkpt>
      <trkpt lat="43.10287" lon="0.40916">
        <ele>661.646028</ele>
        <time>2021-04-18T08:26:06.177Z</time>
      </trkpt>
      <trkpt lat="43.10295" lon="0.40905">
        <ele>661.725468</ele>
        <time>2021-04-18T08:26:09.181Z</time>
      </trkpt>
      <trkpt lat="43.10303" lon="0.40894">
        <ele>661.806174</ele>
        <time>2021-04-18T08:26:12.207Z</time>
      </trkpt>
      <trkpt lat="43.1031" lon="0.40883">
        <ele>661.885233</ele>
        <time>2021-04-18T08:26:15.183Z</time>
      </trkpt>
      <trkpt lat="43.10317" lon="0.40873">
        <ele>661.961256</ele>
        <time>2021-04-18T08:26:18.224Z</time>
      </trkpt>
      <trkpt lat="43.10324" lon="0.40863">
        <ele>662.033111</ele>
        <time>2021-04-18T08:26:21.186Z</time>
      </trkpt>
      <trkpt lat="43.10331" lon="0.40854">
        <ele>662.102816</ele>
        <time>2021-04-18T08:26:24.188Z</time>
      </trkpt>
      <trkpt lat="43.10338" lon="0.40844">
        <ele>662.174696</ele>
        <time>2021-04-18T08:26:27.181Z</time>
      </trkpt>
      <trkpt lat="43.10345" lon="0.40834">
        <ele>662.247813</ele>
        <time>2021-04-18T08:26:30.186Z</time>
      </trkpt>
      <trkpt lat="43.10352" lon="0.40824">
        <ele>662.322066</ele>
        <time>2021-04-18T08:26:33.196Z</time>
      </trkpt>
      <trkpt lat="43.10359" lon="0.40814">
        <ele>662.392902</ele>
        <time>2021-04-18T08:26:36.185Z</time>
      </trkpt>
      <trkpt lat="43.10365" lon="0.40805">
        <ele>662.46175</ele>
        <time>2021-04-18T08:26:39.184Z</time>
      </trkpt>
      <trkpt lat="43.10372" lon="0.40795">
        <ele>662.534414</ele>
        <time>2021-04-18T08:26:42.186Z</time>
      </trkpt>
      <trkpt lat="43.10379" lon="0.40785">
        <ele>662.606786</ele>
        <time>2021-04-18T08:26:45.160Z</time>
      </trkpt>
      <trkpt lat="43.10385" lon="0.40775">
        <ele>662.676514</ele>
        <time>2021-04-18T08:26:48.183Z</time>
      </trkpt>
      <trkpt lat="43.10391" lon="0.40766">
        <ele>662.742083</ele>
        <time>2021-04-18T08:26:51.184Z</time>
      </trkpt>
      <trkpt lat="43.10397" lon="0.40756">
        <ele>662.80336</ele>
        <time>2021-04-18T08:26:54.207Z</time>
      </trkpt>
      <trkpt lat="43.10405" lon="0.40745">
        <ele>662.879368</ele>
        <time>2021-04-18T08:26:58.186Z</time>
      </trkpt>
      <trkpt lat="43.10413" lon="0.40733">
        <ele>662.9591</ele>
        <time>2021-04-18T08:27:02.178Z</time>
      </trkpt>
      <trkpt lat="43.10419" lon="0.40724">
        <ele>663.023051</ele>
        <time>2021-04-18T08:27:05.187Z</time>
      </trkpt>
      <trkpt lat="43.10426" lon="0.40714">
        <ele>663.092112</ele>
        <time>2021-04-18T08:27:08.185Z</time>
      </trkpt>
      <trkpt lat="43.10434" lon="0.40705">
        <ele>663.161181</ele>
        <time>2021-04-18T08:27:11.214Z</time>
      </trkpt>
      <trkpt lat="43.10442" lon="0.40695">
        <ele>663.234147</ele>
        <time>2021-04-18T08:27:14.216Z</time>
      </trkpt>
      <trkpt lat="43.10449" lon="0.40683">
        <ele>663.308139</ele>
        <time>2021-04-18T08:27:17.223Z</time>
      </trkpt>
      <trkpt lat="43.10456" lon="0.40673">
        <ele>663.376718</ele>
        <time>2021-04-18T08:27:20.190Z</time>
      </trkpt>
      <trkpt lat="43.10463" lon="0.40663">
        <ele>663.444963</ele>
        <time>2021-04-18T08:27:23.179Z</time>
      </trkpt>
      <trkpt lat="43.10469" lon="0.40653">
        <ele>663.514682</ele>
        <time>2021-04-18T08:27:26.192Z</time>
      </trkpt>
      <trkpt lat="43.10476" lon="0.40641">
        <ele>663.587342</ele>
        <time>2021-04-18T08:27:29.178Z</time>
      </trkpt>
      <trkpt lat="43.10484" lon="0.40631">
        <ele>663.658901</ele>
        <time>2021-04-18T08:27:32.218Z</time>
      </trkpt>
      <trkpt lat="43.10491" lon="0.4062">
        <ele>663.73568</ele>
        <time>2021-04-18T08:27:35.219Z</time>
      </trkpt>
      <trkpt lat="43.10499" lon="0.40608">
        <ele>663.816859</ele>
        <time>2021-04-18T08:27:38.195Z</time>
      </trkpt>
      <trkpt lat="43.10508" lon="0.40597">
        <ele>663.896963</ele>
        <time>2021-04-18T08:27:41.177Z</time>
      </trkpt>
      <trkpt lat="43.10516" lon="0.40585">
        <ele>663.982254</ele>
        <time>2021-04-18T08:27:44.185Z</time>
      </trkpt>
      <trkpt lat="43.10524" lon="0.40572">
        <ele>664.069704</ele>
        <time>2021-04-18T08:27:47.184Z</time>
      </trkpt>
      <trkpt lat="43.10533" lon="0.40561">
        <ele>664.155982</ele>
        <time>2021-04-18T08:27:50.203Z</time>
      </trkpt>
      <trkpt lat="43.1054" lon="0.40549">
        <ele>664.237333</ele>
        <time>2021-04-18T08:27:53.188Z</time>
      </trkpt>
      <trkpt lat="43.10547" lon="0.40539">
        <ele>664.310242</ele>
        <time>2021-04-18T08:27:56.189Z</time>
      </trkpt>
      <trkpt lat="43.10554" lon="0.4053">
        <ele>664.382817</ele>
        <time>2021-04-18T08:27:59.198Z</time>
      </trkpt>
      <trkpt lat="43.10561" lon="0.4052">
        <ele>664.459669</ele>
        <time>2021-04-18T08:28:02.210Z</time>
      </trkpt>
      <trkpt lat="43.1057" lon="0.40507">
        <ele>664.551941</ele>
        <time>2021-04-18T08:28:05.208Z</time>
      </trkpt>
      <trkpt lat="43.10577" lon="0.40496">
        <ele>664.629682</ele>
        <time>2021-04-18T08:28:07.188Z</time>
      </trkpt>
      <trkpt lat="43.10585" lon="0.40485">
        <ele>664.712135</ele>
        <time>2021-04-18T08:28:09.193Z</time>
      </trkpt>
      <trkpt lat="43.10593" lon="0.40474">
        <ele>664.791423</ele>
        <time>2021-04-18T08:28:11.190Z</time>
      </trkpt>
      <trkpt lat="43.106" lon="0.40463">
        <ele>664.874937</ele>
        <time>2021-04-18T08:28:13.173Z</time>
      </trkpt>
      <trkpt lat="43.10608" lon="0.40452">
        <ele>664.955047</ele>
        <time>2021-04-18T08:28:15.218Z</time>
      </trkpt>
      <trkpt lat="43.10616" lon="0.40442">
        <ele>665.034792</ele>
        <time>2021-04-18T08:28:17.164Z</time>
      </trkpt>
      <trkpt lat="43.10624" lon="0.40431">
        <ele>665.117643</ele>
        <time>2021-04-18T08:28:19.223Z</time>
      </trkpt>
      <trkpt lat="43.10631" lon="0.40421">
        <ele>665.19378</ele>
        <time>2021-04-18T08:28:21.187Z</time>
      </trkpt>
      <trkpt lat="43.10638" lon="0.4041">
        <ele>665.26526</ele>
        <time>2021-04-18T08:28:23.178Z</time>
      </trkpt>
      <trkpt lat="43.10644" lon="0.40399">
        <ele>665.133508</ele>
        <time>2021-04-18T08:28:25.183Z</time>
      </trkpt>
      <trkpt lat="43.1065" lon="0.40389">
        <ele>664.996145</ele>
        <time>2021-04-18T08:28:27.216Z</time>
      </trkpt>
      <trkpt lat="43.10657" lon="0.4038">
        <ele>664.862436</ele>
        <time>2021-04-18T08:28:29.180Z</time>
      </trkpt>
      <trkpt lat="43.10666" lon="0.40369">
        <ele>664.697494</ele>
        <time>2021-04-18T08:28:32.190Z</time>
      </trkpt>
      <trkpt lat="43.10674" lon="0.40361">
        <ele>664.55839</ele>
        <time>2021-04-18T08:28:35.164Z</time>
      </trkpt>
      <trkpt lat="43.10682" lon="0.40351">
        <ele>664.398433</ele>
        <time>2021-04-18T08:28:38.194Z</time>
      </trkpt>
      <trkpt lat="43.10691" lon="0.40342">
        <ele>664.245915</ele>
        <time>2021-04-18T08:28:41.185Z</time>
      </trkpt>
      <trkpt lat="43.107" lon="0.40334">
        <ele>664.101563</ele>
        <time>2021-04-18T08:28:45.184Z</time>
      </trkpt>
      <trkpt lat="43.10707" lon="0.40324">
        <ele>663.954699</ele>
        <time>2021-04-18T08:28:49.166Z</time>
      </trkpt>
      <trkpt lat="43.10712" lon="0.40314">
        <ele>663.827163</ele>
        <time>2021-04-18T08:28:51.171Z</time>
      </trkpt>
      <trkpt lat="43.10718" lon="0.40299">
        <ele>663.658011</ele>
        <time>2021-04-18T08:28:54.179Z</time>
      </trkpt>
      <trkpt lat="43.10723" lon="0.40287">
        <ele>663.50879</ele>
        <time>2021-04-18T08:28:57.197Z</time>
      </trkpt>
      <trkpt lat="43.10729" lon="0.40274">
        <ele>663.363626</ele>
        <time>2021-04-18T08:29:00.199Z</time>
      </trkpt>
      <trkpt lat="43.10734" lon="0.40264">
        <ele>663.227519</ele>
        <time>2021-04-18T08:29:03.196Z</time>
      </trkpt>
      <trkpt lat="43.10741" lon="0.40253">
        <ele>663.086446</ele>
        <time>2021-04-18T08:29:06.194Z</time>
      </trkpt>
      <trkpt lat="43.10748" lon="0.40242">
        <ele>662.935561</ele>
        <time>2021-04-18T08:29:09.213Z</time>
      </trkpt>
      <trkpt lat="43.10755" lon="0.40232">
        <ele>662.788641</ele>
        <time>2021-04-18T08:29:12.179Z</time>
      </trkpt>
      <trkpt lat="43.10763" lon="0.40221">
        <ele>662.895657</ele>
        <time>2021-04-18T08:29:15.176Z</time>
      </trkpt>
      <trkpt lat="43.1077" lon="0.40209">
        <ele>663.081346</ele>
        <time>2021-04-18T08:29:18.191Z</time>
      </trkpt>
      <trkpt lat="43.10777" lon="0.40199">
        <ele>663.252413</ele>
        <time>2021-04-18T08:29:21.194Z</time>
      </trkpt>
      <trkpt lat="43.10786" lon="0.40188">
        <ele>663.454715</ele>
        <time>2021-04-18T08:29:25.183Z</time>
      </trkpt>
      <trkpt lat="43.10792" lon="0.40178">
        <ele>663.620777</ele>
        <time>2021-04-18T08:29:28.216Z</time>
      </trkpt>
      <trkpt lat="43.10799" lon="0.40168">
        <ele>663.786839</ele>
        <time>2021-04-18T08:29:31.174Z</time>
      </trkpt>
      <trkpt lat="43.10805" lon="0.40159">
        <ele>663.938119</ele>
        <time>2021-04-18T08:29:34.195Z</time>
      </trkpt>
      <trkpt lat="43.10813" lon="0.40147">
        <ele>664.126737</ele>
        <time>2021-04-18T08:29:38.194Z</time>
      </trkpt>
      <trkpt lat="43.1082" lon="0.40137">
        <ele>664.304204</ele>
        <time>2021-04-18T08:29:41.216Z</time>
      </trkpt>
      <trkpt lat="43.10829" lon="0.40125">
        <ele>664.520268</ele>
        <time>2021-04-18T08:29:44.198Z</time>
      </trkpt>
      <trkpt lat="43.10836" lon="0.40116">
        <ele>664.680037</ele>
        <time>2021-04-18T08:29:46.204Z</time>
      </trkpt>
      <trkpt lat="43.10845" lon="0.40102">
        <ele>664.908199</ele>
        <time>2021-04-18T08:29:49.193Z</time>
      </trkpt>
      <trkpt lat="43.10854" lon="0.40089">
        <ele>665.132061</ele>
        <time>2021-04-18T08:29:52.181Z</time>
      </trkpt>
      <trkpt lat="43.10862" lon="0.40075">
        <ele>665.348168</ele>
        <time>2021-04-18T08:29:55.196Z</time>
      </trkpt>
      <trkpt lat="43.1087" lon="0.40063">
        <ele>665.546828</ele>
        <time>2021-04-18T08:29:58.188Z</time>
      </trkpt>
      <trkpt lat="43.10878" lon="0.40051">
        <ele>665.746031</ele>
        <time>2021-04-18T08:30:01.210Z</time>
      </trkpt>
      <trkpt lat="43.10886" lon="0.4004">
        <ele>666.069658</ele>
        <time>2021-04-18T08:30:04.186Z</time>
      </trkpt>
      <trkpt lat="43.10894" lon="0.40028">
        <ele>666.428187</ele>
        <time>2021-04-18T08:30:07.223Z</time>
      </trkpt>
      <trkpt lat="43.10903" lon="0.40017">
        <ele>666.782473</ele>
        <time>2021-04-18T08:30:10.215Z</time>
      </trkpt>
      <trkpt lat="43.1091" lon="0.40006">
        <ele>667.128944</ele>
        <time>2021-04-18T08:30:13.196Z</time>
      </trkpt>
      <trkpt lat="43.10918" lon="0.39995">
        <ele>667.475434</ele>
        <time>2021-04-18T08:30:16.190Z</time>
      </trkpt>
      <trkpt lat="43.10926" lon="0.39984">
        <ele>667.805817</ele>
        <time>2021-04-18T08:30:19.203Z</time>
      </trkpt>
      <trkpt lat="43.10933" lon="0.39974">
        <ele>668.136069</ele>
        <time>2021-04-18T08:30:22.170Z</time>
      </trkpt>
      <trkpt lat="43.10941" lon="0.39962">
        <ele>668.482539</ele>
        <time>2021-04-18T08:30:25.219Z</time>
      </trkpt>
      <trkpt lat="43.10948" lon="0.39951">
        <ele>668.810154</ele>
        <time>2021-04-18T08:30:28.190Z</time>
      </trkpt>
      <trkpt lat="43.10955" lon="0.3994">
        <ele>669.151686</ele>
        <time>2021-04-18T08:30:31.184Z</time>
      </trkpt>
      <trkpt lat="43.10963" lon="0.39929">
        <ele>669.487265</ele>
        <time>2021-04-18T08:30:34.183Z</time>
      </trkpt>
      <trkpt lat="43.10971" lon="0.39918">
        <ele>669.829349</ele>
        <time>2021-04-18T08:30:37.192Z</time>
      </trkpt>
      <trkpt lat="43.10977" lon="0.39909">
        <ele>670.109461</ele>
        <time>2021-04-18T08:30:39.185Z</time>
      </trkpt>
      <trkpt lat="43.10984" lon="0.399">
        <ele>670.39492</ele>
        <time>2021-04-18T08:30:41.195Z</time>
      </trkpt>
      <trkpt lat="43.10992" lon="0.39887">
        <ele>670.772971</ele>
        <time>2021-04-18T08:30:44.222Z</time>
      </trkpt>
      <trkpt lat="43.10999" lon="0.39876">
        <ele>671.109656</ele>
        <time>2021-04-18T08:30:47.216Z</time>
      </trkpt>
      <trkpt lat="43.11005" lon="0.39864">
        <ele>671.394767</ele>
        <time>2021-04-18T08:30:50.183Z</time>
      </trkpt>
      <trkpt lat="43.11014" lon="0.39851">
        <ele>671.675572</ele>
        <time>2021-04-18T08:30:53.166Z</time>
      </trkpt>
      <trkpt lat="43.1102" lon="0.39842">
        <ele>671.874229</ele>
        <time>2021-04-18T08:30:55.186Z</time>
      </trkpt>
      <trkpt lat="43.11029" lon="0.39829">
        <ele>672.160357</ele>
        <time>2021-04-18T08:30:58.222Z</time>
      </trkpt>
      <trkpt lat="43.11037" lon="0.39817">
        <ele>672.418115</ele>
        <time>2021-04-18T08:31:01.182Z</time>
      </trkpt>
      <trkpt lat="43.11045" lon="0.39806">
        <ele>672.668541</ele>
        <time>2021-04-18T08:31:04.217Z</time>
      </trkpt>
      <trkpt lat="43.11053" lon="0.39793">
        <ele>672.935416</ele>
        <time>2021-04-18T08:31:07.188Z</time>
      </trkpt>
      <trkpt lat="43.1106" lon="0.3978">
        <ele>673.199374</ele>
        <time>2021-04-18T08:31:10.215Z</time>
      </trkpt>
      <trkpt lat="43.11068" lon="0.39768">
        <ele>673.46067</ele>
        <time>2021-04-18T08:31:13.168Z</time>
      </trkpt>
      <trkpt lat="43.11077" lon="0.39756">
        <ele>673.732121</ele>
        <time>2021-04-18T08:31:16.184Z</time>
      </trkpt>
      <trkpt lat="43.11084" lon="0.39744">
        <ele>673.981888</ele>
        <time>2021-04-18T08:31:19.184Z</time>
      </trkpt>
      <trkpt lat="43.11092" lon="0.39732">
        <ele>674.237609</ele>
        <time>2021-04-18T08:31:22.184Z</time>
      </trkpt>
      <trkpt lat="43.11101" lon="0.39719">
        <ele>674.522552</ele>
        <time>2021-04-18T08:31:25.226Z</time>
      </trkpt>
      <trkpt lat="43.11107" lon="0.3971">
        <ele>674.724054</ele>
        <time>2021-04-18T08:31:27.197Z</time>
      </trkpt>
      <trkpt lat="43.11116" lon="0.39698">
        <ele>675.003159</ele>
        <time>2021-04-18T08:31:30.174Z</time>
      </trkpt>
      <trkpt lat="43.11125" lon="0.39684">
        <ele>675.18284</ele>
        <time>2021-04-18T08:31:33.191Z</time>
      </trkpt>
      <trkpt lat="43.11134" lon="0.39672">
        <ele>674.890213</ele>
        <time>2021-04-18T08:31:36.188Z</time>
      </trkpt>
      <trkpt lat="43.11142" lon="0.39659">
        <ele>674.613886</ele>
        <time>2021-04-18T08:31:39.228Z</time>
      </trkpt>
      <trkpt lat="43.11151" lon="0.39645">
        <ele>674.325839</ele>
        <time>2021-04-18T08:31:42.191Z</time>
      </trkpt>
      <trkpt lat="43.11159" lon="0.39633">
        <ele>674.049483</ele>
        <time>2021-04-18T08:31:45.181Z</time>
      </trkpt>
      <trkpt lat="43.11167" lon="0.39622">
        <ele>673.796777</ele>
        <time>2021-04-18T08:31:48.197Z</time>
      </trkpt>
      <trkpt lat="43.11176" lon="0.39609">
        <ele>673.510613</ele>
        <time>2021-04-18T08:31:51.216Z</time>
      </trkpt>
      <trkpt lat="43.11184" lon="0.39598">
        <ele>673.255656</ele>
        <time>2021-04-18T08:31:54.187Z</time>
      </trkpt>
      <trkpt lat="43.11194" lon="0.39588">
        <ele>672.987085</ele>
        <time>2021-04-18T08:31:57.179Z</time>
      </trkpt>
      <trkpt lat="43.11204" lon="0.3958">
        <ele>672.723102</ele>
        <time>2021-04-18T08:32:00.189Z</time>
      </trkpt>
      <trkpt lat="43.11215" lon="0.39569">
        <ele>672.428643</ele>
        <time>2021-04-18T08:32:03.169Z</time>
      </trkpt>
      <trkpt lat="43.11222" lon="0.39561">
        <ele>672.216742</ele>
        <time>2021-04-18T08:32:05.194Z</time>
      </trkpt>
      <trkpt lat="43.1123" lon="0.39554">
        <ele>672.011354</ele>
        <time>2021-04-18T08:32:07.188Z</time>
      </trkpt>
      <trkpt lat="43.11241" lon="0.39546">
        <ele>671.723933</ele>
        <time>2021-04-18T08:32:10.199Z</time>
      </trkpt>
      <trkpt lat="43.11252" lon="0.39537">
        <ele>671.446014</ele>
        <time>2021-04-18T08:32:13.176Z</time>
      </trkpt>
      <trkpt lat="43.11262" lon="0.39528">
        <ele>671.209951</ele>
        <time>2021-04-18T08:32:16.192Z</time>
      </trkpt>
      <trkpt lat="43.11274" lon="0.3952">
        <ele>671.072837</ele>
        <time>2021-04-18T08:32:19.184Z</time>
      </trkpt>
      <trkpt lat="43.11282" lon="0.39513">
        <ele>670.973392</ele>
        <time>2021-04-18T08:32:21.228Z</time>
      </trkpt>
      <trkpt lat="43.11292" lon="0.39503">
        <ele>670.843645</ele>
        <time>2021-04-18T08:32:24.185Z</time>
      </trkpt>
      <trkpt lat="43.11302" lon="0.39494">
        <ele>670.71725</ele>
        <time>2021-04-18T08:32:27.186Z</time>
      </trkpt>
      <trkpt lat="43.11313" lon="0.39486">
        <ele>670.586868</ele>
        <time>2021-04-18T08:32:30.219Z</time>
      </trkpt>
      <trkpt lat="43.11323" lon="0.39476">
        <ele>670.453155</ele>
        <time>2021-04-18T08:32:33.186Z</time>
      </trkpt>
      <trkpt lat="43.11332" lon="0.3947">
        <ele>670.350907</ele>
        <time>2021-04-18T08:32:35.188Z</time>
      </trkpt>
      <trkpt lat="43.1134" lon="0.39463">
        <ele>670.250862</ele>
        <time>2021-04-18T08:32:37.184Z</time>
      </trkpt>
      <trkpt lat="43.11349" lon="0.39456">
        <ele>670.144726</ele>
        <time>2021-04-18T08:32:39.195Z</time>
      </trkpt>
      <trkpt lat="43.1136" lon="0.39445">
        <ele>670.002364</ele>
        <time>2021-04-18T08:32:42.192Z</time>
      </trkpt>
      <trkpt lat="43.11368" lon="0.39438">
        <ele>669.899205</ele>
        <time>2021-04-18T08:32:44.188Z</time>
      </trkpt>
      <trkpt lat="43.11377" lon="0.39431">
        <ele>669.793183</ele>
        <time>2021-04-18T08:32:46.177Z</time>
      </trkpt>
      <trkpt lat="43.11385" lon="0.39425">
        <ele>669.693907</ele>
        <time>2021-04-18T08:32:48.186Z</time>
      </trkpt>
      <trkpt lat="43.11395" lon="0.39417">
        <ele>669.568625</ele>
        <time>2021-04-18T08:32:51.191Z</time>
      </trkpt>
      <trkpt lat="43.11406" lon="0.39412">
        <ele>669.450374</ele>
        <time>2021-04-18T08:32:55.223Z</time>
      </trkpt>
      <trkpt lat="43.11415" lon="0.39407">
        <ele>669.347236</ele>
        <time>2021-04-18T08:32:59.217Z</time>
      </trkpt>
      <trkpt lat="43.11422" lon="0.39394">
        <ele>669.184337</ele>
        <time>2021-04-18T08:33:03.167Z</time>
      </trkpt>
      <trkpt lat="43.11419" lon="0.39379">
        <ele>669.018347</ele>
        <time>2021-04-18T08:33:06.179Z</time>
      </trkpt>
      <trkpt lat="43.11421" lon="0.39364">
        <ele>668.85886</ele>
        <time>2021-04-18T08:33:09.163Z</time>
      </trkpt>
      <trkpt lat="43.11424" lon="0.39349">
        <ele>668.700341</ele>
        <time>2021-04-18T08:33:12.186Z</time>
      </trkpt>
      <trkpt lat="43.11426" lon="0.39333">
        <ele>668.529488</ele>
        <time>2021-04-18T08:33:15.190Z</time>
      </trkpt>
      <trkpt lat="43.11427" lon="0.39317">
        <ele>668.35907</ele>
        <time>2021-04-18T08:33:18.197Z</time>
      </trkpt>
      <trkpt lat="43.11428" lon="0.39301">
        <ele>668.196465</ele>
        <time>2021-04-18T08:33:21.219Z</time>
      </trkpt>
      <trkpt lat="43.11429" lon="0.39287">
        <ele>668.049458</ele>
        <time>2021-04-18T08:33:24.191Z</time>
      </trkpt>
      <trkpt lat="43.11431" lon="0.39271">
        <ele>667.879784</ele>
        <time>2021-04-18T08:33:27.222Z</time>
      </trkpt>
      <trkpt lat="43.11434" lon="0.39256">
        <ele>667.709457</ele>
        <time>2021-04-18T08:33:30.186Z</time>
      </trkpt>
      <trkpt lat="43.11437" lon="0.3924">
        <ele>667.536288</ele>
        <time>2021-04-18T08:33:33.183Z</time>
      </trkpt>
      <trkpt lat="43.11441" lon="0.39224">
        <ele>667.363315</ele>
        <time>2021-04-18T08:33:36.186Z</time>
      </trkpt>
      <trkpt lat="43.11444" lon="0.39208">
        <ele>667.191919</ele>
        <time>2021-04-18T08:33:39.188Z</time>
      </trkpt>
      <trkpt lat="43.11449" lon="0.39193">
        <ele>667.016636</ele>
        <time>2021-04-18T08:33:42.168Z</time>
      </trkpt>
      <trkpt lat="43.11453" lon="0.39178">
        <ele>666.854753</ele>
        <time>2021-04-18T08:33:45.209Z</time>
      </trkpt>
      <trkpt lat="43.11456" lon="0.39162">
        <ele>666.615526</ele>
        <time>2021-04-18T08:33:49.211Z</time>
      </trkpt>
      <trkpt lat="43.11459" lon="0.39145">
        <ele>666.282718</ele>
        <time>2021-04-18T08:33:52.216Z</time>
      </trkpt>
      <trkpt lat="43.11461" lon="0.39128">
        <ele>665.944444</ele>
        <time>2021-04-18T08:33:55.186Z</time>
      </trkpt>
      <trkpt lat="43.11461" lon="0.39111">
        <ele>665.615954</ele>
        <time>2021-04-18T08:33:58.199Z</time>
      </trkpt>
      <trkpt lat="43.11461" lon="0.39094">
        <ele>665.285639</ele>
        <time>2021-04-18T08:34:01.190Z</time>
      </trkpt>
      <trkpt lat="43.11461" lon="0.39077">
        <ele>664.972508</ele>
        <time>2021-04-18T08:34:04.189Z</time>
      </trkpt>
      <trkpt lat="43.11462" lon="0.39062">
        <ele>664.66852</ele>
        <time>2021-04-18T08:34:07.192Z</time>
      </trkpt>
      <trkpt lat="43.11464" lon="0.39046">
        <ele>664.363713</ele>
        <time>2021-04-18T08:34:10.176Z</time>
      </trkpt>
      <trkpt lat="43.11465" lon="0.39031">
        <ele>664.070104</ele>
        <time>2021-04-18T08:34:13.179Z</time>
      </trkpt>
      <trkpt lat="43.11465" lon="0.39016">
        <ele>663.789523</ele>
        <time>2021-04-18T08:34:16.198Z</time>
      </trkpt>
      <trkpt lat="43.11465" lon="0.39001">
        <ele>663.497426</ele>
        <time>2021-04-18T08:34:19.176Z</time>
      </trkpt>
      <trkpt lat="43.11466" lon="0.38985">
        <ele>663.18752</ele>
        <time>2021-04-18T08:34:22.187Z</time>
      </trkpt>
      <trkpt lat="43.11466" lon="0.38969">
        <ele>662.889806</ele>
        <time>2021-04-18T08:34:25.209Z</time>
      </trkpt>
      <trkpt lat="43.11465" lon="0.38954">
        <ele>662.595556</ele>
        <time>2021-04-18T08:34:28.188Z</time>
      </trkpt>
      <trkpt lat="43.11465" lon="0.3894">
        <ele>662.32092</ele>
        <time>2021-04-18T08:34:31.194Z</time>
      </trkpt>
      <trkpt lat="43.11465" lon="0.38925">
        <ele>662.044377</ele>
        <time>2021-04-18T08:34:34.181Z</time>
      </trkpt>
      <trkpt lat="43.11465" lon="0.38909">
        <ele>662.213327</ele>
        <time>2021-04-18T08:34:37.196Z</time>
      </trkpt>
      <trkpt lat="43.11465" lon="0.38895">
        <ele>662.392541</ele>
        <time>2021-04-18T08:34:40.180Z</time>
      </trkpt>
      <trkpt lat="43.11466" lon="0.38881">
        <ele>662.554862</ele>
        <time>2021-04-18T08:34:43.191Z</time>
      </trkpt>
      <trkpt lat="43.11466" lon="0.38868">
        <ele>662.717851</ele>
        <time>2021-04-18T08:34:46.217Z</time>
      </trkpt>
      <trkpt lat="43.11466" lon="0.38854">
        <ele>662.884981</ele>
        <time>2021-04-18T08:34:49.170Z</time>
      </trkpt>
      <trkpt lat="43.11468" lon="0.38838">
        <ele>663.068983</ele>
        <time>2021-04-18T08:34:52.189Z</time>
      </trkpt>
      <trkpt lat="43.11468" lon="0.38823">
        <ele>663.249601</ele>
        <time>2021-04-18T08:34:55.188Z</time>
      </trkpt>
      <trkpt lat="43.11468" lon="0.38809">
        <ele>663.420362</ele>
        <time>2021-04-18T08:34:58.190Z</time>
      </trkpt>
      <trkpt lat="43.11469" lon="0.38796">
        <ele>663.582976</ele>
        <time>2021-04-18T08:35:01.171Z</time>
      </trkpt>
      <trkpt lat="43.11469" lon="0.38783">
        <ele>663.738215</ele>
        <time>2021-04-18T08:35:04.184Z</time>
      </trkpt>
      <trkpt lat="43.1147" lon="0.38769">
        <ele>663.90292</ele>
        <time>2021-04-18T08:35:07.195Z</time>
      </trkpt>
      <trkpt lat="43.11471" lon="0.38754">
        <ele>664.088808</ele>
        <time>2021-04-18T08:35:10.186Z</time>
      </trkpt>
      <trkpt lat="43.11473" lon="0.38738">
        <ele>664.284263</ele>
        <time>2021-04-18T08:35:13.163Z</time>
      </trkpt>
      <trkpt lat="43.11472" lon="0.38723">
        <ele>664.466417</ele>
        <time>2021-04-18T08:35:16.190Z</time>
      </trkpt>
      <trkpt lat="43.11472" lon="0.38705">
        <ele>664.685741</ele>
        <time>2021-04-18T08:35:19.180Z</time>
      </trkpt>
      <trkpt lat="43.11471" lon="0.38691">
        <ele>664.849463</ele>
        <time>2021-04-18T08:35:21.167Z</time>
      </trkpt>
      <trkpt lat="43.11473" lon="0.38677">
        <ele>664.926002</ele>
        <time>2021-04-18T08:35:23.217Z</time>
      </trkpt>
      <trkpt lat="43.11474" lon="0.3866">
        <ele>664.290325</ele>
        <time>2021-04-18T08:35:26.203Z</time>
      </trkpt>
      <trkpt lat="43.11474" lon="0.38645">
        <ele>663.730438</ele>
        <time>2021-04-18T08:35:29.221Z</time>
      </trkpt>
      <trkpt lat="43.11474" lon="0.3863">
        <ele>663.188831</ele>
        <time>2021-04-18T08:35:32.208Z</time>
      </trkpt>
      <trkpt lat="43.11472" lon="0.38617">
        <ele>662.718444</ele>
        <time>2021-04-18T08:35:34.199Z</time>
      </trkpt>
      <trkpt lat="43.11471" lon="0.38603">
        <ele>662.222572</ele>
        <time>2021-04-18T08:35:36.163Z</time>
      </trkpt>
      <trkpt lat="43.11471" lon="0.38589">
        <ele>661.709744</ele>
        <time>2021-04-18T08:35:38.198Z</time>
      </trkpt>
      <trkpt lat="43.1147" lon="0.38575">
        <ele>661.198508</ele>
        <time>2021-04-18T08:35:40.186Z</time>
      </trkpt>
      <trkpt lat="43.11468" lon="0.38561">
        <ele>660.688699</ele>
        <time>2021-04-18T08:35:42.190Z</time>
      </trkpt>
      <trkpt lat="43.11465" lon="0.38547">
        <ele>660.149306</ele>
        <time>2021-04-18T08:35:44.181Z</time>
      </trkpt>
      <trkpt lat="43.11463" lon="0.38532">
        <ele>659.593252</ele>
        <time>2021-04-18T08:35:46.190Z</time>
      </trkpt>
      <trkpt lat="43.11462" lon="0.38517">
        <ele>659.061146</ele>
        <time>2021-04-18T08:35:48.188Z</time>
      </trkpt>
      <trkpt lat="43.11462" lon="0.38504">
        <ele>658.555091</ele>
        <time>2021-04-18T08:35:50.195Z</time>
      </trkpt>
      <trkpt lat="43.11463" lon="0.3849">
        <ele>658.066032</ele>
        <time>2021-04-18T08:35:52.189Z</time>
      </trkpt>
      <trkpt lat="43.11464" lon="0.38476">
        <ele>657.545913</ele>
        <time>2021-04-18T08:35:54.186Z</time>
      </trkpt>
      <trkpt lat="43.11465" lon="0.38461">
        <ele>657.006168</ele>
        <time>2021-04-18T08:35:56.198Z</time>
      </trkpt>
      <trkpt lat="43.11465" lon="0.38447">
        <ele>656.500113</ele>
        <time>2021-04-18T08:35:58.216Z</time>
      </trkpt>
      <trkpt lat="43.11467" lon="0.38434">
        <ele>656.024872</ele>
        <time>2021-04-18T08:36:00.162Z</time>
      </trkpt>
      <trkpt lat="43.1147" lon="0.38419">
        <ele>655.718299</ele>
        <time>2021-04-18T08:36:03.221Z</time>
      </trkpt>
      <trkpt lat="43.11463" lon="0.38409">
        <ele>655.470747</ele>
        <time>2021-04-18T08:36:07.172Z</time>
      </trkpt>
      <trkpt lat="43.11453" lon="0.3841">
        <ele>655.187422</ele>
        <time>2021-04-18T08:36:10.172Z</time>
      </trkpt>
      <trkpt lat="43.11444" lon="0.38408">
        <ele>654.948365</ele>
        <time>2021-04-18T08:36:13.168Z</time>
      </trkpt>
      <trkpt lat="43.11441" lon="0.38394">
        <ele>654.658738</ele>
        <time>2021-04-18T08:36:16.168Z</time>
      </trkpt>
      <trkpt lat="43.11442" lon="0.3838">
        <ele>654.398001</ele>
        <time>2021-04-18T08:36:18.174Z</time>
      </trkpt>
      <trkpt lat="43.11443" lon="0.38368">
        <ele>654.157992</ele>
        <time>2021-04-18T08:36:20.213Z</time>
      </trkpt>
      <trkpt lat="43.11442" lon="0.38354">
        <ele>653.885047</ele>
        <time>2021-04-18T08:36:23.233Z</time>
      </trkpt>
      <trkpt lat="43.11441" lon="0.38338">
        <ele>653.56775</ele>
        <time>2021-04-18T08:36:27.218Z</time>
      </trkpt>
      <trkpt lat="43.1144" lon="0.38322">
        <ele>653.270138</ele>
        <time>2021-04-18T08:36:30.199Z</time>
      </trkpt>
      <trkpt lat="43.1144" lon="0.38307">
        <ele>652.972138</ele>
        <time>2021-04-18T08:36:33.202Z</time>
      </trkpt>
      <trkpt lat="43.11438" lon="0.38293">
        <ele>652.692321</ele>
        <time>2021-04-18T08:36:36.182Z</time>
      </trkpt>
      <trkpt lat="43.11438" lon="0.38279">
        <ele>652.423867</ele>
        <time>2021-04-18T08:36:39.218Z</time>
      </trkpt>
      <trkpt lat="43.11436" lon="0.38264">
        <ele>652.144851</ele>
        <time>2021-04-18T08:36:42.166Z</time>
      </trkpt>
      <trkpt lat="43.11436" lon="0.38251">
        <ele>651.884961</ele>
        <time>2021-04-18T08:36:45.192Z</time>
      </trkpt>
      <trkpt lat="43.11436" lon="0.38235">
        <ele>651.58357</ele>
        <time>2021-04-18T08:36:49.167Z</time>
      </trkpt>
      <trkpt lat="43.11435" lon="0.38223">
        <ele>651.342905</ele>
        <time>2021-04-18T08:36:52.182Z</time>
      </trkpt>
      <trkpt lat="43.11434" lon="0.3821">
        <ele>651.658013</ele>
        <time>2021-04-18T08:36:55.206Z</time>
      </trkpt>
      <trkpt lat="43.11434" lon="0.38197">
        <ele>652.159043</ele>
        <time>2021-04-18T08:36:58.186Z</time>
      </trkpt>
      <trkpt lat="43.11435" lon="0.38185">
        <ele>652.642381</ele>
        <time>2021-04-18T08:37:01.219Z</time>
      </trkpt>
      <trkpt lat="43.11435" lon="0.38172">
        <ele>653.147296</ele>
        <time>2021-04-18T08:37:04.183Z</time>
      </trkpt>
      <trkpt lat="43.11435" lon="0.38157">
        <ele>653.734431</ele>
        <time>2021-04-18T08:37:08.218Z</time>
      </trkpt>
      <trkpt lat="43.11436" lon="0.38143">
        <ele>654.298695</ele>
        <time>2021-04-18T08:37:12.184Z</time>
      </trkpt>
      <trkpt lat="43.11435" lon="0.38128">
        <ele>654.858638</ele>
        <time>2021-04-18T08:37:16.169Z</time>
      </trkpt>
      <trkpt lat="43.11435" lon="0.38113">
        <ele>655.45163</ele>
        <time>2021-04-18T08:37:20.206Z</time>
      </trkpt>
      <trkpt lat="43.11436" lon="0.381">
        <ele>655.967754</ele>
        <time>2021-04-18T08:37:23.172Z</time>
      </trkpt>
      <trkpt lat="43.11441" lon="0.38089">
        <ele>656.49256</ele>
        <time>2021-04-18T08:37:26.182Z</time>
      </trkpt>
      <trkpt lat="43.11445" lon="0.38076">
        <ele>657.03545</ele>
        <time>2021-04-18T08:37:29.172Z</time>
      </trkpt>
      <trkpt lat="43.11448" lon="0.38062">
        <ele>657.603378</ele>
        <time>2021-04-18T08:37:32.168Z</time>
      </trkpt>
      <trkpt lat="43.11451" lon="0.3805">
        <ele>658.108996</ele>
        <time>2021-04-18T08:37:36.170Z</time>
      </trkpt>
      <trkpt lat="43.11442" lon="0.3804">
        <ele>658.711306</ele>
        <time>2021-04-18T08:37:41.176Z</time>
      </trkpt>
      <trkpt lat="43.11432" lon="0.38034">
        <ele>659.329752</ele>
        <time>2021-04-18T08:37:45.219Z</time>
      </trkpt>
      <trkpt lat="43.11422" lon="0.38029">
        <ele>659.867904</ele>
        <time>2021-04-18T08:37:49.191Z</time>
      </trkpt>
      <trkpt lat="43.11412" lon="0.38025">
        <ele>660.458667</ele>
        <time>2021-04-18T08:37:54.195Z</time>
      </trkpt>
      <trkpt lat="43.114" lon="0.3802">
        <ele>660.93548</ele>
        <time>2021-04-18T08:37:58.201Z</time>
      </trkpt>
      <trkpt lat="43.11391" lon="0.38016">
        <ele>660.973198</ele>
        <time>2021-04-18T08:38:02.195Z</time>
      </trkpt>
      <trkpt lat="43.11381" lon="0.38016">
        <ele>661.006804</ele>
        <time>2021-04-18T08:38:05.162Z</time>
      </trkpt>
      <trkpt lat="43.11372" lon="0.38019">
        <ele>661.042405</ele>
        <time>2021-04-18T08:38:10.182Z</time>
      </trkpt>
      <trkpt lat="43.11381" lon="0.38022">
        <ele>661.078199</ele>
        <time>2021-04-18T08:38:17.172Z</time>
      </trkpt>
      <trkpt lat="43.11371" lon="0.38022">
        <ele>661.118039</ele>
        <time>2021-04-18T08:38:33.174Z</time>
      </trkpt>
      <trkpt lat="43.11361" lon="0.38027">
        <ele>661.155333</ele>
        <time>2021-04-18T08:38:38.183Z</time>
      </trkpt>
      <trkpt lat="43.1135" lon="0.38028">
        <ele>661.196298</ele>
        <time>2021-04-18T08:38:43.165Z</time>
      </trkpt>
      <trkpt lat="43.11341" lon="0.3802">
        <ele>661.236493</ele>
        <time>2021-04-18T08:38:46.176Z</time>
      </trkpt>
      <trkpt lat="43.11333" lon="0.38011">
        <ele>661.273426</ele>
        <time>2021-04-18T08:38:49.187Z</time>
      </trkpt>
      <trkpt lat="43.11324" lon="0.38004">
        <ele>661.311514</ele>
        <time>2021-04-18T08:38:53.202Z</time>
      </trkpt>
      <trkpt lat="43.11313" lon="0.37998">
        <ele>661.355484</ele>
        <time>2021-04-18T08:38:57.187Z</time>
      </trkpt>
      <trkpt lat="43.11304" lon="0.37996">
        <ele>661.389168</ele>
        <time>2021-04-18T08:39:00.171Z</time>
      </trkpt>
      <trkpt lat="43.11295" lon="0.37992">
        <ele>661.423178</ele>
        <time>2021-04-18T08:39:03.183Z</time>
      </trkpt>
      <trkpt lat="43.11286" lon="0.37989">
        <ele>661.4579</ele>
        <time>2021-04-18T08:39:06.198Z</time>
      </trkpt>
      <trkpt lat="43.11277" lon="0.37985">
        <ele>661.493976</ele>
        <time>2021-04-18T08:39:09.177Z</time>
      </trkpt>
      <trkpt lat="43.11267" lon="0.37982">
        <ele>661.531795</ele>
        <time>2021-04-18T08:39:12.180Z</time>
      </trkpt>
      <trkpt lat="43.11257" lon="0.37978">
        <ele>661.569792</ele>
        <time>2021-04-18T08:39:15.191Z</time>
      </trkpt>
      <trkpt lat="43.11248" lon="0.37973">
        <ele>661.651431</ele>
        <time>2021-04-18T08:39:18.198Z</time>
      </trkpt>
      <trkpt lat="43.11238" lon="0.37971">
        <ele>661.774083</ele>
        <time>2021-04-18T08:39:21.186Z</time>
      </trkpt>
      <trkpt lat="43.11227" lon="0.37969">
        <ele>661.903657</ele>
        <time>2021-04-18T08:39:24.189Z</time>
      </trkpt>
      <trkpt lat="43.11216" lon="0.37967">
        <ele>662.042077</ele>
        <time>2021-04-18T08:39:27.191Z</time>
      </trkpt>
      <trkpt lat="43.11205" lon="0.37965">
        <ele>662.174003</ele>
        <time>2021-04-18T08:39:30.196Z</time>
      </trkpt>
      <trkpt lat="43.11195" lon="0.37962">
        <ele>662.297569</ele>
        <time>2021-04-18T08:39:33.184Z</time>
      </trkpt>
      <trkpt lat="43.11185" lon="0.37959">
        <ele>662.421135</ele>
        <time>2021-04-18T08:39:36.216Z</time>
      </trkpt>
      <trkpt lat="43.11174" lon="0.37956">
        <ele>662.556073</ele>
        <time>2021-04-18T08:39:39.184Z</time>
      </trkpt>
      <trkpt lat="43.11163" lon="0.37952">
        <ele>662.695956</ele>
        <time>2021-04-18T08:39:42.181Z</time>
      </trkpt>
      <trkpt lat="43.11151" lon="0.37949">
        <ele>662.844222</ele>
        <time>2021-04-18T08:39:45.182Z</time>
      </trkpt>
      <trkpt lat="43.11141" lon="0.37947">
        <ele>662.97156</ele>
        <time>2021-04-18T08:39:48.198Z</time>
      </trkpt>
      <trkpt lat="43.11131" lon="0.37945">
        <ele>663.090914</ele>
        <time>2021-04-18T08:39:51.186Z</time>
      </trkpt>
      <trkpt lat="43.1112" lon="0.37943">
        <ele>663.232199</ele>
        <time>2021-04-18T08:39:54.208Z</time>
      </trkpt>
      <trkpt lat="43.11109" lon="0.3794">
        <ele>663.360514</ele>
        <time>2021-04-18T08:39:57.231Z</time>
      </trkpt>
      <trkpt lat="43.11099" lon="0.37938">
        <ele>663.489896</ele>
        <time>2021-04-18T08:40:00.190Z</time>
      </trkpt>
      <trkpt lat="43.11087" lon="0.37935">
        <ele>663.634263</ele>
        <time>2021-04-18T08:40:03.199Z</time>
      </trkpt>
      <trkpt lat="43.11075" lon="0.37932">
        <ele>663.791714</ele>
        <time>2021-04-18T08:40:06.220Z</time>
      </trkpt>
      <trkpt lat="43.11064" lon="0.37931">
        <ele>664.192756</ele>
        <time>2021-04-18T08:40:09.226Z</time>
      </trkpt>
      <trkpt lat="43.11052" lon="0.37928">
        <ele>664.588199</ele>
        <time>2021-04-18T08:40:12.193Z</time>
      </trkpt>
      <trkpt lat="43.11041" lon="0.37925">
        <ele>664.982622</ele>
        <time>2021-04-18T08:40:15.189Z</time>
      </trkpt>
      <trkpt lat="43.1103" lon="0.37922">
        <ele>665.375296</ele>
        <time>2021-04-18T08:40:18.192Z</time>
      </trkpt>
      <trkpt lat="43.11019" lon="0.37919">
        <ele>665.758577</ele>
        <time>2021-04-18T08:40:21.187Z</time>
      </trkpt>
      <trkpt lat="43.11008" lon="0.37915">
        <ele>666.143417</ele>
        <time>2021-04-18T08:40:24.186Z</time>
      </trkpt>
      <trkpt lat="43.10998" lon="0.37912">
        <ele>666.515962</ele>
        <time>2021-04-18T08:40:27.222Z</time>
      </trkpt>
      <trkpt lat="43.10988" lon="0.37909">
        <ele>666.86009</ele>
        <time>2021-04-18T08:40:30.185Z</time>
      </trkpt>
      <trkpt lat="43.10977" lon="0.37906">
        <ele>667.259366</ele>
        <time>2021-04-18T08:40:34.197Z</time>
      </trkpt>
      <trkpt lat="43.10966" lon="0.37904">
        <ele>667.61659</ele>
        <time>2021-04-18T08:40:38.228Z</time>
      </trkpt>
      <trkpt lat="43.10957" lon="0.37908">
        <ele>667.956681</ele>
        <time>2021-04-18T08:40:43.208Z</time>
      </trkpt>
      <trkpt lat="43.10955" lon="0.37921">
        <ele>668.280492</ele>
        <time>2021-04-18T08:40:46.211Z</time>
      </trkpt>
      <trkpt lat="43.10952" lon="0.37934">
        <ele>668.64229</ele>
        <time>2021-04-18T08:40:50.219Z</time>
      </trkpt>
      <trkpt lat="43.10948" lon="0.37946">
        <ele>668.969855</ele>
        <time>2021-04-18T08:40:54.220Z</time>
      </trkpt>
      <trkpt lat="43.10947" lon="0.37959">
        <ele>669.301657</ele>
        <time>2021-04-18T08:40:58.192Z</time>
      </trkpt>
      <trkpt lat="43.10951" lon="0.37972">
        <ele>669.653451</ele>
        <time>2021-04-18T08:41:02.173Z</time>
      </trkpt>
      <trkpt lat="43.10962" lon="0.37979">
        <ele>669.994663</ele>
        <time>2021-04-18T08:41:05.169Z</time>
      </trkpt>
      <trkpt lat="43.1097" lon="0.37989">
        <ele>670.072816</ele>
        <time>2021-04-18T08:41:08.183Z</time>
      </trkpt>
      <trkpt lat="43.1098" lon="0.37995">
        <ele>670.146707</ele>
        <time>2021-04-18T08:41:11.159Z</time>
      </trkpt>
      <trkpt lat="43.10989" lon="0.37999">
        <ele>670.211297</ele>
        <time>2021-04-18T08:41:14.188Z</time>
      </trkpt>
      <trkpt lat="43.10998" lon="0.38003">
        <ele>670.277357</ele>
        <time>2021-04-18T08:41:17.168Z</time>
      </trkpt>
      <trkpt lat="43.11009" lon="0.38006">
        <ele>670.348196</ele>
        <time>2021-04-18T08:41:20.187Z</time>
      </trkpt>
      <trkpt lat="43.11021" lon="0.38009">
        <ele>670.432538</ele>
        <time>2021-04-18T08:41:23.173Z</time>
      </trkpt>
      <trkpt lat="43.1103" lon="0.38016">
        <ele>670.50301</ele>
        <time>2021-04-18T08:41:26.169Z</time>
      </trkpt>
      <trkpt lat="43.11028" lon="0.38031">
        <ele>670.577764</ele>
        <time>2021-04-18T08:41:30.201Z</time>
      </trkpt>
      <trkpt lat="43.11028" lon="0.38046">
        <ele>670.655783</ele>
        <time>2021-04-18T08:41:34.208Z</time>
      </trkpt>
      <trkpt lat="43.11026" lon="0.38062">
        <ele>670.735152</ele>
        <time>2021-04-18T08:41:38.159Z</time>
      </trkpt>
      <trkpt lat="43.11025" lon="0.38077">
        <ele>670.809717</ele>
        <time>2021-04-18T08:41:42.198Z</time>
      </trkpt>
      <trkpt lat="43.11024" lon="0.38089">
        <ele>670.87131</ele>
        <time>2021-04-18T08:41:45.188Z</time>
      </trkpt>
      <trkpt lat="43.11023" lon="0.38103">
        <ele>670.941824</ele>
        <time>2021-04-18T08:41:49.175Z</time>
      </trkpt>
      <trkpt lat="43.11021" lon="0.38116">
        <ele>671.007687</ele>
        <time>2021-04-18T08:41:54.182Z</time>
      </trkpt>
      <trkpt lat="43.11031" lon="0.3812">
        <ele>671.080439</ele>
        <time>2021-04-18T08:46:21.181Z</time>
      </trkpt>
      <trkpt lat="43.11029" lon="0.3808">
        <ele>671.129009</ele>
        <time>2021-04-18T09:36:51.944Z</time>
      </trkpt>
      <trkpt lat="43.1103" lon="0.38067">
        <ele>671.055371</ele>
        <time>2021-04-18T09:36:55.946Z</time>
      </trkpt>
      <trkpt lat="43.11033" lon="0.38053">
        <ele>670.977775</ele>
        <time>2021-04-18T09:36:59.948Z</time>
      </trkpt>
      <trkpt lat="43.11035" lon="0.38039">
        <ele>670.902439</ele>
        <time>2021-04-18T09:37:03.981Z</time>
      </trkpt>
      <trkpt lat="43.11037" lon="0.38026">
        <ele>670.833344</ele>
        <time>2021-04-18T09:37:07.983Z</time>
      </trkpt>
      <trkpt lat="43.11037" lon="0.38013">
        <ele>670.762705</ele>
        <time>2021-04-18T09:37:11.929Z</time>
      </trkpt>
      <trkpt lat="43.11032" lon="0.38002">
        <ele>670.692513</ele>
        <time>2021-04-18T09:37:15.932Z</time>
      </trkpt>
      <trkpt lat="43.11022" lon="0.37998">
        <ele>670.613303</ele>
        <time>2021-04-18T09:37:19.969Z</time>
      </trkpt>
      <trkpt lat="43.1101" lon="0.37996">
        <ele>670.528922</ele>
        <time>2021-04-18T09:37:23.934Z</time>
      </trkpt>
      <trkpt lat="43.10999" lon="0.37994">
        <ele>670.443978</ele>
        <time>2021-04-18T09:37:27.941Z</time>
      </trkpt>
      <trkpt lat="43.1099" lon="0.37991">
        <ele>670.374262</ele>
        <time>2021-04-18T09:37:31.948Z</time>
      </trkpt>
      <trkpt lat="43.1098" lon="0.37989">
        <ele>670.300776</ele>
        <time>2021-04-18T09:37:36.957Z</time>
      </trkpt>
      <trkpt lat="43.10971" lon="0.37987">
        <ele>670.232997</ele>
        <time>2021-04-18T09:37:40.934Z</time>
      </trkpt>
      <trkpt lat="43.10961" lon="0.37987">
        <ele>670.16222</ele>
        <time>2021-04-18T09:37:45.949Z</time>
      </trkpt>
      <trkpt lat="43.10953" lon="0.37979">
        <ele>670.084955</ele>
        <time>2021-04-18T09:37:51.941Z</time>
      </trkpt>
      <trkpt lat="43.10953" lon="0.37964">
        <ele>670.003149</ele>
        <time>2021-04-18T09:37:55.945Z</time>
      </trkpt>
      <trkpt lat="43.10955" lon="0.37949">
        <ele>669.922392</ele>
        <time>2021-04-18T09:37:59.953Z</time>
      </trkpt>
      <trkpt lat="43.10957" lon="0.37935">
        <ele>669.915784</ele>
        <time>2021-04-18T09:38:03.966Z</time>
      </trkpt>
      <trkpt lat="43.10959" lon="0.37922">
        <ele>669.989172</ele>
        <time>2021-04-18T09:38:07.980Z</time>
      </trkpt>
      <trkpt lat="43.10964" lon="0.37911">
        <ele>670.055401</ele>
        <time>2021-04-18T09:38:11.974Z</time>
      </trkpt>
      <trkpt lat="43.10974" lon="0.37912">
        <ele>670.128593</ele>
        <time>2021-04-18T09:38:15.943Z</time>
      </trkpt>
      <trkpt lat="43.10984" lon="0.37915">
        <ele>670.201015</ele>
        <time>2021-04-18T09:38:18.947Z</time>
      </trkpt>
      <trkpt lat="43.10994" lon="0.37919">
        <ele>670.275235</ele>
        <time>2021-04-18T09:38:21.985Z</time>
      </trkpt>
      <trkpt lat="43.11004" lon="0.3792">
        <ele>670.353287</ele>
        <time>2021-04-18T09:38:24.982Z</time>
      </trkpt>
      <trkpt lat="43.11016" lon="0.37923">
        <ele>670.436227</ele>
        <time>2021-04-18T09:38:27.955Z</time>
      </trkpt>
      <trkpt lat="43.11027" lon="0.37926">
        <ele>670.520342</ele>
        <time>2021-04-18T09:38:30.943Z</time>
      </trkpt>
      <trkpt lat="43.11038" lon="0.37929">
        <ele>670.601413</ele>
        <time>2021-04-18T09:38:33.955Z</time>
      </trkpt>
      <trkpt lat="43.11049" lon="0.3793">
        <ele>670.678808</ele>
        <time>2021-04-18T09:38:36.986Z</time>
      </trkpt>
      <trkpt lat="43.11059" lon="0.37932">
        <ele>670.754264</ele>
        <time>2021-04-18T09:38:39.987Z</time>
      </trkpt>
      <trkpt lat="43.11069" lon="0.37935">
        <ele>670.830599</ele>
        <time>2021-04-18T09:38:42.942Z</time>
      </trkpt>
      <trkpt lat="43.11079" lon="0.37938">
        <ele>670.905132</ele>
        <time>2021-04-18T09:38:45.954Z</time>
      </trkpt>
      <trkpt lat="43.11089" lon="0.37941">
        <ele>670.976019</ele>
        <time>2021-04-18T09:38:48.972Z</time>
      </trkpt>
      <trkpt lat="43.11099" lon="0.37945">
        <ele>671.050377</ele>
        <time>2021-04-18T09:38:51.979Z</time>
      </trkpt>
      <trkpt lat="43.1111" lon="0.37948">
        <ele>671.132087</ele>
        <time>2021-04-18T09:38:54.946Z</time>
      </trkpt>
      <trkpt lat="43.11121" lon="0.3795">
        <ele>671.187741</ele>
        <time>2021-04-18T09:38:57.944Z</time>
      </trkpt>
      <trkpt lat="43.11132" lon="0.37954">
        <ele>671.196295</ele>
        <time>2021-04-18T09:39:00.949Z</time>
      </trkpt>
      <trkpt lat="43.11142" lon="0.37957">
        <ele>671.204591</ele>
        <time>2021-04-18T09:39:03.981Z</time>
      </trkpt>
      <trkpt lat="43.11152" lon="0.37961">
        <ele>671.212947</ele>
        <time>2021-04-18T09:39:06.944Z</time>
      </trkpt>
      <trkpt lat="43.11163" lon="0.37964">
        <ele>671.221226</ele>
        <time>2021-04-18T09:39:09.958Z</time>
      </trkpt>
      <trkpt lat="43.11172" lon="0.37967">
        <ele>671.228934</ele>
        <time>2021-04-18T09:39:12.954Z</time>
      </trkpt>
      <trkpt lat="43.11182" lon="0.3797">
        <ele>671.236772</ele>
        <time>2021-04-18T09:39:15.977Z</time>
      </trkpt>
      <trkpt lat="43.11192" lon="0.37973">
        <ele>671.244681</ele>
        <time>2021-04-18T09:39:18.978Z</time>
      </trkpt>
      <trkpt lat="43.11201" lon="0.37976">
        <ele>671.251821</ele>
        <time>2021-04-18T09:39:20.959Z</time>
      </trkpt>
      <trkpt lat="43.11211" lon="0.37979">
        <ele>671.26002</ele>
        <time>2021-04-18T09:39:22.954Z</time>
      </trkpt>
      <trkpt lat="43.11221" lon="0.37982">
        <ele>671.268001</ele>
        <time>2021-04-18T09:39:24.947Z</time>
      </trkpt>
      <trkpt lat="43.11232" lon="0.37985">
        <ele>671.276264</ele>
        <time>2021-04-18T09:39:26.954Z</time>
      </trkpt>
      <trkpt lat="43.11242" lon="0.37988">
        <ele>671.284452</ele>
        <time>2021-04-18T09:39:28.932Z</time>
      </trkpt>
      <trkpt lat="43.11252" lon="0.37991">
        <ele>671.2925</ele>
        <time>2021-04-18T09:39:30.950Z</time>
      </trkpt>
      <trkpt lat="43.11263" lon="0.37993">
        <ele>671.300573</ele>
        <time>2021-04-18T09:39:32.955Z</time>
      </trkpt>
      <trkpt lat="43.11273" lon="0.37995">
        <ele>671.309148</ele>
        <time>2021-04-18T09:39:34.939Z</time>
      </trkpt>
      <trkpt lat="43.11284" lon="0.37998">
        <ele>671.317291</ele>
        <time>2021-04-18T09:39:36.975Z</time>
      </trkpt>
      <trkpt lat="43.11294" lon="0.38">
        <ele>671.334934</ele>
        <time>2021-04-18T09:39:38.952Z</time>
      </trkpt>
      <trkpt lat="43.11304" lon="0.38004">
        <ele>671.437449</ele>
        <time>2021-04-18T09:39:40.950Z</time>
      </trkpt>
      <trkpt lat="43.11314" lon="0.38009">
        <ele>671.540683</ele>
        <time>2021-04-18T09:39:42.951Z</time>
      </trkpt>
      <trkpt lat="43.11323" lon="0.38016">
        <ele>671.644163</ele>
        <time>2021-04-18T09:39:44.941Z</time>
      </trkpt>
      <trkpt lat="43.1133" lon="0.38025">
        <ele>671.740422</ele>
        <time>2021-04-18T09:39:46.957Z</time>
      </trkpt>
      <trkpt lat="43.11337" lon="0.38033">
        <ele>671.829156</ele>
        <time>2021-04-18T09:39:48.948Z</time>
      </trkpt>
      <trkpt lat="43.11348" lon="0.38038">
        <ele>671.945584</ele>
        <time>2021-04-18T09:39:51.977Z</time>
      </trkpt>
      <trkpt lat="43.11359" lon="0.38034">
        <ele>672.057619</ele>
        <time>2021-04-18T09:39:54.936Z</time>
      </trkpt>
      <trkpt lat="43.11368" lon="0.38028">
        <ele>672.153237</ele>
        <time>2021-04-18T09:39:57.933Z</time>
      </trkpt>
      <trkpt lat="43.11377" lon="0.38026">
        <ele>672.243359</ele>
        <time>2021-04-18T09:40:00.970Z</time>
      </trkpt>
      <trkpt lat="43.11388" lon="0.38028">
        <ele>672.350968</ele>
        <time>2021-04-18T09:40:03.937Z</time>
      </trkpt>
      <trkpt lat="43.11401" lon="0.38032">
        <ele>672.484246</ele>
        <time>2021-04-18T09:40:06.974Z</time>
      </trkpt>
      <trkpt lat="43.1141" lon="0.38035">
        <ele>672.576187</ele>
        <time>2021-04-18T09:40:08.984Z</time>
      </trkpt>
      <trkpt lat="43.11422" lon="0.38038">
        <ele>672.688571</ele>
        <time>2021-04-18T09:40:11.979Z</time>
      </trkpt>
      <trkpt lat="43.11431" lon="0.38041">
        <ele>672.788016</ele>
        <time>2021-04-18T09:40:14.958Z</time>
      </trkpt>
      <trkpt lat="43.11444" lon="0.38046">
        <ele>672.916482</ele>
        <time>2021-04-18T09:40:17.978Z</time>
      </trkpt>
      <trkpt lat="43.11453" lon="0.38048">
        <ele>673.005193</ele>
        <time>2021-04-18T09:40:19.988Z</time>
      </trkpt>
      <trkpt lat="43.11462" lon="0.3805">
        <ele>673.052099</ele>
        <time>2021-04-18T09:40:21.946Z</time>
      </trkpt>
      <trkpt lat="43.11471" lon="0.38052">
        <ele>672.545055</ele>
        <time>2021-04-18T09:40:23.947Z</time>
      </trkpt>
      <trkpt lat="43.11484" lon="0.38054">
        <ele>671.844998</ele>
        <time>2021-04-18T09:40:26.986Z</time>
      </trkpt>
      <trkpt lat="43.11502" lon="0.38056">
        <ele>670.878247</ele>
        <time>2021-04-18T09:40:30.963Z</time>
      </trkpt>
      <trkpt lat="43.11511" lon="0.38058">
        <ele>670.347355</ele>
        <time>2021-04-18T09:40:32.955Z</time>
      </trkpt>
      <trkpt lat="43.11521" lon="0.3806">
        <ele>669.778017</ele>
        <time>2021-04-18T09:40:34.930Z</time>
      </trkpt>
      <trkpt lat="43.11532" lon="0.38064">
        <ele>669.159026</ele>
        <time>2021-04-18T09:40:36.948Z</time>
      </trkpt>
      <trkpt lat="43.11544" lon="0.38067">
        <ele>668.528713</ele>
        <time>2021-04-18T09:40:38.952Z</time>
      </trkpt>
      <trkpt lat="43.11555" lon="0.3807">
        <ele>667.890119</ele>
        <time>2021-04-18T09:40:40.955Z</time>
      </trkpt>
      <trkpt lat="43.11566" lon="0.38074">
        <ele>667.254166</ele>
        <time>2021-04-18T09:40:42.952Z</time>
      </trkpt>
      <trkpt lat="43.11577" lon="0.38078">
        <ele>666.620189</ele>
        <time>2021-04-18T09:40:44.957Z</time>
      </trkpt>
      <trkpt lat="43.11589" lon="0.38081">
        <ele>665.99535</ele>
        <time>2021-04-18T09:40:46.948Z</time>
      </trkpt>
      <trkpt lat="43.11599" lon="0.38083">
        <ele>665.397071</ele>
        <time>2021-04-18T09:40:48.959Z</time>
      </trkpt>
      <trkpt lat="43.11611" lon="0.38085">
        <ele>664.762077</ele>
        <time>2021-04-18T09:40:50.958Z</time>
      </trkpt>
      <trkpt lat="43.11622" lon="0.38089">
        <ele>664.136241</ele>
        <time>2021-04-18T09:40:52.954Z</time>
      </trkpt>
      <trkpt lat="43.11633" lon="0.38093">
        <ele>663.522565</ele>
        <time>2021-04-18T09:40:54.948Z</time>
      </trkpt>
      <trkpt lat="43.11643" lon="0.38096">
        <ele>662.968766</ele>
        <time>2021-04-18T09:40:56.961Z</time>
      </trkpt>
      <trkpt lat="43.11652" lon="0.381">
        <ele>662.468124</ele>
        <time>2021-04-18T09:40:58.951Z</time>
      </trkpt>
      <trkpt lat="43.11661" lon="0.38103">
        <ele>662.000904</ele>
        <time>2021-04-18T09:41:00.955Z</time>
      </trkpt>
      <trkpt lat="43.1167" lon="0.38107">
        <ele>661.520933</ele>
        <time>2021-04-18T09:41:02.947Z</time>
      </trkpt>
      <trkpt lat="43.11679" lon="0.38108">
        <ele>661.054799</ele>
        <time>2021-04-18T09:41:04.929Z</time>
      </trkpt>
      <trkpt lat="43.11689" lon="0.38108">
        <ele>660.554439</ele>
        <time>2021-04-18T09:41:06.932Z</time>
      </trkpt>
      <trkpt lat="43.11699" lon="0.38111">
        <ele>660.026104</ele>
        <time>2021-04-18T09:41:08.952Z</time>
      </trkpt>
      <trkpt lat="43.11709" lon="0.38114">
        <ele>659.500688</ele>
        <time>2021-04-18T09:41:10.946Z</time>
      </trkpt>
      <trkpt lat="43.1172" lon="0.38117">
        <ele>658.949545</ele>
        <time>2021-04-18T09:41:12.948Z</time>
      </trkpt>
      <trkpt lat="43.11731" lon="0.3812">
        <ele>658.391908</ele>
        <time>2021-04-18T09:41:14.983Z</time>
      </trkpt>
      <trkpt lat="43.11741" lon="0.38122">
        <ele>657.832145</ele>
        <time>2021-04-18T09:41:16.986Z</time>
      </trkpt>
      <trkpt lat="43.11752" lon="0.38125">
        <ele>657.305202</ele>
        <time>2021-04-18T09:41:18.980Z</time>
      </trkpt>
      <trkpt lat="43.11761" lon="0.38128">
        <ele>656.796931</ele>
        <time>2021-04-18T09:41:20.955Z</time>
      </trkpt>
      <trkpt lat="43.11771" lon="0.38131">
        <ele>656.290708</ele>
        <time>2021-04-18T09:41:22.950Z</time>
      </trkpt>
      <trkpt lat="43.11781" lon="0.38134">
        <ele>655.768747</ele>
        <time>2021-04-18T09:41:24.937Z</time>
      </trkpt>
      <trkpt lat="43.11791" lon="0.38137">
        <ele>655.254193</ele>
        <time>2021-04-18T09:41:26.943Z</time>
      </trkpt>
      <trkpt lat="43.11801" lon="0.3814">
        <ele>654.722266</ele>
        <time>2021-04-18T09:41:28.955Z</time>
      </trkpt>
      <trkpt lat="43.11812" lon="0.38142">
        <ele>654.172132</ele>
        <time>2021-04-18T09:41:30.964Z</time>
      </trkpt>
      <trkpt lat="43.11823" lon="0.38144">
        <ele>653.869658</ele>
        <time>2021-04-18T09:41:32.946Z</time>
      </trkpt>
      <trkpt lat="43.11834" lon="0.38147">
        <ele>653.634113</ele>
        <time>2021-04-18T09:41:34.935Z</time>
      </trkpt>
      <trkpt lat="43.11845" lon="0.38152">
        <ele>653.385111</ele>
        <time>2021-04-18T09:41:36.965Z</time>
      </trkpt>
      <trkpt lat="43.11857" lon="0.38156">
        <ele>653.133946</ele>
        <time>2021-04-18T09:41:38.985Z</time>
      </trkpt>
      <trkpt lat="43.11869" lon="0.38159">
        <ele>652.893797</ele>
        <time>2021-04-18T09:41:40.951Z</time>
      </trkpt>
      <trkpt lat="43.1188" lon="0.38165">
        <ele>652.658298</ele>
        <time>2021-04-18T09:41:42.983Z</time>
      </trkpt>
      <trkpt lat="43.1189" lon="0.38173">
        <ele>652.422054</ele>
        <time>2021-04-18T09:41:44.944Z</time>
      </trkpt>
      <trkpt lat="43.11899" lon="0.38179">
        <ele>652.204788</ele>
        <time>2021-04-18T09:41:46.955Z</time>
      </trkpt>
      <trkpt lat="43.1191" lon="0.38186">
        <ele>651.966809</ele>
        <time>2021-04-18T09:41:49.953Z</time>
      </trkpt>
      <trkpt lat="43.1192" lon="0.38185">
        <ele>651.757687</ele>
        <time>2021-04-18T09:41:52.946Z</time>
      </trkpt>
      <trkpt lat="43.11926" lon="0.38172">
        <ele>651.526217</ele>
        <time>2021-04-18T09:41:55.943Z</time>
      </trkpt>
      <trkpt lat="43.11932" lon="0.38158">
        <ele>651.281152</ele>
        <time>2021-04-18T09:41:58.935Z</time>
      </trkpt>
      <trkpt lat="43.11939" lon="0.38146">
        <ele>651.058117</ele>
        <time>2021-04-18T09:42:01.958Z</time>
      </trkpt>
      <trkpt lat="43.11946" lon="0.38136">
        <ele>650.845673</ele>
        <time>2021-04-18T09:42:04.951Z</time>
      </trkpt>
      <trkpt lat="43.11954" lon="0.38127">
        <ele>650.638174</ele>
        <time>2021-04-18T09:42:07.947Z</time>
      </trkpt>
      <trkpt lat="43.11963" lon="0.38121">
        <ele>650.439096</ele>
        <time>2021-04-18T09:42:10.931Z</time>
      </trkpt>
      <trkpt lat="43.11972" lon="0.38117">
        <ele>650.377451</ele>
        <time>2021-04-18T09:42:13.977Z</time>
      </trkpt>
      <trkpt lat="43.11982" lon="0.38113">
        <ele>650.403693</ele>
        <time>2021-04-18T09:42:16.986Z</time>
      </trkpt>
      <trkpt lat="43.11992" lon="0.3811">
        <ele>650.430105</ele>
        <time>2021-04-18T09:42:19.944Z</time>
      </trkpt>
      <trkpt lat="43.12003" lon="0.38106">
        <ele>650.457318</ele>
        <time>2021-04-18T09:42:22.946Z</time>
      </trkpt>
      <trkpt lat="43.12013" lon="0.38102">
        <ele>650.484086</ele>
        <time>2021-04-18T09:42:25.943Z</time>
      </trkpt>
      <trkpt lat="43.12022" lon="0.38099">
        <ele>650.508096</ele>
        <time>2021-04-18T09:42:28.951Z</time>
      </trkpt>
      <trkpt lat="43.12031" lon="0.38095">
        <ele>650.533064</ele>
        <time>2021-04-18T09:42:31.965Z</time>
      </trkpt>
      <trkpt lat="43.12041" lon="0.38091">
        <ele>650.558994</ele>
        <time>2021-04-18T09:42:34.957Z</time>
      </trkpt>
      <trkpt lat="43.12051" lon="0.38086">
        <ele>650.58744</ele>
        <time>2021-04-18T09:42:37.949Z</time>
      </trkpt>
      <trkpt lat="43.12062" lon="0.38084">
        <ele>650.614929</ele>
        <time>2021-04-18T09:42:40.985Z</time>
      </trkpt>
      <trkpt lat="43.12072" lon="0.38079">
        <ele>650.64183</ele>
        <time>2021-04-18T09:42:44.932Z</time>
      </trkpt>
      <trkpt lat="43.12078" lon="0.38068">
        <ele>650.668668</ele>
        <time>2021-04-18T09:42:48.937Z</time>
      </trkpt>
      <trkpt lat="43.12075" lon="0.38055">
        <ele>650.693295</ele>
        <time>2021-04-18T09:42:51.932Z</time>
      </trkpt>
      <trkpt lat="43.1207" lon="0.38044">
        <ele>650.718296</ele>
        <time>2021-04-18T09:42:54.945Z</time>
      </trkpt>
      <trkpt lat="43.12067" lon="0.38032">
        <ele>650.741254</ele>
        <time>2021-04-18T09:42:57.924Z</time>
      </trkpt>
      <trkpt lat="43.12062" lon="0.38019">
        <ele>650.769345</ele>
        <time>2021-04-18T09:43:01.946Z</time>
      </trkpt>
      <trkpt lat="43.12058" lon="0.38004">
        <ele>650.799234</ele>
        <time>2021-04-18T09:43:05.955Z</time>
      </trkpt>
      <trkpt lat="43.12053" lon="0.37993">
        <ele>650.807109</ele>
        <time>2021-04-18T09:43:08.945Z</time>
      </trkpt>
      <trkpt lat="43.12047" lon="0.37981">
        <ele>650.658733</ele>
        <time>2021-04-18T09:43:11.982Z</time>
      </trkpt>
      <trkpt lat="43.12041" lon="0.37968">
        <ele>650.497962</ele>
        <time>2021-04-18T09:43:14.982Z</time>
      </trkpt>
      <trkpt lat="43.12036" lon="0.37956">
        <ele>650.353581</ele>
        <time>2021-04-18T09:43:17.948Z</time>
      </trkpt>
      <trkpt lat="43.12032" lon="0.37942">
        <ele>650.196309</ele>
        <time>2021-04-18T09:43:21.953Z</time>
      </trkpt>
      <trkpt lat="43.12028" lon="0.37927">
        <ele>650.035288</ele>
        <time>2021-04-18T09:43:26.945Z</time>
      </trkpt>
      <trkpt lat="43.12025" lon="0.37913">
        <ele>649.884778</ele>
        <time>2021-04-18T09:43:29.998Z</time>
      </trkpt>
      <trkpt lat="43.1202" lon="0.37898">
        <ele>649.704915</ele>
        <time>2021-04-18T09:43:32.950Z</time>
      </trkpt>
      <trkpt lat="43.12013" lon="0.37883">
        <ele>649.522457</ele>
        <time>2021-04-18T09:43:35.956Z</time>
      </trkpt>
      <trkpt lat="43.12006" lon="0.37867">
        <ele>649.333584</ele>
        <time>2021-04-18T09:43:38.947Z</time>
      </trkpt>
      <trkpt lat="43.12002" lon="0.37856">
        <ele>649.202672</ele>
        <time>2021-04-18T09:43:40.947Z</time>
      </trkpt>
      <trkpt lat="43.11997" lon="0.37844">
        <ele>649.059079</ele>
        <time>2021-04-18T09:43:42.956Z</time>
      </trkpt>
      <trkpt lat="43.11992" lon="0.37832">
        <ele>648.911671</ele>
        <time>2021-04-18T09:43:44.974Z</time>
      </trkpt>
      <trkpt lat="43.11988" lon="0.37818">
        <ele>648.752879</ele>
        <time>2021-04-18T09:43:46.945Z</time>
      </trkpt>
      <trkpt lat="43.11984" lon="0.37802">
        <ele>648.583678</ele>
        <time>2021-04-18T09:43:48.971Z</time>
      </trkpt>
      <trkpt lat="43.11982" lon="0.37786">
        <ele>648.411246</ele>
        <time>2021-04-18T09:43:50.947Z</time>
      </trkpt>
      <trkpt lat="43.11978" lon="0.37767">
        <ele>648.183587</ele>
        <time>2021-04-18T09:43:52.942Z</time>
      </trkpt>
      <trkpt lat="43.11974" lon="0.37747">
        <ele>647.851786</ele>
        <time>2021-04-18T09:43:54.936Z</time>
      </trkpt>
      <trkpt lat="43.11972" lon="0.37727">
        <ele>647.513827</ele>
        <time>2021-04-18T09:43:56.961Z</time>
      </trkpt>
      <trkpt lat="43.11972" lon="0.37706">
        <ele>647.185166</ele>
        <time>2021-04-18T09:43:58.986Z</time>
      </trkpt>
      <trkpt lat="43.11974" lon="0.37688">
        <ele>646.881298</ele>
        <time>2021-04-18T09:44:00.948Z</time>
      </trkpt>
      <trkpt lat="43.11979" lon="0.37674">
        <ele>646.636008</ele>
        <time>2021-04-18T09:44:02.944Z</time>
      </trkpt>
      <trkpt lat="43.11989" lon="0.37667">
        <ele>646.373028</ele>
        <time>2021-04-18T09:44:04.936Z</time>
      </trkpt>
      <trkpt lat="43.12002" lon="0.37668">
        <ele>646.096886</ele>
        <time>2021-04-18T09:44:06.941Z</time>
      </trkpt>
      <trkpt lat="43.12014" lon="0.37675">
        <ele>645.814183</ele>
        <time>2021-04-18T09:44:08.979Z</time>
      </trkpt>
      <trkpt lat="43.12025" lon="0.37683">
        <ele>645.538155</ele>
        <time>2021-04-18T09:44:10.933Z</time>
      </trkpt>
      <trkpt lat="43.12035" lon="0.37691">
        <ele>645.281798</ele>
        <time>2021-04-18T09:44:12.950Z</time>
      </trkpt>
      <trkpt lat="43.12044" lon="0.37698">
        <ele>645.051497</ele>
        <time>2021-04-18T09:44:14.979Z</time>
      </trkpt>
      <trkpt lat="43.12053" lon="0.37706">
        <ele>644.813893</ele>
        <time>2021-04-18T09:44:16.947Z</time>
      </trkpt>
      <trkpt lat="43.12062" lon="0.37714">
        <ele>644.572419</ele>
        <time>2021-04-18T09:44:18.952Z</time>
      </trkpt>
      <trkpt lat="43.12071" lon="0.37722">
        <ele>644.342862</ele>
        <time>2021-04-18T09:44:20.975Z</time>
      </trkpt>
      <trkpt lat="43.12079" lon="0.37729">
        <ele>644.190222</ele>
        <time>2021-04-18T09:44:22.964Z</time>
      </trkpt>
      <trkpt lat="43.12086" lon="0.37736">
        <ele>644.061986</ele>
        <time>2021-04-18T09:44:24.982Z</time>
      </trkpt>
      <trkpt lat="43.12095" lon="0.37743">
        <ele>643.917956</ele>
        <time>2021-04-18T09:44:26.962Z</time>
      </trkpt>
      <trkpt lat="43.12104" lon="0.3775">
        <ele>643.772652</ele>
        <time>2021-04-18T09:44:28.938Z</time>
      </trkpt>
      <trkpt lat="43.12113" lon="0.37758">
        <ele>643.623497</ele>
        <time>2021-04-18T09:44:30.962Z</time>
      </trkpt>
      <trkpt lat="43.12122" lon="0.37766">
        <ele>643.471489</ele>
        <time>2021-04-18T09:44:32.956Z</time>
      </trkpt>
      <trkpt lat="43.12131" lon="0.37775">
        <ele>643.319994</ele>
        <time>2021-04-18T09:44:34.983Z</time>
      </trkpt>
      <trkpt lat="43.12139" lon="0.37783">
        <ele>643.172585</ele>
        <time>2021-04-18T09:44:36.953Z</time>
      </trkpt>
      <trkpt lat="43.12148" lon="0.3779">
        <ele>643.028243</ele>
        <time>2021-04-18T09:44:38.937Z</time>
      </trkpt>
      <trkpt lat="43.12157" lon="0.37796">
        <ele>642.889353</ele>
        <time>2021-04-18T09:44:40.935Z</time>
      </trkpt>
      <trkpt lat="43.12165" lon="0.37804">
        <ele>642.745967</ele>
        <time>2021-04-18T09:44:42.977Z</time>
      </trkpt>
      <trkpt lat="43.12174" lon="0.37811">
        <ele>642.603009</ele>
        <time>2021-04-18T09:44:44.963Z</time>
      </trkpt>
      <trkpt lat="43.12183" lon="0.37819">
        <ele>642.457381</ele>
        <time>2021-04-18T09:44:46.956Z</time>
      </trkpt>
      <trkpt lat="43.12192" lon="0.37827">
        <ele>642.308141</ele>
        <time>2021-04-18T09:44:48.951Z</time>
      </trkpt>
      <trkpt lat="43.122" lon="0.37834">
        <ele>642.167584</ele>
        <time>2021-04-18T09:44:50.953Z</time>
      </trkpt>
      <trkpt lat="43.12209" lon="0.37841">
        <ele>642.026484</ele>
        <time>2021-04-18T09:44:52.975Z</time>
      </trkpt>
      <trkpt lat="43.12217" lon="0.37848">
        <ele>641.891298</ele>
        <time>2021-04-18T09:44:54.972Z</time>
      </trkpt>
      <trkpt lat="43.12225" lon="0.37854">
        <ele>641.75632</ele>
        <time>2021-04-18T09:44:56.979Z</time>
      </trkpt>
      <trkpt lat="43.12236" lon="0.37864">
        <ele>642.026497</ele>
        <time>2021-04-18T09:44:59.950Z</time>
      </trkpt>
      <trkpt lat="43.12247" lon="0.37875">
        <ele>642.314239</ele>
        <time>2021-04-18T09:45:02.952Z</time>
      </trkpt>
      <trkpt lat="43.12258" lon="0.37884">
        <ele>642.590549</ele>
        <time>2021-04-18T09:45:05.927Z</time>
      </trkpt>
      <trkpt lat="43.12269" lon="0.37893">
        <ele>642.867154</ele>
        <time>2021-04-18T09:45:08.986Z</time>
      </trkpt>
      <trkpt lat="43.1228" lon="0.37903">
        <ele>643.148888</ele>
        <time>2021-04-18T09:45:11.954Z</time>
      </trkpt>
      <trkpt lat="43.12291" lon="0.37912">
        <ele>643.419637</ele>
        <time>2021-04-18T09:45:14.961Z</time>
      </trkpt>
      <trkpt lat="43.12302" lon="0.37922">
        <ele>643.702062</ele>
        <time>2021-04-18T09:45:17.956Z</time>
      </trkpt>
      <trkpt lat="43.12309" lon="0.37928">
        <ele>643.899042</ele>
        <time>2021-04-18T09:45:19.988Z</time>
      </trkpt>
      <trkpt lat="43.12317" lon="0.37934">
        <ele>644.094445</ele>
        <time>2021-04-18T09:45:21.982Z</time>
      </trkpt>
      <trkpt lat="43.12329" lon="0.37942">
        <ele>644.363256</ele>
        <time>2021-04-18T09:45:24.946Z</time>
      </trkpt>
      <trkpt lat="43.1234" lon="0.3795">
        <ele>644.640784</ele>
        <time>2021-04-18T09:45:27.978Z</time>
      </trkpt>
      <trkpt lat="43.12348" lon="0.37957">
        <ele>644.847965</ele>
        <time>2021-04-18T09:45:29.952Z</time>
      </trkpt>
      <trkpt lat="43.12358" lon="0.37966">
        <ele>645.100312</ele>
        <time>2021-04-18T09:45:31.957Z</time>
      </trkpt>
      <trkpt lat="43.12368" lon="0.37975">
        <ele>645.357365</ele>
        <time>2021-04-18T09:45:33.956Z</time>
      </trkpt>
      <trkpt lat="43.12377" lon="0.37982">
        <ele>645.585547</ele>
        <time>2021-04-18T09:45:35.984Z</time>
      </trkpt>
      <trkpt lat="43.12387" lon="0.37991">
        <ele>645.451485</ele>
        <time>2021-04-18T09:45:37.975Z</time>
      </trkpt>
      <trkpt lat="43.12397" lon="0.38">
        <ele>645.254431</ele>
        <time>2021-04-18T09:45:39.971Z</time>
      </trkpt>
      <trkpt lat="43.12407" lon="0.3801">
        <ele>645.049993</ele>
        <time>2021-04-18T09:45:41.954Z</time>
      </trkpt>
      <trkpt lat="43.12417" lon="0.3802">
        <ele>644.846251</ele>
        <time>2021-04-18T09:45:43.948Z</time>
      </trkpt>
      <trkpt lat="43.12427" lon="0.3803">
        <ele>644.655844</ele>
        <time>2021-04-18T09:45:45.943Z</time>
      </trkpt>
      <trkpt lat="43.12436" lon="0.3804">
        <ele>644.46991</ele>
        <time>2021-04-18T09:45:47.954Z</time>
      </trkpt>
      <trkpt lat="43.12446" lon="0.38049">
        <ele>644.280247</ele>
        <time>2021-04-18T09:45:49.946Z</time>
      </trkpt>
      <trkpt lat="43.12455" lon="0.38058">
        <ele>644.096454</ele>
        <time>2021-04-18T09:45:51.956Z</time>
      </trkpt>
      <trkpt lat="43.12464" lon="0.38067">
        <ele>643.914527</ele>
        <time>2021-04-18T09:45:53.956Z</time>
      </trkpt>
      <trkpt lat="43.12473" lon="0.38075">
        <ele>643.735228</ele>
        <time>2021-04-18T09:45:55.964Z</time>
      </trkpt>
      <trkpt lat="43.12483" lon="0.38082">
        <ele>643.561455</ele>
        <time>2021-04-18T09:45:57.961Z</time>
      </trkpt>
      <trkpt lat="43.12491" lon="0.38089">
        <ele>643.403864</ele>
        <time>2021-04-18T09:45:59.951Z</time>
      </trkpt>
      <trkpt lat="43.12498" lon="0.38097">
        <ele>643.253263</ele>
        <time>2021-04-18T09:46:01.942Z</time>
      </trkpt>
      <trkpt lat="43.12506" lon="0.38105">
        <ele>643.099533</ele>
        <time>2021-04-18T09:46:03.948Z</time>
      </trkpt>
      <trkpt lat="43.12514" lon="0.38113">
        <ele>642.935783</ele>
        <time>2021-04-18T09:46:05.983Z</time>
      </trkpt>
      <trkpt lat="43.12521" lon="0.38121">
        <ele>642.782687</ele>
        <time>2021-04-18T09:46:07.944Z</time>
      </trkpt>
      <trkpt lat="43.12529" lon="0.38135">
        <ele>642.321426</ele>
        <time>2021-04-18T09:46:10.937Z</time>
      </trkpt>
      <trkpt lat="43.12536" lon="0.38145">
        <ele>641.785796</ele>
        <time>2021-04-18T09:46:13.938Z</time>
      </trkpt>
      <trkpt lat="43.12545" lon="0.38148">
        <ele>641.294746</ele>
        <time>2021-04-18T09:46:17.928Z</time>
      </trkpt>
      <trkpt lat="43.12544" lon="0.38132">
        <ele>640.676814</ele>
        <time>2021-04-18T09:46:20.937Z</time>
      </trkpt>
      <trkpt lat="43.12539" lon="0.38119">
        <ele>640.12625</ele>
        <time>2021-04-18T09:46:22.934Z</time>
      </trkpt>
      <trkpt lat="43.12533" lon="0.38107">
        <ele>639.577317</ele>
        <time>2021-04-18T09:46:24.936Z</time>
      </trkpt>
      <trkpt lat="43.12526" lon="0.38094">
        <ele>638.969154</ele>
        <time>2021-04-18T09:46:26.979Z</time>
      </trkpt>
      <trkpt lat="43.1252" lon="0.3808">
        <ele>638.375188</ele>
        <time>2021-04-18T09:46:28.936Z</time>
      </trkpt>
      <trkpt lat="43.12514" lon="0.38066">
        <ele>637.788389</ele>
        <time>2021-04-18T09:46:30.979Z</time>
      </trkpt>
      <trkpt lat="43.12508" lon="0.38053">
        <ele>637.202702</ele>
        <time>2021-04-18T09:46:32.939Z</time>
      </trkpt>
      <trkpt lat="43.12503" lon="0.38039">
        <ele>636.603613</ele>
        <time>2021-04-18T09:46:34.939Z</time>
      </trkpt>
      <trkpt lat="43.12498" lon="0.38025">
        <ele>636.003791</ele>
        <time>2021-04-18T09:46:36.955Z</time>
      </trkpt>
      <trkpt lat="43.12496" lon="0.38008">
        <ele>635.375151</ele>
        <time>2021-04-18T09:46:38.950Z</time>
      </trkpt>
      <trkpt lat="43.12491" lon="0.3799">
        <ele>634.65368</ele>
        <time>2021-04-18T09:46:40.980Z</time>
      </trkpt>
      <trkpt lat="43.12484" lon="0.37971">
        <ele>633.875452</ele>
        <time>2021-04-18T09:46:42.996Z</time>
      </trkpt>
      <trkpt lat="43.12478" lon="0.37954">
        <ele>632.995028</ele>
        <time>2021-04-18T09:46:44.957Z</time>
      </trkpt>
      <trkpt lat="43.12472" lon="0.37937">
        <ele>632.002726</ele>
        <time>2021-04-18T09:46:46.955Z</time>
      </trkpt>
      <trkpt lat="43.12465" lon="0.3792">
        <ele>630.993101</ele>
        <time>2021-04-18T09:46:48.993Z</time>
      </trkpt>
      <trkpt lat="43.12459" lon="0.37903">
        <ele>629.981791</ele>
        <time>2021-04-18T09:46:50.955Z</time>
      </trkpt>
      <trkpt lat="43.12453" lon="0.37885">
        <ele>628.953209</ele>
        <time>2021-04-18T09:46:52.960Z</time>
      </trkpt>
      <trkpt lat="43.12449" lon="0.37867">
        <ele>627.940322</ele>
        <time>2021-04-18T09:46:54.939Z</time>
      </trkpt>
      <trkpt lat="43.12445" lon="0.37849">
        <ele>626.941365</ele>
        <time>2021-04-18T09:46:56.943Z</time>
      </trkpt>
      <trkpt lat="43.12439" lon="0.37831">
        <ele>625.909605</ele>
        <time>2021-04-18T09:46:58.983Z</time>
      </trkpt>
      <trkpt lat="43.12431" lon="0.37814">
        <ele>624.859873</ele>
        <time>2021-04-18T09:47:00.983Z</time>
      </trkpt>
      <trkpt lat="43.12424" lon="0.37797">
        <ele>623.823117</ele>
        <time>2021-04-18T09:47:02.943Z</time>
      </trkpt>
      <trkpt lat="43.12414" lon="0.37782">
        <ele>622.80167</ele>
        <time>2021-04-18T09:47:04.964Z</time>
      </trkpt>
      <trkpt lat="43.12403" lon="0.3777">
        <ele>621.781855</ele>
        <time>2021-04-18T09:47:06.940Z</time>
      </trkpt>
      <trkpt lat="43.12392" lon="0.3776">
        <ele>620.810702</ele>
        <time>2021-04-18T09:47:08.954Z</time>
      </trkpt>
      <trkpt lat="43.12382" lon="0.37749">
        <ele>620.645017</ele>
        <time>2021-04-18T09:47:10.956Z</time>
      </trkpt>
      <trkpt lat="43.12371" lon="0.37738">
        <ele>620.922241</ele>
        <time>2021-04-18T09:47:12.948Z</time>
      </trkpt>
      <trkpt lat="43.12366" lon="0.37718">
        <ele>621.233038</ele>
        <time>2021-04-18T09:47:14.987Z</time>
      </trkpt>
      <trkpt lat="43.12364" lon="0.37696">
        <ele>621.55573</ele>
        <time>2021-04-18T09:47:16.932Z</time>
      </trkpt>
      <trkpt lat="43.12366" lon="0.37676">
        <ele>621.856519</ele>
        <time>2021-04-18T09:47:18.937Z</time>
      </trkpt>
      <trkpt lat="43.1237" lon="0.3766">
        <ele>622.107352</ele>
        <time>2021-04-18T09:47:20.976Z</time>
      </trkpt>
      <trkpt lat="43.12377" lon="0.37647">
        <ele>622.340956</ele>
        <time>2021-04-18T09:47:22.963Z</time>
      </trkpt>
      <trkpt lat="43.12384" lon="0.37636">
        <ele>622.560633</ele>
        <time>2021-04-18T09:47:24.954Z</time>
      </trkpt>
      <trkpt lat="43.12391" lon="0.37625">
        <ele>622.758907</ele>
        <time>2021-04-18T09:47:26.930Z</time>
      </trkpt>
      <trkpt lat="43.12397" lon="0.37613">
        <ele>622.979348</ele>
        <time>2021-04-18T09:47:29.980Z</time>
      </trkpt>
      <trkpt lat="43.12404" lon="0.37603">
        <ele>623.189331</ele>
        <time>2021-04-18T09:47:32.946Z</time>
      </trkpt>
      <trkpt lat="43.12412" lon="0.37592">
        <ele>623.412458</ele>
        <time>2021-04-18T09:47:35.954Z</time>
      </trkpt>
      <trkpt lat="43.12422" lon="0.37582">
        <ele>623.648775</ele>
        <time>2021-04-18T09:47:39.948Z</time>
      </trkpt>
      <trkpt lat="43.1243" lon="0.37575">
        <ele>623.853066</ele>
        <time>2021-04-18T09:47:43.952Z</time>
      </trkpt>
      <trkpt lat="43.1244" lon="0.37571">
        <ele>624.052725</ele>
        <time>2021-04-18T09:47:49.944Z</time>
      </trkpt>
      <trkpt lat="43.12449" lon="0.37571">
        <ele>624.86563</ele>
        <time>2021-04-18T09:47:54.955Z</time>
      </trkpt>
      <trkpt lat="43.12459" lon="0.37572">
        <ele>625.941356</ele>
        <time>2021-04-18T09:47:59.963Z</time>
      </trkpt>
      <trkpt lat="43.12468" lon="0.37575">
        <ele>626.938362</ele>
        <time>2021-04-18T09:48:03.953Z</time>
      </trkpt>
      <trkpt lat="43.12479" lon="0.37579">
        <ele>628.076962</ele>
        <time>2021-04-18T09:48:08.949Z</time>
      </trkpt>
      <trkpt lat="43.12489" lon="0.3758">
        <ele>629.152688</ele>
        <time>2021-04-18T09:48:15.931Z</time>
      </trkpt>
      <trkpt lat="43.12498" lon="0.37582">
        <ele>630.155507</ele>
        <time>2021-04-18T09:48:20.932Z</time>
      </trkpt>
      <trkpt lat="43.12508" lon="0.37582">
        <ele>631.130675</ele>
        <time>2021-04-18T09:48:24.979Z</time>
      </trkpt>
      <trkpt lat="43.12518" lon="0.3758">
        <ele>632.229124</ele>
        <time>2021-04-18T09:48:28.964Z</time>
      </trkpt>
      <trkpt lat="43.12527" lon="0.37579">
        <ele>633.228207</ele>
        <time>2021-04-18T09:48:32.955Z</time>
      </trkpt>
      <trkpt lat="43.12537" lon="0.37578">
        <ele>634.222429</ele>
        <time>2021-04-18T09:48:37.957Z</time>
      </trkpt>
      <trkpt lat="43.12547" lon="0.37575">
        <ele>635.392284</ele>
        <time>2021-04-18T09:48:43.928Z</time>
      </trkpt>
      <trkpt lat="43.12557" lon="0.37574">
        <ele>636.439046</ele>
        <time>2021-04-18T09:48:48.955Z</time>
      </trkpt>
      <trkpt lat="43.12567" lon="0.37571">
        <ele>637.443324</ele>
        <time>2021-04-18T09:48:53.949Z</time>
      </trkpt>
      <trkpt lat="43.12576" lon="0.37568">
        <ele>638.463292</ele>
        <time>2021-04-18T09:48:58.964Z</time>
      </trkpt>
      <trkpt lat="43.12586" lon="0.37565">
        <ele>639.543337</ele>
        <time>2021-04-18T09:49:04.954Z</time>
      </trkpt>
      <trkpt lat="43.12596" lon="0.37562">
        <ele>640.602596</ele>
        <time>2021-04-18T09:49:10.943Z</time>
      </trkpt>
      <trkpt lat="43.12606" lon="0.37558">
        <ele>641.755992</ele>
        <time>2021-04-18T09:49:15.955Z</time>
      </trkpt>
      <trkpt lat="43.12615" lon="0.37551">
        <ele>642.87525</ele>
        <time>2021-04-18T09:49:20.938Z</time>
      </trkpt>
      <trkpt lat="43.12625" lon="0.37544">
        <ele>643.170335</ele>
        <time>2021-04-18T09:49:27.934Z</time>
      </trkpt>
      <trkpt lat="43.12632" lon="0.37536">
        <ele>643.185159</ele>
        <time>2021-04-18T09:49:32.969Z</time>
      </trkpt>
      <trkpt lat="43.12639" lon="0.37524">
        <ele>643.202238</ele>
        <time>2021-04-18T09:49:37.972Z</time>
      </trkpt>
      <trkpt lat="43.12645" lon="0.37515">
        <ele>643.216406</ele>
        <time>2021-04-18T09:49:41.961Z</time>
      </trkpt>
      <trkpt lat="43.12652" lon="0.37506">
        <ele>643.230754</ele>
        <time>2021-04-18T09:49:46.946Z</time>
      </trkpt>
      <trkpt lat="43.12657" lon="0.37494">
        <ele>643.246478</ele>
        <time>2021-04-18T09:49:52.944Z</time>
      </trkpt>
      <trkpt lat="43.12663" lon="0.37483">
        <ele>643.26189</ele>
        <time>2021-04-18T09:49:57.971Z</time>
      </trkpt>
      <trkpt lat="43.12669" lon="0.37472">
        <ele>643.277029</ele>
        <time>2021-04-18T09:50:01.957Z</time>
      </trkpt>
      <trkpt lat="43.12675" lon="0.37463">
        <ele>643.291384</ele>
        <time>2021-04-18T09:50:05.953Z</time>
      </trkpt>
      <trkpt lat="43.12683" lon="0.37452">
        <ele>643.308934</ele>
        <time>2021-04-18T09:50:09.956Z</time>
      </trkpt>
      <trkpt lat="43.1269" lon="0.37441">
        <ele>643.324836</ele>
        <time>2021-04-18T09:50:13.946Z</time>
      </trkpt>
      <trkpt lat="43.12696" lon="0.37429">
        <ele>643.341164</ele>
        <time>2021-04-18T09:50:17.977Z</time>
      </trkpt>
      <trkpt lat="43.12702" lon="0.37419">
        <ele>643.355311</ele>
        <time>2021-04-18T09:50:20.951Z</time>
      </trkpt>
      <trkpt lat="43.12708" lon="0.37409">
        <ele>643.370373</ele>
        <time>2021-04-18T09:50:23.954Z</time>
      </trkpt>
      <trkpt lat="43.12715" lon="0.37397">
        <ele>643.387442</ele>
        <time>2021-04-18T09:50:27.996Z</time>
      </trkpt>
      <trkpt lat="43.1272" lon="0.37387">
        <ele>643.401395</ele>
        <time>2021-04-18T09:50:30.944Z</time>
      </trkpt>
      <trkpt lat="43.12726" lon="0.37377">
        <ele>643.416555</ele>
        <time>2021-04-18T09:50:33.963Z</time>
      </trkpt>
      <trkpt lat="43.12732" lon="0.37365">
        <ele>643.432695</ele>
        <time>2021-04-18T09:50:36.949Z</time>
      </trkpt>
      <trkpt lat="43.12738" lon="0.37355">
        <ele>643.353127</ele>
        <time>2021-04-18T09:50:39.954Z</time>
      </trkpt>
      <trkpt lat="43.12745" lon="0.37342">
        <ele>643.213162</ele>
        <time>2021-04-18T09:50:43.951Z</time>
      </trkpt>
      <trkpt lat="43.12751" lon="0.3733">
        <ele>643.081516</ele>
        <time>2021-04-18T09:50:47.943Z</time>
      </trkpt>
      <trkpt lat="43.12758" lon="0.37316">
        <ele>642.942711</ele>
        <time>2021-04-18T09:50:51.987Z</time>
      </trkpt>
      <trkpt lat="43.12767" lon="0.37302">
        <ele>642.782679</ele>
        <time>2021-04-18T09:50:56.928Z</time>
      </trkpt>
      <trkpt lat="43.12775" lon="0.37291">
        <ele>642.64864</ele>
        <time>2021-04-18T09:51:00.955Z</time>
      </trkpt>
      <trkpt lat="43.12781" lon="0.37281">
        <ele>642.536475</ele>
        <time>2021-04-18T09:51:03.948Z</time>
      </trkpt>
      <trkpt lat="43.12787" lon="0.37271">
        <ele>642.42691</ele>
        <time>2021-04-18T09:51:06.956Z</time>
      </trkpt>
      <trkpt lat="43.12792" lon="0.3726">
        <ele>642.316026</ele>
        <time>2021-04-18T09:51:09.976Z</time>
      </trkpt>
      <trkpt lat="43.12799" lon="0.37247">
        <ele>642.176042</ele>
        <time>2021-04-18T09:51:13.977Z</time>
      </trkpt>
      <trkpt lat="43.12806" lon="0.37234">
        <ele>642.03467</ele>
        <time>2021-04-18T09:51:17.977Z</time>
      </trkpt>
      <trkpt lat="43.12812" lon="0.37222">
        <ele>641.911926</ele>
        <time>2021-04-18T09:51:20.984Z</time>
      </trkpt>
      <trkpt lat="43.12818" lon="0.37211">
        <ele>641.791987</ele>
        <time>2021-04-18T09:51:23.986Z</time>
      </trkpt>
      <trkpt lat="43.12825" lon="0.37199">
        <ele>641.664422</ele>
        <time>2021-04-18T09:51:26.981Z</time>
      </trkpt>
      <trkpt lat="43.12833" lon="0.37187">
        <ele>641.522951</ele>
        <time>2021-04-18T09:51:29.957Z</time>
      </trkpt>
      <trkpt lat="43.12842" lon="0.37174">
        <ele>641.370533</ele>
        <time>2021-04-18T09:51:32.956Z</time>
      </trkpt>
      <trkpt lat="43.1285" lon="0.37159">
        <ele>641.057535</ele>
        <time>2021-04-18T09:51:35.944Z</time>
      </trkpt>
      <trkpt lat="43.12857" lon="0.37144">
        <ele>640.673545</ele>
        <time>2021-04-18T09:51:38.967Z</time>
      </trkpt>
      <trkpt lat="43.12866" lon="0.37131">
        <ele>640.291283</ele>
        <time>2021-04-18T09:51:41.957Z</time>
      </trkpt>
      <trkpt lat="43.12874" lon="0.37117">
        <ele>639.913635</ele>
        <time>2021-04-18T09:51:44.955Z</time>
      </trkpt>
      <trkpt lat="43.12883" lon="0.37102">
        <ele>639.516104</ele>
        <time>2021-04-18T09:51:47.958Z</time>
      </trkpt>
      <trkpt lat="43.12888" lon="0.37091">
        <ele>639.239753</ele>
        <time>2021-04-18T09:51:49.946Z</time>
      </trkpt>
      <trkpt lat="43.12894" lon="0.37081">
        <ele>638.970141</ele>
        <time>2021-04-18T09:51:51.956Z</time>
      </trkpt>
      <trkpt lat="43.129" lon="0.3707">
        <ele>638.685066</ele>
        <time>2021-04-18T09:51:53.957Z</time>
      </trkpt>
      <trkpt lat="43.12907" lon="0.37058">
        <ele>638.360642</ele>
        <time>2021-04-18T09:51:55.987Z</time>
      </trkpt>
      <trkpt lat="43.12914" lon="0.37046">
        <ele>638.025838</ele>
        <time>2021-04-18T09:51:57.955Z</time>
      </trkpt>
      <trkpt lat="43.12921" lon="0.37033">
        <ele>637.679546</ele>
        <time>2021-04-18T09:51:59.957Z</time>
      </trkpt>
      <trkpt lat="43.12927" lon="0.3702">
        <ele>637.360533</ele>
        <time>2021-04-18T09:52:01.945Z</time>
      </trkpt>
      <trkpt lat="43.12934" lon="0.37009">
        <ele>637.058551</ele>
        <time>2021-04-18T09:52:03.962Z</time>
      </trkpt>
      <trkpt lat="43.1294" lon="0.36999">
        <ele>636.786789</ele>
        <time>2021-04-18T09:52:05.953Z</time>
      </trkpt>
      <trkpt lat="43.12946" lon="0.36989">
        <ele>636.51798</ele>
        <time>2021-04-18T09:52:07.954Z</time>
      </trkpt>
      <trkpt lat="43.12952" lon="0.3698">
        <ele>636.251523</ele>
        <time>2021-04-18T09:52:09.954Z</time>
      </trkpt>
      <trkpt lat="43.12957" lon="0.3697">
        <ele>636.035943</ele>
        <time>2021-04-18T09:52:11.996Z</time>
      </trkpt>
      <trkpt lat="43.12965" lon="0.36955">
        <ele>635.799278</ele>
        <time>2021-04-18T09:52:14.989Z</time>
      </trkpt>
      <trkpt lat="43.1297" lon="0.36945">
        <ele>635.632858</ele>
        <time>2021-04-18T09:52:16.951Z</time>
      </trkpt>
      <trkpt lat="43.12976" lon="0.36935">
        <ele>635.454549</ele>
        <time>2021-04-18T09:52:18.971Z</time>
      </trkpt>
      <trkpt lat="43.12982" lon="0.36924">
        <ele>635.280506</ele>
        <time>2021-04-18T09:52:20.979Z</time>
      </trkpt>
      <trkpt lat="43.12988" lon="0.36914">
        <ele>635.096674</ele>
        <time>2021-04-18T09:52:22.994Z</time>
      </trkpt>
      <trkpt lat="43.12996" lon="0.36904">
        <ele>634.906833</ele>
        <time>2021-04-18T09:52:25.000Z</time>
      </trkpt>
      <trkpt lat="43.13003" lon="0.36894">
        <ele>634.719523</ele>
        <time>2021-04-18T09:52:26.955Z</time>
      </trkpt>
      <trkpt lat="43.13009" lon="0.36885">
        <ele>634.54565</ele>
        <time>2021-04-18T09:52:28.956Z</time>
      </trkpt>
      <trkpt lat="43.13016" lon="0.36876">
        <ele>634.379087</ele>
        <time>2021-04-18T09:52:30.987Z</time>
      </trkpt>
      <trkpt lat="43.13023" lon="0.36865">
        <ele>634.183843</ele>
        <time>2021-04-18T09:52:32.979Z</time>
      </trkpt>
      <trkpt lat="43.13033" lon="0.36855">
        <ele>633.949443</ele>
        <time>2021-04-18T09:52:35.943Z</time>
      </trkpt>
      <trkpt lat="43.13041" lon="0.36847">
        <ele>633.776181</ele>
        <time>2021-04-18T09:52:37.932Z</time>
      </trkpt>
      <trkpt lat="43.13048" lon="0.36839">
        <ele>633.60626</ele>
        <time>2021-04-18T09:52:39.960Z</time>
      </trkpt>
      <trkpt lat="43.13055" lon="0.36831">
        <ele>633.440214</ele>
        <time>2021-04-18T09:52:41.947Z</time>
      </trkpt>
      <trkpt lat="43.13062" lon="0.36823">
        <ele>633.275093</ele>
        <time>2021-04-18T09:52:43.962Z</time>
      </trkpt>
      <trkpt lat="43.1307" lon="0.36811">
        <ele>633.046903</ele>
        <time>2021-04-18T09:52:46.944Z</time>
      </trkpt>
      <trkpt lat="43.1308" lon="0.36799">
        <ele>632.822192</ele>
        <time>2021-04-18T09:52:49.957Z</time>
      </trkpt>
      <trkpt lat="43.13089" lon="0.36788">
        <ele>632.900137</ele>
        <time>2021-04-18T09:52:52.956Z</time>
      </trkpt>
      <trkpt lat="43.13098" lon="0.36777">
        <ele>632.978874</ele>
        <time>2021-04-18T09:52:55.956Z</time>
      </trkpt>
      <trkpt lat="43.13107" lon="0.36764">
        <ele>633.063192</ele>
        <time>2021-04-18T09:52:58.964Z</time>
      </trkpt>
      <trkpt lat="43.13117" lon="0.36752">
        <ele>633.146364</ele>
        <time>2021-04-18T09:53:01.960Z</time>
      </trkpt>
      <trkpt lat="43.13127" lon="0.3674">
        <ele>633.234287</ele>
        <time>2021-04-18T09:53:04.952Z</time>
      </trkpt>
      <trkpt lat="43.13137" lon="0.36727">
        <ele>633.322904</ele>
        <time>2021-04-18T09:53:07.961Z</time>
      </trkpt>
      <trkpt lat="43.13145" lon="0.36719">
        <ele>633.386651</ele>
        <time>2021-04-18T09:53:09.957Z</time>
      </trkpt>
      <trkpt lat="43.13152" lon="0.3671">
        <ele>633.449862</ele>
        <time>2021-04-18T09:53:11.940Z</time>
      </trkpt>
      <trkpt lat="43.13161" lon="0.367">
        <ele>633.521799</ele>
        <time>2021-04-18T09:53:13.946Z</time>
      </trkpt>
      <trkpt lat="43.13169" lon="0.36689">
        <ele>633.59484</ele>
        <time>2021-04-18T09:53:15.987Z</time>
      </trkpt>
      <trkpt lat="43.13178" lon="0.36679">
        <ele>633.667936</ele>
        <time>2021-04-18T09:53:17.960Z</time>
      </trkpt>
      <trkpt lat="43.13187" lon="0.36669">
        <ele>633.744818</ele>
        <time>2021-04-18T09:53:19.979Z</time>
      </trkpt>
      <trkpt lat="43.13195" lon="0.36658">
        <ele>633.816453</ele>
        <time>2021-04-18T09:53:21.955Z</time>
      </trkpt>
      <trkpt lat="43.13203" lon="0.36648">
        <ele>633.885211</ele>
        <time>2021-04-18T09:53:23.970Z</time>
      </trkpt>
      <trkpt lat="43.13212" lon="0.36637">
        <ele>633.965882</ele>
        <time>2021-04-18T09:53:25.964Z</time>
      </trkpt>
      <trkpt lat="43.13221" lon="0.36627">
        <ele>634.021658</ele>
        <time>2021-04-18T09:53:27.964Z</time>
      </trkpt>
      <trkpt lat="43.13228" lon="0.36618">
        <ele>634.069392</ele>
        <time>2021-04-18T09:53:29.989Z</time>
      </trkpt>
      <trkpt lat="43.13238" lon="0.36607">
        <ele>634.127868</ele>
        <time>2021-04-18T09:53:32.952Z</time>
      </trkpt>
      <trkpt lat="43.13246" lon="0.36596">
        <ele>634.182398</ele>
        <time>2021-04-18T09:53:35.936Z</time>
      </trkpt>
      <trkpt lat="43.13255" lon="0.36586">
        <ele>634.236311</ele>
        <time>2021-04-18T09:53:38.950Z</time>
      </trkpt>
      <trkpt lat="43.13264" lon="0.36577">
        <ele>634.286139</ele>
        <time>2021-04-18T09:53:40.959Z</time>
      </trkpt>
      <trkpt lat="43.13271" lon="0.36568">
        <ele>634.332121</ele>
        <time>2021-04-18T09:53:43.978Z</time>
      </trkpt>
      <trkpt lat="43.13279" lon="0.36558">
        <ele>634.383651</ele>
        <time>2021-04-18T09:53:46.947Z</time>
      </trkpt>
      <trkpt lat="43.13287" lon="0.36547">
        <ele>634.435871</ele>
        <time>2021-04-18T09:53:49.963Z</time>
      </trkpt>
      <trkpt lat="43.13295" lon="0.36538">
        <ele>634.482319</ele>
        <time>2021-04-18T09:53:52.989Z</time>
      </trkpt>
      <trkpt lat="43.13302" lon="0.36528">
        <ele>634.530286</ele>
        <time>2021-04-18T09:53:56.007Z</time>
      </trkpt>
      <trkpt lat="43.1331" lon="0.36519">
        <ele>634.580432</ele>
        <time>2021-04-18T09:53:58.954Z</time>
      </trkpt>
      <trkpt lat="43.13317" lon="0.36509">
        <ele>634.627568</ele>
        <time>2021-04-18T09:54:01.959Z</time>
      </trkpt>
      <trkpt lat="43.13325" lon="0.365">
        <ele>634.675629</ele>
        <time>2021-04-18T09:54:04.949Z</time>
      </trkpt>
      <trkpt lat="43.13333" lon="0.3649">
        <ele>634.727418</ele>
        <time>2021-04-18T09:54:07.993Z</time>
      </trkpt>
      <trkpt lat="43.13341" lon="0.36481">
        <ele>634.775251</ele>
        <time>2021-04-18T09:54:10.986Z</time>
      </trkpt>
      <trkpt lat="43.13348" lon="0.36472">
        <ele>634.822319</ele>
        <time>2021-04-18T09:54:13.951Z</time>
      </trkpt>
      <trkpt lat="43.13357" lon="0.36463">
        <ele>635.271768</ele>
        <time>2021-04-18T09:54:16.958Z</time>
      </trkpt>
      <trkpt lat="43.13365" lon="0.36454">
        <ele>635.705226</ele>
        <time>2021-04-18T09:54:19.957Z</time>
      </trkpt>
      <trkpt lat="43.13372" lon="0.36445">
        <ele>636.108522</ele>
        <time>2021-04-18T09:54:22.961Z</time>
      </trkpt>
      <trkpt lat="43.13383" lon="0.36438">
        <ele>636.589526</ele>
        <time>2021-04-18T09:54:26.967Z</time>
      </trkpt>
      <trkpt lat="43.13394" lon="0.36442">
        <ele>637.080796</ele>
        <time>2021-04-18T09:54:30.937Z</time>
      </trkpt>
      <trkpt lat="43.13403" lon="0.36449">
        <ele>637.520922</ele>
        <time>2021-04-18T09:54:33.934Z</time>
      </trkpt>
      <trkpt lat="43.13414" lon="0.36457">
        <ele>638.00397</ele>
        <time>2021-04-18T09:54:36.961Z</time>
      </trkpt>
      <trkpt lat="43.13423" lon="0.36462">
        <ele>638.41065</ele>
        <time>2021-04-18T09:54:39.935Z</time>
      </trkpt>
      <trkpt lat="43.13431" lon="0.36467">
        <ele>638.79085</ele>
        <time>2021-04-18T09:54:43.985Z</time>
      </trkpt>
      <trkpt lat="43.13441" lon="0.36475">
        <ele>639.279855</ele>
        <time>2021-04-18T09:54:46.952Z</time>
      </trkpt>
      <trkpt lat="43.1345" lon="0.36481">
        <ele>639.670528</ele>
        <time>2021-04-18T09:54:48.982Z</time>
      </trkpt>
      <trkpt lat="43.13461" lon="0.36489">
        <ele>640.182679</ele>
        <time>2021-04-18T09:54:51.952Z</time>
      </trkpt>
      <trkpt lat="43.1347" lon="0.36497">
        <ele>640.657401</ele>
        <time>2021-04-18T09:54:54.952Z</time>
      </trkpt>
      <trkpt lat="43.1348" lon="0.36503">
        <ele>641.114021</ele>
        <time>2021-04-18T09:54:57.961Z</time>
      </trkpt>
      <trkpt lat="43.13489" lon="0.36513">
        <ele>641.571708</ele>
        <time>2021-04-18T09:55:00.966Z</time>
      </trkpt>
      <trkpt lat="43.135" lon="0.36523">
        <ele>642.124335</ele>
        <time>2021-04-18T09:55:03.952Z</time>
      </trkpt>
      <trkpt lat="43.13511" lon="0.36532">
        <ele>642.167945</ele>
        <time>2021-04-18T09:55:06.953Z</time>
      </trkpt>
      <trkpt lat="43.13522" lon="0.36539">
        <ele>642.008745</ele>
        <time>2021-04-18T09:55:09.949Z</time>
      </trkpt>
      <trkpt lat="43.13533" lon="0.36546">
        <ele>641.85275</ele>
        <time>2021-04-18T09:55:12.952Z</time>
      </trkpt>
      <trkpt lat="43.13543" lon="0.36552">
        <ele>641.711218</ele>
        <time>2021-04-18T09:55:15.939Z</time>
      </trkpt>
      <trkpt lat="43.13551" lon="0.36559">
        <ele>641.588322</ele>
        <time>2021-04-18T09:55:18.963Z</time>
      </trkpt>
      <trkpt lat="43.1356" lon="0.36566">
        <ele>641.455994</ele>
        <time>2021-04-18T09:55:21.985Z</time>
      </trkpt>
      <trkpt lat="43.13568" lon="0.36574">
        <ele>641.324857</ele>
        <time>2021-04-18T09:55:24.944Z</time>
      </trkpt>
      <trkpt lat="43.13578" lon="0.36582">
        <ele>641.182515</ele>
        <time>2021-04-18T09:55:27.947Z</time>
      </trkpt>
      <trkpt lat="43.13588" lon="0.36589">
        <ele>641.031783</ele>
        <time>2021-04-18T09:55:30.957Z</time>
      </trkpt>
      <trkpt lat="43.13598" lon="0.36596">
        <ele>640.889918</ele>
        <time>2021-04-18T09:55:33.970Z</time>
      </trkpt>
      <trkpt lat="43.13608" lon="0.36605">
        <ele>640.732559</ele>
        <time>2021-04-18T09:55:36.956Z</time>
      </trkpt>
      <trkpt lat="43.13619" lon="0.36613">
        <ele>640.570181</ele>
        <time>2021-04-18T09:55:39.952Z</time>
      </trkpt>
      <trkpt lat="43.1363" lon="0.3662">
        <ele>640.416955</ele>
        <time>2021-04-18T09:55:42.944Z</time>
      </trkpt>
      <trkpt lat="43.1364" lon="0.36627">
        <ele>640.272755</ele>
        <time>2021-04-18T09:55:45.983Z</time>
      </trkpt>
      <trkpt lat="43.13652" lon="0.36634">
        <ele>640.102311</ele>
        <time>2021-04-18T09:55:48.956Z</time>
      </trkpt>
      <trkpt lat="43.13663" lon="0.36642">
        <ele>639.945844</ele>
        <time>2021-04-18T09:55:51.979Z</time>
      </trkpt>
      <trkpt lat="43.13673" lon="0.36649">
        <ele>639.814721</ele>
        <time>2021-04-18T09:55:54.954Z</time>
      </trkpt>
      <trkpt lat="43.13683" lon="0.36656">
        <ele>639.685158</ele>
        <time>2021-04-18T09:55:57.964Z</time>
      </trkpt>
      <trkpt lat="43.13694" lon="0.36664">
        <ele>639.550856</ele>
        <time>2021-04-18T09:56:00.950Z</time>
      </trkpt>
      <trkpt lat="43.13704" lon="0.36673">
        <ele>639.415498</ele>
        <time>2021-04-18T09:56:03.957Z</time>
      </trkpt>
      <trkpt lat="43.13713" lon="0.36681">
        <ele>639.288326</ele>
        <time>2021-04-18T09:56:06.983Z</time>
      </trkpt>
      <trkpt lat="43.13723" lon="0.36687">
        <ele>639.167975</ele>
        <time>2021-04-18T09:56:09.983Z</time>
      </trkpt>
      <trkpt lat="43.13733" lon="0.36695">
        <ele>639.034877</ele>
        <time>2021-04-18T09:56:12.952Z</time>
      </trkpt>
      <trkpt lat="43.13743" lon="0.36703">
        <ele>638.897781</ele>
        <time>2021-04-18T09:56:15.952Z</time>
      </trkpt>
      <trkpt lat="43.13754" lon="0.36711">
        <ele>638.756278</ele>
        <time>2021-04-18T09:56:18.953Z</time>
      </trkpt>
      <trkpt lat="43.13765" lon="0.3672">
        <ele>638.617869</ele>
        <time>2021-04-18T09:56:21.958Z</time>
      </trkpt>
      <trkpt lat="43.13776" lon="0.36728">
        <ele>638.474334</ele>
        <time>2021-04-18T09:56:24.956Z</time>
      </trkpt>
      <trkpt lat="43.13787" lon="0.36735">
        <ele>638.330534</ele>
        <time>2021-04-18T09:56:27.966Z</time>
      </trkpt>
      <trkpt lat="43.13798" lon="0.36744">
        <ele>638.183572</ele>
        <time>2021-04-18T09:56:30.949Z</time>
      </trkpt>
      <trkpt lat="43.13806" lon="0.36751">
        <ele>638.073926</ele>
        <time>2021-04-18T09:56:32.949Z</time>
      </trkpt>
      <trkpt lat="43.13815" lon="0.36758">
        <ele>637.962015</ele>
        <time>2021-04-18T09:56:34.964Z</time>
      </trkpt>
      <trkpt lat="43.13823" lon="0.36764">
        <ele>637.795817</ele>
        <time>2021-04-18T09:56:36.959Z</time>
      </trkpt>
      <trkpt lat="43.13832" lon="0.36771">
        <ele>637.579154</ele>
        <time>2021-04-18T09:56:38.958Z</time>
      </trkpt>
      <trkpt lat="43.1384" lon="0.36777">
        <ele>637.367691</ele>
        <time>2021-04-18T09:56:40.938Z</time>
      </trkpt>
      <trkpt lat="43.13848" lon="0.36783">
        <ele>637.160778</ele>
        <time>2021-04-18T09:56:42.957Z</time>
      </trkpt>
      <trkpt lat="43.13856" lon="0.36788">
        <ele>636.953246</ele>
        <time>2021-04-18T09:56:44.961Z</time>
      </trkpt>
      <trkpt lat="43.13865" lon="0.36792">
        <ele>636.748837</ele>
        <time>2021-04-18T09:56:46.949Z</time>
      </trkpt>
      <trkpt lat="43.13873" lon="0.36797">
        <ele>636.545424</ele>
        <time>2021-04-18T09:56:48.954Z</time>
      </trkpt>
      <trkpt lat="43.13881" lon="0.36803">
        <ele>636.33095</ele>
        <time>2021-04-18T09:56:50.951Z</time>
      </trkpt>
      <trkpt lat="43.1389" lon="0.36808">
        <ele>636.115369</ele>
        <time>2021-04-18T09:56:52.953Z</time>
      </trkpt>
      <trkpt lat="43.13899" lon="0.36814">
        <ele>635.891861</ele>
        <time>2021-04-18T09:56:54.961Z</time>
      </trkpt>
      <trkpt lat="43.13907" lon="0.3682">
        <ele>635.678404</ele>
        <time>2021-04-18T09:56:56.991Z</time>
      </trkpt>
      <trkpt lat="43.13919" lon="0.36828">
        <ele>635.379292</ele>
        <time>2021-04-18T09:56:59.931Z</time>
      </trkpt>
      <trkpt lat="43.13927" lon="0.36834">
        <ele>635.169345</ele>
        <time>2021-04-18T09:57:01.959Z</time>
      </trkpt>
      <trkpt lat="43.13936" lon="0.36841">
        <ele>634.949895</ele>
        <time>2021-04-18T09:57:03.955Z</time>
      </trkpt>
      <trkpt lat="43.13944" lon="0.36848">
        <ele>634.722076</ele>
        <time>2021-04-18T09:57:05.993Z</time>
      </trkpt>
      <trkpt lat="43.13952" lon="0.36855">
        <ele>634.505043</ele>
        <time>2021-04-18T09:57:07.988Z</time>
      </trkpt>
      <trkpt lat="43.1396" lon="0.36862">
        <ele>634.290971</ele>
        <time>2021-04-18T09:57:09.943Z</time>
      </trkpt>
      <trkpt lat="43.13968" lon="0.36869">
        <ele>634.076856</ele>
        <time>2021-04-18T09:57:11.955Z</time>
      </trkpt>
      <trkpt lat="43.13977" lon="0.36875">
        <ele>633.862169</ele>
        <time>2021-04-18T09:57:13.944Z</time>
      </trkpt>
      <trkpt lat="43.13985" lon="0.36881">
        <ele>633.862528</ele>
        <time>2021-04-18T09:57:15.957Z</time>
      </trkpt>
      <trkpt lat="43.13994" lon="0.36888">
        <ele>633.899081</ele>
        <time>2021-04-18T09:57:17.954Z</time>
      </trkpt>
      <trkpt lat="43.14002" lon="0.36894">
        <ele>633.935184</ele>
        <time>2021-04-18T09:57:19.959Z</time>
      </trkpt>
      <trkpt lat="43.14011" lon="0.36901">
        <ele>633.971925</ele>
        <time>2021-04-18T09:57:21.968Z</time>
      </trkpt>
      <trkpt lat="43.1402" lon="0.36907">
        <ele>634.008279</ele>
        <time>2021-04-18T09:57:23.986Z</time>
      </trkpt>
      <trkpt lat="43.14028" lon="0.36913">
        <ele>634.044347</ele>
        <time>2021-04-18T09:57:25.958Z</time>
      </trkpt>
      <trkpt lat="43.14037" lon="0.3692">
        <ele>634.080542</ele>
        <time>2021-04-18T09:57:27.953Z</time>
      </trkpt>
      <trkpt lat="43.14045" lon="0.36927">
        <ele>634.116564</ele>
        <time>2021-04-18T09:57:29.989Z</time>
      </trkpt>
      <trkpt lat="43.14057" lon="0.36936">
        <ele>634.166348</ele>
        <time>2021-04-18T09:57:32.950Z</time>
      </trkpt>
      <trkpt lat="43.14065" lon="0.36942">
        <ele>634.200528</ele>
        <time>2021-04-18T09:57:34.970Z</time>
      </trkpt>
      <trkpt lat="43.14077" lon="0.3695">
        <ele>634.250509</ele>
        <time>2021-04-18T09:57:37.957Z</time>
      </trkpt>
      <trkpt lat="43.14086" lon="0.36957">
        <ele>634.286428</ele>
        <time>2021-04-18T09:57:39.989Z</time>
      </trkpt>
      <trkpt lat="43.14094" lon="0.36964">
        <ele>634.322264</ele>
        <time>2021-04-18T09:57:41.981Z</time>
      </trkpt>
      <trkpt lat="43.14103" lon="0.3697">
        <ele>634.357466</ele>
        <time>2021-04-18T09:57:43.949Z</time>
      </trkpt>
      <trkpt lat="43.14111" lon="0.36975">
        <ele>634.390845</ele>
        <time>2021-04-18T09:57:45.985Z</time>
      </trkpt>
      <trkpt lat="43.14122" lon="0.36982">
        <ele>634.435629</ele>
        <time>2021-04-18T09:57:48.945Z</time>
      </trkpt>
      <trkpt lat="43.14133" lon="0.36991">
        <ele>634.483074</ele>
        <time>2021-04-18T09:57:51.960Z</time>
      </trkpt>
      <trkpt lat="43.14141" lon="0.36998">
        <ele>634.42207</ele>
        <time>2021-04-18T09:57:53.957Z</time>
      </trkpt>
      <trkpt lat="43.14152" lon="0.37005">
        <ele>634.272441</ele>
        <time>2021-04-18T09:57:56.952Z</time>
      </trkpt>
      <trkpt lat="43.14163" lon="0.37012">
        <ele>634.127466</ele>
        <time>2021-04-18T09:57:59.929Z</time>
      </trkpt>
      <trkpt lat="43.14175" lon="0.3702">
        <ele>633.97317</ele>
        <time>2021-04-18T09:58:02.955Z</time>
      </trkpt>
      <trkpt lat="43.14184" lon="0.37023">
        <ele>633.855819</ele>
        <time>2021-04-18T09:58:05.937Z</time>
      </trkpt>
      <trkpt lat="43.14194" lon="0.3703">
        <ele>633.727484</ele>
        <time>2021-04-18T09:58:08.940Z</time>
      </trkpt>
      <trkpt lat="43.14204" lon="0.37037">
        <ele>633.58982</ele>
        <time>2021-04-18T09:58:11.982Z</time>
      </trkpt>
      <trkpt lat="43.14215" lon="0.37044">
        <ele>633.446416</ele>
        <time>2021-04-18T09:58:14.976Z</time>
      </trkpt>
      <trkpt lat="43.14223" lon="0.3705">
        <ele>633.33511</ele>
        <time>2021-04-18T09:58:16.947Z</time>
      </trkpt>
      <trkpt lat="43.14231" lon="0.37056">
        <ele>633.226869</ele>
        <time>2021-04-18T09:58:18.992Z</time>
      </trkpt>
      <trkpt lat="43.14243" lon="0.37063">
        <ele>633.073993</ele>
        <time>2021-04-18T09:58:21.950Z</time>
      </trkpt>
      <trkpt lat="43.14254" lon="0.37072">
        <ele>632.919645</ele>
        <time>2021-04-18T09:58:24.939Z</time>
      </trkpt>
      <trkpt lat="43.14261" lon="0.3708">
        <ele>632.805697</ele>
        <time>2021-04-18T09:58:26.944Z</time>
      </trkpt>
      <trkpt lat="43.14269" lon="0.37088">
        <ele>632.690998</ele>
        <time>2021-04-18T09:58:28.940Z</time>
      </trkpt>
      <trkpt lat="43.14276" lon="0.37098">
        <ele>632.570183</ele>
        <time>2021-04-18T09:58:30.947Z</time>
      </trkpt>
      <trkpt lat="43.14284" lon="0.37106">
        <ele>632.455301</ele>
        <time>2021-04-18T09:58:32.956Z</time>
      </trkpt>
      <trkpt lat="43.14292" lon="0.37114">
        <ele>632.332353</ele>
        <time>2021-04-18T09:58:34.981Z</time>
      </trkpt>
      <trkpt lat="43.14303" lon="0.37124">
        <ele>631.773055</ele>
        <time>2021-04-18T09:58:37.976Z</time>
      </trkpt>
      <trkpt lat="43.14314" lon="0.37132">
        <ele>631.22342</ele>
        <time>2021-04-18T09:58:40.937Z</time>
      </trkpt>
      <trkpt lat="43.14326" lon="0.37138">
        <ele>630.720133</ele>
        <time>2021-04-18T09:58:43.940Z</time>
      </trkpt>
      <trkpt lat="43.14336" lon="0.37143">
        <ele>630.248933</ele>
        <time>2021-04-18T09:58:46.954Z</time>
      </trkpt>
      <trkpt lat="43.14346" lon="0.37147">
        <ele>629.833879</ele>
        <time>2021-04-18T09:58:49.939Z</time>
      </trkpt>
      <trkpt lat="43.14357" lon="0.37151">
        <ele>629.334983</ele>
        <time>2021-04-18T09:58:52.951Z</time>
      </trkpt>
      <trkpt lat="43.1437" lon="0.37157">
        <ele>628.778691</ele>
        <time>2021-04-18T09:58:55.974Z</time>
      </trkpt>
      <trkpt lat="43.14379" lon="0.37161">
        <ele>628.377411</ele>
        <time>2021-04-18T09:58:57.956Z</time>
      </trkpt>
      <trkpt lat="43.14389" lon="0.37165">
        <ele>627.952776</ele>
        <time>2021-04-18T09:58:59.983Z</time>
      </trkpt>
      <trkpt lat="43.144" lon="0.3717">
        <ele>627.469172</ele>
        <time>2021-04-18T09:59:01.957Z</time>
      </trkpt>
      <trkpt lat="43.14411" lon="0.37174">
        <ele>626.967026</ele>
        <time>2021-04-18T09:59:03.962Z</time>
      </trkpt>
      <trkpt lat="43.14423" lon="0.37179">
        <ele>626.438092</ele>
        <time>2021-04-18T09:59:05.956Z</time>
      </trkpt>
      <trkpt lat="43.14436" lon="0.37185">
        <ele>625.902597</ele>
        <time>2021-04-18T09:59:07.953Z</time>
      </trkpt>
      <trkpt lat="43.14447" lon="0.3719">
        <ele>625.399695</ele>
        <time>2021-04-18T09:59:09.945Z</time>
      </trkpt>
      <trkpt lat="43.14457" lon="0.37195">
        <ele>624.927457</ele>
        <time>2021-04-18T09:59:11.980Z</time>
      </trkpt>
      <trkpt lat="43.14468" lon="0.37201">
        <ele>624.93508</ele>
        <time>2021-04-18T09:59:13.961Z</time>
      </trkpt>
      <trkpt lat="43.14477" lon="0.37206">
        <ele>625.088814</ele>
        <time>2021-04-18T09:59:15.955Z</time>
      </trkpt>
      <trkpt lat="43.14487" lon="0.37209">
        <ele>625.238664</ele>
        <time>2021-04-18T09:59:17.978Z</time>
      </trkpt>
      <trkpt lat="43.14496" lon="0.37212">
        <ele>625.377242</ele>
        <time>2021-04-18T09:59:19.945Z</time>
      </trkpt>
      <trkpt lat="43.14508" lon="0.37219">
        <ele>625.569572</ele>
        <time>2021-04-18T09:59:22.931Z</time>
      </trkpt>
      <trkpt lat="43.14516" lon="0.37224">
        <ele>625.704429</ele>
        <time>2021-04-18T09:59:24.947Z</time>
      </trkpt>
      <trkpt lat="43.14525" lon="0.37229">
        <ele>625.841528</ele>
        <time>2021-04-18T09:59:26.954Z</time>
      </trkpt>
      <trkpt lat="43.14536" lon="0.37239">
        <ele>626.039178</ele>
        <time>2021-04-18T09:59:29.983Z</time>
      </trkpt>
      <trkpt lat="43.14544" lon="0.37245">
        <ele>626.174181</ele>
        <time>2021-04-18T09:59:31.966Z</time>
      </trkpt>
      <trkpt lat="43.14554" lon="0.37255">
        <ele>626.363764</ele>
        <time>2021-04-18T09:59:34.956Z</time>
      </trkpt>
      <trkpt lat="43.14565" lon="0.37264">
        <ele>626.558547</ele>
        <time>2021-04-18T09:59:37.956Z</time>
      </trkpt>
      <trkpt lat="43.14576" lon="0.37274">
        <ele>626.747008</ele>
        <time>2021-04-18T09:59:40.947Z</time>
      </trkpt>
      <trkpt lat="43.14586" lon="0.37281">
        <ele>626.906426</ele>
        <time>2021-04-18T09:59:43.965Z</time>
      </trkpt>
      <trkpt lat="43.14594" lon="0.37287">
        <ele>627.050964</ele>
        <time>2021-04-18T09:59:46.968Z</time>
      </trkpt>
      <trkpt lat="43.14604" lon="0.37294">
        <ele>627.212202</ele>
        <time>2021-04-18T09:59:49.981Z</time>
      </trkpt>
      <trkpt lat="43.14613" lon="0.37301">
        <ele>627.375502</ele>
        <time>2021-04-18T09:59:52.957Z</time>
      </trkpt>
      <trkpt lat="43.14624" lon="0.37309">
        <ele>627.636481</ele>
        <time>2021-04-18T09:59:55.952Z</time>
      </trkpt>
      <trkpt lat="43.14634" lon="0.37314">
        <ele>627.996672</ele>
        <time>2021-04-18T09:59:58.986Z</time>
      </trkpt>
      <trkpt lat="43.14644" lon="0.37321">
        <ele>628.362437</ele>
        <time>2021-04-18T10:00:01.945Z</time>
      </trkpt>
      <trkpt lat="43.14654" lon="0.37328">
        <ele>628.746322</ele>
        <time>2021-04-18T10:00:04.956Z</time>
      </trkpt>
      <trkpt lat="43.14664" lon="0.37334">
        <ele>629.108039</ele>
        <time>2021-04-18T10:00:07.959Z</time>
      </trkpt>
      <trkpt lat="43.14675" lon="0.37341">
        <ele>629.485814</ele>
        <time>2021-04-18T10:00:10.953Z</time>
      </trkpt>
      <trkpt lat="43.14686" lon="0.37348">
        <ele>629.899832</ele>
        <time>2021-04-18T10:00:13.981Z</time>
      </trkpt>
      <trkpt lat="43.14697" lon="0.37355">
        <ele>630.314878</ele>
        <time>2021-04-18T10:00:16.965Z</time>
      </trkpt>
      <trkpt lat="43.14709" lon="0.37362">
        <ele>630.729905</ele>
        <time>2021-04-18T10:00:19.961Z</time>
      </trkpt>
      <trkpt lat="43.1472" lon="0.3737">
        <ele>631.149515</ele>
        <time>2021-04-18T10:00:22.950Z</time>
      </trkpt>
      <trkpt lat="43.14731" lon="0.37376">
        <ele>631.554819</ele>
        <time>2021-04-18T10:00:25.989Z</time>
      </trkpt>
      <trkpt lat="43.14743" lon="0.37383">
        <ele>631.96886</ele>
        <time>2021-04-18T10:00:28.945Z</time>
      </trkpt>
      <trkpt lat="43.14754" lon="0.37389">
        <ele>632.383057</ele>
        <time>2021-04-18T10:00:31.957Z</time>
      </trkpt>
      <trkpt lat="43.14763" lon="0.37392">
        <ele>632.688757</ele>
        <time>2021-04-18T10:00:33.961Z</time>
      </trkpt>
      <trkpt lat="43.14776" lon="0.37398">
        <ele>633.122524</ele>
        <time>2021-04-18T10:00:36.958Z</time>
      </trkpt>
      <trkpt lat="43.14788" lon="0.37404">
        <ele>633.361651</ele>
        <time>2021-04-18T10:00:39.950Z</time>
      </trkpt>
      <trkpt lat="43.148" lon="0.37408">
        <ele>632.865126</ele>
        <time>2021-04-18T10:00:42.955Z</time>
      </trkpt>
      <trkpt lat="43.14812" lon="0.37414">
        <ele>632.401323</ele>
        <time>2021-04-18T10:00:45.967Z</time>
      </trkpt>
      <trkpt lat="43.14823" lon="0.37419">
        <ele>631.948007</ele>
        <time>2021-04-18T10:00:48.957Z</time>
      </trkpt>
      <trkpt lat="43.14835" lon="0.37424">
        <ele>631.472394</ele>
        <time>2021-04-18T10:00:51.968Z</time>
      </trkpt>
      <trkpt lat="43.14849" lon="0.37427">
        <ele>630.948687</ele>
        <time>2021-04-18T10:00:54.965Z</time>
      </trkpt>
      <trkpt lat="43.14858" lon="0.3743">
        <ele>630.607552</ele>
        <time>2021-04-18T10:00:56.957Z</time>
      </trkpt>
      <trkpt lat="43.14867" lon="0.37431">
        <ele>630.257829</ele>
        <time>2021-04-18T10:00:58.942Z</time>
      </trkpt>
      <trkpt lat="43.14876" lon="0.37433">
        <ele>629.903546</ele>
        <time>2021-04-18T10:01:00.945Z</time>
      </trkpt>
      <trkpt lat="43.14889" lon="0.37434">
        <ele>629.407396</ele>
        <time>2021-04-18T10:01:03.959Z</time>
      </trkpt>
      <trkpt lat="43.14898" lon="0.37435">
        <ele>629.044962</ele>
        <time>2021-04-18T10:01:05.963Z</time>
      </trkpt>
      <trkpt lat="43.14908" lon="0.37436">
        <ele>628.68649</ele>
        <time>2021-04-18T10:01:07.968Z</time>
      </trkpt>
      <trkpt lat="43.14921" lon="0.37436">
        <ele>628.183815</ele>
        <time>2021-04-18T10:01:10.951Z</time>
      </trkpt>
      <trkpt lat="43.14933" lon="0.37437">
        <ele>627.711429</ele>
        <time>2021-04-18T10:01:13.986Z</time>
      </trkpt>
      <trkpt lat="43.14946" lon="0.37438">
        <ele>627.242389</ele>
        <time>2021-04-18T10:01:16.941Z</time>
      </trkpt>
      <trkpt lat="43.14958" lon="0.3744">
        <ele>626.75963</ele>
        <time>2021-04-18T10:01:19.975Z</time>
      </trkpt>
      <trkpt lat="43.14967" lon="0.37443">
        <ele>626.693748</ele>
        <time>2021-04-18T10:01:21.972Z</time>
      </trkpt>
      <trkpt lat="43.14976" lon="0.37445">
        <ele>626.833241</ele>
        <time>2021-04-18T10:01:23.953Z</time>
      </trkpt>
      <trkpt lat="43.14989" lon="0.37449">
        <ele>627.022798</ele>
        <time>2021-04-18T10:01:26.955Z</time>
      </trkpt>
      <trkpt lat="43.15001" lon="0.3745">
        <ele>627.201953</ele>
        <time>2021-04-18T10:01:29.953Z</time>
      </trkpt>
      <trkpt lat="43.15012" lon="0.3745">
        <ele>627.367363</ele>
        <time>2021-04-18T10:01:32.954Z</time>
      </trkpt>
      <trkpt lat="43.15023" lon="0.37453">
        <ele>627.524464</ele>
        <time>2021-04-18T10:01:35.945Z</time>
      </trkpt>
      <trkpt lat="43.15033" lon="0.37461">
        <ele>627.689391</ele>
        <time>2021-04-18T10:01:38.937Z</time>
      </trkpt>
      <trkpt lat="43.1504" lon="0.37468">
        <ele>627.825239</ele>
        <time>2021-04-18T10:01:40.938Z</time>
      </trkpt>
      <trkpt lat="43.15048" lon="0.37474">
        <ele>627.958328</ele>
        <time>2021-04-18T10:01:42.951Z</time>
      </trkpt>
      <trkpt lat="43.15059" lon="0.37478">
        <ele>628.126054</ele>
        <time>2021-04-18T10:01:45.949Z</time>
      </trkpt>
      <trkpt lat="43.1507" lon="0.37479">
        <ele>628.292939</ele>
        <time>2021-04-18T10:01:49.962Z</time>
      </trkpt>
      <trkpt lat="43.15079" lon="0.37483">
        <ele>628.426679</ele>
        <time>2021-04-18T10:01:51.953Z</time>
      </trkpt>
      <trkpt lat="43.15088" lon="0.37487">
        <ele>628.568761</ele>
        <time>2021-04-18T10:01:53.958Z</time>
      </trkpt>
      <trkpt lat="43.15099" lon="0.37494">
        <ele>628.754039</ele>
        <time>2021-04-18T10:01:56.984Z</time>
      </trkpt>
      <trkpt lat="43.15109" lon="0.37504">
        <ele>628.928815</ele>
        <time>2021-04-18T10:01:59.958Z</time>
      </trkpt>
      <trkpt lat="43.15119" lon="0.37515">
        <ele>629.126054</ele>
        <time>2021-04-18T10:02:02.963Z</time>
      </trkpt>
      <trkpt lat="43.1513" lon="0.37524">
        <ele>629.336503</ele>
        <time>2021-04-18T10:02:05.955Z</time>
      </trkpt>
      <trkpt lat="43.15137" lon="0.37531">
        <ele>629.57515</ele>
        <time>2021-04-18T10:02:07.957Z</time>
      </trkpt>
      <trkpt lat="43.15144" lon="0.37539">
        <ele>629.811537</ele>
        <time>2021-04-18T10:02:09.986Z</time>
      </trkpt>
      <trkpt lat="43.15153" lon="0.3755">
        <ele>630.13259</ele>
        <time>2021-04-18T10:02:12.957Z</time>
      </trkpt>
      <trkpt lat="43.1516" lon="0.37559">
        <ele>630.383545</ele>
        <time>2021-04-18T10:02:14.951Z</time>
      </trkpt>
      <trkpt lat="43.15168" lon="0.37568">
        <ele>630.645254</ele>
        <time>2021-04-18T10:02:16.976Z</time>
      </trkpt>
      <trkpt lat="43.15178" lon="0.37573">
        <ele>630.919297</ele>
        <time>2021-04-18T10:02:19.995Z</time>
      </trkpt>
      <trkpt lat="43.15187" lon="0.37577">
        <ele>631.177807</ele>
        <time>2021-04-18T10:02:22.959Z</time>
      </trkpt>
      <trkpt lat="43.15199" lon="0.37586">
        <ele>631.526343</ele>
        <time>2021-04-18T10:02:25.945Z</time>
      </trkpt>
      <trkpt lat="43.15211" lon="0.37594">
        <ele>631.892995</ele>
        <time>2021-04-18T10:02:28.957Z</time>
      </trkpt>
      <trkpt lat="43.15223" lon="0.37599">
        <ele>632.219353</ele>
        <time>2021-04-18T10:02:31.955Z</time>
      </trkpt>
      <trkpt lat="43.15237" lon="0.37603">
        <ele>632.570569</ele>
        <time>2021-04-18T10:02:34.940Z</time>
      </trkpt>
      <trkpt lat="43.15246" lon="0.37604">
        <ele>632.829642</ele>
        <time>2021-04-18T10:02:36.942Z</time>
      </trkpt>
      <trkpt lat="43.15256" lon="0.37606">
        <ele>633.093899</ele>
        <time>2021-04-18T10:02:38.942Z</time>
      </trkpt>
      <trkpt lat="43.15268" lon="0.37614">
        <ele>633.430436</ele>
        <time>2021-04-18T10:02:40.963Z</time>
      </trkpt>
      <trkpt lat="43.15279" lon="0.37621">
        <ele>633.762972</ele>
        <time>2021-04-18T10:02:42.933Z</time>
      </trkpt>
      <trkpt lat="43.15291" lon="0.37628">
        <ele>633.874507</ele>
        <time>2021-04-18T10:02:44.954Z</time>
      </trkpt>
      <trkpt lat="43.15301" lon="0.37634">
        <ele>633.579219</ele>
        <time>2021-04-18T10:02:46.985Z</time>
      </trkpt>
      <trkpt lat="43.1531" lon="0.37643">
        <ele>633.278041</ele>
        <time>2021-04-18T10:02:48.957Z</time>
      </trkpt>
      <trkpt lat="43.15319" lon="0.37649">
        <ele>633.015178</ele>
        <time>2021-04-18T10:02:50.946Z</time>
      </trkpt>
      <trkpt lat="43.15331" lon="0.37655">
        <ele>632.669823</ele>
        <time>2021-04-18T10:02:53.941Z</time>
      </trkpt>
      <trkpt lat="43.15342" lon="0.37657">
        <ele>632.366334</ele>
        <time>2021-04-18T10:02:56.970Z</time>
      </trkpt>
      <trkpt lat="43.15355" lon="0.37657">
        <ele>632.021318</ele>
        <time>2021-04-18T10:02:59.950Z</time>
      </trkpt>
      <trkpt lat="43.15368" lon="0.3766">
        <ele>631.671046</ele>
        <time>2021-04-18T10:03:02.956Z</time>
      </trkpt>
      <trkpt lat="43.1538" lon="0.37669">
        <ele>631.317218</ele>
        <time>2021-04-18T10:03:05.991Z</time>
      </trkpt>
      <trkpt lat="43.15389" lon="0.37677">
        <ele>631.019349</ele>
        <time>2021-04-18T10:03:07.987Z</time>
      </trkpt>
      <trkpt lat="43.15398" lon="0.37683">
        <ele>630.741905</ele>
        <time>2021-04-18T10:03:09.961Z</time>
      </trkpt>
      <trkpt lat="43.15408" lon="0.37688">
        <ele>630.467932</ele>
        <time>2021-04-18T10:03:11.995Z</time>
      </trkpt>
      <trkpt lat="43.15418" lon="0.37692">
        <ele>630.184189</ele>
        <time>2021-04-18T10:03:13.959Z</time>
      </trkpt>
      <trkpt lat="43.15429" lon="0.37696">
        <ele>629.879568</ele>
        <time>2021-04-18T10:03:15.934Z</time>
      </trkpt>
      <trkpt lat="43.15439" lon="0.37699">
        <ele>629.601417</ele>
        <time>2021-04-18T10:03:17.961Z</time>
      </trkpt>
      <trkpt lat="43.15449" lon="0.37702">
        <ele>629.327265</ele>
        <time>2021-04-18T10:03:19.945Z</time>
      </trkpt>
      <trkpt lat="43.15462" lon="0.37704">
        <ele>628.95518</ele>
        <time>2021-04-18T10:03:22.990Z</time>
      </trkpt>
      <trkpt lat="43.15475" lon="0.37709">
        <ele>628.509674</ele>
        <time>2021-04-18T10:03:25.962Z</time>
      </trkpt>
      <trkpt lat="43.15488" lon="0.37712">
        <ele>628.086344</ele>
        <time>2021-04-18T10:03:28.958Z</time>
      </trkpt>
      <trkpt lat="43.15497" lon="0.37715">
        <ele>627.78114</ele>
        <time>2021-04-18T10:03:30.953Z</time>
      </trkpt>
      <trkpt lat="43.15509" lon="0.37717">
        <ele>627.395246</ele>
        <time>2021-04-18T10:03:33.989Z</time>
      </trkpt>
      <trkpt lat="43.15521" lon="0.37715">
        <ele>627.014207</ele>
        <time>2021-04-18T10:03:36.942Z</time>
      </trkpt>
      <trkpt lat="43.15533" lon="0.37715">
        <ele>626.607324</ele>
        <time>2021-04-18T10:03:39.984Z</time>
      </trkpt>
      <trkpt lat="43.15546" lon="0.37718">
        <ele>626.205074</ele>
        <time>2021-04-18T10:03:42.943Z</time>
      </trkpt>
      <trkpt lat="43.15557" lon="0.3772">
        <ele>625.824726</ele>
        <time>2021-04-18T10:03:45.983Z</time>
      </trkpt>
      <trkpt lat="43.15567" lon="0.37724">
        <ele>625.505812</ele>
        <time>2021-04-18T10:03:47.929Z</time>
      </trkpt>
      <trkpt lat="43.15576" lon="0.37727">
        <ele>625.199884</ele>
        <time>2021-04-18T10:03:49.961Z</time>
      </trkpt>
      <trkpt lat="43.15585" lon="0.37729">
        <ele>624.906824</ele>
        <time>2021-04-18T10:03:51.941Z</time>
      </trkpt>
      <trkpt lat="43.15598" lon="0.3773">
        <ele>624.492677</ele>
        <time>2021-04-18T10:03:54.955Z</time>
      </trkpt>
      <trkpt lat="43.15609" lon="0.37736">
        <ele>624.117252</ele>
        <time>2021-04-18T10:03:57.941Z</time>
      </trkpt>
      <trkpt lat="43.15618" lon="0.37742">
        <ele>623.77552</ele>
        <time>2021-04-18T10:03:59.954Z</time>
      </trkpt>
      <trkpt lat="43.1563" lon="0.37749">
        <ele>623.352393</ele>
        <time>2021-04-18T10:04:01.941Z</time>
      </trkpt>
      <trkpt lat="43.15641" lon="0.37757">
        <ele>622.513198</ele>
        <time>2021-04-18T10:04:03.968Z</time>
      </trkpt>
      <trkpt lat="43.15651" lon="0.37763">
        <ele>621.769532</ele>
        <time>2021-04-18T10:04:05.969Z</time>
      </trkpt>
      <trkpt lat="43.1566" lon="0.37767">
        <ele>621.140976</ele>
        <time>2021-04-18T10:04:07.955Z</time>
      </trkpt>
      <trkpt lat="43.15671" lon="0.3777">
        <ele>620.381359</ele>
        <time>2021-04-18T10:04:10.963Z</time>
      </trkpt>
      <trkpt lat="43.15684" lon="0.37774">
        <ele>619.474752</ele>
        <time>2021-04-18T10:04:13.954Z</time>
      </trkpt>
      <trkpt lat="43.15693" lon="0.37778">
        <ele>618.82152</ele>
        <time>2021-04-18T10:04:15.964Z</time>
      </trkpt>
      <trkpt lat="43.15702" lon="0.37781">
        <ele>618.177266</ele>
        <time>2021-04-18T10:04:17.962Z</time>
      </trkpt>
      <trkpt lat="43.15711" lon="0.37784">
        <ele>617.555206</ele>
        <time>2021-04-18T10:04:19.943Z</time>
      </trkpt>
      <trkpt lat="43.15724" lon="0.37788">
        <ele>616.650672</ele>
        <time>2021-04-18T10:04:22.988Z</time>
      </trkpt>
      <trkpt lat="43.15737" lon="0.3779">
        <ele>615.773553</ele>
        <time>2021-04-18T10:04:25.996Z</time>
      </trkpt>
      <trkpt lat="43.15746" lon="0.37791">
        <ele>615.150244</ele>
        <time>2021-04-18T10:04:27.979Z</time>
      </trkpt>
      <trkpt lat="43.15755" lon="0.37792">
        <ele>614.501497</ele>
        <time>2021-04-18T10:04:29.955Z</time>
      </trkpt>
      <trkpt lat="43.15764" lon="0.37793">
        <ele>613.871901</ele>
        <time>2021-04-18T10:04:31.955Z</time>
      </trkpt>
      <trkpt lat="43.15777" lon="0.37795">
        <ele>612.991046</ele>
        <time>2021-04-18T10:04:34.957Z</time>
      </trkpt>
      <trkpt lat="43.1579" lon="0.37797">
        <ele>612.099272</ele>
        <time>2021-04-18T10:04:37.950Z</time>
      </trkpt>
      <trkpt lat="43.158" lon="0.37798">
        <ele>611.450163</ele>
        <time>2021-04-18T10:04:39.976Z</time>
      </trkpt>
      <trkpt lat="43.1581" lon="0.37799">
        <ele>610.944301</ele>
        <time>2021-04-18T10:04:41.960Z</time>
      </trkpt>
      <trkpt lat="43.15819" lon="0.378">
        <ele>610.608321</ele>
        <time>2021-04-18T10:04:43.957Z</time>
      </trkpt>
      <trkpt lat="43.15829" lon="0.37802">
        <ele>610.271578</ele>
        <time>2021-04-18T10:04:45.979Z</time>
      </trkpt>
      <trkpt lat="43.15839" lon="0.37803">
        <ele>609.91083</ele>
        <time>2021-04-18T10:04:47.949Z</time>
      </trkpt>
      <trkpt lat="43.1585" lon="0.37805">
        <ele>609.52867</ele>
        <time>2021-04-18T10:04:49.954Z</time>
      </trkpt>
      <trkpt lat="43.15861" lon="0.37807">
        <ele>609.153359</ele>
        <time>2021-04-18T10:04:51.954Z</time>
      </trkpt>
      <trkpt lat="43.15872" lon="0.3781">
        <ele>608.768282</ele>
        <time>2021-04-18T10:04:53.979Z</time>
      </trkpt>
      <trkpt lat="43.15883" lon="0.37814">
        <ele>608.361063</ele>
        <time>2021-04-18T10:04:55.968Z</time>
      </trkpt>
      <trkpt lat="43.15894" lon="0.37819">
        <ele>607.969786</ele>
        <time>2021-04-18T10:04:57.975Z</time>
      </trkpt>
      <trkpt lat="43.15904" lon="0.37823">
        <ele>607.618106</ele>
        <time>2021-04-18T10:04:59.948Z</time>
      </trkpt>
      <trkpt lat="43.15913" lon="0.37828">
        <ele>607.285869</ele>
        <time>2021-04-18T10:05:01.989Z</time>
      </trkpt>
      <trkpt lat="43.15922" lon="0.37833">
        <ele>606.962689</ele>
        <time>2021-04-18T10:05:03.954Z</time>
      </trkpt>
      <trkpt lat="43.15929" lon="0.3784">
        <ele>606.643544</ele>
        <time>2021-04-18T10:05:05.965Z</time>
      </trkpt>
      <trkpt lat="43.1594" lon="0.37851">
        <ele>606.179404</ele>
        <time>2021-04-18T10:05:08.953Z</time>
      </trkpt>
      <trkpt lat="43.15951" lon="0.3786">
        <ele>605.731944</ele>
        <time>2021-04-18T10:05:11.958Z</time>
      </trkpt>
      <trkpt lat="43.15961" lon="0.37868">
        <ele>605.331258</ele>
        <time>2021-04-18T10:05:14.953Z</time>
      </trkpt>
      <trkpt lat="43.15971" lon="0.37873">
        <ele>604.96276</ele>
        <time>2021-04-18T10:05:17.949Z</time>
      </trkpt>
      <trkpt lat="43.15981" lon="0.37878">
        <ele>604.927645</ele>
        <time>2021-04-18T10:05:20.974Z</time>
      </trkpt>
      <trkpt lat="43.1599" lon="0.37882">
        <ele>604.958918</ele>
        <time>2021-04-18T10:05:23.952Z</time>
      </trkpt>
      <trkpt lat="43.16" lon="0.37889">
        <ele>604.993894</ele>
        <time>2021-04-18T10:05:26.936Z</time>
      </trkpt>
      <trkpt lat="43.16009" lon="0.37895">
        <ele>605.024838</ele>
        <time>2021-04-18T10:05:29.946Z</time>
      </trkpt>
      <trkpt lat="43.1602" lon="0.37899">
        <ele>605.058807</ele>
        <time>2021-04-18T10:05:32.961Z</time>
      </trkpt>
      <trkpt lat="43.16029" lon="0.37905">
        <ele>605.090526</ele>
        <time>2021-04-18T10:05:35.946Z</time>
      </trkpt>
      <trkpt lat="43.1604" lon="0.37911">
        <ele>605.127173</ele>
        <time>2021-04-18T10:05:38.956Z</time>
      </trkpt>
      <trkpt lat="43.16052" lon="0.37916">
        <ele>605.165217</ele>
        <time>2021-04-18T10:05:41.954Z</time>
      </trkpt>
      <trkpt lat="43.16063" lon="0.37921">
        <ele>605.201067</ele>
        <time>2021-04-18T10:05:44.958Z</time>
      </trkpt>
      <trkpt lat="43.16074" lon="0.37925">
        <ele>605.23738</ele>
        <time>2021-04-18T10:05:47.951Z</time>
      </trkpt>
      <trkpt lat="43.16085" lon="0.37929">
        <ele>605.273636</ele>
        <time>2021-04-18T10:05:50.952Z</time>
      </trkpt>
      <trkpt lat="43.16097" lon="0.37934">
        <ele>605.310675</ele>
        <time>2021-04-18T10:05:53.984Z</time>
      </trkpt>
      <trkpt lat="43.16107" lon="0.37938">
        <ele>605.344708</ele>
        <time>2021-04-18T10:05:56.956Z</time>
      </trkpt>
      <trkpt lat="43.16118" lon="0.37941">
        <ele>605.378832</ele>
        <time>2021-04-18T10:05:59.957Z</time>
      </trkpt>
      <trkpt lat="43.16128" lon="0.37946">
        <ele>605.411509</ele>
        <time>2021-04-18T10:06:02.991Z</time>
      </trkpt>
      <trkpt lat="43.16137" lon="0.3795">
        <ele>605.442364</ele>
        <time>2021-04-18T10:06:06.001Z</time>
      </trkpt>
      <trkpt lat="43.16149" lon="0.37954">
        <ele>605.511835</ele>
        <time>2021-04-18T10:06:08.959Z</time>
      </trkpt>
      <trkpt lat="43.16161" lon="0.3796">
        <ele>605.615264</ele>
        <time>2021-04-18T10:06:11.953Z</time>
      </trkpt>
      <trkpt lat="43.16172" lon="0.37966">
        <ele>605.719577</ele>
        <time>2021-04-18T10:06:14.962Z</time>
      </trkpt>
      <trkpt lat="43.16183" lon="0.37973">
        <ele>605.822545</ele>
        <time>2021-04-18T10:06:17.956Z</time>
      </trkpt>
      <trkpt lat="43.16194" lon="0.37982">
        <ele>605.924511</ele>
        <time>2021-04-18T10:06:20.955Z</time>
      </trkpt>
      <trkpt lat="43.16204" lon="0.3799">
        <ele>606.02299</ele>
        <time>2021-04-18T10:06:23.988Z</time>
      </trkpt>
      <trkpt lat="43.16214" lon="0.37999">
        <ele>606.124626</ele>
        <time>2021-04-18T10:06:26.956Z</time>
      </trkpt>
      <trkpt lat="43.16225" lon="0.38008">
        <ele>606.226848</ele>
        <time>2021-04-18T10:06:29.963Z</time>
      </trkpt>
      <trkpt lat="43.16235" lon="0.38017">
        <ele>606.328742</ele>
        <time>2021-04-18T10:06:32.967Z</time>
      </trkpt>
      <trkpt lat="43.16246" lon="0.38026">
        <ele>606.433149</ele>
        <time>2021-04-18T10:06:35.971Z</time>
      </trkpt>
      <trkpt lat="43.16256" lon="0.38036">
        <ele>606.540491</ele>
        <time>2021-04-18T10:06:38.954Z</time>
      </trkpt>
      <trkpt lat="43.16266" lon="0.38046">
        <ele>606.643748</ele>
        <time>2021-04-18T10:06:41.955Z</time>
      </trkpt>
      <trkpt lat="43.16277" lon="0.38056">
        <ele>606.752817</ele>
        <time>2021-04-18T10:06:44.965Z</time>
      </trkpt>
      <trkpt lat="43.16288" lon="0.38067">
        <ele>606.862991</ele>
        <time>2021-04-18T10:06:47.962Z</time>
      </trkpt>
      <trkpt lat="43.16295" lon="0.38076">
        <ele>606.946493</ele>
        <time>2021-04-18T10:06:49.990Z</time>
      </trkpt>
      <trkpt lat="43.16304" lon="0.38084">
        <ele>606.935689</ele>
        <time>2021-04-18T10:06:51.953Z</time>
      </trkpt>
      <trkpt lat="43.16312" lon="0.38092">
        <ele>606.904142</ele>
        <time>2021-04-18T10:06:53.956Z</time>
      </trkpt>
      <trkpt lat="43.16319" lon="0.38099">
        <ele>606.874421</ele>
        <time>2021-04-18T10:06:55.956Z</time>
      </trkpt>
      <trkpt lat="43.16327" lon="0.38107">
        <ele>606.844955</ele>
        <time>2021-04-18T10:06:57.938Z</time>
      </trkpt>
      <trkpt lat="43.16335" lon="0.38114">
        <ele>606.816399</ele>
        <time>2021-04-18T10:06:59.948Z</time>
      </trkpt>
      <trkpt lat="43.16343" lon="0.38119">
        <ele>606.787854</ele>
        <time>2021-04-18T10:07:01.973Z</time>
      </trkpt>
      <trkpt lat="43.16354" lon="0.38128">
        <ele>606.747234</ele>
        <time>2021-04-18T10:07:04.955Z</time>
      </trkpt>
      <trkpt lat="43.16365" lon="0.38136">
        <ele>606.708716</ele>
        <time>2021-04-18T10:07:07.961Z</time>
      </trkpt>
      <trkpt lat="43.16376" lon="0.38146">
        <ele>606.666006</ele>
        <time>2021-04-18T10:07:10.955Z</time>
      </trkpt>
      <trkpt lat="43.16384" lon="0.38154">
        <ele>606.634602</ele>
        <time>2021-04-18T10:07:12.985Z</time>
      </trkpt>
      <trkpt lat="43.16392" lon="0.38161">
        <ele>606.604862</ele>
        <time>2021-04-18T10:07:14.957Z</time>
      </trkpt>
      <trkpt lat="43.16401" lon="0.38167">
        <ele>606.573624</ele>
        <time>2021-04-18T10:07:16.953Z</time>
      </trkpt>
      <trkpt lat="43.16409" lon="0.38173">
        <ele>606.544433</ele>
        <time>2021-04-18T10:07:18.962Z</time>
      </trkpt>
      <trkpt lat="43.16421" lon="0.38182">
        <ele>606.502992</ele>
        <time>2021-04-18T10:07:21.962Z</time>
      </trkpt>
      <trkpt lat="43.16431" lon="0.3819">
        <ele>606.464807</ele>
        <time>2021-04-18T10:07:24.974Z</time>
      </trkpt>
      <trkpt lat="43.16441" lon="0.38197">
        <ele>606.429784</ele>
        <time>2021-04-18T10:07:27.955Z</time>
      </trkpt>
      <trkpt lat="43.16452" lon="0.38207">
        <ele>606.405873</ele>
        <time>2021-04-18T10:07:30.949Z</time>
      </trkpt>
      <trkpt lat="43.16462" lon="0.38218">
        <ele>606.463571</ele>
        <time>2021-04-18T10:07:33.957Z</time>
      </trkpt>
      <trkpt lat="43.16472" lon="0.38228">
        <ele>606.520258</ele>
        <time>2021-04-18T10:07:36.962Z</time>
      </trkpt>
      <trkpt lat="43.16482" lon="0.3824">
        <ele>606.580459</ele>
        <time>2021-04-18T10:07:39.993Z</time>
      </trkpt>
      <trkpt lat="43.16493" lon="0.38251">
        <ele>606.639581</ele>
        <time>2021-04-18T10:07:42.961Z</time>
      </trkpt>
      <trkpt lat="43.16503" lon="0.38261">
        <ele>606.694952</ele>
        <time>2021-04-18T10:07:45.951Z</time>
      </trkpt>
      <trkpt lat="43.16509" lon="0.38269">
        <ele>606.735635</ele>
        <time>2021-04-18T10:07:47.956Z</time>
      </trkpt>
      <trkpt lat="43.16516" lon="0.38277">
        <ele>606.776862</ele>
        <time>2021-04-18T10:07:49.957Z</time>
      </trkpt>
      <trkpt lat="43.16523" lon="0.38286">
        <ele>606.818756</ele>
        <time>2021-04-18T10:07:51.997Z</time>
      </trkpt>
      <trkpt lat="43.1653" lon="0.38295">
        <ele>606.860871</ele>
        <time>2021-04-18T10:07:53.990Z</time>
      </trkpt>
      <trkpt lat="43.16537" lon="0.38303">
        <ele>606.90434</ele>
        <time>2021-04-18T10:07:55.983Z</time>
      </trkpt>
      <trkpt lat="43.16544" lon="0.38312">
        <ele>606.9489</ele>
        <time>2021-04-18T10:07:57.969Z</time>
      </trkpt>
      <trkpt lat="43.16552" lon="0.38322">
        <ele>606.99602</ele>
        <time>2021-04-18T10:07:59.941Z</time>
      </trkpt>
      <trkpt lat="43.1656" lon="0.38331">
        <ele>607.040525</ele>
        <time>2021-04-18T10:08:01.963Z</time>
      </trkpt>
      <trkpt lat="43.16567" lon="0.38339">
        <ele>607.085321</ele>
        <time>2021-04-18T10:08:03.957Z</time>
      </trkpt>
      <trkpt lat="43.16577" lon="0.38351">
        <ele>607.145557</ele>
        <time>2021-04-18T10:08:06.955Z</time>
      </trkpt>
      <trkpt lat="43.16587" lon="0.38364">
        <ele>607.206452</ele>
        <time>2021-04-18T10:08:09.946Z</time>
      </trkpt>
      <trkpt lat="43.16597" lon="0.38375">
        <ele>607.103937</ele>
        <time>2021-04-18T10:08:12.954Z</time>
      </trkpt>
      <trkpt lat="43.16606" lon="0.38385">
        <ele>607.00936</ele>
        <time>2021-04-18T10:08:15.967Z</time>
      </trkpt>
      <trkpt lat="43.16616" lon="0.38393">
        <ele>606.907721</ele>
        <time>2021-04-18T10:08:18.958Z</time>
      </trkpt>
      <trkpt lat="43.16629" lon="0.38403">
        <ele>606.782999</ele>
        <time>2021-04-18T10:08:21.958Z</time>
      </trkpt>
      <trkpt lat="43.16641" lon="0.38411">
        <ele>606.671352</ele>
        <time>2021-04-18T10:08:23.950Z</time>
      </trkpt>
      <trkpt lat="43.16653" lon="0.38415">
        <ele>606.571693</ele>
        <time>2021-04-18T10:08:25.934Z</time>
      </trkpt>
      <trkpt lat="43.16665" lon="0.38422">
        <ele>606.46046</ele>
        <time>2021-04-18T10:08:27.962Z</time>
      </trkpt>
      <trkpt lat="43.16679" lon="0.38431">
        <ele>606.333572</ele>
        <time>2021-04-18T10:08:29.987Z</time>
      </trkpt>
      <trkpt lat="43.16693" lon="0.38439">
        <ele>606.205671</ele>
        <time>2021-04-18T10:08:31.941Z</time>
      </trkpt>
      <trkpt lat="43.16706" lon="0.38448">
        <ele>606.083589</ele>
        <time>2021-04-18T10:08:33.961Z</time>
      </trkpt>
      <trkpt lat="43.16718" lon="0.38454">
        <ele>605.976819</ele>
        <time>2021-04-18T10:08:35.962Z</time>
      </trkpt>
      <trkpt lat="43.16729" lon="0.38461">
        <ele>605.872258</ele>
        <time>2021-04-18T10:08:37.992Z</time>
      </trkpt>
      <trkpt lat="43.1674" lon="0.38467">
        <ele>605.77241</ele>
        <time>2021-04-18T10:08:39.959Z</time>
      </trkpt>
      <trkpt lat="43.16751" lon="0.38472">
        <ele>605.463299</ele>
        <time>2021-04-18T10:08:41.946Z</time>
      </trkpt>
      <trkpt lat="43.16762" lon="0.38475">
        <ele>604.57252</ele>
        <time>2021-04-18T10:08:43.956Z</time>
      </trkpt>
      <trkpt lat="43.16772" lon="0.38478">
        <ele>603.780025</ele>
        <time>2021-04-18T10:08:45.994Z</time>
      </trkpt>
      <trkpt lat="43.16782" lon="0.3848">
        <ele>603.031136</ele>
        <time>2021-04-18T10:08:47.965Z</time>
      </trkpt>
      <trkpt lat="43.16791" lon="0.38482">
        <ele>602.276328</ele>
        <time>2021-04-18T10:08:49.954Z</time>
      </trkpt>
      <trkpt lat="43.168" lon="0.38485">
        <ele>601.554012</ele>
        <time>2021-04-18T10:08:51.954Z</time>
      </trkpt>
      <trkpt lat="43.16812" lon="0.38488">
        <ele>600.571871</ele>
        <time>2021-04-18T10:08:54.953Z</time>
      </trkpt>
      <trkpt lat="43.16825" lon="0.38491">
        <ele>599.609119</ele>
        <time>2021-04-18T10:08:57.968Z</time>
      </trkpt>
      <trkpt lat="43.16837" lon="0.38494">
        <ele>598.647954</ele>
        <time>2021-04-18T10:09:00.977Z</time>
      </trkpt>
      <trkpt lat="43.1685" lon="0.38498">
        <ele>597.596398</ele>
        <time>2021-04-18T10:09:03.944Z</time>
      </trkpt>
      <trkpt lat="43.16862" lon="0.38502">
        <ele>596.583227</ele>
        <time>2021-04-18T10:09:06.957Z</time>
      </trkpt>
      <trkpt lat="43.16875" lon="0.38505">
        <ele>595.595352</ele>
        <time>2021-04-18T10:09:09.951Z</time>
      </trkpt>
      <trkpt lat="43.16886" lon="0.38508">
        <ele>594.645998</ele>
        <time>2021-04-18T10:09:12.992Z</time>
      </trkpt>
      <trkpt lat="43.16898" lon="0.38511">
        <ele>593.702451</ele>
        <time>2021-04-18T10:09:15.962Z</time>
      </trkpt>
      <trkpt lat="43.1691" lon="0.38514">
        <ele>592.787125</ele>
        <time>2021-04-18T10:09:18.967Z</time>
      </trkpt>
      <trkpt lat="43.16921" lon="0.38516">
        <ele>591.889977</ele>
        <time>2021-04-18T10:09:21.983Z</time>
      </trkpt>
      <trkpt lat="43.16932" lon="0.38519">
        <ele>591.442814</ele>
        <time>2021-04-18T10:09:24.956Z</time>
      </trkpt>
      <trkpt lat="43.16944" lon="0.38522">
        <ele>591.240566</ele>
        <time>2021-04-18T10:09:27.957Z</time>
      </trkpt>
      <trkpt lat="43.16955" lon="0.38527">
        <ele>591.028574</ele>
        <time>2021-04-18T10:09:30.957Z</time>
      </trkpt>
      <trkpt lat="43.16965" lon="0.38529">
        <ele>590.865496</ele>
        <time>2021-04-18T10:09:32.955Z</time>
      </trkpt>
      <trkpt lat="43.16978" lon="0.38531">
        <ele>590.634836</ele>
        <time>2021-04-18T10:09:35.965Z</time>
      </trkpt>
      <trkpt lat="43.1699" lon="0.38535">
        <ele>590.406544</ele>
        <time>2021-04-18T10:09:38.950Z</time>
      </trkpt>
      <trkpt lat="43.17002" lon="0.38538">
        <ele>590.203199</ele>
        <time>2021-04-18T10:09:41.957Z</time>
      </trkpt>
      <trkpt lat="43.17012" lon="0.38541">
        <ele>590.009525</ele>
        <time>2021-04-18T10:09:44.949Z</time>
      </trkpt>
      <trkpt lat="43.17022" lon="0.38544">
        <ele>589.846047</ele>
        <time>2021-04-18T10:09:47.963Z</time>
      </trkpt>
      <trkpt lat="43.17031" lon="0.38547">
        <ele>589.672569</ele>
        <time>2021-04-18T10:09:52.956Z</time>
      </trkpt>
      <trkpt lat="43.17056" lon="0.38556">
        <ele>589.221853</ele>
        <time>2021-04-18T10:10:46.983Z</time>
      </trkpt>
      <trkpt lat="43.17066" lon="0.38559">
        <ele>589.042325</ele>
        <time>2021-04-18T10:10:50.994Z</time>
      </trkpt>
      <trkpt lat="43.17076" lon="0.38562">
        <ele>588.855775</ele>
        <time>2021-04-18T10:10:54.948Z</time>
      </trkpt>
      <trkpt lat="43.17087" lon="0.38564">
        <ele>588.669782</ele>
        <time>2021-04-18T10:10:58.961Z</time>
      </trkpt>
      <trkpt lat="43.17098" lon="0.38565">
        <ele>588.473262</ele>
        <time>2021-04-18T10:11:02.981Z</time>
      </trkpt>
      <trkpt lat="43.17108" lon="0.38562">
        <ele>588.341895</ele>
        <time>2021-04-18T10:11:06.946Z</time>
      </trkpt>
      <trkpt lat="43.17116" lon="0.38553">
        <ele>588.227849</ele>
        <time>2021-04-18T10:11:10.943Z</time>
      </trkpt>
      <trkpt lat="43.17118" lon="0.38538">
        <ele>588.110565</ele>
        <time>2021-04-18T10:11:14.939Z</time>
      </trkpt>
      <trkpt lat="43.17119" lon="0.38525">
        <ele>588.001265</ele>
        <time>2021-04-18T10:11:17.976Z</time>
      </trkpt>
      <trkpt lat="43.17119" lon="0.3851">
        <ele>587.878656</ele>
        <time>2021-04-18T10:11:20.981Z</time>
      </trkpt>
      <trkpt lat="43.17118" lon="0.38493">
        <ele>587.745129</ele>
        <time>2021-04-18T10:11:23.962Z</time>
      </trkpt>
      <trkpt lat="43.17117" lon="0.38475">
        <ele>587.601698</ele>
        <time>2021-04-18T10:11:26.955Z</time>
      </trkpt>
      <trkpt lat="43.17118" lon="0.38461">
        <ele>587.492746</ele>
        <time>2021-04-18T10:11:28.959Z</time>
      </trkpt>
      <trkpt lat="43.17117" lon="0.38447">
        <ele>587.37334</ele>
        <time>2021-04-18T10:11:30.992Z</time>
      </trkpt>
      <trkpt lat="43.17114" lon="0.38431">
        <ele>587.246198</ele>
        <time>2021-04-18T10:11:32.943Z</time>
      </trkpt>
      <trkpt lat="43.17107" lon="0.38416">
        <ele>587.102451</ele>
        <time>2021-04-18T10:11:34.939Z</time>
      </trkpt>
      <trkpt lat="43.17095" lon="0.38405">
        <ele>586.938435</ele>
        <time>2021-04-18T10:11:36.935Z</time>
      </trkpt>
      <trkpt lat="43.1708" lon="0.38395">
        <ele>586.762478</ele>
        <time>2021-04-18T10:11:38.940Z</time>
      </trkpt>
      <trkpt lat="43.17066" lon="0.38384">
        <ele>586.584843</ele>
        <time>2021-04-18T10:11:40.966Z</time>
      </trkpt>
      <trkpt lat="43.17053" lon="0.38375">
        <ele>586.366295</ele>
        <time>2021-04-18T10:11:42.963Z</time>
      </trkpt>
      <trkpt lat="43.1704" lon="0.38366">
        <ele>585.831799</ele>
        <time>2021-04-18T10:11:44.963Z</time>
      </trkpt>
      <trkpt lat="43.17027" lon="0.38356">
        <ele>585.26491</ele>
        <time>2021-04-18T10:11:46.959Z</time>
      </trkpt>
      <trkpt lat="43.17014" lon="0.38347">
        <ele>584.734521</ele>
        <time>2021-04-18T10:11:48.958Z</time>
      </trkpt>
      <trkpt lat="43.17002" lon="0.38337">
        <ele>584.218523</ele>
        <time>2021-04-18T10:11:50.951Z</time>
      </trkpt>
      <trkpt lat="43.16988" lon="0.38325">
        <ele>583.588191</ele>
        <time>2021-04-18T10:11:52.943Z</time>
      </trkpt>
      <trkpt lat="43.16979" lon="0.38319">
        <ele>583.240528</ele>
        <time>2021-04-18T10:11:53.961Z</time>
      </trkpt>
      <trkpt lat="43.16962" lon="0.38312">
        <ele>582.581798</ele>
        <time>2021-04-18T10:11:55.961Z</time>
      </trkpt>
      <trkpt lat="43.16953" lon="0.38312">
        <ele>582.228979</ele>
        <time>2021-04-18T10:11:56.946Z</time>
      </trkpt>
      <trkpt lat="43.16943" lon="0.38314">
        <ele>581.855023</ele>
        <time>2021-04-18T10:11:57.938Z</time>
      </trkpt>
      <trkpt lat="43.16933" lon="0.38316">
        <ele>581.487699</ele>
        <time>2021-04-18T10:11:58.946Z</time>
      </trkpt>
      <trkpt lat="43.16924" lon="0.38319">
        <ele>581.136114</ele>
        <time>2021-04-18T10:11:59.933Z</time>
      </trkpt>
      <trkpt lat="43.16907" lon="0.38324">
        <ele>580.510144</ele>
        <time>2021-04-18T10:12:01.946Z</time>
      </trkpt>
      <trkpt lat="43.16894" lon="0.38321">
        <ele>580.021351</ele>
        <time>2021-04-18T10:12:03.947Z</time>
      </trkpt>
      <trkpt lat="43.16891" lon="0.38306">
        <ele>579.536891</ele>
        <time>2021-04-18T10:12:05.939Z</time>
      </trkpt>
      <trkpt lat="43.169" lon="0.38287">
        <ele>578.784459</ele>
        <time>2021-04-18T10:12:07.949Z</time>
      </trkpt>
      <trkpt lat="43.16916" lon="0.38277">
        <ele>577.971252</ele>
        <time>2021-04-18T10:12:09.935Z</time>
      </trkpt>
      <trkpt lat="43.16932" lon="0.38272">
        <ele>577.192717</ele>
        <time>2021-04-18T10:12:11.972Z</time>
      </trkpt>
      <trkpt lat="43.16948" lon="0.38269">
        <ele>576.481849</ele>
        <time>2021-04-18T10:12:13.953Z</time>
      </trkpt>
      <trkpt lat="43.16963" lon="0.38263">
        <ele>575.758568</ele>
        <time>2021-04-18T10:12:15.978Z</time>
      </trkpt>
      <trkpt lat="43.16977" lon="0.38257">
        <ele>575.078752</ele>
        <time>2021-04-18T10:12:17.958Z</time>
      </trkpt>
      <trkpt lat="43.16992" lon="0.38251">
        <ele>574.368677</ele>
        <time>2021-04-18T10:12:19.988Z</time>
      </trkpt>
      <trkpt lat="43.17006" lon="0.38245">
        <ele>573.667831</ele>
        <time>2021-04-18T10:12:21.957Z</time>
      </trkpt>
      <trkpt lat="43.17023" lon="0.38238">
        <ele>572.878892</ele>
        <time>2021-04-18T10:12:23.993Z</time>
      </trkpt>
      <trkpt lat="43.17039" lon="0.38229">
        <ele>572.072903</ele>
        <time>2021-04-18T10:12:25.956Z</time>
      </trkpt>
      <trkpt lat="43.17055" lon="0.38219">
        <ele>571.328103</ele>
        <time>2021-04-18T10:12:27.957Z</time>
      </trkpt>
      <trkpt lat="43.17071" lon="0.38208">
        <ele>570.723364</ele>
        <time>2021-04-18T10:12:29.946Z</time>
      </trkpt>
      <trkpt lat="43.17085" lon="0.38195">
        <ele>570.153133</ele>
        <time>2021-04-18T10:12:31.959Z</time>
      </trkpt>
      <trkpt lat="43.171" lon="0.38184">
        <ele>569.577414</ele>
        <time>2021-04-18T10:12:33.987Z</time>
      </trkpt>
      <trkpt lat="43.17114" lon="0.38174">
        <ele>569.032571</ele>
        <time>2021-04-18T10:12:35.993Z</time>
      </trkpt>
      <trkpt lat="43.17127" lon="0.38164">
        <ele>568.528618</ele>
        <time>2021-04-18T10:12:37.996Z</time>
      </trkpt>
      <trkpt lat="43.1714" lon="0.38156">
        <ele>568.045977</ele>
        <time>2021-04-18T10:12:39.954Z</time>
      </trkpt>
      <trkpt lat="43.17156" lon="0.38153">
        <ele>567.488924</ele>
        <time>2021-04-18T10:12:41.946Z</time>
      </trkpt>
      <trkpt lat="43.17166" lon="0.38154">
        <ele>567.165294</ele>
        <time>2021-04-18T10:12:42.945Z</time>
      </trkpt>
      <trkpt lat="43.17175" lon="0.38156">
        <ele>566.837103</ele>
        <time>2021-04-18T10:12:43.935Z</time>
      </trkpt>
      <trkpt lat="43.17185" lon="0.3816">
        <ele>566.507881</ele>
        <time>2021-04-18T10:12:44.942Z</time>
      </trkpt>
      <trkpt lat="43.17202" lon="0.38164">
        <ele>565.929682</ele>
        <time>2021-04-18T10:12:46.933Z</time>
      </trkpt>
      <trkpt lat="43.17218" lon="0.3816">
        <ele>565.352549</ele>
        <time>2021-04-18T10:12:48.960Z</time>
      </trkpt>
      <trkpt lat="43.17233" lon="0.38151">
        <ele>564.802749</ele>
        <time>2021-04-18T10:12:50.932Z</time>
      </trkpt>
      <trkpt lat="43.17248" lon="0.38147">
        <ele>564.283871</ele>
        <time>2021-04-18T10:12:52.936Z</time>
      </trkpt>
      <trkpt lat="43.17264" lon="0.38148">
        <ele>563.730296</ele>
        <time>2021-04-18T10:12:54.936Z</time>
      </trkpt>
      <trkpt lat="43.17281" lon="0.38153">
        <ele>563.152795</ele>
        <time>2021-04-18T10:12:56.943Z</time>
      </trkpt>
      <trkpt lat="43.17297" lon="0.38153">
        <ele>562.582602</ele>
        <time>2021-04-18T10:12:58.943Z</time>
      </trkpt>
      <trkpt lat="43.17307" lon="0.38153">
        <ele>562.264826</ele>
        <time>2021-04-18T10:12:59.961Z</time>
      </trkpt>
      <trkpt lat="43.17316" lon="0.38152">
        <ele>561.949909</ele>
        <time>2021-04-18T10:13:00.933Z</time>
      </trkpt>
      <trkpt lat="43.17332" lon="0.38147">
        <ele>561.37599</ele>
        <time>2021-04-18T10:13:02.954Z</time>
      </trkpt>
      <trkpt lat="43.17348" lon="0.38141">
        <ele>560.833821</ele>
        <time>2021-04-18T10:13:04.938Z</time>
      </trkpt>
      <trkpt lat="43.17357" lon="0.38138">
        <ele>560.52205</ele>
        <time>2021-04-18T10:13:05.973Z</time>
      </trkpt>
      <trkpt lat="43.17375" lon="0.38138">
        <ele>559.89705</ele>
        <time>2021-04-18T10:13:07.972Z</time>
      </trkpt>
      <trkpt lat="43.17385" lon="0.38138">
        <ele>559.545153</ele>
        <time>2021-04-18T10:13:08.945Z</time>
      </trkpt>
      <trkpt lat="43.17396" lon="0.38138">
        <ele>559.064097</ele>
        <time>2021-04-18T10:13:09.984Z</time>
      </trkpt>
      <trkpt lat="43.17407" lon="0.38137">
        <ele>558.120139</ele>
        <time>2021-04-18T10:13:10.938Z</time>
      </trkpt>
      <trkpt lat="43.17416" lon="0.38134">
        <ele>557.277837</ele>
        <time>2021-04-18T10:13:11.985Z</time>
      </trkpt>
      <trkpt lat="43.17425" lon="0.38129">
        <ele>556.501577</ele>
        <time>2021-04-18T10:13:12.950Z</time>
      </trkpt>
      <trkpt lat="43.17438" lon="0.38117">
        <ele>555.101739</ele>
        <time>2021-04-18T10:13:14.974Z</time>
      </trkpt>
      <trkpt lat="43.17451" lon="0.38099">
        <ele>553.564587</ele>
        <time>2021-04-18T10:13:16.940Z</time>
      </trkpt>
      <trkpt lat="43.17462" lon="0.3808">
        <ele>552.053532</ele>
        <time>2021-04-18T10:13:18.925Z</time>
      </trkpt>
      <trkpt lat="43.17468" lon="0.38071">
        <ele>551.245923</ele>
        <time>2021-04-18T10:13:19.984Z</time>
      </trkpt>
      <trkpt lat="43.17476" lon="0.38061">
        <ele>550.356755</ele>
        <time>2021-04-18T10:13:20.946Z</time>
      </trkpt>
      <trkpt lat="43.17485" lon="0.38053">
        <ele>549.445348</ele>
        <time>2021-04-18T10:13:21.951Z</time>
      </trkpt>
      <trkpt lat="43.17494" lon="0.38044">
        <ele>548.52005</ele>
        <time>2021-04-18T10:13:22.953Z</time>
      </trkpt>
      <trkpt lat="43.17503" lon="0.38036">
        <ele>547.559566</ele>
        <time>2021-04-18T10:13:23.947Z</time>
      </trkpt>
      <trkpt lat="43.17512" lon="0.38028">
        <ele>546.643101</ele>
        <time>2021-04-18T10:13:24.937Z</time>
      </trkpt>
      <trkpt lat="43.17521" lon="0.38021">
        <ele>545.751875</ele>
        <time>2021-04-18T10:13:25.940Z</time>
      </trkpt>
      <trkpt lat="43.1753" lon="0.38012">
        <ele>544.816136</ele>
        <time>2021-04-18T10:13:26.943Z</time>
      </trkpt>
      <trkpt lat="43.17543" lon="0.37997">
        <ele>543.112658</ele>
        <time>2021-04-18T10:13:28.959Z</time>
      </trkpt>
      <trkpt lat="43.17555" lon="0.3798">
        <ele>540.812393</ele>
        <time>2021-04-18T10:13:30.971Z</time>
      </trkpt>
      <trkpt lat="43.17567" lon="0.37967">
        <ele>538.754886</ele>
        <time>2021-04-18T10:13:32.988Z</time>
      </trkpt>
      <trkpt lat="43.17579" lon="0.37958">
        <ele>536.955834</ele>
        <time>2021-04-18T10:13:34.966Z</time>
      </trkpt>
      <trkpt lat="43.17591" lon="0.37948">
        <ele>535.06504</ele>
        <time>2021-04-18T10:13:36.936Z</time>
      </trkpt>
      <trkpt lat="43.17605" lon="0.37938">
        <ele>533.006744</ele>
        <time>2021-04-18T10:13:38.957Z</time>
      </trkpt>
      <trkpt lat="43.17619" lon="0.3793">
        <ele>530.924117</ele>
        <time>2021-04-18T10:13:40.965Z</time>
      </trkpt>
      <trkpt lat="43.17635" lon="0.37928">
        <ele>528.855971</ele>
        <time>2021-04-18T10:13:42.984Z</time>
      </trkpt>
      <trkpt lat="43.17651" lon="0.37929">
        <ele>526.744178</ele>
        <time>2021-04-18T10:13:44.970Z</time>
      </trkpt>
      <trkpt lat="43.17667" lon="0.37928">
        <ele>524.631519</ele>
        <time>2021-04-18T10:13:46.988Z</time>
      </trkpt>
      <trkpt lat="43.17682" lon="0.37927">
        <ele>522.597644</ele>
        <time>2021-04-18T10:13:48.993Z</time>
      </trkpt>
      <trkpt lat="43.17698" lon="0.37926">
        <ele>520.511861</ele>
        <time>2021-04-18T10:13:50.945Z</time>
      </trkpt>
      <trkpt lat="43.17714" lon="0.37926">
        <ele>518.594073</ele>
        <time>2021-04-18T10:13:52.958Z</time>
      </trkpt>
      <trkpt lat="43.1773" lon="0.37925">
        <ele>516.74606</ele>
        <time>2021-04-18T10:13:54.943Z</time>
      </trkpt>
      <trkpt lat="43.17746" lon="0.37927">
        <ele>514.868603</ele>
        <time>2021-04-18T10:13:56.956Z</time>
      </trkpt>
      <trkpt lat="43.17763" lon="0.37931">
        <ele>512.885357</ele>
        <time>2021-04-18T10:13:58.983Z</time>
      </trkpt>
      <trkpt lat="43.1778" lon="0.37935">
        <ele>510.832434</ele>
        <time>2021-04-18T10:14:00.956Z</time>
      </trkpt>
      <trkpt lat="43.17798" lon="0.37938">
        <ele>508.795965</ele>
        <time>2021-04-18T10:14:02.959Z</time>
      </trkpt>
      <trkpt lat="43.17815" lon="0.3794">
        <ele>506.791923</ele>
        <time>2021-04-18T10:14:04.954Z</time>
      </trkpt>
      <trkpt lat="43.17832" lon="0.37944">
        <ele>504.768813</ele>
        <time>2021-04-18T10:14:06.951Z</time>
      </trkpt>
      <trkpt lat="43.1785" lon="0.37948">
        <ele>502.751473</ele>
        <time>2021-04-18T10:14:08.950Z</time>
      </trkpt>
      <trkpt lat="43.17859" lon="0.37951">
        <ele>501.707219</ele>
        <time>2021-04-18T10:14:09.953Z</time>
      </trkpt>
      <trkpt lat="43.17867" lon="0.37953">
        <ele>500.665822</ele>
        <time>2021-04-18T10:14:10.960Z</time>
      </trkpt>
      <trkpt lat="43.17877" lon="0.37955">
        <ele>499.601627</ele>
        <time>2021-04-18T10:14:11.995Z</time>
      </trkpt>
      <trkpt lat="43.17886" lon="0.37957">
        <ele>498.777982</ele>
        <time>2021-04-18T10:14:12.991Z</time>
      </trkpt>
      <trkpt lat="43.17895" lon="0.37958">
        <ele>498.088827</ele>
        <time>2021-04-18T10:14:13.959Z</time>
      </trkpt>
      <trkpt lat="43.17904" lon="0.37959">
        <ele>497.414728</ele>
        <time>2021-04-18T10:14:14.958Z</time>
      </trkpt>
      <trkpt lat="43.17914" lon="0.3796">
        <ele>496.742474</ele>
        <time>2021-04-18T10:14:15.959Z</time>
      </trkpt>
      <trkpt lat="43.17923" lon="0.37961">
        <ele>496.047128</ele>
        <time>2021-04-18T10:14:16.941Z</time>
      </trkpt>
      <trkpt lat="43.17932" lon="0.37963">
        <ele>495.365778</ele>
        <time>2021-04-18T10:14:17.952Z</time>
      </trkpt>
      <trkpt lat="43.17942" lon="0.37964">
        <ele>494.648656</ele>
        <time>2021-04-18T10:14:18.949Z</time>
      </trkpt>
      <trkpt lat="43.17952" lon="0.37966">
        <ele>493.914219</ele>
        <time>2021-04-18T10:14:19.964Z</time>
      </trkpt>
      <trkpt lat="43.17962" lon="0.37967">
        <ele>493.158694</ele>
        <time>2021-04-18T10:14:20.955Z</time>
      </trkpt>
      <trkpt lat="43.17973" lon="0.37968">
        <ele>492.392213</ele>
        <time>2021-04-18T10:14:21.955Z</time>
      </trkpt>
      <trkpt lat="43.17983" lon="0.37969">
        <ele>491.633289</ele>
        <time>2021-04-18T10:14:22.967Z</time>
      </trkpt>
      <trkpt lat="43.17994" lon="0.3797">
        <ele>490.881043</ele>
        <time>2021-04-18T10:14:23.957Z</time>
      </trkpt>
      <trkpt lat="43.18004" lon="0.3797">
        <ele>490.099699</ele>
        <time>2021-04-18T10:14:24.935Z</time>
      </trkpt>
      <trkpt lat="43.18015" lon="0.37972">
        <ele>489.303096</ele>
        <time>2021-04-18T10:14:25.946Z</time>
      </trkpt>
      <trkpt lat="43.18026" lon="0.37974">
        <ele>488.516007</ele>
        <time>2021-04-18T10:14:26.952Z</time>
      </trkpt>
      <trkpt lat="43.18036" lon="0.37976">
        <ele>487.752671</ele>
        <time>2021-04-18T10:14:27.961Z</time>
      </trkpt>
      <trkpt lat="43.18046" lon="0.37979">
        <ele>487.014824</ele>
        <time>2021-04-18T10:14:28.954Z</time>
      </trkpt>
      <trkpt lat="43.18055" lon="0.37983">
        <ele>486.324518</ele>
        <time>2021-04-18T10:14:29.995Z</time>
      </trkpt>
      <trkpt lat="43.18072" lon="0.3799">
        <ele>485.740154</ele>
        <time>2021-04-18T10:14:31.965Z</time>
      </trkpt>
      <trkpt lat="43.18088" lon="0.37996">
        <ele>485.323576</ele>
        <time>2021-04-18T10:14:33.983Z</time>
      </trkpt>
      <trkpt lat="43.18105" lon="0.38">
        <ele>484.903378</ele>
        <time>2021-04-18T10:14:35.973Z</time>
      </trkpt>
      <trkpt lat="43.18121" lon="0.38004">
        <ele>484.489068</ele>
        <time>2021-04-18T10:14:37.956Z</time>
      </trkpt>
      <trkpt lat="43.18137" lon="0.38011">
        <ele>484.071437</ele>
        <time>2021-04-18T10:14:39.956Z</time>
      </trkpt>
      <trkpt lat="43.18153" lon="0.38017">
        <ele>483.664459</ele>
        <time>2021-04-18T10:14:41.986Z</time>
      </trkpt>
      <trkpt lat="43.18168" lon="0.38021">
        <ele>483.290241</ele>
        <time>2021-04-18T10:14:43.955Z</time>
      </trkpt>
      <trkpt lat="43.18183" lon="0.3802">
        <ele>482.917372</ele>
        <time>2021-04-18T10:14:45.953Z</time>
      </trkpt>
      <trkpt lat="43.18197" lon="0.38018">
        <ele>482.554599</ele>
        <time>2021-04-18T10:14:47.946Z</time>
      </trkpt>
      <trkpt lat="43.18211" lon="0.38016">
        <ele>482.22207</ele>
        <time>2021-04-18T10:14:49.948Z</time>
      </trkpt>
      <trkpt lat="43.18224" lon="0.38015">
        <ele>481.881407</ele>
        <time>2021-04-18T10:14:51.961Z</time>
      </trkpt>
      <trkpt lat="43.1824" lon="0.38017">
        <ele>481.400325</ele>
        <time>2021-04-18T10:14:53.941Z</time>
      </trkpt>
      <trkpt lat="43.18258" lon="0.38026">
        <ele>480.667716</ele>
        <time>2021-04-18T10:14:55.943Z</time>
      </trkpt>
      <trkpt lat="43.18273" lon="0.38035">
        <ele>480.008078</ele>
        <time>2021-04-18T10:14:57.968Z</time>
      </trkpt>
      <trkpt lat="43.18286" lon="0.38038">
        <ele>479.470287</ele>
        <time>2021-04-18T10:14:59.946Z</time>
      </trkpt>
      <trkpt lat="43.18302" lon="0.38032">
        <ele>478.842659</ele>
        <time>2021-04-18T10:15:01.947Z</time>
      </trkpt>
      <trkpt lat="43.18317" lon="0.38022">
        <ele>478.15577</ele>
        <time>2021-04-18T10:15:03.936Z</time>
      </trkpt>
      <trkpt lat="43.18332" lon="0.38014">
        <ele>477.514689</ele>
        <time>2021-04-18T10:15:05.944Z</time>
      </trkpt>
      <trkpt lat="43.18348" lon="0.38006">
        <ele>476.871991</ele>
        <time>2021-04-18T10:15:07.975Z</time>
      </trkpt>
      <trkpt lat="43.18364" lon="0.38">
        <ele>476.208517</ele>
        <time>2021-04-18T10:15:09.961Z</time>
      </trkpt>
      <trkpt lat="43.18381" lon="0.37995">
        <ele>475.495434</ele>
        <time>2021-04-18T10:15:11.975Z</time>
      </trkpt>
      <trkpt lat="43.18391" lon="0.37994">
        <ele>475.127679</ele>
        <time>2021-04-18T10:15:12.936Z</time>
      </trkpt>
      <trkpt lat="43.184" lon="0.37994">
        <ele>474.767877</ele>
        <time>2021-04-18T10:15:13.967Z</time>
      </trkpt>
      <trkpt lat="43.18409" lon="0.37994">
        <ele>474.172427</ele>
        <time>2021-04-18T10:15:14.939Z</time>
      </trkpt>
      <trkpt lat="43.18418" lon="0.37993">
        <ele>473.090082</ele>
        <time>2021-04-18T10:15:15.948Z</time>
      </trkpt>
      <trkpt lat="43.18427" lon="0.37992">
        <ele>472.006927</ele>
        <time>2021-04-18T10:15:16.988Z</time>
      </trkpt>
      <trkpt lat="43.18445" lon="0.37989">
        <ele>469.837925</ele>
        <time>2021-04-18T10:15:18.984Z</time>
      </trkpt>
      <trkpt lat="43.18463" lon="0.37987">
        <ele>467.709028</ele>
        <time>2021-04-18T10:15:20.949Z</time>
      </trkpt>
      <trkpt lat="43.18479" lon="0.37984">
        <ele>465.753149</ele>
        <time>2021-04-18T10:15:22.985Z</time>
      </trkpt>
      <trkpt lat="43.18494" lon="0.37979">
        <ele>463.898386</ele>
        <time>2021-04-18T10:15:24.961Z</time>
      </trkpt>
      <trkpt lat="43.18509" lon="0.37972">
        <ele>462.008707</ele>
        <time>2021-04-18T10:15:26.960Z</time>
      </trkpt>
      <trkpt lat="43.18523" lon="0.37965">
        <ele>460.216244</ele>
        <time>2021-04-18T10:15:28.957Z</time>
      </trkpt>
      <trkpt lat="43.18536" lon="0.37957">
        <ele>458.486961</ele>
        <time>2021-04-18T10:15:30.957Z</time>
      </trkpt>
      <trkpt lat="43.18549" lon="0.37952">
        <ele>456.899333</ele>
        <time>2021-04-18T10:15:32.993Z</time>
      </trkpt>
      <trkpt lat="43.18561" lon="0.37949">
        <ele>455.404355</ele>
        <time>2021-04-18T10:15:34.955Z</time>
      </trkpt>
      <trkpt lat="43.18573" lon="0.37949">
        <ele>453.954842</ele>
        <time>2021-04-18T10:15:36.956Z</time>
      </trkpt>
      <trkpt lat="43.18586" lon="0.37949">
        <ele>452.820693</ele>
        <time>2021-04-18T10:15:38.965Z</time>
      </trkpt>
      <trkpt lat="43.18597" lon="0.37949">
        <ele>452.372494</ele>
        <time>2021-04-18T10:15:40.952Z</time>
      </trkpt>
      <trkpt lat="43.18609" lon="0.37949">
        <ele>451.920227</ele>
        <time>2021-04-18T10:15:42.951Z</time>
      </trkpt>
      <trkpt lat="43.18621" lon="0.37949">
        <ele>451.491017</ele>
        <time>2021-04-18T10:15:44.956Z</time>
      </trkpt>
      <trkpt lat="43.18631" lon="0.3795">
        <ele>451.091756</ele>
        <time>2021-04-18T10:15:46.951Z</time>
      </trkpt>
      <trkpt lat="43.18641" lon="0.37952">
        <ele>450.692093</ele>
        <time>2021-04-18T10:15:48.984Z</time>
      </trkpt>
      <trkpt lat="43.18652" lon="0.37955">
        <ele>450.279263</ele>
        <time>2021-04-18T10:15:50.965Z</time>
      </trkpt>
      <trkpt lat="43.18663" lon="0.37958">
        <ele>449.859067</ele>
        <time>2021-04-18T10:15:52.956Z</time>
      </trkpt>
      <trkpt lat="43.18675" lon="0.37959">
        <ele>449.393325</ele>
        <time>2021-04-18T10:15:54.978Z</time>
      </trkpt>
      <trkpt lat="43.18686" lon="0.37962">
        <ele>448.990252</ele>
        <time>2021-04-18T10:15:56.965Z</time>
      </trkpt>
      <trkpt lat="43.18696" lon="0.37966">
        <ele>448.573718</ele>
        <time>2021-04-18T10:15:58.954Z</time>
      </trkpt>
      <trkpt lat="43.18708" lon="0.37969">
        <ele>448.123794</ele>
        <time>2021-04-18T10:16:00.957Z</time>
      </trkpt>
      <trkpt lat="43.18719" lon="0.37972">
        <ele>447.703114</ele>
        <time>2021-04-18T10:16:02.966Z</time>
      </trkpt>
      <trkpt lat="43.18729" lon="0.37974">
        <ele>447.307204</ele>
        <time>2021-04-18T10:16:04.993Z</time>
      </trkpt>
      <trkpt lat="43.18739" lon="0.37976">
        <ele>446.907032</ele>
        <time>2021-04-18T10:16:06.995Z</time>
      </trkpt>
      <trkpt lat="43.18751" lon="0.37978">
        <ele>446.481462</ele>
        <time>2021-04-18T10:16:08.974Z</time>
      </trkpt>
      <trkpt lat="43.18761" lon="0.37982">
        <ele>446.163251</ele>
        <time>2021-04-18T10:16:10.957Z</time>
      </trkpt>
      <trkpt lat="43.18771" lon="0.3799">
        <ele>446.272576</ele>
        <time>2021-04-18T10:16:12.935Z</time>
      </trkpt>
      <trkpt lat="43.1878" lon="0.37999">
        <ele>446.372596</ele>
        <time>2021-04-18T10:16:14.942Z</time>
      </trkpt>
      <trkpt lat="43.18787" lon="0.38008">
        <ele>446.468146</ele>
        <time>2021-04-18T10:16:16.985Z</time>
      </trkpt>
      <trkpt lat="43.18795" lon="0.38016">
        <ele>446.561132</ele>
        <time>2021-04-18T10:16:18.958Z</time>
      </trkpt>
      <trkpt lat="43.18803" lon="0.38023">
        <ele>446.648298</ele>
        <time>2021-04-18T10:16:20.987Z</time>
      </trkpt>
      <trkpt lat="43.18813" lon="0.38034">
        <ele>446.770288</ele>
        <time>2021-04-18T10:16:23.969Z</time>
      </trkpt>
      <trkpt lat="43.18824" lon="0.38039">
        <ele>446.883649</ele>
        <time>2021-04-18T10:16:26.948Z</time>
      </trkpt>
      <trkpt lat="43.18834" lon="0.38035">
        <ele>446.982025</ele>
        <time>2021-04-18T10:16:29.945Z</time>
      </trkpt>
      <trkpt lat="43.18843" lon="0.3803">
        <ele>447.070514</ele>
        <time>2021-04-18T10:16:34.953Z</time>
      </trkpt>
      <trkpt lat="43.1885" lon="0.3802">
        <ele>447.168171</ele>
        <time>2021-04-18T10:16:44.943Z</time>
      </trkpt>
      <trkpt lat="43.18857" lon="0.38006">
        <ele>447.286543</ele>
        <time>2021-04-18T10:16:48.959Z</time>
      </trkpt>
      <trkpt lat="43.18862" lon="0.37993">
        <ele>447.388355</ele>
        <time>2021-04-18T10:16:51.960Z</time>
      </trkpt>
      <trkpt lat="43.18868" lon="0.37978">
        <ele>447.504748</ele>
        <time>2021-04-18T10:16:54.956Z</time>
      </trkpt>
      <trkpt lat="43.18874" lon="0.37966">
        <ele>447.603821</ele>
        <time>2021-04-18T10:16:57.959Z</time>
      </trkpt>
      <trkpt lat="43.18879" lon="0.37954">
        <ele>447.70507</ele>
        <time>2021-04-18T10:17:00.996Z</time>
      </trkpt>
      <trkpt lat="43.18886" lon="0.37943">
        <ele>447.799472</ele>
        <time>2021-04-18T10:17:03.962Z</time>
      </trkpt>
      <trkpt lat="43.18891" lon="0.37931">
        <ele>448.218368</ele>
        <time>2021-04-18T10:17:07.945Z</time>
      </trkpt>
      <trkpt lat="43.18898" lon="0.37919">
        <ele>449.000157</ele>
        <time>2021-04-18T10:17:11.995Z</time>
      </trkpt>
      <trkpt lat="43.18904" lon="0.37908">
        <ele>449.64123</ele>
        <time>2021-04-18T10:17:14.962Z</time>
      </trkpt>
      <trkpt lat="43.18909" lon="0.37897">
        <ele>450.281144</ele>
        <time>2021-04-18T10:17:17.990Z</time>
      </trkpt>
      <trkpt lat="43.18913" lon="0.37886">
        <ele>450.927789</ele>
        <time>2021-04-18T10:17:20.949Z</time>
      </trkpt>
      <trkpt lat="43.18916" lon="0.37873">
        <ele>451.577866</ele>
        <time>2021-04-18T10:17:23.957Z</time>
      </trkpt>
      <trkpt lat="43.18921" lon="0.37859">
        <ele>452.375616</ele>
        <time>2021-04-18T10:17:27.963Z</time>
      </trkpt>
      <trkpt lat="43.18925" lon="0.37844">
        <ele>453.130301</ele>
        <time>2021-04-18T10:17:31.946Z</time>
      </trkpt>
      <trkpt lat="43.18929" lon="0.37829">
        <ele>453.922403</ele>
        <time>2021-04-18T10:17:35.974Z</time>
      </trkpt>
      <trkpt lat="43.18933" lon="0.37816">
        <ele>454.656709</ele>
        <time>2021-04-18T10:17:39.955Z</time>
      </trkpt>
      <trkpt lat="43.18936" lon="0.37803">
        <ele>455.332357</ele>
        <time>2021-04-18T10:17:43.988Z</time>
      </trkpt>
      <trkpt lat="43.1894" lon="0.3779">
        <ele>456.011088</ele>
        <time>2021-04-18T10:17:47.982Z</time>
      </trkpt>
      <trkpt lat="43.18943" lon="0.37777">
        <ele>456.69942</ele>
        <time>2021-04-18T10:17:51.951Z</time>
      </trkpt>
      <trkpt lat="43.18947" lon="0.37764">
        <ele>457.412795</ele>
        <time>2021-04-18T10:17:55.963Z</time>
      </trkpt>
      <trkpt lat="43.18951" lon="0.37751">
        <ele>458.083816</ele>
        <time>2021-04-18T10:17:59.953Z</time>
      </trkpt>
      <trkpt lat="43.18954" lon="0.37739">
        <ele>458.727982</ele>
        <time>2021-04-18T10:18:03.964Z</time>
      </trkpt>
      <trkpt lat="43.1896" lon="0.37726">
        <ele>459.477534</ele>
        <time>2021-04-18T10:18:08.963Z</time>
      </trkpt>
      <trkpt lat="43.18968" lon="0.37715">
        <ele>460.325493</ele>
        <time>2021-04-18T10:18:13.963Z</time>
      </trkpt>
      <trkpt lat="43.18976" lon="0.37706">
        <ele>461.562234</ele>
        <time>2021-04-18T10:18:18.936Z</time>
      </trkpt>
      <trkpt lat="43.18983" lon="0.37697">
        <ele>462.737906</ele>
        <time>2021-04-18T10:18:23.955Z</time>
      </trkpt>
      <trkpt lat="43.18991" lon="0.37687">
        <ele>464.012557</ele>
        <time>2021-04-18T10:18:29.944Z</time>
      </trkpt>
      <trkpt lat="43.18999" lon="0.37678">
        <ele>465.183343</ele>
        <time>2021-04-18T10:18:34.979Z</time>
      </trkpt>
      <trkpt lat="43.19007" lon="0.3767">
        <ele>466.368408</ele>
        <time>2021-04-18T10:18:39.937Z</time>
      </trkpt>
      <trkpt lat="43.19016" lon="0.37665">
        <ele>467.557196</ele>
        <time>2021-04-18T10:18:46.944Z</time>
      </trkpt>
      <trkpt lat="43.19025" lon="0.37661">
        <ele>468.633385</ele>
        <time>2021-04-18T10:18:53.933Z</time>
      </trkpt>
      <trkpt lat="43.19035" lon="0.37659">
        <ele>469.786786</ele>
        <time>2021-04-18T10:18:59.943Z</time>
      </trkpt>
      <trkpt lat="43.19045" lon="0.37659">
        <ele>471.046579</ele>
        <time>2021-04-18T10:19:05.933Z</time>
      </trkpt>
      <trkpt lat="43.19055" lon="0.37661">
        <ele>472.158964</ele>
        <time>2021-04-18T10:19:10.939Z</time>
      </trkpt>
      <trkpt lat="43.19065" lon="0.37662">
        <ele>473.372168</ele>
        <time>2021-04-18T10:19:15.974Z</time>
      </trkpt>
      <trkpt lat="43.19075" lon="0.37664">
        <ele>474.552723</ele>
        <time>2021-04-18T10:19:20.942Z</time>
      </trkpt>
      <trkpt lat="43.19084" lon="0.37669">
        <ele>475.686331</ele>
        <time>2021-04-18T10:19:25.948Z</time>
      </trkpt>
      <trkpt lat="43.19093" lon="0.37674">
        <ele>476.825069</ele>
        <time>2021-04-18T10:19:30.998Z</time>
      </trkpt>
      <trkpt lat="43.191" lon="0.37681">
        <ele>477.883926</ele>
        <time>2021-04-18T10:19:36.939Z</time>
      </trkpt>
      <trkpt lat="43.19108" lon="0.37688">
        <ele>478.956901</ele>
        <time>2021-04-18T10:19:41.939Z</time>
      </trkpt>
      <trkpt lat="43.19116" lon="0.37693">
        <ele>480.063212</ele>
        <time>2021-04-18T10:19:45.986Z</time>
      </trkpt>
      <trkpt lat="43.19124" lon="0.37701">
        <ele>481.180553</ele>
        <time>2021-04-18T10:19:50.940Z</time>
      </trkpt>
      <trkpt lat="43.19134" lon="0.37702">
        <ele>481.783228</ele>
        <time>2021-04-18T10:19:56.940Z</time>
      </trkpt>
      <trkpt lat="43.19143" lon="0.37706">
        <ele>482.29608</ele>
        <time>2021-04-18T10:20:00.960Z</time>
      </trkpt>
      <trkpt lat="43.19152" lon="0.37711">
        <ele>482.783569</ele>
        <time>2021-04-18T10:20:04.935Z</time>
      </trkpt>
      <trkpt lat="43.19161" lon="0.37717">
        <ele>483.338082</ele>
        <time>2021-04-18T10:20:09.939Z</time>
      </trkpt>
      <trkpt lat="43.19171" lon="0.37723">
        <ele>483.890769</ele>
        <time>2021-04-18T10:20:14.943Z</time>
      </trkpt>
      <trkpt lat="43.19181" lon="0.37727">
        <ele>484.472078</ele>
        <time>2021-04-18T10:20:19.943Z</time>
      </trkpt>
      <trkpt lat="43.19191" lon="0.37732">
        <ele>485.067345</ele>
        <time>2021-04-18T10:20:24.982Z</time>
      </trkpt>
      <trkpt lat="43.19201" lon="0.37739">
        <ele>485.638832</ele>
        <time>2021-04-18T10:20:29.963Z</time>
      </trkpt>
      <trkpt lat="43.1921" lon="0.37744">
        <ele>486.185366</ele>
        <time>2021-04-18T10:20:33.959Z</time>
      </trkpt>
      <trkpt lat="43.19221" lon="0.37747">
        <ele>486.794366</ele>
        <time>2021-04-18T10:20:37.960Z</time>
      </trkpt>
      <trkpt lat="43.1923" lon="0.37745">
        <ele>487.295906</ele>
        <time>2021-04-18T10:20:43.943Z</time>
      </trkpt>
      <trkpt lat="43.19234" lon="0.37731">
        <ele>487.863652</ele>
        <time>2021-04-18T10:20:49.975Z</time>
      </trkpt>
      <trkpt lat="43.19236" lon="0.37717">
        <ele>488.420049</ele>
        <time>2021-04-18T10:20:54.941Z</time>
      </trkpt>
      <trkpt lat="43.19239" lon="0.37704">
        <ele>488.954737</ele>
        <time>2021-04-18T10:20:58.965Z</time>
      </trkpt>
      <trkpt lat="43.19241" lon="0.37689">
        <ele>489.553566</ele>
        <time>2021-04-18T10:21:02.963Z</time>
      </trkpt>
      <trkpt lat="43.19242" lon="0.37675">
        <ele>490.090654</ele>
        <time>2021-04-18T10:21:06.960Z</time>
      </trkpt>
      <trkpt lat="43.19243" lon="0.37661">
        <ele>490.648557</ele>
        <time>2021-04-18T10:21:10.964Z</time>
      </trkpt>
      <trkpt lat="43.19245" lon="0.37647">
        <ele>491.001107</ele>
        <time>2021-04-18T10:21:15.964Z</time>
      </trkpt>
      <trkpt lat="43.19246" lon="0.37632">
        <ele>491.162511</ele>
        <time>2021-04-18T10:21:21.005Z</time>
      </trkpt>
      <trkpt lat="43.19249" lon="0.3762">
        <ele>491.302232</ele>
        <time>2021-04-18T10:21:24.995Z</time>
      </trkpt>
      <trkpt lat="43.1925" lon="0.37607">
        <ele>491.447037</ele>
        <time>2021-04-18T10:21:28.956Z</time>
      </trkpt>
      <trkpt lat="43.19251" lon="0.37595">
        <ele>491.585295</ele>
        <time>2021-04-18T10:21:33.948Z</time>
      </trkpt>
      <trkpt lat="43.1926" lon="0.37587">
        <ele>491.740554</ele>
        <time>2021-04-18T10:21:41.939Z</time>
      </trkpt>
      <trkpt lat="43.19271" lon="0.37586">
        <ele>491.904618</ele>
        <time>2021-04-18T10:21:46.957Z</time>
      </trkpt>
      <trkpt lat="43.1928" lon="0.37584">
        <ele>492.049631</ele>
        <time>2021-04-18T10:21:51.929Z</time>
      </trkpt>
      <trkpt lat="43.19289" lon="0.3758">
        <ele>492.19227</ele>
        <time>2021-04-18T10:21:56.966Z</time>
      </trkpt>
      <trkpt lat="43.19301" lon="0.37581">
        <ele>492.361888</ele>
        <time>2021-04-18T10:22:01.937Z</time>
      </trkpt>
      <trkpt lat="43.19312" lon="0.37583">
        <ele>492.532602</ele>
        <time>2021-04-18T10:22:05.972Z</time>
      </trkpt>
      <trkpt lat="43.19322" lon="0.37586">
        <ele>492.678542</ele>
        <time>2021-04-18T10:22:09.948Z</time>
      </trkpt>
      <trkpt lat="43.19331" lon="0.37588">
        <ele>492.820444</ele>
        <time>2021-04-18T10:22:13.968Z</time>
      </trkpt>
      <trkpt lat="43.1934" lon="0.3758">
        <ele>492.979408</ele>
        <time>2021-04-18T10:22:18.943Z</time>
      </trkpt>
      <trkpt lat="43.19343" lon="0.37568">
        <ele>493.124237</ele>
        <time>2021-04-18T10:22:23.953Z</time>
      </trkpt>
      <trkpt lat="43.19346" lon="0.37556">
        <ele>493.259334</ele>
        <time>2021-04-18T10:22:27.941Z</time>
      </trkpt>
      <trkpt lat="43.19349" lon="0.37544">
        <ele>493.401608</ele>
        <time>2021-04-18T10:22:31.949Z</time>
      </trkpt>
      <trkpt lat="43.19351" lon="0.3753">
        <ele>493.554969</ele>
        <time>2021-04-18T10:22:36.942Z</time>
      </trkpt>
      <trkpt lat="43.1936" lon="0.37521">
        <ele>493.566339</ele>
        <time>2021-04-18T10:22:42.937Z</time>
      </trkpt>
      <trkpt lat="43.19369" lon="0.37518">
        <ele>493.486287</ele>
        <time>2021-04-18T10:22:46.949Z</time>
      </trkpt>
      <trkpt lat="43.19378" lon="0.37515">
        <ele>493.405183</ele>
        <time>2021-04-18T10:22:49.958Z</time>
      </trkpt>
      <trkpt lat="43.19387" lon="0.3751">
        <ele>493.325535</ele>
        <time>2021-04-18T10:22:52.931Z</time>
      </trkpt>
      <trkpt lat="43.19395" lon="0.375">
        <ele>493.237496</ele>
        <time>2021-04-18T10:22:56.943Z</time>
      </trkpt>
      <trkpt lat="43.194" lon="0.37486">
        <ele>493.13722</ele>
        <time>2021-04-18T10:22:59.976Z</time>
      </trkpt>
      <trkpt lat="43.19403" lon="0.37473">
        <ele>493.055614</ele>
        <time>2021-04-18T10:23:02.964Z</time>
      </trkpt>
      <trkpt lat="43.19406" lon="0.3746">
        <ele>492.973515</ele>
        <time>2021-04-18T10:23:05.964Z</time>
      </trkpt>
      <trkpt lat="43.19408" lon="0.37448">
        <ele>492.895751</ele>
        <time>2021-04-18T10:23:08.963Z</time>
      </trkpt>
      <trkpt lat="43.19409" lon="0.37435">
        <ele>492.816186</ele>
        <time>2021-04-18T10:23:11.965Z</time>
      </trkpt>
      <trkpt lat="43.19411" lon="0.3742">
        <ele>492.72529</ele>
        <time>2021-04-18T10:23:15.961Z</time>
      </trkpt>
      <trkpt lat="43.19414" lon="0.37406">
        <ele>492.631375</ele>
        <time>2021-04-18T10:23:20.962Z</time>
      </trkpt>
      <trkpt lat="43.19419" lon="0.37393">
        <ele>492.54729</ele>
        <time>2021-04-18T10:23:25.961Z</time>
      </trkpt>
      <trkpt lat="43.19428" lon="0.37387">
        <ele>492.461</ele>
        <time>2021-04-18T10:23:30.986Z</time>
      </trkpt>
      <trkpt lat="43.19438" lon="0.3738">
        <ele>492.367997</ele>
        <time>2021-04-18T10:23:34.951Z</time>
      </trkpt>
      <trkpt lat="43.19447" lon="0.37372">
        <ele>492.279347</ele>
        <time>2021-04-18T10:23:38.966Z</time>
      </trkpt>
      <trkpt lat="43.19455" lon="0.37365">
        <ele>492.194637</ele>
        <time>2021-04-18T10:23:41.956Z</time>
      </trkpt>
      <trkpt lat="43.19463" lon="0.37358">
        <ele>492.113973</ele>
        <time>2021-04-18T10:23:44.967Z</time>
      </trkpt>
      <trkpt lat="43.19472" lon="0.37349">
        <ele>492.505414</ele>
        <time>2021-04-18T10:23:48.994Z</time>
      </trkpt>
      <trkpt lat="43.19482" lon="0.3734">
        <ele>492.960557</ele>
        <time>2021-04-18T10:23:52.954Z</time>
      </trkpt>
      <trkpt lat="43.19491" lon="0.37334">
        <ele>493.33951</ele>
        <time>2021-04-18T10:23:55.963Z</time>
      </trkpt>
      <trkpt lat="43.19502" lon="0.3733">
        <ele>493.785054</ele>
        <time>2021-04-18T10:23:59.978Z</time>
      </trkpt>
      <trkpt lat="43.19512" lon="0.37327">
        <ele>494.164867</ele>
        <time>2021-04-18T10:24:02.960Z</time>
      </trkpt>
      <trkpt lat="43.19516" lon="0.3731">
        <ele>494.671553</ele>
        <time>2021-04-18T10:24:06.932Z</time>
      </trkpt>
      <trkpt lat="43.19508" lon="0.37298">
        <ele>495.109476</ele>
        <time>2021-04-18T10:24:09.945Z</time>
      </trkpt>
      <trkpt lat="43.195" lon="0.37288">
        <ele>495.542019</ele>
        <time>2021-04-18T10:24:13.957Z</time>
      </trkpt>
      <trkpt lat="43.19491" lon="0.3728">
        <ele>495.961819</ele>
        <time>2021-04-18T10:24:18.957Z</time>
      </trkpt>
      <trkpt lat="43.19481" lon="0.37274">
        <ele>496.382095</ele>
        <time>2021-04-18T10:24:23.983Z</time>
      </trkpt>
      <trkpt lat="43.19472" lon="0.37267">
        <ele>496.79327</ele>
        <time>2021-04-18T10:24:28.973Z</time>
      </trkpt>
      <trkpt lat="43.19462" lon="0.37261">
        <ele>497.207454</ele>
        <time>2021-04-18T10:24:33.954Z</time>
      </trkpt>
      <trkpt lat="43.19453" lon="0.37257">
        <ele>497.571986</ele>
        <time>2021-04-18T10:24:37.969Z</time>
      </trkpt>
      <trkpt lat="43.19445" lon="0.37252">
        <ele>497.93131</ele>
        <time>2021-04-18T10:24:41.955Z</time>
      </trkpt>
      <trkpt lat="43.19435" lon="0.37246">
        <ele>498.341969</ele>
        <time>2021-04-18T10:24:46.953Z</time>
      </trkpt>
      <trkpt lat="43.19426" lon="0.37237">
        <ele>498.770939</ele>
        <time>2021-04-18T10:24:51.956Z</time>
      </trkpt>
      <trkpt lat="43.19416" lon="0.37232">
        <ele>499.224498</ele>
        <time>2021-04-18T10:24:56.976Z</time>
      </trkpt>
      <trkpt lat="43.19406" lon="0.37225">
        <ele>499.798371</ele>
        <time>2021-04-18T10:25:01.964Z</time>
      </trkpt>
      <trkpt lat="43.19398" lon="0.37219">
        <ele>500.310418</ele>
        <time>2021-04-18T10:25:06.946Z</time>
      </trkpt>
      <trkpt lat="43.1939" lon="0.37213">
        <ele>500.796031</ele>
        <time>2021-04-18T10:25:10.955Z</time>
      </trkpt>
      <trkpt lat="43.19381" lon="0.37207">
        <ele>501.308678</ele>
        <time>2021-04-18T10:25:15.968Z</time>
      </trkpt>
      <trkpt lat="43.19373" lon="0.37199">
        <ele>501.820671</ele>
        <time>2021-04-18T10:25:21.011Z</time>
      </trkpt>
      <trkpt lat="43.19366" lon="0.37189">
        <ele>502.347538</ele>
        <time>2021-04-18T10:25:25.966Z</time>
      </trkpt>
      <trkpt lat="43.19361" lon="0.37179">
        <ele>502.841404</ele>
        <time>2021-04-18T10:25:30.933Z</time>
      </trkpt>
      <trkpt lat="43.19357" lon="0.37166">
        <ele>503.383257</ele>
        <time>2021-04-18T10:25:35.955Z</time>
      </trkpt>
      <trkpt lat="43.19355" lon="0.37154">
        <ele>503.859882</ele>
        <time>2021-04-18T10:25:40.947Z</time>
      </trkpt>
      <trkpt lat="43.19351" lon="0.37141">
        <ele>504.373078</ele>
        <time>2021-04-18T10:25:45.929Z</time>
      </trkpt>
      <trkpt lat="43.19347" lon="0.3713">
        <ele>504.853425</ele>
        <time>2021-04-18T10:25:49.985Z</time>
      </trkpt>
      <trkpt lat="43.19344" lon="0.37117">
        <ele>505.401927</ele>
        <time>2021-04-18T10:25:54.986Z</time>
      </trkpt>
      <trkpt lat="43.19342" lon="0.37103">
        <ele>505.935873</ele>
        <time>2021-04-18T10:25:59.958Z</time>
      </trkpt>
      <trkpt lat="43.19339" lon="0.37089">
        <ele>506.503727</ele>
        <time>2021-04-18T10:26:04.963Z</time>
      </trkpt>
      <trkpt lat="43.19337" lon="0.37075">
        <ele>507.054444</ele>
        <time>2021-04-18T10:26:09.993Z</time>
      </trkpt>
      <trkpt lat="43.19337" lon="0.3706">
        <ele>507.618268</ele>
        <time>2021-04-18T10:26:15.936Z</time>
      </trkpt>
      <trkpt lat="43.19335" lon="0.37047">
        <ele>508.157681</ele>
        <time>2021-04-18T10:26:20.957Z</time>
      </trkpt>
      <trkpt lat="43.19335" lon="0.37034">
        <ele>508.642658</ele>
        <time>2021-04-18T10:26:25.958Z</time>
      </trkpt>
      <trkpt lat="43.19335" lon="0.3702">
        <ele>509.246216</ele>
        <time>2021-04-18T10:26:31.937Z</time>
      </trkpt>
      <trkpt lat="43.19334" lon="0.37006">
        <ele>509.833398</ele>
        <time>2021-04-18T10:26:36.966Z</time>
      </trkpt>
      <trkpt lat="43.19336" lon="0.36992">
        <ele>510.410829</ele>
        <time>2021-04-18T10:26:41.989Z</time>
      </trkpt>
      <trkpt lat="43.19335" lon="0.36978">
        <ele>510.964159</ele>
        <time>2021-04-18T10:26:46.960Z</time>
      </trkpt>
      <trkpt lat="43.19336" lon="0.36966">
        <ele>511.488752</ele>
        <time>2021-04-18T10:26:51.945Z</time>
      </trkpt>
      <trkpt lat="43.19338" lon="0.36952">
        <ele>512.097743</ele>
        <time>2021-04-18T10:26:57.938Z</time>
      </trkpt>
      <trkpt lat="43.1934" lon="0.36937">
        <ele>512.716833</ele>
        <time>2021-04-18T10:27:03.941Z</time>
      </trkpt>
      <trkpt lat="43.19342" lon="0.36924">
        <ele>513.281631</ele>
        <time>2021-04-18T10:27:08.958Z</time>
      </trkpt>
      <trkpt lat="43.19343" lon="0.3691">
        <ele>513.866962</ele>
        <time>2021-04-18T10:27:13.951Z</time>
      </trkpt>
      <trkpt lat="43.19345" lon="0.36897">
        <ele>514.394007</ele>
        <time>2021-04-18T10:27:18.985Z</time>
      </trkpt>
      <trkpt lat="43.19346" lon="0.36884">
        <ele>514.931563</ele>
        <time>2021-04-18T10:27:23.977Z</time>
      </trkpt>
      <trkpt lat="43.19349" lon="0.36871">
        <ele>515.518992</ele>
        <time>2021-04-18T10:27:28.955Z</time>
      </trkpt>
      <trkpt lat="43.1935" lon="0.36857">
        <ele>516.075138</ele>
        <time>2021-04-18T10:27:33.958Z</time>
      </trkpt>
      <trkpt lat="43.19351" lon="0.36843">
        <ele>516.672675</ele>
        <time>2021-04-18T10:27:39.944Z</time>
      </trkpt>
      <trkpt lat="43.19353" lon="0.3683">
        <ele>517.237531</ele>
        <time>2021-04-18T10:27:44.982Z</time>
      </trkpt>
      <trkpt lat="43.19355" lon="0.36815">
        <ele>517.863621</ele>
        <time>2021-04-18T10:27:49.959Z</time>
      </trkpt>
      <trkpt lat="43.19357" lon="0.36802">
        <ele>518.441605</ele>
        <time>2021-04-18T10:27:54.949Z</time>
      </trkpt>
      <trkpt lat="43.1936" lon="0.36787">
        <ele>519.030635</ele>
        <time>2021-04-18T10:27:59.963Z</time>
      </trkpt>
      <trkpt lat="43.19362" lon="0.36772">
        <ele>519.567728</ele>
        <time>2021-04-18T10:28:04.962Z</time>
      </trkpt>
      <trkpt lat="43.19364" lon="0.36757">
        <ele>520.090414</ele>
        <time>2021-04-18T10:28:09.955Z</time>
      </trkpt>
      <trkpt lat="43.19366" lon="0.36744">
        <ele>520.565952</ele>
        <time>2021-04-18T10:28:14.965Z</time>
      </trkpt>
      <trkpt lat="43.19369" lon="0.36729">
        <ele>521.097513</ele>
        <time>2021-04-18T10:28:19.954Z</time>
      </trkpt>
      <trkpt lat="43.1937" lon="0.36714">
        <ele>521.629609</ele>
        <time>2021-04-18T10:28:24.952Z</time>
      </trkpt>
      <trkpt lat="43.19371" lon="0.367">
        <ele>522.112703</ele>
        <time>2021-04-18T10:28:29.935Z</time>
      </trkpt>
      <trkpt lat="43.1937" lon="0.36687">
        <ele>522.576626</ele>
        <time>2021-04-18T10:28:34.955Z</time>
      </trkpt>
      <trkpt lat="43.19368" lon="0.36675">
        <ele>523.011381</ele>
        <time>2021-04-18T10:28:38.969Z</time>
      </trkpt>
      <trkpt lat="43.19363" lon="0.36662">
        <ele>523.497377</ele>
        <time>2021-04-18T10:28:43.971Z</time>
      </trkpt>
      <trkpt lat="43.19355" lon="0.36653">
        <ele>523.994814</ele>
        <time>2021-04-18T10:28:48.997Z</time>
      </trkpt>
      <trkpt lat="43.19345" lon="0.36647">
        <ele>524.523569</ele>
        <time>2021-04-18T10:28:53.951Z</time>
      </trkpt>
      <trkpt lat="43.19335" lon="0.36646">
        <ele>525.001503</ele>
        <time>2021-04-18T10:28:58.952Z</time>
      </trkpt>
      <trkpt lat="43.19326" lon="0.3665">
        <ele>525.442948</ele>
        <time>2021-04-18T10:29:03.953Z</time>
      </trkpt>
      <trkpt lat="43.19316" lon="0.36654">
        <ele>525.95082</ele>
        <time>2021-04-18T10:29:09.954Z</time>
      </trkpt>
      <trkpt lat="43.19307" lon="0.3666">
        <ele>526.421637</ele>
        <time>2021-04-18T10:29:15.945Z</time>
      </trkpt>
      <trkpt lat="43.19299" lon="0.36667">
        <ele>526.888601</ele>
        <time>2021-04-18T10:29:21.947Z</time>
      </trkpt>
      <trkpt lat="43.19291" lon="0.36675">
        <ele>527.37</ele>
        <time>2021-04-18T10:29:26.992Z</time>
      </trkpt>
      <trkpt lat="43.19284" lon="0.36684">
        <ele>527.952982</ele>
        <time>2021-04-18T10:29:31.946Z</time>
      </trkpt>
      <trkpt lat="43.19276" lon="0.36693">
        <ele>528.612411</ele>
        <time>2021-04-18T10:29:36.954Z</time>
      </trkpt>
      <trkpt lat="43.1927" lon="0.36704">
        <ele>529.274645</ele>
        <time>2021-04-18T10:29:41.939Z</time>
      </trkpt>
      <trkpt lat="43.19263" lon="0.36715">
        <ele>530.006639</ele>
        <time>2021-04-18T10:29:46.987Z</time>
      </trkpt>
      <trkpt lat="43.19254" lon="0.36725">
        <ele>530.721959</ele>
        <time>2021-04-18T10:29:51.980Z</time>
      </trkpt>
      <trkpt lat="43.19246" lon="0.36731">
        <ele>531.318746</ele>
        <time>2021-04-18T10:29:55.964Z</time>
      </trkpt>
      <trkpt lat="43.19237" lon="0.36738">
        <ele>532.010655</ele>
        <time>2021-04-18T10:30:00.953Z</time>
      </trkpt>
      <trkpt lat="43.19228" lon="0.36744">
        <ele>532.688158</ele>
        <time>2021-04-18T10:30:05.964Z</time>
      </trkpt>
      <trkpt lat="43.19217" lon="0.36748">
        <ele>533.387724</ele>
        <time>2021-04-18T10:30:10.954Z</time>
      </trkpt>
      <trkpt lat="43.19207" lon="0.3675">
        <ele>534.071186</ele>
        <time>2021-04-18T10:30:15.988Z</time>
      </trkpt>
      <trkpt lat="43.19197" lon="0.36753">
        <ele>534.78279</ele>
        <time>2021-04-18T10:30:20.991Z</time>
      </trkpt>
      <trkpt lat="43.19186" lon="0.36753">
        <ele>535.459804</ele>
        <time>2021-04-18T10:30:25.963Z</time>
      </trkpt>
      <trkpt lat="43.19177" lon="0.36752">
        <ele>536.100643</ele>
        <time>2021-04-18T10:30:30.945Z</time>
      </trkpt>
      <trkpt lat="43.19166" lon="0.36749">
        <ele>536.827556</ele>
        <time>2021-04-18T10:30:35.955Z</time>
      </trkpt>
      <trkpt lat="43.19156" lon="0.36745">
        <ele>537.49414</ele>
        <time>2021-04-18T10:30:40.957Z</time>
      </trkpt>
      <trkpt lat="43.19147" lon="0.36737">
        <ele>538.190452</ele>
        <time>2021-04-18T10:30:45.949Z</time>
      </trkpt>
      <trkpt lat="43.19139" lon="0.36728">
        <ele>538.867238</ele>
        <time>2021-04-18T10:30:50.940Z</time>
      </trkpt>
      <trkpt lat="43.19133" lon="0.36717">
        <ele>539.550094</ele>
        <time>2021-04-18T10:30:55.956Z</time>
      </trkpt>
      <trkpt lat="43.1913" lon="0.36704">
        <ele>540.186</ele>
        <time>2021-04-18T10:30:59.962Z</time>
      </trkpt>
      <trkpt lat="43.19127" lon="0.36692">
        <ele>540.771303</ele>
        <time>2021-04-18T10:31:03.961Z</time>
      </trkpt>
      <trkpt lat="43.19126" lon="0.36679">
        <ele>541.399039</ele>
        <time>2021-04-18T10:31:07.949Z</time>
      </trkpt>
      <trkpt lat="43.19125" lon="0.36667">
        <ele>541.999564</ele>
        <time>2021-04-18T10:31:11.955Z</time>
      </trkpt>
      <trkpt lat="43.19126" lon="0.36652">
        <ele>542.71475</ele>
        <time>2021-04-18T10:31:16.957Z</time>
      </trkpt>
      <trkpt lat="43.19128" lon="0.36637">
        <ele>543.412069</ele>
        <time>2021-04-18T10:31:21.946Z</time>
      </trkpt>
      <trkpt lat="43.19129" lon="0.36623">
        <ele>544.075259</ele>
        <time>2021-04-18T10:31:26.953Z</time>
      </trkpt>
      <trkpt lat="43.1913" lon="0.36609">
        <ele>544.750073</ele>
        <time>2021-04-18T10:31:31.992Z</time>
      </trkpt>
      <trkpt lat="43.19132" lon="0.36595">
        <ele>545.403161</ele>
        <time>2021-04-18T10:31:36.955Z</time>
      </trkpt>
      <trkpt lat="43.19134" lon="0.36582">
        <ele>546.064605</ele>
        <time>2021-04-18T10:31:41.955Z</time>
      </trkpt>
      <trkpt lat="43.19137" lon="0.3657">
        <ele>546.671466</ele>
        <time>2021-04-18T10:31:45.994Z</time>
      </trkpt>
      <trkpt lat="43.1914" lon="0.36556">
        <ele>547.367076</ele>
        <time>2021-04-18T10:31:50.994Z</time>
      </trkpt>
      <trkpt lat="43.19143" lon="0.36542">
        <ele>548.070881</ele>
        <time>2021-04-18T10:31:55.956Z</time>
      </trkpt>
      <trkpt lat="43.19145" lon="0.3653">
        <ele>548.659979</ele>
        <time>2021-04-18T10:31:59.956Z</time>
      </trkpt>
      <trkpt lat="43.19147" lon="0.36515">
        <ele>549.343285</ele>
        <time>2021-04-18T10:32:04.994Z</time>
      </trkpt>
      <trkpt lat="43.19149" lon="0.36501">
        <ele>550.031228</ele>
        <time>2021-04-18T10:32:09.960Z</time>
      </trkpt>
      <trkpt lat="43.19152" lon="0.36487">
        <ele>550.74331</ele>
        <time>2021-04-18T10:32:14.955Z</time>
      </trkpt>
      <trkpt lat="43.19155" lon="0.36473">
        <ele>551.28452</ele>
        <time>2021-04-18T10:32:19.953Z</time>
      </trkpt>
      <trkpt lat="43.19159" lon="0.36462">
        <ele>551.693647</ele>
        <time>2021-04-18T10:32:23.946Z</time>
      </trkpt>
      <trkpt lat="43.19162" lon="0.36449">
        <ele>552.116973</ele>
        <time>2021-04-18T10:32:27.954Z</time>
      </trkpt>
      <trkpt lat="43.19163" lon="0.36437">
        <ele>552.541624</ele>
        <time>2021-04-18T10:32:32.959Z</time>
      </trkpt>
      <trkpt lat="43.19166" lon="0.36423">
        <ele>553.001744</ele>
        <time>2021-04-18T10:32:38.935Z</time>
      </trkpt>
      <trkpt lat="43.19169" lon="0.36411">
        <ele>553.412834</ele>
        <time>2021-04-18T10:32:43.940Z</time>
      </trkpt>
      <trkpt lat="43.19172" lon="0.36398">
        <ele>553.862801</ele>
        <time>2021-04-18T10:32:48.946Z</time>
      </trkpt>
      <trkpt lat="43.19173" lon="0.36384">
        <ele>554.336958</ele>
        <time>2021-04-18T10:32:53.942Z</time>
      </trkpt>
      <trkpt lat="43.19177" lon="0.36372">
        <ele>554.766544</ele>
        <time>2021-04-18T10:32:57.957Z</time>
      </trkpt>
      <trkpt lat="43.19181" lon="0.36358">
        <ele>555.22959</ele>
        <time>2021-04-18T10:33:01.969Z</time>
      </trkpt>
      <trkpt lat="43.19186" lon="0.36345">
        <ele>555.707106</ele>
        <time>2021-04-18T10:33:05.993Z</time>
      </trkpt>
      <trkpt lat="43.19189" lon="0.36332">
        <ele>556.162844</ele>
        <time>2021-04-18T10:33:10.001Z</time>
      </trkpt>
      <trkpt lat="43.19191" lon="0.36319">
        <ele>556.600623</ele>
        <time>2021-04-18T10:33:13.961Z</time>
      </trkpt>
      <trkpt lat="43.19193" lon="0.36306">
        <ele>557.039436</ele>
        <time>2021-04-18T10:33:17.957Z</time>
      </trkpt>
      <trkpt lat="43.19195" lon="0.36293">
        <ele>557.477215</ele>
        <time>2021-04-18T10:33:21.955Z</time>
      </trkpt>
      <trkpt lat="43.19196" lon="0.36279">
        <ele>557.910363</ele>
        <time>2021-04-18T10:33:25.977Z</time>
      </trkpt>
      <trkpt lat="43.19196" lon="0.36266">
        <ele>558.35787</ele>
        <time>2021-04-18T10:33:29.984Z</time>
      </trkpt>
      <trkpt lat="43.19195" lon="0.36252">
        <ele>558.810966</ele>
        <time>2021-04-18T10:33:33.967Z</time>
      </trkpt>
      <trkpt lat="43.19192" lon="0.36238">
        <ele>559.105071</ele>
        <time>2021-04-18T10:33:37.964Z</time>
      </trkpt>
      <trkpt lat="43.19189" lon="0.36226">
        <ele>559.210209</ele>
        <time>2021-04-18T10:33:41.959Z</time>
      </trkpt>
      <trkpt lat="43.19186" lon="0.36212">
        <ele>559.328414</ele>
        <time>2021-04-18T10:33:45.963Z</time>
      </trkpt>
      <trkpt lat="43.19184" lon="0.36198">
        <ele>559.439911</ele>
        <time>2021-04-18T10:33:49.957Z</time>
      </trkpt>
      <trkpt lat="43.19182" lon="0.36185">
        <ele>559.544678</ele>
        <time>2021-04-18T10:33:53.993Z</time>
      </trkpt>
      <trkpt lat="43.1918" lon="0.36172">
        <ele>559.649907</ele>
        <time>2021-04-18T10:33:57.946Z</time>
      </trkpt>
      <trkpt lat="43.19178" lon="0.3616">
        <ele>559.755132</ele>
        <time>2021-04-18T10:34:01.993Z</time>
      </trkpt>
      <trkpt lat="43.19176" lon="0.36147">
        <ele>559.861472</ele>
        <time>2021-04-18T10:34:05.987Z</time>
      </trkpt>
      <trkpt lat="43.19174" lon="0.36134">
        <ele>559.967754</ele>
        <time>2021-04-18T10:34:09.964Z</time>
      </trkpt>
      <trkpt lat="43.19171" lon="0.36121">
        <ele>560.077137</ele>
        <time>2021-04-18T10:34:13.960Z</time>
      </trkpt>
      <trkpt lat="43.19169" lon="0.36107">
        <ele>560.189776</ele>
        <time>2021-04-18T10:34:17.986Z</time>
      </trkpt>
      <trkpt lat="43.19166" lon="0.36093">
        <ele>560.304193</ele>
        <time>2021-04-18T10:34:21.993Z</time>
      </trkpt>
      <trkpt lat="43.19163" lon="0.36079">
        <ele>560.425854</ele>
        <time>2021-04-18T10:34:25.956Z</time>
      </trkpt>
      <trkpt lat="43.19161" lon="0.36064">
        <ele>560.54185</ele>
        <time>2021-04-18T10:34:29.962Z</time>
      </trkpt>
      <trkpt lat="43.19158" lon="0.36052">
        <ele>560.649033</ele>
        <time>2021-04-18T10:34:33.959Z</time>
      </trkpt>
      <trkpt lat="43.19155" lon="0.36039">
        <ele>560.760962</ele>
        <time>2021-04-18T10:34:37.966Z</time>
      </trkpt>
      <trkpt lat="43.19152" lon="0.36025">
        <ele>560.87553</ele>
        <time>2021-04-18T10:34:41.997Z</time>
      </trkpt>
      <trkpt lat="43.1915" lon="0.36011">
        <ele>560.98656</ele>
        <time>2021-04-18T10:34:45.969Z</time>
      </trkpt>
      <trkpt lat="43.19147" lon="0.35997">
        <ele>561.154513</ele>
        <time>2021-04-18T10:34:49.985Z</time>
      </trkpt>
      <trkpt lat="43.19145" lon="0.35983">
        <ele>561.364526</ele>
        <time>2021-04-18T10:34:53.969Z</time>
      </trkpt>
      <trkpt lat="43.19144" lon="0.35967">
        <ele>561.582072</ele>
        <time>2021-04-18T10:34:57.961Z</time>
      </trkpt>
      <trkpt lat="43.19141" lon="0.35952">
        <ele>561.798722</ele>
        <time>2021-04-18T10:35:01.991Z</time>
      </trkpt>
      <trkpt lat="43.19138" lon="0.35937">
        <ele>562.013044</ele>
        <time>2021-04-18T10:35:05.943Z</time>
      </trkpt>
      <trkpt lat="43.19135" lon="0.35923">
        <ele>562.220582</ele>
        <time>2021-04-18T10:35:09.955Z</time>
      </trkpt>
      <trkpt lat="43.19132" lon="0.35909">
        <ele>562.425713</ele>
        <time>2021-04-18T10:35:13.963Z</time>
      </trkpt>
      <trkpt lat="43.19139" lon="0.35899">
        <ele>562.606487</ele>
        <time>2021-04-18T10:35:18.939Z</time>
      </trkpt>
      <trkpt lat="43.19147" lon="0.35906">
        <ele>562.792833</ele>
        <time>2021-04-18T10:35:21.944Z</time>
      </trkpt>
      <trkpt lat="43.19154" lon="0.35915">
        <ele>562.971444</ele>
        <time>2021-04-18T10:35:24.964Z</time>
      </trkpt>
      <trkpt lat="43.19164" lon="0.35923">
        <ele>563.191915</ele>
        <time>2021-04-18T10:35:28.974Z</time>
      </trkpt>
      <trkpt lat="43.19173" lon="0.35929">
        <ele>563.373824</ele>
        <time>2021-04-18T10:35:31.956Z</time>
      </trkpt>
      <trkpt lat="43.19182" lon="0.35937">
        <ele>563.577215</ele>
        <time>2021-04-18T10:35:34.962Z</time>
      </trkpt>
      <trkpt lat="43.1919" lon="0.35944">
        <ele>563.768077</ele>
        <time>2021-04-18T10:35:37.955Z</time>
      </trkpt>
      <trkpt lat="43.19199" lon="0.35951">
        <ele>563.962036</ele>
        <time>2021-04-18T10:35:40.956Z</time>
      </trkpt>
      <trkpt lat="43.19207" lon="0.35957">
        <ele>564.138273</ele>
        <time>2021-04-18T10:35:43.961Z</time>
      </trkpt>
      <trkpt lat="43.19215" lon="0.35963">
        <ele>564.31756</ele>
        <time>2021-04-18T10:35:46.986Z</time>
      </trkpt>
      <trkpt lat="43.19223" lon="0.3597">
        <ele>564.410555</ele>
        <time>2021-04-18T10:35:49.963Z</time>
      </trkpt>
      <trkpt lat="43.19232" lon="0.35977">
        <ele>564.153935</ele>
        <time>2021-04-18T10:35:52.946Z</time>
      </trkpt>
      <trkpt lat="43.1924" lon="0.35984">
        <ele>563.903334</ele>
        <time>2021-04-18T10:35:55.975Z</time>
      </trkpt>
      <trkpt lat="43.19248" lon="0.35991">
        <ele>563.654944</ele>
        <time>2021-04-18T10:35:58.967Z</time>
      </trkpt>
      <trkpt lat="43.19256" lon="0.35997">
        <ele>563.415354</ele>
        <time>2021-04-18T10:36:01.961Z</time>
      </trkpt>
      <trkpt lat="43.19266" lon="0.36003">
        <ele>563.143159</ele>
        <time>2021-04-18T10:36:04.989Z</time>
      </trkpt>
      <trkpt lat="43.19276" lon="0.36009">
        <ele>562.839846</ele>
        <time>2021-04-18T10:36:07.959Z</time>
      </trkpt>
      <trkpt lat="43.19286" lon="0.36016">
        <ele>562.552545</ele>
        <time>2021-04-18T10:36:10.972Z</time>
      </trkpt>
      <trkpt lat="43.19296" lon="0.36022">
        <ele>562.272048</ele>
        <time>2021-04-18T10:36:13.964Z</time>
      </trkpt>
      <trkpt lat="43.19306" lon="0.36029">
        <ele>561.976835</ele>
        <time>2021-04-18T10:36:16.957Z</time>
      </trkpt>
      <trkpt lat="43.19316" lon="0.36036">
        <ele>561.682325</ele>
        <time>2021-04-18T10:36:19.961Z</time>
      </trkpt>
      <trkpt lat="43.19325" lon="0.36043">
        <ele>561.406376</ele>
        <time>2021-04-18T10:36:22.955Z</time>
      </trkpt>
      <trkpt lat="43.19335" lon="0.3605">
        <ele>561.101434</ele>
        <time>2021-04-18T10:36:25.995Z</time>
      </trkpt>
      <trkpt lat="43.19346" lon="0.36057">
        <ele>560.786391</ele>
        <time>2021-04-18T10:36:28.975Z</time>
      </trkpt>
      <trkpt lat="43.19357" lon="0.36065">
        <ele>560.468878</ele>
        <time>2021-04-18T10:36:31.956Z</time>
      </trkpt>
      <trkpt lat="43.19368" lon="0.36072">
        <ele>560.142414</ele>
        <time>2021-04-18T10:36:34.954Z</time>
      </trkpt>
      <trkpt lat="43.1938" lon="0.36079">
        <ele>559.807129</ele>
        <time>2021-04-18T10:36:37.958Z</time>
      </trkpt>
      <trkpt lat="43.19392" lon="0.36084">
        <ele>559.501178</ele>
        <time>2021-04-18T10:36:40.962Z</time>
      </trkpt>
      <trkpt lat="43.19404" lon="0.36088">
        <ele>559.206289</ele>
        <time>2021-04-18T10:36:43.972Z</time>
      </trkpt>
      <trkpt lat="43.19416" lon="0.3609">
        <ele>558.931184</ele>
        <time>2021-04-18T10:36:46.952Z</time>
      </trkpt>
      <trkpt lat="43.19426" lon="0.36092">
        <ele>558.673588</ele>
        <time>2021-04-18T10:36:49.989Z</time>
      </trkpt>
      <trkpt lat="43.19438" lon="0.36094">
        <ele>558.402181</ele>
        <time>2021-04-18T10:36:52.951Z</time>
      </trkpt>
      <trkpt lat="43.19449" lon="0.36094">
        <ele>558.125032</ele>
        <time>2021-04-18T10:36:55.969Z</time>
      </trkpt>
      <trkpt lat="43.19459" lon="0.36094">
        <ele>557.883887</ele>
        <time>2021-04-18T10:36:58.957Z</time>
      </trkpt>
      <trkpt lat="43.19469" lon="0.36095">
        <ele>557.652135</ele>
        <time>2021-04-18T10:37:01.966Z</time>
      </trkpt>
      <trkpt lat="43.19478" lon="0.36096">
        <ele>557.42966</ele>
        <time>2021-04-18T10:37:04.996Z</time>
      </trkpt>
      <trkpt lat="43.19489" lon="0.36096">
        <ele>557.183247</ele>
        <time>2021-04-18T10:37:08.008Z</time>
      </trkpt>
      <trkpt lat="43.195" lon="0.36097">
        <ele>556.910714</ele>
        <time>2021-04-18T10:37:10.957Z</time>
      </trkpt>
      <trkpt lat="43.19512" lon="0.36098">
        <ele>556.637737</ele>
        <time>2021-04-18T10:37:13.964Z</time>
      </trkpt>
      <trkpt lat="43.19522" lon="0.36099">
        <ele>556.382249</ele>
        <time>2021-04-18T10:37:16.951Z</time>
      </trkpt>
      <trkpt lat="43.19533" lon="0.36099">
        <ele>556.122004</ele>
        <time>2021-04-18T10:37:19.990Z</time>
      </trkpt>
      <trkpt lat="43.19548" lon="0.36098">
        <ele>555.761284</ele>
        <time>2021-04-18T10:37:24.986Z</time>
      </trkpt>
      <trkpt lat="43.19558" lon="0.36098">
        <ele>555.524689</ele>
        <time>2021-04-18T10:37:27.952Z</time>
      </trkpt>
      <trkpt lat="43.19568" lon="0.361">
        <ele>555.559559</ele>
        <time>2021-04-18T10:37:30.969Z</time>
      </trkpt>
      <trkpt lat="43.19577" lon="0.36101">
        <ele>555.681372</ele>
        <time>2021-04-18T10:37:33.983Z</time>
      </trkpt>
      <trkpt lat="43.19589" lon="0.36103">
        <ele>555.838259</ele>
        <time>2021-04-18T10:37:37.954Z</time>
      </trkpt>
      <trkpt lat="43.19601" lon="0.36104">
        <ele>555.992188</ele>
        <time>2021-04-18T10:37:41.950Z</time>
      </trkpt>
      <trkpt lat="43.19613" lon="0.36105">
        <ele>556.149961</ele>
        <time>2021-04-18T10:37:45.961Z</time>
      </trkpt>
      <trkpt lat="43.19623" lon="0.36106">
        <ele>556.270199</ele>
        <time>2021-04-18T10:37:48.964Z</time>
      </trkpt>
      <trkpt lat="43.19632" lon="0.36108">
        <ele>556.396228</ele>
        <time>2021-04-18T10:37:51.959Z</time>
      </trkpt>
      <trkpt lat="43.19642" lon="0.36109">
        <ele>556.525475</ele>
        <time>2021-04-18T10:37:54.945Z</time>
      </trkpt>
      <trkpt lat="43.19652" lon="0.3611">
        <ele>556.649877</ele>
        <time>2021-04-18T10:37:57.993Z</time>
      </trkpt>
      <trkpt lat="43.19661" lon="0.36112">
        <ele>556.771467</ele>
        <time>2021-04-18T10:38:00.953Z</time>
      </trkpt>
      <trkpt lat="43.19671" lon="0.36115">
        <ele>556.906374</ele>
        <time>2021-04-18T10:38:03.952Z</time>
      </trkpt>
      <trkpt lat="43.19681" lon="0.36117">
        <ele>557.038892</ele>
        <time>2021-04-18T10:38:06.959Z</time>
      </trkpt>
      <trkpt lat="43.19692" lon="0.36121">
        <ele>557.184433</ele>
        <time>2021-04-18T10:38:10.996Z</time>
      </trkpt>
      <trkpt lat="43.19702" lon="0.36124">
        <ele>557.315378</ele>
        <time>2021-04-18T10:38:13.964Z</time>
      </trkpt>
      <trkpt lat="43.19712" lon="0.36126">
        <ele>557.454469</ele>
        <time>2021-04-18T10:38:16.954Z</time>
      </trkpt>
      <trkpt lat="43.19721" lon="0.3613">
        <ele>557.571994</ele>
        <time>2021-04-18T10:38:19.983Z</time>
      </trkpt>
      <trkpt lat="43.1973" lon="0.36132">
        <ele>557.690089</ele>
        <time>2021-04-18T10:38:23.001Z</time>
      </trkpt>
      <trkpt lat="43.19739" lon="0.36135">
        <ele>557.798823</ele>
        <time>2021-04-18T10:38:25.999Z</time>
      </trkpt>
      <trkpt lat="43.19748" lon="0.36137">
        <ele>557.684305</ele>
        <time>2021-04-18T10:38:28.958Z</time>
      </trkpt>
      <trkpt lat="43.19757" lon="0.36139">
        <ele>557.574867</ele>
        <time>2021-04-18T10:38:31.976Z</time>
      </trkpt>
      <trkpt lat="43.19766" lon="0.36142">
        <ele>557.464407</ele>
        <time>2021-04-18T10:38:34.950Z</time>
      </trkpt>
      <trkpt lat="43.19775" lon="0.36143">
        <ele>557.349825</ele>
        <time>2021-04-18T10:38:37.994Z</time>
      </trkpt>
      <trkpt lat="43.19785" lon="0.36145">
        <ele>557.236627</ele>
        <time>2021-04-18T10:38:40.966Z</time>
      </trkpt>
      <trkpt lat="43.19794" lon="0.36146">
        <ele>557.120742</ele>
        <time>2021-04-18T10:38:43.966Z</time>
      </trkpt>
      <trkpt lat="43.19805" lon="0.36148">
        <ele>556.990307</ele>
        <time>2021-04-18T10:38:46.957Z</time>
      </trkpt>
      <trkpt lat="43.19817" lon="0.36149">
        <ele>556.845569</ele>
        <time>2021-04-18T10:38:49.957Z</time>
      </trkpt>
      <trkpt lat="43.19829" lon="0.3615">
        <ele>556.690092</ele>
        <time>2021-04-18T10:38:52.969Z</time>
      </trkpt>
      <trkpt lat="43.19841" lon="0.36152">
        <ele>556.544805</ele>
        <time>2021-04-18T10:38:55.960Z</time>
      </trkpt>
      <trkpt lat="43.19853" lon="0.36155">
        <ele>556.402222</ele>
        <time>2021-04-18T10:38:58.951Z</time>
      </trkpt>
      <trkpt lat="43.19864" lon="0.36157">
        <ele>556.261631</ele>
        <time>2021-04-18T10:39:01.954Z</time>
      </trkpt>
      <trkpt lat="43.19877" lon="0.36159">
        <ele>556.112515</ele>
        <time>2021-04-18T10:39:04.977Z</time>
      </trkpt>
      <trkpt lat="43.19889" lon="0.36161">
        <ele>555.966025</ele>
        <time>2021-04-18T10:39:07.965Z</time>
      </trkpt>
      <trkpt lat="43.19901" lon="0.36163">
        <ele>555.814175</ele>
        <time>2021-04-18T10:39:10.995Z</time>
      </trkpt>
      <trkpt lat="43.19914" lon="0.36164">
        <ele>555.658417</ele>
        <time>2021-04-18T10:39:13.959Z</time>
      </trkpt>
      <trkpt lat="43.19927" lon="0.36167">
        <ele>555.627942</ele>
        <time>2021-04-18T10:39:16.974Z</time>
      </trkpt>
      <trkpt lat="43.19936" lon="0.36168">
        <ele>555.630731</ele>
        <time>2021-04-18T10:39:18.986Z</time>
      </trkpt>
      <trkpt lat="43.19949" lon="0.36171">
        <ele>555.634649</ele>
        <time>2021-04-18T10:39:21.987Z</time>
      </trkpt>
      <trkpt lat="43.1996" lon="0.36174">
        <ele>555.638265</ele>
        <time>2021-04-18T10:39:24.963Z</time>
      </trkpt>
      <trkpt lat="43.19971" lon="0.36179">
        <ele>555.641766</ele>
        <time>2021-04-18T10:39:27.961Z</time>
      </trkpt>
      <trkpt lat="43.19983" lon="0.36183">
        <ele>555.645522</ele>
        <time>2021-04-18T10:39:30.959Z</time>
      </trkpt>
      <trkpt lat="43.19995" lon="0.36188">
        <ele>555.649445</ele>
        <time>2021-04-18T10:39:33.959Z</time>
      </trkpt>
      <trkpt lat="43.20006" lon="0.36194">
        <ele>555.653125</ele>
        <time>2021-04-18T10:39:36.946Z</time>
      </trkpt>
      <trkpt lat="43.20018" lon="0.36199">
        <ele>555.656888</ele>
        <time>2021-04-18T10:39:39.952Z</time>
      </trkpt>
      <trkpt lat="43.20029" lon="0.36204">
        <ele>555.660598</ele>
        <time>2021-04-18T10:39:42.954Z</time>
      </trkpt>
      <trkpt lat="43.2004" lon="0.36211">
        <ele>555.664353</ele>
        <time>2021-04-18T10:39:45.967Z</time>
      </trkpt>
      <trkpt lat="43.20052" lon="0.36218">
        <ele>555.668194</ele>
        <time>2021-04-18T10:39:48.964Z</time>
      </trkpt>
      <trkpt lat="43.20064" lon="0.36224">
        <ele>555.672059</ele>
        <time>2021-04-18T10:39:51.982Z</time>
      </trkpt>
      <trkpt lat="43.20075" lon="0.3623">
        <ele>555.675842</ele>
        <time>2021-04-18T10:39:54.957Z</time>
      </trkpt>
      <trkpt lat="43.20086" lon="0.36236">
        <ele>555.679598</ele>
        <time>2021-04-18T10:39:57.962Z</time>
      </trkpt>
      <trkpt lat="43.20097" lon="0.36243">
        <ele>555.512475</ele>
        <time>2021-04-18T10:40:00.955Z</time>
      </trkpt>
      <trkpt lat="43.20109" lon="0.3625">
        <ele>555.304428</ele>
        <time>2021-04-18T10:40:03.966Z</time>
      </trkpt>
      <trkpt lat="43.20121" lon="0.36257">
        <ele>555.086393</ele>
        <time>2021-04-18T10:40:06.992Z</time>
      </trkpt>
      <trkpt lat="43.20133" lon="0.36265">
        <ele>554.87289</ele>
        <time>2021-04-18T10:40:09.996Z</time>
      </trkpt>
      <trkpt lat="43.20145" lon="0.36272">
        <ele>554.65104</ele>
        <time>2021-04-18T10:40:12.955Z</time>
      </trkpt>
      <trkpt lat="43.20154" lon="0.36276">
        <ele>554.499502</ele>
        <time>2021-04-18T10:40:14.964Z</time>
      </trkpt>
      <trkpt lat="43.20163" lon="0.36281">
        <ele>554.344192</ele>
        <time>2021-04-18T10:40:16.959Z</time>
      </trkpt>
      <trkpt lat="43.20172" lon="0.36284">
        <ele>554.188667</ele>
        <time>2021-04-18T10:40:18.960Z</time>
      </trkpt>
      <trkpt lat="43.20181" lon="0.36286">
        <ele>554.032851</ele>
        <time>2021-04-18T10:40:20.965Z</time>
      </trkpt>
      <trkpt lat="43.2019" lon="0.36289">
        <ele>553.885069</ele>
        <time>2021-04-18T10:40:22.956Z</time>
      </trkpt>
      <trkpt lat="43.20202" lon="0.36293">
        <ele>553.68768</ele>
        <time>2021-04-18T10:40:25.962Z</time>
      </trkpt>
      <trkpt lat="43.20212" lon="0.36296">
        <ele>553.508407</ele>
        <time>2021-04-18T10:40:28.974Z</time>
      </trkpt>
      <trkpt lat="43.20224" lon="0.363">
        <ele>553.313158</ele>
        <time>2021-04-18T10:40:31.965Z</time>
      </trkpt>
      <trkpt lat="43.20236" lon="0.36302">
        <ele>553.115696</ele>
        <time>2021-04-18T10:40:34.964Z</time>
      </trkpt>
      <trkpt lat="43.20247" lon="0.36306">
        <ele>552.925247</ele>
        <time>2021-04-18T10:40:37.961Z</time>
      </trkpt>
      <trkpt lat="43.2026" lon="0.36309">
        <ele>552.710946</ele>
        <time>2021-04-18T10:40:41.004Z</time>
      </trkpt>
      <trkpt lat="43.20273" lon="0.36311">
        <ele>552.392093</ele>
        <time>2021-04-18T10:40:43.968Z</time>
      </trkpt>
      <trkpt lat="43.20282" lon="0.36312">
        <ele>552.173896</ele>
        <time>2021-04-18T10:40:45.957Z</time>
      </trkpt>
      <trkpt lat="43.20292" lon="0.36312">
        <ele>551.946407</ele>
        <time>2021-04-18T10:40:47.959Z</time>
      </trkpt>
      <trkpt lat="43.20302" lon="0.36312">
        <ele>551.70231</ele>
        <time>2021-04-18T10:40:49.960Z</time>
      </trkpt>
      <trkpt lat="43.20313" lon="0.36311">
        <ele>551.433947</ele>
        <time>2021-04-18T10:40:51.967Z</time>
      </trkpt>
      <trkpt lat="43.20323" lon="0.36311">
        <ele>551.194654</ele>
        <time>2021-04-18T10:40:53.965Z</time>
      </trkpt>
      <trkpt lat="43.20333" lon="0.36312">
        <ele>550.957601</ele>
        <time>2021-04-18T10:40:55.965Z</time>
      </trkpt>
      <trkpt lat="43.20343" lon="0.36312">
        <ele>550.713429</ele>
        <time>2021-04-18T10:40:57.963Z</time>
      </trkpt>
      <trkpt lat="43.20352" lon="0.36313">
        <ele>550.49034</ele>
        <time>2021-04-18T10:40:59.964Z</time>
      </trkpt>
      <trkpt lat="43.20362" lon="0.36313">
        <ele>550.248636</ele>
        <time>2021-04-18T10:41:01.950Z</time>
      </trkpt>
      <trkpt lat="43.20374" lon="0.36313">
        <ele>549.973369</ele>
        <time>2021-04-18T10:41:03.953Z</time>
      </trkpt>
      <trkpt lat="43.20386" lon="0.36313">
        <ele>549.693383</ele>
        <time>2021-04-18T10:41:05.997Z</time>
      </trkpt>
      <trkpt lat="43.20397" lon="0.36313">
        <ele>549.425377</ele>
        <time>2021-04-18T10:41:07.960Z</time>
      </trkpt>
      <trkpt lat="43.20408" lon="0.36313">
        <ele>549.164555</ele>
        <time>2021-04-18T10:41:09.967Z</time>
      </trkpt>
      <trkpt lat="43.20418" lon="0.36313">
        <ele>548.913087</ele>
        <time>2021-04-18T10:41:11.957Z</time>
      </trkpt>
      <trkpt lat="43.20428" lon="0.36314">
        <ele>548.675879</ele>
        <time>2021-04-18T10:41:14.020Z</time>
      </trkpt>
      <trkpt lat="43.20438" lon="0.36315">
        <ele>548.431502</ele>
        <time>2021-04-18T10:41:15.927Z</time>
      </trkpt>
      <trkpt lat="43.20449" lon="0.36316">
        <ele>548.456539</ele>
        <time>2021-04-18T10:41:17.953Z</time>
      </trkpt>
      <trkpt lat="43.2046" lon="0.36317">
        <ele>548.492086</ele>
        <time>2021-04-18T10:41:19.933Z</time>
      </trkpt>
      <trkpt lat="43.2047" lon="0.36318">
        <ele>548.524981</ele>
        <time>2021-04-18T10:41:21.953Z</time>
      </trkpt>
      <trkpt lat="43.20482" lon="0.36321">
        <ele>548.567281</ele>
        <time>2021-04-18T10:41:24.924Z</time>
      </trkpt>
      <trkpt lat="43.20493" lon="0.36324">
        <ele>548.604694</ele>
        <time>2021-04-18T10:41:27.951Z</time>
      </trkpt>
      <trkpt lat="43.20504" lon="0.36328">
        <ele>548.639008</ele>
        <time>2021-04-18T10:41:30.933Z</time>
      </trkpt>
      <trkpt lat="43.20513" lon="0.36329">
        <ele>548.67013</ele>
        <time>2021-04-18T10:41:33.925Z</time>
      </trkpt>
      <trkpt lat="43.20592" lon="0.36359">
        <ele>548.938242</ele>
        <time>2021-04-18T10:43:38.865Z</time>
      </trkpt>
      <trkpt lat="43.20602" lon="0.36363">
        <ele>548.974708</ele>
        <time>2021-04-18T10:43:40.923Z</time>
      </trkpt>
      <trkpt lat="43.20612" lon="0.36367">
        <ele>549.007309</ele>
        <time>2021-04-18T10:43:42.874Z</time>
      </trkpt>
      <trkpt lat="43.20622" lon="0.36372">
        <ele>549.23322</ele>
        <time>2021-04-18T10:43:44.905Z</time>
      </trkpt>
      <trkpt lat="43.20633" lon="0.36378">
        <ele>549.55496</ele>
        <time>2021-04-18T10:43:46.866Z</time>
      </trkpt>
      <trkpt lat="43.20646" lon="0.36386">
        <ele>549.919515</ele>
        <time>2021-04-18T10:43:48.871Z</time>
      </trkpt>
      <trkpt lat="43.2066" lon="0.36394">
        <ele>550.320151</ele>
        <time>2021-04-18T10:43:50.872Z</time>
      </trkpt>
      <trkpt lat="43.20675" lon="0.36402">
        <ele>550.724176</ele>
        <time>2021-04-18T10:43:52.874Z</time>
      </trkpt>
      <trkpt lat="43.20689" lon="0.36411">
        <ele>551.125084</ele>
        <time>2021-04-18T10:43:54.881Z</time>
      </trkpt>
      <trkpt lat="43.20702" lon="0.36417">
        <ele>551.49467</ele>
        <time>2021-04-18T10:43:56.865Z</time>
      </trkpt>
      <trkpt lat="43.20716" lon="0.36421">
        <ele>551.848335</ele>
        <time>2021-04-18T10:43:58.882Z</time>
      </trkpt>
      <trkpt lat="43.20729" lon="0.36424">
        <ele>552.201095</ele>
        <time>2021-04-18T10:44:00.880Z</time>
      </trkpt>
      <trkpt lat="43.20743" lon="0.36425">
        <ele>552.554659</ele>
        <time>2021-04-18T10:44:02.884Z</time>
      </trkpt>
      <trkpt lat="43.20756" lon="0.36426">
        <ele>552.902088</ele>
        <time>2021-04-18T10:44:04.869Z</time>
      </trkpt>
      <trkpt lat="43.2077" lon="0.36426">
        <ele>553.246871</ele>
        <time>2021-04-18T10:44:06.873Z</time>
      </trkpt>
      <trkpt lat="43.20783" lon="0.36427">
        <ele>553.597119</ele>
        <time>2021-04-18T10:44:08.864Z</time>
      </trkpt>
      <trkpt lat="43.20797" lon="0.36428">
        <ele>553.368662</ele>
        <time>2021-04-18T10:44:10.866Z</time>
      </trkpt>
      <trkpt lat="43.20811" lon="0.3643">
        <ele>552.98003</ele>
        <time>2021-04-18T10:44:12.874Z</time>
      </trkpt>
      <trkpt lat="43.20825" lon="0.36432">
        <ele>552.604088</ele>
        <time>2021-04-18T10:44:14.884Z</time>
      </trkpt>
      <trkpt lat="43.20838" lon="0.36434">
        <ele>552.241608</ele>
        <time>2021-04-18T10:44:16.865Z</time>
      </trkpt>
      <trkpt lat="43.20852" lon="0.36435">
        <ele>551.866394</ele>
        <time>2021-04-18T10:44:18.870Z</time>
      </trkpt>
      <trkpt lat="43.20865" lon="0.36436">
        <ele>551.483879</ele>
        <time>2021-04-18T10:44:20.860Z</time>
      </trkpt>
      <trkpt lat="43.2088" lon="0.36436">
        <ele>551.090601</ele>
        <time>2021-04-18T10:44:22.868Z</time>
      </trkpt>
      <trkpt lat="43.20895" lon="0.36436">
        <ele>550.68347</ele>
        <time>2021-04-18T10:44:24.862Z</time>
      </trkpt>
      <trkpt lat="43.20909" lon="0.36435">
        <ele>550.279192</ele>
        <time>2021-04-18T10:44:26.869Z</time>
      </trkpt>
      <trkpt lat="43.20924" lon="0.36435">
        <ele>549.861184</ele>
        <time>2021-04-18T10:44:28.864Z</time>
      </trkpt>
      <trkpt lat="43.2094" lon="0.36435">
        <ele>549.426657</ele>
        <time>2021-04-18T10:44:30.880Z</time>
      </trkpt>
      <trkpt lat="43.20956" lon="0.36435">
        <ele>549.003106</ele>
        <time>2021-04-18T10:44:32.880Z</time>
      </trkpt>
      <trkpt lat="43.20971" lon="0.36434">
        <ele>548.72167</ele>
        <time>2021-04-18T10:44:34.867Z</time>
      </trkpt>
      <trkpt lat="43.20986" lon="0.36434">
        <ele>548.703339</ele>
        <time>2021-04-18T10:44:36.875Z</time>
      </trkpt>
      <trkpt lat="43.21" lon="0.36433">
        <ele>548.685</ele>
        <time>2021-04-18T10:44:38.859Z</time>
      </trkpt>
      <trkpt lat="43.21015" lon="0.36432">
        <ele>548.666775</ele>
        <time>2021-04-18T10:44:40.867Z</time>
      </trkpt>
      <trkpt lat="43.21029" lon="0.36431">
        <ele>548.648264</ele>
        <time>2021-04-18T10:44:42.906Z</time>
      </trkpt>
      <trkpt lat="43.21044" lon="0.36429">
        <ele>548.629878</ele>
        <time>2021-04-18T10:44:44.907Z</time>
      </trkpt>
      <trkpt lat="43.21057" lon="0.36428">
        <ele>548.613549</ele>
        <time>2021-04-18T10:44:46.906Z</time>
      </trkpt>
      <trkpt lat="43.21069" lon="0.36428">
        <ele>548.598107</ele>
        <time>2021-04-18T10:44:48.875Z</time>
      </trkpt>
      <trkpt lat="43.21081" lon="0.36428">
        <ele>548.583921</ele>
        <time>2021-04-18T10:44:50.877Z</time>
      </trkpt>
      <trkpt lat="43.21093" lon="0.36428">
        <ele>548.56823</ele>
        <time>2021-04-18T10:44:52.880Z</time>
      </trkpt>
      <trkpt lat="43.21107" lon="0.36427">
        <ele>548.550746</ele>
        <time>2021-04-18T10:44:54.876Z</time>
      </trkpt>
      <trkpt lat="43.2112" lon="0.36426">
        <ele>548.534035</ele>
        <time>2021-04-18T10:44:56.907Z</time>
      </trkpt>
      <trkpt lat="43.21133" lon="0.36426">
        <ele>548.517586</ele>
        <time>2021-04-18T10:44:58.907Z</time>
      </trkpt>
      <trkpt lat="43.21147" lon="0.36424">
        <ele>548.514543</ele>
        <time>2021-04-18T10:45:00.913Z</time>
      </trkpt>
      <trkpt lat="43.21161" lon="0.36423">
        <ele>548.607459</ele>
        <time>2021-04-18T10:45:02.862Z</time>
      </trkpt>
      <trkpt lat="43.21175" lon="0.36421">
        <ele>548.704182</ele>
        <time>2021-04-18T10:45:04.882Z</time>
      </trkpt>
      <trkpt lat="43.21188" lon="0.3642">
        <ele>548.792482</ele>
        <time>2021-04-18T10:45:06.864Z</time>
      </trkpt>
      <trkpt lat="43.21201" lon="0.36416">
        <ele>548.876679</ele>
        <time>2021-04-18T10:45:08.876Z</time>
      </trkpt>
      <trkpt lat="43.21214" lon="0.36414">
        <ele>548.970782</ele>
        <time>2021-04-18T10:45:10.897Z</time>
      </trkpt>
      <trkpt lat="43.2123" lon="0.36412">
        <ele>549.072808</ele>
        <time>2021-04-18T10:45:12.914Z</time>
      </trkpt>
      <trkpt lat="43.21246" lon="0.3641">
        <ele>549.181111</ele>
        <time>2021-04-18T10:45:14.899Z</time>
      </trkpt>
      <trkpt lat="43.21261" lon="0.36407">
        <ele>549.287859</ele>
        <time>2021-04-18T10:45:16.864Z</time>
      </trkpt>
      <trkpt lat="43.21276" lon="0.36403">
        <ele>549.386876</ele>
        <time>2021-04-18T10:45:18.873Z</time>
      </trkpt>
      <trkpt lat="43.21289" lon="0.364">
        <ele>549.478701</ele>
        <time>2021-04-18T10:45:20.887Z</time>
      </trkpt>
      <trkpt lat="43.21302" lon="0.36398">
        <ele>549.565459</ele>
        <time>2021-04-18T10:45:22.877Z</time>
      </trkpt>
      <trkpt lat="43.21315" lon="0.36396">
        <ele>549.652158</ele>
        <time>2021-04-18T10:45:24.877Z</time>
      </trkpt>
      <trkpt lat="43.21327" lon="0.36393">
        <ele>549.5129</ele>
        <time>2021-04-18T10:45:26.875Z</time>
      </trkpt>
      <trkpt lat="43.2134" lon="0.3639">
        <ele>548.846354</ele>
        <time>2021-04-18T10:45:28.913Z</time>
      </trkpt>
      <trkpt lat="43.21353" lon="0.36387">
        <ele>548.174676</ele>
        <time>2021-04-18T10:45:30.872Z</time>
      </trkpt>
      <trkpt lat="43.21365" lon="0.36384">
        <ele>547.528297</ele>
        <time>2021-04-18T10:45:32.878Z</time>
      </trkpt>
      <trkpt lat="43.21376" lon="0.36381">
        <ele>546.922532</ele>
        <time>2021-04-18T10:45:34.862Z</time>
      </trkpt>
      <trkpt lat="43.21387" lon="0.36379">
        <ele>546.363379</ele>
        <time>2021-04-18T10:45:36.874Z</time>
      </trkpt>
      <trkpt lat="43.21397" lon="0.36377">
        <ele>545.80596</ele>
        <time>2021-04-18T10:45:38.875Z</time>
      </trkpt>
      <trkpt lat="43.21407" lon="0.36374">
        <ele>545.283868</ele>
        <time>2021-04-18T10:45:40.901Z</time>
      </trkpt>
      <trkpt lat="43.21417" lon="0.36371">
        <ele>544.744061</ele>
        <time>2021-04-18T10:45:42.878Z</time>
      </trkpt>
      <trkpt lat="43.21427" lon="0.36366">
        <ele>544.208166</ele>
        <time>2021-04-18T10:45:44.870Z</time>
      </trkpt>
      <trkpt lat="43.21436" lon="0.36363">
        <ele>543.694505</ele>
        <time>2021-04-18T10:45:46.885Z</time>
      </trkpt>
      <trkpt lat="43.21446" lon="0.3636">
        <ele>543.184772</ele>
        <time>2021-04-18T10:45:48.890Z</time>
      </trkpt>
      <trkpt lat="43.21455" lon="0.36358">
        <ele>542.713649</ele>
        <time>2021-04-18T10:45:50.905Z</time>
      </trkpt>
      <trkpt lat="43.21468" lon="0.36354">
        <ele>542.027826</ele>
        <time>2021-04-18T10:45:53.885Z</time>
      </trkpt>
      <trkpt lat="43.21476" lon="0.36352">
        <ele>541.551062</ele>
        <time>2021-04-18T10:45:55.913Z</time>
      </trkpt>
      <trkpt lat="43.21486" lon="0.3635">
        <ele>541.068394</ele>
        <time>2021-04-18T10:45:57.868Z</time>
      </trkpt>
      <trkpt lat="43.21496" lon="0.36346">
        <ele>540.526652</ele>
        <time>2021-04-18T10:45:59.888Z</time>
      </trkpt>
      <trkpt lat="43.21506" lon="0.36342">
        <ele>540.192902</ele>
        <time>2021-04-18T10:46:01.894Z</time>
      </trkpt>
      <trkpt lat="43.21516" lon="0.36339">
        <ele>540.013402</ele>
        <time>2021-04-18T10:46:03.878Z</time>
      </trkpt>
      <trkpt lat="43.21525" lon="0.36337">
        <ele>539.838396</ele>
        <time>2021-04-18T10:46:05.870Z</time>
      </trkpt>
      <trkpt lat="43.21535" lon="0.36334">
        <ele>539.670356</ele>
        <time>2021-04-18T10:46:07.872Z</time>
      </trkpt>
      <trkpt lat="43.21548" lon="0.36332">
        <ele>539.433315</ele>
        <time>2021-04-18T10:46:10.897Z</time>
      </trkpt>
      <trkpt lat="43.21557" lon="0.3633">
        <ele>539.2734</ele>
        <time>2021-04-18T10:46:12.870Z</time>
      </trkpt>
      <trkpt lat="43.21566" lon="0.36329">
        <ele>539.102685</ele>
        <time>2021-04-18T10:46:14.907Z</time>
      </trkpt>
      <trkpt lat="43.21576" lon="0.3633">
        <ele>538.925432</ele>
        <time>2021-04-18T10:46:17.879Z</time>
      </trkpt>
      <trkpt lat="43.21576" lon="0.36292">
        <ele>538.423986</ele>
        <time>2021-04-18T10:47:02.876Z</time>
      </trkpt>
      <trkpt lat="43.21575" lon="0.36276">
        <ele>538.216133</ele>
        <time>2021-04-18T10:47:06.882Z</time>
      </trkpt>
      <trkpt lat="43.21575" lon="0.36261">
        <ele>538.022092</ele>
        <time>2021-04-18T10:47:09.865Z</time>
      </trkpt>
      <trkpt lat="43.21577" lon="0.36244">
        <ele>537.798972</ele>
        <time>2021-04-18T10:47:12.869Z</time>
      </trkpt>
      <trkpt lat="43.21581" lon="0.36227">
        <ele>537.572877</ele>
        <time>2021-04-18T10:47:15.895Z</time>
      </trkpt>
      <trkpt lat="43.21587" lon="0.36214">
        <ele>537.369148</ele>
        <time>2021-04-18T10:47:18.855Z</time>
      </trkpt>
      <trkpt lat="43.21595" lon="0.36202">
        <ele>537.161544</ele>
        <time>2021-04-18T10:47:21.868Z</time>
      </trkpt>
      <trkpt lat="43.21601" lon="0.36191">
        <ele>537.302361</ele>
        <time>2021-04-18T10:47:24.872Z</time>
      </trkpt>
      <trkpt lat="43.21607" lon="0.36179">
        <ele>537.563805</ele>
        <time>2021-04-18T10:47:28.861Z</time>
      </trkpt>
      <trkpt lat="43.21613" lon="0.36166">
        <ele>537.842473</ele>
        <time>2021-04-18T10:47:32.881Z</time>
      </trkpt>
      <trkpt lat="43.21618" lon="0.36154">
        <ele>538.081235</ele>
        <time>2021-04-18T10:47:35.883Z</time>
      </trkpt>
      <trkpt lat="43.21624" lon="0.36139">
        <ele>538.398625</ele>
        <time>2021-04-18T10:47:38.880Z</time>
      </trkpt>
      <trkpt lat="43.21631" lon="0.36125">
        <ele>538.708712</ele>
        <time>2021-04-18T10:47:41.912Z</time>
      </trkpt>
      <trkpt lat="43.21639" lon="0.3611">
        <ele>539.03859</ele>
        <time>2021-04-18T10:47:44.897Z</time>
      </trkpt>
      <trkpt lat="43.21645" lon="0.36097">
        <ele>539.309083</ele>
        <time>2021-04-18T10:47:46.916Z</time>
      </trkpt>
      <trkpt lat="43.2165" lon="0.36081">
        <ele>539.633986</ele>
        <time>2021-04-18T10:47:48.880Z</time>
      </trkpt>
      <trkpt lat="43.21657" lon="0.36062">
        <ele>540.005663</ele>
        <time>2021-04-18T10:47:50.876Z</time>
      </trkpt>
      <trkpt lat="43.21662" lon="0.3604">
        <ele>540.435003</ele>
        <time>2021-04-18T10:47:52.874Z</time>
      </trkpt>
      <trkpt lat="43.21666" lon="0.36027">
        <ele>540.68106</ele>
        <time>2021-04-18T10:47:53.872Z</time>
      </trkpt>
      <trkpt lat="43.21669" lon="0.36015">
        <ele>540.914545</ele>
        <time>2021-04-18T10:47:54.872Z</time>
      </trkpt>
      <trkpt lat="43.21673" lon="0.36001">
        <ele>541.176075</ele>
        <time>2021-04-18T10:47:55.876Z</time>
      </trkpt>
      <trkpt lat="43.21677" lon="0.35979">
        <ele>541.558799</ele>
        <time>2021-04-18T10:47:57.879Z</time>
      </trkpt>
      <trkpt lat="43.2168" lon="0.35955">
        <ele>541.183439</ele>
        <time>2021-04-18T10:47:59.880Z</time>
      </trkpt>
      <trkpt lat="43.21682" lon="0.35942">
        <ele>540.978404</ele>
        <time>2021-04-18T10:48:00.882Z</time>
      </trkpt>
      <trkpt lat="43.21684" lon="0.35929">
        <ele>540.767541</ele>
        <time>2021-04-18T10:48:01.867Z</time>
      </trkpt>
      <trkpt lat="43.21685" lon="0.35916">
        <ele>540.56666</ele>
        <time>2021-04-18T10:48:02.924Z</time>
      </trkpt>
      <trkpt lat="43.21687" lon="0.35901">
        <ele>540.321578</ele>
        <time>2021-04-18T10:48:03.906Z</time>
      </trkpt>
      <trkpt lat="43.21688" lon="0.35886">
        <ele>540.084497</ele>
        <time>2021-04-18T10:48:04.899Z</time>
      </trkpt>
      <trkpt lat="43.2169" lon="0.35872">
        <ele>539.865746</ele>
        <time>2021-04-18T10:48:05.902Z</time>
      </trkpt>
      <trkpt lat="43.21691" lon="0.35856">
        <ele>539.618061</ele>
        <time>2021-04-18T10:48:06.877Z</time>
      </trkpt>
      <trkpt lat="43.21693" lon="0.3584">
        <ele>539.366565</ele>
        <time>2021-04-18T10:48:07.903Z</time>
      </trkpt>
      <trkpt lat="43.21695" lon="0.35824">
        <ele>539.121035</ele>
        <time>2021-04-18T10:48:08.866Z</time>
      </trkpt>
      <trkpt lat="43.21697" lon="0.35809">
        <ele>538.882842</ele>
        <time>2021-04-18T10:48:09.870Z</time>
      </trkpt>
      <trkpt lat="43.217" lon="0.35795">
        <ele>538.655935</ele>
        <time>2021-04-18T10:48:10.865Z</time>
      </trkpt>
      <trkpt lat="43.21703" lon="0.35771">
        <ele>538.27323</ele>
        <time>2021-04-18T10:48:12.874Z</time>
      </trkpt>
      <trkpt lat="43.21704" lon="0.35747">
        <ele>537.910254</ele>
        <time>2021-04-18T10:48:14.868Z</time>
      </trkpt>
      <trkpt lat="43.21706" lon="0.35723">
        <ele>536.506709</ele>
        <time>2021-04-18T10:48:16.896Z</time>
      </trkpt>
      <trkpt lat="43.21708" lon="0.35699">
        <ele>534.348958</ele>
        <time>2021-04-18T10:48:18.864Z</time>
      </trkpt>
      <trkpt lat="43.21713" lon="0.35677">
        <ele>532.306799</ele>
        <time>2021-04-18T10:48:20.864Z</time>
      </trkpt>
      <trkpt lat="43.21719" lon="0.35659">
        <ele>530.49034</ele>
        <time>2021-04-18T10:48:22.872Z</time>
      </trkpt>
      <trkpt lat="43.21724" lon="0.35645">
        <ele>529.15282</ele>
        <time>2021-04-18T10:48:24.879Z</time>
      </trkpt>
      <trkpt lat="43.21729" lon="0.35633">
        <ele>527.837584</ele>
        <time>2021-04-18T10:48:26.854Z</time>
      </trkpt>
      <trkpt lat="43.21735" lon="0.3562">
        <ele>526.430449</ele>
        <time>2021-04-18T10:48:28.881Z</time>
      </trkpt>
      <trkpt lat="43.21742" lon="0.3561">
        <ele>525.227828</ele>
        <time>2021-04-18T10:48:30.873Z</time>
      </trkpt>
      <trkpt lat="43.21749" lon="0.35601">
        <ele>524.01836</ele>
        <time>2021-04-18T10:48:32.868Z</time>
      </trkpt>
      <trkpt lat="43.21756" lon="0.35591">
        <ele>522.807508</ele>
        <time>2021-04-18T10:48:34.875Z</time>
      </trkpt>
      <trkpt lat="43.21767" lon="0.35581">
        <ele>521.186906</ele>
        <time>2021-04-18T10:48:37.885Z</time>
      </trkpt>
      <trkpt lat="43.21775" lon="0.35571">
        <ele>519.901432</ele>
        <time>2021-04-18T10:48:39.878Z</time>
      </trkpt>
      <trkpt lat="43.21782" lon="0.35558">
        <ele>518.429005</ele>
        <time>2021-04-18T10:48:42.905Z</time>
      </trkpt>
      <trkpt lat="43.21789" lon="0.35545">
        <ele>516.949308</ele>
        <time>2021-04-18T10:48:45.913Z</time>
      </trkpt>
      <trkpt lat="43.21797" lon="0.35533">
        <ele>515.490353</ele>
        <time>2021-04-18T10:48:47.878Z</time>
      </trkpt>
      <trkpt lat="43.21805" lon="0.3552">
        <ele>513.576048</ele>
        <time>2021-04-18T10:48:49.861Z</time>
      </trkpt>
      <trkpt lat="43.21815" lon="0.35508">
        <ele>511.468897</ele>
        <time>2021-04-18T10:48:51.869Z</time>
      </trkpt>
      <trkpt lat="43.21826" lon="0.35494">
        <ele>509.247795</ele>
        <time>2021-04-18T10:48:53.896Z</time>
      </trkpt>
      <trkpt lat="43.21835" lon="0.35476">
        <ele>506.868549</ele>
        <time>2021-04-18T10:48:55.909Z</time>
      </trkpt>
      <trkpt lat="43.21838" lon="0.35455">
        <ele>504.423278</ele>
        <time>2021-04-18T10:48:57.873Z</time>
      </trkpt>
      <trkpt lat="43.21838" lon="0.35441">
        <ele>502.928584</ele>
        <time>2021-04-18T10:48:58.858Z</time>
      </trkpt>
      <trkpt lat="43.21831" lon="0.35418">
        <ele>500.103862</ele>
        <time>2021-04-18T10:49:00.900Z</time>
      </trkpt>
      <trkpt lat="43.21826" lon="0.35407">
        <ele>498.620416</ele>
        <time>2021-04-18T10:49:01.859Z</time>
      </trkpt>
      <trkpt lat="43.21815" lon="0.35391">
        <ele>496.136282</ele>
        <time>2021-04-18T10:49:03.859Z</time>
      </trkpt>
      <trkpt lat="43.21806" lon="0.35377">
        <ele>494.091818</ele>
        <time>2021-04-18T10:49:05.862Z</time>
      </trkpt>
      <trkpt lat="43.21797" lon="0.35365">
        <ele>492.175062</ele>
        <time>2021-04-18T10:49:07.881Z</time>
      </trkpt>
      <trkpt lat="43.2179" lon="0.35351">
        <ele>490.282547</ele>
        <time>2021-04-18T10:49:09.873Z</time>
      </trkpt>
      <trkpt lat="43.21786" lon="0.35335">
        <ele>488.396954</ele>
        <time>2021-04-18T10:49:11.865Z</time>
      </trkpt>
      <trkpt lat="43.21784" lon="0.35318">
        <ele>486.72142</ele>
        <time>2021-04-18T10:49:13.903Z</time>
      </trkpt>
      <trkpt lat="43.21779" lon="0.353">
        <ele>484.964268</ele>
        <time>2021-04-18T10:49:15.874Z</time>
      </trkpt>
      <trkpt lat="43.21773" lon="0.35283">
        <ele>483.147027</ele>
        <time>2021-04-18T10:49:17.906Z</time>
      </trkpt>
      <trkpt lat="43.21764" lon="0.3527">
        <ele>481.393684</ele>
        <time>2021-04-18T10:49:19.872Z</time>
      </trkpt>
      <trkpt lat="43.21751" lon="0.35262">
        <ele>479.535598</ele>
        <time>2021-04-18T10:49:21.899Z</time>
      </trkpt>
      <trkpt lat="43.21737" lon="0.35264">
        <ele>477.637113</ele>
        <time>2021-04-18T10:49:23.861Z</time>
      </trkpt>
      <trkpt lat="43.21724" lon="0.35275">
        <ele>475.7421</ele>
        <time>2021-04-18T10:49:25.864Z</time>
      </trkpt>
      <trkpt lat="43.21715" lon="0.35292">
        <ele>473.681091</ele>
        <time>2021-04-18T10:49:27.862Z</time>
      </trkpt>
      <trkpt lat="43.21708" lon="0.35314">
        <ele>471.435948</ele>
        <time>2021-04-18T10:49:29.906Z</time>
      </trkpt>
      <trkpt lat="43.21701" lon="0.35335">
        <ele>469.256056</ele>
        <time>2021-04-18T10:49:31.895Z</time>
      </trkpt>
      <trkpt lat="43.21694" lon="0.35355">
        <ele>467.102216</ele>
        <time>2021-04-18T10:49:33.875Z</time>
      </trkpt>
      <trkpt lat="43.21685" lon="0.35374">
        <ele>464.9983</ele>
        <time>2021-04-18T10:49:35.894Z</time>
      </trkpt>
      <trkpt lat="43.21675" lon="0.3539">
        <ele>463.857614</ele>
        <time>2021-04-18T10:49:37.882Z</time>
      </trkpt>
      <trkpt lat="43.21664" lon="0.35406">
        <ele>462.91983</ele>
        <time>2021-04-18T10:49:39.876Z</time>
      </trkpt>
      <trkpt lat="43.21654" lon="0.35425">
        <ele>461.955963</ele>
        <time>2021-04-18T10:49:41.868Z</time>
      </trkpt>
      <trkpt lat="43.21549" lon="0.35734">
        <ele>450.939545</ele>
        <time>2021-04-18T10:50:12.866Z</time>
      </trkpt>
      <trkpt lat="43.21546" lon="0.35748">
        <ele>450.648877</ele>
        <time>2021-04-18T10:50:14.894Z</time>
      </trkpt>
      <trkpt lat="43.21541" lon="0.35762">
        <ele>450.329734</ele>
        <time>2021-04-18T10:50:16.859Z</time>
      </trkpt>
      <trkpt lat="43.21525" lon="0.35764">
        <ele>449.892359</ele>
        <time>2021-04-18T10:50:20.867Z</time>
      </trkpt>
      <trkpt lat="43.21524" lon="0.35748">
        <ele>449.57777</ele>
        <time>2021-04-18T10:50:22.866Z</time>
      </trkpt>
      <trkpt lat="43.21529" lon="0.35724">
        <ele>449.068546</ele>
        <time>2021-04-18T10:50:24.858Z</time>
      </trkpt>
      <trkpt lat="43.21536" lon="0.35707">
        <ele>448.67728</ele>
        <time>2021-04-18T10:50:26.863Z</time>
      </trkpt>
      <trkpt lat="43.21542" lon="0.35693">
        <ele>448.348822</ele>
        <time>2021-04-18T10:50:28.865Z</time>
      </trkpt>
      <trkpt lat="43.21547" lon="0.35678">
        <ele>448.024203</ele>
        <time>2021-04-18T10:50:30.867Z</time>
      </trkpt>
      <trkpt lat="43.21551" lon="0.35662">
        <ele>447.679</ele>
        <time>2021-04-18T10:50:32.861Z</time>
      </trkpt>
      <trkpt lat="43.21569" lon="0.3556">
        <ele>445.573053</ele>
        <time>2021-04-18T10:50:41.857Z</time>
      </trkpt>
      <trkpt lat="43.21571" lon="0.35546">
        <ele>445.296224</ele>
        <time>2021-04-18T10:50:42.894Z</time>
      </trkpt>
      <trkpt lat="43.21572" lon="0.35533">
        <ele>445.030868</ele>
        <time>2021-04-18T10:50:43.871Z</time>
      </trkpt>
      <trkpt lat="43.21573" lon="0.3552">
        <ele>444.769883</ele>
        <time>2021-04-18T10:50:44.858Z</time>
      </trkpt>
      <trkpt lat="43.21575" lon="0.35507">
        <ele>444.515946</ele>
        <time>2021-04-18T10:50:45.892Z</time>
      </trkpt>
      <trkpt lat="43.21577" lon="0.35483">
        <ele>443.936393</ele>
        <time>2021-04-18T10:50:47.902Z</time>
      </trkpt>
      <trkpt lat="43.21605" lon="0.3536">
        <ele>439.596379</ele>
        <time>2021-04-18T10:50:58.864Z</time>
      </trkpt>
      <trkpt lat="43.21607" lon="0.35347">
        <ele>439.146122</ele>
        <time>2021-04-18T10:50:59.859Z</time>
      </trkpt>
      <trkpt lat="43.21608" lon="0.35334">
        <ele>438.688027</ele>
        <time>2021-04-18T10:51:00.859Z</time>
      </trkpt>
      <trkpt lat="43.21609" lon="0.3532">
        <ele>438.241579</ele>
        <time>2021-04-18T10:51:01.859Z</time>
      </trkpt>
      <trkpt lat="43.21609" lon="0.35307">
        <ele>437.78068</ele>
        <time>2021-04-18T10:51:02.863Z</time>
      </trkpt>
      <trkpt lat="43.21609" lon="0.35293">
        <ele>437.315616</ele>
        <time>2021-04-18T10:51:03.865Z</time>
      </trkpt>
      <trkpt lat="43.21607" lon="0.35278">
        <ele>436.815615</ele>
        <time>2021-04-18T10:51:04.866Z</time>
      </trkpt>
      <trkpt lat="43.21606" lon="0.35265">
        <ele>436.348106</ele>
        <time>2021-04-18T10:51:05.859Z</time>
      </trkpt>
      <trkpt lat="43.21603" lon="0.3525">
        <ele>435.844025</ele>
        <time>2021-04-18T10:51:06.860Z</time>
      </trkpt>
      <trkpt lat="43.216" lon="0.35236">
        <ele>434.982654</ele>
        <time>2021-04-18T10:51:07.868Z</time>
      </trkpt>
      <trkpt lat="43.21597" lon="0.35221">
        <ele>434.080269</ele>
        <time>2021-04-18T10:51:08.859Z</time>
      </trkpt>
      <trkpt lat="43.21593" lon="0.35207">
        <ele>433.218531</ele>
        <time>2021-04-18T10:51:09.883Z</time>
      </trkpt>
      <trkpt lat="43.2159" lon="0.35194">
        <ele>432.405997</ele>
        <time>2021-04-18T10:51:10.865Z</time>
      </trkpt>
      <trkpt lat="43.21587" lon="0.35181">
        <ele>431.621426</ele>
        <time>2021-04-18T10:51:11.876Z</time>
      </trkpt>
      <trkpt lat="43.21584" lon="0.35169">
        <ele>430.888238</ele>
        <time>2021-04-18T10:51:12.872Z</time>
      </trkpt>
      <trkpt lat="43.21581" lon="0.35157">
        <ele>430.141908</ele>
        <time>2021-04-18T10:51:13.904Z</time>
      </trkpt>
      <trkpt lat="43.21577" lon="0.35134">
        <ele>428.773034</ele>
        <time>2021-04-18T10:51:15.886Z</time>
      </trkpt>
      <trkpt lat="43.2158" lon="0.35111">
        <ele>427.412924</ele>
        <time>2021-04-18T10:51:17.865Z</time>
      </trkpt>
      <trkpt lat="43.21609" lon="0.35038">
        <ele>422.563498</ele>
        <time>2021-04-18T10:51:23.898Z</time>
      </trkpt>
      <trkpt lat="43.21614" lon="0.35025">
        <ele>421.743465</ele>
        <time>2021-04-18T10:51:24.871Z</time>
      </trkpt>
      <trkpt lat="43.21618" lon="0.35013">
        <ele>420.862782</ele>
        <time>2021-04-18T10:51:25.890Z</time>
      </trkpt>
      <trkpt lat="43.21622" lon="0.35">
        <ele>419.978098</ele>
        <time>2021-04-18T10:51:26.902Z</time>
      </trkpt>
      <trkpt lat="43.21631" lon="0.34975">
        <ele>418.194555</ele>
        <time>2021-04-18T10:51:28.873Z</time>
      </trkpt>
      <trkpt lat="43.21636" lon="0.34963">
        <ele>417.342875</ele>
        <time>2021-04-18T10:51:29.894Z</time>
      </trkpt>
      <trkpt lat="43.21639" lon="0.34951">
        <ele>416.527043</ele>
        <time>2021-04-18T10:51:30.881Z</time>
      </trkpt>
      <trkpt lat="43.2164" lon="0.34928">
        <ele>415.072271</ele>
        <time>2021-04-18T10:51:32.856Z</time>
      </trkpt>
      <trkpt lat="43.21639" lon="0.3491">
        <ele>413.869511</ele>
        <time>2021-04-18T10:51:34.866Z</time>
      </trkpt>
      <trkpt lat="43.21639" lon="0.34896">
        <ele>412.98404</ele>
        <time>2021-04-18T10:51:36.870Z</time>
      </trkpt>
      <trkpt lat="43.21644" lon="0.34882">
        <ele>412.038775</ele>
        <time>2021-04-18T10:51:39.883Z</time>
      </trkpt>
      <trkpt lat="43.21658" lon="0.34843">
        <ele>409.263863</ele>
        <time>2021-04-18T10:53:17.905Z</time>
      </trkpt>
      <trkpt lat="43.21664" lon="0.34833">
        <ele>408.430014</ele>
        <time>2021-04-18T10:53:19.875Z</time>
      </trkpt>
      <trkpt lat="43.21671" lon="0.3482">
        <ele>407.420647</ele>
        <time>2021-04-18T10:53:21.883Z</time>
      </trkpt>
      <trkpt lat="43.21676" lon="0.34806">
        <ele>406.428975</ele>
        <time>2021-04-18T10:53:23.875Z</time>
      </trkpt>
      <trkpt lat="43.21683" lon="0.34792">
        <ele>405.243008</ele>
        <time>2021-04-18T10:53:25.882Z</time>
      </trkpt>
      <trkpt lat="43.2169" lon="0.34778">
        <ele>403.890539</ele>
        <time>2021-04-18T10:53:27.875Z</time>
      </trkpt>
      <trkpt lat="43.21695" lon="0.34764">
        <ele>402.674519</ele>
        <time>2021-04-18T10:53:29.877Z</time>
      </trkpt>
      <trkpt lat="43.21699" lon="0.34751">
        <ele>401.482471</ele>
        <time>2021-04-18T10:53:31.904Z</time>
      </trkpt>
      <trkpt lat="43.21703" lon="0.34738">
        <ele>400.392641</ele>
        <time>2021-04-18T10:53:33.924Z</time>
      </trkpt>
      <trkpt lat="43.21708" lon="0.34727">
        <ele>399.384334</ele>
        <time>2021-04-18T10:53:35.883Z</time>
      </trkpt>
      <trkpt lat="43.21713" lon="0.34717">
        <ele>398.401161</ele>
        <time>2021-04-18T10:53:37.868Z</time>
      </trkpt>
      <trkpt lat="43.21719" lon="0.347">
        <ele>396.967561</ele>
        <time>2021-04-18T10:53:40.896Z</time>
      </trkpt>
      <trkpt lat="43.21725" lon="0.34683">
        <ele>395.390812</ele>
        <time>2021-04-18T10:53:43.901Z</time>
      </trkpt>
      <trkpt lat="43.21731" lon="0.34671">
        <ele>394.253387</ele>
        <time>2021-04-18T10:53:45.913Z</time>
      </trkpt>
      <trkpt lat="43.21735" lon="0.34658">
        <ele>393.182534</ele>
        <time>2021-04-18T10:53:47.875Z</time>
      </trkpt>
      <trkpt lat="43.21738" lon="0.34647">
        <ele>392.192506</ele>
        <time>2021-04-18T10:53:49.873Z</time>
      </trkpt>
      <trkpt lat="43.21742" lon="0.34634">
        <ele>391.07208</ele>
        <time>2021-04-18T10:53:51.909Z</time>
      </trkpt>
      <trkpt lat="43.21747" lon="0.3462">
        <ele>389.863531</ele>
        <time>2021-04-18T10:53:53.874Z</time>
      </trkpt>
      <trkpt lat="43.21751" lon="0.34607">
        <ele>388.720624</ele>
        <time>2021-04-18T10:53:55.883Z</time>
      </trkpt>
      <trkpt lat="43.21754" lon="0.34594">
        <ele>387.600048</ele>
        <time>2021-04-18T10:53:57.878Z</time>
      </trkpt>
      <trkpt lat="43.21757" lon="0.3458">
        <ele>386.50299</ele>
        <time>2021-04-18T10:53:59.871Z</time>
      </trkpt>
      <trkpt lat="43.21757" lon="0.34566">
        <ele>386.063582</ele>
        <time>2021-04-18T10:54:01.876Z</time>
      </trkpt>
      <trkpt lat="43.21753" lon="0.3455">
        <ele>385.895306</ele>
        <time>2021-04-18T10:54:03.860Z</time>
      </trkpt>
      <trkpt lat="43.21749" lon="0.34538">
        <ele>385.74919</ele>
        <time>2021-04-18T10:54:05.856Z</time>
      </trkpt>
      <trkpt lat="43.21746" lon="0.34522">
        <ele>385.58395</ele>
        <time>2021-04-18T10:54:08.877Z</time>
      </trkpt>
      <trkpt lat="43.21744" lon="0.34506">
        <ele>385.42279</ele>
        <time>2021-04-18T10:54:11.879Z</time>
      </trkpt>
      <trkpt lat="43.21742" lon="0.34493">
        <ele>385.281015</ele>
        <time>2021-04-18T10:54:14.869Z</time>
      </trkpt>
      <trkpt lat="43.21739" lon="0.34479">
        <ele>385.130795</ele>
        <time>2021-04-18T10:54:18.866Z</time>
      </trkpt>
      <trkpt lat="43.21737" lon="0.34464">
        <ele>384.974565</ele>
        <time>2021-04-18T10:54:23.866Z</time>
      </trkpt>
      <trkpt lat="43.21741" lon="0.34452">
        <ele>384.838576</ele>
        <time>2021-04-18T10:54:28.868Z</time>
      </trkpt>
      <trkpt lat="43.21751" lon="0.34448">
        <ele>384.691446</ele>
        <time>2021-04-18T10:54:31.866Z</time>
      </trkpt>
      <trkpt lat="43.2176" lon="0.34443">
        <ele>384.55317</ele>
        <time>2021-04-18T10:54:34.877Z</time>
      </trkpt>
      <trkpt lat="43.2177" lon="0.34436">
        <ele>384.396247</ele>
        <time>2021-04-18T10:54:38.873Z</time>
      </trkpt>
      <trkpt lat="43.21781" lon="0.3443">
        <ele>384.236776</ele>
        <time>2021-04-18T10:54:42.898Z</time>
      </trkpt>
      <trkpt lat="43.21792" lon="0.34427">
        <ele>384.076055</ele>
        <time>2021-04-18T10:54:46.874Z</time>
      </trkpt>
      <trkpt lat="43.21803" lon="0.34421">
        <ele>383.906288</ele>
        <time>2021-04-18T10:54:50.875Z</time>
      </trkpt>
      <trkpt lat="43.21815" lon="0.34416">
        <ele>383.733192</ele>
        <time>2021-04-18T10:54:54.883Z</time>
      </trkpt>
      <trkpt lat="43.21824" lon="0.34411">
        <ele>383.566145</ele>
        <time>2021-04-18T10:54:57.877Z</time>
      </trkpt>
      <trkpt lat="43.21833" lon="0.34408">
        <ele>383.319046</ele>
        <time>2021-04-18T10:55:00.906Z</time>
      </trkpt>
      <trkpt lat="43.21842" lon="0.34404">
        <ele>383.061152</ele>
        <time>2021-04-18T10:55:03.911Z</time>
      </trkpt>
      <trkpt lat="43.21852" lon="0.344">
        <ele>382.789227</ele>
        <time>2021-04-18T10:55:06.871Z</time>
      </trkpt>
      <trkpt lat="43.21862" lon="0.34396">
        <ele>382.500184</ele>
        <time>2021-04-18T10:55:09.883Z</time>
      </trkpt>
      <trkpt lat="43.21872" lon="0.34393">
        <ele>382.216018</ele>
        <time>2021-04-18T10:55:12.880Z</time>
      </trkpt>
      <trkpt lat="43.21882" lon="0.34392">
        <ele>381.96147</ele>
        <time>2021-04-18T10:55:15.876Z</time>
      </trkpt>
      <trkpt lat="43.21893" lon="0.34389">
        <ele>381.643263</ele>
        <time>2021-04-18T10:55:19.883Z</time>
      </trkpt>
      <trkpt lat="43.21903" lon="0.34384">
        <ele>381.382902</ele>
        <time>2021-04-18T10:55:23.902Z</time>
      </trkpt>
      <trkpt lat="43.21881" lon="0.34387">
        <ele>380.792912</ele>
        <time>2021-04-18T10:56:41.899Z</time>
      </trkpt>
      <trkpt lat="43.21871" lon="0.34387">
        <ele>380.545637</ele>
        <time>2021-04-18T10:56:45.882Z</time>
      </trkpt>
      <trkpt lat="43.2186" lon="0.3439">
        <ele>380.246293</ele>
        <time>2021-04-18T10:56:50.872Z</time>
      </trkpt>
      <trkpt lat="43.21851" lon="0.34393">
        <ele>379.994565</ele>
        <time>2021-04-18T10:56:54.907Z</time>
      </trkpt>
      <trkpt lat="43.21842" lon="0.34397">
        <ele>379.721488</ele>
        <time>2021-04-18T10:56:58.877Z</time>
      </trkpt>
      <trkpt lat="43.21833" lon="0.34401">
        <ele>379.472381</ele>
        <time>2021-04-18T10:57:02.872Z</time>
      </trkpt>
      <trkpt lat="43.21823" lon="0.34404">
        <ele>379.204541</ele>
        <time>2021-04-18T10:57:06.908Z</time>
      </trkpt>
      <trkpt lat="43.21812" lon="0.34408">
        <ele>378.884539</ele>
        <time>2021-04-18T10:57:10.909Z</time>
      </trkpt>
      <trkpt lat="43.21802" lon="0.34412">
        <ele>378.803227</ele>
        <time>2021-04-18T10:57:13.874Z</time>
      </trkpt>
      <trkpt lat="43.21792" lon="0.34417">
        <ele>378.797048</ele>
        <time>2021-04-18T10:57:16.887Z</time>
      </trkpt>
      <trkpt lat="43.21782" lon="0.34421">
        <ele>378.791106</ele>
        <time>2021-04-18T10:57:19.870Z</time>
      </trkpt>
      <trkpt lat="43.21773" lon="0.34426">
        <ele>378.785214</ele>
        <time>2021-04-18T10:57:22.877Z</time>
      </trkpt>
      <trkpt lat="43.21763" lon="0.34431">
        <ele>378.779117</ele>
        <time>2021-04-18T10:57:25.904Z</time>
      </trkpt>
      <trkpt lat="43.21754" lon="0.34437">
        <ele>378.773301</ele>
        <time>2021-04-18T10:57:28.900Z</time>
      </trkpt>
      <trkpt lat="43.21746" lon="0.34441">
        <ele>378.767819</ele>
        <time>2021-04-18T10:57:31.904Z</time>
      </trkpt>
      <trkpt lat="43.21737" lon="0.34445">
        <ele>378.762459</ele>
        <time>2021-04-18T10:57:34.887Z</time>
      </trkpt>
      <trkpt lat="43.21727" lon="0.34449">
        <ele>378.756205</ele>
        <time>2021-04-18T10:57:37.871Z</time>
      </trkpt>
      <trkpt lat="43.21716" lon="0.34452">
        <ele>378.749425</ele>
        <time>2021-04-18T10:57:41.914Z</time>
      </trkpt>
      <trkpt lat="43.21707" lon="0.34458">
        <ele>378.743734</ele>
        <time>2021-04-18T10:57:44.860Z</time>
      </trkpt>
      <trkpt lat="43.21696" lon="0.34464">
        <ele>378.737113</ele>
        <time>2021-04-18T10:57:47.904Z</time>
      </trkpt>
      <trkpt lat="43.21687" lon="0.34469">
        <ele>378.731297</ele>
        <time>2021-04-18T10:57:50.882Z</time>
      </trkpt>
      <trkpt lat="43.21677" lon="0.34477">
        <ele>378.724437</ele>
        <time>2021-04-18T10:57:54.876Z</time>
      </trkpt>
      <trkpt lat="43.21666" lon="0.34484">
        <ele>378.717517</ele>
        <time>2021-04-18T10:57:58.878Z</time>
      </trkpt>
      <trkpt lat="43.21656" lon="0.3449">
        <ele>378.710579</ele>
        <time>2021-04-18T10:58:02.878Z</time>
      </trkpt>
      <trkpt lat="43.21647" lon="0.34496">
        <ele>378.704746</ele>
        <time>2021-04-18T10:58:05.883Z</time>
      </trkpt>
      <trkpt lat="43.21637" lon="0.34501">
        <ele>378.8591</ele>
        <time>2021-04-18T10:58:08.882Z</time>
      </trkpt>
      <trkpt lat="43.21627" lon="0.34506">
        <ele>379.20509</ele>
        <time>2021-04-18T10:58:11.873Z</time>
      </trkpt>
      <trkpt lat="43.21618" lon="0.34511">
        <ele>379.530278</ele>
        <time>2021-04-18T10:58:14.910Z</time>
      </trkpt>
      <trkpt lat="43.21608" lon="0.34516">
        <ele>379.854738</ele>
        <time>2021-04-18T10:58:17.873Z</time>
      </trkpt>
      <trkpt lat="43.21599" lon="0.3452">
        <ele>380.162266</ele>
        <time>2021-04-18T10:58:20.902Z</time>
      </trkpt>
      <trkpt lat="43.2159" lon="0.34526">
        <ele>380.487454</ele>
        <time>2021-04-18T10:58:23.876Z</time>
      </trkpt>
      <trkpt lat="43.2158" lon="0.3453">
        <ele>380.840553</ele>
        <time>2021-04-18T10:58:26.865Z</time>
      </trkpt>
      <trkpt lat="43.21571" lon="0.34535">
        <ele>381.170027</ele>
        <time>2021-04-18T10:58:29.890Z</time>
      </trkpt>
      <trkpt lat="43.21561" lon="0.34541">
        <ele>381.499157</ele>
        <time>2021-04-18T10:58:32.875Z</time>
      </trkpt>
      <trkpt lat="43.21551" lon="0.34546">
        <ele>381.844615</ele>
        <time>2021-04-18T10:58:35.885Z</time>
      </trkpt>
      <trkpt lat="43.2154" lon="0.34552">
        <ele>382.22826</ele>
        <time>2021-04-18T10:58:38.887Z</time>
      </trkpt>
      <trkpt lat="43.2153" lon="0.34557">
        <ele>382.592782</ele>
        <time>2021-04-18T10:58:41.908Z</time>
      </trkpt>
      <trkpt lat="43.2152" lon="0.34562">
        <ele>382.940364</ele>
        <time>2021-04-18T10:58:44.871Z</time>
      </trkpt>
      <trkpt lat="43.2151" lon="0.34567">
        <ele>383.283303</ele>
        <time>2021-04-18T10:58:47.903Z</time>
      </trkpt>
      <trkpt lat="43.215" lon="0.34572">
        <ele>383.636213</ele>
        <time>2021-04-18T10:58:50.869Z</time>
      </trkpt>
      <trkpt lat="43.20973" lon="0.34922">
        <ele>407.126555</ele>
        <time>2021-04-18T11:03:09.086Z</time>
      </trkpt>
      <trkpt lat="43.2069" lon="0.35062">
        <ele>419.147653</ele>
        <time>2021-04-18T11:05:49.461Z</time>
      </trkpt>
      <trkpt lat="43.20617" lon="0.35048">
        <ele>420.583843</ele>
        <time>2021-04-18T11:05:50.975Z</time>
      </trkpt>
      <trkpt lat="43.2069" lon="0.35062">
        <ele>429.352055</ele>
        <time>2021-04-18T11:05:52.394Z</time>
      </trkpt>
      <trkpt lat="43.20678" lon="0.35064">
        <ele>430.711621</ele>
        <time>2021-04-18T11:05:56.415Z</time>
      </trkpt>
      <trkpt lat="43.20669" lon="0.3507">
        <ele>431.919402</ele>
        <time>2021-04-18T11:06:00.375Z</time>
      </trkpt>
      <trkpt lat="43.20659" lon="0.35075">
        <ele>433.206566</ele>
        <time>2021-04-18T11:06:05.415Z</time>
      </trkpt>
      <trkpt lat="43.20649" lon="0.3508">
        <ele>434.490746</ele>
        <time>2021-04-18T11:06:10.392Z</time>
      </trkpt>
      <trkpt lat="43.2064" lon="0.35083">
        <ele>435.5801</ele>
        <time>2021-04-18T11:06:15.411Z</time>
      </trkpt>
      <trkpt lat="43.2063" lon="0.35085">
        <ele>436.786336</ele>
        <time>2021-04-18T11:06:20.398Z</time>
      </trkpt>
      <trkpt lat="43.20621" lon="0.35088">
        <ele>437.892013</ele>
        <time>2021-04-18T11:06:24.418Z</time>
      </trkpt>
      <trkpt lat="43.20613" lon="0.35095">
        <ele>438.567402</ele>
        <time>2021-04-18T11:06:29.399Z</time>
      </trkpt>
      <trkpt lat="43.20604" lon="0.35101">
        <ele>439.008905</ele>
        <time>2021-04-18T11:06:34.392Z</time>
      </trkpt>
      <trkpt lat="43.20594" lon="0.35109">
        <ele>439.550914</ele>
        <time>2021-04-18T11:06:39.385Z</time>
      </trkpt>
      <trkpt lat="43.20585" lon="0.35116">
        <ele>440.015246</ele>
        <time>2021-04-18T11:06:43.393Z</time>
      </trkpt>
      <trkpt lat="43.20576" lon="0.35123">
        <ele>440.504406</ele>
        <time>2021-04-18T11:06:48.394Z</time>
      </trkpt>
      <trkpt lat="43.20568" lon="0.35132">
        <ele>440.984575</ele>
        <time>2021-04-18T11:06:53.417Z</time>
      </trkpt>
      <trkpt lat="43.2056" lon="0.35141">
        <ele>441.462611</ele>
        <time>2021-04-18T11:06:58.397Z</time>
      </trkpt>
      <trkpt lat="43.20552" lon="0.3515">
        <ele>441.957209</ele>
        <time>2021-04-18T11:07:04.404Z</time>
      </trkpt>
      <trkpt lat="43.20544" lon="0.35157">
        <ele>442.401701</ele>
        <time>2021-04-18T11:07:10.382Z</time>
      </trkpt>
      <trkpt lat="43.20536" lon="0.35163">
        <ele>442.821544</ele>
        <time>2021-04-18T11:07:16.372Z</time>
      </trkpt>
      <trkpt lat="43.20527" lon="0.35168">
        <ele>443.291026</ele>
        <time>2021-04-18T11:07:20.377Z</time>
      </trkpt>
      <trkpt lat="43.20519" lon="0.35174">
        <ele>443.738268</ele>
        <time>2021-04-18T11:07:25.394Z</time>
      </trkpt>
      <trkpt lat="43.20509" lon="0.35182">
        <ele>444.26646</ele>
        <time>2021-04-18T11:07:30.384Z</time>
      </trkpt>
      <trkpt lat="43.205" lon="0.35189">
        <ele>444.730919</ele>
        <time>2021-04-18T11:07:34.395Z</time>
      </trkpt>
      <trkpt lat="43.20492" lon="0.35196">
        <ele>445.164376</ele>
        <time>2021-04-18T11:07:39.400Z</time>
      </trkpt>
      <trkpt lat="43.20483" lon="0.35201">
        <ele>445.618056</ele>
        <time>2021-04-18T11:07:44.387Z</time>
      </trkpt>
      <trkpt lat="43.20476" lon="0.35208">
        <ele>446.045291</ele>
        <time>2021-04-18T11:07:49.418Z</time>
      </trkpt>
      <trkpt lat="43.20468" lon="0.35216">
        <ele>446.50918</ele>
        <time>2021-04-18T11:07:54.395Z</time>
      </trkpt>
      <trkpt lat="43.2046" lon="0.35224">
        <ele>447.447212</ele>
        <time>2021-04-18T11:07:59.407Z</time>
      </trkpt>
      <trkpt lat="43.20451" lon="0.35229">
        <ele>448.434037</ele>
        <time>2021-04-18T11:08:04.399Z</time>
      </trkpt>
      <trkpt lat="43.20442" lon="0.35236">
        <ele>449.564243</ele>
        <time>2021-04-18T11:08:09.401Z</time>
      </trkpt>
      <trkpt lat="43.20433" lon="0.35243">
        <ele>450.683146</ele>
        <time>2021-04-18T11:08:14.381Z</time>
      </trkpt>
      <trkpt lat="43.20423" lon="0.35248">
        <ele>451.790568</ele>
        <time>2021-04-18T11:08:20.388Z</time>
      </trkpt>
      <trkpt lat="43.20415" lon="0.35252">
        <ele>452.773114</ele>
        <time>2021-04-18T11:08:25.399Z</time>
      </trkpt>
      <trkpt lat="43.20405" lon="0.35253">
        <ele>453.803568</ele>
        <time>2021-04-18T11:08:31.435Z</time>
      </trkpt>
      <trkpt lat="43.20396" lon="0.35254">
        <ele>454.812457</ele>
        <time>2021-04-18T11:08:37.402Z</time>
      </trkpt>
      <trkpt lat="43.20386" lon="0.35255">
        <ele>455.853127</ele>
        <time>2021-04-18T11:08:42.371Z</time>
      </trkpt>
      <trkpt lat="43.20376" lon="0.35254">
        <ele>457.012515</ele>
        <time>2021-04-18T11:08:47.388Z</time>
      </trkpt>
      <trkpt lat="43.20365" lon="0.35254">
        <ele>458.138279</ele>
        <time>2021-04-18T11:08:52.388Z</time>
      </trkpt>
      <trkpt lat="43.20355" lon="0.35252">
        <ele>459.314898</ele>
        <time>2021-04-18T11:08:58.417Z</time>
      </trkpt>
      <trkpt lat="43.20344" lon="0.35248">
        <ele>460.448298</ele>
        <time>2021-04-18T11:09:04.399Z</time>
      </trkpt>
      <trkpt lat="43.20334" lon="0.35246">
        <ele>461.550555</ele>
        <time>2021-04-18T11:09:09.388Z</time>
      </trkpt>
      <trkpt lat="43.20324" lon="0.35242">
        <ele>462.749965</ele>
        <time>2021-04-18T11:09:14.409Z</time>
      </trkpt>
      <trkpt lat="43.20314" lon="0.3524">
        <ele>463.759956</ele>
        <time>2021-04-18T11:09:18.403Z</time>
      </trkpt>
      <trkpt lat="43.20305" lon="0.35235">
        <ele>464.86488</ele>
        <time>2021-04-18T11:09:23.392Z</time>
      </trkpt>
      <trkpt lat="43.20296" lon="0.35232">
        <ele>465.850677</ele>
        <time>2021-04-18T11:09:28.403Z</time>
      </trkpt>
      <trkpt lat="43.20286" lon="0.35229">
        <ele>466.113423</ele>
        <time>2021-04-18T11:09:33.386Z</time>
      </trkpt>
      <trkpt lat="43.20277" lon="0.35226">
        <ele>466.167374</ele>
        <time>2021-04-18T11:09:37.416Z</time>
      </trkpt>
      <trkpt lat="43.20268" lon="0.35223">
        <ele>466.217874</ele>
        <time>2021-04-18T11:09:41.400Z</time>
      </trkpt>
      <trkpt lat="43.20258" lon="0.35222">
        <ele>466.270231</ele>
        <time>2021-04-18T11:09:45.405Z</time>
      </trkpt>
      <trkpt lat="43.20248" lon="0.35222">
        <ele>466.325246</ele>
        <time>2021-04-18T11:09:50.390Z</time>
      </trkpt>
      <trkpt lat="43.20237" lon="0.3522">
        <ele>466.386635</ele>
        <time>2021-04-18T11:09:54.398Z</time>
      </trkpt>
      <trkpt lat="43.20227" lon="0.3522">
        <ele>466.443833</ele>
        <time>2021-04-18T11:09:58.389Z</time>
      </trkpt>
      <trkpt lat="43.20217" lon="0.35219">
        <ele>466.500306</ele>
        <time>2021-04-18T11:10:02.421Z</time>
      </trkpt>
      <trkpt lat="43.20208" lon="0.35217">
        <ele>466.55053</ele>
        <time>2021-04-18T11:10:06.390Z</time>
      </trkpt>
      <trkpt lat="43.20198" lon="0.35215">
        <ele>466.605093</ele>
        <time>2021-04-18T11:10:10.419Z</time>
      </trkpt>
      <trkpt lat="43.20188" lon="0.35213">
        <ele>466.663981</ele>
        <time>2021-04-18T11:10:15.439Z</time>
      </trkpt>
      <trkpt lat="43.20178" lon="0.35211">
        <ele>466.717383</ele>
        <time>2021-04-18T11:10:20.365Z</time>
      </trkpt>
      <trkpt lat="43.20169" lon="0.35211">
        <ele>466.769576</ele>
        <time>2021-04-18T11:10:25.365Z</time>
      </trkpt>
      <trkpt lat="43.2016" lon="0.3521">
        <ele>466.821203</ele>
        <time>2021-04-18T11:10:30.401Z</time>
      </trkpt>
      <trkpt lat="43.2015" lon="0.35211">
        <ele>466.875664</ele>
        <time>2021-04-18T11:10:34.403Z</time>
      </trkpt>
      <trkpt lat="43.2014" lon="0.35209">
        <ele>466.930484</ele>
        <time>2021-04-18T11:10:39.441Z</time>
      </trkpt>
      <trkpt lat="43.20129" lon="0.35208">
        <ele>466.990862</ele>
        <time>2021-04-18T11:10:44.394Z</time>
      </trkpt>
      <trkpt lat="43.2012" lon="0.35206">
        <ele>467.04283</ele>
        <time>2021-04-18T11:10:48.399Z</time>
      </trkpt>
      <trkpt lat="43.20111" lon="0.35205">
        <ele>467.328053</ele>
        <time>2021-04-18T11:10:52.390Z</time>
      </trkpt>
      <trkpt lat="43.20101" lon="0.35205">
        <ele>467.813163</ele>
        <time>2021-04-18T11:10:55.406Z</time>
      </trkpt>
      <trkpt lat="43.20091" lon="0.35206">
        <ele>468.360509</ele>
        <time>2021-04-18T11:10:59.399Z</time>
      </trkpt>
      <trkpt lat="43.20079" lon="0.35207">
        <ele>468.954739</ele>
        <time>2021-04-18T11:11:03.392Z</time>
      </trkpt>
      <trkpt lat="43.20069" lon="0.35209">
        <ele>469.470613</ele>
        <time>2021-04-18T11:11:07.392Z</time>
      </trkpt>
      <trkpt lat="43.2006" lon="0.35211">
        <ele>469.946826</ele>
        <time>2021-04-18T11:11:11.391Z</time>
      </trkpt>
      <trkpt lat="43.20051" lon="0.35214">
        <ele>470.453492</ele>
        <time>2021-04-18T11:11:15.407Z</time>
      </trkpt>
      <trkpt lat="43.20042" lon="0.35217">
        <ele>470.927358</ele>
        <time>2021-04-18T11:11:20.386Z</time>
      </trkpt>
      <trkpt lat="43.20033" lon="0.3522">
        <ele>471.39441</ele>
        <time>2021-04-18T11:11:25.390Z</time>
      </trkpt>
      <trkpt lat="43.20023" lon="0.35223">
        <ele>471.891622</ele>
        <time>2021-04-18T11:11:30.386Z</time>
      </trkpt>
      <trkpt lat="43.20014" lon="0.35226">
        <ele>472.390817</ele>
        <time>2021-04-18T11:11:35.391Z</time>
      </trkpt>
      <trkpt lat="43.20003" lon="0.35225">
        <ele>472.948174</ele>
        <time>2021-04-18T11:11:40.397Z</time>
      </trkpt>
      <trkpt lat="43.19993" lon="0.35227">
        <ele>473.492966</ele>
        <time>2021-04-18T11:11:45.393Z</time>
      </trkpt>
      <trkpt lat="43.19983" lon="0.35229">
        <ele>473.978763</ele>
        <time>2021-04-18T11:11:49.393Z</time>
      </trkpt>
      <trkpt lat="43.19974" lon="0.35232">
        <ele>474.484493</ele>
        <time>2021-04-18T11:11:53.397Z</time>
      </trkpt>
      <trkpt lat="43.19964" lon="0.35235">
        <ele>475.00033</ele>
        <time>2021-04-18T11:11:58.391Z</time>
      </trkpt>
      <trkpt lat="43.19954" lon="0.35236">
        <ele>475.524595</ele>
        <time>2021-04-18T11:12:03.385Z</time>
      </trkpt>
      <trkpt lat="43.19944" lon="0.35242">
        <ele>476.081999</ele>
        <time>2021-04-18T11:12:08.400Z</time>
      </trkpt>
      <trkpt lat="43.19933" lon="0.35246">
        <ele>476.718549</ele>
        <time>2021-04-18T11:12:13.395Z</time>
      </trkpt>
      <trkpt lat="43.19923" lon="0.35251">
        <ele>477.418758</ele>
        <time>2021-04-18T11:12:18.415Z</time>
      </trkpt>
      <trkpt lat="43.19914" lon="0.35254">
        <ele>477.991054</ele>
        <time>2021-04-18T11:12:23.388Z</time>
      </trkpt>
      <trkpt lat="43.19905" lon="0.3526">
        <ele>478.587537</ele>
        <time>2021-04-18T11:12:28.397Z</time>
      </trkpt>
      <trkpt lat="43.19896" lon="0.35265">
        <ele>479.22974</ele>
        <time>2021-04-18T11:12:34.410Z</time>
      </trkpt>
      <trkpt lat="43.19888" lon="0.35272">
        <ele>479.850618</ele>
        <time>2021-04-18T11:12:39.395Z</time>
      </trkpt>
      <trkpt lat="43.1988" lon="0.35281">
        <ele>480.472304</ele>
        <time>2021-04-18T11:12:47.415Z</time>
      </trkpt>
      <trkpt lat="43.19871" lon="0.35287">
        <ele>481.120318</ele>
        <time>2021-04-18T11:12:52.410Z</time>
      </trkpt>
      <trkpt lat="43.19862" lon="0.35292">
        <ele>481.713481</ele>
        <time>2021-04-18T11:12:56.401Z</time>
      </trkpt>
      <trkpt lat="43.19852" lon="0.35298">
        <ele>482.413395</ele>
        <time>2021-04-18T11:13:00.397Z</time>
      </trkpt>
      <trkpt lat="43.19843" lon="0.35303">
        <ele>483.028919</ele>
        <time>2021-04-18T11:13:04.411Z</time>
      </trkpt>
      <trkpt lat="43.19833" lon="0.35309">
        <ele>483.673145</ele>
        <time>2021-04-18T11:13:09.427Z</time>
      </trkpt>
      <trkpt lat="43.19824" lon="0.35315">
        <ele>484.326838</ele>
        <time>2021-04-18T11:13:15.397Z</time>
      </trkpt>
      <trkpt lat="43.19815" lon="0.35321">
        <ele>484.977374</ele>
        <time>2021-04-18T11:13:20.420Z</time>
      </trkpt>
      <trkpt lat="43.19805" lon="0.35328">
        <ele>485.64679</ele>
        <time>2021-04-18T11:13:25.393Z</time>
      </trkpt>
      <trkpt lat="43.19796" lon="0.35332">
        <ele>486.244756</ele>
        <time>2021-04-18T11:13:30.404Z</time>
      </trkpt>
      <trkpt lat="43.19787" lon="0.3533">
        <ele>486.825621</ele>
        <time>2021-04-18T11:13:34.446Z</time>
      </trkpt>
      <trkpt lat="43.19777" lon="0.35326">
        <ele>487.48398</ele>
        <time>2021-04-18T11:13:39.395Z</time>
      </trkpt>
      <trkpt lat="43.19768" lon="0.35319">
        <ele>487.988389</ele>
        <time>2021-04-18T11:13:43.398Z</time>
      </trkpt>
      <trkpt lat="43.19761" lon="0.35308">
        <ele>488.444713</ele>
        <time>2021-04-18T11:13:48.397Z</time>
      </trkpt>
      <trkpt lat="43.19757" lon="0.35296">
        <ele>488.833047</ele>
        <time>2021-04-18T11:13:52.397Z</time>
      </trkpt>
      <trkpt lat="43.19753" lon="0.35282">
        <ele>489.300355</ele>
        <time>2021-04-18T11:13:57.398Z</time>
      </trkpt>
      <trkpt lat="43.19749" lon="0.3527">
        <ele>489.697893</ele>
        <time>2021-04-18T11:14:01.386Z</time>
      </trkpt>
      <trkpt lat="43.19744" lon="0.35258">
        <ele>490.157706</ele>
        <time>2021-04-18T11:14:06.411Z</time>
      </trkpt>
      <trkpt lat="43.19739" lon="0.35246">
        <ele>490.568233</ele>
        <time>2021-04-18T11:14:10.398Z</time>
      </trkpt>
      <trkpt lat="43.19734" lon="0.35235">
        <ele>490.986813</ele>
        <time>2021-04-18T11:14:13.393Z</time>
      </trkpt>
      <trkpt lat="43.19727" lon="0.35223">
        <ele>491.45505</ele>
        <time>2021-04-18T11:14:16.392Z</time>
      </trkpt>
      <trkpt lat="43.19721" lon="0.35209">
        <ele>491.949349</ele>
        <time>2021-04-18T11:14:19.394Z</time>
      </trkpt>
      <trkpt lat="43.19714" lon="0.35197">
        <ele>492.435626</ele>
        <time>2021-04-18T11:14:22.395Z</time>
      </trkpt>
      <trkpt lat="43.19706" lon="0.35185">
        <ele>492.913652</ele>
        <time>2021-04-18T11:14:25.410Z</time>
      </trkpt>
      <trkpt lat="43.19699" lon="0.35176">
        <ele>493.360022</ele>
        <time>2021-04-18T11:14:28.412Z</time>
      </trkpt>
      <trkpt lat="43.19691" lon="0.35166">
        <ele>493.787636</ele>
        <time>2021-04-18T11:14:31.397Z</time>
      </trkpt>
      <trkpt lat="43.19683" lon="0.35157">
        <ele>494.253011</ele>
        <time>2021-04-18T11:14:34.396Z</time>
      </trkpt>
      <trkpt lat="43.19676" lon="0.35149">
        <ele>494.652018</ele>
        <time>2021-04-18T11:14:37.402Z</time>
      </trkpt>
      <trkpt lat="43.19668" lon="0.35139">
        <ele>495.087442</ele>
        <time>2021-04-18T11:14:40.395Z</time>
      </trkpt>
      <trkpt lat="43.1966" lon="0.3513">
        <ele>495.571197</ele>
        <time>2021-04-18T11:14:43.398Z</time>
      </trkpt>
      <trkpt lat="43.19652" lon="0.35118">
        <ele>496.176778</ele>
        <time>2021-04-18T11:14:46.411Z</time>
      </trkpt>
      <trkpt lat="43.19643" lon="0.35106">
        <ele>496.763334</ele>
        <time>2021-04-18T11:14:49.436Z</time>
      </trkpt>
      <trkpt lat="43.19636" lon="0.35093">
        <ele>497.345283</ele>
        <time>2021-04-18T11:14:52.407Z</time>
      </trkpt>
      <trkpt lat="43.1963" lon="0.3508">
        <ele>497.924243</ele>
        <time>2021-04-18T11:14:55.401Z</time>
      </trkpt>
      <trkpt lat="43.19625" lon="0.35068">
        <ele>498.439535</ele>
        <time>2021-04-18T11:14:58.383Z</time>
      </trkpt>
      <trkpt lat="43.19619" lon="0.35055">
        <ele>498.968645</ele>
        <time>2021-04-18T11:15:01.400Z</time>
      </trkpt>
      <trkpt lat="43.19611" lon="0.35047">
        <ele>499.459442</ele>
        <time>2021-04-18T11:15:04.420Z</time>
      </trkpt>
      <trkpt lat="43.19603" lon="0.35039">
        <ele>499.953989</ele>
        <time>2021-04-18T11:15:07.363Z</time>
      </trkpt>
      <trkpt lat="43.19598" lon="0.35027">
        <ele>500.446138</ele>
        <time>2021-04-18T11:15:10.383Z</time>
      </trkpt>
      <trkpt lat="43.19593" lon="0.35015">
        <ele>500.940073</ele>
        <time>2021-04-18T11:15:13.391Z</time>
      </trkpt>
      <trkpt lat="43.19588" lon="0.35004">
        <ele>501.394128</ele>
        <time>2021-04-18T11:15:16.390Z</time>
      </trkpt>
      <trkpt lat="43.19583" lon="0.34994">
        <ele>501.85853</ele>
        <time>2021-04-18T11:15:19.408Z</time>
      </trkpt>
      <trkpt lat="43.19577" lon="0.34984">
        <ele>502.340944</ele>
        <time>2021-04-18T11:15:22.430Z</time>
      </trkpt>
      <trkpt lat="43.1957" lon="0.34974">
        <ele>502.818652</ele>
        <time>2021-04-18T11:15:25.391Z</time>
      </trkpt>
      <trkpt lat="43.19563" lon="0.34963">
        <ele>503.346355</ele>
        <time>2021-04-18T11:15:28.394Z</time>
      </trkpt>
      <trkpt lat="43.19556" lon="0.34951">
        <ele>503.883758</ele>
        <time>2021-04-18T11:15:31.397Z</time>
      </trkpt>
      <trkpt lat="43.1955" lon="0.34939">
        <ele>504.971431</ele>
        <time>2021-04-18T11:15:34.410Z</time>
      </trkpt>
      <trkpt lat="43.19541" lon="0.34929">
        <ele>506.894394</ele>
        <time>2021-04-18T11:15:37.441Z</time>
      </trkpt>
      <trkpt lat="43.19531" lon="0.34925">
        <ele>508.759017</ele>
        <time>2021-04-18T11:15:40.411Z</time>
      </trkpt>
      <trkpt lat="43.19521" lon="0.34927">
        <ele>510.504098</ele>
        <time>2021-04-18T11:15:43.444Z</time>
      </trkpt>
      <trkpt lat="43.19513" lon="0.34936">
        <ele>512.351986</ele>
        <time>2021-04-18T11:15:46.400Z</time>
      </trkpt>
      <trkpt lat="43.19508" lon="0.34949">
        <ele>514.170866</ele>
        <time>2021-04-18T11:15:49.412Z</time>
      </trkpt>
      <trkpt lat="43.19505" lon="0.34962">
        <ele>515.883504</ele>
        <time>2021-04-18T11:15:52.363Z</time>
      </trkpt>
      <trkpt lat="43.19504" lon="0.34976">
        <ele>517.760383</ele>
        <time>2021-04-18T11:15:56.385Z</time>
      </trkpt>
      <trkpt lat="43.19502" lon="0.34989">
        <ele>519.384868</ele>
        <time>2021-04-18T11:16:00.418Z</time>
      </trkpt>
      <trkpt lat="43.19501" lon="0.35001">
        <ele>520.989628</ele>
        <time>2021-04-18T11:16:04.402Z</time>
      </trkpt>
      <trkpt lat="43.19498" lon="0.35015">
        <ele>522.861724</ele>
        <time>2021-04-18T11:16:09.394Z</time>
      </trkpt>
      <trkpt lat="43.19495" lon="0.3503">
        <ele>524.86116</ele>
        <time>2021-04-18T11:16:14.387Z</time>
      </trkpt>
      <trkpt lat="43.19494" lon="0.35046">
        <ele>526.826534</ele>
        <time>2021-04-18T11:16:18.387Z</time>
      </trkpt>
      <trkpt lat="43.19495" lon="0.3506">
        <ele>528.708273</ele>
        <time>2021-04-18T11:16:21.387Z</time>
      </trkpt>
      <trkpt lat="43.19497" lon="0.35074">
        <ele>530.483569</ele>
        <time>2021-04-18T11:16:24.401Z</time>
      </trkpt>
      <trkpt lat="43.19498" lon="0.35088">
        <ele>532.268719</ele>
        <time>2021-04-18T11:16:27.388Z</time>
      </trkpt>
      <trkpt lat="43.19498" lon="0.35103">
        <ele>534.172952</ele>
        <time>2021-04-18T11:16:31.388Z</time>
      </trkpt>
      <trkpt lat="43.19501" lon="0.35119">
        <ele>536.067797</ele>
        <time>2021-04-18T11:16:35.383Z</time>
      </trkpt>
      <trkpt lat="43.19501" lon="0.35133">
        <ele>537.314931</ele>
        <time>2021-04-18T11:16:38.388Z</time>
      </trkpt>
      <trkpt lat="43.19502" lon="0.35147">
        <ele>538.491663</ele>
        <time>2021-04-18T11:16:41.400Z</time>
      </trkpt>
      <trkpt lat="43.19503" lon="0.35161">
        <ele>539.752722</ele>
        <time>2021-04-18T11:16:44.402Z</time>
      </trkpt>
      <trkpt lat="43.19506" lon="0.35176">
        <ele>541.060365</ele>
        <time>2021-04-18T11:16:47.420Z</time>
      </trkpt>
      <trkpt lat="43.19508" lon="0.35189">
        <ele>542.210839</ele>
        <time>2021-04-18T11:16:51.415Z</time>
      </trkpt>
      <trkpt lat="43.19509" lon="0.35205">
        <ele>543.578707</ele>
        <time>2021-04-18T11:16:56.409Z</time>
      </trkpt>
      <trkpt lat="43.1951" lon="0.35221">
        <ele>544.997143</ele>
        <time>2021-04-18T11:17:00.399Z</time>
      </trkpt>
      <trkpt lat="43.1951" lon="0.35237">
        <ele>546.38887</ele>
        <time>2021-04-18T11:17:04.388Z</time>
      </trkpt>
      <trkpt lat="43.19509" lon="0.3525">
        <ele>547.470091</ele>
        <time>2021-04-18T11:17:08.385Z</time>
      </trkpt>
      <trkpt lat="43.19511" lon="0.35262">
        <ele>548.549534</ele>
        <time>2021-04-18T11:17:13.416Z</time>
      </trkpt>
      <trkpt lat="43.19509" lon="0.35276">
        <ele>549.731982</ele>
        <time>2021-04-18T11:17:18.386Z</time>
      </trkpt>
      <trkpt lat="43.1951" lon="0.35288">
        <ele>550.826018</ele>
        <time>2021-04-18T11:17:21.397Z</time>
      </trkpt>
      <trkpt lat="43.19511" lon="0.35301">
        <ele>551.898147</ele>
        <time>2021-04-18T11:17:23.400Z</time>
      </trkpt>
      <trkpt lat="43.1951" lon="0.35314">
        <ele>553.077203</ele>
        <time>2021-04-18T11:17:25.389Z</time>
      </trkpt>
      <trkpt lat="43.19507" lon="0.35329">
        <ele>554.345254</ele>
        <time>2021-04-18T11:17:27.404Z</time>
      </trkpt>
      <trkpt lat="43.19506" lon="0.35343">
        <ele>555.603858</ele>
        <time>2021-04-18T11:17:29.403Z</time>
      </trkpt>
      <trkpt lat="43.19506" lon="0.3536">
        <ele>556.967428</ele>
        <time>2021-04-18T11:17:31.418Z</time>
      </trkpt>
      <trkpt lat="43.19506" lon="0.35375">
        <ele>556.509639</ele>
        <time>2021-04-18T11:17:33.417Z</time>
      </trkpt>
      <trkpt lat="43.19506" lon="0.35388">
        <ele>556.105871</ele>
        <time>2021-04-18T11:17:35.388Z</time>
      </trkpt>
      <trkpt lat="43.19505" lon="0.35401">
        <ele>555.718158</ele>
        <time>2021-04-18T11:17:37.405Z</time>
      </trkpt>
      <trkpt lat="43.19502" lon="0.35414">
        <ele>555.306251</ele>
        <time>2021-04-18T11:17:39.391Z</time>
      </trkpt>
      <trkpt lat="43.19496" lon="0.35426">
        <ele>554.890508</ele>
        <time>2021-04-18T11:17:41.410Z</time>
      </trkpt>
      <trkpt lat="43.1949" lon="0.35435">
        <ele>554.497152</ele>
        <time>2021-04-18T11:17:43.391Z</time>
      </trkpt>
      <trkpt lat="43.1948" lon="0.3544">
        <ele>554.05744</ele>
        <time>2021-04-18T11:17:46.390Z</time>
      </trkpt>
      <trkpt lat="43.1947" lon="0.3544">
        <ele>553.644143</ele>
        <time>2021-04-18T11:17:49.413Z</time>
      </trkpt>
      <trkpt lat="43.19458" lon="0.35439">
        <ele>553.176345</ele>
        <time>2021-04-18T11:17:52.390Z</time>
      </trkpt>
      <trkpt lat="43.19447" lon="0.35439">
        <ele>552.730011</ele>
        <time>2021-04-18T11:17:55.403Z</time>
      </trkpt>
      <trkpt lat="43.19437" lon="0.35439">
        <ele>552.296067</ele>
        <time>2021-04-18T11:17:58.393Z</time>
      </trkpt>
      <trkpt lat="43.19427" lon="0.35437">
        <ele>551.874908</ele>
        <time>2021-04-18T11:18:01.411Z</time>
      </trkpt>
      <trkpt lat="43.19417" lon="0.35435">
        <ele>551.464166</ele>
        <time>2021-04-18T11:18:04.395Z</time>
      </trkpt>
      <trkpt lat="43.19408" lon="0.35433">
        <ele>551.072066</ele>
        <time>2021-04-18T11:18:07.391Z</time>
      </trkpt>
      <trkpt lat="43.19399" lon="0.35431">
        <ele>550.699961</ele>
        <time>2021-04-18T11:18:10.394Z</time>
      </trkpt>
      <trkpt lat="43.19389" lon="0.35429">
        <ele>550.311065</ele>
        <time>2021-04-18T11:18:13.405Z</time>
      </trkpt>
      <trkpt lat="43.1938" lon="0.35427">
        <ele>549.935324</ele>
        <time>2021-04-18T11:18:16.387Z</time>
      </trkpt>
      <trkpt lat="43.19369" lon="0.35425">
        <ele>549.636624</ele>
        <time>2021-04-18T11:18:20.392Z</time>
      </trkpt>
      <trkpt lat="43.19358" lon="0.35424">
        <ele>550.037598</ele>
        <time>2021-04-18T11:18:24.405Z</time>
      </trkpt>
      <trkpt lat="43.19348" lon="0.35422">
        <ele>550.373194</ele>
        <time>2021-04-18T11:18:28.400Z</time>
      </trkpt>
      <trkpt lat="43.19339" lon="0.35422">
        <ele>550.695458</ele>
        <time>2021-04-18T11:18:31.391Z</time>
      </trkpt>
      <trkpt lat="43.19329" lon="0.35422">
        <ele>551.042572</ele>
        <time>2021-04-18T11:18:34.405Z</time>
      </trkpt>
      <trkpt lat="43.1932" lon="0.35423">
        <ele>551.368578</ele>
        <time>2021-04-18T11:18:37.393Z</time>
      </trkpt>
      <trkpt lat="43.19311" lon="0.35423">
        <ele>551.701335</ele>
        <time>2021-04-18T11:18:41.412Z</time>
      </trkpt>
      <trkpt lat="43.19301" lon="0.35422">
        <ele>552.060167</ele>
        <time>2021-04-18T11:18:45.392Z</time>
      </trkpt>
      <trkpt lat="43.19291" lon="0.35422">
        <ele>552.382358</ele>
        <time>2021-04-18T11:18:48.390Z</time>
      </trkpt>
      <trkpt lat="43.1928" lon="0.35421">
        <ele>552.783158</ele>
        <time>2021-04-18T11:18:51.408Z</time>
      </trkpt>
      <trkpt lat="43.1927" lon="0.3542">
        <ele>553.128128</ele>
        <time>2021-04-18T11:18:54.392Z</time>
      </trkpt>
      <trkpt lat="43.19261" lon="0.35419">
        <ele>553.454593</ele>
        <time>2021-04-18T11:18:57.392Z</time>
      </trkpt>
      <trkpt lat="43.19251" lon="0.35419">
        <ele>553.808584</ele>
        <time>2021-04-18T11:19:00.394Z</time>
      </trkpt>
      <trkpt lat="43.19241" lon="0.35417">
        <ele>554.182522</ele>
        <time>2021-04-18T11:19:03.395Z</time>
      </trkpt>
      <trkpt lat="43.19231" lon="0.35416">
        <ele>554.545909</ele>
        <time>2021-04-18T11:19:06.391Z</time>
      </trkpt>
      <trkpt lat="43.1922" lon="0.35418">
        <ele>554.921127</ele>
        <time>2021-04-18T11:19:09.397Z</time>
      </trkpt>
      <trkpt lat="43.1921" lon="0.35421">
        <ele>555.284008</ele>
        <time>2021-04-18T11:19:12.396Z</time>
      </trkpt>
      <trkpt lat="43.19201" lon="0.35424">
        <ele>555.613096</ele>
        <time>2021-04-18T11:19:15.380Z</time>
      </trkpt>
      <trkpt lat="43.19192" lon="0.35428">
        <ele>555.973578</ele>
        <time>2021-04-18T11:19:18.394Z</time>
      </trkpt>
      <trkpt lat="43.1918" lon="0.35432">
        <ele>556.479284</ele>
        <time>2021-04-18T11:19:22.397Z</time>
      </trkpt>
      <trkpt lat="43.1917" lon="0.35437">
        <ele>556.936818</ele>
        <time>2021-04-18T11:19:26.392Z</time>
      </trkpt>
      <trkpt lat="43.19161" lon="0.35445">
        <ele>557.422807</ele>
        <time>2021-04-18T11:19:30.390Z</time>
      </trkpt>
      <trkpt lat="43.19153" lon="0.35452">
        <ele>557.824375</ele>
        <time>2021-04-18T11:19:33.393Z</time>
      </trkpt>
      <trkpt lat="43.19146" lon="0.35464">
        <ele>558.300128</ele>
        <time>2021-04-18T11:19:37.420Z</time>
      </trkpt>
      <trkpt lat="43.19141" lon="0.35478">
        <ele>558.792826</ele>
        <time>2021-04-18T11:19:41.390Z</time>
      </trkpt>
      <trkpt lat="43.19137" lon="0.3549">
        <ele>559.22293</ele>
        <time>2021-04-18T11:19:44.393Z</time>
      </trkpt>
      <trkpt lat="43.19134" lon="0.35504">
        <ele>559.65872</ele>
        <time>2021-04-18T11:19:47.411Z</time>
      </trkpt>
      <trkpt lat="43.19131" lon="0.35517">
        <ele>560.098887</ele>
        <time>2021-04-18T11:19:50.407Z</time>
      </trkpt>
      <trkpt lat="43.19128" lon="0.35529">
        <ele>560.516169</ele>
        <time>2021-04-18T11:19:53.399Z</time>
      </trkpt>
      <trkpt lat="43.19125" lon="0.35544">
        <ele>561.003754</ele>
        <time>2021-04-18T11:19:56.397Z</time>
      </trkpt>
      <trkpt lat="43.19122" lon="0.35559">
        <ele>561.491339</ele>
        <time>2021-04-18T11:19:58.397Z</time>
      </trkpt>
      <trkpt lat="43.19118" lon="0.35578">
        <ele>562.110312</ele>
        <time>2021-04-18T11:20:00.413Z</time>
      </trkpt>
      <trkpt lat="43.19113" lon="0.35598">
        <ele>562.762805</ele>
        <time>2021-04-18T11:20:02.398Z</time>
      </trkpt>
      <trkpt lat="43.19109" lon="0.35617">
        <ele>563.39867</ele>
        <time>2021-04-18T11:20:04.385Z</time>
      </trkpt>
      <trkpt lat="43.19104" lon="0.35635">
        <ele>563.793031</ele>
        <time>2021-04-18T11:20:06.403Z</time>
      </trkpt>
      <trkpt lat="43.191" lon="0.35654">
        <ele>563.977806</ele>
        <time>2021-04-18T11:20:08.391Z</time>
      </trkpt>
      <trkpt lat="43.19094" lon="0.35671">
        <ele>564.155561</ele>
        <time>2021-04-18T11:20:10.403Z</time>
      </trkpt>
      <trkpt lat="43.19088" lon="0.35682">
        <ele>564.290155</ele>
        <time>2021-04-18T11:20:12.369Z</time>
      </trkpt>
      <trkpt lat="43.19076" lon="0.35685">
        <ele>564.444906</ele>
        <time>2021-04-18T11:20:15.413Z</time>
      </trkpt>
      <trkpt lat="43.19067" lon="0.35684">
        <ele>564.571801</ele>
        <time>2021-04-18T11:20:20.402Z</time>
      </trkpt>
      <trkpt lat="43.19058" lon="0.35683">
        <ele>564.688752</ele>
        <time>2021-04-18T11:20:26.389Z</time>
      </trkpt>
      <trkpt lat="43.19047" lon="0.35682">
        <ele>564.824587</ele>
        <time>2021-04-18T11:20:32.377Z</time>
      </trkpt>
      <trkpt lat="43.19038" lon="0.35682">
        <ele>564.944489</ele>
        <time>2021-04-18T11:20:38.403Z</time>
      </trkpt>
      <trkpt lat="43.19028" lon="0.35681">
        <ele>565.075002</ele>
        <time>2021-04-18T11:20:45.401Z</time>
      </trkpt>
      <trkpt lat="43.19019" lon="0.35682">
        <ele>565.197656</ele>
        <time>2021-04-18T11:20:52.401Z</time>
      </trkpt>
      <trkpt lat="43.19009" lon="0.35681">
        <ele>565.322912</ele>
        <time>2021-04-18T11:20:58.407Z</time>
      </trkpt>
      <trkpt lat="43.18999" lon="0.35679">
        <ele>565.455612</ele>
        <time>2021-04-18T11:21:04.387Z</time>
      </trkpt>
      <trkpt lat="43.1899" lon="0.35676">
        <ele>565.579044</ele>
        <time>2021-04-18T11:21:09.418Z</time>
      </trkpt>
      <trkpt lat="43.1898" lon="0.35675">
        <ele>565.711407</ele>
        <time>2021-04-18T11:21:15.409Z</time>
      </trkpt>
      <trkpt lat="43.1897" lon="0.3567">
        <ele>565.842696</ele>
        <time>2021-04-18T11:21:22.389Z</time>
      </trkpt>
      <trkpt lat="43.18961" lon="0.35664">
        <ele>565.973494</ele>
        <time>2021-04-18T11:21:29.391Z</time>
      </trkpt>
      <trkpt lat="43.18952" lon="0.35659">
        <ele>566.095591</ele>
        <time>2021-04-18T11:21:36.390Z</time>
      </trkpt>
      <trkpt lat="43.18943" lon="0.35654">
        <ele>566.20655</ele>
        <time>2021-04-18T11:21:42.401Z</time>
      </trkpt>
      <trkpt lat="43.18934" lon="0.3565">
        <ele>566.330055</ele>
        <time>2021-04-18T11:21:47.394Z</time>
      </trkpt>
      <trkpt lat="43.18923" lon="0.35645">
        <ele>566.460058</ele>
        <time>2021-04-18T11:21:52.393Z</time>
      </trkpt>
      <trkpt lat="43.18915" lon="0.35642">
        <ele>566.568423</ele>
        <time>2021-04-18T11:21:56.389Z</time>
      </trkpt>
      <trkpt lat="43.18905" lon="0.35639">
        <ele>566.685536</ele>
        <time>2021-04-18T11:22:01.389Z</time>
      </trkpt>
      <trkpt lat="43.18896" lon="0.35638">
        <ele>566.796721</ele>
        <time>2021-04-18T11:22:06.403Z</time>
      </trkpt>
      <trkpt lat="43.18886" lon="0.35637">
        <ele>566.910255</ele>
        <time>2021-04-18T11:22:10.406Z</time>
      </trkpt>
      <trkpt lat="43.18876" lon="0.35637">
        <ele>567.034541</ele>
        <time>2021-04-18T11:22:14.390Z</time>
      </trkpt>
      <trkpt lat="43.18865" lon="0.35638">
        <ele>567.164946</ele>
        <time>2021-04-18T11:22:19.420Z</time>
      </trkpt>
      <trkpt lat="43.18854" lon="0.3564">
        <ele>567.302185</ele>
        <time>2021-04-18T11:22:23.390Z</time>
      </trkpt>
      <trkpt lat="43.18843" lon="0.35642">
        <ele>567.431911</ele>
        <time>2021-04-18T11:22:28.389Z</time>
      </trkpt>
      <trkpt lat="43.18831" lon="0.35644">
        <ele>567.570316</ele>
        <time>2021-04-18T11:22:32.392Z</time>
      </trkpt>
      <trkpt lat="43.18821" lon="0.35647">
        <ele>567.700832</ele>
        <time>2021-04-18T11:22:36.393Z</time>
      </trkpt>
      <trkpt lat="43.18811" lon="0.3565">
        <ele>567.822187</ele>
        <time>2021-04-18T11:22:40.407Z</time>
      </trkpt>
      <trkpt lat="43.18802" lon="0.35653">
        <ele>567.932671</ele>
        <time>2021-04-18T11:22:44.402Z</time>
      </trkpt>
      <trkpt lat="43.18791" lon="0.35657">
        <ele>568.060138</ele>
        <time>2021-04-18T11:22:49.410Z</time>
      </trkpt>
      <trkpt lat="43.18783" lon="0.35661">
        <ele>568.168737</ele>
        <time>2021-04-18T11:22:53.433Z</time>
      </trkpt>
      <trkpt lat="43.18774" lon="0.35664">
        <ele>568.351164</ele>
        <time>2021-04-18T11:22:57.403Z</time>
      </trkpt>
      <trkpt lat="43.18764" lon="0.35668">
        <ele>568.589385</ele>
        <time>2021-04-18T11:23:02.391Z</time>
      </trkpt>
      <trkpt lat="43.18753" lon="0.35672">
        <ele>568.824647</ele>
        <time>2021-04-18T11:23:06.377Z</time>
      </trkpt>
      <trkpt lat="43.18745" lon="0.35676">
        <ele>569.025325</ele>
        <time>2021-04-18T11:23:10.368Z</time>
      </trkpt>
      <trkpt lat="43.18734" lon="0.3568">
        <ele>569.268202</ele>
        <time>2021-04-18T11:23:15.393Z</time>
      </trkpt>
      <trkpt lat="43.18724" lon="0.35686">
        <ele>569.51404</ele>
        <time>2021-04-18T11:23:20.389Z</time>
      </trkpt>
      <trkpt lat="43.18715" lon="0.35691">
        <ele>569.728367</ele>
        <time>2021-04-18T11:23:24.388Z</time>
      </trkpt>
      <trkpt lat="43.18706" lon="0.35697">
        <ele>569.945887</ele>
        <time>2021-04-18T11:23:28.403Z</time>
      </trkpt>
      <trkpt lat="43.18696" lon="0.35704">
        <ele>570.193501</ele>
        <time>2021-04-18T11:23:32.408Z</time>
      </trkpt>
      <trkpt lat="43.18686" lon="0.3571">
        <ele>570.439156</ele>
        <time>2021-04-18T11:23:36.389Z</time>
      </trkpt>
      <trkpt lat="43.18677" lon="0.35714">
        <ele>570.641515</ele>
        <time>2021-04-18T11:23:40.389Z</time>
      </trkpt>
      <trkpt lat="43.18668" lon="0.35718">
        <ele>570.867375</ele>
        <time>2021-04-18T11:23:44.390Z</time>
      </trkpt>
      <trkpt lat="43.18657" lon="0.3572">
        <ele>571.112256</ele>
        <time>2021-04-18T11:23:48.393Z</time>
      </trkpt>
      <trkpt lat="43.18645" lon="0.35722">
        <ele>571.362045</ele>
        <time>2021-04-18T11:23:52.387Z</time>
      </trkpt>
      <trkpt lat="43.18635" lon="0.35724">
        <ele>571.599099</ele>
        <time>2021-04-18T11:23:56.420Z</time>
      </trkpt>
      <trkpt lat="43.18624" lon="0.35726">
        <ele>571.837166</ele>
        <time>2021-04-18T11:24:00.395Z</time>
      </trkpt>
      <trkpt lat="43.18614" lon="0.35726">
        <ele>572.05644</ele>
        <time>2021-04-18T11:24:04.388Z</time>
      </trkpt>
      <trkpt lat="43.18604" lon="0.35724">
        <ele>572.230942</ele>
        <time>2021-04-18T11:24:10.389Z</time>
      </trkpt>
      <trkpt lat="43.18594" lon="0.35725">
        <ele>572.338096</ele>
        <time>2021-04-18T11:24:15.398Z</time>
      </trkpt>
      <trkpt lat="43.18585" lon="0.35726">
        <ele>572.438448</ele>
        <time>2021-04-18T11:24:19.407Z</time>
      </trkpt>
      <trkpt lat="43.18575" lon="0.35727">
        <ele>572.544273</ele>
        <time>2021-04-18T11:24:24.390Z</time>
      </trkpt>
      <trkpt lat="43.18563" lon="0.35728">
        <ele>572.666277</ele>
        <time>2021-04-18T11:24:29.405Z</time>
      </trkpt>
      <trkpt lat="43.18554" lon="0.35729">
        <ele>572.766629</ele>
        <time>2021-04-18T11:24:33.391Z</time>
      </trkpt>
      <trkpt lat="43.18545" lon="0.35729">
        <ele>572.865756</ele>
        <time>2021-04-18T11:24:37.422Z</time>
      </trkpt>
      <trkpt lat="43.18535" lon="0.35727">
        <ele>572.974231</ele>
        <time>2021-04-18T11:24:41.393Z</time>
      </trkpt>
      <trkpt lat="43.18525" lon="0.35726">
        <ele>573.08441</ele>
        <time>2021-04-18T11:24:45.406Z</time>
      </trkpt>
      <trkpt lat="43.18515" lon="0.35726">
        <ele>573.186814</ele>
        <time>2021-04-18T11:24:49.408Z</time>
      </trkpt>
      <trkpt lat="43.18506" lon="0.35724">
        <ele>573.290751</ele>
        <time>2021-04-18T11:24:53.392Z</time>
      </trkpt>
      <trkpt lat="43.18496" lon="0.35724">
        <ele>573.391103</ele>
        <time>2021-04-18T11:24:57.407Z</time>
      </trkpt>
      <trkpt lat="43.18487" lon="0.3572">
        <ele>573.499795</ele>
        <time>2021-04-18T11:25:02.393Z</time>
      </trkpt>
      <trkpt lat="43.18478" lon="0.35712">
        <ele>573.608202</ele>
        <time>2021-04-18T11:25:09.408Z</time>
      </trkpt>
      <trkpt lat="43.18472" lon="0.35701">
        <ele>573.723305</ele>
        <time>2021-04-18T11:25:15.373Z</time>
      </trkpt>
      <trkpt lat="43.18465" lon="0.3569">
        <ele>573.830132</ele>
        <time>2021-04-18T11:25:20.408Z</time>
      </trkpt>
      <trkpt lat="43.1846" lon="0.35679">
        <ele>573.938079</ele>
        <time>2021-04-18T11:25:25.393Z</time>
      </trkpt>
      <trkpt lat="43.18454" lon="0.35666">
        <ele>574.054678</ele>
        <time>2021-04-18T11:25:30.397Z</time>
      </trkpt>
      <trkpt lat="43.18448" lon="0.35655">
        <ele>574.00852</ele>
        <time>2021-04-18T11:25:35.404Z</time>
      </trkpt>
      <trkpt lat="43.18441" lon="0.35644">
        <ele>573.778456</ele>
        <time>2021-04-18T11:25:40.397Z</time>
      </trkpt>
      <trkpt lat="43.18418" lon="0.35627">
        <ele>573.204486</ele>
        <time>2021-04-18T11:28:34.398Z</time>
      </trkpt>
      <trkpt lat="43.18409" lon="0.35625">
        <ele>573.00892</ele>
        <time>2021-04-18T11:28:38.415Z</time>
      </trkpt>
      <trkpt lat="43.18398" lon="0.35624">
        <ele>572.768995</ele>
        <time>2021-04-18T11:28:43.392Z</time>
      </trkpt>
      <trkpt lat="43.18389" lon="0.35623">
        <ele>572.568261</ele>
        <time>2021-04-18T11:28:47.446Z</time>
      </trkpt>
      <trkpt lat="43.18378" lon="0.35622">
        <ele>572.323349</ele>
        <time>2021-04-18T11:28:51.407Z</time>
      </trkpt>
      <trkpt lat="43.18369" lon="0.3562">
        <ele>572.121096</ele>
        <time>2021-04-18T11:28:54.392Z</time>
      </trkpt>
      <trkpt lat="43.18359" lon="0.35619">
        <ele>571.915138</ele>
        <time>2021-04-18T11:28:57.393Z</time>
      </trkpt>
      <trkpt lat="43.1835" lon="0.35617">
        <ele>571.711985</ele>
        <time>2021-04-18T11:29:00.391Z</time>
      </trkpt>
      <trkpt lat="43.1834" lon="0.35616">
        <ele>571.501516</ele>
        <time>2021-04-18T11:29:03.407Z</time>
      </trkpt>
      <trkpt lat="43.1833" lon="0.35614">
        <ele>571.277489</ele>
        <time>2021-04-18T11:29:06.398Z</time>
      </trkpt>
      <trkpt lat="43.1832" lon="0.35613">
        <ele>571.048042</ele>
        <time>2021-04-18T11:29:09.409Z</time>
      </trkpt>
      <trkpt lat="43.18309" lon="0.35612">
        <ele>570.827537</ele>
        <time>2021-04-18T11:29:12.393Z</time>
      </trkpt>
      <trkpt lat="43.183" lon="0.3561">
        <ele>570.621921</ele>
        <time>2021-04-18T11:29:15.407Z</time>
      </trkpt>
      <trkpt lat="43.18289" lon="0.35609">
        <ele>570.377009</ele>
        <time>2021-04-18T11:29:19.395Z</time>
      </trkpt>
      <trkpt lat="43.18279" lon="0.35606">
        <ele>570.243447</ele>
        <time>2021-04-18T11:29:23.395Z</time>
      </trkpt>
      <trkpt lat="43.18269" lon="0.35604">
        <ele>570.524901</ele>
        <time>2021-04-18T11:29:26.408Z</time>
      </trkpt>
      <trkpt lat="43.18259" lon="0.35603">
        <ele>570.80608</ele>
        <time>2021-04-18T11:29:29.394Z</time>
      </trkpt>
      <trkpt lat="43.18248" lon="0.35602">
        <ele>571.125986</ele>
        <time>2021-04-18T11:29:32.411Z</time>
      </trkpt>
      <trkpt lat="43.18238" lon="0.35601">
        <ele>571.412282</ele>
        <time>2021-04-18T11:29:35.393Z</time>
      </trkpt>
      <trkpt lat="43.18229" lon="0.356">
        <ele>571.670231</ele>
        <time>2021-04-18T11:29:38.382Z</time>
      </trkpt>
      <trkpt lat="43.18217" lon="0.35598">
        <ele>571.996008</ele>
        <time>2021-04-18T11:29:42.403Z</time>
      </trkpt>
      <trkpt lat="43.18209" lon="0.35595">
        <ele>572.250515</ele>
        <time>2021-04-18T11:29:45.381Z</time>
      </trkpt>
      <trkpt lat="43.18197" lon="0.35593">
        <ele>572.583616</ele>
        <time>2021-04-18T11:29:49.416Z</time>
      </trkpt>
      <trkpt lat="43.18185" lon="0.35591">
        <ele>572.919056</ele>
        <time>2021-04-18T11:29:53.400Z</time>
      </trkpt>
      <trkpt lat="43.18176" lon="0.35589">
        <ele>573.192003</ele>
        <time>2021-04-18T11:29:56.418Z</time>
      </trkpt>
      <trkpt lat="43.18166" lon="0.35588">
        <ele>573.453707</ele>
        <time>2021-04-18T11:29:59.402Z</time>
      </trkpt>
      <trkpt lat="43.18157" lon="0.35586">
        <ele>573.709568</ele>
        <time>2021-04-18T11:30:02.392Z</time>
      </trkpt>
      <trkpt lat="43.18146" lon="0.35584">
        <ele>574.04222</ele>
        <time>2021-04-18T11:30:06.406Z</time>
      </trkpt>
      <trkpt lat="43.18137" lon="0.35581">
        <ele>574.301841</ele>
        <time>2021-04-18T11:30:09.390Z</time>
      </trkpt>
      <trkpt lat="43.18127" lon="0.35579">
        <ele>574.587863</ele>
        <time>2021-04-18T11:30:12.370Z</time>
      </trkpt>
      <trkpt lat="43.18118" lon="0.35577">
        <ele>574.84876</ele>
        <time>2021-04-18T11:30:15.403Z</time>
      </trkpt>
      <trkpt lat="43.18109" lon="0.35575">
        <ele>575.112116</ele>
        <time>2021-04-18T11:30:18.444Z</time>
      </trkpt>
      <trkpt lat="43.181" lon="0.35572">
        <ele>575.335826</ele>
        <time>2021-04-18T11:30:21.391Z</time>
      </trkpt>
      <trkpt lat="43.1809" lon="0.35568">
        <ele>575.505829</ele>
        <time>2021-04-18T11:30:24.399Z</time>
      </trkpt>
      <trkpt lat="43.18079" lon="0.35565">
        <ele>575.676505</ele>
        <time>2021-04-18T11:30:27.387Z</time>
      </trkpt>
      <trkpt lat="43.18069" lon="0.35563">
        <ele>575.850425</ele>
        <time>2021-04-18T11:30:30.366Z</time>
      </trkpt>
      <trkpt lat="43.18059" lon="0.3556">
        <ele>576.023158</ele>
        <time>2021-04-18T11:30:33.405Z</time>
      </trkpt>
      <trkpt lat="43.18048" lon="0.35557">
        <ele>576.198466</ele>
        <time>2021-04-18T11:30:36.435Z</time>
      </trkpt>
      <trkpt lat="43.18037" lon="0.35555">
        <ele>576.37961</ele>
        <time>2021-04-18T11:30:39.423Z</time>
      </trkpt>
      <trkpt lat="43.18027" lon="0.35552">
        <ele>576.561612</ele>
        <time>2021-04-18T11:30:42.421Z</time>
      </trkpt>
      <trkpt lat="43.18016" lon="0.35549">
        <ele>576.734519</ele>
        <time>2021-04-18T11:30:45.392Z</time>
      </trkpt>
      <trkpt lat="43.18006" lon="0.35546">
        <ele>576.911293</ele>
        <time>2021-04-18T11:30:48.437Z</time>
      </trkpt>
      <trkpt lat="43.17995" lon="0.35544">
        <ele>577.087884</ele>
        <time>2021-04-18T11:30:51.396Z</time>
      </trkpt>
      <trkpt lat="43.17985" lon="0.35541">
        <ele>577.260617</ele>
        <time>2021-04-18T11:30:54.388Z</time>
      </trkpt>
      <trkpt lat="43.17975" lon="0.35538">
        <ele>577.434063</ele>
        <time>2021-04-18T11:30:57.447Z</time>
      </trkpt>
      <trkpt lat="43.17963" lon="0.35536">
        <ele>577.624623</ele>
        <time>2021-04-18T11:31:00.390Z</time>
      </trkpt>
      <trkpt lat="43.17954" lon="0.35533">
        <ele>577.773586</ele>
        <time>2021-04-18T11:31:02.389Z</time>
      </trkpt>
      <trkpt lat="43.17941" lon="0.3553">
        <ele>577.991581</ele>
        <time>2021-04-18T11:31:05.392Z</time>
      </trkpt>
      <trkpt lat="43.17928" lon="0.35528">
        <ele>578.209281</ele>
        <time>2021-04-18T11:31:08.389Z</time>
      </trkpt>
      <trkpt lat="43.17915" lon="0.35525">
        <ele>578.341457</ele>
        <time>2021-04-18T11:31:11.391Z</time>
      </trkpt>
      <trkpt lat="43.17903" lon="0.35523">
        <ele>578.449332</ele>
        <time>2021-04-18T11:31:14.422Z</time>
      </trkpt>
      <trkpt lat="43.17892" lon="0.35519">
        <ele>578.553726</ele>
        <time>2021-04-18T11:31:17.396Z</time>
      </trkpt>
      <trkpt lat="43.17882" lon="0.35515">
        <ele>578.648581</ele>
        <time>2021-04-18T11:31:20.395Z</time>
      </trkpt>
      <trkpt lat="43.17872" lon="0.35513">
        <ele>578.73435</ele>
        <time>2021-04-18T11:31:23.458Z</time>
      </trkpt>
      <trkpt lat="43.17861" lon="0.3551">
        <ele>578.833691</ele>
        <time>2021-04-18T11:31:26.394Z</time>
      </trkpt>
      <trkpt lat="43.1785" lon="0.35506">
        <ele>578.937138</ele>
        <time>2021-04-18T11:31:29.409Z</time>
      </trkpt>
      <trkpt lat="43.17838" lon="0.35502">
        <ele>579.045767</ele>
        <time>2021-04-18T11:31:32.400Z</time>
      </trkpt>
      <trkpt lat="43.17829" lon="0.35499">
        <ele>579.131492</ele>
        <time>2021-04-18T11:31:34.421Z</time>
      </trkpt>
      <trkpt lat="43.17816" lon="0.35494">
        <ele>579.252496</ele>
        <time>2021-04-18T11:31:37.390Z</time>
      </trkpt>
      <trkpt lat="43.17807" lon="0.35491">
        <ele>579.338387</ele>
        <time>2021-04-18T11:31:39.378Z</time>
      </trkpt>
      <trkpt lat="43.17794" lon="0.35486">
        <ele>579.457498</ele>
        <time>2021-04-18T11:31:42.415Z</time>
      </trkpt>
      <trkpt lat="43.17783" lon="0.35482">
        <ele>579.553029</ele>
        <time>2021-04-18T11:31:44.398Z</time>
      </trkpt>
      <trkpt lat="43.17772" lon="0.35477">
        <ele>579.663362</ele>
        <time>2021-04-18T11:31:46.413Z</time>
      </trkpt>
      <trkpt lat="43.1776" lon="0.35473">
        <ele>579.771289</ele>
        <time>2021-04-18T11:31:48.400Z</time>
      </trkpt>
      <trkpt lat="43.17749" lon="0.35469">
        <ele>579.818962</ele>
        <time>2021-04-18T11:31:50.417Z</time>
      </trkpt>
      <trkpt lat="43.17738" lon="0.35465">
        <ele>579.646287</ele>
        <time>2021-04-18T11:31:52.398Z</time>
      </trkpt>
      <trkpt lat="43.17728" lon="0.35461">
        <ele>579.480507</ele>
        <time>2021-04-18T11:31:54.398Z</time>
      </trkpt>
      <trkpt lat="43.17717" lon="0.35457">
        <ele>579.317667</ele>
        <time>2021-04-18T11:31:56.401Z</time>
      </trkpt>
      <trkpt lat="43.17708" lon="0.35454">
        <ele>579.171236</ele>
        <time>2021-04-18T11:31:58.412Z</time>
      </trkpt>
      <trkpt lat="43.17699" lon="0.35451">
        <ele>579.034586</ele>
        <time>2021-04-18T11:32:00.417Z</time>
      </trkpt>
      <trkpt lat="43.1769" lon="0.35449">
        <ele>578.893458</ele>
        <time>2021-04-18T11:32:02.386Z</time>
      </trkpt>
      <trkpt lat="43.1768" lon="0.35446">
        <ele>578.747253</ele>
        <time>2021-04-18T11:32:04.390Z</time>
      </trkpt>
      <trkpt lat="43.17668" lon="0.35441">
        <ele>578.558702</ele>
        <time>2021-04-18T11:32:07.371Z</time>
      </trkpt>
      <trkpt lat="43.17657" lon="0.35436">
        <ele>578.374423</ele>
        <time>2021-04-18T11:32:10.389Z</time>
      </trkpt>
      <trkpt lat="43.17644" lon="0.35432">
        <ele>578.181404</ele>
        <time>2021-04-18T11:32:13.395Z</time>
      </trkpt>
      <trkpt lat="43.17632" lon="0.35427">
        <ele>577.99272</ele>
        <time>2021-04-18T11:32:16.419Z</time>
      </trkpt>
      <trkpt lat="43.1762" lon="0.35423">
        <ele>577.803164</ele>
        <time>2021-04-18T11:32:19.435Z</time>
      </trkpt>
      <trkpt lat="43.17608" lon="0.35419">
        <ele>577.608956</ele>
        <time>2021-04-18T11:32:22.417Z</time>
      </trkpt>
      <trkpt lat="43.17595" lon="0.35414">
        <ele>577.413018</ele>
        <time>2021-04-18T11:32:25.418Z</time>
      </trkpt>
      <trkpt lat="43.17583" lon="0.35411">
        <ele>577.222011</ele>
        <time>2021-04-18T11:32:28.419Z</time>
      </trkpt>
      <trkpt lat="43.17571" lon="0.35406">
        <ele>577.237666</ele>
        <time>2021-04-18T11:32:31.416Z</time>
      </trkpt>
      <trkpt lat="43.17559" lon="0.35402">
        <ele>577.40625</ele>
        <time>2021-04-18T11:32:34.421Z</time>
      </trkpt>
      <trkpt lat="43.17548" lon="0.35397">
        <ele>577.571026</ele>
        <time>2021-04-18T11:32:37.388Z</time>
      </trkpt>
      <trkpt lat="43.17536" lon="0.35393">
        <ele>577.738246</ele>
        <time>2021-04-18T11:32:40.416Z</time>
      </trkpt>
      <trkpt lat="43.17525" lon="0.35389">
        <ele>577.907165</ele>
        <time>2021-04-18T11:32:43.385Z</time>
      </trkpt>
      <trkpt lat="43.17513" lon="0.35385">
        <ele>578.08339</ele>
        <time>2021-04-18T11:32:46.399Z</time>
      </trkpt>
      <trkpt lat="43.17501" lon="0.3538">
        <ele>578.260704</ele>
        <time>2021-04-18T11:32:49.413Z</time>
      </trkpt>
      <trkpt lat="43.17489" lon="0.35375">
        <ele>578.439142</ele>
        <time>2021-04-18T11:32:52.455Z</time>
      </trkpt>
      <trkpt lat="43.17478" lon="0.3537">
        <ele>578.604709</ele>
        <time>2021-04-18T11:32:55.420Z</time>
      </trkpt>
      <trkpt lat="43.17466" lon="0.35367">
        <ele>578.775033</ele>
        <time>2021-04-18T11:32:58.420Z</time>
      </trkpt>
      <trkpt lat="43.17454" lon="0.35363">
        <ele>578.946084</ele>
        <time>2021-04-18T11:33:01.386Z</time>
      </trkpt>
      <trkpt lat="43.17443" lon="0.35358">
        <ele>579.114137</ele>
        <time>2021-04-18T11:33:04.384Z</time>
      </trkpt>
      <trkpt lat="43.17431" lon="0.35355">
        <ele>579.280064</ele>
        <time>2021-04-18T11:33:07.388Z</time>
      </trkpt>
      <trkpt lat="43.17419" lon="0.3535">
        <ele>579.456594</ele>
        <time>2021-04-18T11:33:10.439Z</time>
      </trkpt>
      <trkpt lat="43.17407" lon="0.35346">
        <ele>579.631752</ele>
        <time>2021-04-18T11:33:13.416Z</time>
      </trkpt>
      <trkpt lat="43.17395" lon="0.35341">
        <ele>579.972261</ele>
        <time>2021-04-18T11:33:16.406Z</time>
      </trkpt>
      <trkpt lat="43.17384" lon="0.35337">
        <ele>580.369099</ele>
        <time>2021-04-18T11:33:19.375Z</time>
      </trkpt>
      <trkpt lat="43.17373" lon="0.35333">
        <ele>580.768542</ele>
        <time>2021-04-18T11:33:22.365Z</time>
      </trkpt>
      <trkpt lat="43.17362" lon="0.35329">
        <ele>581.167327</ele>
        <time>2021-04-18T11:33:25.420Z</time>
      </trkpt>
      <trkpt lat="43.17351" lon="0.35325">
        <ele>581.5465</ele>
        <time>2021-04-18T11:33:28.388Z</time>
      </trkpt>
      <trkpt lat="43.1734" lon="0.35321">
        <ele>581.919054</ele>
        <time>2021-04-18T11:33:31.403Z</time>
      </trkpt>
      <trkpt lat="43.1733" lon="0.35318">
        <ele>582.264945</ele>
        <time>2021-04-18T11:33:34.391Z</time>
      </trkpt>
      <trkpt lat="43.1732" lon="0.35316">
        <ele>582.632774</ele>
        <time>2021-04-18T11:33:37.396Z</time>
      </trkpt>
      <trkpt lat="43.17307" lon="0.35314">
        <ele>583.060395</ele>
        <time>2021-04-18T11:33:40.392Z</time>
      </trkpt>
      <trkpt lat="43.17295" lon="0.35313">
        <ele>583.472728</ele>
        <time>2021-04-18T11:33:43.390Z</time>
      </trkpt>
      <trkpt lat="43.17284" lon="0.35314">
        <ele>583.854347</ele>
        <time>2021-04-18T11:33:46.391Z</time>
      </trkpt>
      <trkpt lat="43.17273" lon="0.35315">
        <ele>584.234263</ele>
        <time>2021-04-18T11:33:49.409Z</time>
      </trkpt>
      <trkpt lat="43.17262" lon="0.35317">
        <ele>584.599939</ele>
        <time>2021-04-18T11:33:52.424Z</time>
      </trkpt>
      <trkpt lat="43.17251" lon="0.35317">
        <ele>584.968215</ele>
        <time>2021-04-18T11:33:55.395Z</time>
      </trkpt>
      <trkpt lat="43.17239" lon="0.35319">
        <ele>585.392219</ele>
        <time>2021-04-18T11:33:58.437Z</time>
      </trkpt>
      <trkpt lat="43.17227" lon="0.3532">
        <ele>585.802886</ele>
        <time>2021-04-18T11:34:01.399Z</time>
      </trkpt>
      <trkpt lat="43.17215" lon="0.35322">
        <ele>586.109596</ele>
        <time>2021-04-18T11:34:04.419Z</time>
      </trkpt>
      <trkpt lat="43.17205" lon="0.35324">
        <ele>586.38403</ele>
        <time>2021-04-18T11:34:07.398Z</time>
      </trkpt>
      <trkpt lat="43.17194" lon="0.35325">
        <ele>586.662619</ele>
        <time>2021-04-18T11:34:10.402Z</time>
      </trkpt>
      <trkpt lat="43.17184" lon="0.35327">
        <ele>586.932153</ele>
        <time>2021-04-18T11:34:13.419Z</time>
      </trkpt>
      <trkpt lat="43.17174" lon="0.35328">
        <ele>587.197658</ele>
        <time>2021-04-18T11:34:16.404Z</time>
      </trkpt>
      <trkpt lat="43.17163" lon="0.35329">
        <ele>587.467485</ele>
        <time>2021-04-18T11:34:19.457Z</time>
      </trkpt>
      <trkpt lat="43.17152" lon="0.3533">
        <ele>587.756111</ele>
        <time>2021-04-18T11:34:22.417Z</time>
      </trkpt>
      <trkpt lat="43.17142" lon="0.35331">
        <ele>588.014642</ele>
        <time>2021-04-18T11:34:25.403Z</time>
      </trkpt>
      <trkpt lat="43.17132" lon="0.35333">
        <ele>588.272757</ele>
        <time>2021-04-18T11:34:28.368Z</time>
      </trkpt>
      <trkpt lat="43.17121" lon="0.35335">
        <ele>588.557136</ele>
        <time>2021-04-18T11:34:31.392Z</time>
      </trkpt>
      <trkpt lat="43.17109" lon="0.35337">
        <ele>588.875366</ele>
        <time>2021-04-18T11:34:34.402Z</time>
      </trkpt>
      <trkpt lat="43.171" lon="0.35338">
        <ele>589.115228</ele>
        <time>2021-04-18T11:34:36.391Z</time>
      </trkpt>
      <trkpt lat="43.17087" lon="0.35341">
        <ele>589.469915</ele>
        <time>2021-04-18T11:34:39.401Z</time>
      </trkpt>
      <trkpt lat="43.17074" lon="0.35346">
        <ele>589.803245</ele>
        <time>2021-04-18T11:34:42.376Z</time>
      </trkpt>
      <trkpt lat="43.17062" lon="0.35348">
        <ele>590.111599</ele>
        <time>2021-04-18T11:34:45.398Z</time>
      </trkpt>
      <trkpt lat="43.17051" lon="0.35352">
        <ele>590.423195</ele>
        <time>2021-04-18T11:34:48.397Z</time>
      </trkpt>
      <trkpt lat="43.17038" lon="0.35355">
        <ele>590.568789</ele>
        <time>2021-04-18T11:34:51.403Z</time>
      </trkpt>
      <trkpt lat="43.17026" lon="0.35359">
        <ele>590.680632</ele>
        <time>2021-04-18T11:34:54.406Z</time>
      </trkpt>
      <trkpt lat="43.17015" lon="0.35362">
        <ele>590.787466</ele>
        <time>2021-04-18T11:34:57.389Z</time>
      </trkpt>
      <trkpt lat="43.17004" lon="0.35365">
        <ele>590.889189</ele>
        <time>2021-04-18T11:35:00.444Z</time>
      </trkpt>
      <trkpt lat="43.16992" lon="0.35368">
        <ele>590.99593</ele>
        <time>2021-04-18T11:35:03.415Z</time>
      </trkpt>
      <trkpt lat="43.16981" lon="0.35371">
        <ele>591.100094</ele>
        <time>2021-04-18T11:35:06.394Z</time>
      </trkpt>
      <trkpt lat="43.1697" lon="0.35374">
        <ele>591.204412</ele>
        <time>2021-04-18T11:35:09.375Z</time>
      </trkpt>
      <trkpt lat="43.16958" lon="0.35378">
        <ele>591.317761</ele>
        <time>2021-04-18T11:35:12.419Z</time>
      </trkpt>
      <trkpt lat="43.16946" lon="0.35381">
        <ele>591.427761</ele>
        <time>2021-04-18T11:35:15.399Z</time>
      </trkpt>
      <trkpt lat="43.16934" lon="0.35385">
        <ele>591.540793</ele>
        <time>2021-04-18T11:35:18.388Z</time>
      </trkpt>
      <trkpt lat="43.16925" lon="0.35388">
        <ele>591.624318</ele>
        <time>2021-04-18T11:35:20.387Z</time>
      </trkpt>
      <trkpt lat="43.16916" lon="0.35391">
        <ele>591.706067</ele>
        <time>2021-04-18T11:35:22.387Z</time>
      </trkpt>
      <trkpt lat="43.16903" lon="0.35394">
        <ele>591.829944</ele>
        <time>2021-04-18T11:35:25.386Z</time>
      </trkpt>
      <trkpt lat="43.16894" lon="0.35396">
        <ele>591.913083</ele>
        <time>2021-04-18T11:35:27.419Z</time>
      </trkpt>
      <trkpt lat="43.16885" lon="0.35399">
        <ele>591.995329</ele>
        <time>2021-04-18T11:35:29.403Z</time>
      </trkpt>
      <trkpt lat="43.16872" lon="0.35402">
        <ele>592.106751</ele>
        <time>2021-04-18T11:35:32.392Z</time>
      </trkpt>
      <trkpt lat="43.16859" lon="0.35406">
        <ele>592.091142</ele>
        <time>2021-04-18T11:35:35.429Z</time>
      </trkpt>
      <trkpt lat="43.16848" lon="0.35409">
        <ele>592.076416</ele>
        <time>2021-04-18T11:35:38.396Z</time>
      </trkpt>
      <trkpt lat="43.16835" lon="0.35412">
        <ele>592.060598</ele>
        <time>2021-04-18T11:35:41.392Z</time>
      </trkpt>
      <trkpt lat="43.16822" lon="0.35415">
        <ele>592.044643</ele>
        <time>2021-04-18T11:35:44.397Z</time>
      </trkpt>
      <trkpt lat="43.16811" lon="0.35417">
        <ele>592.029821</ele>
        <time>2021-04-18T11:35:47.426Z</time>
      </trkpt>
      <trkpt lat="43.16798" lon="0.35421">
        <ele>592.013877</ele>
        <time>2021-04-18T11:35:50.407Z</time>
      </trkpt>
      <trkpt lat="43.16786" lon="0.35424">
        <ele>591.999047</ele>
        <time>2021-04-18T11:35:53.412Z</time>
      </trkpt>
      <trkpt lat="43.16774" lon="0.35429">
        <ele>591.98302</ele>
        <time>2021-04-18T11:35:56.397Z</time>
      </trkpt>
      <trkpt lat="43.16761" lon="0.35434">
        <ele>591.966401</ele>
        <time>2021-04-18T11:35:59.391Z</time>
      </trkpt>
      <trkpt lat="43.1675" lon="0.35439">
        <ele>591.952623</ele>
        <time>2021-04-18T11:36:01.409Z</time>
      </trkpt>
      <trkpt lat="43.16741" lon="0.35441">
        <ele>591.941383</ele>
        <time>2021-04-18T11:36:03.392Z</time>
      </trkpt>
      <trkpt lat="43.16732" lon="0.35444">
        <ele>591.930098</ele>
        <time>2021-04-18T11:36:05.418Z</time>
      </trkpt>
      <trkpt lat="43.16723" lon="0.35445">
        <ele>591.918884</ele>
        <time>2021-04-18T11:36:07.411Z</time>
      </trkpt>
      <trkpt lat="43.16714" lon="0.35447">
        <ele>591.90763</ele>
        <time>2021-04-18T11:36:09.368Z</time>
      </trkpt>
      <trkpt lat="43.16701" lon="0.3545">
        <ele>591.891616</ele>
        <time>2021-04-18T11:36:12.391Z</time>
      </trkpt>
      <trkpt lat="43.16689" lon="0.35452">
        <ele>591.818192</ele>
        <time>2021-04-18T11:36:15.378Z</time>
      </trkpt>
      <trkpt lat="43.16676" lon="0.35454">
        <ele>591.710923</ele>
        <time>2021-04-18T11:36:18.407Z</time>
      </trkpt>
      <trkpt lat="43.16663" lon="0.35456">
        <ele>591.608756</ele>
        <time>2021-04-18T11:36:21.397Z</time>
      </trkpt>
      <trkpt lat="43.16651" lon="0.35458">
        <ele>591.50867</ele>
        <time>2021-04-18T11:36:24.412Z</time>
      </trkpt>
      <trkpt lat="43.16642" lon="0.35459">
        <ele>591.433651</ele>
        <time>2021-04-18T11:36:26.431Z</time>
      </trkpt>
      <trkpt lat="43.1663" lon="0.3546">
        <ele>591.326339</ele>
        <time>2021-04-18T11:36:29.397Z</time>
      </trkpt>
      <trkpt lat="43.16621" lon="0.35461">
        <ele>591.251376</ele>
        <time>2021-04-18T11:36:31.387Z</time>
      </trkpt>
      <trkpt lat="43.16609" lon="0.35462">
        <ele>591.153328</ele>
        <time>2021-04-18T11:36:34.414Z</time>
      </trkpt>
      <trkpt lat="43.16598" lon="0.3546">
        <ele>591.060597</ele>
        <time>2021-04-18T11:36:37.392Z</time>
      </trkpt>
      <trkpt lat="43.16587" lon="0.35459">
        <ele>590.970475</ele>
        <time>2021-04-18T11:36:40.399Z</time>
      </trkpt>
      <trkpt lat="43.16573" lon="0.35455">
        <ele>590.854859</ele>
        <time>2021-04-18T11:36:43.413Z</time>
      </trkpt>
      <trkpt lat="43.16564" lon="0.35453">
        <ele>590.773556</ele>
        <time>2021-04-18T11:36:45.418Z</time>
      </trkpt>
      <trkpt lat="43.16554" lon="0.3545">
        <ele>590.695239</ele>
        <time>2021-04-18T11:36:47.383Z</time>
      </trkpt>
      <trkpt lat="43.16545" lon="0.35447">
        <ele>590.616728</ele>
        <time>2021-04-18T11:36:49.392Z</time>
      </trkpt>
      <trkpt lat="43.16536" lon="0.35445">
        <ele>590.53961</ele>
        <time>2021-04-18T11:36:51.392Z</time>
      </trkpt>
      <trkpt lat="43.16524" lon="0.3544">
        <ele>590.440073</ele>
        <time>2021-04-18T11:36:54.412Z</time>
      </trkpt>
      <trkpt lat="43.16516" lon="0.35437">
        <ele>590.348514</ele>
        <time>2021-04-18T11:36:56.392Z</time>
      </trkpt>
      <trkpt lat="43.16507" lon="0.35433">
        <ele>590.224569</ele>
        <time>2021-04-18T11:36:58.427Z</time>
      </trkpt>
      <trkpt lat="43.16495" lon="0.35428">
        <ele>590.064209</ele>
        <time>2021-04-18T11:37:01.411Z</time>
      </trkpt>
      <trkpt lat="43.16486" lon="0.35424">
        <ele>589.946115</ele>
        <time>2021-04-18T11:37:03.411Z</time>
      </trkpt>
      <trkpt lat="43.16477" lon="0.35419">
        <ele>589.814133</ele>
        <time>2021-04-18T11:37:05.401Z</time>
      </trkpt>
      <trkpt lat="43.16467" lon="0.35412">
        <ele>589.672884</ele>
        <time>2021-04-18T11:37:07.386Z</time>
      </trkpt>
      <trkpt lat="43.16459" lon="0.35405">
        <ele>589.544895</ele>
        <time>2021-04-18T11:37:09.401Z</time>
      </trkpt>
      <trkpt lat="43.1645" lon="0.35398">
        <ele>589.419571</ele>
        <time>2021-04-18T11:37:11.400Z</time>
      </trkpt>
      <trkpt lat="43.16442" lon="0.35392">
        <ele>589.294</ele>
        <time>2021-04-18T11:37:13.417Z</time>
      </trkpt>
      <trkpt lat="43.16431" lon="0.35385">
        <ele>589.135904</ele>
        <time>2021-04-18T11:37:16.419Z</time>
      </trkpt>
      <trkpt lat="43.16419" lon="0.35378">
        <ele>588.972522</ele>
        <time>2021-04-18T11:37:19.388Z</time>
      </trkpt>
      <trkpt lat="43.16408" lon="0.35373">
        <ele>588.820333</ele>
        <time>2021-04-18T11:37:22.414Z</time>
      </trkpt>
      <trkpt lat="43.16396" lon="0.35367">
        <ele>588.660216</ele>
        <time>2021-04-18T11:37:25.387Z</time>
      </trkpt>
      <trkpt lat="43.16385" lon="0.35362">
        <ele>588.505007</ele>
        <time>2021-04-18T11:37:28.395Z</time>
      </trkpt>
      <trkpt lat="43.16377" lon="0.35357">
        <ele>588.388534</ele>
        <time>2021-04-18T11:37:30.391Z</time>
      </trkpt>
      <trkpt lat="43.16368" lon="0.35352">
        <ele>588.270862</ele>
        <time>2021-04-18T11:37:32.391Z</time>
      </trkpt>
      <trkpt lat="43.16357" lon="0.35348">
        <ele>588.112464</ele>
        <time>2021-04-18T11:37:35.406Z</time>
      </trkpt>
      <trkpt lat="43.16346" lon="0.35342">
        <ele>588.208512</ele>
        <time>2021-04-18T11:37:38.417Z</time>
      </trkpt>
      <trkpt lat="43.16336" lon="0.35337">
        <ele>588.436959</ele>
        <time>2021-04-18T11:37:41.393Z</time>
      </trkpt>
      <trkpt lat="43.16325" lon="0.35331">
        <ele>588.683369</ele>
        <time>2021-04-18T11:37:44.393Z</time>
      </trkpt>
      <trkpt lat="43.16315" lon="0.35326">
        <ele>588.91521</ele>
        <time>2021-04-18T11:37:47.410Z</time>
      </trkpt>
      <trkpt lat="43.16306" lon="0.3532">
        <ele>589.115437</ele>
        <time>2021-04-18T11:37:50.438Z</time>
      </trkpt>
      <trkpt lat="43.16295" lon="0.35311">
        <ele>589.380357</ele>
        <time>2021-04-18T11:37:53.392Z</time>
      </trkpt>
      <trkpt lat="43.16284" lon="0.35304">
        <ele>589.6471</ele>
        <time>2021-04-18T11:37:56.371Z</time>
      </trkpt>
      <trkpt lat="43.16273" lon="0.35297">
        <ele>589.890919</ele>
        <time>2021-04-18T11:37:59.405Z</time>
      </trkpt>
      <trkpt lat="43.16264" lon="0.35292">
        <ele>590.104368</ele>
        <time>2021-04-18T11:38:02.392Z</time>
      </trkpt>
      <trkpt lat="43.16254" lon="0.35287">
        <ele>590.316409</ele>
        <time>2021-04-18T11:38:05.395Z</time>
      </trkpt>
      <trkpt lat="43.16245" lon="0.35282">
        <ele>590.517271</ele>
        <time>2021-04-18T11:38:08.406Z</time>
      </trkpt>
      <trkpt lat="43.16235" lon="0.35275">
        <ele>590.761131</ele>
        <time>2021-04-18T11:38:12.395Z</time>
      </trkpt>
      <trkpt lat="43.16225" lon="0.3527">
        <ele>590.991243</ele>
        <time>2021-04-18T11:38:16.409Z</time>
      </trkpt>
      <trkpt lat="43.16214" lon="0.35265">
        <ele>591.223639</ele>
        <time>2021-04-18T11:38:19.393Z</time>
      </trkpt>
      <trkpt lat="43.16203" lon="0.35261">
        <ele>591.455588</ele>
        <time>2021-04-18T11:38:23.375Z</time>
      </trkpt>
      <trkpt lat="43.16193" lon="0.35258">
        <ele>591.674395</ele>
        <time>2021-04-18T11:38:25.400Z</time>
      </trkpt>
      <trkpt lat="43.16181" lon="0.35256">
        <ele>591.816771</ele>
        <time>2021-04-18T11:38:27.409Z</time>
      </trkpt>
      <trkpt lat="43.1617" lon="0.35254">
        <ele>591.790276</ele>
        <time>2021-04-18T11:38:29.397Z</time>
      </trkpt>
      <trkpt lat="43.16159" lon="0.35253">
        <ele>591.764812</ele>
        <time>2021-04-18T11:38:31.411Z</time>
      </trkpt>
      <trkpt lat="43.16147" lon="0.35253">
        <ele>591.736863</ele>
        <time>2021-04-18T11:38:33.437Z</time>
      </trkpt>
      <trkpt lat="43.16137" lon="0.35252">
        <ele>591.713081</ele>
        <time>2021-04-18T11:38:35.395Z</time>
      </trkpt>
      <trkpt lat="43.16127" lon="0.35252">
        <ele>591.689984</ele>
        <time>2021-04-18T11:38:37.406Z</time>
      </trkpt>
      <trkpt lat="43.16117" lon="0.35251">
        <ele>591.668171</ele>
        <time>2021-04-18T11:38:39.391Z</time>
      </trkpt>
      <trkpt lat="43.16108" lon="0.3525">
        <ele>591.646905</ele>
        <time>2021-04-18T11:38:41.410Z</time>
      </trkpt>
      <trkpt lat="43.16099" lon="0.3525">
        <ele>591.625662</ele>
        <time>2021-04-18T11:38:43.395Z</time>
      </trkpt>
      <trkpt lat="43.1609" lon="0.35251">
        <ele>591.604418</ele>
        <time>2021-04-18T11:38:45.438Z</time>
      </trkpt>
      <trkpt lat="43.16078" lon="0.35252">
        <ele>591.576528</ele>
        <time>2021-04-18T11:38:48.411Z</time>
      </trkpt>
      <trkpt lat="43.16066" lon="0.35255">
        <ele>591.550584</ele>
        <time>2021-04-18T11:38:51.415Z</time>
      </trkpt>
      <trkpt lat="43.16055" lon="0.35257">
        <ele>591.524689</ele>
        <time>2021-04-18T11:38:54.410Z</time>
      </trkpt>
      <trkpt lat="43.16045" lon="0.3526">
        <ele>591.500055</ele>
        <time>2021-04-18T11:38:57.408Z</time>
      </trkpt>
      <trkpt lat="43.16035" lon="0.35262">
        <ele>591.47704</ele>
        <time>2021-04-18T11:39:00.395Z</time>
      </trkpt>
      <trkpt lat="43.16024" lon="0.35264">
        <ele>591.452189</ele>
        <time>2021-04-18T11:39:03.397Z</time>
      </trkpt>
      <trkpt lat="43.16014" lon="0.35265">
        <ele>591.427632</ele>
        <time>2021-04-18T11:39:06.399Z</time>
      </trkpt>
      <trkpt lat="43.16002" lon="0.35266">
        <ele>591.573131</ele>
        <time>2021-04-18T11:39:09.422Z</time>
      </trkpt>
      <trkpt lat="43.15991" lon="0.35268">
        <ele>591.958862</ele>
        <time>2021-04-18T11:39:12.398Z</time>
      </trkpt>
      <trkpt lat="43.1598" lon="0.3527">
        <ele>592.31759</ele>
        <time>2021-04-18T11:39:15.395Z</time>
      </trkpt>
      <trkpt lat="43.1597" lon="0.35272">
        <ele>592.644095</ele>
        <time>2021-04-18T11:39:18.398Z</time>
      </trkpt>
      <trkpt lat="43.1596" lon="0.35274">
        <ele>592.99592</ele>
        <time>2021-04-18T11:39:21.407Z</time>
      </trkpt>
      <trkpt lat="43.15949" lon="0.35276">
        <ele>593.344758</ele>
        <time>2021-04-18T11:39:24.408Z</time>
      </trkpt>
      <trkpt lat="43.15939" lon="0.35278">
        <ele>593.680418</ele>
        <time>2021-04-18T11:39:27.393Z</time>
      </trkpt>
      <trkpt lat="43.15929" lon="0.3528">
        <ele>594.033953</ele>
        <time>2021-04-18T11:39:30.398Z</time>
      </trkpt>
      <trkpt lat="43.15918" lon="0.35283">
        <ele>594.394439</ele>
        <time>2021-04-18T11:39:33.394Z</time>
      </trkpt>
      <trkpt lat="43.15907" lon="0.35284">
        <ele>594.779278</ele>
        <time>2021-04-18T11:39:36.408Z</time>
      </trkpt>
      <trkpt lat="43.15895" lon="0.35286">
        <ele>595.174304</ele>
        <time>2021-04-18T11:39:39.395Z</time>
      </trkpt>
      <trkpt lat="43.15883" lon="0.35289">
        <ele>595.563656</ele>
        <time>2021-04-18T11:39:42.395Z</time>
      </trkpt>
      <trkpt lat="43.15874" lon="0.35291">
        <ele>595.886877</ele>
        <time>2021-04-18T11:39:45.395Z</time>
      </trkpt>
      <trkpt lat="43.15863" lon="0.35292">
        <ele>596.234829</ele>
        <time>2021-04-18T11:39:48.399Z</time>
      </trkpt>
      <trkpt lat="43.15852" lon="0.35293">
        <ele>596.601531</ele>
        <time>2021-04-18T11:39:51.400Z</time>
      </trkpt>
      <trkpt lat="43.15841" lon="0.35295">
        <ele>596.982303</ele>
        <time>2021-04-18T11:39:54.385Z</time>
      </trkpt>
      <trkpt lat="43.1583" lon="0.35296">
        <ele>597.353147</ele>
        <time>2021-04-18T11:39:57.387Z</time>
      </trkpt>
      <trkpt lat="43.15819" lon="0.35298">
        <ele>597.445179</ele>
        <time>2021-04-18T11:40:00.389Z</time>
      </trkpt>
      <trkpt lat="43.15808" lon="0.353">
        <ele>597.503617</ele>
        <time>2021-04-18T11:40:03.375Z</time>
      </trkpt>
      <trkpt lat="43.15798" lon="0.35301">
        <ele>597.561515</ele>
        <time>2021-04-18T11:40:06.389Z</time>
      </trkpt>
      <trkpt lat="43.15787" lon="0.35303">
        <ele>597.618558</ele>
        <time>2021-04-18T11:40:09.394Z</time>
      </trkpt>
      <trkpt lat="43.15777" lon="0.35305">
        <ele>597.676308</ele>
        <time>2021-04-18T11:40:12.438Z</time>
      </trkpt>
      <trkpt lat="43.15767" lon="0.35306">
        <ele>597.730793</ele>
        <time>2021-04-18T11:40:15.402Z</time>
      </trkpt>
      <trkpt lat="43.15756" lon="0.35307">
        <ele>597.788535</ele>
        <time>2021-04-18T11:40:18.398Z</time>
      </trkpt>
      <trkpt lat="43.15746" lon="0.35309">
        <ele>597.845093</ele>
        <time>2021-04-18T11:40:21.389Z</time>
      </trkpt>
      <trkpt lat="43.15735" lon="0.3531">
        <ele>597.905572</ele>
        <time>2021-04-18T11:40:24.401Z</time>
      </trkpt>
      <trkpt lat="43.15722" lon="0.35309">
        <ele>597.975748</ele>
        <time>2021-04-18T11:40:27.402Z</time>
      </trkpt>
      <trkpt lat="43.1571" lon="0.35308">
        <ele>598.042196</ele>
        <time>2021-04-18T11:40:30.462Z</time>
      </trkpt>
      <trkpt lat="43.15699" lon="0.35309">
        <ele>598.099289</ele>
        <time>2021-04-18T11:40:33.419Z</time>
      </trkpt>
      <trkpt lat="43.15689" lon="0.35308">
        <ele>598.154374</ele>
        <time>2021-04-18T11:40:36.393Z</time>
      </trkpt>
      <trkpt lat="43.15678" lon="0.35306">
        <ele>598.21686</ele>
        <time>2021-04-18T11:40:39.391Z</time>
      </trkpt>
      <trkpt lat="43.15666" lon="0.35303">
        <ele>598.279508</ele>
        <time>2021-04-18T11:40:42.408Z</time>
      </trkpt>
      <trkpt lat="43.15655" lon="0.35301">
        <ele>598.343072</ele>
        <time>2021-04-18T11:40:45.390Z</time>
      </trkpt>
      <trkpt lat="43.15643" lon="0.353">
        <ele>598.507731</ele>
        <time>2021-04-18T11:40:48.401Z</time>
      </trkpt>
      <trkpt lat="43.15631" lon="0.35299">
        <ele>598.726659</ele>
        <time>2021-04-18T11:40:51.395Z</time>
      </trkpt>
      <trkpt lat="43.1562" lon="0.35297">
        <ele>598.938417</ele>
        <time>2021-04-18T11:40:54.396Z</time>
      </trkpt>
      <trkpt lat="43.15609" lon="0.35296">
        <ele>599.155344</ele>
        <time>2021-04-18T11:40:57.393Z</time>
      </trkpt>
      <trkpt lat="43.15597" lon="0.35296">
        <ele>599.369754</ele>
        <time>2021-04-18T11:41:00.395Z</time>
      </trkpt>
      <trkpt lat="43.15586" lon="0.35297">
        <ele>599.582794</ele>
        <time>2021-04-18T11:41:03.395Z</time>
      </trkpt>
      <trkpt lat="43.15575" lon="0.35299">
        <ele>599.793908</ele>
        <time>2021-04-18T11:41:06.398Z</time>
      </trkpt>
      <trkpt lat="43.15564" lon="0.35303">
        <ele>600.006256</ele>
        <time>2021-04-18T11:41:09.393Z</time>
      </trkpt>
      <trkpt lat="43.15555" lon="0.3531">
        <ele>600.21281</ele>
        <time>2021-04-18T11:41:12.393Z</time>
      </trkpt>
      <trkpt lat="43.15545" lon="0.35316">
        <ele>600.407823</ele>
        <time>2021-04-18T11:41:15.398Z</time>
      </trkpt>
      <trkpt lat="43.15536" lon="0.35322">
        <ele>600.599408</ele>
        <time>2021-04-18T11:41:18.372Z</time>
      </trkpt>
      <trkpt lat="43.15527" lon="0.35328">
        <ele>600.789064</ele>
        <time>2021-04-18T11:41:21.387Z</time>
      </trkpt>
      <trkpt lat="43.15518" lon="0.35335">
        <ele>600.985044</ele>
        <time>2021-04-18T11:41:24.438Z</time>
      </trkpt>
      <trkpt lat="43.15509" lon="0.35341">
        <ele>601.179471</ele>
        <time>2021-04-18T11:41:27.417Z</time>
      </trkpt>
      <trkpt lat="43.15499" lon="0.35348">
        <ele>601.395187</ele>
        <time>2021-04-18T11:41:31.415Z</time>
      </trkpt>
      <trkpt lat="43.15488" lon="0.35353">
        <ele>601.60522</ele>
        <time>2021-04-18T11:41:35.399Z</time>
      </trkpt>
      <trkpt lat="43.15478" lon="0.35359">
        <ele>601.901008</ele>
        <time>2021-04-18T11:41:39.417Z</time>
      </trkpt>
      <trkpt lat="43.15468" lon="0.35367">
        <ele>602.524478</ele>
        <time>2021-04-18T11:41:43.387Z</time>
      </trkpt>
      <trkpt lat="43.15458" lon="0.35375">
        <ele>603.136407</ele>
        <time>2021-04-18T11:41:47.402Z</time>
      </trkpt>
      <trkpt lat="43.15448" lon="0.35383">
        <ele>603.765435</ele>
        <time>2021-04-18T11:41:51.388Z</time>
      </trkpt>
      <trkpt lat="43.15438" lon="0.35391">
        <ele>604.370996</ele>
        <time>2021-04-18T11:41:55.418Z</time>
      </trkpt>
      <trkpt lat="43.15429" lon="0.35397">
        <ele>604.892409</ele>
        <time>2021-04-18T11:41:58.440Z</time>
      </trkpt>
      <trkpt lat="43.15419" lon="0.35404">
        <ele>605.496607</ele>
        <time>2021-04-18T11:42:02.386Z</time>
      </trkpt>
      <trkpt lat="43.1541" lon="0.35411">
        <ele>606.070779</ele>
        <time>2021-04-18T11:42:06.372Z</time>
      </trkpt>
      <trkpt lat="43.154" lon="0.35417">
        <ele>606.661867</ele>
        <time>2021-04-18T11:42:10.401Z</time>
      </trkpt>
      <trkpt lat="43.15391" lon="0.35424">
        <ele>607.200142</ele>
        <time>2021-04-18T11:42:14.391Z</time>
      </trkpt>
      <trkpt lat="43.15382" lon="0.3543">
        <ele>607.764844</ele>
        <time>2021-04-18T11:42:18.391Z</time>
      </trkpt>
      <trkpt lat="43.15373" lon="0.35436">
        <ele>608.316748</ele>
        <time>2021-04-18T11:42:22.409Z</time>
      </trkpt>
      <trkpt lat="43.15363" lon="0.35442">
        <ele>608.894735</ele>
        <time>2021-04-18T11:42:26.393Z</time>
      </trkpt>
      <trkpt lat="43.15354" lon="0.35449">
        <ele>609.467064</ele>
        <time>2021-04-18T11:42:30.390Z</time>
      </trkpt>
      <trkpt lat="43.15344" lon="0.35456">
        <ele>610.027414</ele>
        <time>2021-04-18T11:42:34.409Z</time>
      </trkpt>
      <trkpt lat="43.15335" lon="0.35462">
        <ele>610.614079</ele>
        <time>2021-04-18T11:42:38.393Z</time>
      </trkpt>
      <trkpt lat="43.15325" lon="0.35468">
        <ele>611.182215</ele>
        <time>2021-04-18T11:42:42.415Z</time>
      </trkpt>
      <trkpt lat="43.15315" lon="0.35473">
        <ele>611.568012</ele>
        <time>2021-04-18T11:42:46.428Z</time>
      </trkpt>
      <trkpt lat="43.15305" lon="0.35477">
        <ele>611.762944</ele>
        <time>2021-04-18T11:42:50.393Z</time>
      </trkpt>
      <trkpt lat="43.15296" lon="0.35482">
        <ele>611.957367</ele>
        <time>2021-04-18T11:42:54.371Z</time>
      </trkpt>
      <trkpt lat="43.15285" lon="0.35486">
        <ele>612.175111</ele>
        <time>2021-04-18T11:42:58.392Z</time>
      </trkpt>
      <trkpt lat="43.15274" lon="0.35491">
        <ele>612.397995</ele>
        <time>2021-04-18T11:43:02.394Z</time>
      </trkpt>
      <trkpt lat="43.15262" lon="0.35496">
        <ele>612.625112</ele>
        <time>2021-04-18T11:43:06.396Z</time>
      </trkpt>
      <trkpt lat="43.15251" lon="0.35499">
        <ele>612.84284</ele>
        <time>2021-04-18T11:43:10.393Z</time>
      </trkpt>
      <trkpt lat="43.15241" lon="0.35504">
        <ele>613.056329</ele>
        <time>2021-04-18T11:43:14.392Z</time>
      </trkpt>
      <trkpt lat="43.1523" lon="0.3551">
        <ele>613.282036</ele>
        <time>2021-04-18T11:43:18.378Z</time>
      </trkpt>
      <trkpt lat="43.15218" lon="0.35513">
        <ele>613.503478</ele>
        <time>2021-04-18T11:43:22.390Z</time>
      </trkpt>
      <trkpt lat="43.1521" lon="0.35516">
        <ele>613.677571</ele>
        <time>2021-04-18T11:43:25.372Z</time>
      </trkpt>
      <trkpt lat="43.152" lon="0.35519">
        <ele>613.869091</ele>
        <time>2021-04-18T11:43:28.409Z</time>
      </trkpt>
      <trkpt lat="43.15188" lon="0.35524">
        <ele>614.11575</ele>
        <time>2021-04-18T11:43:31.400Z</time>
      </trkpt>
      <trkpt lat="43.15176" lon="0.35529">
        <ele>614.350187</ele>
        <time>2021-04-18T11:43:34.390Z</time>
      </trkpt>
      <trkpt lat="43.15167" lon="0.35533">
        <ele>614.523936</ele>
        <time>2021-04-18T11:43:36.402Z</time>
      </trkpt>
      <trkpt lat="43.15157" lon="0.35536">
        <ele>614.731634</ele>
        <time>2021-04-18T11:43:38.410Z</time>
      </trkpt>
      <trkpt lat="43.15146" lon="0.3554">
        <ele>614.936485</ele>
        <time>2021-04-18T11:43:40.407Z</time>
      </trkpt>
      <trkpt lat="43.15136" lon="0.35544">
        <ele>615.069866</ele>
        <time>2021-04-18T11:43:42.389Z</time>
      </trkpt>
      <trkpt lat="43.15127" lon="0.35548">
        <ele>615.192199</ele>
        <time>2021-04-18T11:43:44.415Z</time>
      </trkpt>
      <trkpt lat="43.15114" lon="0.35553">
        <ele>615.361617</ele>
        <time>2021-04-18T11:43:47.390Z</time>
      </trkpt>
      <trkpt lat="43.15102" lon="0.35558">
        <ele>615.527746</ele>
        <time>2021-04-18T11:43:50.374Z</time>
      </trkpt>
      <trkpt lat="43.15089" lon="0.35563">
        <ele>615.698681</ele>
        <time>2021-04-18T11:43:53.393Z</time>
      </trkpt>
      <trkpt lat="43.15077" lon="0.35568">
        <ele>615.870591</ele>
        <time>2021-04-18T11:43:56.415Z</time>
      </trkpt>
      <trkpt lat="43.15068" lon="0.35571">
        <ele>615.989649</ele>
        <time>2021-04-18T11:43:58.423Z</time>
      </trkpt>
      <trkpt lat="43.15059" lon="0.35574">
        <ele>616.112685</ele>
        <time>2021-04-18T11:44:00.416Z</time>
      </trkpt>
      <trkpt lat="43.15049" lon="0.35578">
        <ele>616.241508</ele>
        <time>2021-04-18T11:44:02.402Z</time>
      </trkpt>
      <trkpt lat="43.1504" lon="0.35582">
        <ele>616.371576</ele>
        <time>2021-04-18T11:44:04.391Z</time>
      </trkpt>
      <trkpt lat="43.15031" lon="0.35586">
        <ele>616.496009</ele>
        <time>2021-04-18T11:44:06.409Z</time>
      </trkpt>
      <trkpt lat="43.15021" lon="0.35591">
        <ele>616.623207</ele>
        <time>2021-04-18T11:44:08.430Z</time>
      </trkpt>
      <trkpt lat="43.15011" lon="0.35594">
        <ele>616.756259</ele>
        <time>2021-04-18T11:44:10.402Z</time>
      </trkpt>
      <trkpt lat="43.15001" lon="0.35598">
        <ele>616.901102</ele>
        <time>2021-04-18T11:44:12.402Z</time>
      </trkpt>
      <trkpt lat="43.1499" lon="0.35602">
        <ele>617.042926</ele>
        <time>2021-04-18T11:44:14.420Z</time>
      </trkpt>
      <trkpt lat="43.1498" lon="0.35606">
        <ele>617.182501</ele>
        <time>2021-04-18T11:44:16.390Z</time>
      </trkpt>
      <trkpt lat="43.1497" lon="0.3561">
        <ele>617.271771</ele>
        <time>2021-04-18T11:44:18.408Z</time>
      </trkpt>
      <trkpt lat="43.1496" lon="0.35614">
        <ele>617.314649</ele>
        <time>2021-04-18T11:44:20.385Z</time>
      </trkpt>
      <trkpt lat="43.14951" lon="0.35618">
        <ele>617.357189</ele>
        <time>2021-04-18T11:44:22.409Z</time>
      </trkpt>
      <trkpt lat="43.14941" lon="0.35621">
        <ele>617.401969</ele>
        <time>2021-04-18T11:44:24.402Z</time>
      </trkpt>
      <trkpt lat="43.1493" lon="0.35625">
        <ele>617.450026</ele>
        <time>2021-04-18T11:44:26.385Z</time>
      </trkpt>
      <trkpt lat="43.14919" lon="0.35629">
        <ele>617.498243</ele>
        <time>2021-04-18T11:44:28.393Z</time>
      </trkpt>
      <trkpt lat="43.14908" lon="0.35633">
        <ele>617.54465</ele>
        <time>2021-04-18T11:44:30.387Z</time>
      </trkpt>
      <trkpt lat="43.14898" lon="0.35637">
        <ele>617.589908</ele>
        <time>2021-04-18T11:44:32.418Z</time>
      </trkpt>
      <trkpt lat="43.14888" lon="0.35641">
        <ele>617.634843</ele>
        <time>2021-04-18T11:44:34.421Z</time>
      </trkpt>
      <trkpt lat="43.14878" lon="0.35645">
        <ele>617.681007</ele>
        <time>2021-04-18T11:44:36.390Z</time>
      </trkpt>
      <trkpt lat="43.14868" lon="0.35649">
        <ele>617.725533</ele>
        <time>2021-04-18T11:44:38.404Z</time>
      </trkpt>
      <trkpt lat="43.14857" lon="0.35654">
        <ele>617.771287</ele>
        <time>2021-04-18T11:44:40.387Z</time>
      </trkpt>
      <trkpt lat="43.14847" lon="0.35657">
        <ele>617.818519</ele>
        <time>2021-04-18T11:44:42.420Z</time>
      </trkpt>
      <trkpt lat="43.14836" lon="0.35661">
        <ele>617.867479</ele>
        <time>2021-04-18T11:44:44.406Z</time>
      </trkpt>
      <trkpt lat="43.14825" lon="0.35666">
        <ele>617.915369</ele>
        <time>2021-04-18T11:44:46.375Z</time>
      </trkpt>
      <trkpt lat="43.14814" lon="0.3567">
        <ele>617.964251</ele>
        <time>2021-04-18T11:44:48.390Z</time>
      </trkpt>
      <trkpt lat="43.14803" lon="0.35674">
        <ele>618.012552</ele>
        <time>2021-04-18T11:44:50.400Z</time>
      </trkpt>
      <trkpt lat="43.14792" lon="0.35679">
        <ele>618.102387</ele>
        <time>2021-04-18T11:44:52.392Z</time>
      </trkpt>
      <trkpt lat="43.14782" lon="0.35683">
        <ele>618.198742</ele>
        <time>2021-04-18T11:44:54.403Z</time>
      </trkpt>
      <trkpt lat="43.14771" lon="0.35687">
        <ele>618.29622</ele>
        <time>2021-04-18T11:44:56.388Z</time>
      </trkpt>
      <trkpt lat="43.1476" lon="0.35692">
        <ele>618.396552</ele>
        <time>2021-04-18T11:44:58.414Z</time>
      </trkpt>
      <trkpt lat="43.14749" lon="0.35696">
        <ele>618.492078</ele>
        <time>2021-04-18T11:45:00.442Z</time>
      </trkpt>
      <trkpt lat="43.14739" lon="0.357">
        <ele>618.58557</ele>
        <time>2021-04-18T11:45:02.424Z</time>
      </trkpt>
      <trkpt lat="43.14728" lon="0.35704">
        <ele>618.684071</ele>
        <time>2021-04-18T11:45:04.391Z</time>
      </trkpt>
      <trkpt lat="43.14717" lon="0.35708">
        <ele>618.780733</ele>
        <time>2021-04-18T11:45:06.398Z</time>
      </trkpt>
      <trkpt lat="43.14706" lon="0.35712">
        <ele>618.885076</ele>
        <time>2021-04-18T11:45:08.428Z</time>
      </trkpt>
      <trkpt lat="43.14694" lon="0.35717">
        <ele>618.991774</ele>
        <time>2021-04-18T11:45:10.412Z</time>
      </trkpt>
      <trkpt lat="43.14683" lon="0.35721">
        <ele>619.092599</ele>
        <time>2021-04-18T11:45:12.402Z</time>
      </trkpt>
      <trkpt lat="43.14671" lon="0.35726">
        <ele>619.194954</ele>
        <time>2021-04-18T11:45:14.395Z</time>
      </trkpt>
      <trkpt lat="43.1466" lon="0.3573">
        <ele>619.30082</ele>
        <time>2021-04-18T11:45:16.398Z</time>
      </trkpt>
      <trkpt lat="43.14648" lon="0.35735">
        <ele>619.407344</ele>
        <time>2021-04-18T11:45:18.427Z</time>
      </trkpt>
      <trkpt lat="43.14636" lon="0.3574">
        <ele>619.513696</ele>
        <time>2021-04-18T11:45:20.417Z</time>
      </trkpt>
      <trkpt lat="43.14624" lon="0.35744">
        <ele>619.589186</ele>
        <time>2021-04-18T11:45:22.392Z</time>
      </trkpt>
      <trkpt lat="43.14613" lon="0.35748">
        <ele>619.613524</ele>
        <time>2021-04-18T11:45:24.393Z</time>
      </trkpt>
      <trkpt lat="43.14603" lon="0.35751">
        <ele>619.636247</ele>
        <time>2021-04-18T11:45:26.405Z</time>
      </trkpt>
      <trkpt lat="43.14593" lon="0.35755">
        <ele>619.657007</ele>
        <time>2021-04-18T11:45:28.408Z</time>
      </trkpt>
      <trkpt lat="43.14583" lon="0.35759">
        <ele>619.679236</ele>
        <time>2021-04-18T11:45:30.396Z</time>
      </trkpt>
      <trkpt lat="43.14573" lon="0.35763">
        <ele>619.701422</ele>
        <time>2021-04-18T11:45:32.400Z</time>
      </trkpt>
      <trkpt lat="43.14563" lon="0.35767">
        <ele>619.723767</ele>
        <time>2021-04-18T11:45:34.428Z</time>
      </trkpt>
      <trkpt lat="43.14552" lon="0.35771">
        <ele>619.746804</ele>
        <time>2021-04-18T11:45:36.390Z</time>
      </trkpt>
      <trkpt lat="43.14541" lon="0.35776">
        <ele>619.77114</ele>
        <time>2021-04-18T11:45:38.393Z</time>
      </trkpt>
      <trkpt lat="43.1453" lon="0.3578">
        <ele>619.795564</ele>
        <time>2021-04-18T11:45:40.391Z</time>
      </trkpt>
      <trkpt lat="43.14519" lon="0.35785">
        <ele>619.820508</ele>
        <time>2021-04-18T11:45:42.446Z</time>
      </trkpt>
      <trkpt lat="43.14508" lon="0.35789">
        <ele>619.845005</ele>
        <time>2021-04-18T11:45:44.414Z</time>
      </trkpt>
      <trkpt lat="43.14497" lon="0.35793">
        <ele>619.868607</ele>
        <time>2021-04-18T11:45:46.411Z</time>
      </trkpt>
      <trkpt lat="43.14486" lon="0.35797">
        <ele>619.89217</ele>
        <time>2021-04-18T11:45:48.401Z</time>
      </trkpt>
      <trkpt lat="43.14476" lon="0.35801">
        <ele>619.915139</ele>
        <time>2021-04-18T11:45:50.397Z</time>
      </trkpt>
      <trkpt lat="43.14466" lon="0.35805">
        <ele>619.936839</ele>
        <time>2021-04-18T11:45:52.399Z</time>
      </trkpt>
      <trkpt lat="43.14455" lon="0.35809">
        <ele>619.95878</ele>
        <time>2021-04-18T11:45:54.397Z</time>
      </trkpt>
      <trkpt lat="43.14444" lon="0.35813">
        <ele>619.930422</ele>
        <time>2021-04-18T11:45:56.400Z</time>
      </trkpt>
      <trkpt lat="43.14434" lon="0.35817">
        <ele>619.902347</ele>
        <time>2021-04-18T11:45:58.425Z</time>
      </trkpt>
      <trkpt lat="43.14423" lon="0.35821">
        <ele>619.874819</ele>
        <time>2021-04-18T11:46:00.398Z</time>
      </trkpt>
      <trkpt lat="43.14413" lon="0.35824">
        <ele>619.84792</ele>
        <time>2021-04-18T11:46:02.398Z</time>
      </trkpt>
      <trkpt lat="43.14404" lon="0.35828">
        <ele>619.823078</ele>
        <time>2021-04-18T11:46:04.411Z</time>
      </trkpt>
      <trkpt lat="43.14395" lon="0.35832">
        <ele>619.799449</ele>
        <time>2021-04-18T11:46:06.399Z</time>
      </trkpt>
      <trkpt lat="43.14382" lon="0.35835">
        <ele>619.767781</ele>
        <time>2021-04-18T11:46:09.408Z</time>
      </trkpt>
      <trkpt lat="43.14374" lon="0.35837">
        <ele>619.744823</ele>
        <time>2021-04-18T11:46:11.398Z</time>
      </trkpt>
      <trkpt lat="43.14364" lon="0.35841">
        <ele>619.720815</ele>
        <time>2021-04-18T11:46:13.401Z</time>
      </trkpt>
      <trkpt lat="43.14356" lon="0.35845">
        <ele>619.697371</ele>
        <time>2021-04-18T11:46:15.406Z</time>
      </trkpt>
      <trkpt lat="43.14343" lon="0.3585">
        <ele>619.663665</ele>
        <time>2021-04-18T11:46:18.428Z</time>
      </trkpt>
      <trkpt lat="43.14334" lon="0.35854">
        <ele>619.638716</ele>
        <time>2021-04-18T11:46:20.413Z</time>
      </trkpt>
      <trkpt lat="43.14324" lon="0.35858">
        <ele>619.613227</ele>
        <time>2021-04-18T11:46:22.393Z</time>
      </trkpt>
      <trkpt lat="43.14314" lon="0.35862">
        <ele>619.587308</ele>
        <time>2021-04-18T11:46:24.396Z</time>
      </trkpt>
      <trkpt lat="43.14305" lon="0.35867">
        <ele>619.561944</ele>
        <time>2021-04-18T11:46:26.395Z</time>
      </trkpt>
      <trkpt lat="43.14295" lon="0.35871">
        <ele>619.535729</ele>
        <time>2021-04-18T11:46:28.397Z</time>
      </trkpt>
      <trkpt lat="43.14284" lon="0.35875">
        <ele>619.507756</ele>
        <time>2021-04-18T11:46:30.397Z</time>
      </trkpt>
      <trkpt lat="43.14274" lon="0.35879">
        <ele>619.315184</ele>
        <time>2021-04-18T11:46:32.401Z</time>
      </trkpt>
      <trkpt lat="43.14265" lon="0.35883">
        <ele>619.098695</ele>
        <time>2021-04-18T11:46:34.396Z</time>
      </trkpt>
      <trkpt lat="43.14256" lon="0.35886">
        <ele>618.888211</ele>
        <time>2021-04-18T11:46:36.389Z</time>
      </trkpt>
      <trkpt lat="43.14247" lon="0.35889">
        <ele>618.683607</ele>
        <time>2021-04-18T11:46:38.424Z</time>
      </trkpt>
      <trkpt lat="43.14234" lon="0.35895">
        <ele>618.389395</ele>
        <time>2021-04-18T11:46:41.407Z</time>
      </trkpt>
      <trkpt lat="43.14221" lon="0.359">
        <ele>618.096794</ele>
        <time>2021-04-18T11:46:44.401Z</time>
      </trkpt>
      <trkpt lat="43.14213" lon="0.35904">
        <ele>617.898159</ele>
        <time>2021-04-18T11:46:46.397Z</time>
      </trkpt>
      <trkpt lat="43.142" lon="0.35908">
        <ele>617.599832</ele>
        <time>2021-04-18T11:46:49.416Z</time>
      </trkpt>
      <trkpt lat="43.1419" lon="0.35912">
        <ele>617.389347</ele>
        <time>2021-04-18T11:46:51.387Z</time>
      </trkpt>
      <trkpt lat="43.14181" lon="0.35915">
        <ele>617.170739</ele>
        <time>2021-04-18T11:46:53.397Z</time>
      </trkpt>
      <trkpt lat="43.14172" lon="0.35919">
        <ele>616.955902</ele>
        <time>2021-04-18T11:46:55.412Z</time>
      </trkpt>
      <trkpt lat="43.14162" lon="0.35923">
        <ele>616.744992</ele>
        <time>2021-04-18T11:46:57.412Z</time>
      </trkpt>
      <trkpt lat="43.14153" lon="0.35926">
        <ele>616.525135</ele>
        <time>2021-04-18T11:46:59.415Z</time>
      </trkpt>
      <trkpt lat="43.14144" lon="0.3593">
        <ele>616.31288</ele>
        <time>2021-04-18T11:47:01.407Z</time>
      </trkpt>
      <trkpt lat="43.14135" lon="0.35934">
        <ele>616.104371</ele>
        <time>2021-04-18T11:47:03.387Z</time>
      </trkpt>
      <trkpt lat="43.14125" lon="0.35938">
        <ele>615.882726</ele>
        <time>2021-04-18T11:47:05.399Z</time>
      </trkpt>
      <trkpt lat="43.14115" lon="0.35941">
        <ele>615.662335</ele>
        <time>2021-04-18T11:47:07.419Z</time>
      </trkpt>
      <trkpt lat="43.14106" lon="0.35944">
        <ele>615.49532</ele>
        <time>2021-04-18T11:47:09.416Z</time>
      </trkpt>
      <trkpt lat="43.14097" lon="0.35948">
        <ele>615.405735</ele>
        <time>2021-04-18T11:47:11.413Z</time>
      </trkpt>
      <trkpt lat="43.14088" lon="0.35951">
        <ele>615.3167</ele>
        <time>2021-04-18T11:47:13.399Z</time>
      </trkpt>
      <trkpt lat="43.14079" lon="0.35955">
        <ele>615.227473</ele>
        <time>2021-04-18T11:47:15.435Z</time>
      </trkpt>
      <trkpt lat="43.1407" lon="0.35959">
        <ele>615.13764</ele>
        <time>2021-04-18T11:47:17.397Z</time>
      </trkpt>
      <trkpt lat="43.14061" lon="0.35962">
        <ele>615.049709</ele>
        <time>2021-04-18T11:47:19.417Z</time>
      </trkpt>
      <trkpt lat="43.14049" lon="0.35967">
        <ele>614.929024</ele>
        <time>2021-04-18T11:47:22.400Z</time>
      </trkpt>
      <trkpt lat="43.14038" lon="0.35972">
        <ele>614.820064</ele>
        <time>2021-04-18T11:47:25.421Z</time>
      </trkpt>
      <trkpt lat="43.14026" lon="0.35975">
        <ele>614.704442</ele>
        <time>2021-04-18T11:47:28.414Z</time>
      </trkpt>
      <trkpt lat="43.14013" lon="0.3598">
        <ele>614.573536</ele>
        <time>2021-04-18T11:47:31.420Z</time>
      </trkpt>
      <trkpt lat="43.14003" lon="0.35984">
        <ele>614.47312</ele>
        <time>2021-04-18T11:47:33.389Z</time>
      </trkpt>
      <trkpt lat="43.13991" lon="0.35987">
        <ele>614.364237</ele>
        <time>2021-04-18T11:47:35.406Z</time>
      </trkpt>
      <trkpt lat="43.1398" lon="0.35991">
        <ele>614.250417</ele>
        <time>2021-04-18T11:47:37.431Z</time>
      </trkpt>
      <trkpt lat="43.13969" lon="0.35996">
        <ele>614.142469</ele>
        <time>2021-04-18T11:47:39.399Z</time>
      </trkpt>
      <trkpt lat="43.13958" lon="0.36">
        <ele>614.035534</ele>
        <time>2021-04-18T11:47:41.417Z</time>
      </trkpt>
      <trkpt lat="43.13948" lon="0.36004">
        <ele>613.931436</ele>
        <time>2021-04-18T11:47:43.387Z</time>
      </trkpt>
      <trkpt lat="43.13937" lon="0.36008">
        <ele>613.82882</ele>
        <time>2021-04-18T11:47:45.401Z</time>
      </trkpt>
      <trkpt lat="43.13927" lon="0.36012">
        <ele>614.108616</ele>
        <time>2021-04-18T11:47:47.387Z</time>
      </trkpt>
      <trkpt lat="43.13917" lon="0.36015">
        <ele>614.444373</ele>
        <time>2021-04-18T11:47:49.415Z</time>
      </trkpt>
      <trkpt lat="43.13907" lon="0.36019">
        <ele>614.789293</ele>
        <time>2021-04-18T11:47:51.414Z</time>
      </trkpt>
      <trkpt lat="43.13897" lon="0.36024">
        <ele>615.120914</ele>
        <time>2021-04-18T11:47:53.411Z</time>
      </trkpt>
      <trkpt lat="43.13887" lon="0.36027">
        <ele>615.436922</ele>
        <time>2021-04-18T11:47:55.412Z</time>
      </trkpt>
      <trkpt lat="43.13878" lon="0.36031">
        <ele>615.738106</ele>
        <time>2021-04-18T11:47:57.401Z</time>
      </trkpt>
      <trkpt lat="43.13866" lon="0.36034">
        <ele>616.140216</ele>
        <time>2021-04-18T11:48:00.395Z</time>
      </trkpt>
      <trkpt lat="43.13857" lon="0.36038">
        <ele>616.448418</ele>
        <time>2021-04-18T11:48:03.397Z</time>
      </trkpt>
      <trkpt lat="43.13844" lon="0.36042">
        <ele>616.87505</ele>
        <time>2021-04-18T11:48:06.412Z</time>
      </trkpt>
      <trkpt lat="43.13831" lon="0.36046">
        <ele>617.290638</ele>
        <time>2021-04-18T11:48:09.385Z</time>
      </trkpt>
      <trkpt lat="43.1382" lon="0.36049">
        <ele>617.660567</ele>
        <time>2021-04-18T11:48:12.397Z</time>
      </trkpt>
      <trkpt lat="43.13811" lon="0.36053">
        <ele>617.950096</ele>
        <time>2021-04-18T11:48:15.398Z</time>
      </trkpt>
      <trkpt lat="43.138" lon="0.36059">
        <ele>618.337589</ele>
        <time>2021-04-18T11:48:19.399Z</time>
      </trkpt>
      <trkpt lat="43.13789" lon="0.36063">
        <ele>618.69671</ele>
        <time>2021-04-18T11:48:23.403Z</time>
      </trkpt>
      <trkpt lat="43.13778" lon="0.36066">
        <ele>619.042329</ele>
        <time>2021-04-18T11:48:27.385Z</time>
      </trkpt>
      <trkpt lat="43.1377" lon="0.36069">
        <ele>619.331857</ele>
        <time>2021-04-18T11:48:30.405Z</time>
      </trkpt>
      <trkpt lat="43.13758" lon="0.36075">
        <ele>619.800787</ele>
        <time>2021-04-18T11:48:34.399Z</time>
      </trkpt>
      <trkpt lat="43.13748" lon="0.36081">
        <ele>620.388115</ele>
        <time>2021-04-18T11:48:38.420Z</time>
      </trkpt>
      <trkpt lat="43.13737" lon="0.36086">
        <ele>620.949939</ele>
        <time>2021-04-18T11:48:42.420Z</time>
      </trkpt>
      <trkpt lat="43.13726" lon="0.36089">
        <ele>621.556575</ele>
        <time>2021-04-18T11:48:46.402Z</time>
      </trkpt>
      <trkpt lat="43.13715" lon="0.36093">
        <ele>622.114422</ele>
        <time>2021-04-18T11:48:50.410Z</time>
      </trkpt>
      <trkpt lat="43.13704" lon="0.36097">
        <ele>622.661878</ele>
        <time>2021-04-18T11:48:54.392Z</time>
      </trkpt>
      <trkpt lat="43.13695" lon="0.361">
        <ele>623.173024</ele>
        <time>2021-04-18T11:48:58.391Z</time>
      </trkpt>
      <trkpt lat="43.13685" lon="0.36103">
        <ele>623.685437</ele>
        <time>2021-04-18T11:49:02.388Z</time>
      </trkpt>
      <trkpt lat="43.13675" lon="0.36107">
        <ele>624.212282</ele>
        <time>2021-04-18T11:49:06.416Z</time>
      </trkpt>
      <trkpt lat="43.13665" lon="0.36112">
        <ele>624.767</ele>
        <time>2021-04-18T11:49:10.419Z</time>
      </trkpt>
      <trkpt lat="43.13655" lon="0.36116">
        <ele>625.289266</ele>
        <time>2021-04-18T11:49:14.403Z</time>
      </trkpt>
      <trkpt lat="43.13645" lon="0.36121">
        <ele>625.821795</ele>
        <time>2021-04-18T11:49:18.397Z</time>
      </trkpt>
      <trkpt lat="43.13636" lon="0.36127">
        <ele>626.332262</ele>
        <time>2021-04-18T11:49:22.405Z</time>
      </trkpt>
      <trkpt lat="43.13627" lon="0.36133">
        <ele>626.859929</ele>
        <time>2021-04-18T11:49:26.437Z</time>
      </trkpt>
      <trkpt lat="43.13617" lon="0.3614">
        <ele>627.438999</ele>
        <time>2021-04-18T11:49:30.404Z</time>
      </trkpt>
      <trkpt lat="43.13608" lon="0.36149">
        <ele>627.995293</ele>
        <time>2021-04-18T11:49:34.394Z</time>
      </trkpt>
      <trkpt lat="43.136" lon="0.36158">
        <ele>628.524116</ele>
        <time>2021-04-18T11:49:38.372Z</time>
      </trkpt>
      <trkpt lat="43.13592" lon="0.36167">
        <ele>628.876392</ele>
        <time>2021-04-18T11:49:42.389Z</time>
      </trkpt>
      <trkpt lat="43.13584" lon="0.36176">
        <ele>629.145002</ele>
        <time>2021-04-18T11:49:46.424Z</time>
      </trkpt>
      <trkpt lat="43.13577" lon="0.36186">
        <ele>629.406006</ele>
        <time>2021-04-18T11:49:50.389Z</time>
      </trkpt>
      <trkpt lat="43.13569" lon="0.36195">
        <ele>629.666301</ele>
        <time>2021-04-18T11:49:54.389Z</time>
      </trkpt>
      <trkpt lat="43.1356" lon="0.36204">
        <ele>629.94143</ele>
        <time>2021-04-18T11:49:58.402Z</time>
      </trkpt>
      <trkpt lat="43.13554" lon="0.36212">
        <ele>630.173162</ele>
        <time>2021-04-18T11:50:01.404Z</time>
      </trkpt>
      <trkpt lat="43.13545" lon="0.36222">
        <ele>630.448599</ele>
        <time>2021-04-18T11:50:05.421Z</time>
      </trkpt>
      <trkpt lat="43.13537" lon="0.36232">
        <ele>630.73343</ele>
        <time>2021-04-18T11:50:09.392Z</time>
      </trkpt>
      <trkpt lat="43.13529" lon="0.36242">
        <ele>631.025855</ele>
        <time>2021-04-18T11:50:13.430Z</time>
      </trkpt>
      <trkpt lat="43.13521" lon="0.36253">
        <ele>631.310061</ele>
        <time>2021-04-18T11:50:17.405Z</time>
      </trkpt>
      <trkpt lat="43.13513" lon="0.36264">
        <ele>631.60651</ele>
        <time>2021-04-18T11:50:21.423Z</time>
      </trkpt>
      <trkpt lat="43.13503" lon="0.36274">
        <ele>631.912577</ele>
        <time>2021-04-18T11:50:25.391Z</time>
      </trkpt>
      <trkpt lat="43.13496" lon="0.36282">
        <ele>632.152468</ele>
        <time>2021-04-18T11:50:28.411Z</time>
      </trkpt>
      <trkpt lat="43.13489" lon="0.36291">
        <ele>632.38985</ele>
        <time>2021-04-18T11:50:31.403Z</time>
      </trkpt>
      <trkpt lat="43.13482" lon="0.36299">
        <ele>632.635504</ele>
        <time>2021-04-18T11:50:34.418Z</time>
      </trkpt>
      <trkpt lat="43.13475" lon="0.36308">
        <ele>632.874776</ele>
        <time>2021-04-18T11:50:37.406Z</time>
      </trkpt>
      <trkpt lat="43.13468" lon="0.36318">
        <ele>633.133151</ele>
        <time>2021-04-18T11:50:40.403Z</time>
      </trkpt>
      <trkpt lat="43.13461" lon="0.36326">
        <ele>633.337625</ele>
        <time>2021-04-18T11:50:43.423Z</time>
      </trkpt>
      <trkpt lat="43.13453" lon="0.36335">
        <ele>633.346414</ele>
        <time>2021-04-18T11:50:46.411Z</time>
      </trkpt>
      <trkpt lat="43.13445" lon="0.36344">
        <ele>633.355558</ele>
        <time>2021-04-18T11:50:49.404Z</time>
      </trkpt>
      <trkpt lat="43.13437" lon="0.36354">
        <ele>633.364785</ele>
        <time>2021-04-18T11:50:52.390Z</time>
      </trkpt>
      <trkpt lat="43.13429" lon="0.36364">
        <ele>633.374037</ele>
        <time>2021-04-18T11:50:55.416Z</time>
      </trkpt>
      <trkpt lat="43.13422" lon="0.36373">
        <ele>633.382898</ele>
        <time>2021-04-18T11:50:58.407Z</time>
      </trkpt>
      <trkpt lat="43.13414" lon="0.36382">
        <ele>633.391917</ele>
        <time>2021-04-18T11:51:01.414Z</time>
      </trkpt>
      <trkpt lat="43.13406" lon="0.36392">
        <ele>633.401302</ele>
        <time>2021-04-18T11:51:04.404Z</time>
      </trkpt>
      <trkpt lat="43.13397" lon="0.36402">
        <ele>633.411266</ele>
        <time>2021-04-18T11:51:07.421Z</time>
      </trkpt>
      <trkpt lat="43.13388" lon="0.36414">
        <ele>633.422429</ele>
        <time>2021-04-18T11:51:10.374Z</time>
      </trkpt>
      <trkpt lat="43.13378" lon="0.36426">
        <ele>633.434388</ele>
        <time>2021-04-18T11:51:13.389Z</time>
      </trkpt>
      <trkpt lat="43.13371" lon="0.36436">
        <ele>633.443195</ele>
        <time>2021-04-18T11:51:15.408Z</time>
      </trkpt>
      <trkpt lat="43.13363" lon="0.36446">
        <ele>633.452615</ele>
        <time>2021-04-18T11:51:17.406Z</time>
      </trkpt>
      <trkpt lat="43.13355" lon="0.36456">
        <ele>633.461885</ele>
        <time>2021-04-18T11:51:19.425Z</time>
      </trkpt>
      <trkpt lat="43.13347" lon="0.36466">
        <ele>633.4712</ele>
        <time>2021-04-18T11:51:21.411Z</time>
      </trkpt>
      <trkpt lat="43.13339" lon="0.36476">
        <ele>633.480364</ele>
        <time>2021-04-18T11:51:23.424Z</time>
      </trkpt>
      <trkpt lat="43.13332" lon="0.36484">
        <ele>633.489046</ele>
        <time>2021-04-18T11:51:25.408Z</time>
      </trkpt>
      <trkpt lat="43.13321" lon="0.36494">
        <ele>633.531</ele>
        <time>2021-04-18T11:51:28.424Z</time>
      </trkpt>
      <trkpt lat="43.13308" lon="0.36502">
        <ele>633.595999</ele>
        <time>2021-04-18T11:51:31.393Z</time>
      </trkpt>
      <trkpt lat="43.13299" lon="0.36511">
        <ele>633.64831</ele>
        <time>2021-04-18T11:51:33.391Z</time>
      </trkpt>
      <trkpt lat="43.1329" lon="0.36522">
        <ele>633.704746</ele>
        <time>2021-04-18T11:51:35.393Z</time>
      </trkpt>
      <trkpt lat="43.13281" lon="0.36533">
        <ele>633.761183</ele>
        <time>2021-04-18T11:51:37.391Z</time>
      </trkpt>
      <trkpt lat="43.13273" lon="0.36545">
        <ele>633.816406</ele>
        <time>2021-04-18T11:51:39.392Z</time>
      </trkpt>
      <trkpt lat="43.13263" lon="0.36556">
        <ele>633.876972</ele>
        <time>2021-04-18T11:51:41.421Z</time>
      </trkpt>
      <trkpt lat="43.13255" lon="0.36568">
        <ele>633.93462</ele>
        <time>2021-04-18T11:51:43.392Z</time>
      </trkpt>
      <trkpt lat="43.13247" lon="0.36581">
        <ele>633.989589</ele>
        <time>2021-04-18T11:51:45.428Z</time>
      </trkpt>
      <trkpt lat="43.13238" lon="0.36593">
        <ele>634.047323</ele>
        <time>2021-04-18T11:51:47.390Z</time>
      </trkpt>
      <trkpt lat="43.13229" lon="0.36604">
        <ele>634.105451</ele>
        <time>2021-04-18T11:51:49.396Z</time>
      </trkpt>
      <trkpt lat="43.13219" lon="0.36617">
        <ele>634.169703</ele>
        <time>2021-04-18T11:51:51.390Z</time>
      </trkpt>
      <trkpt lat="43.13209" lon="0.36629">
        <ele>634.233826</ele>
        <time>2021-04-18T11:51:53.444Z</time>
      </trkpt>
      <trkpt lat="43.13199" lon="0.36641">
        <ele>634.293794</ele>
        <time>2021-04-18T11:51:55.425Z</time>
      </trkpt>
      <trkpt lat="43.1319" lon="0.36652">
        <ele>634.29935</ele>
        <time>2021-04-18T11:51:57.429Z</time>
      </trkpt>
      <trkpt lat="43.13182" lon="0.36661">
        <ele>634.180996</ele>
        <time>2021-04-18T11:51:59.407Z</time>
      </trkpt>
      <trkpt lat="43.13174" lon="0.3667">
        <ele>634.067792</ele>
        <time>2021-04-18T11:52:01.395Z</time>
      </trkpt>
      <trkpt lat="43.13167" lon="0.36678">
        <ele>633.960872</ele>
        <time>2021-04-18T11:52:03.394Z</time>
      </trkpt>
      <trkpt lat="43.13157" lon="0.3669">
        <ele>633.813056</ele>
        <time>2021-04-18T11:52:06.406Z</time>
      </trkpt>
      <trkpt lat="43.13148" lon="0.36702">
        <ele>633.670335</ele>
        <time>2021-04-18T11:52:09.392Z</time>
      </trkpt>
      <trkpt lat="43.13139" lon="0.36713">
        <ele>633.535623</ele>
        <time>2021-04-18T11:52:12.405Z</time>
      </trkpt>
      <trkpt lat="43.13131" lon="0.36724">
        <ele>633.407802</ele>
        <time>2021-04-18T11:52:15.396Z</time>
      </trkpt>
      <trkpt lat="43.13122" lon="0.36735">
        <ele>633.269465</ele>
        <time>2021-04-18T11:52:18.412Z</time>
      </trkpt>
      <trkpt lat="43.13113" lon="0.36747">
        <ele>633.129184</ele>
        <time>2021-04-18T11:52:21.399Z</time>
      </trkpt>
      <trkpt lat="43.13103" lon="0.36759">
        <ele>632.983394</ele>
        <time>2021-04-18T11:52:24.396Z</time>
      </trkpt>
      <trkpt lat="43.13093" lon="0.3677">
        <ele>632.836435</ele>
        <time>2021-04-18T11:52:27.398Z</time>
      </trkpt>
      <trkpt lat="43.13084" lon="0.36783">
        <ele>632.692591</ele>
        <time>2021-04-18T11:52:30.408Z</time>
      </trkpt>
      <trkpt lat="43.13077" lon="0.36791">
        <ele>632.589869</ele>
        <time>2021-04-18T11:52:32.395Z</time>
      </trkpt>
      <trkpt lat="43.1307" lon="0.36801">
        <ele>632.480509</ele>
        <time>2021-04-18T11:52:34.423Z</time>
      </trkpt>
      <trkpt lat="43.13063" lon="0.36809">
        <ele>632.375056</ele>
        <time>2021-04-18T11:52:36.406Z</time>
      </trkpt>
      <trkpt lat="43.13056" lon="0.36818">
        <ele>632.319967</ele>
        <time>2021-04-18T11:52:38.397Z</time>
      </trkpt>
      <trkpt lat="43.13049" lon="0.36826">
        <ele>632.32637</ele>
        <time>2021-04-18T11:52:40.395Z</time>
      </trkpt>
      <trkpt lat="43.13041" lon="0.36835">
        <ele>632.333101</ele>
        <time>2021-04-18T11:52:42.407Z</time>
      </trkpt>
      <trkpt lat="43.13034" lon="0.36843">
        <ele>632.339789</ele>
        <time>2021-04-18T11:52:44.423Z</time>
      </trkpt>
      <trkpt lat="43.13026" lon="0.36852">
        <ele>632.346425</ele>
        <time>2021-04-18T11:52:46.394Z</time>
      </trkpt>
      <trkpt lat="43.13019" lon="0.36861">
        <ele>632.353175</ele>
        <time>2021-04-18T11:52:48.430Z</time>
      </trkpt>
      <trkpt lat="43.13012" lon="0.36871">
        <ele>632.360164</ele>
        <time>2021-04-18T11:52:50.428Z</time>
      </trkpt>
      <trkpt lat="43.13004" lon="0.3688">
        <ele>632.366964</ele>
        <time>2021-04-18T11:52:52.396Z</time>
      </trkpt>
      <trkpt lat="43.12997" lon="0.36889">
        <ele>632.373647</ele>
        <time>2021-04-18T11:52:54.414Z</time>
      </trkpt>
      <trkpt lat="43.12991" lon="0.36899">
        <ele>632.380136</ele>
        <time>2021-04-18T11:52:56.394Z</time>
      </trkpt>
      <trkpt lat="43.12985" lon="0.36908">
        <ele>632.386534</ele>
        <time>2021-04-18T11:52:58.393Z</time>
      </trkpt>
      <trkpt lat="43.12977" lon="0.36923">
        <ele>632.395768</ele>
        <time>2021-04-18T11:53:01.395Z</time>
      </trkpt>
      <trkpt lat="43.12969" lon="0.36937">
        <ele>632.404559</ele>
        <time>2021-04-18T11:53:04.393Z</time>
      </trkpt>
      <trkpt lat="43.12961" lon="0.36951">
        <ele>632.413025</ele>
        <time>2021-04-18T11:53:07.411Z</time>
      </trkpt>
      <trkpt lat="43.12955" lon="0.36965">
        <ele>632.421416</ele>
        <time>2021-04-18T11:53:10.425Z</time>
      </trkpt>
      <trkpt lat="43.12946" lon="0.36978">
        <ele>632.430112</ele>
        <time>2021-04-18T11:53:13.393Z</time>
      </trkpt>
      <trkpt lat="43.1294" lon="0.36988">
        <ele>632.436655</ele>
        <time>2021-04-18T11:53:15.395Z</time>
      </trkpt>
      <trkpt lat="43.12934" lon="0.36998">
        <ele>632.728568</ele>
        <time>2021-04-18T11:53:17.395Z</time>
      </trkpt>
      <trkpt lat="43.12929" lon="0.37008">
        <ele>633.346087</ele>
        <time>2021-04-18T11:53:19.411Z</time>
      </trkpt>
      <trkpt lat="43.12921" lon="0.37022">
        <ele>634.221602</ele>
        <time>2021-04-18T11:53:22.397Z</time>
      </trkpt>
      <trkpt lat="43.12913" lon="0.37037">
        <ele>635.069394</ele>
        <time>2021-04-18T11:53:25.410Z</time>
      </trkpt>
      <trkpt lat="43.12906" lon="0.3705">
        <ele>635.874448</ele>
        <time>2021-04-18T11:53:28.398Z</time>
      </trkpt>
      <trkpt lat="43.12898" lon="0.37062">
        <ele>636.637998</ele>
        <time>2021-04-18T11:53:31.393Z</time>
      </trkpt>
      <trkpt lat="43.12891" lon="0.37072">
        <ele>637.335904</ele>
        <time>2021-04-18T11:53:34.411Z</time>
      </trkpt>
      <trkpt lat="43.12885" lon="0.37083">
        <ele>637.986506</ele>
        <time>2021-04-18T11:53:37.397Z</time>
      </trkpt>
      <trkpt lat="43.12878" lon="0.37092">
        <ele>638.645122</ele>
        <time>2021-04-18T11:53:40.387Z</time>
      </trkpt>
      <trkpt lat="43.12871" lon="0.37102">
        <ele>639.282046</ele>
        <time>2021-04-18T11:53:43.385Z</time>
      </trkpt>
      <trkpt lat="43.12864" lon="0.37114">
        <ele>640.024527</ele>
        <time>2021-04-18T11:53:46.392Z</time>
      </trkpt>
      <trkpt lat="43.12857" lon="0.37126">
        <ele>640.753075</ele>
        <time>2021-04-18T11:53:49.413Z</time>
      </trkpt>
      <trkpt lat="43.12851" lon="0.37137">
        <ele>641.453509</ele>
        <time>2021-04-18T11:53:52.390Z</time>
      </trkpt>
      <trkpt lat="43.12844" lon="0.37149">
        <ele>642.184836</ele>
        <time>2021-04-18T11:53:55.406Z</time>
      </trkpt>
      <trkpt lat="43.12836" lon="0.3716">
        <ele>642.940638</ele>
        <time>2021-04-18T11:53:58.394Z</time>
      </trkpt>
      <trkpt lat="43.12827" lon="0.37173">
        <ele>643.763454</ele>
        <time>2021-04-18T11:54:01.408Z</time>
      </trkpt>
      <trkpt lat="43.1282" lon="0.37185">
        <ele>644.316237</ele>
        <time>2021-04-18T11:54:04.413Z</time>
      </trkpt>
      <trkpt lat="43.12813" lon="0.37199">
        <ele>644.115741</ele>
        <time>2021-04-18T11:54:07.419Z</time>
      </trkpt>
      <trkpt lat="43.12805" lon="0.37212">
        <ele>643.913756</ele>
        <time>2021-04-18T11:54:10.404Z</time>
      </trkpt>
      <trkpt lat="43.12798" lon="0.37227">
        <ele>643.703263</ele>
        <time>2021-04-18T11:54:13.416Z</time>
      </trkpt>
      <trkpt lat="43.12791" lon="0.37241">
        <ele>643.493978</ele>
        <time>2021-04-18T11:54:16.401Z</time>
      </trkpt>
      <trkpt lat="43.12784" lon="0.37255">
        <ele>643.284815</ele>
        <time>2021-04-18T11:54:19.418Z</time>
      </trkpt>
      <trkpt lat="43.12777" lon="0.37269">
        <ele>643.079566</ele>
        <time>2021-04-18T11:54:22.417Z</time>
      </trkpt>
      <trkpt lat="43.12769" lon="0.37283">
        <ele>642.874129</ele>
        <time>2021-04-18T11:54:25.418Z</time>
      </trkpt>
      <trkpt lat="43.12762" lon="0.37297">
        <ele>642.661849</ele>
        <time>2021-04-18T11:54:28.401Z</time>
      </trkpt>
      <trkpt lat="43.12754" lon="0.37312">
        <ele>642.440139</ele>
        <time>2021-04-18T11:54:31.393Z</time>
      </trkpt>
      <trkpt lat="43.12748" lon="0.37322">
        <ele>642.292913</ele>
        <time>2021-04-18T11:54:33.388Z</time>
      </trkpt>
      <trkpt lat="43.12742" lon="0.37332">
        <ele>642.14446</ele>
        <time>2021-04-18T11:54:35.384Z</time>
      </trkpt>
      <trkpt lat="43.12735" lon="0.37346">
        <ele>641.928559</ele>
        <time>2021-04-18T11:54:38.392Z</time>
      </trkpt>
      <trkpt lat="43.12727" lon="0.37361">
        <ele>641.716489</ele>
        <time>2021-04-18T11:54:41.414Z</time>
      </trkpt>
      <trkpt lat="43.12719" lon="0.37374">
        <ele>641.501107</ele>
        <time>2021-04-18T11:54:44.407Z</time>
      </trkpt>
      <trkpt lat="43.12713" lon="0.37384">
        <ele>641.286613</ele>
        <time>2021-04-18T11:54:46.413Z</time>
      </trkpt>
      <trkpt lat="43.12708" lon="0.37394">
        <ele>640.958028</ele>
        <time>2021-04-18T11:54:48.401Z</time>
      </trkpt>
      <trkpt lat="43.12702" lon="0.37404">
        <ele>640.631577</ele>
        <time>2021-04-18T11:54:50.423Z</time>
      </trkpt>
      <trkpt lat="43.12694" lon="0.37419">
        <ele>640.160662</ele>
        <time>2021-04-18T11:54:53.418Z</time>
      </trkpt>
      <trkpt lat="43.12689" lon="0.37429">
        <ele>639.838345</ele>
        <time>2021-04-18T11:54:55.417Z</time>
      </trkpt>
      <trkpt lat="43.12684" lon="0.3744">
        <ele>639.505632</ele>
        <time>2021-04-18T11:54:57.402Z</time>
      </trkpt>
      <trkpt lat="43.12678" lon="0.3745">
        <ele>639.172704</ele>
        <time>2021-04-18T11:54:59.415Z</time>
      </trkpt>
      <trkpt lat="43.12672" lon="0.3746">
        <ele>638.839587</ele>
        <time>2021-04-18T11:55:01.399Z</time>
      </trkpt>
      <trkpt lat="43.12667" lon="0.3747">
        <ele>638.513135</ele>
        <time>2021-04-18T11:55:03.401Z</time>
      </trkpt>
      <trkpt lat="43.12661" lon="0.3748">
        <ele>638.180206</ele>
        <time>2021-04-18T11:55:05.403Z</time>
      </trkpt>
      <trkpt lat="43.12655" lon="0.37491">
        <ele>637.837003</ele>
        <time>2021-04-18T11:55:07.370Z</time>
      </trkpt>
      <trkpt lat="43.12649" lon="0.37501">
        <ele>637.488862</ele>
        <time>2021-04-18T11:55:09.439Z</time>
      </trkpt>
      <trkpt lat="43.12642" lon="0.37512">
        <ele>637.108833</ele>
        <time>2021-04-18T11:55:11.388Z</time>
      </trkpt>
      <trkpt lat="43.12634" lon="0.37524">
        <ele>636.704026</ele>
        <time>2021-04-18T11:55:13.390Z</time>
      </trkpt>
      <trkpt lat="43.12624" lon="0.37535">
        <ele>636.263559</ele>
        <time>2021-04-18T11:55:15.384Z</time>
      </trkpt>
      <trkpt lat="43.12614" lon="0.37544">
        <ele>635.82093</ele>
        <time>2021-04-18T11:55:17.402Z</time>
      </trkpt>
      <trkpt lat="43.12603" lon="0.3755">
        <ele>635.39794</ele>
        <time>2021-04-18T11:55:19.420Z</time>
      </trkpt>
      <trkpt lat="43.12592" lon="0.37555">
        <ele>635.024942</ele>
        <time>2021-04-18T11:55:21.403Z</time>
      </trkpt>
      <trkpt lat="43.12581" lon="0.37557">
        <ele>635.070361</ele>
        <time>2021-04-18T11:55:23.403Z</time>
      </trkpt>
      <trkpt lat="43.12568" lon="0.37555">
        <ele>635.121801</ele>
        <time>2021-04-18T11:55:25.388Z</time>
      </trkpt>
      <trkpt lat="43.12556" lon="0.37548">
        <ele>635.171692</ele>
        <time>2021-04-18T11:55:27.385Z</time>
      </trkpt>
      <trkpt lat="43.12548" lon="0.37539">
        <ele>635.213352</ele>
        <time>2021-04-18T11:55:29.406Z</time>
      </trkpt>
      <trkpt lat="43.12537" lon="0.3753">
        <ele>635.263985</ele>
        <time>2021-04-18T11:55:32.402Z</time>
      </trkpt>
      <trkpt lat="43.12526" lon="0.37521">
        <ele>635.313072</ele>
        <time>2021-04-18T11:55:35.401Z</time>
      </trkpt>
      <trkpt lat="43.12516" lon="0.37514">
        <ele>635.358606</ele>
        <time>2021-04-18T11:55:38.401Z</time>
      </trkpt>
      <trkpt lat="43.12506" lon="0.37505">
        <ele>635.404546</ele>
        <time>2021-04-18T11:55:41.406Z</time>
      </trkpt>
      <trkpt lat="43.12496" lon="0.37497">
        <ele>635.449309</ele>
        <time>2021-04-18T11:55:44.407Z</time>
      </trkpt>
      <trkpt lat="43.12486" lon="0.37488">
        <ele>635.49667</ele>
        <time>2021-04-18T11:55:47.423Z</time>
      </trkpt>
      <trkpt lat="43.12478" lon="0.37476">
        <ele>635.544755</ele>
        <time>2021-04-18T11:55:50.388Z</time>
      </trkpt>
      <trkpt lat="43.12472" lon="0.37463">
        <ele>635.588075</ele>
        <time>2021-04-18T11:55:53.402Z</time>
      </trkpt>
      <trkpt lat="43.12466" lon="0.3745">
        <ele>635.63125</ele>
        <time>2021-04-18T11:55:56.402Z</time>
      </trkpt>
      <trkpt lat="43.12461" lon="0.37438">
        <ele>635.673416</ele>
        <time>2021-04-18T11:55:59.401Z</time>
      </trkpt>
      <trkpt lat="43.12456" lon="0.37427">
        <ele>635.710731</ele>
        <time>2021-04-18T11:56:02.392Z</time>
      </trkpt>
      <trkpt lat="43.12451" lon="0.37416">
        <ele>635.894161</ele>
        <time>2021-04-18T11:56:05.392Z</time>
      </trkpt>
      <trkpt lat="43.12445" lon="0.37405">
        <ele>636.26189</ele>
        <time>2021-04-18T11:56:08.412Z</time>
      </trkpt>
      <trkpt lat="43.12439" lon="0.37393">
        <ele>636.645148</ele>
        <time>2021-04-18T11:56:11.397Z</time>
      </trkpt>
      <trkpt lat="43.12434" lon="0.37381">
        <ele>637.023597</ele>
        <time>2021-04-18T11:56:14.397Z</time>
      </trkpt>
      <trkpt lat="43.12429" lon="0.37369">
        <ele>637.400689</ele>
        <time>2021-04-18T11:56:17.397Z</time>
      </trkpt>
      <trkpt lat="43.12424" lon="0.37358">
        <ele>637.771098</ele>
        <time>2021-04-18T11:56:20.398Z</time>
      </trkpt>
      <trkpt lat="43.12419" lon="0.37347">
        <ele>638.119314</ele>
        <time>2021-04-18T11:56:23.401Z</time>
      </trkpt>
      <trkpt lat="43.12416" lon="0.37336">
        <ele>638.46052</ele>
        <time>2021-04-18T11:56:26.397Z</time>
      </trkpt>
      <trkpt lat="43.12412" lon="0.37324">
        <ele>638.79969</ele>
        <time>2021-04-18T11:56:29.394Z</time>
      </trkpt>
      <trkpt lat="43.1241" lon="0.37311">
        <ele>639.155833</ele>
        <time>2021-04-18T11:56:32.417Z</time>
      </trkpt>
      <trkpt lat="43.12411" lon="0.37299">
        <ele>639.497221</ele>
        <time>2021-04-18T11:56:35.415Z</time>
      </trkpt>
      <trkpt lat="43.12414" lon="0.37284">
        <ele>639.937968</ele>
        <time>2021-04-18T11:56:39.419Z</time>
      </trkpt>
      <trkpt lat="43.12419" lon="0.37269">
        <ele>640.381641</ele>
        <time>2021-04-18T11:56:43.401Z</time>
      </trkpt>
      <trkpt lat="43.12422" lon="0.37256">
        <ele>640.744907</ele>
        <time>2021-04-18T11:56:46.406Z</time>
      </trkpt>
      <trkpt lat="43.12425" lon="0.37243">
        <ele>641.113592</ele>
        <time>2021-04-18T11:56:49.400Z</time>
      </trkpt>
      <trkpt lat="43.12428" lon="0.37231">
        <ele>641.472177</ele>
        <time>2021-04-18T11:56:52.413Z</time>
      </trkpt>
      <trkpt lat="43.12432" lon="0.37216">
        <ele>641.9142</ele>
        <time>2021-04-18T11:56:56.435Z</time>
      </trkpt>
      <trkpt lat="43.12435" lon="0.372">
        <ele>642.364895</ele>
        <time>2021-04-18T11:57:00.402Z</time>
      </trkpt>
      <trkpt lat="43.12437" lon="0.37188">
        <ele>642.566658</ele>
        <time>2021-04-18T11:57:03.423Z</time>
      </trkpt>
      <trkpt lat="43.12441" lon="0.37172">
        <ele>642.725601</ele>
        <time>2021-04-18T11:57:07.398Z</time>
      </trkpt>
      <trkpt lat="43.12444" lon="0.37158">
        <ele>642.861249</ele>
        <time>2021-04-18T11:57:10.437Z</time>
      </trkpt>
      <trkpt lat="43.12447" lon="0.37142">
        <ele>643.019437</ele>
        <time>2021-04-18T11:57:14.401Z</time>
      </trkpt>
      <trkpt lat="43.1245" lon="0.37128">
        <ele>643.158085</ele>
        <time>2021-04-18T11:57:17.450Z</time>
      </trkpt>
      <trkpt lat="43.12453" lon="0.37113">
        <ele>643.31332</ele>
        <time>2021-04-18T11:57:20.440Z</time>
      </trkpt>
      <trkpt lat="43.12454" lon="0.37099">
        <ele>643.442217</ele>
        <time>2021-04-18T11:57:23.419Z</time>
      </trkpt>
      <trkpt lat="43.12458" lon="0.37087">
        <ele>643.56334</ele>
        <time>2021-04-18T11:57:28.418Z</time>
      </trkpt>
      <trkpt lat="43.12454" lon="0.37099">
        <ele>643.681587</ele>
        <time>2021-04-18T11:57:41.392Z</time>
      </trkpt>
      <trkpt lat="43.12451" lon="0.37111">
        <ele>643.804576</ele>
        <time>2021-04-18T11:57:47.398Z</time>
      </trkpt>
      <trkpt lat="43.12447" lon="0.37122">
        <ele>643.92793</ele>
        <time>2021-04-18T11:57:56.385Z</time>
      </trkpt>
      <trkpt lat="43.12444" lon="0.37137">
        <ele>644.074508</ele>
        <time>2021-04-18T11:58:00.400Z</time>
      </trkpt>
      <trkpt lat="43.12441" lon="0.3715">
        <ele>644.201174</ele>
        <time>2021-04-18T11:58:03.421Z</time>
      </trkpt>
      <trkpt lat="43.12437" lon="0.37164">
        <ele>644.34875</ele>
        <time>2021-04-18T11:58:07.393Z</time>
      </trkpt>
      <trkpt lat="43.12434" lon="0.37177">
        <ele>644.478537</ele>
        <time>2021-04-18T11:58:10.399Z</time>
      </trkpt>
      <trkpt lat="43.12431" lon="0.37192">
        <ele>644.621878</ele>
        <time>2021-04-18T11:58:13.401Z</time>
      </trkpt>
      <trkpt lat="43.12427" lon="0.37208">
        <ele>644.782524</ele>
        <time>2021-04-18T11:58:16.417Z</time>
      </trkpt>
      <trkpt lat="43.12423" lon="0.37224">
        <ele>644.591809</ele>
        <time>2021-04-18T11:58:19.404Z</time>
      </trkpt>
      <trkpt lat="43.12418" lon="0.37241">
        <ele>644.166373</ele>
        <time>2021-04-18T11:58:22.389Z</time>
      </trkpt>
      <trkpt lat="43.12413" lon="0.37258">
        <ele>643.739896</ele>
        <time>2021-04-18T11:58:25.407Z</time>
      </trkpt>
      <trkpt lat="43.12408" lon="0.37274">
        <ele>643.328448</ele>
        <time>2021-04-18T11:58:28.379Z</time>
      </trkpt>
      <trkpt lat="43.12404" lon="0.37291">
        <ele>642.91942</ele>
        <time>2021-04-18T11:58:31.393Z</time>
      </trkpt>
      <trkpt lat="43.12402" lon="0.37307">
        <ele>642.522124</ele>
        <time>2021-04-18T11:58:34.419Z</time>
      </trkpt>
      <trkpt lat="43.12404" lon="0.37325">
        <ele>642.101777</ele>
        <time>2021-04-18T11:58:37.392Z</time>
      </trkpt>
      <trkpt lat="43.1241" lon="0.37341">
        <ele>641.695117</ele>
        <time>2021-04-18T11:58:40.413Z</time>
      </trkpt>
      <trkpt lat="43.12416" lon="0.37357">
        <ele>641.270245</ele>
        <time>2021-04-18T11:58:43.400Z</time>
      </trkpt>
      <trkpt lat="43.12421" lon="0.3737">
        <ele>640.939079</ele>
        <time>2021-04-18T11:58:45.412Z</time>
      </trkpt>
      <trkpt lat="43.12427" lon="0.37383">
        <ele>640.568172</ele>
        <time>2021-04-18T11:58:47.416Z</time>
      </trkpt>
      <trkpt lat="43.12433" lon="0.37398">
        <ele>640.171559</ele>
        <time>2021-04-18T11:58:49.420Z</time>
      </trkpt>
      <trkpt lat="43.12441" lon="0.37413">
        <ele>639.752535</ele>
        <time>2021-04-18T11:58:51.413Z</time>
      </trkpt>
      <trkpt lat="43.12448" lon="0.37427">
        <ele>639.341279</ele>
        <time>2021-04-18T11:58:53.401Z</time>
      </trkpt>
      <trkpt lat="43.12455" lon="0.37442">
        <ele>638.860646</ele>
        <time>2021-04-18T11:58:55.401Z</time>
      </trkpt>
      <trkpt lat="43.12462" lon="0.37455">
        <ele>638.293965</ele>
        <time>2021-04-18T11:58:57.409Z</time>
      </trkpt>
      <trkpt lat="43.12469" lon="0.37468">
        <ele>637.757687</ele>
        <time>2021-04-18T11:58:59.401Z</time>
      </trkpt>
      <trkpt lat="43.12476" lon="0.37479">
        <ele>637.239168</ele>
        <time>2021-04-18T11:59:01.373Z</time>
      </trkpt>
      <trkpt lat="43.12483" lon="0.37489">
        <ele>636.773842</ele>
        <time>2021-04-18T11:59:03.388Z</time>
      </trkpt>
      <trkpt lat="43.12492" lon="0.375">
        <ele>636.203549</ele>
        <time>2021-04-18T11:59:06.397Z</time>
      </trkpt>
      <trkpt lat="43.12501" lon="0.37508">
        <ele>635.696581</ele>
        <time>2021-04-18T11:59:08.396Z</time>
      </trkpt>
      <trkpt lat="43.12512" lon="0.37517">
        <ele>635.094802</ele>
        <time>2021-04-18T11:59:10.392Z</time>
      </trkpt>
      <trkpt lat="43.12523" lon="0.37526">
        <ele>634.517666</ele>
        <time>2021-04-18T11:59:12.411Z</time>
      </trkpt>
      <trkpt lat="43.12533" lon="0.37535">
        <ele>633.958539</ele>
        <time>2021-04-18T11:59:14.406Z</time>
      </trkpt>
      <trkpt lat="43.12542" lon="0.37543">
        <ele>633.426528</ele>
        <time>2021-04-18T11:59:16.413Z</time>
      </trkpt>
      <trkpt lat="43.12551" lon="0.3755">
        <ele>632.963274</ele>
        <time>2021-04-18T11:59:18.388Z</time>
      </trkpt>
      <trkpt lat="43.12558" lon="0.37561">
        <ele>632.458695</ele>
        <time>2021-04-18T11:59:21.416Z</time>
      </trkpt>
      <trkpt lat="43.12551" lon="0.3757">
        <ele>631.985232</ele>
        <time>2021-04-18T11:59:24.418Z</time>
      </trkpt>
      <trkpt lat="43.12541" lon="0.37574">
        <ele>631.484175</ele>
        <time>2021-04-18T11:59:26.405Z</time>
      </trkpt>
      <trkpt lat="43.12529" lon="0.37576">
        <ele>630.918511</ele>
        <time>2021-04-18T11:59:28.421Z</time>
      </trkpt>
      <trkpt lat="43.12516" lon="0.37575">
        <ele>630.215401</ele>
        <time>2021-04-18T11:59:30.390Z</time>
      </trkpt>
      <trkpt lat="43.12501" lon="0.37573">
        <ele>629.404819</ele>
        <time>2021-04-18T11:59:32.423Z</time>
      </trkpt>
      <trkpt lat="43.12488" lon="0.3757">
        <ele>628.606719</ele>
        <time>2021-04-18T11:59:34.422Z</time>
      </trkpt>
      <trkpt lat="43.12475" lon="0.37565">
        <ele>627.838757</ele>
        <time>2021-04-18T11:59:36.391Z</time>
      </trkpt>
      <trkpt lat="43.12463" lon="0.37562">
        <ele>627.139661</ele>
        <time>2021-04-18T11:59:38.394Z</time>
      </trkpt>
      <trkpt lat="43.1245" lon="0.37562">
        <ele>626.436988</ele>
        <time>2021-04-18T11:59:40.395Z</time>
      </trkpt>
      <trkpt lat="43.12438" lon="0.37564">
        <ele>625.699052</ele>
        <time>2021-04-18T11:59:42.415Z</time>
      </trkpt>
      <trkpt lat="43.12423" lon="0.37572">
        <ele>624.790917</ele>
        <time>2021-04-18T11:59:44.426Z</time>
      </trkpt>
      <trkpt lat="43.12415" lon="0.37579">
        <ele>624.24886</ele>
        <time>2021-04-18T11:59:45.430Z</time>
      </trkpt>
      <trkpt lat="43.12408" lon="0.37588">
        <ele>623.689345</ele>
        <time>2021-04-18T11:59:46.394Z</time>
      </trkpt>
      <trkpt lat="43.12401" lon="0.37598">
        <ele>623.159495</ele>
        <time>2021-04-18T11:59:47.397Z</time>
      </trkpt>
      <trkpt lat="43.12393" lon="0.37614">
        <ele>622.317616</ele>
        <time>2021-04-18T11:59:49.426Z</time>
      </trkpt>
      <trkpt lat="43.12385" lon="0.37627">
        <ele>621.646951</ele>
        <time>2021-04-18T11:59:51.395Z</time>
      </trkpt>
      <trkpt lat="43.12379" lon="0.37639">
        <ele>621.006977</ele>
        <time>2021-04-18T11:59:53.395Z</time>
      </trkpt>
      <trkpt lat="43.12373" lon="0.37656">
        <ele>620.444609</ele>
        <time>2021-04-18T11:59:55.415Z</time>
      </trkpt>
      <trkpt lat="43.12369" lon="0.37672">
        <ele>620.739538</ele>
        <time>2021-04-18T11:59:57.396Z</time>
      </trkpt>
      <trkpt lat="43.12368" lon="0.37687">
        <ele>620.99251</ele>
        <time>2021-04-18T11:59:59.400Z</time>
      </trkpt>
      <trkpt lat="43.12369" lon="0.377">
        <ele>621.21927</ele>
        <time>2021-04-18T12:00:01.415Z</time>
      </trkpt>
      <trkpt lat="43.12371" lon="0.37717">
        <ele>621.508132</ele>
        <time>2021-04-18T12:00:04.443Z</time>
      </trkpt>
      <trkpt lat="43.12375" lon="0.37731">
        <ele>621.772955</ele>
        <time>2021-04-18T12:00:07.395Z</time>
      </trkpt>
      <trkpt lat="43.1238" lon="0.37745">
        <ele>622.034549</ele>
        <time>2021-04-18T12:00:11.400Z</time>
      </trkpt>
      <trkpt lat="43.12388" lon="0.37757">
        <ele>622.302556</ele>
        <time>2021-04-18T12:00:15.415Z</time>
      </trkpt>
      <trkpt lat="43.12397" lon="0.37766">
        <ele>622.574223</ele>
        <time>2021-04-18T12:00:18.413Z</time>
      </trkpt>
      <trkpt lat="43.12407" lon="0.37775">
        <ele>622.845105</ele>
        <time>2021-04-18T12:00:21.369Z</time>
      </trkpt>
      <trkpt lat="43.12415" lon="0.37783">
        <ele>623.071827</ele>
        <time>2021-04-18T12:00:24.406Z</time>
      </trkpt>
      <trkpt lat="43.12424" lon="0.37793">
        <ele>623.339248</ele>
        <time>2021-04-18T12:00:28.412Z</time>
      </trkpt>
      <trkpt lat="43.1243" lon="0.37805">
        <ele>623.602258</ele>
        <time>2021-04-18T12:00:32.413Z</time>
      </trkpt>
      <trkpt lat="43.12435" lon="0.37816">
        <ele>623.819256</ele>
        <time>2021-04-18T12:00:35.399Z</time>
      </trkpt>
      <trkpt lat="43.12441" lon="0.3783">
        <ele>624.087228</ele>
        <time>2021-04-18T12:00:39.396Z</time>
      </trkpt>
      <trkpt lat="43.12447" lon="0.37844">
        <ele>624.3625</ele>
        <time>2021-04-18T12:00:43.395Z</time>
      </trkpt>
      <trkpt lat="43.12452" lon="0.37856">
        <ele>624.642802</ele>
        <time>2021-04-18T12:00:47.415Z</time>
      </trkpt>
      <trkpt lat="43.12457" lon="0.3787">
        <ele>625.495537</ele>
        <time>2021-04-18T12:00:51.396Z</time>
      </trkpt>
      <trkpt lat="43.12461" lon="0.37883">
        <ele>626.305975</ele>
        <time>2021-04-18T12:00:55.439Z</time>
      </trkpt>
      <trkpt lat="43.12466" lon="0.37895">
        <ele>627.082996</ele>
        <time>2021-04-18T12:00:59.395Z</time>
      </trkpt>
      <trkpt lat="43.12469" lon="0.37907">
        <ele>627.781311</ele>
        <time>2021-04-18T12:01:03.422Z</time>
      </trkpt>
      <trkpt lat="43.12474" lon="0.37919">
        <ele>628.578869</ele>
        <time>2021-04-18T12:01:07.398Z</time>
      </trkpt>
      <trkpt lat="43.12477" lon="0.37932">
        <ele>629.313942</ele>
        <time>2021-04-18T12:01:11.397Z</time>
      </trkpt>
      <trkpt lat="43.12482" lon="0.37946">
        <ele>630.1634</ele>
        <time>2021-04-18T12:01:15.414Z</time>
      </trkpt>
      <trkpt lat="43.12485" lon="0.37958">
        <ele>630.903372</ele>
        <time>2021-04-18T12:01:18.407Z</time>
      </trkpt>
      <trkpt lat="43.12489" lon="0.37969">
        <ele>631.591926</ele>
        <time>2021-04-18T12:01:21.400Z</time>
      </trkpt>
      <trkpt lat="43.12495" lon="0.37982">
        <ele>632.441019</ele>
        <time>2021-04-18T12:01:25.413Z</time>
      </trkpt>
      <trkpt lat="43.125" lon="0.37995">
        <ele>633.233649</ele>
        <time>2021-04-18T12:01:29.398Z</time>
      </trkpt>
      <trkpt lat="43.12505" lon="0.38006">
        <ele>633.971845</ele>
        <time>2021-04-18T12:01:33.444Z</time>
      </trkpt>
      <trkpt lat="43.12508" lon="0.38018">
        <ele>634.706587</ele>
        <time>2021-04-18T12:01:36.398Z</time>
      </trkpt>
      <trkpt lat="43.12512" lon="0.38031">
        <ele>635.439455</ele>
        <time>2021-04-18T12:01:39.404Z</time>
      </trkpt>
      <trkpt lat="43.12516" lon="0.38042">
        <ele>636.137907</ele>
        <time>2021-04-18T12:01:43.397Z</time>
      </trkpt>
      <trkpt lat="43.12521" lon="0.38052">
        <ele>636.837357</ele>
        <time>2021-04-18T12:01:47.413Z</time>
      </trkpt>
      <trkpt lat="43.12526" lon="0.38066">
        <ele>637.714799</ele>
        <time>2021-04-18T12:01:51.412Z</time>
      </trkpt>
      <trkpt lat="43.12531" lon="0.38077">
        <ele>638.364817</ele>
        <time>2021-04-18T12:01:55.397Z</time>
      </trkpt>
      <trkpt lat="43.12532" lon="0.38091">
        <ele>638.478766</ele>
        <time>2021-04-18T12:02:01.385Z</time>
      </trkpt>
      <trkpt lat="43.12535" lon="0.38104">
        <ele>638.589426</ele>
        <time>2021-04-18T12:02:04.398Z</time>
      </trkpt>
      <trkpt lat="43.12538" lon="0.38117">
        <ele>638.703311</ele>
        <time>2021-04-18T12:02:08.401Z</time>
      </trkpt>
      <trkpt lat="43.12542" lon="0.38131">
        <ele>638.819443</ele>
        <time>2021-04-18T12:02:12.429Z</time>
      </trkpt>
      <trkpt lat="43.12537" lon="0.38119">
        <ele>638.92859</ele>
        <time>2021-04-18T12:02:25.399Z</time>
      </trkpt>
      <trkpt lat="43.12529" lon="0.38108">
        <ele>639.052822</ele>
        <time>2021-04-18T12:02:29.411Z</time>
      </trkpt>
      <trkpt lat="43.12521" lon="0.381">
        <ele>639.167969</ele>
        <time>2021-04-18T12:02:33.395Z</time>
      </trkpt>
      <trkpt lat="43.12514" lon="0.38091">
        <ele>639.275155</ele>
        <time>2021-04-18T12:02:36.396Z</time>
      </trkpt>
      <trkpt lat="43.12506" lon="0.38084">
        <ele>639.379597</ele>
        <time>2021-04-18T12:02:39.412Z</time>
      </trkpt>
      <trkpt lat="43.12496" lon="0.38077">
        <ele>639.511357</ele>
        <time>2021-04-18T12:02:43.396Z</time>
      </trkpt>
      <trkpt lat="43.12488" lon="0.3807">
        <ele>639.617735</ele>
        <time>2021-04-18T12:02:46.394Z</time>
      </trkpt>
      <trkpt lat="43.12477" lon="0.38063">
        <ele>639.751547</ele>
        <time>2021-04-18T12:02:49.414Z</time>
      </trkpt>
      <trkpt lat="43.12467" lon="0.38054">
        <ele>639.891874</ele>
        <time>2021-04-18T12:02:52.397Z</time>
      </trkpt>
      <trkpt lat="43.12458" lon="0.38049">
        <ele>639.999808</ele>
        <time>2021-04-18T12:02:54.413Z</time>
      </trkpt>
      <trkpt lat="43.12449" lon="0.38042">
        <ele>640.107387</ele>
        <time>2021-04-18T12:02:56.398Z</time>
      </trkpt>
      <trkpt lat="43.12439" lon="0.38032">
        <ele>640.249891</ele>
        <time>2021-04-18T12:02:59.413Z</time>
      </trkpt>
      <trkpt lat="43.12429" lon="0.38022">
        <ele>640.37411</ele>
        <time>2021-04-18T12:03:02.398Z</time>
      </trkpt>
      <trkpt lat="43.12418" lon="0.38012">
        <ele>640.367049</ele>
        <time>2021-04-18T12:03:05.409Z</time>
      </trkpt>
      <trkpt lat="43.12409" lon="0.38002">
        <ele>640.360342</ele>
        <time>2021-04-18T12:03:08.399Z</time>
      </trkpt>
      <trkpt lat="43.124" lon="0.37994">
        <ele>640.354355</ele>
        <time>2021-04-18T12:03:11.414Z</time>
      </trkpt>
      <trkpt lat="43.12391" lon="0.37986">
        <ele>640.348394</ele>
        <time>2021-04-18T12:03:14.398Z</time>
      </trkpt>
      <trkpt lat="43.12383" lon="0.37977">
        <ele>640.342468</ele>
        <time>2021-04-18T12:03:17.416Z</time>
      </trkpt>
      <trkpt lat="43.12373" lon="0.37967">
        <ele>640.33582</ele>
        <time>2021-04-18T12:03:20.380Z</time>
      </trkpt>
      <trkpt lat="43.12362" lon="0.37958">
        <ele>640.329055</ele>
        <time>2021-04-18T12:03:23.405Z</time>
      </trkpt>
      <trkpt lat="43.12353" lon="0.3795">
        <ele>640.322589</ele>
        <time>2021-04-18T12:03:26.403Z</time>
      </trkpt>
      <trkpt lat="43.12343" lon="0.37941">
        <ele>640.316133</ele>
        <time>2021-04-18T12:03:29.398Z</time>
      </trkpt>
      <trkpt lat="43.12333" lon="0.37933">
        <ele>640.309581</ele>
        <time>2021-04-18T12:03:32.388Z</time>
      </trkpt>
      <trkpt lat="43.12322" lon="0.37925">
        <ele>640.302898</ele>
        <time>2021-04-18T12:03:35.392Z</time>
      </trkpt>
      <trkpt lat="43.12313" lon="0.37916">
        <ele>640.296753</ele>
        <time>2021-04-18T12:03:38.396Z</time>
      </trkpt>
      <trkpt lat="43.12303" lon="0.37907">
        <ele>640.29015</ele>
        <time>2021-04-18T12:03:41.390Z</time>
      </trkpt>
      <trkpt lat="43.12293" lon="0.37898">
        <ele>640.283363</ele>
        <time>2021-04-18T12:03:44.415Z</time>
      </trkpt>
      <trkpt lat="43.12283" lon="0.37889">
        <ele>640.276569</ele>
        <time>2021-04-18T12:03:47.417Z</time>
      </trkpt>
      <trkpt lat="43.12272" lon="0.37882">
        <ele>640.676731</ele>
        <time>2021-04-18T12:03:50.401Z</time>
      </trkpt>
      <trkpt lat="43.12261" lon="0.37873">
        <ele>641.207903</ele>
        <time>2021-04-18T12:03:53.387Z</time>
      </trkpt>
      <trkpt lat="43.1225" lon="0.37864">
        <ele>641.742057</ele>
        <time>2021-04-18T12:03:56.414Z</time>
      </trkpt>
      <trkpt lat="43.1224" lon="0.37855">
        <ele>642.257146</ele>
        <time>2021-04-18T12:03:59.396Z</time>
      </trkpt>
      <trkpt lat="43.12229" lon="0.37845">
        <ele>642.791934</ele>
        <time>2021-04-18T12:04:02.391Z</time>
      </trkpt>
      <trkpt lat="43.12221" lon="0.3784">
        <ele>643.17144</ele>
        <time>2021-04-18T12:04:04.387Z</time>
      </trkpt>
      <trkpt lat="43.12209" lon="0.3783">
        <ele>643.75029</ele>
        <time>2021-04-18T12:04:07.393Z</time>
      </trkpt>
      <trkpt lat="43.12198" lon="0.3782">
        <ele>644.309169</ele>
        <time>2021-04-18T12:04:10.427Z</time>
      </trkpt>
      <trkpt lat="43.12187" lon="0.37811">
        <ele>644.838753</ele>
        <time>2021-04-18T12:04:13.394Z</time>
      </trkpt>
      <trkpt lat="43.12177" lon="0.37802">
        <ele>645.383446</ele>
        <time>2021-04-18T12:04:16.398Z</time>
      </trkpt>
      <trkpt lat="43.12166" lon="0.37792">
        <ele>645.902065</ele>
        <time>2021-04-18T12:04:19.394Z</time>
      </trkpt>
      <trkpt lat="43.12155" lon="0.37783">
        <ele>646.449261</ele>
        <time>2021-04-18T12:04:22.394Z</time>
      </trkpt>
      <trkpt lat="43.12146" lon="0.37774">
        <ele>646.946872</ele>
        <time>2021-04-18T12:04:25.394Z</time>
      </trkpt>
      <trkpt lat="43.12138" lon="0.37768">
        <ele>647.326746</ele>
        <time>2021-04-18T12:04:27.397Z</time>
      </trkpt>
      <trkpt lat="43.1213" lon="0.37761">
        <ele>647.718102</ele>
        <time>2021-04-18T12:04:29.391Z</time>
      </trkpt>
      <trkpt lat="43.12122" lon="0.37755">
        <ele>647.737773</ele>
        <time>2021-04-18T12:04:31.408Z</time>
      </trkpt>
      <trkpt lat="43.12111" lon="0.37746">
        <ele>647.490162</ele>
        <time>2021-04-18T12:04:34.395Z</time>
      </trkpt>
      <trkpt lat="43.12101" lon="0.37739">
        <ele>647.248803</ele>
        <time>2021-04-18T12:04:37.407Z</time>
      </trkpt>
      <trkpt lat="43.12093" lon="0.37731">
        <ele>647.05263</ele>
        <time>2021-04-18T12:04:40.422Z</time>
      </trkpt>
      <trkpt lat="43.12083" lon="0.37722">
        <ele>646.813463</ele>
        <time>2021-04-18T12:04:43.414Z</time>
      </trkpt>
      <trkpt lat="43.12075" lon="0.37715">
        <ele>646.618009</ele>
        <time>2021-04-18T12:04:45.397Z</time>
      </trkpt>
      <trkpt lat="43.12066" lon="0.37707">
        <ele>646.403972</ele>
        <time>2021-04-18T12:04:47.375Z</time>
      </trkpt>
      <trkpt lat="43.12059" lon="0.37699">
        <ele>646.206264</ele>
        <time>2021-04-18T12:04:49.393Z</time>
      </trkpt>
      <trkpt lat="43.1205" lon="0.37692">
        <ele>646.001341</ele>
        <time>2021-04-18T12:04:51.411Z</time>
      </trkpt>
      <trkpt lat="43.12039" lon="0.37682">
        <ele>645.735957</ele>
        <time>2021-04-18T12:04:54.410Z</time>
      </trkpt>
      <trkpt lat="43.12031" lon="0.37675">
        <ele>645.544832</ele>
        <time>2021-04-18T12:04:56.397Z</time>
      </trkpt>
      <trkpt lat="43.12024" lon="0.37668">
        <ele>645.359618</ele>
        <time>2021-04-18T12:04:58.398Z</time>
      </trkpt>
      <trkpt lat="43.12014" lon="0.37661">
        <ele>645.133331</ele>
        <time>2021-04-18T12:05:01.397Z</time>
      </trkpt>
      <trkpt lat="43.12007" lon="0.37649">
        <ele>644.903328</ele>
        <time>2021-04-18T12:05:05.411Z</time>
      </trkpt>
      <trkpt lat="43.11998" lon="0.37636">
        <ele>644.63993</ele>
        <time>2021-04-18T12:05:08.444Z</time>
      </trkpt>
      <trkpt lat="43.11988" lon="0.37633">
        <ele>644.433968</ele>
        <time>2021-04-18T12:05:10.397Z</time>
      </trkpt>
      <trkpt lat="43.11976" lon="0.37636">
        <ele>644.199541</ele>
        <time>2021-04-18T12:05:12.413Z</time>
      </trkpt>
      <trkpt lat="43.11969" lon="0.37645">
        <ele>645.158225</ele>
        <time>2021-04-18T12:05:14.413Z</time>
      </trkpt>
      <trkpt lat="43.11967" lon="0.37662">
        <ele>646.349231</ele>
        <time>2021-04-18T12:05:17.395Z</time>
      </trkpt>
      <trkpt lat="43.1197" lon="0.37674">
        <ele>647.278634</ele>
        <time>2021-04-18T12:05:21.395Z</time>
      </trkpt>
      <trkpt lat="43.11973" lon="0.3769">
        <ele>648.426984</ele>
        <time>2021-04-18T12:05:25.413Z</time>
      </trkpt>
      <trkpt lat="43.11974" lon="0.37704">
        <ele>649.466684</ele>
        <time>2021-04-18T12:05:28.427Z</time>
      </trkpt>
      <trkpt lat="43.11974" lon="0.3772">
        <ele>650.601764</ele>
        <time>2021-04-18T12:05:31.395Z</time>
      </trkpt>
      <trkpt lat="43.11972" lon="0.37734">
        <ele>651.557825</ele>
        <time>2021-04-18T12:05:34.413Z</time>
      </trkpt>
      <trkpt lat="43.11974" lon="0.37747">
        <ele>652.553511</ele>
        <time>2021-04-18T12:05:37.415Z</time>
      </trkpt>
      <trkpt lat="43.11977" lon="0.37761">
        <ele>653.520403</ele>
        <time>2021-04-18T12:05:40.410Z</time>
      </trkpt>
      <trkpt lat="43.11978" lon="0.37773">
        <ele>654.421915</ele>
        <time>2021-04-18T12:05:43.416Z</time>
      </trkpt>
      <trkpt lat="43.11978" lon="0.37788">
        <ele>655.500702</ele>
        <time>2021-04-18T12:05:47.412Z</time>
      </trkpt>
      <trkpt lat="43.11978" lon="0.37806">
        <ele>656.713729</ele>
        <time>2021-04-18T12:05:50.373Z</time>
      </trkpt>
      <trkpt lat="43.11979" lon="0.37821">
        <ele>657.798794</ele>
        <time>2021-04-18T12:05:53.397Z</time>
      </trkpt>
      <trkpt lat="43.11984" lon="0.37835">
        <ele>658.905612</ele>
        <time>2021-04-18T12:05:56.403Z</time>
      </trkpt>
      <trkpt lat="43.11987" lon="0.37849">
        <ele>659.908299</ele>
        <time>2021-04-18T12:05:59.412Z</time>
      </trkpt>
      <trkpt lat="43.11992" lon="0.37862">
        <ele>660.971789</ele>
        <time>2021-04-18T12:06:02.398Z</time>
      </trkpt>
      <trkpt lat="43.11997" lon="0.37875">
        <ele>661.642715</ele>
        <time>2021-04-18T12:06:05.398Z</time>
      </trkpt>
      <trkpt lat="43.12003" lon="0.37888">
        <ele>661.582889</ele>
        <time>2021-04-18T12:06:08.396Z</time>
      </trkpt>
      <trkpt lat="43.12009" lon="0.37903">
        <ele>661.511549</ele>
        <time>2021-04-18T12:06:11.431Z</time>
      </trkpt>
      <trkpt lat="43.12013" lon="0.37914">
        <ele>661.461897</ele>
        <time>2021-04-18T12:06:13.394Z</time>
      </trkpt>
      <trkpt lat="43.12018" lon="0.3793">
        <ele>661.39485</ele>
        <time>2021-04-18T12:06:16.400Z</time>
      </trkpt>
      <trkpt lat="43.12023" lon="0.37943">
        <ele>661.334677</ele>
        <time>2021-04-18T12:06:19.413Z</time>
      </trkpt>
      <trkpt lat="43.12028" lon="0.37957">
        <ele>661.272916</ele>
        <time>2021-04-18T12:06:22.393Z</time>
      </trkpt>
      <trkpt lat="43.12034" lon="0.37973">
        <ele>661.202181</ele>
        <time>2021-04-18T12:06:25.396Z</time>
      </trkpt>
      <trkpt lat="43.12041" lon="0.37986">
        <ele>661.135937</ele>
        <time>2021-04-18T12:06:28.396Z</time>
      </trkpt>
      <trkpt lat="43.12045" lon="0.37997">
        <ele>661.085575</ele>
        <time>2021-04-18T12:06:30.400Z</time>
      </trkpt>
      <trkpt lat="43.12049" lon="0.3801">
        <ele>661.032083</ele>
        <time>2021-04-18T12:06:32.452Z</time>
      </trkpt>
      <trkpt lat="43.12054" lon="0.38023">
        <ele>660.972496</ele>
        <time>2021-04-18T12:06:34.397Z</time>
      </trkpt>
      <trkpt lat="43.12059" lon="0.38037">
        <ele>660.909517</ele>
        <time>2021-04-18T12:06:36.398Z</time>
      </trkpt>
      <trkpt lat="43.12064" lon="0.38051">
        <ele>660.84892</ele>
        <time>2021-04-18T12:06:38.400Z</time>
      </trkpt>
      <trkpt lat="43.12066" lon="0.38065">
        <ele>660.790886</ele>
        <time>2021-04-18T12:06:40.370Z</time>
      </trkpt>
      <trkpt lat="43.12062" lon="0.38077">
        <ele>660.735978</ele>
        <time>2021-04-18T12:06:42.384Z</time>
      </trkpt>
      <trkpt lat="43.12053" lon="0.38083">
        <ele>660.680289</ele>
        <time>2021-04-18T12:06:44.412Z</time>
      </trkpt>
      <trkpt lat="43.12044" lon="0.38087">
        <ele>660.12491</ele>
        <time>2021-04-18T12:06:46.401Z</time>
      </trkpt>
      <trkpt lat="43.12031" lon="0.38092">
        <ele>659.278416</ele>
        <time>2021-04-18T12:06:49.408Z</time>
      </trkpt>
      <trkpt lat="43.12019" lon="0.38098">
        <ele>658.473899</ele>
        <time>2021-04-18T12:06:52.407Z</time>
      </trkpt>
      <trkpt lat="43.12008" lon="0.38101">
        <ele>657.693798</ele>
        <time>2021-04-18T12:06:55.411Z</time>
      </trkpt>
      <trkpt lat="43.11995" lon="0.38105">
        <ele>656.843319</ele>
        <time>2021-04-18T12:06:58.437Z</time>
      </trkpt>
      <trkpt lat="43.11982" lon="0.3811">
        <ele>655.979483</ele>
        <time>2021-04-18T12:07:01.393Z</time>
      </trkpt>
      <trkpt lat="43.11973" lon="0.38114">
        <ele>655.374986</ele>
        <time>2021-04-18T12:07:03.403Z</time>
      </trkpt>
      <trkpt lat="43.11963" lon="0.38118">
        <ele>654.723232</ele>
        <time>2021-04-18T12:07:05.404Z</time>
      </trkpt>
      <trkpt lat="43.11954" lon="0.38125">
        <ele>654.059999</ele>
        <time>2021-04-18T12:07:07.404Z</time>
      </trkpt>
      <trkpt lat="43.11947" lon="0.38133">
        <ele>653.447599</ele>
        <time>2021-04-18T12:07:09.404Z</time>
      </trkpt>
      <trkpt lat="43.1194" lon="0.38142">
        <ele>652.821985</ele>
        <time>2021-04-18T12:07:11.394Z</time>
      </trkpt>
      <trkpt lat="43.11934" lon="0.38152">
        <ele>652.222474</ele>
        <time>2021-04-18T12:07:13.391Z</time>
      </trkpt>
      <trkpt lat="43.11928" lon="0.38162">
        <ele>651.615171</ele>
        <time>2021-04-18T12:07:15.392Z</time>
      </trkpt>
      <trkpt lat="43.11922" lon="0.38172">
        <ele>651.029265</ele>
        <time>2021-04-18T12:07:17.427Z</time>
      </trkpt>
      <trkpt lat="43.11915" lon="0.38181">
        <ele>650.387137</ele>
        <time>2021-04-18T12:07:21.413Z</time>
      </trkpt>
      <trkpt lat="43.11906" lon="0.38175">
        <ele>649.764915</ele>
        <time>2021-04-18T12:07:25.402Z</time>
      </trkpt>
      <trkpt lat="43.11897" lon="0.38169">
        <ele>649.111399</ele>
        <time>2021-04-18T12:07:28.415Z</time>
      </trkpt>
      <trkpt lat="43.11886" lon="0.38162">
        <ele>649.33413</ele>
        <time>2021-04-18T12:07:31.399Z</time>
      </trkpt>
      <trkpt lat="43.11876" lon="0.38156">
        <ele>649.599815</ele>
        <time>2021-04-18T12:07:34.405Z</time>
      </trkpt>
      <trkpt lat="43.11865" lon="0.38153">
        <ele>649.850846</ele>
        <time>2021-04-18T12:07:37.420Z</time>
      </trkpt>
      <trkpt lat="43.11854" lon="0.38149">
        <ele>650.122922</ele>
        <time>2021-04-18T12:07:40.425Z</time>
      </trkpt>
      <trkpt lat="43.11843" lon="0.38145">
        <ele>650.390825</ele>
        <time>2021-04-18T12:07:43.393Z</time>
      </trkpt>
      <trkpt lat="43.11832" lon="0.38142">
        <ele>650.649781</ele>
        <time>2021-04-18T12:07:46.427Z</time>
      </trkpt>
      <trkpt lat="43.11822" lon="0.3814">
        <ele>650.898563</ele>
        <time>2021-04-18T12:07:49.428Z</time>
      </trkpt>
      <trkpt lat="43.11812" lon="0.38137">
        <ele>651.144592</ele>
        <time>2021-04-18T12:07:52.428Z</time>
      </trkpt>
      <trkpt lat="43.11803" lon="0.38134">
        <ele>651.357558</ele>
        <time>2021-04-18T12:07:55.399Z</time>
      </trkpt>
      <trkpt lat="43.11793" lon="0.38131">
        <ele>651.59329</ele>
        <time>2021-04-18T12:07:58.411Z</time>
      </trkpt>
      <trkpt lat="43.11781" lon="0.38129">
        <ele>651.895817</ele>
        <time>2021-04-18T12:08:02.400Z</time>
      </trkpt>
      <trkpt lat="43.1177" lon="0.38127">
        <ele>652.154199</ele>
        <time>2021-04-18T12:08:05.400Z</time>
      </trkpt>
      <trkpt lat="43.11759" lon="0.38124">
        <ele>652.420739</ele>
        <time>2021-04-18T12:08:08.399Z</time>
      </trkpt>
      <trkpt lat="43.11749" lon="0.38121">
        <ele>652.667106</ele>
        <time>2021-04-18T12:08:11.397Z</time>
      </trkpt>
      <trkpt lat="43.11739" lon="0.38117">
        <ele>652.913611</ele>
        <time>2021-04-18T12:08:14.412Z</time>
      </trkpt>
      <trkpt lat="43.1173" lon="0.38114">
        <ele>653.126577</ele>
        <time>2021-04-18T12:08:17.410Z</time>
      </trkpt>
      <trkpt lat="43.11719" lon="0.38111">
        <ele>653.433137</ele>
        <time>2021-04-18T12:08:20.399Z</time>
      </trkpt>
      <trkpt lat="43.1171" lon="0.38109">
        <ele>653.896972</ele>
        <time>2021-04-18T12:08:23.369Z</time>
      </trkpt>
      <trkpt lat="43.117" lon="0.38107">
        <ele>654.372048</ele>
        <time>2021-04-18T12:08:26.383Z</time>
      </trkpt>
      <trkpt lat="43.11691" lon="0.38105">
        <ele>654.80507</ele>
        <time>2021-04-18T12:08:29.380Z</time>
      </trkpt>
      <trkpt lat="43.11682" lon="0.38102">
        <ele>655.277986</ele>
        <time>2021-04-18T12:08:32.418Z</time>
      </trkpt>
      <trkpt lat="43.11671" lon="0.38098">
        <ele>655.781326</ele>
        <time>2021-04-18T12:08:35.387Z</time>
      </trkpt>
      <trkpt lat="43.1166" lon="0.38096">
        <ele>656.341485</ele>
        <time>2021-04-18T12:08:39.401Z</time>
      </trkpt>
      <trkpt lat="43.1165" lon="0.38095">
        <ele>656.809156</ele>
        <time>2021-04-18T12:08:42.399Z</time>
      </trkpt>
      <trkpt lat="43.11639" lon="0.38093">
        <ele>657.342693</ele>
        <time>2021-04-18T12:08:45.414Z</time>
      </trkpt>
      <trkpt lat="43.11626" lon="0.38089">
        <ele>657.998118</ele>
        <time>2021-04-18T12:08:48.401Z</time>
      </trkpt>
      <trkpt lat="43.11615" lon="0.38085">
        <ele>658.508681</ele>
        <time>2021-04-18T12:08:50.398Z</time>
      </trkpt>
      <trkpt lat="43.11603" lon="0.38081">
        <ele>659.11565</ele>
        <time>2021-04-18T12:08:53.421Z</time>
      </trkpt>
      <trkpt lat="43.11591" lon="0.38077">
        <ele>659.700223</ele>
        <time>2021-04-18T12:08:56.407Z</time>
      </trkpt>
      <trkpt lat="43.11579" lon="0.38073">
        <ele>660.303378</ele>
        <time>2021-04-18T12:08:59.413Z</time>
      </trkpt>
      <trkpt lat="43.11568" lon="0.38069">
        <ele>660.831669</ele>
        <time>2021-04-18T12:09:02.391Z</time>
      </trkpt>
      <trkpt lat="43.11557" lon="0.38066">
        <ele>661.367497</ele>
        <time>2021-04-18T12:09:05.405Z</time>
      </trkpt>
      <trkpt lat="43.11546" lon="0.38062">
        <ele>661.923359</ele>
        <time>2021-04-18T12:09:08.407Z</time>
      </trkpt>
      <trkpt lat="43.11535" lon="0.38059">
        <ele>662.366983</ele>
        <time>2021-04-18T12:09:11.408Z</time>
      </trkpt>
      <trkpt lat="43.11525" lon="0.38056">
        <ele>662.763134</ele>
        <time>2021-04-18T12:09:14.400Z</time>
      </trkpt>
      <trkpt lat="43.11514" lon="0.38053">
        <ele>663.173536</ele>
        <time>2021-04-18T12:09:17.410Z</time>
      </trkpt>
      <trkpt lat="43.11504" lon="0.3805">
        <ele>663.558475</ele>
        <time>2021-04-18T12:09:20.405Z</time>
      </trkpt>
      <trkpt lat="43.11494" lon="0.38048">
        <ele>663.944934</ele>
        <time>2021-04-18T12:09:23.403Z</time>
      </trkpt>
      <trkpt lat="43.11484" lon="0.38044">
        <ele>664.356492</ele>
        <time>2021-04-18T12:09:26.418Z</time>
      </trkpt>
      <trkpt lat="43.11473" lon="0.38042">
        <ele>664.760119</ele>
        <time>2021-04-18T12:09:29.412Z</time>
      </trkpt>
      <trkpt lat="43.11461" lon="0.38038">
        <ele>665.227114</ele>
        <time>2021-04-18T12:09:32.412Z</time>
      </trkpt>
      <trkpt lat="43.1145" lon="0.38035">
        <ele>665.642376</ele>
        <time>2021-04-18T12:09:35.390Z</time>
      </trkpt>
      <trkpt lat="43.11439" lon="0.38032">
        <ele>666.091036</ele>
        <time>2021-04-18T12:09:38.401Z</time>
      </trkpt>
      <trkpt lat="43.1143" lon="0.38029">
        <ele>666.439229</ele>
        <time>2021-04-18T12:09:41.403Z</time>
      </trkpt>
      <trkpt lat="43.11419" lon="0.38028">
        <ele>666.843007</ele>
        <time>2021-04-18T12:09:45.406Z</time>
      </trkpt>
      <trkpt lat="43.11408" lon="0.38025">
        <ele>667.268273</ele>
        <time>2021-04-18T12:09:48.405Z</time>
      </trkpt>
      <trkpt lat="43.11399" lon="0.38023">
        <ele>667.61118</ele>
        <time>2021-04-18T12:09:51.398Z</time>
      </trkpt>
      <trkpt lat="43.11389" lon="0.38022">
        <ele>668.005549</ele>
        <time>2021-04-18T12:09:54.398Z</time>
      </trkpt>
      <trkpt lat="43.11379" lon="0.38025">
        <ele>668.377904</ele>
        <time>2021-04-18T12:09:57.412Z</time>
      </trkpt>
      <trkpt lat="43.1137" lon="0.38029">
        <ele>668.761408</ele>
        <time>2021-04-18T12:10:01.406Z</time>
      </trkpt>
      <trkpt lat="43.1136" lon="0.38027">
        <ele>668.945614</ele>
        <time>2021-04-18T12:10:04.399Z</time>
      </trkpt>
      <trkpt lat="43.11352" lon="0.3802">
        <ele>669.109937</ele>
        <time>2021-04-18T12:10:06.397Z</time>
      </trkpt>
      <trkpt lat="43.11344" lon="0.38012">
        <ele>669.291878</ele>
        <time>2021-04-18T12:10:09.403Z</time>
      </trkpt>
      <trkpt lat="43.11334" lon="0.38007">
        <ele>669.486422</ele>
        <time>2021-04-18T12:10:12.378Z</time>
      </trkpt>
      <trkpt lat="43.11322" lon="0.38005">
        <ele>669.691508</ele>
        <time>2021-04-18T12:10:16.398Z</time>
      </trkpt>
      <trkpt lat="43.11313" lon="0.38002">
        <ele>669.864083</ele>
        <time>2021-04-18T12:10:19.398Z</time>
      </trkpt>
      <trkpt lat="43.11304" lon="0.38">
        <ele>670.034429</ele>
        <time>2021-04-18T12:10:22.396Z</time>
      </trkpt>
      <trkpt lat="43.11292" lon="0.37997">
        <ele>670.241757</ele>
        <time>2021-04-18T12:10:26.423Z</time>
      </trkpt>
      <trkpt lat="43.11283" lon="0.37993">
        <ele>670.414321</ele>
        <time>2021-04-18T12:10:29.407Z</time>
      </trkpt>
      <trkpt lat="43.11271" lon="0.37988">
        <ele>670.650291</ele>
        <time>2021-04-18T12:10:32.415Z</time>
      </trkpt>
      <trkpt lat="43.11262" lon="0.37984">
        <ele>670.814433</ele>
        <time>2021-04-18T12:10:34.420Z</time>
      </trkpt>
      <trkpt lat="43.11252" lon="0.37981">
        <ele>671.005738</ele>
        <time>2021-04-18T12:10:37.389Z</time>
      </trkpt>
      <trkpt lat="43.11242" lon="0.37979">
        <ele>671.187675</ele>
        <time>2021-04-18T12:10:40.407Z</time>
      </trkpt>
      <trkpt lat="43.1123" lon="0.37976">
        <ele>671.402331</ele>
        <time>2021-04-18T12:10:44.406Z</time>
      </trkpt>
      <trkpt lat="43.11219" lon="0.37972">
        <ele>671.614681</ele>
        <time>2021-04-18T12:10:48.405Z</time>
      </trkpt>
      <trkpt lat="43.11208" lon="0.37969">
        <ele>671.813197</ele>
        <time>2021-04-18T12:10:51.418Z</time>
      </trkpt>
      <trkpt lat="43.11198" lon="0.37966">
        <ele>672.00732</ele>
        <time>2021-04-18T12:10:54.419Z</time>
      </trkpt>
      <trkpt lat="43.11187" lon="0.37964">
        <ele>671.724248</ele>
        <time>2021-04-18T12:10:57.413Z</time>
      </trkpt>
      <trkpt lat="43.11176" lon="0.3796">
        <ele>671.402956</ele>
        <time>2021-04-18T12:11:00.418Z</time>
      </trkpt>
      <trkpt lat="43.11167" lon="0.37958">
        <ele>671.145924</ele>
        <time>2021-04-18T12:11:02.411Z</time>
      </trkpt>
      <trkpt lat="43.11157" lon="0.37954">
        <ele>670.877684</ele>
        <time>2021-04-18T12:11:04.405Z</time>
      </trkpt>
      <trkpt lat="43.11145" lon="0.3795">
        <ele>670.516795</ele>
        <time>2021-04-18T12:11:07.417Z</time>
      </trkpt>
      <trkpt lat="43.11133" lon="0.37948">
        <ele>670.201501</ele>
        <time>2021-04-18T12:11:11.397Z</time>
      </trkpt>
      <trkpt lat="43.11124" lon="0.37945">
        <ele>669.947957</ele>
        <time>2021-04-18T12:11:14.423Z</time>
      </trkpt>
      <trkpt lat="43.11103" lon="0.3794">
        <ele>669.352209</ele>
        <time>2021-04-18T12:11:19.405Z</time>
      </trkpt>
      <trkpt lat="43.11094" lon="0.37937">
        <ele>669.089831</ele>
        <time>2021-04-18T12:11:21.392Z</time>
      </trkpt>
      <trkpt lat="43.11085" lon="0.37935">
        <ele>668.823847</ele>
        <time>2021-04-18T12:11:23.403Z</time>
      </trkpt>
      <trkpt lat="43.11072" lon="0.37932">
        <ele>668.458755</ele>
        <time>2021-04-18T12:11:26.415Z</time>
      </trkpt>
      <trkpt lat="43.11059" lon="0.37928">
        <ele>668.103492</ele>
        <time>2021-04-18T12:11:29.404Z</time>
      </trkpt>
      <trkpt lat="43.11047" lon="0.37925">
        <ele>667.766034</ele>
        <time>2021-04-18T12:11:32.403Z</time>
      </trkpt>
      <trkpt lat="43.11035" lon="0.37923">
        <ele>667.44388</ele>
        <time>2021-04-18T12:11:35.401Z</time>
      </trkpt>
      <trkpt lat="43.11025" lon="0.37921">
        <ele>667.147554</ele>
        <time>2021-04-18T12:11:38.418Z</time>
      </trkpt>
      <trkpt lat="43.11014" lon="0.37918">
        <ele>667.097389</ele>
        <time>2021-04-18T12:11:41.405Z</time>
      </trkpt>
      <trkpt lat="43.11003" lon="0.37915">
        <ele>667.198816</ele>
        <time>2021-04-18T12:11:44.403Z</time>
      </trkpt>
      <trkpt lat="43.10993" lon="0.37911">
        <ele>667.294693</ele>
        <time>2021-04-18T12:11:47.463Z</time>
      </trkpt>
      <trkpt lat="43.10982" lon="0.37909">
        <ele>667.392634</ele>
        <time>2021-04-18T12:11:50.402Z</time>
      </trkpt>
      <trkpt lat="43.10973" lon="0.37909">
        <ele>667.476717</ele>
        <time>2021-04-18T12:11:53.402Z</time>
      </trkpt>
      <trkpt lat="43.10964" lon="0.37915">
        <ele>667.574499</ele>
        <time>2021-04-18T12:11:56.402Z</time>
      </trkpt>
      <trkpt lat="43.10959" lon="0.3793">
        <ele>667.683819</ele>
        <time>2021-04-18T12:11:59.409Z</time>
      </trkpt>
      <trkpt lat="43.10957" lon="0.37946">
        <ele>667.788496</ele>
        <time>2021-04-18T12:12:02.420Z</time>
      </trkpt>
      <trkpt lat="43.10955" lon="0.3796">
        <ele>667.890093</ele>
        <time>2021-04-18T12:12:05.405Z</time>
      </trkpt>
      <trkpt lat="43.10955" lon="0.37973">
        <ele>667.977144</ele>
        <time>2021-04-18T12:12:08.413Z</time>
      </trkpt>
      <trkpt lat="43.1096" lon="0.37983">
        <ele>668.063223</ele>
        <time>2021-04-18T12:12:11.406Z</time>
      </trkpt>
      <trkpt lat="43.10971" lon="0.37988">
        <ele>668.168597</ele>
        <time>2021-04-18T12:12:14.402Z</time>
      </trkpt>
      <trkpt lat="43.10982" lon="0.37991">
        <ele>668.269781</ele>
        <time>2021-04-18T12:12:17.408Z</time>
      </trkpt>
      <trkpt lat="43.10992" lon="0.37995">
        <ele>668.369223</ele>
        <time>2021-04-18T12:12:20.403Z</time>
      </trkpt>
      <trkpt lat="43.11002" lon="0.37998">
        <ele>668.462622</ele>
        <time>2021-04-18T12:12:23.390Z</time>
      </trkpt>
      <trkpt lat="43.11012" lon="0.38001">
        <ele>668.557694</ele>
        <time>2021-04-18T12:12:26.405Z</time>
      </trkpt>
      <trkpt lat="43.11023" lon="0.38004">
        <ele>668.656156</ele>
        <time>2021-04-18T12:12:29.405Z</time>
      </trkpt>
      <trkpt lat="43.11031" lon="0.3801">
        <ele>668.802122</ele>
        <time>2021-04-18T12:12:32.405Z</time>
      </trkpt>
      <trkpt lat="43.11036" lon="0.38022">
        <ele>668.981426</ele>
        <time>2021-04-18T12:12:35.411Z</time>
      </trkpt>
      <trkpt lat="43.11033" lon="0.38036">
        <ele>669.182599</ele>
        <time>2021-04-18T12:12:38.407Z</time>
      </trkpt>
      <trkpt lat="43.11031" lon="0.3805">
        <ele>669.370283</ele>
        <time>2021-04-18T12:12:41.403Z</time>
      </trkpt>
      <trkpt lat="43.11029" lon="0.38066">
        <ele>669.586665</ele>
        <time>2021-04-18T12:12:45.407Z</time>
      </trkpt>
      <trkpt lat="43.11028" lon="0.38079">
        <ele>669.774854</ele>
        <time>2021-04-18T12:12:49.390Z</time>
      </trkpt>
      <trkpt lat="43.11027" lon="0.38094">
        <ele>669.965913</ele>
        <time>2021-04-18T12:12:54.408Z</time>
      </trkpt>
      <trkpt lat="43.11024" lon="0.38108">
        <ele>670.161014</ele>
        <time>2021-04-18T12:13:00.393Z</time>
      </trkpt>
      <trkpt lat="43.11022" lon="0.3812">
        <ele>670.327706</ele>
        <time>2021-04-18T12:13:06.419Z</time>
      </trkpt>
      <trkpt lat="43.11011" lon="0.38149">
        <ele>670.776238</ele>
        <time>2021-04-18T12:17:47.408Z</time>
      </trkpt>
      <trkpt lat="43.11001" lon="0.38149">
        <ele>670.962643</ele>
        <time>2021-04-18T12:17:54.376Z</time>
      </trkpt>
      <trkpt lat="43.10991" lon="0.38148">
        <ele>671.144492</ele>
        <time>2021-04-18T12:17:58.377Z</time>
      </trkpt>
      <trkpt lat="43.10979" lon="0.38145">
        <ele>671.362639</ele>
        <time>2021-04-18T12:18:02.372Z</time>
      </trkpt>
      <trkpt lat="43.10969" lon="0.38143">
        <ele>671.566836</ele>
        <time>2021-04-18T12:18:05.375Z</time>
      </trkpt>
      <trkpt lat="43.10958" lon="0.38141">
        <ele>671.759984</ele>
        <time>2021-04-18T12:18:08.378Z</time>
      </trkpt>
      <trkpt lat="43.10947" lon="0.3814">
        <ele>671.974496</ele>
        <time>2021-04-18T12:18:12.383Z</time>
      </trkpt>
      <trkpt lat="43.10937" lon="0.38145">
        <ele>671.729457</ele>
        <time>2021-04-18T12:18:15.420Z</time>
      </trkpt>
      <trkpt lat="43.10933" lon="0.38156">
        <ele>671.405903</ele>
        <time>2021-04-18T12:18:18.401Z</time>
      </trkpt>
      <trkpt lat="43.1093" lon="0.3817">
        <ele>671.036697</ele>
        <time>2021-04-18T12:18:21.403Z</time>
      </trkpt>
      <trkpt lat="43.10928" lon="0.38187">
        <ele>670.618319</ele>
        <time>2021-04-18T12:18:24.418Z</time>
      </trkpt>
      <trkpt lat="43.10926" lon="0.38204">
        <ele>670.190045</ele>
        <time>2021-04-18T12:18:27.407Z</time>
      </trkpt>
      <trkpt lat="43.10924" lon="0.38216">
        <ele>669.879995</ele>
        <time>2021-04-18T12:18:29.458Z</time>
      </trkpt>
      <trkpt lat="43.10923" lon="0.38228">
        <ele>669.563147</ele>
        <time>2021-04-18T12:18:31.403Z</time>
      </trkpt>
      <trkpt lat="43.10921" lon="0.38241">
        <ele>669.233776</ele>
        <time>2021-04-18T12:18:33.409Z</time>
      </trkpt>
      <trkpt lat="43.10918" lon="0.38255">
        <ele>668.869057</ele>
        <time>2021-04-18T12:18:35.392Z</time>
      </trkpt>
      <trkpt lat="43.10915" lon="0.38269">
        <ele>668.494944</ele>
        <time>2021-04-18T12:18:37.417Z</time>
      </trkpt>
      <trkpt lat="43.10913" lon="0.38284">
        <ele>668.122932</ele>
        <time>2021-04-18T12:18:39.398Z</time>
      </trkpt>
      <trkpt lat="43.10911" lon="0.38299">
        <ele>667.743561</ele>
        <time>2021-04-18T12:18:41.413Z</time>
      </trkpt>
      <trkpt lat="43.1091" lon="0.38313">
        <ele>667.388345</ele>
        <time>2021-04-18T12:18:43.400Z</time>
      </trkpt>
      <trkpt lat="43.10907" lon="0.38325">
        <ele>667.07373</ele>
        <time>2021-04-18T12:18:45.408Z</time>
      </trkpt>
      <trkpt lat="43.10905" lon="0.38341">
        <ele>666.653419</ele>
        <time>2021-04-18T12:18:48.405Z</time>
      </trkpt>
      <trkpt lat="43.10904" lon="0.38358">
        <ele>666.217946</ele>
        <time>2021-04-18T12:18:51.403Z</time>
      </trkpt>
      <trkpt lat="43.10903" lon="0.38371">
        <ele>665.901891</ele>
        <time>2021-04-18T12:18:53.400Z</time>
      </trkpt>
      <trkpt lat="43.10903" lon="0.38384">
        <ele>666.016776</ele>
        <time>2021-04-18T12:18:55.399Z</time>
      </trkpt>
      <trkpt lat="43.10904" lon="0.38397">
        <ele>666.298102</ele>
        <time>2021-04-18T12:18:57.415Z</time>
      </trkpt>
      <trkpt lat="43.10908" lon="0.3841">
        <ele>666.597658</ele>
        <time>2021-04-18T12:18:59.388Z</time>
      </trkpt>
      <trkpt lat="43.10911" lon="0.38423">
        <ele>666.895158</ele>
        <time>2021-04-18T12:19:01.402Z</time>
      </trkpt>
      <trkpt lat="43.10913" lon="0.38436">
        <ele>667.193227</ele>
        <time>2021-04-18T12:19:03.406Z</time>
      </trkpt>
      <trkpt lat="43.10916" lon="0.38449">
        <ele>667.479827</ele>
        <time>2021-04-18T12:19:05.392Z</time>
      </trkpt>
      <trkpt lat="43.10919" lon="0.38467">
        <ele>667.868202</ele>
        <time>2021-04-18T12:19:08.405Z</time>
      </trkpt>
      <trkpt lat="43.10922" lon="0.38481">
        <ele>668.193572</ele>
        <time>2021-04-18T12:19:11.413Z</time>
      </trkpt>
      <trkpt lat="43.10925" lon="0.38495">
        <ele>668.501727</ele>
        <time>2021-04-18T12:19:14.402Z</time>
      </trkpt>
      <trkpt lat="43.10927" lon="0.38509">
        <ele>668.804145</ele>
        <time>2021-04-18T12:19:17.403Z</time>
      </trkpt>
      <trkpt lat="43.10929" lon="0.38521">
        <ele>669.072161</ele>
        <time>2021-04-18T12:19:20.445Z</time>
      </trkpt>
      <trkpt lat="43.10929" lon="0.38535">
        <ele>669.381102</ele>
        <time>2021-04-18T12:19:24.419Z</time>
      </trkpt>
      <trkpt lat="43.10927" lon="0.38549">
        <ele>669.682926</ele>
        <time>2021-04-18T12:19:29.407Z</time>
      </trkpt>
      <trkpt lat="43.10918" lon="0.38553">
        <ele>669.971285</ele>
        <time>2021-04-18T12:19:36.380Z</time>
      </trkpt>
      <trkpt lat="43.10909" lon="0.38558">
        <ele>670.244486</ele>
        <time>2021-04-18T12:19:42.401Z</time>
      </trkpt>
      <trkpt lat="43.10899" lon="0.38561">
        <ele>670.536351</ele>
        <time>2021-04-18T12:19:46.421Z</time>
      </trkpt>
      <trkpt lat="43.1089" lon="0.38563">
        <ele>670.830215</ele>
        <time>2021-04-18T12:19:49.412Z</time>
      </trkpt>
      <trkpt lat="43.10879" lon="0.38565">
        <ele>671.13476</ele>
        <time>2021-04-18T12:19:52.412Z</time>
      </trkpt>
      <trkpt lat="43.10868" lon="0.38566">
        <ele>671.129847</ele>
        <time>2021-04-18T12:19:55.409Z</time>
      </trkpt>
      <trkpt lat="43.10858" lon="0.3857">
        <ele>671.124767</ele>
        <time>2021-04-18T12:19:58.397Z</time>
      </trkpt>
      <trkpt lat="43.10847" lon="0.38573">
        <ele>671.119565</ele>
        <time>2021-04-18T12:20:01.395Z</time>
      </trkpt>
      <trkpt lat="43.10838" lon="0.38577">
        <ele>671.115</ele>
        <time>2021-04-18T12:20:04.414Z</time>
      </trkpt>
      <trkpt lat="43.10829" lon="0.38581">
        <ele>671.110734</ele>
        <time>2021-04-18T12:20:07.387Z</time>
      </trkpt>
      <trkpt lat="43.10818" lon="0.38585">
        <ele>671.105202</ele>
        <time>2021-04-18T12:20:11.410Z</time>
      </trkpt>
      <trkpt lat="43.10808" lon="0.38589">
        <ele>671.100312</ele>
        <time>2021-04-18T12:20:14.422Z</time>
      </trkpt>
      <trkpt lat="43.10797" lon="0.38592">
        <ele>671.095186</ele>
        <time>2021-04-18T12:20:17.428Z</time>
      </trkpt>
      <trkpt lat="43.10786" lon="0.38595">
        <ele>671.089893</ele>
        <time>2021-04-18T12:20:20.394Z</time>
      </trkpt>
      <trkpt lat="43.10775" lon="0.38599">
        <ele>671.084768</ele>
        <time>2021-04-18T12:20:23.440Z</time>
      </trkpt>
      <trkpt lat="43.10765" lon="0.38604">
        <ele>671.079549</ele>
        <time>2021-04-18T12:20:26.401Z</time>
      </trkpt>
      <trkpt lat="43.10754" lon="0.38607">
        <ele>671.074302</ele>
        <time>2021-04-18T12:20:29.412Z</time>
      </trkpt>
      <trkpt lat="43.10743" lon="0.3861">
        <ele>671.069201</ele>
        <time>2021-04-18T12:20:32.421Z</time>
      </trkpt>
      <trkpt lat="43.10733" lon="0.38613">
        <ele>671.064291</ele>
        <time>2021-04-18T12:20:35.383Z</time>
      </trkpt>
      <trkpt lat="43.10723" lon="0.38614">
        <ele>671.059738</ele>
        <time>2021-04-18T12:20:38.415Z</time>
      </trkpt>
      <trkpt lat="43.10713" lon="0.38618">
        <ele>671.054894</ele>
        <time>2021-04-18T12:20:41.432Z</time>
      </trkpt>
      <trkpt lat="43.10703" lon="0.38622">
        <ele>671.13061</ele>
        <time>2021-04-18T12:20:44.402Z</time>
      </trkpt>
      <trkpt lat="43.10693" lon="0.38625">
        <ele>671.586955</ele>
        <time>2021-04-18T12:20:47.408Z</time>
      </trkpt>
      <trkpt lat="43.10682" lon="0.3863">
        <ele>672.130142</ele>
        <time>2021-04-18T12:20:51.403Z</time>
      </trkpt>
      <trkpt lat="43.10673" lon="0.38632">
        <ele>672.559387</ele>
        <time>2021-04-18T12:20:54.424Z</time>
      </trkpt>
      <trkpt lat="43.10663" lon="0.38635">
        <ele>673.021532</ele>
        <time>2021-04-18T12:20:57.376Z</time>
      </trkpt>
      <trkpt lat="43.10653" lon="0.38639">
        <ele>673.520502</ele>
        <time>2021-04-18T12:21:00.407Z</time>
      </trkpt>
      <trkpt lat="43.10641" lon="0.38642">
        <ele>674.044467</ele>
        <time>2021-04-18T12:21:03.381Z</time>
      </trkpt>
      <trkpt lat="43.1063" lon="0.38644">
        <ele>674.591673</ele>
        <time>2021-04-18T12:21:06.404Z</time>
      </trkpt>
      <trkpt lat="43.10619" lon="0.38647">
        <ele>675.085308</ele>
        <time>2021-04-18T12:21:09.400Z</time>
      </trkpt>
      <trkpt lat="43.10609" lon="0.38651">
        <ele>675.568252</ele>
        <time>2021-04-18T12:21:12.441Z</time>
      </trkpt>
      <trkpt lat="43.106" lon="0.38654">
        <ele>676.005118</ele>
        <time>2021-04-18T12:21:15.398Z</time>
      </trkpt>
      <trkpt lat="43.10589" lon="0.38658">
        <ele>676.495678</ele>
        <time>2021-04-18T12:21:18.416Z</time>
      </trkpt>
      <trkpt lat="43.10578" lon="0.3866">
        <ele>677.017398</ele>
        <time>2021-04-18T12:21:21.415Z</time>
      </trkpt>
      <trkpt lat="43.10569" lon="0.38663">
        <ele>677.45874</ele>
        <time>2021-04-18T12:21:24.400Z</time>
      </trkpt>
      <trkpt lat="43.10558" lon="0.38665">
        <ele>677.951048</ele>
        <time>2021-04-18T12:21:27.419Z</time>
      </trkpt>
      <trkpt lat="43.10547" lon="0.38669">
        <ele>678.468586</ele>
        <time>2021-04-18T12:21:30.406Z</time>
      </trkpt>
      <trkpt lat="43.10536" lon="0.38672">
        <ele>678.995131</ele>
        <time>2021-04-18T12:21:33.420Z</time>
      </trkpt>
      <trkpt lat="43.10525" lon="0.38674">
        <ele>679.400953</ele>
        <time>2021-04-18T12:21:36.420Z</time>
      </trkpt>
      <trkpt lat="43.10515" lon="0.38677">
        <ele>679.581862</ele>
        <time>2021-04-18T12:21:39.406Z</time>
      </trkpt>
      <trkpt lat="43.10504" lon="0.38682">
        <ele>679.775169</ele>
        <time>2021-04-18T12:21:42.402Z</time>
      </trkpt>
      <trkpt lat="43.10494" lon="0.38686">
        <ele>679.965839</ele>
        <time>2021-04-18T12:21:45.405Z</time>
      </trkpt>
      <trkpt lat="43.10484" lon="0.38689">
        <ele>680.149334</ele>
        <time>2021-04-18T12:21:48.441Z</time>
      </trkpt>
      <trkpt lat="43.10473" lon="0.38692">
        <ele>680.347922</ele>
        <time>2021-04-18T12:21:51.402Z</time>
      </trkpt>
      <trkpt lat="43.10462" lon="0.38695">
        <ele>680.550935</ele>
        <time>2021-04-18T12:21:54.403Z</time>
      </trkpt>
      <trkpt lat="43.10451" lon="0.38698">
        <ele>680.747985</ele>
        <time>2021-04-18T12:21:57.406Z</time>
      </trkpt>
      <trkpt lat="43.10439" lon="0.387">
        <ele>680.96638</ele>
        <time>2021-04-18T12:22:00.396Z</time>
      </trkpt>
      <trkpt lat="43.10427" lon="0.38703">
        <ele>681.171054</ele>
        <time>2021-04-18T12:22:03.410Z</time>
      </trkpt>
      <trkpt lat="43.10416" lon="0.38707">
        <ele>681.367182</ele>
        <time>2021-04-18T12:22:06.399Z</time>
      </trkpt>
      <trkpt lat="43.10404" lon="0.38709">
        <ele>681.588676</ele>
        <time>2021-04-18T12:22:09.421Z</time>
      </trkpt>
      <trkpt lat="43.10395" lon="0.38707">
        <ele>681.754483</ele>
        <time>2021-04-18T12:22:12.420Z</time>
      </trkpt>
      <trkpt lat="43.10387" lon="0.38701">
        <ele>681.914148</ele>
        <time>2021-04-18T12:22:15.439Z</time>
      </trkpt>
      <trkpt lat="43.10375" lon="0.38699">
        <ele>682.135684</ele>
        <time>2021-04-18T12:22:18.390Z</time>
      </trkpt>
      <trkpt lat="43.10364" lon="0.38704">
        <ele>682.333487</ele>
        <time>2021-04-18T12:22:20.425Z</time>
      </trkpt>
      <trkpt lat="43.10355" lon="0.38711">
        <ele>682.516846</ele>
        <time>2021-04-18T12:22:22.401Z</time>
      </trkpt>
      <trkpt lat="43.10348" lon="0.38719">
        <ele>682.787759</ele>
        <time>2021-04-18T12:22:24.401Z</time>
      </trkpt>
      <trkpt lat="43.10336" lon="0.38727">
        <ele>683.150212</ele>
        <time>2021-04-18T12:22:27.405Z</time>
      </trkpt>
      <trkpt lat="43.10324" lon="0.38729">
        <ele>683.494658</ele>
        <time>2021-04-18T12:22:30.394Z</time>
      </trkpt>
      <trkpt lat="43.10312" lon="0.38732">
        <ele>683.840957</ele>
        <time>2021-04-18T12:22:33.405Z</time>
      </trkpt>
      <trkpt lat="43.10301" lon="0.38734">
        <ele>684.170764</ele>
        <time>2021-04-18T12:22:36.409Z</time>
      </trkpt>
      <trkpt lat="43.10289" lon="0.38737">
        <ele>684.513967</ele>
        <time>2021-04-18T12:22:39.402Z</time>
      </trkpt>
      <trkpt lat="43.10279" lon="0.38739">
        <ele>684.790751</ele>
        <time>2021-04-18T12:22:42.400Z</time>
      </trkpt>
      <trkpt lat="43.10268" lon="0.38741">
        <ele>685.097858</ele>
        <time>2021-04-18T12:22:45.413Z</time>
      </trkpt>
      <trkpt lat="43.10259" lon="0.38742">
        <ele>685.358966</ele>
        <time>2021-04-18T12:22:47.391Z</time>
      </trkpt>
      <trkpt lat="43.10249" lon="0.38742">
        <ele>685.642208</ele>
        <time>2021-04-18T12:22:49.406Z</time>
      </trkpt>
      <trkpt lat="43.1024" lon="0.38743">
        <ele>685.902923</ele>
        <time>2021-04-18T12:22:51.422Z</time>
      </trkpt>
      <trkpt lat="43.10228" lon="0.38743">
        <ele>686.228888</ele>
        <time>2021-04-18T12:22:54.448Z</time>
      </trkpt>
      <trkpt lat="43.10217" lon="0.38743">
        <ele>686.546146</ele>
        <time>2021-04-18T12:22:58.408Z</time>
      </trkpt>
      <trkpt lat="43.10207" lon="0.38745">
        <ele>686.848435</ele>
        <time>2021-04-18T12:23:02.391Z</time>
      </trkpt>
      <trkpt lat="43.10196" lon="0.38748">
        <ele>687.145088</ele>
        <time>2021-04-18T12:23:06.407Z</time>
      </trkpt>
      <trkpt lat="43.10187" lon="0.38751">
        <ele>687.426752</ele>
        <time>2021-04-18T12:23:10.408Z</time>
      </trkpt>
      <trkpt lat="43.10178" lon="0.38752">
        <ele>687.623297</ele>
        <time>2021-04-18T12:23:14.393Z</time>
      </trkpt>
      <trkpt lat="43.10168" lon="0.38754">
        <ele>687.695511</ele>
        <time>2021-04-18T12:23:18.421Z</time>
      </trkpt>
      <trkpt lat="43.10156" lon="0.38755">
        <ele>687.780995</ele>
        <time>2021-04-18T12:23:22.442Z</time>
      </trkpt>
      <trkpt lat="43.10147" lon="0.38757">
        <ele>687.854897</ele>
        <time>2021-04-18T12:23:26.409Z</time>
      </trkpt>
      <trkpt lat="43.10136" lon="0.38758">
        <ele>687.931348</ele>
        <time>2021-04-18T12:23:30.407Z</time>
      </trkpt>
      <trkpt lat="43.10126" lon="0.3876">
        <ele>688.008854</ele>
        <time>2021-04-18T12:23:34.410Z</time>
      </trkpt>
      <trkpt lat="43.10115" lon="0.38762">
        <ele>688.091701</ele>
        <time>2021-04-18T12:23:38.405Z</time>
      </trkpt>
      <trkpt lat="43.10104" lon="0.38765">
        <ele>688.171486</ele>
        <time>2021-04-18T12:23:42.407Z</time>
      </trkpt>
      <trkpt lat="43.10095" lon="0.38766">
        <ele>688.239378</ele>
        <time>2021-04-18T12:23:45.403Z</time>
      </trkpt>
      <trkpt lat="43.10084" lon="0.38768">
        <ele>688.318558</ele>
        <time>2021-04-18T12:23:48.406Z</time>
      </trkpt>
      <trkpt lat="43.10073" lon="0.38771">
        <ele>688.401556</ele>
        <time>2021-04-18T12:23:51.412Z</time>
      </trkpt>
      <trkpt lat="43.10062" lon="0.38773">
        <ele>688.488007</ele>
        <time>2021-04-18T12:23:54.408Z</time>
      </trkpt>
      <trkpt lat="43.1005" lon="0.38775">
        <ele>688.574965</ele>
        <time>2021-04-18T12:23:57.424Z</time>
      </trkpt>
      <trkpt lat="43.1004" lon="0.38777">
        <ele>688.650407</ele>
        <time>2021-04-18T12:24:00.395Z</time>
      </trkpt>
      <trkpt lat="43.10029" lon="0.38778">
        <ele>688.733736</ele>
        <time>2021-04-18T12:24:04.418Z</time>
      </trkpt>
      <trkpt lat="43.10019" lon="0.38781">
        <ele>688.805949</ele>
        <time>2021-04-18T12:24:08.399Z</time>
      </trkpt>
      <trkpt lat="43.10009" lon="0.38783">
        <ele>688.882826</ele>
        <time>2021-04-18T12:24:11.428Z</time>
      </trkpt>
      <trkpt lat="43.09998" lon="0.38786">
        <ele>688.902793</ele>
        <time>2021-04-18T12:24:14.395Z</time>
      </trkpt>
      <trkpt lat="43.09986" lon="0.38788">
        <ele>688.830786</ele>
        <time>2021-04-18T12:24:16.415Z</time>
      </trkpt>
      <trkpt lat="43.09974" lon="0.3879">
        <ele>688.751475</ele>
        <time>2021-04-18T12:24:18.415Z</time>
      </trkpt>
      <trkpt lat="43.09963" lon="0.38793">
        <ele>688.680555</ele>
        <time>2021-04-18T12:24:20.423Z</time>
      </trkpt>
      <trkpt lat="43.09951" lon="0.38797">
        <ele>688.602952</ele>
        <time>2021-04-18T12:24:22.410Z</time>
      </trkpt>
      <trkpt lat="43.09937" lon="0.38802">
        <ele>688.513487</ele>
        <time>2021-04-18T12:24:24.407Z</time>
      </trkpt>
      <trkpt lat="43.09924" lon="0.38808">
        <ele>688.426791</ele>
        <time>2021-04-18T12:24:26.398Z</time>
      </trkpt>
      <trkpt lat="43.09911" lon="0.38813">
        <ele>688.342815</ele>
        <time>2021-04-18T12:24:28.421Z</time>
      </trkpt>
      <trkpt lat="43.09899" lon="0.38819">
        <ele>688.261513</ele>
        <time>2021-04-18T12:24:30.409Z</time>
      </trkpt>
      <trkpt lat="43.09887" lon="0.38824">
        <ele>688.183763</ele>
        <time>2021-04-18T12:24:32.407Z</time>
      </trkpt>
      <trkpt lat="43.09876" lon="0.38829">
        <ele>688.107809</ele>
        <time>2021-04-18T12:24:34.424Z</time>
      </trkpt>
      <trkpt lat="43.09864" lon="0.38834">
        <ele>688.032757</ele>
        <time>2021-04-18T12:24:36.410Z</time>
      </trkpt>
      <trkpt lat="43.09854" lon="0.3884">
        <ele>687.966551</ele>
        <time>2021-04-18T12:24:38.409Z</time>
      </trkpt>
      <trkpt lat="43.09845" lon="0.38844">
        <ele>687.901694</ele>
        <time>2021-04-18T12:24:40.408Z</time>
      </trkpt>
      <trkpt lat="43.09835" lon="0.38847">
        <ele>687.83709</ele>
        <time>2021-04-18T12:24:42.425Z</time>
      </trkpt>
      <trkpt lat="43.09825" lon="0.38851">
        <ele>687.79662</ele>
        <time>2021-04-18T12:24:44.397Z</time>
      </trkpt>
      <trkpt lat="43.09815" lon="0.38854">
        <ele>687.78264</ele>
        <time>2021-04-18T12:24:46.401Z</time>
      </trkpt>
      <trkpt lat="43.09803" lon="0.38861">
        <ele>687.765041</ele>
        <time>2021-04-18T12:24:49.401Z</time>
      </trkpt>
      <trkpt lat="43.09794" lon="0.38865">
        <ele>687.752857</ele>
        <time>2021-04-18T12:24:51.448Z</time>
      </trkpt>
      <trkpt lat="43.09785" lon="0.38868">
        <ele>687.740384</ele>
        <time>2021-04-18T12:24:53.377Z</time>
      </trkpt>
      <trkpt lat="43.09776" lon="0.38872">
        <ele>687.728317</ele>
        <time>2021-04-18T12:24:55.403Z</time>
      </trkpt>
      <trkpt lat="43.09767" lon="0.38876">
        <ele>687.71522</ele>
        <time>2021-04-18T12:24:57.400Z</time>
      </trkpt>
      <trkpt lat="43.09757" lon="0.38881">
        <ele>687.701022</ele>
        <time>2021-04-18T12:24:59.401Z</time>
      </trkpt>
      <trkpt lat="43.09747" lon="0.38886">
        <ele>687.687758</ele>
        <time>2021-04-18T12:25:01.394Z</time>
      </trkpt>
      <trkpt lat="43.09737" lon="0.38895">
        <ele>687.670881</ele>
        <time>2021-04-18T12:25:04.392Z</time>
      </trkpt>
      <trkpt lat="43.09727" lon="0.38901">
        <ele>687.657193</ele>
        <time>2021-04-18T12:25:06.396Z</time>
      </trkpt>
      <trkpt lat="43.09717" lon="0.38906">
        <ele>687.642886</ele>
        <time>2021-04-18T12:25:08.393Z</time>
      </trkpt>
      <trkpt lat="43.09708" lon="0.38913">
        <ele>687.628581</ele>
        <time>2021-04-18T12:25:10.397Z</time>
      </trkpt>
      <trkpt lat="43.09698" lon="0.3892">
        <ele>687.614024</ele>
        <time>2021-04-18T12:25:12.393Z</time>
      </trkpt>
      <trkpt lat="43.09689" lon="0.38927">
        <ele>687.600283</ele>
        <time>2021-04-18T12:25:14.374Z</time>
      </trkpt>
      <trkpt lat="43.09679" lon="0.38931">
        <ele>687.586309</ele>
        <time>2021-04-18T12:25:16.461Z</time>
      </trkpt>
      <trkpt lat="43.09668" lon="0.38936">
        <ele>687.571612</ele>
        <time>2021-04-18T12:25:18.397Z</time>
      </trkpt>
      <trkpt lat="43.09659" lon="0.38942">
        <ele>687.531972</ele>
        <time>2021-04-18T12:25:20.405Z</time>
      </trkpt>
      <trkpt lat="43.0965" lon="0.38945">
        <ele>687.464986</ele>
        <time>2021-04-18T12:25:22.411Z</time>
      </trkpt>
      <trkpt lat="43.09639" lon="0.38944">
        <ele>687.384305</ele>
        <time>2021-04-18T12:25:25.395Z</time>
      </trkpt>
      <trkpt lat="43.09627" lon="0.38938">
        <ele>687.289719</ele>
        <time>2021-04-18T12:25:28.420Z</time>
      </trkpt>
      <trkpt lat="43.09615" lon="0.38941">
        <ele>687.201827</ele>
        <time>2021-04-18T12:25:30.432Z</time>
      </trkpt>
      <trkpt lat="43.09603" lon="0.38949">
        <ele>687.107379</ele>
        <time>2021-04-18T12:25:32.424Z</time>
      </trkpt>
      <trkpt lat="43.09593" lon="0.38956">
        <ele>687.024727</ele>
        <time>2021-04-18T12:25:34.413Z</time>
      </trkpt>
      <trkpt lat="43.09583" lon="0.38958">
        <ele>686.950586</ele>
        <time>2021-04-18T12:25:36.397Z</time>
      </trkpt>
      <trkpt lat="43.09572" lon="0.38956">
        <ele>686.870226</ele>
        <time>2021-04-18T12:25:38.395Z</time>
      </trkpt>
      <trkpt lat="43.09559" lon="0.38955">
        <ele>686.775117</ele>
        <time>2021-04-18T12:25:40.428Z</time>
      </trkpt>
      <trkpt lat="43.09547" lon="0.38956">
        <ele>686.687431</ele>
        <time>2021-04-18T12:25:42.423Z</time>
      </trkpt>
      <trkpt lat="43.09536" lon="0.38958">
        <ele>686.605703</ele>
        <time>2021-04-18T12:25:44.399Z</time>
      </trkpt>
      <trkpt lat="43.09526" lon="0.38961">
        <ele>686.530436</ele>
        <time>2021-04-18T12:25:46.395Z</time>
      </trkpt>
      <trkpt lat="43.09516" lon="0.38964">
        <ele>686.458399</ele>
        <time>2021-04-18T12:25:48.401Z</time>
      </trkpt>
      <trkpt lat="43.09507" lon="0.38968">
        <ele>686.387208</ele>
        <time>2021-04-18T12:25:50.400Z</time>
      </trkpt>
      <trkpt lat="43.09498" lon="0.38972">
        <ele>686.31897</ele>
        <time>2021-04-18T12:25:52.398Z</time>
      </trkpt>
      <trkpt lat="43.09488" lon="0.38975">
        <ele>686.226401</ele>
        <time>2021-04-18T12:25:54.397Z</time>
      </trkpt>
      <trkpt lat="43.09479" lon="0.38978">
        <ele>685.947371</ele>
        <time>2021-04-18T12:25:56.406Z</time>
      </trkpt>
      <trkpt lat="43.0947" lon="0.38981">
        <ele>685.666507</ele>
        <time>2021-04-18T12:25:58.400Z</time>
      </trkpt>
      <trkpt lat="43.09458" lon="0.38985">
        <ele>685.328808</ele>
        <time>2021-04-18T12:26:00.400Z</time>
      </trkpt>
      <trkpt lat="43.09447" lon="0.38988">
        <ele>684.979168</ele>
        <time>2021-04-18T12:26:02.420Z</time>
      </trkpt>
      <trkpt lat="43.09436" lon="0.38992">
        <ele>684.651908</ele>
        <time>2021-04-18T12:26:04.395Z</time>
      </trkpt>
      <trkpt lat="43.09427" lon="0.38995">
        <ele>684.367813</ele>
        <time>2021-04-18T12:26:06.422Z</time>
      </trkpt>
      <trkpt lat="43.09417" lon="0.38998">
        <ele>684.06158</ele>
        <time>2021-04-18T12:26:08.398Z</time>
      </trkpt>
      <trkpt lat="43.09407" lon="0.39001">
        <ele>683.766035</ele>
        <time>2021-04-18T12:26:10.428Z</time>
      </trkpt>
      <trkpt lat="43.09396" lon="0.39003">
        <ele>683.451494</ele>
        <time>2021-04-18T12:26:12.404Z</time>
      </trkpt>
      <trkpt lat="43.09385" lon="0.39005">
        <ele>683.136009</ele>
        <time>2021-04-18T12:26:14.427Z</time>
      </trkpt>
      <trkpt lat="43.09375" lon="0.39007">
        <ele>682.817281</ele>
        <time>2021-04-18T12:26:16.407Z</time>
      </trkpt>
      <trkpt lat="43.09364" lon="0.3901">
        <ele>682.485101</ele>
        <time>2021-04-18T12:26:18.402Z</time>
      </trkpt>
      <trkpt lat="43.09353" lon="0.39013">
        <ele>682.161985</ele>
        <time>2021-04-18T12:26:20.396Z</time>
      </trkpt>
      <trkpt lat="43.09342" lon="0.39016">
        <ele>681.842906</ele>
        <time>2021-04-18T12:26:22.396Z</time>
      </trkpt>
      <trkpt lat="43.09331" lon="0.3902">
        <ele>681.507584</ele>
        <time>2021-04-18T12:26:24.397Z</time>
      </trkpt>
      <trkpt lat="43.0932" lon="0.39023">
        <ele>681.159741</ele>
        <time>2021-04-18T12:26:26.397Z</time>
      </trkpt>
      <trkpt lat="43.09308" lon="0.39026">
        <ele>680.974805</ele>
        <time>2021-04-18T12:26:28.424Z</time>
      </trkpt>
      <trkpt lat="43.09297" lon="0.39029">
        <ele>680.998267</ele>
        <time>2021-04-18T12:26:30.425Z</time>
      </trkpt>
      <trkpt lat="43.09285" lon="0.39031">
        <ele>681.022983</ele>
        <time>2021-04-18T12:26:32.428Z</time>
      </trkpt>
      <trkpt lat="43.09273" lon="0.39033">
        <ele>681.04824</ele>
        <time>2021-04-18T12:26:34.423Z</time>
      </trkpt>
      <trkpt lat="43.09262" lon="0.39034">
        <ele>681.071353</ele>
        <time>2021-04-18T12:26:36.432Z</time>
      </trkpt>
      <trkpt lat="43.09251" lon="0.39034">
        <ele>681.092556</ele>
        <time>2021-04-18T12:26:38.423Z</time>
      </trkpt>
      <trkpt lat="43.09242" lon="0.39032">
        <ele>681.112521</ele>
        <time>2021-04-18T12:26:40.446Z</time>
      </trkpt>
      <trkpt lat="43.09232" lon="0.39028">
        <ele>681.133359</ele>
        <time>2021-04-18T12:26:42.413Z</time>
      </trkpt>
      <trkpt lat="43.0922" lon="0.39027">
        <ele>681.157875</ele>
        <time>2021-04-18T12:26:44.425Z</time>
      </trkpt>
      <trkpt lat="43.09208" lon="0.39034">
        <ele>681.184665</ele>
        <time>2021-04-18T12:26:46.396Z</time>
      </trkpt>
      <trkpt lat="43.092" lon="0.39047">
        <ele>681.210812</ele>
        <time>2021-04-18T12:26:48.416Z</time>
      </trkpt>
      <trkpt lat="43.09199" lon="0.39064">
        <ele>681.236165</ele>
        <time>2021-04-18T12:26:50.398Z</time>
      </trkpt>
      <trkpt lat="43.09204" lon="0.39082">
        <ele>681.26391</ele>
        <time>2021-04-18T12:26:52.411Z</time>
      </trkpt>
      <trkpt lat="43.09207" lon="0.39099">
        <ele>681.290459</ele>
        <time>2021-04-18T12:26:54.393Z</time>
      </trkpt>
      <trkpt lat="43.09208" lon="0.39116">
        <ele>681.316131</ele>
        <time>2021-04-18T12:26:56.428Z</time>
      </trkpt>
      <trkpt lat="43.09213" lon="0.39132">
        <ele>681.377661</ele>
        <time>2021-04-18T12:26:58.423Z</time>
      </trkpt>
      <trkpt lat="43.09221" lon="0.39148">
        <ele>681.520496</ele>
        <time>2021-04-18T12:27:00.409Z</time>
      </trkpt>
      <trkpt lat="43.09229" lon="0.39163">
        <ele>681.653183</ele>
        <time>2021-04-18T12:27:02.443Z</time>
      </trkpt>
      <trkpt lat="43.09235" lon="0.39178">
        <ele>681.785118</ele>
        <time>2021-04-18T12:27:04.383Z</time>
      </trkpt>
      <trkpt lat="43.09239" lon="0.39193">
        <ele>681.904793</ele>
        <time>2021-04-18T12:27:06.397Z</time>
      </trkpt>
      <trkpt lat="43.09244" lon="0.39209">
        <ele>682.037182</ele>
        <time>2021-04-18T12:27:08.426Z</time>
      </trkpt>
      <trkpt lat="43.09248" lon="0.39226">
        <ele>682.16916</ele>
        <time>2021-04-18T12:27:10.445Z</time>
      </trkpt>
      <trkpt lat="43.09252" lon="0.39241">
        <ele>682.290638</ele>
        <time>2021-04-18T12:27:12.393Z</time>
      </trkpt>
      <trkpt lat="43.09255" lon="0.39256">
        <ele>682.408897</ele>
        <time>2021-04-18T12:27:14.425Z</time>
      </trkpt>
      <trkpt lat="43.09259" lon="0.39271">
        <ele>682.527145</ele>
        <time>2021-04-18T12:27:17.965Z</time>
      </trkpt>
      <trkpt lat="43.09265" lon="0.39294">
        <ele>682.710421</ele>
        <time>2021-04-18T12:27:19.397Z</time>
      </trkpt>
      <trkpt lat="43.09269" lon="0.3931">
        <ele>682.8343</ele>
        <time>2021-04-18T12:27:21.398Z</time>
      </trkpt>
      <trkpt lat="43.09273" lon="0.39325">
        <ele>682.953734</ele>
        <time>2021-04-18T12:27:23.394Z</time>
      </trkpt>
      <trkpt lat="43.09277" lon="0.3934">
        <ele>683.073745</ele>
        <time>2021-04-18T12:27:25.397Z</time>
      </trkpt>
      <trkpt lat="43.09281" lon="0.39354">
        <ele>683.14887</ele>
        <time>2021-04-18T12:27:27.426Z</time>
      </trkpt>
      <trkpt lat="43.09284" lon="0.39369">
        <ele>682.757368</ele>
        <time>2021-04-18T12:27:29.413Z</time>
      </trkpt>
      <trkpt lat="43.09289" lon="0.39383">
        <ele>682.358335</ele>
        <time>2021-04-18T12:27:31.408Z</time>
      </trkpt>
      <trkpt lat="43.09294" lon="0.39398">
        <ele>681.926981</ele>
        <time>2021-04-18T12:27:33.411Z</time>
      </trkpt>
      <trkpt lat="43.093" lon="0.39413">
        <ele>681.497178</ele>
        <time>2021-04-18T12:27:35.439Z</time>
      </trkpt>
      <trkpt lat="43.09304" lon="0.39427">
        <ele>681.103288</ele>
        <time>2021-04-18T12:27:37.425Z</time>
      </trkpt>
      <trkpt lat="43.09309" lon="0.39442">
        <ele>680.70618</ele>
        <time>2021-04-18T12:27:39.420Z</time>
      </trkpt>
      <trkpt lat="43.09315" lon="0.39458">
        <ele>680.254925</ele>
        <time>2021-04-18T12:27:41.423Z</time>
      </trkpt>
      <trkpt lat="43.09321" lon="0.39473">
        <ele>679.810983</ele>
        <time>2021-04-18T12:27:43.413Z</time>
      </trkpt>
      <trkpt lat="43.09326" lon="0.39487">
        <ele>679.391675</ele>
        <time>2021-04-18T12:27:45.392Z</time>
      </trkpt>
      <trkpt lat="43.09331" lon="0.39499">
        <ele>679.044561</ele>
        <time>2021-04-18T12:27:47.414Z</time>
      </trkpt>
      <trkpt lat="43.09336" lon="0.39512">
        <ele>678.683874</ele>
        <time>2021-04-18T12:27:49.412Z</time>
      </trkpt>
      <trkpt lat="43.09341" lon="0.39524">
        <ele>678.312168</ele>
        <time>2021-04-18T12:27:51.409Z</time>
      </trkpt>
      <trkpt lat="43.09346" lon="0.39536">
        <ele>677.964649</ele>
        <time>2021-04-18T12:27:53.448Z</time>
      </trkpt>
      <trkpt lat="43.09351" lon="0.39548">
        <ele>677.622084</ele>
        <time>2021-04-18T12:27:55.402Z</time>
      </trkpt>
      <trkpt lat="43.09356" lon="0.39561">
        <ele>677.23925</ele>
        <time>2021-04-18T12:27:57.425Z</time>
      </trkpt>
      <trkpt lat="43.09361" lon="0.39574">
        <ele>676.872189</ele>
        <time>2021-04-18T12:27:59.431Z</time>
      </trkpt>
      <trkpt lat="43.09365" lon="0.39586">
        <ele>676.665635</ele>
        <time>2021-04-18T12:28:01.427Z</time>
      </trkpt>
      <trkpt lat="43.09371" lon="0.396">
        <ele>676.424217</ele>
        <time>2021-04-18T12:28:03.401Z</time>
      </trkpt>
      <trkpt lat="43.09376" lon="0.39613">
        <ele>676.196055</ele>
        <time>2021-04-18T12:28:05.393Z</time>
      </trkpt>
      <trkpt lat="43.0938" lon="0.39626">
        <ele>675.974269</ele>
        <time>2021-04-18T12:28:07.398Z</time>
      </trkpt>
      <trkpt lat="43.09385" lon="0.39638">
        <ele>675.754506</ele>
        <time>2021-04-18T12:28:09.426Z</time>
      </trkpt>
      <trkpt lat="43.0939" lon="0.39651">
        <ele>675.528628</ele>
        <time>2021-04-18T12:28:11.396Z</time>
      </trkpt>
      <trkpt lat="43.09396" lon="0.39668">
        <ele>675.236135</ele>
        <time>2021-04-18T12:28:13.398Z</time>
      </trkpt>
      <trkpt lat="43.09403" lon="0.39687">
        <ele>674.913409</ele>
        <time>2021-04-18T12:28:15.425Z</time>
      </trkpt>
      <trkpt lat="43.0941" lon="0.39705">
        <ele>674.592629</ele>
        <time>2021-04-18T12:28:17.401Z</time>
      </trkpt>
      <trkpt lat="43.09416" lon="0.39722">
        <ele>674.301479</ele>
        <time>2021-04-18T12:28:19.408Z</time>
      </trkpt>
      <trkpt lat="43.09422" lon="0.39738">
        <ele>674.027963</ele>
        <time>2021-04-18T12:28:21.397Z</time>
      </trkpt>
      <trkpt lat="43.09427" lon="0.39752">
        <ele>673.792397</ele>
        <time>2021-04-18T12:28:23.398Z</time>
      </trkpt>
      <trkpt lat="43.09431" lon="0.39764">
        <ele>673.586415</ele>
        <time>2021-04-18T12:28:25.393Z</time>
      </trkpt>
      <trkpt lat="43.09436" lon="0.39778">
        <ele>673.337819</ele>
        <time>2021-04-18T12:28:28.412Z</time>
      </trkpt>
      <trkpt lat="43.09441" lon="0.39791">
        <ele>673.113359</ele>
        <time>2021-04-18T12:28:30.448Z</time>
      </trkpt>
      <trkpt lat="43.09446" lon="0.39805">
        <ele>673.294323</ele>
        <time>2021-04-18T12:28:32.394Z</time>
      </trkpt>
      <trkpt lat="43.09452" lon="0.39819">
        <ele>673.577319</ele>
        <time>2021-04-18T12:28:34.395Z</time>
      </trkpt>
      <trkpt lat="43.09459" lon="0.39833">
        <ele>673.873587</ele>
        <time>2021-04-18T12:28:36.409Z</time>
      </trkpt>
      <trkpt lat="43.09466" lon="0.39845">
        <ele>674.138792</ele>
        <time>2021-04-18T12:28:38.396Z</time>
      </trkpt>
      <trkpt lat="43.09473" lon="0.39857">
        <ele>674.398599</ele>
        <time>2021-04-18T12:28:40.441Z</time>
      </trkpt>
      <trkpt lat="43.09481" lon="0.3987">
        <ele>674.670381</ele>
        <time>2021-04-18T12:28:42.396Z</time>
      </trkpt>
      <trkpt lat="43.09488" lon="0.39882">
        <ele>674.947881</ele>
        <time>2021-04-18T12:28:44.429Z</time>
      </trkpt>
      <trkpt lat="43.09495" lon="0.39894">
        <ele>675.206031</ele>
        <time>2021-04-18T12:28:46.412Z</time>
      </trkpt>
      <trkpt lat="43.09502" lon="0.39906">
        <ele>675.45287</ele>
        <time>2021-04-18T12:28:48.396Z</time>
      </trkpt>
      <trkpt lat="43.09507" lon="0.39918">
        <ele>675.696119</ele>
        <time>2021-04-18T12:28:50.425Z</time>
      </trkpt>
      <trkpt lat="43.09512" lon="0.39929">
        <ele>675.915168</ele>
        <time>2021-04-18T12:28:52.427Z</time>
      </trkpt>
      <trkpt lat="43.09518" lon="0.39944">
        <ele>676.1967</ele>
        <time>2021-04-18T12:28:55.408Z</time>
      </trkpt>
      <trkpt lat="43.09523" lon="0.39958">
        <ele>676.478122</ele>
        <time>2021-04-18T12:28:58.415Z</time>
      </trkpt>
      <trkpt lat="43.09528" lon="0.39975">
        <ele>676.778602</ele>
        <time>2021-04-18T12:29:01.429Z</time>
      </trkpt>
      <trkpt lat="43.09532" lon="0.39989">
        <ele>677.048216</ele>
        <time>2021-04-18T12:29:04.453Z</time>
      </trkpt>
      <trkpt lat="43.09537" lon="0.40004">
        <ele>677.313603</ele>
        <time>2021-04-18T12:29:07.384Z</time>
      </trkpt>
      <trkpt lat="43.0954" lon="0.40016">
        <ele>677.504747</ele>
        <time>2021-04-18T12:29:09.421Z</time>
      </trkpt>
      <trkpt lat="43.09545" lon="0.40028">
        <ele>677.697899</ele>
        <time>2021-04-18T12:29:11.398Z</time>
      </trkpt>
      <trkpt lat="43.09549" lon="0.40041">
        <ele>677.89549</ele>
        <time>2021-04-18T12:29:13.398Z</time>
      </trkpt>
      <trkpt lat="43.09553" lon="0.40056">
        <ele>678.130276</ele>
        <time>2021-04-18T12:29:15.397Z</time>
      </trkpt>
      <trkpt lat="43.09557" lon="0.40071">
        <ele>678.371219</ele>
        <time>2021-04-18T12:29:17.395Z</time>
      </trkpt>
      <trkpt lat="43.09562" lon="0.40088">
        <ele>678.631163</ele>
        <time>2021-04-18T12:29:19.416Z</time>
      </trkpt>
      <trkpt lat="43.09567" lon="0.40103">
        <ele>678.873732</ele>
        <time>2021-04-18T12:29:21.398Z</time>
      </trkpt>
      <trkpt lat="43.09571" lon="0.40118">
        <ele>679.107864</ele>
        <time>2021-04-18T12:29:23.396Z</time>
      </trkpt>
      <trkpt lat="43.09575" lon="0.40132">
        <ele>679.334467</ele>
        <time>2021-04-18T12:29:25.399Z</time>
      </trkpt>
      <trkpt lat="43.09579" lon="0.40146">
        <ele>679.554899</ele>
        <time>2021-04-18T12:29:27.402Z</time>
      </trkpt>
      <trkpt lat="43.09583" lon="0.40158">
        <ele>679.747812</ele>
        <time>2021-04-18T12:29:29.413Z</time>
      </trkpt>
      <trkpt lat="43.09587" lon="0.4017">
        <ele>679.935764</ele>
        <time>2021-04-18T12:29:31.433Z</time>
      </trkpt>
      <trkpt lat="43.09592" lon="0.40185">
        <ele>680.183258</ele>
        <time>2021-04-18T12:29:34.389Z</time>
      </trkpt>
      <trkpt lat="43.09596" lon="0.40197">
        <ele>680.373614</ele>
        <time>2021-04-18T12:29:36.401Z</time>
      </trkpt>
      <trkpt lat="43.096" lon="0.4021">
        <ele>680.581896</ele>
        <time>2021-04-18T12:29:38.417Z</time>
      </trkpt>
      <trkpt lat="43.09604" lon="0.40225">
        <ele>680.810601</ele>
        <time>2021-04-18T12:29:40.397Z</time>
      </trkpt>
      <trkpt lat="43.09609" lon="0.4024">
        <ele>680.836946</ele>
        <time>2021-04-18T12:29:42.399Z</time>
      </trkpt>
      <trkpt lat="43.09614" lon="0.40254">
        <ele>680.805293</ele>
        <time>2021-04-18T12:29:44.403Z</time>
      </trkpt>
      <trkpt lat="43.09617" lon="0.40266">
        <ele>680.780154</ele>
        <time>2021-04-18T12:29:46.402Z</time>
      </trkpt>
      <trkpt lat="43.09623" lon="0.40281">
        <ele>680.744909</ele>
        <time>2021-04-18T12:29:49.405Z</time>
      </trkpt>
      <trkpt lat="43.09627" lon="0.40293">
        <ele>680.720168</ele>
        <time>2021-04-18T12:29:51.408Z</time>
      </trkpt>
      <trkpt lat="43.09632" lon="0.40308">
        <ele>680.686267</ele>
        <time>2021-04-18T12:29:54.391Z</time>
      </trkpt>
      <trkpt lat="43.09637" lon="0.4032">
        <ele>680.657661</ele>
        <time>2021-04-18T12:29:56.422Z</time>
      </trkpt>
      <trkpt lat="43.09641" lon="0.40336">
        <ele>680.624605</ele>
        <time>2021-04-18T12:29:58.410Z</time>
      </trkpt>
      <trkpt lat="43.09646" lon="0.40349">
        <ele>680.593654</ele>
        <time>2021-04-18T12:30:00.408Z</time>
      </trkpt>
      <trkpt lat="43.0965" lon="0.40363">
        <ele>680.564299</ele>
        <time>2021-04-18T12:30:02.419Z</time>
      </trkpt>
      <trkpt lat="43.09654" lon="0.40377">
        <ele>680.534843</ele>
        <time>2021-04-18T12:30:04.413Z</time>
      </trkpt>
      <trkpt lat="43.09659" lon="0.40391">
        <ele>680.502195</ele>
        <time>2021-04-18T12:30:06.378Z</time>
      </trkpt>
      <trkpt lat="43.09664" lon="0.40408">
        <ele>680.466118</ele>
        <time>2021-04-18T12:30:08.429Z</time>
      </trkpt>
      <trkpt lat="43.09669" lon="0.40425">
        <ele>680.430071</ele>
        <time>2021-04-18T12:30:10.407Z</time>
      </trkpt>
      <trkpt lat="43.09673" lon="0.40442">
        <ele>680.394024</ele>
        <time>2021-04-18T12:30:12.387Z</time>
      </trkpt>
      <trkpt lat="43.09678" lon="0.40459">
        <ele>680.249158</ele>
        <time>2021-04-18T12:30:14.373Z</time>
      </trkpt>
      <trkpt lat="43.09682" lon="0.40474">
        <ele>679.837134</ele>
        <time>2021-04-18T12:30:16.401Z</time>
      </trkpt>
      <trkpt lat="43.09687" lon="0.40489">
        <ele>679.434598</ele>
        <time>2021-04-18T12:30:18.409Z</time>
      </trkpt>
      <trkpt lat="43.09693" lon="0.40503">
        <ele>679.026892</ele>
        <time>2021-04-18T12:30:20.430Z</time>
      </trkpt>
      <trkpt lat="43.09697" lon="0.40516">
        <ele>678.682613</ele>
        <time>2021-04-18T12:30:22.398Z</time>
      </trkpt>
      <trkpt lat="43.097" lon="0.40529">
        <ele>678.337371</ele>
        <time>2021-04-18T12:30:24.398Z</time>
      </trkpt>
      <trkpt lat="43.09704" lon="0.40544">
        <ele>677.951411</ele>
        <time>2021-04-18T12:30:26.401Z</time>
      </trkpt>
      <trkpt lat="43.09708" lon="0.40559">
        <ele>677.556167</ele>
        <time>2021-04-18T12:30:28.423Z</time>
      </trkpt>
      <trkpt lat="43.09713" lon="0.40573">
        <ele>677.165083</ele>
        <time>2021-04-18T12:30:30.409Z</time>
      </trkpt>
      <trkpt lat="43.09717" lon="0.40588">
        <ele>676.779115</ele>
        <time>2021-04-18T12:30:32.411Z</time>
      </trkpt>
      <trkpt lat="43.09721" lon="0.40602">
        <ele>676.385745</ele>
        <time>2021-04-18T12:30:34.406Z</time>
      </trkpt>
      <trkpt lat="43.09726" lon="0.40616">
        <ele>676.000138</ele>
        <time>2021-04-18T12:30:36.416Z</time>
      </trkpt>
      <trkpt lat="43.0973" lon="0.4063">
        <ele>675.635888</ele>
        <time>2021-04-18T12:30:38.395Z</time>
      </trkpt>
      <trkpt lat="43.09733" lon="0.40643">
        <ele>675.28376</ele>
        <time>2021-04-18T12:30:40.404Z</time>
      </trkpt>
      <trkpt lat="43.09737" lon="0.40656">
        <ele>674.937504</ele>
        <time>2021-04-18T12:30:42.404Z</time>
      </trkpt>
      <trkpt lat="43.09741" lon="0.4067">
        <ele>674.5605</ele>
        <time>2021-04-18T12:30:44.421Z</time>
      </trkpt>
      <trkpt lat="43.09745" lon="0.40684">
        <ele>674.229931</ele>
        <time>2021-04-18T12:30:46.423Z</time>
      </trkpt>
      <trkpt lat="43.0975" lon="0.40698">
        <ele>674.075951</ele>
        <time>2021-04-18T12:30:48.408Z</time>
      </trkpt>
      <trkpt lat="43.09754" lon="0.40711">
        <ele>673.926521</ele>
        <time>2021-04-18T12:30:50.412Z</time>
      </trkpt>
      <trkpt lat="43.09758" lon="0.40724">
        <ele>673.780328</ele>
        <time>2021-04-18T12:30:52.412Z</time>
      </trkpt>
      <trkpt lat="43.09762" lon="0.40737">
        <ele>673.63318</ele>
        <time>2021-04-18T12:30:54.427Z</time>
      </trkpt>
      <trkpt lat="43.09766" lon="0.4075">
        <ele>673.487755</ele>
        <time>2021-04-18T12:30:56.429Z</time>
      </trkpt>
      <trkpt lat="43.0977" lon="0.40762">
        <ele>673.344422</ele>
        <time>2021-04-18T12:30:58.434Z</time>
      </trkpt>
      <trkpt lat="43.09775" lon="0.40777">
        <ele>673.172665</ele>
        <time>2021-04-18T12:31:01.399Z</time>
      </trkpt>
      <trkpt lat="43.0978" lon="0.4079">
        <ele>673.023264</ele>
        <time>2021-04-18T12:31:04.419Z</time>
      </trkpt>
      <trkpt lat="43.09784" lon="0.40801">
        <ele>672.894927</ele>
        <time>2021-04-18T12:31:07.418Z</time>
      </trkpt>
      <trkpt lat="43.09789" lon="0.40817">
        <ele>672.714008</ele>
        <time>2021-04-18T12:31:10.461Z</time>
      </trkpt>
      <trkpt lat="43.09793" lon="0.40831">
        <ele>672.563028</ele>
        <time>2021-04-18T12:31:12.439Z</time>
      </trkpt>
      <trkpt lat="43.09798" lon="0.40845">
        <ele>672.405226</ele>
        <time>2021-04-18T12:31:14.406Z</time>
      </trkpt>
      <trkpt lat="43.09803" lon="0.40859">
        <ele>672.238112</ele>
        <time>2021-04-18T12:31:16.416Z</time>
      </trkpt>
      <trkpt lat="43.09807" lon="0.40874">
        <ele>672.070861</ele>
        <time>2021-04-18T12:31:18.405Z</time>
      </trkpt>
      <trkpt lat="43.09812" lon="0.40888">
        <ele>671.912911</ele>
        <time>2021-04-18T12:31:20.419Z</time>
      </trkpt>
      <trkpt lat="43.09816" lon="0.40902">
        <ele>671.757811</ele>
        <time>2021-04-18T12:31:22.409Z</time>
      </trkpt>
      <trkpt lat="43.0982" lon="0.40915">
        <ele>671.420528</ele>
        <time>2021-04-18T12:31:24.414Z</time>
      </trkpt>
      <trkpt lat="43.09824" lon="0.40929">
        <ele>670.979473</ele>
        <time>2021-04-18T12:31:26.425Z</time>
      </trkpt>
      <trkpt lat="43.09828" lon="0.40941">
        <ele>670.545694</ele>
        <time>2021-04-18T12:31:28.411Z</time>
      </trkpt>
      <trkpt lat="43.09832" lon="0.40954">
        <ele>670.119925</ele>
        <time>2021-04-18T12:31:30.422Z</time>
      </trkpt>
      <trkpt lat="43.09836" lon="0.40966">
        <ele>669.709445</ele>
        <time>2021-04-18T12:31:32.408Z</time>
      </trkpt>
      <trkpt lat="43.0984" lon="0.40979">
        <ele>669.270614</ele>
        <time>2021-04-18T12:31:34.441Z</time>
      </trkpt>
      <trkpt lat="43.09844" lon="0.40993">
        <ele>668.801132</ele>
        <time>2021-04-18T12:31:36.405Z</time>
      </trkpt>
      <trkpt lat="43.09848" lon="0.41008">
        <ele>668.317893</ele>
        <time>2021-04-18T12:31:38.421Z</time>
      </trkpt>
      <trkpt lat="43.09852" lon="0.41021">
        <ele>667.8562</ele>
        <time>2021-04-18T12:31:40.421Z</time>
      </trkpt>
      <trkpt lat="43.09857" lon="0.41036">
        <ele>667.369492</ele>
        <time>2021-04-18T12:31:42.407Z</time>
      </trkpt>
      <trkpt lat="43.09862" lon="0.41051">
        <ele>666.859544</ele>
        <time>2021-04-18T12:31:44.423Z</time>
      </trkpt>
      <trkpt lat="43.09867" lon="0.41064">
        <ele>666.395742</ele>
        <time>2021-04-18T12:31:46.385Z</time>
      </trkpt>
      <trkpt lat="43.09871" lon="0.41078">
        <ele>665.94584</ele>
        <time>2021-04-18T12:31:48.451Z</time>
      </trkpt>
      <trkpt lat="43.09875" lon="0.41092">
        <ele>665.479965</ele>
        <time>2021-04-18T12:31:50.409Z</time>
      </trkpt>
      <trkpt lat="43.09879" lon="0.41106">
        <ele>665.002463</ele>
        <time>2021-04-18T12:31:52.410Z</time>
      </trkpt>
      <trkpt lat="43.09884" lon="0.41119">
        <ele>664.554548</ele>
        <time>2021-04-18T12:31:54.427Z</time>
      </trkpt>
      <trkpt lat="43.09888" lon="0.41132">
        <ele>664.115721</ele>
        <time>2021-04-18T12:31:56.425Z</time>
      </trkpt>
      <trkpt lat="43.09893" lon="0.41148">
        <ele>664.042139</ele>
        <time>2021-04-18T12:31:59.424Z</time>
      </trkpt>
      <trkpt lat="43.09898" lon="0.41165">
        <ele>664.012781</ele>
        <time>2021-04-18T12:32:02.377Z</time>
      </trkpt>
      <trkpt lat="43.09901" lon="0.41177">
        <ele>663.992558</ele>
        <time>2021-04-18T12:32:04.406Z</time>
      </trkpt>
      <trkpt lat="43.09904" lon="0.41189">
        <ele>663.972631</ele>
        <time>2021-04-18T12:32:06.387Z</time>
      </trkpt>
      <trkpt lat="43.09909" lon="0.41202">
        <ele>663.949404</ele>
        <time>2021-04-18T12:32:08.384Z</time>
      </trkpt>
      <trkpt lat="43.09913" lon="0.41216">
        <ele>663.926089</ele>
        <time>2021-04-18T12:32:10.429Z</time>
      </trkpt>
      <trkpt lat="43.09917" lon="0.41228">
        <ele>663.904736</ele>
        <time>2021-04-18T12:32:12.373Z</time>
      </trkpt>
      <trkpt lat="43.0992" lon="0.4124">
        <ele>663.885233</ele>
        <time>2021-04-18T12:32:14.395Z</time>
      </trkpt>
      <trkpt lat="43.09924" lon="0.41252">
        <ele>663.864461</ele>
        <time>2021-04-18T12:32:16.419Z</time>
      </trkpt>
      <trkpt lat="43.09928" lon="0.41264">
        <ele>663.842938</ele>
        <time>2021-04-18T12:32:18.412Z</time>
      </trkpt>
      <trkpt lat="43.09932" lon="0.41276">
        <ele>663.82283</ele>
        <time>2021-04-18T12:32:20.453Z</time>
      </trkpt>
      <trkpt lat="43.09937" lon="0.41292">
        <ele>663.794656</ele>
        <time>2021-04-18T12:32:23.438Z</time>
      </trkpt>
      <trkpt lat="43.0994" lon="0.41305">
        <ele>663.774212</ele>
        <time>2021-04-18T12:32:25.398Z</time>
      </trkpt>
      <trkpt lat="43.09944" lon="0.41317">
        <ele>663.753004</ele>
        <time>2021-04-18T12:32:27.428Z</time>
      </trkpt>
      <trkpt lat="43.09948" lon="0.41331">
        <ele>663.729572</ele>
        <time>2021-04-18T12:32:29.421Z</time>
      </trkpt>
      <trkpt lat="43.09953" lon="0.41344">
        <ele>663.706401</ele>
        <time>2021-04-18T12:32:31.399Z</time>
      </trkpt>
      <trkpt lat="43.09957" lon="0.41358">
        <ele>663.682969</ele>
        <time>2021-04-18T12:32:33.428Z</time>
      </trkpt>
      <trkpt lat="43.09961" lon="0.41372">
        <ele>663.79468</ele>
        <time>2021-04-18T12:32:35.398Z</time>
      </trkpt>
      <trkpt lat="43.09965" lon="0.41385">
        <ele>663.936714</ele>
        <time>2021-04-18T12:32:37.408Z</time>
      </trkpt>
      <trkpt lat="43.0997" lon="0.41399">
        <ele>664.079807</ele>
        <time>2021-04-18T12:32:39.397Z</time>
      </trkpt>
      <trkpt lat="43.09974" lon="0.41412">
        <ele>664.223936</ele>
        <time>2021-04-18T12:32:41.447Z</time>
      </trkpt>
      <trkpt lat="43.09977" lon="0.41426">
        <ele>664.363508</ele>
        <time>2021-04-18T12:32:43.411Z</time>
      </trkpt>
      <trkpt lat="43.09981" lon="0.41439">
        <ele>664.500362</ele>
        <time>2021-04-18T12:32:45.397Z</time>
      </trkpt>
      <trkpt lat="43.09985" lon="0.41453">
        <ele>664.647677</ele>
        <time>2021-04-18T12:32:47.401Z</time>
      </trkpt>
      <trkpt lat="43.0999" lon="0.41468">
        <ele>664.802404</ele>
        <time>2021-04-18T12:32:49.431Z</time>
      </trkpt>
      <trkpt lat="43.09996" lon="0.41481">
        <ele>664.953946</ele>
        <time>2021-04-18T12:32:51.423Z</time>
      </trkpt>
      <trkpt lat="43.1" lon="0.41496">
        <ele>665.108742</ele>
        <time>2021-04-18T12:32:53.433Z</time>
      </trkpt>
      <trkpt lat="43.10004" lon="0.4151">
        <ele>665.25744</ele>
        <time>2021-04-18T12:32:55.423Z</time>
      </trkpt>
      <trkpt lat="43.10009" lon="0.41524">
        <ele>665.398767</ele>
        <time>2021-04-18T12:32:57.416Z</time>
      </trkpt>
      <trkpt lat="43.10013" lon="0.41537">
        <ele>665.536719</ele>
        <time>2021-04-18T12:32:59.425Z</time>
      </trkpt>
      <trkpt lat="43.10017" lon="0.4155">
        <ele>665.672544</ele>
        <time>2021-04-18T12:33:01.427Z</time>
      </trkpt>
      <trkpt lat="43.10021" lon="0.41562">
        <ele>665.805307</ele>
        <time>2021-04-18T12:33:03.424Z</time>
      </trkpt>
      <trkpt lat="43.10024" lon="0.41576">
        <ele>665.942641</ele>
        <time>2021-04-18T12:33:05.396Z</time>
      </trkpt>
      <trkpt lat="43.10027" lon="0.41587">
        <ele>666.062251</ele>
        <time>2021-04-18T12:33:07.421Z</time>
      </trkpt>
      <trkpt lat="43.10034" lon="0.41605">
        <ele>666.008869</ele>
        <time>2021-04-18T12:33:10.409Z</time>
      </trkpt>
      <trkpt lat="43.10038" lon="0.41619">
        <ele>665.965237</ele>
        <time>2021-04-18T12:33:12.428Z</time>
      </trkpt>
      <trkpt lat="43.10043" lon="0.41634">
        <ele>665.920493</ele>
        <time>2021-04-18T12:33:14.411Z</time>
      </trkpt>
      <trkpt lat="43.10044" lon="0.41649">
        <ele>665.879412</ele>
        <time>2021-04-18T12:33:16.407Z</time>
      </trkpt>
      <trkpt lat="43.10048" lon="0.41662">
        <ele>665.838302</ele>
        <time>2021-04-18T12:33:18.397Z</time>
      </trkpt>
      <trkpt lat="43.10052" lon="0.41674">
        <ele>665.803426</ele>
        <time>2021-04-18T12:33:20.392Z</time>
      </trkpt>
      <trkpt lat="43.10056" lon="0.41685">
        <ele>665.768532</ele>
        <time>2021-04-18T12:33:22.396Z</time>
      </trkpt>
      <trkpt lat="43.10062" lon="0.417">
        <ele>665.720737</ele>
        <time>2021-04-18T12:33:25.394Z</time>
      </trkpt>
      <trkpt lat="43.10068" lon="0.41711">
        <ele>665.681437</ele>
        <time>2021-04-18T12:33:27.411Z</time>
      </trkpt>
      <trkpt lat="43.10076" lon="0.41722">
        <ele>665.638894</ele>
        <time>2021-04-18T12:33:29.398Z</time>
      </trkpt>
      <trkpt lat="43.10084" lon="0.41734">
        <ele>665.595037</ele>
        <time>2021-04-18T12:33:31.390Z</time>
      </trkpt>
      <trkpt lat="43.1009" lon="0.41746">
        <ele>665.554642</ele>
        <time>2021-04-18T12:33:33.396Z</time>
      </trkpt>
      <trkpt lat="43.10097" lon="0.4176">
        <ele>665.506393</ele>
        <time>2021-04-18T12:33:35.395Z</time>
      </trkpt>
      <trkpt lat="43.10103" lon="0.41776">
        <ele>665.458014</ele>
        <time>2021-04-18T12:33:37.397Z</time>
      </trkpt>
      <trkpt lat="43.10109" lon="0.4179">
        <ele>665.411622</ele>
        <time>2021-04-18T12:33:39.419Z</time>
      </trkpt>
      <trkpt lat="43.10114" lon="0.41806">
        <ele>665.304754</ele>
        <time>2021-04-18T12:33:41.431Z</time>
      </trkpt>
      <trkpt lat="43.1012" lon="0.41822">
        <ele>665.075965</ele>
        <time>2021-04-18T12:33:43.417Z</time>
      </trkpt>
      <trkpt lat="43.10125" lon="0.41837">
        <ele>664.844259</ele>
        <time>2021-04-18T12:33:45.401Z</time>
      </trkpt>
      <trkpt lat="43.10132" lon="0.41852">
        <ele>664.603941</ele>
        <time>2021-04-18T12:33:47.403Z</time>
      </trkpt>
      <trkpt lat="43.10138" lon="0.41867">
        <ele>664.374055</ele>
        <time>2021-04-18T12:33:49.415Z</time>
      </trkpt>
      <trkpt lat="43.10143" lon="0.41883">
        <ele>664.140013</ele>
        <time>2021-04-18T12:33:51.410Z</time>
      </trkpt>
      <trkpt lat="43.10148" lon="0.41897">
        <ele>663.920134</ele>
        <time>2021-04-18T12:33:53.399Z</time>
      </trkpt>
      <trkpt lat="43.10153" lon="0.41912">
        <ele>663.70813</ele>
        <time>2021-04-18T12:33:55.379Z</time>
      </trkpt>
      <trkpt lat="43.10156" lon="0.41927">
        <ele>663.498816</ele>
        <time>2021-04-18T12:33:57.408Z</time>
      </trkpt>
      <trkpt lat="43.10158" lon="0.41943">
        <ele>663.282173</ele>
        <time>2021-04-18T12:33:59.398Z</time>
      </trkpt>
      <trkpt lat="43.10158" lon="0.4196">
        <ele>663.043045</ele>
        <time>2021-04-18T12:34:01.397Z</time>
      </trkpt>
      <trkpt lat="43.10158" lon="0.41977">
        <ele>662.817055</ele>
        <time>2021-04-18T12:34:03.398Z</time>
      </trkpt>
      <trkpt lat="43.10159" lon="0.41994">
        <ele>662.589814</ele>
        <time>2021-04-18T12:34:05.423Z</time>
      </trkpt>
      <trkpt lat="43.1016" lon="0.42011">
        <ele>662.353127</ele>
        <time>2021-04-18T12:34:07.405Z</time>
      </trkpt>
      <trkpt lat="43.10161" lon="0.42027">
        <ele>662.134948</ele>
        <time>2021-04-18T12:34:09.395Z</time>
      </trkpt>
      <trkpt lat="43.10163" lon="0.42044">
        <ele>661.802599</ele>
        <time>2021-04-18T12:34:11.409Z</time>
      </trkpt>
      <trkpt lat="43.10165" lon="0.4206">
        <ele>661.417958</ele>
        <time>2021-04-18T12:34:13.398Z</time>
      </trkpt>
      <trkpt lat="43.10168" lon="0.42076">
        <ele>661.010383</ele>
        <time>2021-04-18T12:34:15.392Z</time>
      </trkpt>
      <trkpt lat="43.10171" lon="0.42093">
        <ele>660.605969</ele>
        <time>2021-04-18T12:34:17.393Z</time>
      </trkpt>
      <trkpt lat="43.10173" lon="0.42109">
        <ele>660.19963</ele>
        <time>2021-04-18T12:34:19.412Z</time>
      </trkpt>
      <trkpt lat="43.10176" lon="0.42126">
        <ele>659.804996</ele>
        <time>2021-04-18T12:34:21.385Z</time>
      </trkpt>
      <trkpt lat="43.10178" lon="0.42141">
        <ele>659.42439</ele>
        <time>2021-04-18T12:34:23.396Z</time>
      </trkpt>
      <trkpt lat="43.1018" lon="0.42156">
        <ele>659.057788</ele>
        <time>2021-04-18T12:34:25.399Z</time>
      </trkpt>
      <trkpt lat="43.10182" lon="0.42171">
        <ele>658.70844</ele>
        <time>2021-04-18T12:34:27.396Z</time>
      </trkpt>
      <trkpt lat="43.10184" lon="0.42185">
        <ele>658.363186</ele>
        <time>2021-04-18T12:34:29.413Z</time>
      </trkpt>
      <trkpt lat="43.10186" lon="0.42199">
        <ele>658.02201</ele>
        <time>2021-04-18T12:34:31.409Z</time>
      </trkpt>
      <trkpt lat="43.10188" lon="0.42213">
        <ele>657.692605</ele>
        <time>2021-04-18T12:34:33.411Z</time>
      </trkpt>
      <trkpt lat="43.1019" lon="0.42226">
        <ele>657.369066</ele>
        <time>2021-04-18T12:34:35.443Z</time>
      </trkpt>
      <trkpt lat="43.10191" lon="0.42239">
        <ele>657.039662</ele>
        <time>2021-04-18T12:34:37.412Z</time>
      </trkpt>
      <trkpt lat="43.10193" lon="0.42254">
        <ele>656.695012</ele>
        <time>2021-04-18T12:34:39.423Z</time>
      </trkpt>
      <trkpt lat="43.10196" lon="0.42268">
        <ele>656.340063</ele>
        <time>2021-04-18T12:34:41.406Z</time>
      </trkpt>
      <trkpt lat="43.10198" lon="0.42283">
        <ele>656.176466</ele>
        <time>2021-04-18T12:34:43.400Z</time>
      </trkpt>
      <trkpt lat="43.102" lon="0.42298">
        <ele>656.190666</ele>
        <time>2021-04-18T12:34:45.412Z</time>
      </trkpt>
      <trkpt lat="43.10203" lon="0.42314">
        <ele>656.205303</ele>
        <time>2021-04-18T12:34:47.409Z</time>
      </trkpt>
      <trkpt lat="43.10205" lon="0.42329">
        <ele>656.219702</ele>
        <time>2021-04-18T12:34:49.412Z</time>
      </trkpt>
      <trkpt lat="43.10208" lon="0.42344">
        <ele>656.233365</ele>
        <time>2021-04-18T12:34:51.398Z</time>
      </trkpt>
      <trkpt lat="43.1021" lon="0.42358">
        <ele>656.246671</ele>
        <time>2021-04-18T12:34:53.420Z</time>
      </trkpt>
      <trkpt lat="43.10212" lon="0.42373">
        <ele>656.260487</ele>
        <time>2021-04-18T12:34:55.377Z</time>
      </trkpt>
      <trkpt lat="43.10214" lon="0.42388">
        <ele>656.274304</ele>
        <time>2021-04-18T12:34:57.452Z</time>
      </trkpt>
      <trkpt lat="43.10217" lon="0.42402">
        <ele>656.287404</ele>
        <time>2021-04-18T12:34:59.397Z</time>
      </trkpt>
      <trkpt lat="43.10219" lon="0.42419">
        <ele>656.30392</ele>
        <time>2021-04-18T12:35:02.398Z</time>
      </trkpt>
      <trkpt lat="43.10221" lon="0.42433">
        <ele>656.316394</ele>
        <time>2021-04-18T12:35:04.413Z</time>
      </trkpt>
      <trkpt lat="43.10224" lon="0.42448">
        <ele>656.330863</ele>
        <time>2021-04-18T12:35:06.413Z</time>
      </trkpt>
      <trkpt lat="43.10226" lon="0.42464">
        <ele>656.345284</ele>
        <time>2021-04-18T12:35:08.392Z</time>
      </trkpt>
      <trkpt lat="43.10227" lon="0.42479">
        <ele>656.359556</ele>
        <time>2021-04-18T12:35:10.399Z</time>
      </trkpt>
      <trkpt lat="43.10229" lon="0.42496">
        <ele>656.375071</ele>
        <time>2021-04-18T12:35:12.427Z</time>
      </trkpt>
      <trkpt lat="43.10231" lon="0.42512">
        <ele>656.390303</ele>
        <time>2021-04-18T12:35:14.426Z</time>
      </trkpt>
      <trkpt lat="43.10233" lon="0.42528">
        <ele>656.391186</ele>
        <time>2021-04-18T12:35:16.382Z</time>
      </trkpt>
      <trkpt lat="43.10235" lon="0.42544">
        <ele>656.386699</ele>
        <time>2021-04-18T12:35:18.377Z</time>
      </trkpt>
      <trkpt lat="43.10237" lon="0.42559">
        <ele>656.382409</ele>
        <time>2021-04-18T12:35:20.399Z</time>
      </trkpt>
      <trkpt lat="43.10238" lon="0.42574">
        <ele>656.378034</ele>
        <time>2021-04-18T12:35:22.409Z</time>
      </trkpt>
      <trkpt lat="43.1024" lon="0.42589">
        <ele>656.373611</ele>
        <time>2021-04-18T12:35:24.456Z</time>
      </trkpt>
      <trkpt lat="43.10243" lon="0.42605">
        <ele>656.369049</ele>
        <time>2021-04-18T12:35:26.414Z</time>
      </trkpt>
      <trkpt lat="43.10245" lon="0.4262">
        <ele>656.364778</ele>
        <time>2021-04-18T12:35:28.419Z</time>
      </trkpt>
      <trkpt lat="43.10247" lon="0.42634">
        <ele>656.360515</ele>
        <time>2021-04-18T12:35:30.385Z</time>
      </trkpt>
      <trkpt lat="43.10249" lon="0.42649">
        <ele>656.356392</ele>
        <time>2021-04-18T12:35:32.429Z</time>
      </trkpt>
      <trkpt lat="43.10251" lon="0.42662">
        <ele>656.352409</ele>
        <time>2021-04-18T12:35:34.405Z</time>
      </trkpt>
      <trkpt lat="43.10253" lon="0.42675">
        <ele>656.348699</ele>
        <time>2021-04-18T12:35:36.410Z</time>
      </trkpt>
      <trkpt lat="43.10255" lon="0.42693">
        <ele>656.343633</ele>
        <time>2021-04-18T12:35:39.400Z</time>
      </trkpt>
      <trkpt lat="43.10256" lon="0.42706">
        <ele>656.339854</ele>
        <time>2021-04-18T12:35:42.404Z</time>
      </trkpt>
      <trkpt lat="43.10259" lon="0.42723">
        <ele>656.334802</ele>
        <time>2021-04-18T12:35:45.453Z</time>
      </trkpt>
      <trkpt lat="43.10262" lon="0.42737">
        <ele>656.330661</ele>
        <time>2021-04-18T12:35:47.416Z</time>
      </trkpt>
      <trkpt lat="43.10263" lon="0.42752">
        <ele>656.32636</ele>
        <time>2021-04-18T12:35:49.414Z</time>
      </trkpt>
      <trkpt lat="43.10263" lon="0.42771">
        <ele>656.314644</ele>
        <time>2021-04-18T12:35:51.419Z</time>
      </trkpt>
      <trkpt lat="43.10264" lon="0.4279">
        <ele>656.298318</ele>
        <time>2021-04-18T12:35:53.418Z</time>
      </trkpt>
      <trkpt lat="43.10264" lon="0.42809">
        <ele>656.282576</ele>
        <time>2021-04-18T12:35:55.419Z</time>
      </trkpt>
      <trkpt lat="43.10266" lon="0.42827">
        <ele>656.267633</ele>
        <time>2021-04-18T12:35:57.412Z</time>
      </trkpt>
      <trkpt lat="43.10267" lon="0.42844">
        <ele>656.253485</ele>
        <time>2021-04-18T12:35:59.427Z</time>
      </trkpt>
      <trkpt lat="43.10269" lon="0.42859">
        <ele>656.240695</ele>
        <time>2021-04-18T12:36:01.401Z</time>
      </trkpt>
      <trkpt lat="43.10271" lon="0.42872">
        <ele>656.229141</ele>
        <time>2021-04-18T12:36:03.405Z</time>
      </trkpt>
      <trkpt lat="43.10272" lon="0.42887">
        <ele>656.217012</ele>
        <time>2021-04-18T12:36:05.443Z</time>
      </trkpt>
      <trkpt lat="43.10273" lon="0.42902">
        <ele>656.204205</ele>
        <time>2021-04-18T12:36:07.406Z</time>
      </trkpt>
      <trkpt lat="43.10275" lon="0.42918">
        <ele>656.19054</ele>
        <time>2021-04-18T12:36:09.406Z</time>
      </trkpt>
      <trkpt lat="43.10276" lon="0.42933">
        <ele>656.178065</ele>
        <time>2021-04-18T12:36:11.403Z</time>
      </trkpt>
      <trkpt lat="43.10277" lon="0.42949">
        <ele>656.164597</ele>
        <time>2021-04-18T12:36:13.403Z</time>
      </trkpt>
      <trkpt lat="43.10279" lon="0.42967">
        <ele>656.14937</ele>
        <time>2021-04-18T12:36:15.462Z</time>
      </trkpt>
      <trkpt lat="43.10279" lon="0.42987">
        <ele>656.132734</ele>
        <time>2021-04-18T12:36:17.423Z</time>
      </trkpt>
      <trkpt lat="43.10279" lon="0.43007">
        <ele>656.079817</ele>
        <time>2021-04-18T12:36:19.409Z</time>
      </trkpt>
      <trkpt lat="43.10279" lon="0.43027">
        <ele>655.857933</ele>
        <time>2021-04-18T12:36:21.403Z</time>
      </trkpt>
      <trkpt lat="43.10277" lon="0.43046">
        <ele>655.642873</ele>
        <time>2021-04-18T12:36:23.388Z</time>
      </trkpt>
      <trkpt lat="43.10277" lon="0.43065">
        <ele>655.432233</ele>
        <time>2021-04-18T12:36:25.409Z</time>
      </trkpt>
      <trkpt lat="43.10276" lon="0.43083">
        <ele>655.226244</ele>
        <time>2021-04-18T12:36:27.390Z</time>
      </trkpt>
      <trkpt lat="43.10276" lon="0.43101">
        <ele>655.020308</ele>
        <time>2021-04-18T12:36:29.402Z</time>
      </trkpt>
      <trkpt lat="43.10276" lon="0.4312">
        <ele>654.808745</ele>
        <time>2021-04-18T12:36:31.428Z</time>
      </trkpt>
      <trkpt lat="43.10277" lon="0.43139">
        <ele>654.591358</ele>
        <time>2021-04-18T12:36:33.435Z</time>
      </trkpt>
      <trkpt lat="43.10278" lon="0.43158">
        <ele>654.377273</ele>
        <time>2021-04-18T12:36:35.412Z</time>
      </trkpt>
      <trkpt lat="43.10278" lon="0.43178">
        <ele>654.162312</ele>
        <time>2021-04-18T12:36:37.406Z</time>
      </trkpt>
      <trkpt lat="43.10278" lon="0.43197">
        <ele>653.93941</ele>
        <time>2021-04-18T12:36:39.416Z</time>
      </trkpt>
      <trkpt lat="43.10279" lon="0.43217">
        <ele>653.719775</ele>
        <time>2021-04-18T12:36:41.397Z</time>
      </trkpt>
      <trkpt lat="43.10279" lon="0.43236">
        <ele>653.508071</ele>
        <time>2021-04-18T12:36:43.397Z</time>
      </trkpt>
      <trkpt lat="43.1028" lon="0.43253">
        <ele>653.317067</ele>
        <time>2021-04-18T12:36:45.373Z</time>
      </trkpt>
      <trkpt lat="43.1028" lon="0.43271">
        <ele>653.168484</ele>
        <time>2021-04-18T12:36:47.427Z</time>
      </trkpt>
      <trkpt lat="43.1028" lon="0.43288">
        <ele>653.019828</ele>
        <time>2021-04-18T12:36:49.448Z</time>
      </trkpt>
      <trkpt lat="43.10281" lon="0.43305">
        <ele>652.879648</ele>
        <time>2021-04-18T12:36:51.395Z</time>
      </trkpt>
      <trkpt lat="43.10281" lon="0.43319">
        <ele>652.753254</ele>
        <time>2021-04-18T12:36:53.399Z</time>
      </trkpt>
      <trkpt lat="43.10282" lon="0.43336">
        <ele>652.61096</ele>
        <time>2021-04-18T12:36:55.423Z</time>
      </trkpt>
      <trkpt lat="43.10282" lon="0.43354">
        <ele>652.459</ele>
        <time>2021-04-18T12:36:57.445Z</time>
      </trkpt>
      <trkpt lat="43.10282" lon="0.43372">
        <ele>652.302618</ele>
        <time>2021-04-18T12:36:59.389Z</time>
      </trkpt>
      <trkpt lat="43.1028" lon="0.43391">
        <ele>652.139473</ele>
        <time>2021-04-18T12:37:01.401Z</time>
      </trkpt>
      <trkpt lat="43.10278" lon="0.4341">
        <ele>651.973374</ele>
        <time>2021-04-18T12:37:03.406Z</time>
      </trkpt>
      <trkpt lat="43.10276" lon="0.43429">
        <ele>651.812642</ele>
        <time>2021-04-18T12:37:05.424Z</time>
      </trkpt>
      <trkpt lat="43.10276" lon="0.43447">
        <ele>651.66228</ele>
        <time>2021-04-18T12:37:07.393Z</time>
      </trkpt>
      <trkpt lat="43.10275" lon="0.43464">
        <ele>651.514777</ele>
        <time>2021-04-18T12:37:09.387Z</time>
      </trkpt>
      <trkpt lat="43.10273" lon="0.43481">
        <ele>651.365337</ele>
        <time>2021-04-18T12:37:11.414Z</time>
      </trkpt>
      <trkpt lat="43.10272" lon="0.435">
        <ele>651.118516</ele>
        <time>2021-04-18T12:37:13.403Z</time>
      </trkpt>
      <trkpt lat="43.1027" lon="0.43521">
        <ele>650.574494</ele>
        <time>2021-04-18T12:37:15.411Z</time>
      </trkpt>
      <trkpt lat="43.1027" lon="0.43541">
        <ele>650.058646</ele>
        <time>2021-04-18T12:37:17.402Z</time>
      </trkpt>
      <trkpt lat="43.1027" lon="0.43559">
        <ele>649.571614</ele>
        <time>2021-04-18T12:37:19.418Z</time>
      </trkpt>
      <trkpt lat="43.10269" lon="0.43577">
        <ele>649.100939</ele>
        <time>2021-04-18T12:37:21.409Z</time>
      </trkpt>
      <trkpt lat="43.10267" lon="0.43594">
        <ele>648.643862</ele>
        <time>2021-04-18T12:37:23.406Z</time>
      </trkpt>
      <trkpt lat="43.10265" lon="0.43612">
        <ele>648.186629</ele>
        <time>2021-04-18T12:37:25.416Z</time>
      </trkpt>
      <trkpt lat="43.10263" lon="0.4363">
        <ele>647.703588</ele>
        <time>2021-04-18T12:37:27.421Z</time>
      </trkpt>
      <trkpt lat="43.10262" lon="0.43648">
        <ele>647.215787</ele>
        <time>2021-04-18T12:37:29.428Z</time>
      </trkpt>
      <trkpt lat="43.1026" lon="0.43668">
        <ele>646.700175</ele>
        <time>2021-04-18T12:37:31.413Z</time>
      </trkpt>
      <trkpt lat="43.10258" lon="0.43688">
        <ele>646.168868</ele>
        <time>2021-04-18T12:37:33.415Z</time>
      </trkpt>
      <trkpt lat="43.10256" lon="0.43708">
        <ele>645.651147</ele>
        <time>2021-04-18T12:37:35.483Z</time>
      </trkpt>
      <trkpt lat="43.10254" lon="0.43728">
        <ele>645.113237</ele>
        <time>2021-04-18T12:37:37.400Z</time>
      </trkpt>
      <trkpt lat="43.10251" lon="0.43749">
        <ele>644.591838</ele>
        <time>2021-04-18T12:37:39.399Z</time>
      </trkpt>
      <trkpt lat="43.10248" lon="0.4377">
        <ele>644.103584</ele>
        <time>2021-04-18T12:37:41.419Z</time>
      </trkpt>
      <trkpt lat="43.10244" lon="0.43792">
        <ele>643.601903</ele>
        <time>2021-04-18T12:37:43.416Z</time>
      </trkpt>
      <trkpt lat="43.1024" lon="0.43813">
        <ele>643.109545</ele>
        <time>2021-04-18T12:37:45.405Z</time>
      </trkpt>
      <trkpt lat="43.10237" lon="0.43835">
        <ele>642.614103</ele>
        <time>2021-04-18T12:37:47.416Z</time>
      </trkpt>
      <trkpt lat="43.10232" lon="0.43857">
        <ele>642.106599</ele>
        <time>2021-04-18T12:37:49.409Z</time>
      </trkpt>
      <trkpt lat="43.10228" lon="0.43876">
        <ele>641.654932</ele>
        <time>2021-04-18T12:37:51.390Z</time>
      </trkpt>
      <trkpt lat="43.10224" lon="0.43893">
        <ele>641.262246</ele>
        <time>2021-04-18T12:37:53.402Z</time>
      </trkpt>
      <trkpt lat="43.10221" lon="0.43909">
        <ele>640.890578</ele>
        <time>2021-04-18T12:37:55.402Z</time>
      </trkpt>
      <trkpt lat="43.10219" lon="0.43925">
        <ele>640.522816</ele>
        <time>2021-04-18T12:37:57.406Z</time>
      </trkpt>
      <trkpt lat="43.10216" lon="0.43942">
        <ele>640.143053</ele>
        <time>2021-04-18T12:37:59.409Z</time>
      </trkpt>
      <trkpt lat="43.10212" lon="0.43959">
        <ele>639.749872</ele>
        <time>2021-04-18T12:38:01.428Z</time>
      </trkpt>
      <trkpt lat="43.1021" lon="0.43976">
        <ele>639.349433</ele>
        <time>2021-04-18T12:38:03.416Z</time>
      </trkpt>
      <trkpt lat="43.10206" lon="0.43993">
        <ele>639.783782</ele>
        <time>2021-04-18T12:38:05.409Z</time>
      </trkpt>
      <trkpt lat="43.10203" lon="0.4401">
        <ele>640.358059</ele>
        <time>2021-04-18T12:38:07.424Z</time>
      </trkpt>
      <trkpt lat="43.102" lon="0.44025">
        <ele>640.887537</ele>
        <time>2021-04-18T12:38:09.399Z</time>
      </trkpt>
      <trkpt lat="43.10198" lon="0.44038">
        <ele>641.356207</ele>
        <time>2021-04-18T12:38:11.398Z</time>
      </trkpt>
      <trkpt lat="43.10194" lon="0.44052">
        <ele>641.827619</ele>
        <time>2021-04-18T12:38:13.401Z</time>
      </trkpt>
      <trkpt lat="43.1019" lon="0.44066">
        <ele>642.340204</ele>
        <time>2021-04-18T12:38:15.389Z</time>
      </trkpt>
      <trkpt lat="43.10186" lon="0.4408">
        <ele>642.854187</ele>
        <time>2021-04-18T12:38:17.399Z</time>
      </trkpt>
      <trkpt lat="43.10183" lon="0.44094">
        <ele>643.338243</ele>
        <time>2021-04-18T12:38:19.447Z</time>
      </trkpt>
      <trkpt lat="43.1018" lon="0.44108">
        <ele>643.826744</ele>
        <time>2021-04-18T12:38:21.401Z</time>
      </trkpt>
      <trkpt lat="43.10178" lon="0.44121">
        <ele>644.271787</ele>
        <time>2021-04-18T12:38:23.390Z</time>
      </trkpt>
      <trkpt lat="43.10176" lon="0.44138">
        <ele>644.853017</ele>
        <time>2021-04-18T12:38:26.412Z</time>
      </trkpt>
      <trkpt lat="43.10169" lon="0.44148">
        <ele>645.324727</ele>
        <time>2021-04-18T12:38:31.412Z</time>
      </trkpt>
      <trkpt lat="43.10159" lon="0.44151">
        <ele>645.801724</ele>
        <time>2021-04-18T12:38:34.415Z</time>
      </trkpt>
      <trkpt lat="43.10148" lon="0.44153">
        <ele>646.301522</ele>
        <time>2021-04-18T12:38:37.418Z</time>
      </trkpt>
      <trkpt lat="43.10137" lon="0.44155">
        <ele>646.81716</ele>
        <time>2021-04-18T12:38:40.399Z</time>
      </trkpt>
      <trkpt lat="43.10127" lon="0.44157">
        <ele>647.288444</ele>
        <time>2021-04-18T12:38:43.383Z</time>
      </trkpt>
      <trkpt lat="43.10117" lon="0.44158">
        <ele>647.442601</ele>
        <time>2021-04-18T12:38:46.404Z</time>
      </trkpt>
      <trkpt lat="43.10105" lon="0.44161">
        <ele>647.072339</ele>
        <time>2021-04-18T12:38:50.415Z</time>
      </trkpt>
      <trkpt lat="43.10094" lon="0.44164">
        <ele>646.710078</ele>
        <time>2021-04-18T12:38:53.391Z</time>
      </trkpt>
      <trkpt lat="43.10083" lon="0.44168">
        <ele>646.356098</ele>
        <time>2021-04-18T12:38:56.402Z</time>
      </trkpt>
      <trkpt lat="43.10072" lon="0.44173">
        <ele>645.989187</ele>
        <time>2021-04-18T12:38:59.405Z</time>
      </trkpt>
      <trkpt lat="43.10061" lon="0.44177">
        <ele>645.642456</ele>
        <time>2021-04-18T12:39:01.418Z</time>
      </trkpt>
      <trkpt lat="43.10048" lon="0.44181">
        <ele>645.224519</ele>
        <time>2021-04-18T12:39:03.391Z</time>
      </trkpt>
      <trkpt lat="43.10034" lon="0.44182">
        <ele>644.776386</ele>
        <time>2021-04-18T12:39:05.417Z</time>
      </trkpt>
      <trkpt lat="43.10021" lon="0.44181">
        <ele>644.366947</ele>
        <time>2021-04-18T12:39:07.403Z</time>
      </trkpt>
      <trkpt lat="43.10008" lon="0.44176">
        <ele>643.949648</ele>
        <time>2021-04-18T12:39:09.401Z</time>
      </trkpt>
      <trkpt lat="43.09996" lon="0.44167">
        <ele>643.521598</ele>
        <time>2021-04-18T12:39:11.400Z</time>
      </trkpt>
      <trkpt lat="43.09985" lon="0.44154">
        <ele>643.078861</ele>
        <time>2021-04-18T12:39:13.433Z</time>
      </trkpt>
      <trkpt lat="43.09976" lon="0.44137">
        <ele>642.598339</ele>
        <time>2021-04-18T12:39:15.422Z</time>
      </trkpt>
      <trkpt lat="43.09972" lon="0.44117">
        <ele>642.121476</ele>
        <time>2021-04-18T12:39:17.419Z</time>
      </trkpt>
      <trkpt lat="43.0997" lon="0.44098">
        <ele>641.188026</ele>
        <time>2021-04-18T12:39:19.403Z</time>
      </trkpt>
      <trkpt lat="43.09969" lon="0.44083">
        <ele>640.219924</ele>
        <time>2021-04-18T12:39:21.399Z</time>
      </trkpt>
      <trkpt lat="43.09966" lon="0.44069">
        <ele>639.273544</ele>
        <time>2021-04-18T12:39:23.450Z</time>
      </trkpt>
      <trkpt lat="43.09962" lon="0.44054">
        <ele>638.249617</ele>
        <time>2021-04-18T12:39:25.405Z</time>
      </trkpt>
      <trkpt lat="43.09956" lon="0.4404">
        <ele>637.185095</ele>
        <time>2021-04-18T12:39:27.443Z</time>
      </trkpt>
      <trkpt lat="43.0995" lon="0.44027">
        <ele>636.170744</ele>
        <time>2021-04-18T12:39:29.432Z</time>
      </trkpt>
      <trkpt lat="43.09944" lon="0.44014">
        <ele>635.213156</ele>
        <time>2021-04-18T12:39:31.405Z</time>
      </trkpt>
      <trkpt lat="43.09939" lon="0.44002">
        <ele>634.314039</ele>
        <time>2021-04-18T12:39:33.388Z</time>
      </trkpt>
      <trkpt lat="43.09933" lon="0.43988">
        <ele>633.197362</ele>
        <time>2021-04-18T12:39:35.385Z</time>
      </trkpt>
      <trkpt lat="43.09926" lon="0.4397">
        <ele>631.890411</ele>
        <time>2021-04-18T12:39:37.419Z</time>
      </trkpt>
      <trkpt lat="43.09921" lon="0.4395">
        <ele>630.536342</ele>
        <time>2021-04-18T12:39:39.402Z</time>
      </trkpt>
      <trkpt lat="43.09917" lon="0.4393">
        <ele>629.157017</ele>
        <time>2021-04-18T12:39:41.402Z</time>
      </trkpt>
      <trkpt lat="43.09913" lon="0.43907">
        <ele>627.614086</ele>
        <time>2021-04-18T12:39:43.418Z</time>
      </trkpt>
      <trkpt lat="43.09911" lon="0.43894">
        <ele>626.804106</ele>
        <time>2021-04-18T12:39:44.400Z</time>
      </trkpt>
      <trkpt lat="43.0991" lon="0.43882">
        <ele>626.00387</ele>
        <time>2021-04-18T12:39:45.437Z</time>
      </trkpt>
      <trkpt lat="43.09908" lon="0.4387">
        <ele>625.498368</ele>
        <time>2021-04-18T12:39:46.401Z</time>
      </trkpt>
      <trkpt lat="43.09904" lon="0.43848">
        <ele>624.639682</ele>
        <time>2021-04-18T12:39:48.476Z</time>
      </trkpt>
      <trkpt lat="43.09893" lon="0.43833">
        <ele>623.865266</ele>
        <time>2021-04-18T12:39:50.401Z</time>
      </trkpt>
      <trkpt lat="43.09878" lon="0.43827">
        <ele>623.037962</ele>
        <time>2021-04-18T12:39:52.407Z</time>
      </trkpt>
      <trkpt lat="43.09863" lon="0.43833">
        <ele>622.207446</ele>
        <time>2021-04-18T12:39:54.408Z</time>
      </trkpt>
      <trkpt lat="43.09851" lon="0.43851">
        <ele>621.296543</ele>
        <time>2021-04-18T12:39:56.394Z</time>
      </trkpt>
      <trkpt lat="43.09847" lon="0.43862">
        <ele>620.834587</ele>
        <time>2021-04-18T12:39:57.399Z</time>
      </trkpt>
      <trkpt lat="43.09844" lon="0.43874">
        <ele>620.351198</ele>
        <time>2021-04-18T12:39:58.413Z</time>
      </trkpt>
      <trkpt lat="43.09844" lon="0.43887">
        <ele>619.864666</ele>
        <time>2021-04-18T12:39:59.399Z</time>
      </trkpt>
      <trkpt lat="43.09846" lon="0.439">
        <ele>619.390924</ele>
        <time>2021-04-18T12:40:00.412Z</time>
      </trkpt>
      <trkpt lat="43.09849" lon="0.43912">
        <ele>618.891813</ele>
        <time>2021-04-18T12:40:01.437Z</time>
      </trkpt>
      <trkpt lat="43.09853" lon="0.43924">
        <ele>618.386517</ele>
        <time>2021-04-18T12:40:02.400Z</time>
      </trkpt>
      <trkpt lat="43.09857" lon="0.43937">
        <ele>617.865851</ele>
        <time>2021-04-18T12:40:03.402Z</time>
      </trkpt>
      <trkpt lat="43.0986" lon="0.4395">
        <ele>617.334859</ele>
        <time>2021-04-18T12:40:04.418Z</time>
      </trkpt>
      <trkpt lat="43.09864" lon="0.43964">
        <ele>616.782074</ele>
        <time>2021-04-18T12:40:05.403Z</time>
      </trkpt>
      <trkpt lat="43.09866" lon="0.43978">
        <ele>616.440959</ele>
        <time>2021-04-18T12:40:06.433Z</time>
      </trkpt>
      <trkpt lat="43.09868" lon="0.43993">
        <ele>616.176585</ele>
        <time>2021-04-18T12:40:07.384Z</time>
      </trkpt>
      <trkpt lat="43.0987" lon="0.44007">
        <ele>615.918934</ele>
        <time>2021-04-18T12:40:08.416Z</time>
      </trkpt>
      <trkpt lat="43.09872" lon="0.44021">
        <ele>615.664263</ele>
        <time>2021-04-18T12:40:09.402Z</time>
      </trkpt>
      <trkpt lat="43.09873" lon="0.44034">
        <ele>615.41134</ele>
        <time>2021-04-18T12:40:10.397Z</time>
      </trkpt>
      <trkpt lat="43.09873" lon="0.44049">
        <ele>615.150154</ele>
        <time>2021-04-18T12:40:11.441Z</time>
      </trkpt>
      <trkpt lat="43.09873" lon="0.44063">
        <ele>614.894582</ele>
        <time>2021-04-18T12:40:12.410Z</time>
      </trkpt>
      <trkpt lat="43.09872" lon="0.44077">
        <ele>614.640532</ele>
        <time>2021-04-18T12:40:13.422Z</time>
      </trkpt>
      <trkpt lat="43.09872" lon="0.44091">
        <ele>614.382395</ele>
        <time>2021-04-18T12:40:14.461Z</time>
      </trkpt>
      <trkpt lat="43.0987" lon="0.44105">
        <ele>614.125931</ele>
        <time>2021-04-18T12:40:15.457Z</time>
      </trkpt>
      <trkpt lat="43.09867" lon="0.44118">
        <ele>613.88687</ele>
        <time>2021-04-18T12:40:16.442Z</time>
      </trkpt>
      <trkpt lat="43.09864" lon="0.4413">
        <ele>613.654458</ele>
        <time>2021-04-18T12:40:17.408Z</time>
      </trkpt>
      <trkpt lat="43.0986" lon="0.44141">
        <ele>613.425217</ele>
        <time>2021-04-18T12:40:18.422Z</time>
      </trkpt>
      <trkpt lat="43.0985" lon="0.44161">
        <ele>612.990464</ele>
        <time>2021-04-18T12:40:20.401Z</time>
      </trkpt>
      <trkpt lat="43.09837" lon="0.44176">
        <ele>612.557677</ele>
        <time>2021-04-18T12:40:22.409Z</time>
      </trkpt>
      <trkpt lat="43.09828" lon="0.44181">
        <ele>612.33147</ele>
        <time>2021-04-18T12:40:23.438Z</time>
      </trkpt>
      <trkpt lat="43.09819" lon="0.44183">
        <ele>612.07266</ele>
        <time>2021-04-18T12:40:24.422Z</time>
      </trkpt>
      <trkpt lat="43.09809" lon="0.44183">
        <ele>611.716752</ele>
        <time>2021-04-18T12:40:25.418Z</time>
      </trkpt>
      <trkpt lat="43.09799" lon="0.4418">
        <ele>611.331099</ele>
        <time>2021-04-18T12:40:26.376Z</time>
      </trkpt>
      <trkpt lat="43.09789" lon="0.44175">
        <ele>610.939012</ele>
        <time>2021-04-18T12:40:27.427Z</time>
      </trkpt>
      <trkpt lat="43.09779" lon="0.4417">
        <ele>610.530142</ele>
        <time>2021-04-18T12:40:28.425Z</time>
      </trkpt>
      <trkpt lat="43.09769" lon="0.44164">
        <ele>610.136446</ele>
        <time>2021-04-18T12:40:29.405Z</time>
      </trkpt>
      <trkpt lat="43.09759" lon="0.44158">
        <ele>609.750494</ele>
        <time>2021-04-18T12:40:30.402Z</time>
      </trkpt>
      <trkpt lat="43.09749" lon="0.44151">
        <ele>609.344568</ele>
        <time>2021-04-18T12:40:31.403Z</time>
      </trkpt>
      <trkpt lat="43.09739" lon="0.44145">
        <ele>608.922886</ele>
        <time>2021-04-18T12:40:32.382Z</time>
      </trkpt>
      <trkpt lat="43.09728" lon="0.44139">
        <ele>608.505621</ele>
        <time>2021-04-18T12:40:33.429Z</time>
      </trkpt>
      <trkpt lat="43.09718" lon="0.44134">
        <ele>608.100169</ele>
        <time>2021-04-18T12:40:34.428Z</time>
      </trkpt>
      <trkpt lat="43.09707" lon="0.44129">
        <ele>607.697566</ele>
        <time>2021-04-18T12:40:35.421Z</time>
      </trkpt>
      <trkpt lat="43.09697" lon="0.44124">
        <ele>607.297671</ele>
        <time>2021-04-18T12:40:36.387Z</time>
      </trkpt>
      <trkpt lat="43.09687" lon="0.4412">
        <ele>606.914913</ele>
        <time>2021-04-18T12:40:37.423Z</time>
      </trkpt>
      <trkpt lat="43.09677" lon="0.44118">
        <ele>606.543877</ele>
        <time>2021-04-18T12:40:38.433Z</time>
      </trkpt>
      <trkpt lat="43.09667" lon="0.44116">
        <ele>606.174632</ele>
        <time>2021-04-18T12:40:39.421Z</time>
      </trkpt>
      <trkpt lat="43.09658" lon="0.44116">
        <ele>605.825716</ele>
        <time>2021-04-18T12:40:40.417Z</time>
      </trkpt>
      <trkpt lat="43.09648" lon="0.44115">
        <ele>605.431986</ele>
        <time>2021-04-18T12:40:41.403Z</time>
      </trkpt>
      <trkpt lat="43.09631" lon="0.44113">
        <ele>604.471118</ele>
        <time>2021-04-18T12:40:43.408Z</time>
      </trkpt>
      <trkpt lat="43.09616" lon="0.44112">
        <ele>603.596514</ele>
        <time>2021-04-18T12:40:45.433Z</time>
      </trkpt>
      <trkpt lat="43.09601" lon="0.44109">
        <ele>602.737809</ele>
        <time>2021-04-18T12:40:47.427Z</time>
      </trkpt>
      <trkpt lat="43.09586" lon="0.44106">
        <ele>601.913931</ele>
        <time>2021-04-18T12:40:49.422Z</time>
      </trkpt>
      <trkpt lat="43.09573" lon="0.44104">
        <ele>601.166288</ele>
        <time>2021-04-18T12:40:51.414Z</time>
      </trkpt>
      <trkpt lat="43.09562" lon="0.44103">
        <ele>600.523133</ele>
        <time>2021-04-18T12:40:53.404Z</time>
      </trkpt>
      <trkpt lat="43.09552" lon="0.44102">
        <ele>599.933087</ele>
        <time>2021-04-18T12:40:55.415Z</time>
      </trkpt>
      <trkpt lat="43.09541" lon="0.44101">
        <ele>599.31251</ele>
        <time>2021-04-18T12:40:57.429Z</time>
      </trkpt>
      <trkpt lat="43.09529" lon="0.441">
        <ele>598.631033</ele>
        <time>2021-04-18T12:40:59.410Z</time>
      </trkpt>
      <trkpt lat="43.09517" lon="0.44099">
        <ele>597.988877</ele>
        <time>2021-04-18T12:41:01.430Z</time>
      </trkpt>
      <trkpt lat="43.09504" lon="0.44097">
        <ele>597.238064</ele>
        <time>2021-04-18T12:41:03.424Z</time>
      </trkpt>
      <trkpt lat="43.09491" lon="0.44096">
        <ele>596.499488</ele>
        <time>2021-04-18T12:41:05.409Z</time>
      </trkpt>
      <trkpt lat="43.09478" lon="0.44094">
        <ele>595.759614</ele>
        <time>2021-04-18T12:41:07.402Z</time>
      </trkpt>
      <trkpt lat="43.09466" lon="0.44093">
        <ele>595.271001</ele>
        <time>2021-04-18T12:41:09.427Z</time>
      </trkpt>
      <trkpt lat="43.09452" lon="0.44091">
        <ele>595.028729</ele>
        <time>2021-04-18T12:41:11.406Z</time>
      </trkpt>
      <trkpt lat="43.09438" lon="0.44089">
        <ele>594.769035</ele>
        <time>2021-04-18T12:41:13.402Z</time>
      </trkpt>
      <trkpt lat="43.09424" lon="0.44088">
        <ele>594.51497</ele>
        <time>2021-04-18T12:41:15.401Z</time>
      </trkpt>
      <trkpt lat="43.0941" lon="0.44088">
        <ele>594.281105</ele>
        <time>2021-04-18T12:41:17.418Z</time>
      </trkpt>
      <trkpt lat="43.094" lon="0.44088">
        <ele>594.088263</ele>
        <time>2021-04-18T12:41:19.420Z</time>
      </trkpt>
      <trkpt lat="43.0939" lon="0.44088">
        <ele>593.91676</ele>
        <time>2021-04-18T12:41:21.424Z</time>
      </trkpt>
      <trkpt lat="43.0938" lon="0.44085">
        <ele>593.734388</ele>
        <time>2021-04-18T12:41:23.408Z</time>
      </trkpt>
      <trkpt lat="43.09371" lon="0.44083">
        <ele>593.567195</ele>
        <time>2021-04-18T12:41:25.417Z</time>
      </trkpt>
      <trkpt lat="43.09361" lon="0.44082">
        <ele>593.400987</ele>
        <time>2021-04-18T12:41:27.449Z</time>
      </trkpt>
      <trkpt lat="43.0935" lon="0.44083">
        <ele>593.188484</ele>
        <time>2021-04-18T12:41:30.402Z</time>
      </trkpt>
      <trkpt lat="43.0934" lon="0.44081">
        <ele>593.012136</ele>
        <time>2021-04-18T12:41:32.438Z</time>
      </trkpt>
      <trkpt lat="43.0933" lon="0.44079">
        <ele>592.835619</ele>
        <time>2021-04-18T12:41:34.438Z</time>
      </trkpt>
      <trkpt lat="43.09318" lon="0.44076">
        <ele>592.624375</ele>
        <time>2021-04-18T12:41:37.411Z</time>
      </trkpt>
      <trkpt lat="43.09306" lon="0.44076">
        <ele>592.399406</ele>
        <time>2021-04-18T12:41:40.459Z</time>
      </trkpt>
      <trkpt lat="43.09293" lon="0.44075">
        <ele>592.170599</ele>
        <time>2021-04-18T12:41:43.421Z</time>
      </trkpt>
      <trkpt lat="43.0928" lon="0.44073">
        <ele>592.096244</ele>
        <time>2021-04-18T12:41:46.408Z</time>
      </trkpt>
      <trkpt lat="43.09271" lon="0.4407">
        <ele>592.040957</ele>
        <time>2021-04-18T12:41:50.401Z</time>
      </trkpt>
      <trkpt lat="43.0926" lon="0.44067">
        <ele>591.984063</ele>
        <time>2021-04-18T12:41:54.462Z</time>
      </trkpt>
      <trkpt lat="43.0925" lon="0.44065">
        <ele>591.926449</ele>
        <time>2021-04-18T12:41:57.427Z</time>
      </trkpt>
      <trkpt lat="43.0924" lon="0.44064">
        <ele>591.872798</ele>
        <time>2021-04-18T12:42:00.432Z</time>
      </trkpt>
      <trkpt lat="43.09228" lon="0.44063">
        <ele>591.804295</ele>
        <time>2021-04-18T12:42:03.408Z</time>
      </trkpt>
      <trkpt lat="43.09215" lon="0.44062">
        <ele>591.733125</ele>
        <time>2021-04-18T12:42:06.416Z</time>
      </trkpt>
      <trkpt lat="43.09202" lon="0.44061">
        <ele>591.662866</ele>
        <time>2021-04-18T12:42:09.454Z</time>
      </trkpt>
      <trkpt lat="43.09189" lon="0.4406">
        <ele>591.59327</ele>
        <time>2021-04-18T12:42:12.438Z</time>
      </trkpt>
      <trkpt lat="43.0918" lon="0.44058">
        <ele>591.542102</ele>
        <time>2021-04-18T12:42:14.391Z</time>
      </trkpt>
      <trkpt lat="43.0917" lon="0.44058">
        <ele>591.487359</ele>
        <time>2021-04-18T12:42:16.414Z</time>
      </trkpt>
      <trkpt lat="43.0916" lon="0.44057">
        <ele>591.434188</ele>
        <time>2021-04-18T12:42:18.426Z</time>
      </trkpt>
      <trkpt lat="43.0915" lon="0.44056">
        <ele>591.377742</ele>
        <time>2021-04-18T12:42:20.403Z</time>
      </trkpt>
      <trkpt lat="43.09139" lon="0.44054">
        <ele>591.317788</ele>
        <time>2021-04-18T12:42:22.442Z</time>
      </trkpt>
      <trkpt lat="43.09128" lon="0.44053">
        <ele>591.255257</ele>
        <time>2021-04-18T12:42:24.423Z</time>
      </trkpt>
      <trkpt lat="43.09115" lon="0.44052">
        <ele>591.186778</ele>
        <time>2021-04-18T12:42:26.392Z</time>
      </trkpt>
      <trkpt lat="43.09103" lon="0.4405">
        <ele>590.975739</ele>
        <time>2021-04-18T12:42:28.420Z</time>
      </trkpt>
      <trkpt lat="43.09091" lon="0.44048">
        <ele>590.755399</ele>
        <time>2021-04-18T12:42:30.420Z</time>
      </trkpt>
      <trkpt lat="43.09081" lon="0.44047">
        <ele>590.557556</ele>
        <time>2021-04-18T12:42:32.435Z</time>
      </trkpt>
      <trkpt lat="43.09071" lon="0.44045">
        <ele>590.370849</ele>
        <time>2021-04-18T12:42:34.431Z</time>
      </trkpt>
      <trkpt lat="43.09058" lon="0.44045">
        <ele>590.137596</ele>
        <time>2021-04-18T12:42:36.429Z</time>
      </trkpt>
      <trkpt lat="43.09045" lon="0.44044">
        <ele>589.896449</ele>
        <time>2021-04-18T12:42:38.427Z</time>
      </trkpt>
      <trkpt lat="43.09033" lon="0.44043">
        <ele>589.670493</ele>
        <time>2021-04-18T12:42:40.403Z</time>
      </trkpt>
      <trkpt lat="43.09021" lon="0.44041">
        <ele>589.433836</ele>
        <time>2021-04-18T12:42:42.441Z</time>
      </trkpt>
      <trkpt lat="43.09008" lon="0.44039">
        <ele>589.206276</ele>
        <time>2021-04-18T12:42:44.436Z</time>
      </trkpt>
      <trkpt lat="43.08997" lon="0.44037">
        <ele>588.982239</ele>
        <time>2021-04-18T12:42:46.467Z</time>
      </trkpt>
      <trkpt lat="43.08985" lon="0.44035">
        <ele>588.762861</ele>
        <time>2021-04-18T12:42:48.457Z</time>
      </trkpt>
      <trkpt lat="43.08973" lon="0.44034">
        <ele>588.5399</ele>
        <time>2021-04-18T12:42:50.396Z</time>
      </trkpt>
      <trkpt lat="43.08961" lon="0.44033">
        <ele>588.3232</ele>
        <time>2021-04-18T12:42:52.442Z</time>
      </trkpt>
      <trkpt lat="43.0895" lon="0.44032">
        <ele>588.113794</ele>
        <time>2021-04-18T12:42:54.443Z</time>
      </trkpt>
      <trkpt lat="43.08939" lon="0.44032">
        <ele>587.899195</ele>
        <time>2021-04-18T12:42:56.438Z</time>
      </trkpt>
      <trkpt lat="43.08926" lon="0.44031">
        <ele>587.855957</ele>
        <time>2021-04-18T12:42:58.461Z</time>
      </trkpt>
      <trkpt lat="43.08914" lon="0.44029">
        <ele>587.906686</ele>
        <time>2021-04-18T12:43:00.409Z</time>
      </trkpt>
      <trkpt lat="43.08901" lon="0.44028">
        <ele>587.956784</ele>
        <time>2021-04-18T12:43:02.383Z</time>
      </trkpt>
      <trkpt lat="43.08888" lon="0.44027">
        <ele>588.008923</ele>
        <time>2021-04-18T12:43:04.405Z</time>
      </trkpt>
      <trkpt lat="43.08875" lon="0.44025">
        <ele>588.06091</ele>
        <time>2021-04-18T12:43:06.458Z</time>
      </trkpt>
      <trkpt lat="43.08863" lon="0.44023">
        <ele>588.10922</ele>
        <time>2021-04-18T12:43:08.413Z</time>
      </trkpt>
      <trkpt lat="43.08852" lon="0.44022">
        <ele>588.154313</ele>
        <time>2021-04-18T12:43:10.427Z</time>
      </trkpt>
      <trkpt lat="43.08841" lon="0.4402">
        <ele>588.200233</ele>
        <time>2021-04-18T12:43:12.419Z</time>
      </trkpt>
      <trkpt lat="43.0883" lon="0.44019">
        <ele>588.243733</ele>
        <time>2021-04-18T12:43:14.472Z</time>
      </trkpt>
      <trkpt lat="43.08819" lon="0.44018">
        <ele>588.286229</ele>
        <time>2021-04-18T12:43:16.411Z</time>
      </trkpt>
      <trkpt lat="43.08809" lon="0.44018">
        <ele>588.327884</ele>
        <time>2021-04-18T12:43:18.428Z</time>
      </trkpt>
      <trkpt lat="43.08799" lon="0.44016">
        <ele>588.369703</ele>
        <time>2021-04-18T12:43:20.398Z</time>
      </trkpt>
      <trkpt lat="43.08789" lon="0.44015">
        <ele>588.409956</ele>
        <time>2021-04-18T12:43:22.406Z</time>
      </trkpt>
      <trkpt lat="43.08778" lon="0.44015">
        <ele>588.450811</ele>
        <time>2021-04-18T12:43:24.376Z</time>
      </trkpt>
      <trkpt lat="43.08769" lon="0.44015">
        <ele>588.490054</ele>
        <time>2021-04-18T12:43:26.410Z</time>
      </trkpt>
      <trkpt lat="43.08759" lon="0.44014">
        <ele>588.528168</ele>
        <time>2021-04-18T12:43:28.450Z</time>
      </trkpt>
      <trkpt lat="43.0875" lon="0.44012">
        <ele>588.680141</ele>
        <time>2021-04-18T12:43:30.411Z</time>
      </trkpt>
      <trkpt lat="43.08741" lon="0.44011">
        <ele>588.900068</ele>
        <time>2021-04-18T12:43:32.409Z</time>
      </trkpt>
      <trkpt lat="43.08727" lon="0.4401">
        <ele>589.226457</ele>
        <time>2021-04-18T12:43:35.400Z</time>
      </trkpt>
      <trkpt lat="43.08718" lon="0.4401">
        <ele>589.459948</ele>
        <time>2021-04-18T12:43:37.385Z</time>
      </trkpt>
      <trkpt lat="43.08705" lon="0.44009">
        <ele>589.779669</ele>
        <time>2021-04-18T12:43:40.398Z</time>
      </trkpt>
      <trkpt lat="43.08692" lon="0.44007">
        <ele>590.077921</ele>
        <time>2021-04-18T12:43:43.403Z</time>
      </trkpt>
      <trkpt lat="43.0868" lon="0.44005">
        <ele>590.371931</ele>
        <time>2021-04-18T12:43:46.409Z</time>
      </trkpt>
      <trkpt lat="43.08669" lon="0.44003">
        <ele>590.644225</ele>
        <time>2021-04-18T12:43:49.467Z</time>
      </trkpt>
      <trkpt lat="43.08659" lon="0.44001">
        <ele>590.901377</ele>
        <time>2021-04-18T12:43:52.399Z</time>
      </trkpt>
      <trkpt lat="43.08647" lon="0.44">
        <ele>591.183957</ele>
        <time>2021-04-18T12:43:55.412Z</time>
      </trkpt>
      <trkpt lat="43.08634" lon="0.44">
        <ele>591.500258</ele>
        <time>2021-04-18T12:43:58.431Z</time>
      </trkpt>
      <trkpt lat="43.08621" lon="0.43998">
        <ele>591.824555</ele>
        <time>2021-04-18T12:44:01.430Z</time>
      </trkpt>
      <trkpt lat="43.0861" lon="0.43997">
        <ele>592.081315</ele>
        <time>2021-04-18T12:44:03.400Z</time>
      </trkpt>
      <trkpt lat="43.08599" lon="0.43995">
        <ele>592.359165</ele>
        <time>2021-04-18T12:44:05.409Z</time>
      </trkpt>
      <trkpt lat="43.08589" lon="0.43993">
        <ele>592.614589</ele>
        <time>2021-04-18T12:44:07.403Z</time>
      </trkpt>
      <trkpt lat="43.08578" lon="0.43991">
        <ele>592.86786</ele>
        <time>2021-04-18T12:44:09.430Z</time>
      </trkpt>
      <trkpt lat="43.08568" lon="0.4399">
        <ele>593.009705</ele>
        <time>2021-04-18T12:44:11.446Z</time>
      </trkpt>
      <trkpt lat="43.08557" lon="0.43989">
        <ele>593.123729</ele>
        <time>2021-04-18T12:44:13.452Z</time>
      </trkpt>
      <trkpt lat="43.08546" lon="0.43989">
        <ele>593.244219</ele>
        <time>2021-04-18T12:44:15.413Z</time>
      </trkpt>
      <trkpt lat="43.08535" lon="0.43988">
        <ele>593.36591</ele>
        <time>2021-04-18T12:44:17.411Z</time>
      </trkpt>
      <trkpt lat="43.08523" lon="0.43986">
        <ele>593.494252</ele>
        <time>2021-04-18T12:44:19.403Z</time>
      </trkpt>
      <trkpt lat="43.08512" lon="0.43985">
        <ele>593.619412</ele>
        <time>2021-04-18T12:44:21.389Z</time>
      </trkpt>
      <trkpt lat="43.08503" lon="0.43984">
        <ele>593.720438</ele>
        <time>2021-04-18T12:44:23.441Z</time>
      </trkpt>
      <trkpt lat="43.08493" lon="0.43984">
        <ele>593.824674</ele>
        <time>2021-04-18T12:44:25.401Z</time>
      </trkpt>
      <trkpt lat="43.08483" lon="0.43983">
        <ele>593.933212</ele>
        <time>2021-04-18T12:44:27.412Z</time>
      </trkpt>
      <trkpt lat="43.08474" lon="0.43983">
        <ele>594.035366</ele>
        <time>2021-04-18T12:44:29.408Z</time>
      </trkpt>
      <trkpt lat="43.08464" lon="0.43981">
        <ele>594.140082</ele>
        <time>2021-04-18T12:44:31.399Z</time>
      </trkpt>
      <trkpt lat="43.08454" lon="0.4398">
        <ele>594.253356</ele>
        <time>2021-04-18T12:44:33.416Z</time>
      </trkpt>
      <trkpt lat="43.08443" lon="0.43979">
        <ele>594.36301</ele>
        <time>2021-04-18T12:44:35.405Z</time>
      </trkpt>
      <trkpt lat="43.08433" lon="0.43979">
        <ele>594.479111</ele>
        <time>2021-04-18T12:44:37.389Z</time>
      </trkpt>
      <trkpt lat="43.08422" lon="0.43978">
        <ele>594.596321</ele>
        <time>2021-04-18T12:44:39.404Z</time>
      </trkpt>
      <trkpt lat="43.08412" lon="0.43978">
        <ele>594.708044</ele>
        <time>2021-04-18T12:44:41.451Z</time>
      </trkpt>
      <trkpt lat="43.08402" lon="0.43977">
        <ele>594.811681</ele>
        <time>2021-04-18T12:44:43.409Z</time>
      </trkpt>
      <trkpt lat="43.08393" lon="0.43975">
        <ele>594.913941</ele>
        <time>2021-04-18T12:44:45.452Z</time>
      </trkpt>
      <trkpt lat="43.0838" lon="0.43973">
        <ele>595.068933</ele>
        <time>2021-04-18T12:44:48.397Z</time>
      </trkpt>
      <trkpt lat="43.08367" lon="0.43971">
        <ele>595.219065</ele>
        <time>2021-04-18T12:44:51.398Z</time>
      </trkpt>
      <trkpt lat="43.08355" lon="0.43969">
        <ele>595.365157</ele>
        <time>2021-04-18T12:44:54.410Z</time>
      </trkpt>
      <trkpt lat="43.08343" lon="0.43967">
        <ele>595.508097</ele>
        <time>2021-04-18T12:44:57.405Z</time>
      </trkpt>
      <trkpt lat="43.08329" lon="0.43966">
        <ele>595.667293</ele>
        <time>2021-04-18T12:45:00.401Z</time>
      </trkpt>
      <trkpt lat="43.0832" lon="0.43965">
        <ele>595.78057</ele>
        <time>2021-04-18T12:45:02.409Z</time>
      </trkpt>
      <trkpt lat="43.08307" lon="0.43965">
        <ele>595.928817</ele>
        <time>2021-04-18T12:45:05.387Z</time>
      </trkpt>
      <trkpt lat="43.08295" lon="0.43965">
        <ele>596.072313</ele>
        <time>2021-04-18T12:45:08.401Z</time>
      </trkpt>
      <trkpt lat="43.08281" lon="0.43965">
        <ele>596.232287</ele>
        <time>2021-04-18T12:45:11.407Z</time>
      </trkpt>
      <trkpt lat="43.08272" lon="0.43964">
        <ele>596.3489</ele>
        <time>2021-04-18T12:45:13.403Z</time>
      </trkpt>
      <trkpt lat="43.08259" lon="0.43963">
        <ele>596.5018</ele>
        <time>2021-04-18T12:45:16.403Z</time>
      </trkpt>
      <trkpt lat="43.08247" lon="0.43962">
        <ele>596.638979</ele>
        <time>2021-04-18T12:45:19.401Z</time>
      </trkpt>
      <trkpt lat="43.08237" lon="0.43961">
        <ele>596.759027</ele>
        <time>2021-04-18T12:45:22.446Z</time>
      </trkpt>
      <trkpt lat="43.08227" lon="0.43959">
        <ele>596.872619</ele>
        <time>2021-04-18T12:45:25.400Z</time>
      </trkpt>
      <trkpt lat="43.08218" lon="0.43956">
        <ele>596.982586</ele>
        <time>2021-04-18T12:45:28.405Z</time>
      </trkpt>
      <trkpt lat="43.08209" lon="0.43953">
        <ele>596.855309</ele>
        <time>2021-04-18T12:45:32.399Z</time>
      </trkpt>
      <trkpt lat="43.08198" lon="0.43949">
        <ele>596.701555</ele>
        <time>2021-04-18T12:45:37.415Z</time>
      </trkpt>
      <trkpt lat="43.08189" lon="0.43946">
        <ele>596.572923</ele>
        <time>2021-04-18T12:45:40.403Z</time>
      </trkpt>
      <trkpt lat="43.08178" lon="0.43944">
        <ele>596.418163</ele>
        <time>2021-04-18T12:45:43.403Z</time>
      </trkpt>
      <trkpt lat="43.08165" lon="0.43939">
        <ele>596.23036</ele>
        <time>2021-04-18T12:45:46.381Z</time>
      </trkpt>
      <trkpt lat="43.08155" lon="0.43936">
        <ele>596.100391</ele>
        <time>2021-04-18T12:45:48.415Z</time>
      </trkpt>
      <trkpt lat="43.08146" lon="0.43934">
        <ele>595.964929</ele>
        <time>2021-04-18T12:45:50.478Z</time>
      </trkpt>
      <trkpt lat="43.08136" lon="0.43931">
        <ele>595.828898</ele>
        <time>2021-04-18T12:45:52.436Z</time>
      </trkpt>
      <trkpt lat="43.08125" lon="0.43928">
        <ele>595.678596</ele>
        <time>2021-04-18T12:45:54.409Z</time>
      </trkpt>
      <trkpt lat="43.08114" lon="0.43926">
        <ele>595.522647</ele>
        <time>2021-04-18T12:45:56.434Z</time>
      </trkpt>
      <trkpt lat="43.08104" lon="0.43924">
        <ele>595.385122</ele>
        <time>2021-04-18T12:45:58.422Z</time>
      </trkpt>
      <trkpt lat="43.08094" lon="0.43922">
        <ele>595.245151</ele>
        <time>2021-04-18T12:46:00.414Z</time>
      </trkpt>
      <trkpt lat="43.08084" lon="0.4392">
        <ele>595.102041</ele>
        <time>2021-04-18T12:46:02.421Z</time>
      </trkpt>
      <trkpt lat="43.08073" lon="0.43918">
        <ele>594.956212</ele>
        <time>2021-04-18T12:46:04.416Z</time>
      </trkpt>
      <trkpt lat="43.08063" lon="0.43915">
        <ele>594.81633</ele>
        <time>2021-04-18T12:46:06.419Z</time>
      </trkpt>
      <trkpt lat="43.08053" lon="0.43912">
        <ele>594.67182</ele>
        <time>2021-04-18T12:46:08.428Z</time>
      </trkpt>
      <trkpt lat="43.08043" lon="0.43908">
        <ele>594.531305</ele>
        <time>2021-04-18T12:46:10.412Z</time>
      </trkpt>
      <trkpt lat="43.08033" lon="0.43905">
        <ele>594.612099</ele>
        <time>2021-04-18T12:46:12.402Z</time>
      </trkpt>
      <trkpt lat="43.08023" lon="0.43904">
        <ele>594.735462</ele>
        <time>2021-04-18T12:46:14.388Z</time>
      </trkpt>
      <trkpt lat="43.08012" lon="0.43901">
        <ele>594.859673</ele>
        <time>2021-04-18T12:46:16.404Z</time>
      </trkpt>
      <trkpt lat="43.08002" lon="0.43899">
        <ele>594.979007</ele>
        <time>2021-04-18T12:46:18.406Z</time>
      </trkpt>
      <trkpt lat="43.07993" lon="0.43898">
        <ele>595.090117</ele>
        <time>2021-04-18T12:46:20.380Z</time>
      </trkpt>
      <trkpt lat="43.07984" lon="0.43895">
        <ele>595.197503</ele>
        <time>2021-04-18T12:46:22.403Z</time>
      </trkpt>
      <trkpt lat="43.07974" lon="0.43892">
        <ele>595.316528</ele>
        <time>2021-04-18T12:46:24.404Z</time>
      </trkpt>
      <trkpt lat="43.07964" lon="0.43889">
        <ele>595.441559</ele>
        <time>2021-04-18T12:46:26.407Z</time>
      </trkpt>
      <trkpt lat="43.07954" lon="0.43884">
        <ele>595.561598</ele>
        <time>2021-04-18T12:46:28.404Z</time>
      </trkpt>
      <trkpt lat="43.07946" lon="0.43878">
        <ele>595.668821</ele>
        <time>2021-04-18T12:46:30.404Z</time>
      </trkpt>
      <trkpt lat="43.07937" lon="0.4387">
        <ele>595.789499</ele>
        <time>2021-04-18T12:46:32.403Z</time>
      </trkpt>
      <trkpt lat="43.07927" lon="0.43859">
        <ele>595.942395</ele>
        <time>2021-04-18T12:46:34.396Z</time>
      </trkpt>
      <trkpt lat="43.07916" lon="0.43846">
        <ele>596.110105</ele>
        <time>2021-04-18T12:46:36.398Z</time>
      </trkpt>
      <trkpt lat="43.07906" lon="0.43835">
        <ele>596.261374</ele>
        <time>2021-04-18T12:46:38.398Z</time>
      </trkpt>
      <trkpt lat="43.07896" lon="0.43826">
        <ele>596.401312</ele>
        <time>2021-04-18T12:46:40.424Z</time>
      </trkpt>
      <trkpt lat="43.07886" lon="0.43822">
        <ele>596.529886</ele>
        <time>2021-04-18T12:46:42.391Z</time>
      </trkpt>
      <trkpt lat="43.07874" lon="0.43825">
        <ele>596.430839</ele>
        <time>2021-04-18T12:46:44.399Z</time>
      </trkpt>
      <trkpt lat="43.07864" lon="0.43834">
        <ele>595.988289</ele>
        <time>2021-04-18T12:46:46.429Z</time>
      </trkpt>
      <trkpt lat="43.07856" lon="0.43844">
        <ele>595.578676</ele>
        <time>2021-04-18T12:46:48.393Z</time>
      </trkpt>
      <trkpt lat="43.07844" lon="0.43847">
        <ele>595.133279</ele>
        <time>2021-04-18T12:46:50.394Z</time>
      </trkpt>
      <trkpt lat="43.07832" lon="0.43847">
        <ele>594.676401</ele>
        <time>2021-04-18T12:46:52.404Z</time>
      </trkpt>
      <trkpt lat="43.0782" lon="0.43847">
        <ele>594.223122</ele>
        <time>2021-04-18T12:46:54.439Z</time>
      </trkpt>
      <trkpt lat="43.0781" lon="0.43846">
        <ele>593.826341</ele>
        <time>2021-04-18T12:46:56.400Z</time>
      </trkpt>
      <trkpt lat="43.07799" lon="0.43845">
        <ele>593.439813</ele>
        <time>2021-04-18T12:46:58.402Z</time>
      </trkpt>
      <trkpt lat="43.07789" lon="0.43842">
        <ele>593.046487</ele>
        <time>2021-04-18T12:47:00.417Z</time>
      </trkpt>
      <trkpt lat="43.07779" lon="0.43839">
        <ele>592.646459</ele>
        <time>2021-04-18T12:47:02.409Z</time>
      </trkpt>
      <trkpt lat="43.0777" lon="0.43836">
        <ele>592.292856</ele>
        <time>2021-04-18T12:47:04.437Z</time>
      </trkpt>
      <trkpt lat="43.0776" lon="0.43829">
        <ele>591.876898</ele>
        <time>2021-04-18T12:47:06.409Z</time>
      </trkpt>
      <trkpt lat="43.0775" lon="0.43818">
        <ele>591.377313</ele>
        <time>2021-04-18T12:47:08.444Z</time>
      </trkpt>
      <trkpt lat="43.07739" lon="0.43806">
        <ele>590.870234</ele>
        <time>2021-04-18T12:47:10.423Z</time>
      </trkpt>
      <trkpt lat="43.0773" lon="0.43796">
        <ele>590.438163</ele>
        <time>2021-04-18T12:47:12.413Z</time>
      </trkpt>
      <trkpt lat="43.07723" lon="0.43789">
        <ele>590.090541</ele>
        <time>2021-04-18T12:47:14.398Z</time>
      </trkpt>
      <trkpt lat="43.07712" lon="0.43786">
        <ele>589.475619</ele>
        <time>2021-04-18T12:47:18.420Z</time>
      </trkpt>
      <trkpt lat="43.07709" lon="0.43799">
        <ele>588.546857</ele>
        <time>2021-04-18T12:47:20.399Z</time>
      </trkpt>
      <trkpt lat="43.07705" lon="0.43818">
        <ele>587.178672</ele>
        <time>2021-04-18T12:47:22.423Z</time>
      </trkpt>
      <trkpt lat="43.07702" lon="0.43839">
        <ele>585.736011</ele>
        <time>2021-04-18T12:47:24.453Z</time>
      </trkpt>
      <trkpt lat="43.077" lon="0.43859">
        <ele>584.363353</ele>
        <time>2021-04-18T12:47:26.412Z</time>
      </trkpt>
      <trkpt lat="43.07699" lon="0.43877">
        <ele>583.183275</ele>
        <time>2021-04-18T12:47:28.420Z</time>
      </trkpt>
      <trkpt lat="43.07698" lon="0.43893">
        <ele>582.114035</ele>
        <time>2021-04-18T12:47:30.430Z</time>
      </trkpt>
      <trkpt lat="43.07694" lon="0.43909">
        <ele>580.930159</ele>
        <time>2021-04-18T12:47:32.417Z</time>
      </trkpt>
      <trkpt lat="43.0769" lon="0.43928">
        <ele>579.638455</ele>
        <time>2021-04-18T12:47:34.403Z</time>
      </trkpt>
      <trkpt lat="43.07687" lon="0.43947">
        <ele>578.301058</ele>
        <time>2021-04-18T12:47:36.407Z</time>
      </trkpt>
      <trkpt lat="43.07684" lon="0.43966">
        <ele>576.992091</ele>
        <time>2021-04-18T12:47:38.400Z</time>
      </trkpt>
      <trkpt lat="43.0768" lon="0.43983">
        <ele>575.803373</ele>
        <time>2021-04-18T12:47:40.395Z</time>
      </trkpt>
      <trkpt lat="43.07679" lon="0.43999">
        <ele>574.744472</ele>
        <time>2021-04-18T12:47:42.408Z</time>
      </trkpt>
      <trkpt lat="43.07679" lon="0.44014">
        <ele>573.705411</ele>
        <time>2021-04-18T12:47:44.417Z</time>
      </trkpt>
      <trkpt lat="43.07678" lon="0.44031">
        <ele>572.46733</ele>
        <time>2021-04-18T12:47:46.422Z</time>
      </trkpt>
      <trkpt lat="43.07679" lon="0.4405">
        <ele>571.094036</ele>
        <time>2021-04-18T12:47:48.388Z</time>
      </trkpt>
      <trkpt lat="43.07682" lon="0.44067">
        <ele>569.741715</ele>
        <time>2021-04-18T12:47:50.410Z</time>
      </trkpt>
      <trkpt lat="43.07685" lon="0.44083">
        <ele>568.531144</ele>
        <time>2021-04-18T12:47:52.428Z</time>
      </trkpt>
      <trkpt lat="43.07686" lon="0.44097">
        <ele>567.512989</ele>
        <time>2021-04-18T12:47:54.407Z</time>
      </trkpt>
      <trkpt lat="43.07687" lon="0.44109">
        <ele>566.562548</ele>
        <time>2021-04-18T12:47:56.405Z</time>
      </trkpt>
      <trkpt lat="43.07687" lon="0.44126">
        <ele>565.36207</ele>
        <time>2021-04-18T12:47:58.415Z</time>
      </trkpt>
      <trkpt lat="43.07687" lon="0.44144">
        <ele>564.005018</ele>
        <time>2021-04-18T12:48:00.419Z</time>
      </trkpt>
      <trkpt lat="43.07685" lon="0.44165">
        <ele>562.437971</ele>
        <time>2021-04-18T12:48:02.444Z</time>
      </trkpt>
      <trkpt lat="43.07685" lon="0.44184">
        <ele>561.013267</ele>
        <time>2021-04-18T12:48:04.421Z</time>
      </trkpt>
      <trkpt lat="43.07686" lon="0.44202">
        <ele>559.670196</ele>
        <time>2021-04-18T12:48:06.437Z</time>
      </trkpt>
      <trkpt lat="43.07684" lon="0.44221">
        <ele>558.218154</ele>
        <time>2021-04-18T12:48:08.419Z</time>
      </trkpt>
      <trkpt lat="43.07681" lon="0.4424">
        <ele>556.806149</ele>
        <time>2021-04-18T12:48:10.403Z</time>
      </trkpt>
      <trkpt lat="43.07679" lon="0.44258">
        <ele>555.442725</ele>
        <time>2021-04-18T12:48:12.412Z</time>
      </trkpt>
      <trkpt lat="43.07677" lon="0.44273">
        <ele>554.378388</ele>
        <time>2021-04-18T12:48:14.419Z</time>
      </trkpt>
      <trkpt lat="43.07676" lon="0.44287">
        <ele>553.568266</ele>
        <time>2021-04-18T12:48:16.412Z</time>
      </trkpt>
      <trkpt lat="43.07674" lon="0.443">
        <ele>552.789704</ele>
        <time>2021-04-18T12:48:18.397Z</time>
      </trkpt>
      <trkpt lat="43.07669" lon="0.4431">
        <ele>552.06445</ele>
        <time>2021-04-18T12:48:20.420Z</time>
      </trkpt>
      <trkpt lat="43.07662" lon="0.44319">
        <ele>551.278323</ele>
        <time>2021-04-18T12:48:22.423Z</time>
      </trkpt>
      <trkpt lat="43.07649" lon="0.44322">
        <ele>550.251107</ele>
        <time>2021-04-18T12:48:24.447Z</time>
      </trkpt>
      <trkpt lat="43.07633" lon="0.44324">
        <ele>548.942173</ele>
        <time>2021-04-18T12:48:26.412Z</time>
      </trkpt>
      <trkpt lat="43.0762" lon="0.44329">
        <ele>547.851477</ele>
        <time>2021-04-18T12:48:28.453Z</time>
      </trkpt>
      <trkpt lat="43.07611" lon="0.4434">
        <ele>546.875901</ele>
        <time>2021-04-18T12:48:30.400Z</time>
      </trkpt>
      <trkpt lat="43.07604" lon="0.44357">
        <ele>545.716856</ele>
        <time>2021-04-18T12:48:32.419Z</time>
      </trkpt>
      <trkpt lat="43.076" lon="0.44376">
        <ele>544.549717</ele>
        <time>2021-04-18T12:48:34.392Z</time>
      </trkpt>
      <trkpt lat="43.07597" lon="0.44394">
        <ele>543.460935</ele>
        <time>2021-04-18T12:48:36.386Z</time>
      </trkpt>
      <trkpt lat="43.07595" lon="0.4441">
        <ele>542.471679</ele>
        <time>2021-04-18T12:48:38.388Z</time>
      </trkpt>
      <trkpt lat="43.07592" lon="0.44427">
        <ele>541.472951</ele>
        <time>2021-04-18T12:48:40.430Z</time>
      </trkpt>
      <trkpt lat="43.07588" lon="0.44443">
        <ele>540.429736</ele>
        <time>2021-04-18T12:48:42.412Z</time>
      </trkpt>
      <trkpt lat="43.07584" lon="0.4446">
        <ele>540.235602</ele>
        <time>2021-04-18T12:48:44.400Z</time>
      </trkpt>
      <trkpt lat="43.07579" lon="0.44478">
        <ele>540.152888</ele>
        <time>2021-04-18T12:48:46.422Z</time>
      </trkpt>
      <trkpt lat="43.07574" lon="0.44495">
        <ele>540.068251</ele>
        <time>2021-04-18T12:48:48.392Z</time>
      </trkpt>
      <trkpt lat="43.07569" lon="0.44512">
        <ele>539.986069</ele>
        <time>2021-04-18T12:48:50.430Z</time>
      </trkpt>
      <trkpt lat="43.07564" lon="0.44528">
        <ele>539.907603</ele>
        <time>2021-04-18T12:48:52.425Z</time>
      </trkpt>
      <trkpt lat="43.07559" lon="0.44543">
        <ele>539.833897</ele>
        <time>2021-04-18T12:48:54.460Z</time>
      </trkpt>
      <trkpt lat="43.07554" lon="0.44556">
        <ele>539.765983</ele>
        <time>2021-04-18T12:48:56.398Z</time>
      </trkpt>
      <trkpt lat="43.07549" lon="0.44569">
        <ele>539.699015</ele>
        <time>2021-04-18T12:48:58.397Z</time>
      </trkpt>
      <trkpt lat="43.07543" lon="0.44582">
        <ele>539.630261</ele>
        <time>2021-04-18T12:49:00.401Z</time>
      </trkpt>
      <trkpt lat="43.07536" lon="0.44595">
        <ele>539.55897</ele>
        <time>2021-04-18T12:49:02.392Z</time>
      </trkpt>
      <trkpt lat="43.07529" lon="0.44608">
        <ele>539.485665</ele>
        <time>2021-04-18T12:49:04.397Z</time>
      </trkpt>
      <trkpt lat="43.07521" lon="0.4462">
        <ele>539.411958</ele>
        <time>2021-04-18T12:49:06.404Z</time>
      </trkpt>
      <trkpt lat="43.07514" lon="0.44632">
        <ele>539.339837</ele>
        <time>2021-04-18T12:49:08.414Z</time>
      </trkpt>
      <trkpt lat="43.07507" lon="0.44645">
        <ele>539.26925</ele>
        <time>2021-04-18T12:49:10.427Z</time>
      </trkpt>
      <trkpt lat="43.07499" lon="0.44657">
        <ele>539.19856</ele>
        <time>2021-04-18T12:49:12.424Z</time>
      </trkpt>
      <trkpt lat="43.07493" lon="0.4467">
        <ele>539.341373</ele>
        <time>2021-04-18T12:49:14.429Z</time>
      </trkpt>
      <trkpt lat="43.07488" lon="0.44684">
        <ele>539.478715</ele>
        <time>2021-04-18T12:49:16.429Z</time>
      </trkpt>
      <trkpt lat="43.07484" lon="0.44697">
        <ele>539.612007</ele>
        <time>2021-04-18T12:49:18.399Z</time>
      </trkpt>
      <trkpt lat="43.0748" lon="0.44712">
        <ele>539.748335</ele>
        <time>2021-04-18T12:49:20.409Z</time>
      </trkpt>
      <trkpt lat="43.07477" lon="0.44726">
        <ele>539.883209</ele>
        <time>2021-04-18T12:49:22.428Z</time>
      </trkpt>
      <trkpt lat="43.07474" lon="0.4474">
        <ele>540.015234</ele>
        <time>2021-04-18T12:49:24.394Z</time>
      </trkpt>
      <trkpt lat="43.07471" lon="0.44755">
        <ele>540.155019</ele>
        <time>2021-04-18T12:49:26.397Z</time>
      </trkpt>
      <trkpt lat="43.07468" lon="0.44769">
        <ele>540.293612</ele>
        <time>2021-04-18T12:49:28.401Z</time>
      </trkpt>
      <trkpt lat="43.07464" lon="0.44785">
        <ele>540.445202</ele>
        <time>2021-04-18T12:49:30.427Z</time>
      </trkpt>
      <trkpt lat="43.0746" lon="0.44802">
        <ele>540.604915</ele>
        <time>2021-04-18T12:49:32.396Z</time>
      </trkpt>
      <trkpt lat="43.07456" lon="0.44817">
        <ele>540.756118</ele>
        <time>2021-04-18T12:49:34.424Z</time>
      </trkpt>
      <trkpt lat="43.07451" lon="0.44833">
        <ele>540.905269</ele>
        <time>2021-04-18T12:49:36.429Z</time>
      </trkpt>
      <trkpt lat="43.07446" lon="0.44848">
        <ele>541.05227</ele>
        <time>2021-04-18T12:49:38.392Z</time>
      </trkpt>
      <trkpt lat="43.07441" lon="0.44862">
        <ele>541.196828</ele>
        <time>2021-04-18T12:49:40.408Z</time>
      </trkpt>
      <trkpt lat="43.07436" lon="0.44877">
        <ele>541.347881</ele>
        <time>2021-04-18T12:49:42.422Z</time>
      </trkpt>
      <trkpt lat="43.07431" lon="0.44893">
        <ele>541.399326</ele>
        <time>2021-04-18T12:49:44.374Z</time>
      </trkpt>
      <trkpt lat="43.07426" lon="0.44909">
        <ele>541.341651</ele>
        <time>2021-04-18T12:49:46.450Z</time>
      </trkpt>
      <trkpt lat="43.07421" lon="0.44924">
        <ele>541.283022</ele>
        <time>2021-04-18T12:49:48.422Z</time>
      </trkpt>
      <trkpt lat="43.07416" lon="0.44939">
        <ele>541.224905</ele>
        <time>2021-04-18T12:49:50.398Z</time>
      </trkpt>
      <trkpt lat="43.07411" lon="0.44954">
        <ele>541.168753</ele>
        <time>2021-04-18T12:49:52.392Z</time>
      </trkpt>
      <trkpt lat="43.07406" lon="0.44969">
        <ele>541.114628</ele>
        <time>2021-04-18T12:49:54.411Z</time>
      </trkpt>
      <trkpt lat="43.07402" lon="0.44983">
        <ele>541.062007</ele>
        <time>2021-04-18T12:49:56.411Z</time>
      </trkpt>
      <trkpt lat="43.07398" lon="0.44997">
        <ele>541.009206</ele>
        <time>2021-04-18T12:49:58.432Z</time>
      </trkpt>
      <trkpt lat="43.07393" lon="0.45011">
        <ele>540.956666</ele>
        <time>2021-04-18T12:50:00.437Z</time>
      </trkpt>
      <trkpt lat="43.07389" lon="0.45025">
        <ele>540.902725</ele>
        <time>2021-04-18T12:50:02.412Z</time>
      </trkpt>
      <trkpt lat="43.07385" lon="0.45039">
        <ele>540.84974</ele>
        <time>2021-04-18T12:50:04.413Z</time>
      </trkpt>
      <trkpt lat="43.0738" lon="0.45053">
        <ele>540.797336</ele>
        <time>2021-04-18T12:50:06.397Z</time>
      </trkpt>
      <trkpt lat="43.07376" lon="0.45067">
        <ele>540.745035</ele>
        <time>2021-04-18T12:50:08.412Z</time>
      </trkpt>
      <trkpt lat="43.07371" lon="0.4508">
        <ele>540.694069</ele>
        <time>2021-04-18T12:50:10.395Z</time>
      </trkpt>
      <trkpt lat="43.07366" lon="0.45095">
        <ele>540.638868</ele>
        <time>2021-04-18T12:50:12.416Z</time>
      </trkpt>
      <trkpt lat="43.07361" lon="0.45109">
        <ele>540.583099</ele>
        <time>2021-04-18T12:50:14.430Z</time>
      </trkpt>
      <trkpt lat="43.07356" lon="0.45124">
        <ele>540.573322</ele>
        <time>2021-04-18T12:50:16.431Z</time>
      </trkpt>
      <trkpt lat="43.07352" lon="0.45139">
        <ele>540.567387</ele>
        <time>2021-04-18T12:50:18.413Z</time>
      </trkpt>
      <trkpt lat="43.07347" lon="0.45152">
        <ele>540.5617</ele>
        <time>2021-04-18T12:50:20.413Z</time>
      </trkpt>
      <trkpt lat="43.07342" lon="0.45166">
        <ele>540.556225</ele>
        <time>2021-04-18T12:50:22.377Z</time>
      </trkpt>
      <trkpt lat="43.07337" lon="0.45179">
        <ele>540.55084</ele>
        <time>2021-04-18T12:50:24.392Z</time>
      </trkpt>
      <trkpt lat="43.07333" lon="0.45191">
        <ele>540.545608</ele>
        <time>2021-04-18T12:50:26.397Z</time>
      </trkpt>
      <trkpt lat="43.07329" lon="0.45204">
        <ele>540.540418</ele>
        <time>2021-04-18T12:50:28.375Z</time>
      </trkpt>
      <trkpt lat="43.07326" lon="0.45217">
        <ele>540.53534</ele>
        <time>2021-04-18T12:50:30.419Z</time>
      </trkpt>
      <trkpt lat="43.07323" lon="0.4523">
        <ele>540.530277</ele>
        <time>2021-04-18T12:50:32.424Z</time>
      </trkpt>
      <trkpt lat="43.0732" lon="0.45243">
        <ele>540.525266</ele>
        <time>2021-04-18T12:50:34.414Z</time>
      </trkpt>
      <trkpt lat="43.07317" lon="0.45257">
        <ele>540.519952</ele>
        <time>2021-04-18T12:50:36.401Z</time>
      </trkpt>
      <trkpt lat="43.07314" lon="0.45271">
        <ele>540.514255</ele>
        <time>2021-04-18T12:50:38.412Z</time>
      </trkpt>
      <trkpt lat="43.0731" lon="0.45286">
        <ele>540.508526</ele>
        <time>2021-04-18T12:50:40.399Z</time>
      </trkpt>
      <trkpt lat="43.07307" lon="0.453">
        <ele>540.502868</ele>
        <time>2021-04-18T12:50:42.414Z</time>
      </trkpt>
      <trkpt lat="43.07303" lon="0.45314">
        <ele>540.497471</ele>
        <time>2021-04-18T12:50:44.426Z</time>
      </trkpt>
      <trkpt lat="43.07299" lon="0.45327">
        <ele>540.492147</ele>
        <time>2021-04-18T12:50:46.429Z</time>
      </trkpt>
      <trkpt lat="43.07295" lon="0.4534">
        <ele>540.487236</ele>
        <time>2021-04-18T12:50:48.414Z</time>
      </trkpt>
      <trkpt lat="43.07292" lon="0.45351">
        <ele>540.491225</ele>
        <time>2021-04-18T12:50:50.377Z</time>
      </trkpt>
      <trkpt lat="43.07288" lon="0.45365">
        <ele>540.496048</ele>
        <time>2021-04-18T12:50:53.404Z</time>
      </trkpt>
      <trkpt lat="43.07278" lon="0.45398">
        <ele>540.507709</ele>
        <time>2021-04-18T13:08:30.410Z</time>
      </trkpt>
      <trkpt lat="43.07274" lon="0.45411">
        <ele>540.512335</ele>
        <time>2021-04-18T13:08:33.428Z</time>
      </trkpt>
      <trkpt lat="43.07271" lon="0.45425">
        <ele>540.517282</ele>
        <time>2021-04-18T13:08:36.413Z</time>
      </trkpt>
      <trkpt lat="43.07266" lon="0.45439">
        <ele>540.52206</ele>
        <time>2021-04-18T13:08:39.395Z</time>
      </trkpt>
      <trkpt lat="43.07262" lon="0.45452">
        <ele>540.526771</ele>
        <time>2021-04-18T13:08:42.396Z</time>
      </trkpt>
      <trkpt lat="43.07258" lon="0.45464">
        <ele>540.531031</ele>
        <time>2021-04-18T13:08:45.396Z</time>
      </trkpt>
      <trkpt lat="43.07254" lon="0.45478">
        <ele>540.535961</ele>
        <time>2021-04-18T13:08:48.429Z</time>
      </trkpt>
      <trkpt lat="43.07251" lon="0.45492">
        <ele>540.540862</ele>
        <time>2021-04-18T13:08:51.413Z</time>
      </trkpt>
      <trkpt lat="43.07248" lon="0.45507">
        <ele>540.545866</ele>
        <time>2021-04-18T13:08:54.432Z</time>
      </trkpt>
      <trkpt lat="43.07245" lon="0.45521">
        <ele>540.550504</ele>
        <time>2021-04-18T13:08:57.427Z</time>
      </trkpt>
      <trkpt lat="43.07241" lon="0.45532">
        <ele>540.554676</ele>
        <time>2021-04-18T13:09:00.397Z</time>
      </trkpt>
      <trkpt lat="43.07237" lon="0.45545">
        <ele>540.559315</ele>
        <time>2021-04-18T13:09:03.426Z</time>
      </trkpt>
      <trkpt lat="43.07234" lon="0.45559">
        <ele>540.563933</ele>
        <time>2021-04-18T13:09:06.399Z</time>
      </trkpt>
      <trkpt lat="43.07232" lon="0.45573">
        <ele>540.546228</ele>
        <time>2021-04-18T13:09:09.430Z</time>
      </trkpt>
      <trkpt lat="43.0723" lon="0.45586">
        <ele>540.460762</ele>
        <time>2021-04-18T13:09:12.379Z</time>
      </trkpt>
      <trkpt lat="43.07227" lon="0.456">
        <ele>540.36966</ele>
        <time>2021-04-18T13:09:15.433Z</time>
      </trkpt>
      <trkpt lat="43.07226" lon="0.45616">
        <ele>540.273694</ele>
        <time>2021-04-18T13:09:18.395Z</time>
      </trkpt>
      <trkpt lat="43.07224" lon="0.45631">
        <ele>540.175489</ele>
        <time>2021-04-18T13:09:21.415Z</time>
      </trkpt>
      <trkpt lat="43.07222" lon="0.45647">
        <ele>540.075313</ele>
        <time>2021-04-18T13:09:24.383Z</time>
      </trkpt>
      <trkpt lat="43.07221" lon="0.45663">
        <ele>539.974293</ele>
        <time>2021-04-18T13:09:27.396Z</time>
      </trkpt>
      <trkpt lat="43.0722" lon="0.4568">
        <ele>539.87094</ele>
        <time>2021-04-18T13:09:30.414Z</time>
      </trkpt>
      <trkpt lat="43.0722" lon="0.45697">
        <ele>539.762873</ele>
        <time>2021-04-18T13:09:33.415Z</time>
      </trkpt>
      <trkpt lat="43.07221" lon="0.45715">
        <ele>539.654503</ele>
        <time>2021-04-18T13:09:36.401Z</time>
      </trkpt>
      <trkpt lat="43.07223" lon="0.45727">
        <ele>539.576319</ele>
        <time>2021-04-18T13:09:38.430Z</time>
      </trkpt>
      <trkpt lat="43.07225" lon="0.45741">
        <ele>539.492334</ele>
        <time>2021-04-18T13:09:40.401Z</time>
      </trkpt>
      <trkpt lat="43.07227" lon="0.45754">
        <ele>539.403452</ele>
        <time>2021-04-18T13:09:42.413Z</time>
      </trkpt>
      <trkpt lat="43.0723" lon="0.45768">
        <ele>539.314889</ele>
        <time>2021-04-18T13:09:44.407Z</time>
      </trkpt>
      <trkpt lat="43.07233" lon="0.45781">
        <ele>539.229304</ele>
        <time>2021-04-18T13:09:46.418Z</time>
      </trkpt>
      <trkpt lat="43.07236" lon="0.45795">
        <ele>539.143124</ele>
        <time>2021-04-18T13:09:48.460Z</time>
      </trkpt>
      <trkpt lat="43.07239" lon="0.45808">
        <ele>539.055619</ele>
        <time>2021-04-18T13:09:50.451Z</time>
      </trkpt>
      <trkpt lat="43.07241" lon="0.45822">
        <ele>539.005258</ele>
        <time>2021-04-18T13:09:52.408Z</time>
      </trkpt>
      <trkpt lat="43.07242" lon="0.45834">
        <ele>538.966846</ele>
        <time>2021-04-18T13:09:54.405Z</time>
      </trkpt>
      <trkpt lat="43.07244" lon="0.45847">
        <ele>538.928703</ele>
        <time>2021-04-18T13:09:56.407Z</time>
      </trkpt>
      <trkpt lat="43.07245" lon="0.45859">
        <ele>538.889838</ele>
        <time>2021-04-18T13:09:58.408Z</time>
      </trkpt>
      <trkpt lat="43.07246" lon="0.45872">
        <ele>538.850903</ele>
        <time>2021-04-18T13:10:00.422Z</time>
      </trkpt>
      <trkpt lat="43.07247" lon="0.45885">
        <ele>538.811319</ele>
        <time>2021-04-18T13:10:02.448Z</time>
      </trkpt>
      <trkpt lat="43.07247" lon="0.45899">
        <ele>538.771388</ele>
        <time>2021-04-18T13:10:04.413Z</time>
      </trkpt>
      <trkpt lat="43.07248" lon="0.45912">
        <ele>538.730251</ele>
        <time>2021-04-18T13:10:06.408Z</time>
      </trkpt>
      <trkpt lat="43.07248" lon="0.45926">
        <ele>538.689717</ele>
        <time>2021-04-18T13:10:08.403Z</time>
      </trkpt>
      <trkpt lat="43.07249" lon="0.45938">
        <ele>538.651898</ele>
        <time>2021-04-18T13:10:10.405Z</time>
      </trkpt>
      <trkpt lat="43.07249" lon="0.4595">
        <ele>538.614355</ele>
        <time>2021-04-18T13:10:12.397Z</time>
      </trkpt>
      <trkpt lat="43.07251" lon="0.45968">
        <ele>538.559925</ele>
        <time>2021-04-18T13:10:15.424Z</time>
      </trkpt>
      <trkpt lat="43.07252" lon="0.45987">
        <ele>538.504495</ele>
        <time>2021-04-18T13:10:18.408Z</time>
      </trkpt>
      <trkpt lat="43.07254" lon="0.45999">
        <ele>538.465395</ele>
        <time>2021-04-18T13:10:20.406Z</time>
      </trkpt>
      <trkpt lat="43.07255" lon="0.46012">
        <ele>538.425645</ele>
        <time>2021-04-18T13:10:22.406Z</time>
      </trkpt>
      <trkpt lat="43.07256" lon="0.46026">
        <ele>538.383751</ele>
        <time>2021-04-18T13:10:24.425Z</time>
      </trkpt>
      <trkpt lat="43.07257" lon="0.4604">
        <ele>538.341241</ele>
        <time>2021-04-18T13:10:26.409Z</time>
      </trkpt>
      <trkpt lat="43.07259" lon="0.46054">
        <ele>538.29852</ele>
        <time>2021-04-18T13:10:28.419Z</time>
      </trkpt>
      <trkpt lat="43.07262" lon="0.46068">
        <ele>538.295589</ele>
        <time>2021-04-18T13:10:30.430Z</time>
      </trkpt>
      <trkpt lat="43.07265" lon="0.46081">
        <ele>538.296496</ele>
        <time>2021-04-18T13:10:32.422Z</time>
      </trkpt>
      <trkpt lat="43.07268" lon="0.46094">
        <ele>538.297377</ele>
        <time>2021-04-18T13:10:34.405Z</time>
      </trkpt>
      <trkpt lat="43.07271" lon="0.46106">
        <ele>538.298214</ele>
        <time>2021-04-18T13:10:36.405Z</time>
      </trkpt>
      <trkpt lat="43.07274" lon="0.46118">
        <ele>538.299055</ele>
        <time>2021-04-18T13:10:38.406Z</time>
      </trkpt>
      <trkpt lat="43.07276" lon="0.46132">
        <ele>538.299943</ele>
        <time>2021-04-18T13:10:40.404Z</time>
      </trkpt>
      <trkpt lat="43.0728" lon="0.46143">
        <ele>538.300755</ele>
        <time>2021-04-18T13:10:42.381Z</time>
      </trkpt>
      <trkpt lat="43.07282" lon="0.46155">
        <ele>538.301584</ele>
        <time>2021-04-18T13:10:44.418Z</time>
      </trkpt>
      <trkpt lat="43.07284" lon="0.46168">
        <ele>538.30243</ele>
        <time>2021-04-18T13:10:46.395Z</time>
      </trkpt>
      <trkpt lat="43.07285" lon="0.46181">
        <ele>538.303293</ele>
        <time>2021-04-18T13:10:48.425Z</time>
      </trkpt>
      <trkpt lat="43.07285" lon="0.46196">
        <ele>538.304252</ele>
        <time>2021-04-18T13:10:50.409Z</time>
      </trkpt>
      <trkpt lat="43.07284" lon="0.4621">
        <ele>538.305179</ele>
        <time>2021-04-18T13:10:52.398Z</time>
      </trkpt>
      <trkpt lat="43.07283" lon="0.46224">
        <ele>538.306098</ele>
        <time>2021-04-18T13:10:54.426Z</time>
      </trkpt>
      <trkpt lat="43.07281" lon="0.46238">
        <ele>538.307035</ele>
        <time>2021-04-18T13:10:56.397Z</time>
      </trkpt>
      <trkpt lat="43.0728" lon="0.46252">
        <ele>538.307952</ele>
        <time>2021-04-18T13:10:58.409Z</time>
      </trkpt>
      <trkpt lat="43.0728" lon="0.46267">
        <ele>538.308879</ele>
        <time>2021-04-18T13:11:00.419Z</time>
      </trkpt>
      <trkpt lat="43.0728" lon="0.46281">
        <ele>538.309818</ele>
        <time>2021-04-18T13:11:02.417Z</time>
      </trkpt>
      <trkpt lat="43.07279" lon="0.46295">
        <ele>538.31074</ele>
        <time>2021-04-18T13:11:04.400Z</time>
      </trkpt>
      <trkpt lat="43.07278" lon="0.46309">
        <ele>538.303523</ele>
        <time>2021-04-18T13:11:06.408Z</time>
      </trkpt>
      <trkpt lat="43.07277" lon="0.46322">
        <ele>538.296029</ele>
        <time>2021-04-18T13:11:08.400Z</time>
      </trkpt>
      <trkpt lat="43.07276" lon="0.46335">
        <ele>538.288621</ele>
        <time>2021-04-18T13:11:10.404Z</time>
      </trkpt>
      <trkpt lat="43.07274" lon="0.46348">
        <ele>538.280697</ele>
        <time>2021-04-18T13:11:12.403Z</time>
      </trkpt>
      <trkpt lat="43.07273" lon="0.46362">
        <ele>538.272559</ele>
        <time>2021-04-18T13:11:14.382Z</time>
      </trkpt>
      <trkpt lat="43.07271" lon="0.46376">
        <ele>538.264579</ele>
        <time>2021-04-18T13:11:16.407Z</time>
      </trkpt>
      <trkpt lat="43.0727" lon="0.46391">
        <ele>538.256272</ele>
        <time>2021-04-18T13:11:18.415Z</time>
      </trkpt>
      <trkpt lat="43.07268" lon="0.46405">
        <ele>538.247828</ele>
        <time>2021-04-18T13:11:20.383Z</time>
      </trkpt>
      <trkpt lat="43.07267" lon="0.4642">
        <ele>538.239353</ele>
        <time>2021-04-18T13:11:22.399Z</time>
      </trkpt>
      <trkpt lat="43.07266" lon="0.46434">
        <ele>538.231503</ele>
        <time>2021-04-18T13:11:24.404Z</time>
      </trkpt>
      <trkpt lat="43.07265" lon="0.46446">
        <ele>538.224494</ele>
        <time>2021-04-18T13:11:26.396Z</time>
      </trkpt>
      <trkpt lat="43.07263" lon="0.46461">
        <ele>538.21542</ele>
        <time>2021-04-18T13:11:29.399Z</time>
      </trkpt>
      <trkpt lat="43.0726" lon="0.46479">
        <ele>538.2049</ele>
        <time>2021-04-18T13:11:32.397Z</time>
      </trkpt>
      <trkpt lat="43.07259" lon="0.46493">
        <ele>538.197019</ele>
        <time>2021-04-18T13:11:34.397Z</time>
      </trkpt>
      <trkpt lat="43.07258" lon="0.46507">
        <ele>538.188969</ele>
        <time>2021-04-18T13:11:36.387Z</time>
      </trkpt>
      <trkpt lat="43.07256" lon="0.46522">
        <ele>538.180389</ele>
        <time>2021-04-18T13:11:38.428Z</time>
      </trkpt>
      <trkpt lat="43.07255" lon="0.46537">
        <ele>538.171979</ele>
        <time>2021-04-18T13:11:40.395Z</time>
      </trkpt>
      <trkpt lat="43.07255" lon="0.46551">
        <ele>538.041165</ele>
        <time>2021-04-18T13:11:42.396Z</time>
      </trkpt>
      <trkpt lat="43.07255" lon="0.46566">
        <ele>537.861544</ele>
        <time>2021-04-18T13:11:44.397Z</time>
      </trkpt>
      <trkpt lat="43.07255" lon="0.46582">
        <ele>537.672379</ele>
        <time>2021-04-18T13:11:46.419Z</time>
      </trkpt>
      <trkpt lat="43.07255" lon="0.46598">
        <ele>537.479667</ele>
        <time>2021-04-18T13:11:48.407Z</time>
      </trkpt>
      <trkpt lat="43.07256" lon="0.46613">
        <ele>537.29998</ele>
        <time>2021-04-18T13:11:50.387Z</time>
      </trkpt>
      <trkpt lat="43.07255" lon="0.46629">
        <ele>537.103645</ele>
        <time>2021-04-18T13:11:53.401Z</time>
      </trkpt>
      <trkpt lat="43.07255" lon="0.46649">
        <ele>536.875201</ele>
        <time>2021-04-18T13:11:56.401Z</time>
      </trkpt>
      <trkpt lat="43.07255" lon="0.46663">
        <ele>536.701497</ele>
        <time>2021-04-18T13:11:58.399Z</time>
      </trkpt>
      <trkpt lat="43.07255" lon="0.46678">
        <ele>536.525377</ele>
        <time>2021-04-18T13:12:00.401Z</time>
      </trkpt>
      <trkpt lat="43.07255" lon="0.46693">
        <ele>536.343261</ele>
        <time>2021-04-18T13:12:02.399Z</time>
      </trkpt>
      <trkpt lat="43.07254" lon="0.46709">
        <ele>536.15639</ele>
        <time>2021-04-18T13:12:04.417Z</time>
      </trkpt>
      <trkpt lat="43.07254" lon="0.46725">
        <ele>535.970793</ele>
        <time>2021-04-18T13:12:06.400Z</time>
      </trkpt>
      <trkpt lat="43.07253" lon="0.4674">
        <ele>535.783857</ele>
        <time>2021-04-18T13:12:08.400Z</time>
      </trkpt>
      <trkpt lat="43.07253" lon="0.46756">
        <ele>535.599127</ele>
        <time>2021-04-18T13:12:10.413Z</time>
      </trkpt>
      <trkpt lat="43.07252" lon="0.46771">
        <ele>535.416945</ele>
        <time>2021-04-18T13:12:12.398Z</time>
      </trkpt>
      <trkpt lat="43.07252" lon="0.46786">
        <ele>535.239031</ele>
        <time>2021-04-18T13:12:14.399Z</time>
      </trkpt>
      <trkpt lat="43.07252" lon="0.46802">
        <ele>535.159351</ele>
        <time>2021-04-18T13:12:16.408Z</time>
      </trkpt>
      <trkpt lat="43.07252" lon="0.46818">
        <ele>535.078155</ele>
        <time>2021-04-18T13:12:18.402Z</time>
      </trkpt>
      <trkpt lat="43.07252" lon="0.46834">
        <ele>534.9964</ele>
        <time>2021-04-18T13:12:20.398Z</time>
      </trkpt>
      <trkpt lat="43.07251" lon="0.46849">
        <ele>534.914617</ele>
        <time>2021-04-18T13:12:22.406Z</time>
      </trkpt>
      <trkpt lat="43.0725" lon="0.46864">
        <ele>534.838238</ele>
        <time>2021-04-18T13:12:24.431Z</time>
      </trkpt>
      <trkpt lat="43.07249" lon="0.4688">
        <ele>534.75936</ele>
        <time>2021-04-18T13:12:26.402Z</time>
      </trkpt>
      <trkpt lat="43.07249" lon="0.46895">
        <ele>534.679117</ele>
        <time>2021-04-18T13:12:28.400Z</time>
      </trkpt>
      <trkpt lat="43.07248" lon="0.46911">
        <ele>534.599091</ele>
        <time>2021-04-18T13:12:30.405Z</time>
      </trkpt>
      <trkpt lat="43.07247" lon="0.46925">
        <ele>534.523982</ele>
        <time>2021-04-18T13:12:32.431Z</time>
      </trkpt>
      <trkpt lat="43.07247" lon="0.4694">
        <ele>534.450413</ele>
        <time>2021-04-18T13:12:34.400Z</time>
      </trkpt>
      <trkpt lat="43.07246" lon="0.46954">
        <ele>534.375333</ele>
        <time>2021-04-18T13:12:36.414Z</time>
      </trkpt>
      <trkpt lat="43.07245" lon="0.46969">
        <ele>534.299528</ele>
        <time>2021-04-18T13:12:38.428Z</time>
      </trkpt>
      <trkpt lat="43.07244" lon="0.46985">
        <ele>534.217967</ele>
        <time>2021-04-18T13:12:40.399Z</time>
      </trkpt>
      <trkpt lat="43.07244" lon="0.47">
        <ele>534.13923</ele>
        <time>2021-04-18T13:12:42.402Z</time>
      </trkpt>
      <trkpt lat="43.07243" lon="0.47015">
        <ele>534.059892</ele>
        <time>2021-04-18T13:12:44.418Z</time>
      </trkpt>
      <trkpt lat="43.07242" lon="0.4703">
        <ele>533.982349</ele>
        <time>2021-04-18T13:12:46.415Z</time>
      </trkpt>
      <trkpt lat="43.0724" lon="0.47045">
        <ele>533.79883</ele>
        <time>2021-04-18T13:12:48.401Z</time>
      </trkpt>
      <trkpt lat="43.07239" lon="0.47058">
        <ele>533.617006</ele>
        <time>2021-04-18T13:12:50.402Z</time>
      </trkpt>
      <trkpt lat="43.07237" lon="0.47071">
        <ele>533.44302</ele>
        <time>2021-04-18T13:12:52.404Z</time>
      </trkpt>
      <trkpt lat="43.07235" lon="0.47084">
        <ele>533.268434</ele>
        <time>2021-04-18T13:12:54.404Z</time>
      </trkpt>
      <trkpt lat="43.07234" lon="0.47097">
        <ele>533.098644</ele>
        <time>2021-04-18T13:12:56.404Z</time>
      </trkpt>
      <trkpt lat="43.07233" lon="0.4711">
        <ele>532.933041</ele>
        <time>2021-04-18T13:12:58.405Z</time>
      </trkpt>
      <trkpt lat="43.07231" lon="0.47122">
        <ele>532.765278</ele>
        <time>2021-04-18T13:13:00.400Z</time>
      </trkpt>
      <trkpt lat="43.07229" lon="0.47135">
        <ele>532.591662</ele>
        <time>2021-04-18T13:13:02.400Z</time>
      </trkpt>
      <trkpt lat="43.07228" lon="0.47148">
        <ele>532.412169</ele>
        <time>2021-04-18T13:13:04.381Z</time>
      </trkpt>
      <trkpt lat="43.07227" lon="0.47164">
        <ele>532.210937</ele>
        <time>2021-04-18T13:13:06.458Z</time>
      </trkpt>
      <trkpt lat="43.07227" lon="0.47179">
        <ele>532.002036</ele>
        <time>2021-04-18T13:13:08.403Z</time>
      </trkpt>
      <trkpt lat="43.07228" lon="0.47193">
        <ele>531.81521</ele>
        <time>2021-04-18T13:13:10.406Z</time>
      </trkpt>
      <trkpt lat="43.0723" lon="0.47209">
        <ele>531.609038</ele>
        <time>2021-04-18T13:13:12.403Z</time>
      </trkpt>
      <trkpt lat="43.07234" lon="0.47225">
        <ele>531.383033</ele>
        <time>2021-04-18T13:13:14.429Z</time>
      </trkpt>
      <trkpt lat="43.0724" lon="0.47246">
        <ele>531.078696</ele>
        <time>2021-04-18T13:13:16.403Z</time>
      </trkpt>
      <trkpt lat="43.07244" lon="0.47269">
        <ele>530.764861</ele>
        <time>2021-04-18T13:13:18.403Z</time>
      </trkpt>
      <trkpt lat="43.07245" lon="0.47292">
        <ele>530.162875</ele>
        <time>2021-04-18T13:13:20.408Z</time>
      </trkpt>
      <trkpt lat="43.07247" lon="0.47305">
        <ele>529.80665</ele>
        <time>2021-04-18T13:13:21.404Z</time>
      </trkpt>
      <trkpt lat="43.0725" lon="0.47327">
        <ele>529.171244</ele>
        <time>2021-04-18T13:13:23.405Z</time>
      </trkpt>
      <trkpt lat="43.07254" lon="0.47346">
        <ele>528.609371</ele>
        <time>2021-04-18T13:13:25.405Z</time>
      </trkpt>
      <trkpt lat="43.07263" lon="0.47364">
        <ele>528.001391</ele>
        <time>2021-04-18T13:13:27.405Z</time>
      </trkpt>
      <trkpt lat="43.07273" lon="0.4738">
        <ele>527.403861</ele>
        <time>2021-04-18T13:13:29.407Z</time>
      </trkpt>
      <trkpt lat="43.07282" lon="0.47396">
        <ele>526.841838</ele>
        <time>2021-04-18T13:13:31.407Z</time>
      </trkpt>
      <trkpt lat="43.07289" lon="0.47413">
        <ele>526.299841</ele>
        <time>2021-04-18T13:13:33.406Z</time>
      </trkpt>
      <trkpt lat="43.07293" lon="0.47431">
        <ele>525.76638</ele>
        <time>2021-04-18T13:13:35.444Z</time>
      </trkpt>
      <trkpt lat="43.07295" lon="0.4745">
        <ele>525.225648</ele>
        <time>2021-04-18T13:13:37.420Z</time>
      </trkpt>
      <trkpt lat="43.07296" lon="0.47468">
        <ele>524.699318</ele>
        <time>2021-04-18T13:13:39.405Z</time>
      </trkpt>
      <trkpt lat="43.07298" lon="0.47486">
        <ele>524.19912</ele>
        <time>2021-04-18T13:13:41.404Z</time>
      </trkpt>
      <trkpt lat="43.073" lon="0.47503">
        <ele>523.725114</ele>
        <time>2021-04-18T13:13:43.395Z</time>
      </trkpt>
      <trkpt lat="43.07302" lon="0.47522">
        <ele>523.352781</ele>
        <time>2021-04-18T13:13:45.402Z</time>
      </trkpt>
      <trkpt lat="43.07302" lon="0.47539">
        <ele>522.997269</ele>
        <time>2021-04-18T13:13:47.424Z</time>
      </trkpt>
      <trkpt lat="43.07303" lon="0.47554">
        <ele>522.698916</ele>
        <time>2021-04-18T13:13:49.404Z</time>
      </trkpt>
      <trkpt lat="43.07301" lon="0.47571">
        <ele>522.347064</ele>
        <time>2021-04-18T13:13:51.380Z</time>
      </trkpt>
      <trkpt lat="43.07299" lon="0.47596">
        <ele>521.838733</ele>
        <time>2021-04-18T13:13:53.421Z</time>
      </trkpt>
      <trkpt lat="43.07298" lon="0.47611">
        <ele>521.527809</ele>
        <time>2021-04-18T13:13:54.405Z</time>
      </trkpt>
      <trkpt lat="43.07298" lon="0.47627">
        <ele>521.211049</ele>
        <time>2021-04-18T13:13:55.421Z</time>
      </trkpt>
      <trkpt lat="43.07297" lon="0.47642">
        <ele>520.90837</ele>
        <time>2021-04-18T13:13:56.380Z</time>
      </trkpt>
      <trkpt lat="43.07297" lon="0.47656">
        <ele>520.626302</ele>
        <time>2021-04-18T13:13:57.382Z</time>
      </trkpt>
      <trkpt lat="43.07298" lon="0.47669">
        <ele>520.356282</ele>
        <time>2021-04-18T13:13:58.404Z</time>
      </trkpt>
      <trkpt lat="43.07298" lon="0.47681">
        <ele>520.102609</ele>
        <time>2021-04-18T13:13:59.419Z</time>
      </trkpt>
      <trkpt lat="43.07299" lon="0.47705">
        <ele>519.623915</ele>
        <time>2021-04-18T13:14:01.405Z</time>
      </trkpt>
      <trkpt lat="43.07301" lon="0.47726">
        <ele>519.189774</ele>
        <time>2021-04-18T13:14:03.449Z</time>
      </trkpt>
      <trkpt lat="43.07304" lon="0.47746">
        <ele>518.78105</ele>
        <time>2021-04-18T13:14:05.407Z</time>
      </trkpt>
      <trkpt lat="43.07309" lon="0.47764">
        <ele>518.378815</ele>
        <time>2021-04-18T13:14:07.405Z</time>
      </trkpt>
      <trkpt lat="43.07313" lon="0.47781">
        <ele>517.997038</ele>
        <time>2021-04-18T13:14:09.398Z</time>
      </trkpt>
      <trkpt lat="43.07317" lon="0.47797">
        <ele>517.63901</ele>
        <time>2021-04-18T13:14:11.425Z</time>
      </trkpt>
      <trkpt lat="43.0732" lon="0.47812">
        <ele>517.303083</ele>
        <time>2021-04-18T13:14:13.406Z</time>
      </trkpt>
      <trkpt lat="43.07324" lon="0.47826">
        <ele>516.97139</ele>
        <time>2021-04-18T13:14:15.379Z</time>
      </trkpt>
      <trkpt lat="43.07327" lon="0.47842">
        <ele>516.628555</ele>
        <time>2021-04-18T13:14:17.397Z</time>
      </trkpt>
      <trkpt lat="43.0733" lon="0.47858">
        <ele>516.263034</ele>
        <time>2021-04-18T13:14:19.407Z</time>
      </trkpt>
      <trkpt lat="43.07333" lon="0.47875">
        <ele>515.898081</ele>
        <time>2021-04-18T13:14:21.430Z</time>
      </trkpt>
      <trkpt lat="43.07335" lon="0.47891">
        <ele>515.552852</ele>
        <time>2021-04-18T13:14:23.406Z</time>
      </trkpt>
      <trkpt lat="43.07336" lon="0.47906">
        <ele>515.238155</ele>
        <time>2021-04-18T13:14:25.412Z</time>
      </trkpt>
      <trkpt lat="43.07337" lon="0.4792">
        <ele>514.924217</ele>
        <time>2021-04-18T13:14:27.401Z</time>
      </trkpt>
      <trkpt lat="43.07336" lon="0.47935">
        <ele>514.601874</ele>
        <time>2021-04-18T13:14:29.403Z</time>
      </trkpt>
      <trkpt lat="43.07335" lon="0.4795">
        <ele>514.28267</ele>
        <time>2021-04-18T13:14:31.425Z</time>
      </trkpt>
      <trkpt lat="43.07334" lon="0.47966">
        <ele>513.951605</ele>
        <time>2021-04-18T13:14:33.417Z</time>
      </trkpt>
      <trkpt lat="43.07333" lon="0.47981">
        <ele>513.61777</ele>
        <time>2021-04-18T13:14:35.404Z</time>
      </trkpt>
      <trkpt lat="43.07332" lon="0.47996">
        <ele>513.483892</ele>
        <time>2021-04-18T13:14:37.454Z</time>
      </trkpt>
      <trkpt lat="43.07331" lon="0.48011">
        <ele>513.418937</ele>
        <time>2021-04-18T13:14:39.416Z</time>
      </trkpt>
      <trkpt lat="43.07329" lon="0.48024">
        <ele>513.35655</ele>
        <time>2021-04-18T13:14:41.416Z</time>
      </trkpt>
      <trkpt lat="43.07327" lon="0.48037">
        <ele>513.295289</ele>
        <time>2021-04-18T13:14:43.405Z</time>
      </trkpt>
      <trkpt lat="43.07326" lon="0.48051">
        <ele>513.233833</ele>
        <time>2021-04-18T13:14:45.407Z</time>
      </trkpt>
      <trkpt lat="43.07325" lon="0.48064">
        <ele>513.17057</ele>
        <time>2021-04-18T13:14:47.404Z</time>
      </trkpt>
      <trkpt lat="43.07324" lon="0.48079">
        <ele>513.105114</ele>
        <time>2021-04-18T13:14:49.403Z</time>
      </trkpt>
      <trkpt lat="43.07324" lon="0.48094">
        <ele>513.033634</ele>
        <time>2021-04-18T13:14:51.419Z</time>
      </trkpt>
      <trkpt lat="43.07323" lon="0.48109">
        <ele>512.967894</ele>
        <time>2021-04-18T13:14:53.401Z</time>
      </trkpt>
      <trkpt lat="43.07323" lon="0.48123">
        <ele>512.90184</ele>
        <time>2021-04-18T13:14:55.396Z</time>
      </trkpt>
      <trkpt lat="43.07323" lon="0.48138">
        <ele>512.837197</ele>
        <time>2021-04-18T13:14:57.453Z</time>
      </trkpt>
      <trkpt lat="43.07323" lon="0.48152">
        <ele>512.772984</ele>
        <time>2021-04-18T13:14:59.414Z</time>
      </trkpt>
      <trkpt lat="43.07322" lon="0.48165">
        <ele>512.712235</ele>
        <time>2021-04-18T13:15:01.404Z</time>
      </trkpt>
      <trkpt lat="43.07322" lon="0.48179">
        <ele>512.649403</ele>
        <time>2021-04-18T13:15:03.401Z</time>
      </trkpt>
      <trkpt lat="43.07322" lon="0.48193">
        <ele>512.584759</ele>
        <time>2021-04-18T13:15:05.434Z</time>
      </trkpt>
      <trkpt lat="43.07322" lon="0.48206">
        <ele>512.52376</ele>
        <time>2021-04-18T13:15:07.408Z</time>
      </trkpt>
      <trkpt lat="43.07324" lon="0.48223">
        <ele>512.44501</ele>
        <time>2021-04-18T13:15:09.430Z</time>
      </trkpt>
      <trkpt lat="43.07328" lon="0.48239">
        <ele>512.496052</ele>
        <time>2021-04-18T13:15:11.459Z</time>
      </trkpt>
      <trkpt lat="43.07331" lon="0.48253">
        <ele>512.611512</ele>
        <time>2021-04-18T13:15:13.406Z</time>
      </trkpt>
      <trkpt lat="43.07334" lon="0.48266">
        <ele>512.72587</ele>
        <time>2021-04-18T13:15:15.408Z</time>
      </trkpt>
      <trkpt lat="43.07338" lon="0.48282">
        <ele>512.858795</ele>
        <time>2021-04-18T13:15:17.402Z</time>
      </trkpt>
      <trkpt lat="43.07341" lon="0.48296">
        <ele>512.975704</ele>
        <time>2021-04-18T13:15:19.401Z</time>
      </trkpt>
      <trkpt lat="43.07344" lon="0.48309">
        <ele>513.092712</ele>
        <time>2021-04-18T13:15:21.409Z</time>
      </trkpt>
      <trkpt lat="43.07346" lon="0.48322">
        <ele>513.195081</ele>
        <time>2021-04-18T13:15:23.428Z</time>
      </trkpt>
      <trkpt lat="43.07348" lon="0.48334">
        <ele>513.295344</ele>
        <time>2021-04-18T13:15:25.407Z</time>
      </trkpt>
      <trkpt lat="43.0735" lon="0.48348">
        <ele>513.411887</ele>
        <time>2021-04-18T13:15:27.399Z</time>
      </trkpt>
      <trkpt lat="43.07353" lon="0.48362">
        <ele>513.533417</ele>
        <time>2021-04-18T13:15:29.409Z</time>
      </trkpt>
      <trkpt lat="43.07356" lon="0.48377">
        <ele>513.653527</ele>
        <time>2021-04-18T13:15:31.397Z</time>
      </trkpt>
      <trkpt lat="43.07359" lon="0.4839">
        <ele>513.768858</ele>
        <time>2021-04-18T13:15:33.426Z</time>
      </trkpt>
      <trkpt lat="43.07363" lon="0.48404">
        <ele>513.888379</ele>
        <time>2021-04-18T13:15:35.397Z</time>
      </trkpt>
      <trkpt lat="43.07367" lon="0.48417">
        <ele>514.002184</ele>
        <time>2021-04-18T13:15:37.413Z</time>
      </trkpt>
      <trkpt lat="43.0737" lon="0.48429">
        <ele>514.105954</ele>
        <time>2021-04-18T13:15:39.400Z</time>
      </trkpt>
      <trkpt lat="43.07374" lon="0.4844">
        <ele>514.207667</ele>
        <time>2021-04-18T13:15:41.399Z</time>
      </trkpt>
      <trkpt lat="43.07377" lon="0.48452">
        <ele>514.311958</ele>
        <time>2021-04-18T13:15:43.442Z</time>
      </trkpt>
      <trkpt lat="43.0738" lon="0.48464">
        <ele>514.412356</ele>
        <time>2021-04-18T13:15:45.401Z</time>
      </trkpt>
      <trkpt lat="43.07385" lon="0.48478">
        <ele>514.514317</ele>
        <time>2021-04-18T13:15:48.403Z</time>
      </trkpt>
      <trkpt lat="43.0739" lon="0.48492">
        <ele>514.613346</ele>
        <time>2021-04-18T13:15:51.407Z</time>
      </trkpt>
      <trkpt lat="43.07394" lon="0.48503">
        <ele>514.694599</ele>
        <time>2021-04-18T13:15:53.409Z</time>
      </trkpt>
      <trkpt lat="43.07399" lon="0.48516">
        <ele>514.790353</ele>
        <time>2021-04-18T13:15:55.399Z</time>
      </trkpt>
      <trkpt lat="43.07405" lon="0.48528">
        <ele>514.88316</ele>
        <time>2021-04-18T13:15:57.394Z</time>
      </trkpt>
      <trkpt lat="43.0741" lon="0.48539">
        <ele>514.965653</ele>
        <time>2021-04-18T13:15:59.410Z</time>
      </trkpt>
      <trkpt lat="43.07413" lon="0.4855">
        <ele>515.046138</ele>
        <time>2021-04-18T13:16:01.410Z</time>
      </trkpt>
      <trkpt lat="43.07419" lon="0.48568">
        <ele>515.170477</ele>
        <time>2021-04-18T13:16:04.400Z</time>
      </trkpt>
      <trkpt lat="43.07422" lon="0.48581">
        <ele>515.262918</ele>
        <time>2021-04-18T13:16:06.403Z</time>
      </trkpt>
      <trkpt lat="43.07426" lon="0.48593">
        <ele>515.348519</ele>
        <time>2021-04-18T13:16:08.403Z</time>
      </trkpt>
      <trkpt lat="43.07431" lon="0.48608">
        <ele>515.45653</ele>
        <time>2021-04-18T13:16:11.430Z</time>
      </trkpt>
      <trkpt lat="43.07437" lon="0.48623">
        <ele>515.566417</ele>
        <time>2021-04-18T13:16:14.443Z</time>
      </trkpt>
      <trkpt lat="43.07443" lon="0.48635">
        <ele>515.660741</ele>
        <time>2021-04-18T13:16:16.402Z</time>
      </trkpt>
      <trkpt lat="43.07449" lon="0.48649">
        <ele>515.768667</ele>
        <time>2021-04-18T13:16:18.404Z</time>
      </trkpt>
      <trkpt lat="43.07455" lon="0.48664">
        <ele>515.881562</ele>
        <time>2021-04-18T13:16:20.402Z</time>
      </trkpt>
      <trkpt lat="43.07462" lon="0.48679">
        <ele>515.991627</ele>
        <time>2021-04-18T13:16:22.420Z</time>
      </trkpt>
      <trkpt lat="43.07467" lon="0.48694">
        <ele>515.809583</ele>
        <time>2021-04-18T13:16:24.419Z</time>
      </trkpt>
      <trkpt lat="43.07472" lon="0.48707">
        <ele>515.568535</ele>
        <time>2021-04-18T13:16:26.406Z</time>
      </trkpt>
      <trkpt lat="43.07476" lon="0.48719">
        <ele>515.371806</ele>
        <time>2021-04-18T13:16:28.396Z</time>
      </trkpt>
      <trkpt lat="43.07479" lon="0.48735">
        <ele>515.105176</ele>
        <time>2021-04-18T13:16:32.409Z</time>
      </trkpt>
      <trkpt lat="43.07481" lon="0.48748">
        <ele>514.904331</ele>
        <time>2021-04-18T13:16:34.446Z</time>
      </trkpt>
      <trkpt lat="43.07483" lon="0.48763">
        <ele>514.666627</ele>
        <time>2021-04-18T13:16:37.425Z</time>
      </trkpt>
      <trkpt lat="43.07482" lon="0.48777">
        <ele>514.441181</ele>
        <time>2021-04-18T13:16:40.398Z</time>
      </trkpt>
      <trkpt lat="43.07483" lon="0.48794">
        <ele>514.170152</ele>
        <time>2021-04-18T13:16:43.395Z</time>
      </trkpt>
      <trkpt lat="43.07481" lon="0.48809">
        <ele>513.927456</ele>
        <time>2021-04-18T13:16:47.410Z</time>
      </trkpt>
      <trkpt lat="43.0748" lon="0.48823">
        <ele>513.7153</ele>
        <time>2021-04-18T13:16:50.424Z</time>
      </trkpt>
      <trkpt lat="43.07475" lon="0.48836">
        <ele>513.489789</ele>
        <time>2021-04-18T13:16:53.398Z</time>
      </trkpt>
      <trkpt lat="43.07472" lon="0.48851">
        <ele>513.238695</ele>
        <time>2021-04-18T13:16:56.397Z</time>
      </trkpt>
      <trkpt lat="43.07469" lon="0.48866">
        <ele>512.999034</ele>
        <time>2021-04-18T13:16:59.399Z</time>
      </trkpt>
      <trkpt lat="43.07468" lon="0.48879">
        <ele>512.789392</ele>
        <time>2021-04-18T13:17:01.400Z</time>
      </trkpt>
      <trkpt lat="43.07467" lon="0.48892">
        <ele>512.584676</ele>
        <time>2021-04-18T13:17:03.396Z</time>
      </trkpt>
      <trkpt lat="43.07468" lon="0.48909">
        <ele>512.309099</ele>
        <time>2021-04-18T13:17:06.411Z</time>
      </trkpt>
      <trkpt lat="43.07469" lon="0.48922">
        <ele>512.105469</ele>
        <time>2021-04-18T13:17:08.433Z</time>
      </trkpt>
      <trkpt lat="43.07471" lon="0.48935">
        <ele>511.865424</ele>
        <time>2021-04-18T13:17:10.409Z</time>
      </trkpt>
      <trkpt lat="43.07474" lon="0.48951">
        <ele>511.580109</ele>
        <time>2021-04-18T13:17:13.395Z</time>
      </trkpt>
      <trkpt lat="43.07478" lon="0.48967">
        <ele>511.287883</ele>
        <time>2021-04-18T13:17:16.397Z</time>
      </trkpt>
      <trkpt lat="43.07483" lon="0.4898">
        <ele>511.036458</ele>
        <time>2021-04-18T13:17:19.419Z</time>
      </trkpt>
      <trkpt lat="43.07486" lon="0.48995">
        <ele>510.748403</ele>
        <time>2021-04-18T13:17:22.427Z</time>
      </trkpt>
      <trkpt lat="43.07491" lon="0.49007">
        <ele>510.518723</ele>
        <time>2021-04-18T13:17:24.400Z</time>
      </trkpt>
      <trkpt lat="43.07495" lon="0.49019">
        <ele>510.274973</ele>
        <time>2021-04-18T13:17:26.399Z</time>
      </trkpt>
      <trkpt lat="43.075" lon="0.49031">
        <ele>510.033106</ele>
        <time>2021-04-18T13:17:28.412Z</time>
      </trkpt>
      <trkpt lat="43.07505" lon="0.49042">
        <ele>509.805944</ele>
        <time>2021-04-18T13:17:30.410Z</time>
      </trkpt>
      <trkpt lat="43.07511" lon="0.49058">
        <ele>509.495749</ele>
        <time>2021-04-18T13:17:33.429Z</time>
      </trkpt>
      <trkpt lat="43.07516" lon="0.49072">
        <ele>509.225891</ele>
        <time>2021-04-18T13:17:36.420Z</time>
      </trkpt>
      <trkpt lat="43.07521" lon="0.49085">
        <ele>508.965912</ele>
        <time>2021-04-18T13:17:39.399Z</time>
      </trkpt>
      <trkpt lat="43.07526" lon="0.49098">
        <ele>508.694337</ele>
        <time>2021-04-18T13:17:42.401Z</time>
      </trkpt>
      <trkpt lat="43.07531" lon="0.49112">
        <ele>508.428226</ele>
        <time>2021-04-18T13:17:45.433Z</time>
      </trkpt>
      <trkpt lat="43.07536" lon="0.49124">
        <ele>508.179422</ele>
        <time>2021-04-18T13:17:48.413Z</time>
      </trkpt>
      <trkpt lat="43.0754" lon="0.49136">
        <ele>507.955016</ele>
        <time>2021-04-18T13:17:51.413Z</time>
      </trkpt>
      <trkpt lat="43.07543" lon="0.49148">
        <ele>507.796678</ele>
        <time>2021-04-18T13:17:54.397Z</time>
      </trkpt>
      <trkpt lat="43.07546" lon="0.49159">
        <ele>507.783405</ele>
        <time>2021-04-18T13:17:57.428Z</time>
      </trkpt>
      <trkpt lat="43.0755" lon="0.49175">
        <ele>507.765498</ele>
        <time>2021-04-18T13:18:01.401Z</time>
      </trkpt>
      <trkpt lat="43.07553" lon="0.4919">
        <ele>507.749896</ele>
        <time>2021-04-18T13:18:04.397Z</time>
      </trkpt>
      <trkpt lat="43.07556" lon="0.49204">
        <ele>507.733741</ele>
        <time>2021-04-18T13:18:07.397Z</time>
      </trkpt>
      <trkpt lat="43.07559" lon="0.49218">
        <ele>507.718389</ele>
        <time>2021-04-18T13:18:10.396Z</time>
      </trkpt>
      <trkpt lat="43.07562" lon="0.49233">
        <ele>507.701609</ele>
        <time>2021-04-18T13:18:13.398Z</time>
      </trkpt>
      <trkpt lat="43.07565" lon="0.49248">
        <ele>507.685231</ele>
        <time>2021-04-18T13:18:16.414Z</time>
      </trkpt>
      <trkpt lat="43.07567" lon="0.49262">
        <ele>507.669378</ele>
        <time>2021-04-18T13:18:19.399Z</time>
      </trkpt>
      <trkpt lat="43.0757" lon="0.49277">
        <ele>507.652937</ele>
        <time>2021-04-18T13:18:22.397Z</time>
      </trkpt>
      <trkpt lat="43.07573" lon="0.49292">
        <ele>507.636081</ele>
        <time>2021-04-18T13:18:25.402Z</time>
      </trkpt>
      <trkpt lat="43.07575" lon="0.4931">
        <ele>507.617284</ele>
        <time>2021-04-18T13:18:28.445Z</time>
      </trkpt>
      <trkpt lat="43.07577" lon="0.49327">
        <ele>507.59843</ele>
        <time>2021-04-18T13:18:31.397Z</time>
      </trkpt>
      <trkpt lat="43.07579" lon="0.49345">
        <ele>507.578579</ele>
        <time>2021-04-18T13:18:34.424Z</time>
      </trkpt>
      <trkpt lat="43.0758" lon="0.49358">
        <ele>507.565277</ele>
        <time>2021-04-18T13:18:36.396Z</time>
      </trkpt>
      <trkpt lat="43.07581" lon="0.49375">
        <ele>507.546462</ele>
        <time>2021-04-18T13:18:39.411Z</time>
      </trkpt>
      <trkpt lat="43.07583" lon="0.49391">
        <ele>507.451871</ele>
        <time>2021-04-18T13:18:42.409Z</time>
      </trkpt>
      <trkpt lat="43.07585" lon="0.49408">
        <ele>507.284947</ele>
        <time>2021-04-18T13:18:45.448Z</time>
      </trkpt>
      <trkpt lat="43.07587" lon="0.49423">
        <ele>507.124546</ele>
        <time>2021-04-18T13:18:48.397Z</time>
      </trkpt>
      <trkpt lat="43.0759" lon="0.49438">
        <ele>506.963042</ele>
        <time>2021-04-18T13:18:51.398Z</time>
      </trkpt>
      <trkpt lat="43.07591" lon="0.49456">
        <ele>506.780851</ele>
        <time>2021-04-18T13:18:54.397Z</time>
      </trkpt>
      <trkpt lat="43.07591" lon="0.49473">
        <ele>506.613296</ele>
        <time>2021-04-18T13:18:57.400Z</time>
      </trkpt>
      <trkpt lat="43.0759" lon="0.49491">
        <ele>506.429068</ele>
        <time>2021-04-18T13:19:00.422Z</time>
      </trkpt>
      <trkpt lat="43.07588" lon="0.49508">
        <ele>506.253243</ele>
        <time>2021-04-18T13:19:03.430Z</time>
      </trkpt>
      <trkpt lat="43.07587" lon="0.49523">
        <ele>506.090503</ele>
        <time>2021-04-18T13:19:06.426Z</time>
      </trkpt>
      <trkpt lat="43.07588" lon="0.49539">
        <ele>505.92703</ele>
        <time>2021-04-18T13:19:09.430Z</time>
      </trkpt>
      <trkpt lat="43.07588" lon="0.49552">
        <ele>505.799362</ele>
        <time>2021-04-18T13:19:11.397Z</time>
      </trkpt>
      <trkpt lat="43.07588" lon="0.49565">
        <ele>505.670695</ele>
        <time>2021-04-18T13:19:13.430Z</time>
      </trkpt>
      <trkpt lat="43.07588" lon="0.49582">
        <ele>505.495043</ele>
        <time>2021-04-18T13:19:16.410Z</time>
      </trkpt>
      <trkpt lat="43.07588" lon="0.49598">
        <ele>505.331612</ele>
        <time>2021-04-18T13:19:19.411Z</time>
      </trkpt>
      <trkpt lat="43.07587" lon="0.4961">
        <ele>505.201181</ele>
        <time>2021-04-18T13:19:22.430Z</time>
      </trkpt>
      <trkpt lat="43.07584" lon="0.49624">
        <ele>505.053571</ele>
        <time>2021-04-18T13:19:25.412Z</time>
      </trkpt>
      <trkpt lat="43.07582" lon="0.49639">
        <ele>504.992094</ele>
        <time>2021-04-18T13:19:28.401Z</time>
      </trkpt>
      <trkpt lat="43.07578" lon="0.49652">
        <ele>504.956199</ele>
        <time>2021-04-18T13:19:31.422Z</time>
      </trkpt>
      <trkpt lat="43.07577" lon="0.49666">
        <ele>504.920071</ele>
        <time>2021-04-18T13:19:34.401Z</time>
      </trkpt>
      <trkpt lat="43.07576" lon="0.49679">
        <ele>504.88575</ele>
        <time>2021-04-18T13:19:37.399Z</time>
      </trkpt>
      <trkpt lat="43.07574" lon="0.49693">
        <ele>504.848778</ele>
        <time>2021-04-18T13:19:41.412Z</time>
      </trkpt>
      <trkpt lat="43.0757" lon="0.49707">
        <ele>504.809572</ele>
        <time>2021-04-18T13:19:45.399Z</time>
      </trkpt>
      <trkpt lat="43.07568" lon="0.49719">
        <ele>504.777283</ele>
        <time>2021-04-18T13:19:49.426Z</time>
      </trkpt>
      <trkpt lat="43.07565" lon="0.49733">
        <ele>504.7398</ele>
        <time>2021-04-18T13:19:53.397Z</time>
      </trkpt>
      <trkpt lat="43.07562" lon="0.49746">
        <ele>504.704691</ele>
        <time>2021-04-18T13:19:56.413Z</time>
      </trkpt>
      <trkpt lat="43.0756" lon="0.49759">
        <ele>504.668951</ele>
        <time>2021-04-18T13:19:59.412Z</time>
      </trkpt>
      <trkpt lat="43.07559" lon="0.49773">
        <ele>504.633295</ele>
        <time>2021-04-18T13:20:02.419Z</time>
      </trkpt>
      <trkpt lat="43.07558" lon="0.49786">
        <ele>504.599392</ele>
        <time>2021-04-18T13:20:05.400Z</time>
      </trkpt>
      <trkpt lat="43.07556" lon="0.49802">
        <ele>504.556638</ele>
        <time>2021-04-18T13:20:09.397Z</time>
      </trkpt>
      <trkpt lat="43.07555" lon="0.49817">
        <ele>504.517069</ele>
        <time>2021-04-18T13:20:12.382Z</time>
      </trkpt>
      <trkpt lat="43.07553" lon="0.49833">
        <ele>504.475695</ele>
        <time>2021-04-18T13:20:16.621Z</time>
      </trkpt>
      <trkpt lat="43.07552" lon="0.49848">
        <ele>504.436899</ele>
        <time>2021-04-18T13:20:18.430Z</time>
      </trkpt>
      <trkpt lat="43.07551" lon="0.49861">
        <ele>504.403556</ele>
        <time>2021-04-18T13:20:21.429Z</time>
      </trkpt>
      <trkpt lat="43.07551" lon="0.49873">
        <ele>504.396294</ele>
        <time>2021-04-18T13:20:24.412Z</time>
      </trkpt>
      <trkpt lat="43.07551" lon="0.49887">
        <ele>504.432304</ele>
        <time>2021-04-18T13:20:27.429Z</time>
      </trkpt>
      <trkpt lat="43.07552" lon="0.49903">
        <ele>504.474658</ele>
        <time>2021-04-18T13:20:30.399Z</time>
      </trkpt>
      <trkpt lat="43.07554" lon="0.49917">
        <ele>504.512266</ele>
        <time>2021-04-18T13:20:33.409Z</time>
      </trkpt>
      <trkpt lat="43.07556" lon="0.4993">
        <ele>504.548377</ele>
        <time>2021-04-18T13:20:37.398Z</time>
      </trkpt>
      <trkpt lat="43.07557" lon="0.49944">
        <ele>504.586535</ele>
        <time>2021-04-18T13:20:41.413Z</time>
      </trkpt>
      <trkpt lat="43.07558" lon="0.4996">
        <ele>504.626648</ele>
        <time>2021-04-18T13:20:45.417Z</time>
      </trkpt>
      <trkpt lat="43.0756" lon="0.49972">
        <ele>504.66017</ele>
        <time>2021-04-18T13:20:48.398Z</time>
      </trkpt>
      <trkpt lat="43.07564" lon="0.49987">
        <ele>504.702696</ele>
        <time>2021-04-18T13:20:52.398Z</time>
      </trkpt>
      <trkpt lat="43.07568" lon="0.50002">
        <ele>504.746314</ele>
        <time>2021-04-18T13:20:56.398Z</time>
      </trkpt>
      <trkpt lat="43.07573" lon="0.50016">
        <ele>504.785763</ele>
        <time>2021-04-18T13:20:59.399Z</time>
      </trkpt>
      <trkpt lat="43.07577" lon="0.50031">
        <ele>504.828509</ele>
        <time>2021-04-18T13:21:02.430Z</time>
      </trkpt>
      <trkpt lat="43.07581" lon="0.50046">
        <ele>504.870897</ele>
        <time>2021-04-18T13:21:05.396Z</time>
      </trkpt>
      <trkpt lat="43.07583" lon="0.50062">
        <ele>504.912203</ele>
        <time>2021-04-18T13:21:08.395Z</time>
      </trkpt>
      <trkpt lat="43.07587" lon="0.50075">
        <ele>504.9504</ele>
        <time>2021-04-18T13:21:11.397Z</time>
      </trkpt>
      <trkpt lat="43.0759" lon="0.5009">
        <ele>504.992171</ele>
        <time>2021-04-18T13:21:15.398Z</time>
      </trkpt>
      <trkpt lat="43.07594" lon="0.50102">
        <ele>505.025629</ele>
        <time>2021-04-18T13:21:18.458Z</time>
      </trkpt>
      <trkpt lat="43.07599" lon="0.50113">
        <ele>504.831329</ele>
        <time>2021-04-18T13:21:21.421Z</time>
      </trkpt>
      <trkpt lat="43.07605" lon="0.50126">
        <ele>504.489711</ele>
        <time>2021-04-18T13:21:24.400Z</time>
      </trkpt>
      <trkpt lat="43.07611" lon="0.50137">
        <ele>504.166582</ele>
        <time>2021-04-18T13:21:27.402Z</time>
      </trkpt>
      <trkpt lat="43.07617" lon="0.50148">
        <ele>503.870356</ele>
        <time>2021-04-18T13:21:30.419Z</time>
      </trkpt>
      <trkpt lat="43.07623" lon="0.50157">
        <ele>503.589924</ele>
        <time>2021-04-18T13:21:33.381Z</time>
      </trkpt>
      <trkpt lat="43.0763" lon="0.50169">
        <ele>503.253601</ele>
        <time>2021-04-18T13:21:37.403Z</time>
      </trkpt>
      <trkpt lat="43.07635" lon="0.5018">
        <ele>502.953901</ele>
        <time>2021-04-18T13:21:41.462Z</time>
      </trkpt>
      <trkpt lat="43.0764" lon="0.50192">
        <ele>502.65127</ele>
        <time>2021-04-18T13:21:45.417Z</time>
      </trkpt>
      <trkpt lat="43.07647" lon="0.50205">
        <ele>502.293813</ele>
        <time>2021-04-18T13:21:49.402Z</time>
      </trkpt>
      <trkpt lat="43.07655" lon="0.50217">
        <ele>501.936431</ele>
        <time>2021-04-18T13:21:53.405Z</time>
      </trkpt>
      <trkpt lat="43.07661" lon="0.50227">
        <ele>501.623639</ele>
        <time>2021-04-18T13:21:56.431Z</time>
      </trkpt>
      <trkpt lat="43.07667" lon="0.50238">
        <ele>501.314936</ele>
        <time>2021-04-18T13:21:59.403Z</time>
      </trkpt>
      <trkpt lat="43.07673" lon="0.50249">
        <ele>501.02975</ele>
        <time>2021-04-18T13:22:02.429Z</time>
      </trkpt>
      <trkpt lat="43.07679" lon="0.50261">
        <ele>500.686604</ele>
        <time>2021-04-18T13:22:06.413Z</time>
      </trkpt>
      <trkpt lat="43.07685" lon="0.50272">
        <ele>500.386942</ele>
        <time>2021-04-18T13:22:11.402Z</time>
      </trkpt>
      <trkpt lat="43.07691" lon="0.50283">
        <ele>500.07274</ele>
        <time>2021-04-18T13:22:16.405Z</time>
      </trkpt>
      <trkpt lat="43.07697" lon="0.50294">
        <ele>499.762269</ele>
        <time>2021-04-18T13:22:20.428Z</time>
      </trkpt>
      <trkpt lat="43.07703" lon="0.50307">
        <ele>499.590996</ele>
        <time>2021-04-18T13:22:24.392Z</time>
      </trkpt>
      <trkpt lat="43.07708" lon="0.50318">
        <ele>499.745056</ele>
        <time>2021-04-18T13:22:28.421Z</time>
      </trkpt>
      <trkpt lat="43.07712" lon="0.50329">
        <ele>499.903238</ele>
        <time>2021-04-18T13:22:32.403Z</time>
      </trkpt>
      <trkpt lat="43.07717" lon="0.50343">
        <ele>500.095043</ele>
        <time>2021-04-18T13:22:36.423Z</time>
      </trkpt>
      <trkpt lat="43.07721" lon="0.50355">
        <ele>500.251279</ele>
        <time>2021-04-18T13:22:39.404Z</time>
      </trkpt>
      <trkpt lat="43.07724" lon="0.50369">
        <ele>500.445601</ele>
        <time>2021-04-18T13:22:43.403Z</time>
      </trkpt>
      <trkpt lat="43.07727" lon="0.50384">
        <ele>500.637554</ele>
        <time>2021-04-18T13:22:47.394Z</time>
      </trkpt>
      <trkpt lat="43.0773" lon="0.50398">
        <ele>500.810833</ele>
        <time>2021-04-18T13:22:51.408Z</time>
      </trkpt>
      <trkpt lat="43.07734" lon="0.5041">
        <ele>500.98581</ele>
        <time>2021-04-18T13:22:55.416Z</time>
      </trkpt>
      <trkpt lat="43.07739" lon="0.50424">
        <ele>501.171242</ele>
        <time>2021-04-18T13:22:59.419Z</time>
      </trkpt>
      <trkpt lat="43.0774" lon="0.50437">
        <ele>501.336275</ele>
        <time>2021-04-18T13:23:04.425Z</time>
      </trkpt>
      <trkpt lat="43.07742" lon="0.50449">
        <ele>501.492305</ele>
        <time>2021-04-18T13:23:08.419Z</time>
      </trkpt>
      <trkpt lat="43.07743" lon="0.50462">
        <ele>501.649488</ele>
        <time>2021-04-18T13:23:12.403Z</time>
      </trkpt>
      <trkpt lat="43.07746" lon="0.50479">
        <ele>501.867199</ele>
        <time>2021-04-18T13:23:15.404Z</time>
      </trkpt>
      <trkpt lat="43.07752" lon="0.5049">
        <ele>502.039097</ele>
        <time>2021-04-18T13:23:17.403Z</time>
      </trkpt>
      <trkpt lat="43.07757" lon="0.50501">
        <ele>502.203251</ele>
        <time>2021-04-18T13:23:19.406Z</time>
      </trkpt>
      <trkpt lat="43.07767" lon="0.5051">
        <ele>502.408577</ele>
        <time>2021-04-18T13:23:22.389Z</time>
      </trkpt>
      <trkpt lat="43.07776" lon="0.50517">
        <ele>502.578987</ele>
        <time>2021-04-18T13:23:27.426Z</time>
      </trkpt>
      <trkpt lat="43.07785" lon="0.50519">
        <ele>503.106641</ele>
        <time>2021-04-18T13:23:34.423Z</time>
      </trkpt>
      <trkpt lat="43.07795" lon="0.50525">
        <ele>503.763589</ele>
        <time>2021-04-18T13:23:39.423Z</time>
      </trkpt>
      <trkpt lat="43.07805" lon="0.50532">
        <ele>504.46104</ele>
        <time>2021-04-18T13:23:43.398Z</time>
      </trkpt>
      <trkpt lat="43.07814" lon="0.50541">
        <ele>505.123957</ele>
        <time>2021-04-18T13:23:47.413Z</time>
      </trkpt>
      <trkpt lat="43.0782" lon="0.50554">
        <ele>505.802237</ele>
        <time>2021-04-18T13:23:51.387Z</time>
      </trkpt>
      <trkpt lat="43.07823" lon="0.50566">
        <ele>506.37302</ele>
        <time>2021-04-18T13:23:54.394Z</time>
      </trkpt>
      <trkpt lat="43.07826" lon="0.5058">
        <ele>507.018912</ele>
        <time>2021-04-18T13:23:58.408Z</time>
      </trkpt>
      <trkpt lat="43.07828" lon="0.50594">
        <ele>507.675318</ele>
        <time>2021-04-18T13:24:02.422Z</time>
      </trkpt>
      <trkpt lat="43.0783" lon="0.50609">
        <ele>508.332357</ele>
        <time>2021-04-18T13:24:06.399Z</time>
      </trkpt>
      <trkpt lat="43.07833" lon="0.50621">
        <ele>508.900235</ele>
        <time>2021-04-18T13:24:09.383Z</time>
      </trkpt>
      <trkpt lat="43.07836" lon="0.50634">
        <ele>509.516069</ele>
        <time>2021-04-18T13:24:12.413Z</time>
      </trkpt>
      <trkpt lat="43.0784" lon="0.50646">
        <ele>510.107241</ele>
        <time>2021-04-18T13:24:15.397Z</time>
      </trkpt>
      <trkpt lat="43.07844" lon="0.50662">
        <ele>510.833849</ele>
        <time>2021-04-18T13:24:19.409Z</time>
      </trkpt>
      <trkpt lat="43.07846" lon="0.50675">
        <ele>511.451611</ele>
        <time>2021-04-18T13:24:23.399Z</time>
      </trkpt>
      <trkpt lat="43.07848" lon="0.50688">
        <ele>512.037493</ele>
        <time>2021-04-18T13:24:28.411Z</time>
      </trkpt>
      <trkpt lat="43.07847" lon="0.50702">
        <ele>512.646462</ele>
        <time>2021-04-18T13:24:34.425Z</time>
      </trkpt>
      <trkpt lat="43.07848" lon="0.50717">
        <ele>513.309337</ele>
        <time>2021-04-18T13:24:39.418Z</time>
      </trkpt>
      <trkpt lat="43.07847" lon="0.50732">
        <ele>514.309088</ele>
        <time>2021-04-18T13:24:44.423Z</time>
      </trkpt>
      <trkpt lat="43.07846" lon="0.50745">
        <ele>515.388792</ele>
        <time>2021-04-18T13:24:49.397Z</time>
      </trkpt>
      <trkpt lat="43.07843" lon="0.50758">
        <ele>516.41736</ele>
        <time>2021-04-18T13:24:54.411Z</time>
      </trkpt>
      <trkpt lat="43.07842" lon="0.50772">
        <ele>517.507253</ele>
        <time>2021-04-18T13:25:00.413Z</time>
      </trkpt>
      <trkpt lat="43.07839" lon="0.50786">
        <ele>518.655266</ele>
        <time>2021-04-18T13:25:06.414Z</time>
      </trkpt>
      <trkpt lat="43.07837" lon="0.508">
        <ele>519.830896</ele>
        <time>2021-04-18T13:25:11.413Z</time>
      </trkpt>
      <trkpt lat="43.07835" lon="0.50814">
        <ele>520.920731</ele>
        <time>2021-04-18T13:25:15.432Z</time>
      </trkpt>
      <trkpt lat="43.07832" lon="0.50826">
        <ele>521.908291</ele>
        <time>2021-04-18T13:25:19.410Z</time>
      </trkpt>
      <trkpt lat="43.07829" lon="0.5084">
        <ele>523.063863</ele>
        <time>2021-04-18T13:25:23.427Z</time>
      </trkpt>
      <trkpt lat="43.07826" lon="0.50852">
        <ele>524.097425</ele>
        <time>2021-04-18T13:25:27.429Z</time>
      </trkpt>
      <trkpt lat="43.07824" lon="0.50866">
        <ele>525.175664</ele>
        <time>2021-04-18T13:25:31.412Z</time>
      </trkpt>
      <trkpt lat="43.07823" lon="0.50878">
        <ele>526.187209</ele>
        <time>2021-04-18T13:25:35.427Z</time>
      </trkpt>
      <trkpt lat="43.07822" lon="0.50893">
        <ele>527.367477</ele>
        <time>2021-04-18T13:25:40.396Z</time>
      </trkpt>
      <trkpt lat="43.0782" lon="0.50907">
        <ele>528.45925</ele>
        <time>2021-04-18T13:25:44.413Z</time>
      </trkpt>
      <trkpt lat="43.07819" lon="0.5092">
        <ele>529.527026</ele>
        <time>2021-04-18T13:25:48.415Z</time>
      </trkpt>
      <trkpt lat="43.0782" lon="0.50934">
        <ele>530.597865</ele>
        <time>2021-04-18T13:25:52.415Z</time>
      </trkpt>
      <trkpt lat="43.07819" lon="0.50946">
        <ele>531.583307</ele>
        <time>2021-04-18T13:25:56.426Z</time>
      </trkpt>
      <trkpt lat="43.07811" lon="0.50956">
        <ele>532.755258</ele>
        <time>2021-04-18T13:26:02.397Z</time>
      </trkpt>
      <trkpt lat="43.07801" lon="0.50965">
        <ele>532.863364</ele>
        <time>2021-04-18T13:26:07.399Z</time>
      </trkpt>
      <trkpt lat="43.0779" lon="0.50972">
        <ele>532.699244</ele>
        <time>2021-04-18T13:26:10.413Z</time>
      </trkpt>
      <trkpt lat="43.07778" lon="0.50981">
        <ele>532.528178</ele>
        <time>2021-04-18T13:26:13.422Z</time>
      </trkpt>
      <trkpt lat="43.07767" lon="0.50987">
        <ele>532.377564</ele>
        <time>2021-04-18T13:26:16.400Z</time>
      </trkpt>
      <trkpt lat="43.07756" lon="0.50994">
        <ele>532.220558</ele>
        <time>2021-04-18T13:26:19.411Z</time>
      </trkpt>
      <trkpt lat="43.07747" lon="0.50997">
        <ele>532.08877</ele>
        <time>2021-04-18T13:26:21.416Z</time>
      </trkpt>
      <trkpt lat="43.07736" lon="0.51001">
        <ele>531.943408</ele>
        <time>2021-04-18T13:26:23.417Z</time>
      </trkpt>
      <trkpt lat="43.07725" lon="0.51006">
        <ele>531.79042</ele>
        <time>2021-04-18T13:26:25.404Z</time>
      </trkpt>
      <trkpt lat="43.07712" lon="0.51014">
        <ele>531.610157</ele>
        <time>2021-04-18T13:26:27.402Z</time>
      </trkpt>
      <trkpt lat="43.07701" lon="0.51024">
        <ele>531.43374</ele>
        <time>2021-04-18T13:26:29.401Z</time>
      </trkpt>
      <trkpt lat="43.07691" lon="0.51038">
        <ele>531.248616</ele>
        <time>2021-04-18T13:26:31.396Z</time>
      </trkpt>
      <trkpt lat="43.07682" lon="0.51051">
        <ele>531.079444</ele>
        <time>2021-04-18T13:26:33.402Z</time>
      </trkpt>
      <trkpt lat="43.07678" lon="0.51064">
        <ele>530.948763</ele>
        <time>2021-04-18T13:26:35.408Z</time>
      </trkpt>
      <trkpt lat="43.07677" lon="0.51077">
        <ele>530.821839</ele>
        <time>2021-04-18T13:26:37.404Z</time>
      </trkpt>
      <trkpt lat="43.07674" lon="0.51095">
        <ele>530.646868</ele>
        <time>2021-04-18T13:26:39.407Z</time>
      </trkpt>
      <trkpt lat="43.07673" lon="0.51117">
        <ele>528.705315</ele>
        <time>2021-04-18T13:26:41.408Z</time>
      </trkpt>
      <trkpt lat="43.07675" lon="0.51141">
        <ele>526.634129</ele>
        <time>2021-04-18T13:26:43.407Z</time>
      </trkpt>
      <trkpt lat="43.0768" lon="0.51162">
        <ele>524.750849</ele>
        <time>2021-04-18T13:26:45.403Z</time>
      </trkpt>
      <trkpt lat="43.07685" lon="0.51185">
        <ele>522.61568</ele>
        <time>2021-04-18T13:26:47.401Z</time>
      </trkpt>
      <trkpt lat="43.0769" lon="0.51206">
        <ele>520.756314</ele>
        <time>2021-04-18T13:26:49.449Z</time>
      </trkpt>
      <trkpt lat="43.07698" lon="0.51224">
        <ele>518.937903</ele>
        <time>2021-04-18T13:26:51.446Z</time>
      </trkpt>
      <trkpt lat="43.07708" lon="0.51239">
        <ele>517.137936</ele>
        <time>2021-04-18T13:26:53.427Z</time>
      </trkpt>
      <trkpt lat="43.07719" lon="0.51253">
        <ele>515.341017</ele>
        <time>2021-04-18T13:26:55.419Z</time>
      </trkpt>
      <trkpt lat="43.07728" lon="0.51266">
        <ele>513.847189</ele>
        <time>2021-04-18T13:26:57.408Z</time>
      </trkpt>
      <trkpt lat="43.07732" lon="0.5128">
        <ele>512.496642</ele>
        <time>2021-04-18T13:26:59.408Z</time>
      </trkpt>
      <trkpt lat="43.07732" lon="0.51297">
        <ele>511.020381</ele>
        <time>2021-04-18T13:27:01.429Z</time>
      </trkpt>
      <trkpt lat="43.0773" lon="0.51315">
        <ele>509.501943</ele>
        <time>2021-04-18T13:27:03.398Z</time>
      </trkpt>
      <trkpt lat="43.0773" lon="0.51331">
        <ele>508.81684</ele>
        <time>2021-04-18T13:27:05.394Z</time>
      </trkpt>
      <trkpt lat="43.07736" lon="0.51349">
        <ele>508.18756</ele>
        <time>2021-04-18T13:27:07.422Z</time>
      </trkpt>
      <trkpt lat="43.07744" lon="0.51366">
        <ele>507.535402</ele>
        <time>2021-04-18T13:27:09.427Z</time>
      </trkpt>
      <trkpt lat="43.07752" lon="0.51381">
        <ele>506.949276</ele>
        <time>2021-04-18T13:27:11.412Z</time>
      </trkpt>
      <trkpt lat="43.07759" lon="0.51392">
        <ele>506.469988</ele>
        <time>2021-04-18T13:27:13.397Z</time>
      </trkpt>
      <trkpt lat="43.07767" lon="0.51404">
        <ele>505.937698</ele>
        <time>2021-04-18T13:27:16.412Z</time>
      </trkpt>
      <trkpt lat="43.07772" lon="0.51416">
        <ele>505.513909</ele>
        <time>2021-04-18T13:27:18.412Z</time>
      </trkpt>
      <trkpt lat="43.07775" lon="0.51432">
        <ele>504.969753</ele>
        <time>2021-04-18T13:27:20.411Z</time>
      </trkpt>
      <trkpt lat="43.07775" lon="0.51448">
        <ele>504.45038</ele>
        <time>2021-04-18T13:27:22.416Z</time>
      </trkpt>
      <trkpt lat="43.07775" lon="0.51465">
        <ele>503.914978</ele>
        <time>2021-04-18T13:27:24.429Z</time>
      </trkpt>
      <trkpt lat="43.07775" lon="0.51481">
        <ele>503.395699</ele>
        <time>2021-04-18T13:27:26.415Z</time>
      </trkpt>
      <trkpt lat="43.07775" lon="0.51495">
        <ele>502.947355</ele>
        <time>2021-04-18T13:27:28.411Z</time>
      </trkpt>
      <trkpt lat="43.07774" lon="0.51509">
        <ele>502.503347</ele>
        <time>2021-04-18T13:27:30.451Z</time>
      </trkpt>
      <trkpt lat="43.07771" lon="0.5152">
        <ele>502.098603</ele>
        <time>2021-04-18T13:27:32.416Z</time>
      </trkpt>
      <trkpt lat="43.07765" lon="0.51537">
        <ele>501.50709</ele>
        <time>2021-04-18T13:27:35.417Z</time>
      </trkpt>
      <trkpt lat="43.07762" lon="0.5155">
        <ele>501.393204</ele>
        <time>2021-04-18T13:27:37.401Z</time>
      </trkpt>
      <trkpt lat="43.07763" lon="0.51567">
        <ele>501.518515</ele>
        <time>2021-04-18T13:27:39.402Z</time>
      </trkpt>
      <trkpt lat="43.07764" lon="0.51582">
        <ele>501.638697</ele>
        <time>2021-04-18T13:27:41.417Z</time>
      </trkpt>
      <trkpt lat="43.07764" lon="0.51596">
        <ele>501.74616</ele>
        <time>2021-04-18T13:27:43.403Z</time>
      </trkpt>
      <trkpt lat="43.0776" lon="0.5161">
        <ele>501.859004</ele>
        <time>2021-04-18T13:27:45.402Z</time>
      </trkpt>
      <trkpt lat="43.07753" lon="0.51622">
        <ele>501.980526</ele>
        <time>2021-04-18T13:27:47.418Z</time>
      </trkpt>
      <trkpt lat="43.07745" lon="0.51632">
        <ele>502.090221</ele>
        <time>2021-04-18T13:27:49.402Z</time>
      </trkpt>
      <trkpt lat="43.07737" lon="0.51639">
        <ele>502.191691</ele>
        <time>2021-04-18T13:27:51.406Z</time>
      </trkpt>
      <trkpt lat="43.07727" lon="0.51648">
        <ele>502.312367</ele>
        <time>2021-04-18T13:27:53.402Z</time>
      </trkpt>
      <trkpt lat="43.07717" lon="0.51657">
        <ele>502.441554</ele>
        <time>2021-04-18T13:27:55.406Z</time>
      </trkpt>
      <trkpt lat="43.07708" lon="0.51668">
        <ele>502.569891</ele>
        <time>2021-04-18T13:27:57.402Z</time>
      </trkpt>
      <trkpt lat="43.07703" lon="0.51684">
        <ele>502.704215</ele>
        <time>2021-04-18T13:27:59.441Z</time>
      </trkpt>
      <trkpt lat="43.077" lon="0.51702">
        <ele>502.847927</ele>
        <time>2021-04-18T13:28:01.449Z</time>
      </trkpt>
      <trkpt lat="43.07696" lon="0.5172">
        <ele>502.987746</ele>
        <time>2021-04-18T13:28:03.437Z</time>
      </trkpt>
      <trkpt lat="43.07693" lon="0.51733">
        <ele>503.092301</ele>
        <time>2021-04-18T13:28:05.405Z</time>
      </trkpt>
      <trkpt lat="43.07688" lon="0.51746">
        <ele>503.207322</ele>
        <time>2021-04-18T13:28:08.423Z</time>
      </trkpt>
      <trkpt lat="43.07683" lon="0.51757">
        <ele>503.349426</ele>
        <time>2021-04-18T13:28:11.418Z</time>
      </trkpt>
      <trkpt lat="43.07676" lon="0.51767">
        <ele>503.499146</ele>
        <time>2021-04-18T13:28:14.396Z</time>
      </trkpt>
      <trkpt lat="43.0767" lon="0.51778">
        <ele>503.668142</ele>
        <time>2021-04-18T13:28:18.411Z</time>
      </trkpt>
      <trkpt lat="43.07664" lon="0.51792">
        <ele>503.841237</ele>
        <time>2021-04-18T13:28:22.375Z</time>
      </trkpt>
      <trkpt lat="43.07659" lon="0.51805">
        <ele>504.008412</ele>
        <time>2021-04-18T13:28:25.411Z</time>
      </trkpt>
      <trkpt lat="43.07654" lon="0.51822">
        <ele>504.217322</ele>
        <time>2021-04-18T13:28:28.398Z</time>
      </trkpt>
      <trkpt lat="43.07649" lon="0.51838">
        <ele>504.40923</ele>
        <time>2021-04-18T13:28:31.396Z</time>
      </trkpt>
      <trkpt lat="43.07644" lon="0.51854">
        <ele>504.60653</ele>
        <time>2021-04-18T13:28:34.421Z</time>
      </trkpt>
      <trkpt lat="43.0764" lon="0.51869">
        <ele>504.790406</ele>
        <time>2021-04-18T13:28:37.426Z</time>
      </trkpt>
      <trkpt lat="43.07636" lon="0.51882">
        <ele>504.956673</ele>
        <time>2021-04-18T13:28:40.398Z</time>
      </trkpt>
      <trkpt lat="43.07632" lon="0.51895">
        <ele>505.111808</ele>
        <time>2021-04-18T13:28:43.428Z</time>
      </trkpt>
      <trkpt lat="43.0763" lon="0.51909">
        <ele>505.269331</ele>
        <time>2021-04-18T13:28:46.451Z</time>
      </trkpt>
      <trkpt lat="43.07627" lon="0.51924">
        <ele>505.450423</ele>
        <time>2021-04-18T13:28:49.400Z</time>
      </trkpt>
      <trkpt lat="43.07623" lon="0.51936">
        <ele>505.596508</ele>
        <time>2021-04-18T13:28:51.417Z</time>
      </trkpt>
      <trkpt lat="43.07621" lon="0.5195">
        <ele>505.758095</ele>
        <time>2021-04-18T13:28:53.408Z</time>
      </trkpt>
      <trkpt lat="43.07618" lon="0.51962">
        <ele>505.904765</ele>
        <time>2021-04-18T13:28:55.409Z</time>
      </trkpt>
      <trkpt lat="43.07614" lon="0.51979">
        <ele>505.864632</ele>
        <time>2021-04-18T13:28:58.409Z</time>
      </trkpt>
      <trkpt lat="43.07613" lon="0.51996">
        <ele>505.572716</ele>
        <time>2021-04-18T13:29:01.404Z</time>
      </trkpt>
      <trkpt lat="43.07613" lon="0.52009">
        <ele>505.3662</ele>
        <time>2021-04-18T13:29:03.394Z</time>
      </trkpt>
      <trkpt lat="43.07614" lon="0.52021">
        <ele>505.160977</ele>
        <time>2021-04-18T13:29:05.445Z</time>
      </trkpt>
      <trkpt lat="43.07616" lon="0.52037">
        <ele>504.88822</ele>
        <time>2021-04-18T13:29:08.448Z</time>
      </trkpt>
      <trkpt lat="43.07618" lon="0.52051">
        <ele>504.649059</ele>
        <time>2021-04-18T13:29:11.408Z</time>
      </trkpt>
      <trkpt lat="43.07617" lon="0.52068">
        <ele>504.374326</ele>
        <time>2021-04-18T13:29:14.394Z</time>
      </trkpt>
      <trkpt lat="43.07618" lon="0.52081">
        <ele>504.146272</ele>
        <time>2021-04-18T13:29:16.398Z</time>
      </trkpt>
      <trkpt lat="43.07618" lon="0.52094">
        <ele>503.928111</ele>
        <time>2021-04-18T13:29:18.426Z</time>
      </trkpt>
      <trkpt lat="43.07618" lon="0.52107">
        <ele>503.715001</ele>
        <time>2021-04-18T13:29:20.399Z</time>
      </trkpt>
      <trkpt lat="43.07619" lon="0.5212">
        <ele>503.498311</ele>
        <time>2021-04-18T13:29:22.411Z</time>
      </trkpt>
      <trkpt lat="43.07619" lon="0.52135">
        <ele>503.258087</ele>
        <time>2021-04-18T13:29:24.409Z</time>
      </trkpt>
      <trkpt lat="43.0762" lon="0.5215">
        <ele>503.002762</ele>
        <time>2021-04-18T13:29:26.422Z</time>
      </trkpt>
      <trkpt lat="43.07621" lon="0.52165">
        <ele>502.744115</ele>
        <time>2021-04-18T13:29:28.429Z</time>
      </trkpt>
      <trkpt lat="43.07621" lon="0.52181">
        <ele>502.480763</ele>
        <time>2021-04-18T13:29:30.412Z</time>
      </trkpt>
      <trkpt lat="43.07622" lon="0.52196">
        <ele>502.230708</ele>
        <time>2021-04-18T13:29:32.430Z</time>
      </trkpt>
      <trkpt lat="43.07622" lon="0.5221">
        <ele>501.995964</ele>
        <time>2021-04-18T13:29:34.417Z</time>
      </trkpt>
      <trkpt lat="43.07623" lon="0.52224">
        <ele>501.902842</ele>
        <time>2021-04-18T13:29:36.413Z</time>
      </trkpt>
      <trkpt lat="43.07622" lon="0.52238">
        <ele>501.900808</ele>
        <time>2021-04-18T13:29:38.426Z</time>
      </trkpt>
      <trkpt lat="43.07621" lon="0.52251">
        <ele>501.898833</ele>
        <time>2021-04-18T13:29:40.379Z</time>
      </trkpt>
      <trkpt lat="43.07621" lon="0.52263">
        <ele>501.896962</ele>
        <time>2021-04-18T13:29:42.430Z</time>
      </trkpt>
      <trkpt lat="43.07619" lon="0.52276">
        <ele>501.895057</ele>
        <time>2021-04-18T13:29:44.413Z</time>
      </trkpt>
      <trkpt lat="43.07617" lon="0.52288">
        <ele>501.893158</ele>
        <time>2021-04-18T13:29:46.398Z</time>
      </trkpt>
      <trkpt lat="43.07615" lon="0.52301">
        <ele>501.891195</ele>
        <time>2021-04-18T13:29:48.418Z</time>
      </trkpt>
      <trkpt lat="43.07612" lon="0.52313">
        <ele>501.889264</ele>
        <time>2021-04-18T13:29:50.415Z</time>
      </trkpt>
      <trkpt lat="43.07608" lon="0.52324">
        <ele>501.887398</ele>
        <time>2021-04-18T13:29:52.399Z</time>
      </trkpt>
      <trkpt lat="43.07603" lon="0.52335">
        <ele>501.885453</ele>
        <time>2021-04-18T13:29:54.414Z</time>
      </trkpt>
      <trkpt lat="43.07595" lon="0.52347">
        <ele>501.882981</ele>
        <time>2021-04-18T13:29:57.400Z</time>
      </trkpt>
      <trkpt lat="43.07588" lon="0.52357">
        <ele>501.880902</ele>
        <time>2021-04-18T13:29:59.419Z</time>
      </trkpt>
      <trkpt lat="43.07579" lon="0.52367">
        <ele>501.878583</ele>
        <time>2021-04-18T13:30:01.401Z</time>
      </trkpt>
      <trkpt lat="43.07571" lon="0.52376">
        <ele>501.876432</ele>
        <time>2021-04-18T13:30:03.385Z</time>
      </trkpt>
      <trkpt lat="43.07563" lon="0.52386">
        <ele>501.874273</ele>
        <time>2021-04-18T13:30:05.398Z</time>
      </trkpt>
      <trkpt lat="43.07555" lon="0.52395">
        <ele>501.871986</ele>
        <time>2021-04-18T13:30:07.399Z</time>
      </trkpt>
      <trkpt lat="43.07546" lon="0.52406">
        <ele>501.869619</ele>
        <time>2021-04-18T13:30:09.407Z</time>
      </trkpt>
      <trkpt lat="43.07537" lon="0.52419">
        <ele>501.856925</ele>
        <time>2021-04-18T13:30:11.400Z</time>
      </trkpt>
      <trkpt lat="43.07529" lon="0.52431">
        <ele>501.581648</ele>
        <time>2021-04-18T13:30:13.406Z</time>
      </trkpt>
      <trkpt lat="43.07521" lon="0.52443">
        <ele>501.329115</ele>
        <time>2021-04-18T13:30:15.405Z</time>
      </trkpt>
      <trkpt lat="43.07513" lon="0.52454">
        <ele>501.094072</ele>
        <time>2021-04-18T13:30:17.404Z</time>
      </trkpt>
      <trkpt lat="43.07505" lon="0.52463">
        <ele>500.854163</ele>
        <time>2021-04-18T13:30:19.415Z</time>
      </trkpt>
      <trkpt lat="43.07496" lon="0.52474">
        <ele>500.595117</ele>
        <time>2021-04-18T13:30:21.419Z</time>
      </trkpt>
      <trkpt lat="43.07487" lon="0.52486">
        <ele>500.337108</ele>
        <time>2021-04-18T13:30:23.418Z</time>
      </trkpt>
      <trkpt lat="43.07479" lon="0.52498">
        <ele>500.079073</ele>
        <time>2021-04-18T13:30:25.430Z</time>
      </trkpt>
      <trkpt lat="43.07471" lon="0.52509">
        <ele>499.832531</ele>
        <time>2021-04-18T13:30:27.394Z</time>
      </trkpt>
      <trkpt lat="43.07463" lon="0.5252">
        <ele>499.581086</ele>
        <time>2021-04-18T13:30:29.454Z</time>
      </trkpt>
      <trkpt lat="43.07455" lon="0.52532">
        <ele>499.336159</ele>
        <time>2021-04-18T13:30:31.404Z</time>
      </trkpt>
      <trkpt lat="43.07448" lon="0.52543">
        <ele>499.098252</ele>
        <time>2021-04-18T13:30:33.397Z</time>
      </trkpt>
      <trkpt lat="43.07441" lon="0.52553">
        <ele>498.880191</ele>
        <time>2021-04-18T13:30:35.402Z</time>
      </trkpt>
      <trkpt lat="43.07436" lon="0.52563">
        <ele>498.681012</ele>
        <time>2021-04-18T13:30:37.405Z</time>
      </trkpt>
      <trkpt lat="43.07425" lon="0.52572">
        <ele>498.415117</ele>
        <time>2021-04-18T13:30:40.421Z</time>
      </trkpt>
      <trkpt lat="43.07416" lon="0.5256">
        <ele>498.146477</ele>
        <time>2021-04-18T13:30:43.391Z</time>
      </trkpt>
      <trkpt lat="43.07413" lon="0.52548">
        <ele>497.945907</ele>
        <time>2021-04-18T13:30:45.411Z</time>
      </trkpt>
      <trkpt lat="43.07408" lon="0.52531">
        <ele>497.686226</ele>
        <time>2021-04-18T13:30:48.407Z</time>
      </trkpt>
      <trkpt lat="43.07401" lon="0.52516">
        <ele>497.432592</ele>
        <time>2021-04-18T13:30:51.422Z</time>
      </trkpt>
      <trkpt lat="43.07395" lon="0.52502">
        <ele>497.199926</ele>
        <time>2021-04-18T13:30:54.421Z</time>
      </trkpt>
      <trkpt lat="43.07388" lon="0.5249">
        <ele>496.980004</ele>
        <time>2021-04-18T13:30:57.403Z</time>
      </trkpt>
      <trkpt lat="43.07383" lon="0.52478">
        <ele>496.783565</ele>
        <time>2021-04-18T13:30:59.408Z</time>
      </trkpt>
      <trkpt lat="43.07377" lon="0.52466">
        <ele>496.570533</ele>
        <time>2021-04-18T13:31:01.408Z</time>
      </trkpt>
      <trkpt lat="43.07368" lon="0.52454">
        <ele>496.319968</ele>
        <time>2021-04-18T13:31:03.410Z</time>
      </trkpt>
      <trkpt lat="43.07359" lon="0.52444">
        <ele>496.089178</ele>
        <time>2021-04-18T13:31:05.397Z</time>
      </trkpt>
      <trkpt lat="43.07351" lon="0.52436">
        <ele>495.904491</ele>
        <time>2021-04-18T13:31:07.404Z</time>
      </trkpt>
      <trkpt lat="43.07341" lon="0.52436">
        <ele>495.718051</ele>
        <time>2021-04-18T13:31:10.413Z</time>
      </trkpt>
      <trkpt lat="43.07335" lon="0.52446">
        <ele>495.524999</ele>
        <time>2021-04-18T13:31:13.397Z</time>
      </trkpt>
      <trkpt lat="43.07329" lon="0.52461">
        <ele>495.27355</ele>
        <time>2021-04-18T13:31:16.412Z</time>
      </trkpt>
      <trkpt lat="43.07323" lon="0.52471">
        <ele>495.096453</ele>
        <time>2021-04-18T13:31:18.404Z</time>
      </trkpt>
      <trkpt lat="43.07316" lon="0.52486">
        <ele>494.8357</ele>
        <time>2021-04-18T13:31:21.408Z</time>
      </trkpt>
      <trkpt lat="43.07312" lon="0.52498">
        <ele>494.658684</ele>
        <time>2021-04-18T13:31:23.402Z</time>
      </trkpt>
      <trkpt lat="43.07308" lon="0.52514">
        <ele>494.448498</ele>
        <time>2021-04-18T13:31:26.418Z</time>
      </trkpt>
      <trkpt lat="43.07305" lon="0.52528">
        <ele>494.482828</ele>
        <time>2021-04-18T13:31:29.459Z</time>
      </trkpt>
      <trkpt lat="43.07301" lon="0.52542">
        <ele>494.516318</ele>
        <time>2021-04-18T13:31:32.407Z</time>
      </trkpt>
      <trkpt lat="43.07297" lon="0.52556">
        <ele>494.550645</ele>
        <time>2021-04-18T13:31:35.421Z</time>
      </trkpt>
      <trkpt lat="43.07293" lon="0.52572">
        <ele>494.587461</ele>
        <time>2021-04-18T13:31:38.431Z</time>
      </trkpt>
      <trkpt lat="43.07291" lon="0.52587">
        <ele>494.622143</ele>
        <time>2021-04-18T13:31:41.419Z</time>
      </trkpt>
      <trkpt lat="43.07291" lon="0.52606">
        <ele>494.663969</ele>
        <time>2021-04-18T13:31:44.413Z</time>
      </trkpt>
      <trkpt lat="43.07292" lon="0.52619">
        <ele>494.694199</ele>
        <time>2021-04-18T13:31:46.398Z</time>
      </trkpt>
      <trkpt lat="43.07293" lon="0.52633">
        <ele>494.724054</ele>
        <time>2021-04-18T13:31:48.397Z</time>
      </trkpt>
      <trkpt lat="43.07294" lon="0.52646">
        <ele>494.754673</ele>
        <time>2021-04-18T13:31:50.403Z</time>
      </trkpt>
      <trkpt lat="43.07293" lon="0.52664">
        <ele>494.794963</ele>
        <time>2021-04-18T13:31:53.401Z</time>
      </trkpt>
      <trkpt lat="43.07292" lon="0.52677">
        <ele>494.822538</ele>
        <time>2021-04-18T13:31:55.402Z</time>
      </trkpt>
      <trkpt lat="43.0729" lon="0.52694">
        <ele>494.862735</ele>
        <time>2021-04-18T13:31:58.416Z</time>
      </trkpt>
      <trkpt lat="43.07287" lon="0.52708">
        <ele>494.893864</ele>
        <time>2021-04-18T13:32:00.431Z</time>
      </trkpt>
      <trkpt lat="43.07285" lon="0.52722">
        <ele>494.926966</ele>
        <time>2021-04-18T13:32:02.398Z</time>
      </trkpt>
      <trkpt lat="43.07283" lon="0.52738">
        <ele>494.963475</ele>
        <time>2021-04-18T13:32:04.427Z</time>
      </trkpt>
      <trkpt lat="43.0728" lon="0.52755">
        <ele>494.911004</ele>
        <time>2021-04-18T13:32:06.395Z</time>
      </trkpt>
      <trkpt lat="43.07276" lon="0.52773">
        <ele>494.466923</ele>
        <time>2021-04-18T13:32:08.413Z</time>
      </trkpt>
      <trkpt lat="43.07273" lon="0.52792">
        <ele>493.996803</ele>
        <time>2021-04-18T13:32:10.400Z</time>
      </trkpt>
      <trkpt lat="43.07269" lon="0.52811">
        <ele>493.50857</ele>
        <time>2021-04-18T13:32:12.431Z</time>
      </trkpt>
      <trkpt lat="43.07267" lon="0.52832">
        <ele>492.999785</ele>
        <time>2021-04-18T13:32:14.402Z</time>
      </trkpt>
      <trkpt lat="43.07265" lon="0.52853">
        <ele>492.475721</ele>
        <time>2021-04-18T13:32:16.415Z</time>
      </trkpt>
      <trkpt lat="43.07264" lon="0.52875">
        <ele>491.948844</ele>
        <time>2021-04-18T13:32:18.415Z</time>
      </trkpt>
      <trkpt lat="43.07262" lon="0.52896">
        <ele>491.421683</ele>
        <time>2021-04-18T13:32:20.398Z</time>
      </trkpt>
      <trkpt lat="43.0726" lon="0.52918">
        <ele>490.895594</ele>
        <time>2021-04-18T13:32:22.413Z</time>
      </trkpt>
      <trkpt lat="43.07257" lon="0.52939">
        <ele>490.374762</ele>
        <time>2021-04-18T13:32:24.403Z</time>
      </trkpt>
      <trkpt lat="43.07253" lon="0.52959">
        <ele>489.862133</ele>
        <time>2021-04-18T13:32:26.423Z</time>
      </trkpt>
      <trkpt lat="43.07248" lon="0.52979">
        <ele>489.357435</ele>
        <time>2021-04-18T13:32:28.429Z</time>
      </trkpt>
      <trkpt lat="43.07243" lon="0.52997">
        <ele>488.917349</ele>
        <time>2021-04-18T13:32:30.429Z</time>
      </trkpt>
      <trkpt lat="43.07238" lon="0.53014">
        <ele>488.582852</ele>
        <time>2021-04-18T13:32:32.432Z</time>
      </trkpt>
      <trkpt lat="43.07233" lon="0.53032">
        <ele>488.258677</ele>
        <time>2021-04-18T13:32:34.411Z</time>
      </trkpt>
      <trkpt lat="43.07229" lon="0.53048">
        <ele>487.947017</ele>
        <time>2021-04-18T13:32:36.431Z</time>
      </trkpt>
      <trkpt lat="43.07224" lon="0.53064">
        <ele>487.645334</ele>
        <time>2021-04-18T13:32:38.402Z</time>
      </trkpt>
      <trkpt lat="43.0722" lon="0.53079">
        <ele>487.355327</ele>
        <time>2021-04-18T13:32:40.451Z</time>
      </trkpt>
      <trkpt lat="43.07216" lon="0.53094">
        <ele>487.078652</ele>
        <time>2021-04-18T13:32:42.404Z</time>
      </trkpt>
      <trkpt lat="43.07213" lon="0.53108">
        <ele>486.810871</ele>
        <time>2021-04-18T13:32:44.399Z</time>
      </trkpt>
      <trkpt lat="43.0721" lon="0.53123">
        <ele>486.544756</ele>
        <time>2021-04-18T13:32:46.400Z</time>
      </trkpt>
      <trkpt lat="43.07208" lon="0.53138">
        <ele>486.276383</ele>
        <time>2021-04-18T13:32:48.423Z</time>
      </trkpt>
      <trkpt lat="43.07207" lon="0.53154">
        <ele>485.986515</ele>
        <time>2021-04-18T13:32:50.399Z</time>
      </trkpt>
      <trkpt lat="43.07208" lon="0.53171">
        <ele>485.690162</ele>
        <time>2021-04-18T13:32:52.399Z</time>
      </trkpt>
      <trkpt lat="43.07208" lon="0.53186">
        <ele>485.4131</ele>
        <time>2021-04-18T13:32:54.377Z</time>
      </trkpt>
      <trkpt lat="43.07208" lon="0.53202">
        <ele>485.138036</ele>
        <time>2021-04-18T13:32:56.407Z</time>
      </trkpt>
      <trkpt lat="43.07208" lon="0.53217">
        <ele>484.861198</ele>
        <time>2021-04-18T13:32:58.403Z</time>
      </trkpt>
      <trkpt lat="43.07207" lon="0.53233">
        <ele>484.649805</ele>
        <time>2021-04-18T13:33:00.422Z</time>
      </trkpt>
      <trkpt lat="43.07207" lon="0.53247">
        <ele>484.701678</ele>
        <time>2021-04-18T13:33:02.427Z</time>
      </trkpt>
      <trkpt lat="43.07206" lon="0.53262">
        <ele>484.752889</ele>
        <time>2021-04-18T13:33:04.396Z</time>
      </trkpt>
      <trkpt lat="43.07205" lon="0.53276">
        <ele>484.804989</ele>
        <time>2021-04-18T13:33:06.430Z</time>
      </trkpt>
      <trkpt lat="43.07204" lon="0.53291">
        <ele>484.855896</ele>
        <time>2021-04-18T13:33:08.398Z</time>
      </trkpt>
      <trkpt lat="43.07203" lon="0.53305">
        <ele>484.908021</ele>
        <time>2021-04-18T13:33:10.433Z</time>
      </trkpt>
      <trkpt lat="43.07203" lon="0.53321">
        <ele>484.962208</ele>
        <time>2021-04-18T13:33:12.397Z</time>
      </trkpt>
      <trkpt lat="43.07203" lon="0.53337">
        <ele>485.020656</ele>
        <time>2021-04-18T13:33:14.399Z</time>
      </trkpt>
      <trkpt lat="43.07205" lon="0.53355">
        <ele>485.085046</ele>
        <time>2021-04-18T13:33:16.397Z</time>
      </trkpt>
      <trkpt lat="43.07206" lon="0.53375">
        <ele>485.153867</ele>
        <time>2021-04-18T13:33:18.409Z</time>
      </trkpt>
      <trkpt lat="43.07207" lon="0.53393">
        <ele>485.221076</ele>
        <time>2021-04-18T13:33:20.397Z</time>
      </trkpt>
      <trkpt lat="43.07208" lon="0.53412">
        <ele>485.286571</ele>
        <time>2021-04-18T13:33:22.419Z</time>
      </trkpt>
      <trkpt lat="43.07209" lon="0.53432">
        <ele>485.356399</ele>
        <time>2021-04-18T13:33:24.426Z</time>
      </trkpt>
      <trkpt lat="43.07209" lon="0.53453">
        <ele>485.432517</ele>
        <time>2021-04-18T13:33:26.410Z</time>
      </trkpt>
      <trkpt lat="43.0721" lon="0.53476">
        <ele>485.509279</ele>
        <time>2021-04-18T13:33:28.423Z</time>
      </trkpt>
      <trkpt lat="43.0721" lon="0.535">
        <ele>485.390013</ele>
        <time>2021-04-18T13:33:30.397Z</time>
      </trkpt>
      <trkpt lat="43.0721" lon="0.53513">
        <ele>485.326651</ele>
        <time>2021-04-18T13:33:31.397Z</time>
      </trkpt>
      <trkpt lat="43.0721" lon="0.53526">
        <ele>485.261791</ele>
        <time>2021-04-18T13:33:32.409Z</time>
      </trkpt>
      <trkpt lat="43.0721" lon="0.53539">
        <ele>485.19742</ele>
        <time>2021-04-18T13:33:33.424Z</time>
      </trkpt>
      <trkpt lat="43.07209" lon="0.53552">
        <ele>485.131976</ele>
        <time>2021-04-18T13:33:34.425Z</time>
      </trkpt>
      <trkpt lat="43.07209" lon="0.53565">
        <ele>485.066091</ele>
        <time>2021-04-18T13:33:35.421Z</time>
      </trkpt>
      <trkpt lat="43.07209" lon="0.53578">
        <ele>484.999707</ele>
        <time>2021-04-18T13:33:36.422Z</time>
      </trkpt>
      <trkpt lat="43.07208" lon="0.53592">
        <ele>484.931827</ele>
        <time>2021-04-18T13:33:37.450Z</time>
      </trkpt>
      <trkpt lat="43.07208" lon="0.53605">
        <ele>484.864352</ele>
        <time>2021-04-18T13:33:38.435Z</time>
      </trkpt>
      <trkpt lat="43.07207" lon="0.53619">
        <ele>484.796283</ele>
        <time>2021-04-18T13:33:39.395Z</time>
      </trkpt>
      <trkpt lat="43.07206" lon="0.53633">
        <ele>484.727595</ele>
        <time>2021-04-18T13:33:40.397Z</time>
      </trkpt>
      <trkpt lat="43.07205" lon="0.53646">
        <ele>484.657593</ele>
        <time>2021-04-18T13:33:41.425Z</time>
      </trkpt>
      <trkpt lat="43.07203" lon="0.5366">
        <ele>484.587392</ele>
        <time>2021-04-18T13:33:42.394Z</time>
      </trkpt>
      <trkpt lat="43.07201" lon="0.53674">
        <ele>484.51609</ele>
        <time>2021-04-18T13:33:43.408Z</time>
      </trkpt>
      <trkpt lat="43.07199" lon="0.53688">
        <ele>484.445474</ele>
        <time>2021-04-18T13:33:44.427Z</time>
      </trkpt>
      <trkpt lat="43.07196" lon="0.53702">
        <ele>484.3742</ele>
        <time>2021-04-18T13:33:45.429Z</time>
      </trkpt>
      <trkpt lat="43.07193" lon="0.53715">
        <ele>484.303393</ele>
        <time>2021-04-18T13:33:46.397Z</time>
      </trkpt>
      <trkpt lat="43.07189" lon="0.53728">
        <ele>484.211744</ele>
        <time>2021-04-18T13:33:47.397Z</time>
      </trkpt>
      <trkpt lat="43.07184" lon="0.53741">
        <ele>484.111942</ele>
        <time>2021-04-18T13:33:48.402Z</time>
      </trkpt>
      <trkpt lat="43.07179" lon="0.53753">
        <ele>484.013762</ele>
        <time>2021-04-18T13:33:49.394Z</time>
      </trkpt>
      <trkpt lat="43.07174" lon="0.53765">
        <ele>483.917592</ele>
        <time>2021-04-18T13:33:50.396Z</time>
      </trkpt>
      <trkpt lat="43.07169" lon="0.53777">
        <ele>483.819952</ele>
        <time>2021-04-18T13:33:51.404Z</time>
      </trkpt>
      <trkpt lat="43.07164" lon="0.53789">
        <ele>483.723638</ele>
        <time>2021-04-18T13:33:52.426Z</time>
      </trkpt>
      <trkpt lat="43.0716" lon="0.53801">
        <ele>483.625458</ele>
        <time>2021-04-18T13:33:53.412Z</time>
      </trkpt>
      <trkpt lat="43.07155" lon="0.53813">
        <ele>483.524946</ele>
        <time>2021-04-18T13:33:54.408Z</time>
      </trkpt>
      <trkpt lat="43.0715" lon="0.53826">
        <ele>483.420395</ele>
        <time>2021-04-18T13:33:55.414Z</time>
      </trkpt>
      <trkpt lat="43.07145" lon="0.53839">
        <ele>483.316748</ele>
        <time>2021-04-18T13:33:56.419Z</time>
      </trkpt>
      <trkpt lat="43.0714" lon="0.53853">
        <ele>483.213301</ele>
        <time>2021-04-18T13:33:57.426Z</time>
      </trkpt>
      <trkpt lat="43.07136" lon="0.53866">
        <ele>483.109471</ele>
        <time>2021-04-18T13:33:58.398Z</time>
      </trkpt>
      <trkpt lat="43.07133" lon="0.5388">
        <ele>483.008814</ele>
        <time>2021-04-18T13:33:59.413Z</time>
      </trkpt>
      <trkpt lat="43.07132" lon="0.53894">
        <ele>482.910708</ele>
        <time>2021-04-18T13:34:00.423Z</time>
      </trkpt>
      <trkpt lat="43.0713" lon="0.53907">
        <ele>482.814229</ele>
        <time>2021-04-18T13:34:01.416Z</time>
      </trkpt>
      <trkpt lat="43.07129" lon="0.5392">
        <ele>482.721707</ele>
        <time>2021-04-18T13:34:02.448Z</time>
      </trkpt>
      <trkpt lat="43.07129" lon="0.53933">
        <ele>482.633588</ele>
        <time>2021-04-18T13:34:03.395Z</time>
      </trkpt>
      <trkpt lat="43.07127" lon="0.53957">
        <ele>482.534763</ele>
        <time>2021-04-18T13:34:05.398Z</time>
      </trkpt>
      <trkpt lat="43.07125" lon="0.53979">
        <ele>482.525689</ele>
        <time>2021-04-18T13:34:07.419Z</time>
      </trkpt>
      <trkpt lat="43.07123" lon="0.54001">
        <ele>482.517081</ele>
        <time>2021-04-18T13:34:09.425Z</time>
      </trkpt>
      <trkpt lat="43.07121" lon="0.54022">
        <ele>482.508808</ele>
        <time>2021-04-18T13:34:11.384Z</time>
      </trkpt>
      <trkpt lat="43.07119" lon="0.54042">
        <ele>482.50053</ele>
        <time>2021-04-18T13:34:13.397Z</time>
      </trkpt>
      <trkpt lat="43.07119" lon="0.54063">
        <ele>482.492434</ele>
        <time>2021-04-18T13:34:15.397Z</time>
      </trkpt>
      <trkpt lat="43.07118" lon="0.54082">
        <ele>482.484972</ele>
        <time>2021-04-18T13:34:17.447Z</time>
      </trkpt>
      <trkpt lat="43.07118" lon="0.54097">
        <ele>482.478703</ele>
        <time>2021-04-18T13:34:19.406Z</time>
      </trkpt>
      <trkpt lat="43.07117" lon="0.54113">
        <ele>482.47263</ele>
        <time>2021-04-18T13:34:21.411Z</time>
      </trkpt>
      <trkpt lat="43.07117" lon="0.54128">
        <ele>482.466722</ele>
        <time>2021-04-18T13:34:23.428Z</time>
      </trkpt>
      <trkpt lat="43.07115" lon="0.54143">
        <ele>482.460694</ele>
        <time>2021-04-18T13:34:25.395Z</time>
      </trkpt>
      <trkpt lat="43.07113" lon="0.54158">
        <ele>482.454607</ele>
        <time>2021-04-18T13:34:27.383Z</time>
      </trkpt>
      <trkpt lat="43.07111" lon="0.54173">
        <ele>482.448289</ele>
        <time>2021-04-18T13:34:29.397Z</time>
      </trkpt>
      <trkpt lat="43.07111" lon="0.5419">
        <ele>482.441706</ele>
        <time>2021-04-18T13:34:31.430Z</time>
      </trkpt>
      <trkpt lat="43.07111" lon="0.54205">
        <ele>482.503083</ele>
        <time>2021-04-18T13:34:33.430Z</time>
      </trkpt>
      <trkpt lat="43.0711" lon="0.5422">
        <ele>482.566328</ele>
        <time>2021-04-18T13:34:35.395Z</time>
      </trkpt>
      <trkpt lat="43.07111" lon="0.54236">
        <ele>482.633365</ele>
        <time>2021-04-18T13:34:37.409Z</time>
      </trkpt>
      <trkpt lat="43.07112" lon="0.54252">
        <ele>482.699827</ele>
        <time>2021-04-18T13:34:39.423Z</time>
      </trkpt>
      <trkpt lat="43.07113" lon="0.54268">
        <ele>482.765703</ele>
        <time>2021-04-18T13:34:41.411Z</time>
      </trkpt>
      <trkpt lat="43.07113" lon="0.54282">
        <ele>482.823432</ele>
        <time>2021-04-18T13:34:43.420Z</time>
      </trkpt>
      <trkpt lat="43.0711" lon="0.54295">
        <ele>482.883732</ele>
        <time>2021-04-18T13:34:45.427Z</time>
      </trkpt>
      <trkpt lat="43.07106" lon="0.5431">
        <ele>482.949892</ele>
        <time>2021-04-18T13:34:47.411Z</time>
      </trkpt>
      <trkpt lat="43.07101" lon="0.54321">
        <ele>483.002378</ele>
        <time>2021-04-18T13:34:49.426Z</time>
      </trkpt>
      <trkpt lat="43.07094" lon="0.54336">
        <ele>483.075768</ele>
        <time>2021-04-18T13:34:52.420Z</time>
      </trkpt>
      <trkpt lat="43.07093" lon="0.54354">
        <ele>483.151497</ele>
        <time>2021-04-18T13:34:55.397Z</time>
      </trkpt>
      <trkpt lat="43.07091" lon="0.54371">
        <ele>483.225565</ele>
        <time>2021-04-18T13:34:58.413Z</time>
      </trkpt>
      <trkpt lat="43.07087" lon="0.54388">
        <ele>483.298911</ele>
        <time>2021-04-18T13:35:01.397Z</time>
      </trkpt>
      <trkpt lat="43.07082" lon="0.54401">
        <ele>483.359849</ele>
        <time>2021-04-18T13:35:04.410Z</time>
      </trkpt>
      <trkpt lat="43.07077" lon="0.54413">
        <ele>483.418615</ele>
        <time>2021-04-18T13:35:07.440Z</time>
      </trkpt>
      <trkpt lat="43.07068" lon="0.54422">
        <ele>483.470683</ele>
        <time>2021-04-18T13:35:11.411Z</time>
      </trkpt>
      <trkpt lat="43.07058" lon="0.54421">
        <ele>483.470683</ele>
        <time>2021-04-18T13:35:14.450Z</time>
      </trkpt>
      <trkpt lat="43.07045" lon="0.54422">
        <ele>483.470683</ele>
        <time>2021-04-18T13:35:17.410Z</time>
      </trkpt>
      <trkpt lat="43.07037" lon="0.54431">
        <ele>483.470683</ele>
        <time>2021-04-18T13:35:20.397Z</time>
      </trkpt>
      <trkpt lat="43.07034" lon="0.54447">
        <ele>483.470683</ele>
        <time>2021-04-18T13:35:23.399Z</time>
      </trkpt>
      <trkpt lat="43.07027" lon="0.54459">
        <ele>483.470683</ele>
        <time>2021-04-18T13:35:26.391Z</time>
      </trkpt>
      <trkpt lat="43.07016" lon="0.54461">
        <ele>483.470683</ele>
        <time>2021-04-18T13:35:29.399Z</time>
      </trkpt>
      <trkpt lat="43.07005" lon="0.54461">
        <ele>483.470683</ele>
        <time>2021-04-18T13:35:32.408Z</time>
      </trkpt>
      <trkpt lat="43.06995" lon="0.54461">
        <ele>483.470683</ele>
        <time>2021-04-18T13:35:35.403Z</time>
      </trkpt>
      <trkpt lat="43.06985" lon="0.54462">
        <ele>483.470683</ele>
        <time>2021-04-18T13:35:39.412Z</time>
      </trkpt>
      <trkpt lat="43.06977" lon="0.54473">
        <ele>483.470683</ele>
        <time>2021-04-18T13:35:46.453Z</time>
      </trkpt>
      <trkpt lat="43.06969" lon="0.54483">
        <ele>483.470683</ele>
        <time>2021-04-18T13:35:50.401Z</time>
      </trkpt>
      <trkpt lat="43.06963" lon="0.54494">
        <ele>483.470683</ele>
        <time>2021-04-18T13:35:54.399Z</time>
      </trkpt>
      <trkpt lat="43.06963" lon="0.54508">
        <ele>483.470683</ele>
        <time>2021-04-18T13:36:01.400Z</time>
      </trkpt>
      <trkpt lat="43.06973" lon="0.5451">
        <ele>483.470683</ele>
        <time>2021-04-18T13:36:06.405Z</time>
      </trkpt>
      <trkpt lat="43.06988" lon="0.54522">
        <ele>483.470683</ele>
        <time>2021-04-18T13:38:25.555Z</time>
      </trkpt>
    </trkseg>
  </trk>
</gpx>